<?xml version="1.0" encoding="UTF-8" standalone="no" ?>
<gpx xmlns="http://www.topografix.com/GPX/1/1" xmlns:xsi="http://www.w3.org/2001/XMLSchema-instance" xsi:schemaLocation="http://www.topografix.com/GPX/1/1 http://www.topografix.com/GPX/1/1/gpx.xsd" version="1.1" creator="VisuGPX - https://www.visugpx.com">
  <metadata>
    <name>VTT ?? Drome ??</name>
  </metadata>
  <trk>
    <name><![CDATA[VTT ☢️ Drome 😜😜]]></name>
    <extensions>
      <line xmlns="http://www.topografix.com/GPX/gpx_style/0/2">
        <color>0000FF</color>
        <width>4</width>
      </line>
    </extensions>
    <trkseg>
      <trkpt lat="44.71331" lon="5.09848">
        <ele>266</ele>
        <time>1970-01-01T00:00:00.000Z</time>
      </trkpt>
      <trkpt lat="44.71331" lon="5.09852">
        <ele>266</ele>
        <time>1970-01-01T00:00:01.000Z</time>
      </trkpt>
      <trkpt lat="44.71333" lon="5.09862">
        <ele>266</ele>
        <time>1970-01-01T00:00:04.000Z</time>
      </trkpt>
      <trkpt lat="44.71334" lon="5.0987">
        <ele>265.8</ele>
        <time>1970-01-01T00:00:06.000Z</time>
      </trkpt>
      <trkpt lat="44.71335" lon="5.09873">
        <ele>265.8</ele>
        <time>1970-01-01T00:00:07.000Z</time>
      </trkpt>
      <trkpt lat="44.71336" lon="5.0988">
        <ele>265.8</ele>
        <time>1970-01-01T00:00:09.000Z</time>
      </trkpt>
      <trkpt lat="44.71338" lon="5.09882">
        <ele>265.8</ele>
        <time>1970-01-01T00:00:10.000Z</time>
      </trkpt>
      <trkpt lat="44.71341" lon="5.09884">
        <ele>266</ele>
        <time>1970-01-01T00:00:11.000Z</time>
      </trkpt>
      <trkpt lat="44.71346" lon="5.09886">
        <ele>266.4</ele>
        <time>1970-01-01T00:00:13.000Z</time>
      </trkpt>
      <trkpt lat="44.71349" lon="5.09886">
        <ele>266.4</ele>
        <time>1970-01-01T00:00:14.000Z</time>
      </trkpt>
      <trkpt lat="44.71355" lon="5.09889">
        <ele>266.6</ele>
        <time>1970-01-01T00:00:16.000Z</time>
      </trkpt>
      <trkpt lat="44.71358" lon="5.0989">
        <ele>266.6</ele>
        <time>1970-01-01T00:00:17.000Z</time>
      </trkpt>
      <trkpt lat="44.71361" lon="5.0989">
        <ele>266.6</ele>
        <time>1970-01-01T00:00:18.000Z</time>
      </trkpt>
      <trkpt lat="44.71379" lon="5.09895">
        <ele>266.6</ele>
        <time>1970-01-01T00:00:24.000Z</time>
      </trkpt>
      <trkpt lat="44.71386" lon="5.09897">
        <ele>267</ele>
        <time>1970-01-01T00:00:26.000Z</time>
      </trkpt>
      <trkpt lat="44.71405" lon="5.09902">
        <ele>267.4</ele>
        <time>1970-01-01T00:00:31.000Z</time>
      </trkpt>
      <trkpt lat="44.71408" lon="5.09903">
        <ele>267.6</ele>
        <time>1970-01-01T00:00:32.000Z</time>
      </trkpt>
      <trkpt lat="44.71412" lon="5.09904">
        <ele>267.6</ele>
        <time>1970-01-01T00:00:33.000Z</time>
      </trkpt>
      <trkpt lat="44.71415" lon="5.09905">
        <ele>267.8</ele>
        <time>1970-01-01T00:00:34.000Z</time>
      </trkpt>
      <trkpt lat="44.71419" lon="5.09906">
        <ele>267.8</ele>
        <time>1970-01-01T00:00:35.000Z</time>
      </trkpt>
      <trkpt lat="44.71423" lon="5.09907">
        <ele>267.8</ele>
        <time>1970-01-01T00:00:36.000Z</time>
      </trkpt>
      <trkpt lat="44.71426" lon="5.09908">
        <ele>267.8</ele>
        <time>1970-01-01T00:00:37.000Z</time>
      </trkpt>
      <trkpt lat="44.7143" lon="5.09909">
        <ele>268</ele>
        <time>1970-01-01T00:00:38.000Z</time>
      </trkpt>
      <trkpt lat="44.71433" lon="5.0991">
        <ele>268</ele>
        <time>1970-01-01T00:00:39.000Z</time>
      </trkpt>
      <trkpt lat="44.71436" lon="5.09911">
        <ele>268</ele>
        <time>1970-01-01T00:00:40.000Z</time>
      </trkpt>
      <trkpt lat="44.71439" lon="5.09912">
        <ele>268</ele>
        <time>1970-01-01T00:00:41.000Z</time>
      </trkpt>
      <trkpt lat="44.71449" lon="5.09914">
        <ele>268</ele>
        <time>1970-01-01T00:00:44.000Z</time>
      </trkpt>
      <trkpt lat="44.7147" lon="5.09924">
        <ele>266.4</ele>
        <time>1970-01-01T00:00:50.000Z</time>
      </trkpt>
      <trkpt lat="44.71474" lon="5.09928">
        <ele>266.2</ele>
        <time>1970-01-01T00:00:51.000Z</time>
      </trkpt>
      <trkpt lat="44.71477" lon="5.09934">
        <ele>265.4</ele>
        <time>1970-01-01T00:00:52.000Z</time>
      </trkpt>
      <trkpt lat="44.71479" lon="5.0994">
        <ele>264.8</ele>
        <time>1970-01-01T00:00:53.000Z</time>
      </trkpt>
      <trkpt lat="44.71481" lon="5.09946">
        <ele>262.8</ele>
        <time>1970-01-01T00:00:54.000Z</time>
      </trkpt>
      <trkpt lat="44.71482" lon="5.09954">
        <ele>261.4</ele>
        <time>1970-01-01T00:00:55.000Z</time>
      </trkpt>
      <trkpt lat="44.71483" lon="5.09962">
        <ele>259.8</ele>
        <time>1970-01-01T00:00:56.000Z</time>
      </trkpt>
      <trkpt lat="44.71482" lon="5.09972">
        <ele>259</ele>
        <time>1970-01-01T00:00:57.000Z</time>
      </trkpt>
      <trkpt lat="44.7148" lon="5.09982">
        <ele>257.6</ele>
        <time>1970-01-01T00:00:58.000Z</time>
      </trkpt>
      <trkpt lat="44.71479" lon="5.0999">
        <ele>256.8</ele>
        <time>1970-01-01T00:00:59.000Z</time>
      </trkpt>
      <trkpt lat="44.71478" lon="5.09997">
        <ele>256.6</ele>
        <time>1970-01-01T00:01:00.000Z</time>
      </trkpt>
      <trkpt lat="44.71476" lon="5.10003">
        <ele>256.4</ele>
        <time>1970-01-01T00:01:01.000Z</time>
      </trkpt>
      <trkpt lat="44.71474" lon="5.10009">
        <ele>256.6</ele>
        <time>1970-01-01T00:01:02.000Z</time>
      </trkpt>
      <trkpt lat="44.71473" lon="5.10013">
        <ele>257.4</ele>
        <time>1970-01-01T00:01:03.000Z</time>
      </trkpt>
      <trkpt lat="44.71473" lon="5.10017">
        <ele>258</ele>
        <time>1970-01-01T00:01:04.000Z</time>
      </trkpt>
      <trkpt lat="44.71474" lon="5.1002">
        <ele>258.4</ele>
        <time>1970-01-01T00:01:05.000Z</time>
      </trkpt>
      <trkpt lat="44.71475" lon="5.10023">
        <ele>258.8</ele>
        <time>1970-01-01T00:01:06.000Z</time>
      </trkpt>
      <trkpt lat="44.71477" lon="5.10026">
        <ele>259</ele>
        <time>1970-01-01T00:01:07.000Z</time>
      </trkpt>
      <trkpt lat="44.71479" lon="5.10028">
        <ele>259.4</ele>
        <time>1970-01-01T00:01:08.000Z</time>
      </trkpt>
      <trkpt lat="44.71481" lon="5.10031">
        <ele>259.6</ele>
        <time>1970-01-01T00:01:09.000Z</time>
      </trkpt>
      <trkpt lat="44.71482" lon="5.10033">
        <ele>260.4</ele>
        <time>1970-01-01T00:01:10.000Z</time>
      </trkpt>
      <trkpt lat="44.71484" lon="5.10035">
        <ele>261</ele>
        <time>1970-01-01T00:01:11.000Z</time>
      </trkpt>
      <trkpt lat="44.71485" lon="5.10038">
        <ele>261.4</ele>
        <time>1970-01-01T00:01:12.000Z</time>
      </trkpt>
      <trkpt lat="44.71487" lon="5.10039">
        <ele>262</ele>
        <time>1970-01-01T00:01:13.000Z</time>
      </trkpt>
      <trkpt lat="44.71491" lon="5.10044">
        <ele>262.6</ele>
        <time>1970-01-01T00:01:15.000Z</time>
      </trkpt>
      <trkpt lat="44.71493" lon="5.10046">
        <ele>263</ele>
        <time>1970-01-01T00:01:16.000Z</time>
      </trkpt>
      <trkpt lat="44.71494" lon="5.10049">
        <ele>263.2</ele>
        <time>1970-01-01T00:01:17.000Z</time>
      </trkpt>
      <trkpt lat="44.71495" lon="5.10051">
        <ele>263.4</ele>
        <time>1970-01-01T00:01:18.000Z</time>
      </trkpt>
      <trkpt lat="44.71497" lon="5.10056">
        <ele>264.2</ele>
        <time>1970-01-01T00:01:20.000Z</time>
      </trkpt>
      <trkpt lat="44.71498" lon="5.1006">
        <ele>264.6</ele>
        <time>1970-01-01T00:01:21.000Z</time>
      </trkpt>
      <trkpt lat="44.715" lon="5.10063">
        <ele>264.8</ele>
        <time>1970-01-01T00:01:22.000Z</time>
      </trkpt>
      <trkpt lat="44.71502" lon="5.10066">
        <ele>265.2</ele>
        <time>1970-01-01T00:01:23.000Z</time>
      </trkpt>
      <trkpt lat="44.71504" lon="5.1007">
        <ele>265.6</ele>
        <time>1970-01-01T00:01:24.000Z</time>
      </trkpt>
      <trkpt lat="44.71505" lon="5.10073">
        <ele>266</ele>
        <time>1970-01-01T00:01:25.000Z</time>
      </trkpt>
      <trkpt lat="44.71506" lon="5.10076">
        <ele>266.6</ele>
        <time>1970-01-01T00:01:26.000Z</time>
      </trkpt>
      <trkpt lat="44.71507" lon="5.10078">
        <ele>266.8</ele>
        <time>1970-01-01T00:01:27.000Z</time>
      </trkpt>
      <trkpt lat="44.71508" lon="5.10081">
        <ele>267.2</ele>
        <time>1970-01-01T00:01:28.000Z</time>
      </trkpt>
      <trkpt lat="44.71509" lon="5.10082">
        <ele>267.6</ele>
        <time>1970-01-01T00:01:29.000Z</time>
      </trkpt>
      <trkpt lat="44.7151" lon="5.10084">
        <ele>268</ele>
        <time>1970-01-01T00:01:30.000Z</time>
      </trkpt>
      <trkpt lat="44.71511" lon="5.10086">
        <ele>268.6</ele>
        <time>1970-01-01T00:01:31.000Z</time>
      </trkpt>
      <trkpt lat="44.71512" lon="5.10088">
        <ele>269</ele>
        <time>1970-01-01T00:01:32.000Z</time>
      </trkpt>
      <trkpt lat="44.71514" lon="5.10089">
        <ele>269.2</ele>
        <time>1970-01-01T00:01:33.000Z</time>
      </trkpt>
      <trkpt lat="44.71515" lon="5.10091">
        <ele>269.4</ele>
        <time>1970-01-01T00:01:34.000Z</time>
      </trkpt>
      <trkpt lat="44.71517" lon="5.10093">
        <ele>269.8</ele>
        <time>1970-01-01T00:01:35.000Z</time>
      </trkpt>
      <trkpt lat="44.71519" lon="5.10096">
        <ele>270.2</ele>
        <time>1970-01-01T00:01:36.000Z</time>
      </trkpt>
      <trkpt lat="44.7152" lon="5.10099">
        <ele>270.6</ele>
        <time>1970-01-01T00:01:37.000Z</time>
      </trkpt>
      <trkpt lat="44.7152" lon="5.10102">
        <ele>270.8</ele>
        <time>1970-01-01T00:01:38.000Z</time>
      </trkpt>
      <trkpt lat="44.71521" lon="5.10104">
        <ele>271.2</ele>
        <time>1970-01-01T00:01:39.000Z</time>
      </trkpt>
      <trkpt lat="44.71521" lon="5.10107">
        <ele>271.6</ele>
        <time>1970-01-01T00:01:40.000Z</time>
      </trkpt>
      <trkpt lat="44.71522" lon="5.1011">
        <ele>272</ele>
        <time>1970-01-01T00:01:41.000Z</time>
      </trkpt>
      <trkpt lat="44.71522" lon="5.10113">
        <ele>272.2</ele>
        <time>1970-01-01T00:01:42.000Z</time>
      </trkpt>
      <trkpt lat="44.71522" lon="5.10116">
        <ele>272.4</ele>
        <time>1970-01-01T00:01:43.000Z</time>
      </trkpt>
      <trkpt lat="44.71521" lon="5.1012">
        <ele>272.6</ele>
        <time>1970-01-01T00:01:44.000Z</time>
      </trkpt>
      <trkpt lat="44.71521" lon="5.10123">
        <ele>272.8</ele>
        <time>1970-01-01T00:01:45.000Z</time>
      </trkpt>
      <trkpt lat="44.7152" lon="5.10126">
        <ele>273</ele>
        <time>1970-01-01T00:01:46.000Z</time>
      </trkpt>
      <trkpt lat="44.71519" lon="5.10128">
        <ele>273.2</ele>
        <time>1970-01-01T00:01:47.000Z</time>
      </trkpt>
      <trkpt lat="44.71518" lon="5.10131">
        <ele>273.2</ele>
        <time>1970-01-01T00:01:48.000Z</time>
      </trkpt>
      <trkpt lat="44.71517" lon="5.10134">
        <ele>273.4</ele>
        <time>1970-01-01T00:01:49.000Z</time>
      </trkpt>
      <trkpt lat="44.71516" lon="5.10136">
        <ele>273.6</ele>
        <time>1970-01-01T00:01:50.000Z</time>
      </trkpt>
      <trkpt lat="44.71515" lon="5.10138">
        <ele>273.6</ele>
        <time>1970-01-01T00:01:51.000Z</time>
      </trkpt>
      <trkpt lat="44.71514" lon="5.1014">
        <ele>273.6</ele>
        <time>1970-01-01T00:01:52.000Z</time>
      </trkpt>
      <trkpt lat="44.71514" lon="5.10143">
        <ele>273.8</ele>
        <time>1970-01-01T00:01:53.000Z</time>
      </trkpt>
      <trkpt lat="44.71513" lon="5.10146">
        <ele>274</ele>
        <time>1970-01-01T00:01:54.000Z</time>
      </trkpt>
      <trkpt lat="44.71512" lon="5.10148">
        <ele>274.2</ele>
        <time>1970-01-01T00:01:55.000Z</time>
      </trkpt>
      <trkpt lat="44.7151" lon="5.10151">
        <ele>274.4</ele>
        <time>1970-01-01T00:01:56.000Z</time>
      </trkpt>
      <trkpt lat="44.71509" lon="5.10153">
        <ele>274.4</ele>
        <time>1970-01-01T00:01:57.000Z</time>
      </trkpt>
      <trkpt lat="44.71509" lon="5.10156">
        <ele>274.4</ele>
        <time>1970-01-01T00:01:58.000Z</time>
      </trkpt>
      <trkpt lat="44.71507" lon="5.10159">
        <ele>274.6</ele>
        <time>1970-01-01T00:01:59.000Z</time>
      </trkpt>
      <trkpt lat="44.71506" lon="5.10162">
        <ele>274.8</ele>
        <time>1970-01-01T00:02:00.000Z</time>
      </trkpt>
      <trkpt lat="44.71505" lon="5.10164">
        <ele>274.8</ele>
        <time>1970-01-01T00:02:01.000Z</time>
      </trkpt>
      <trkpt lat="44.71504" lon="5.10167">
        <ele>275</ele>
        <time>1970-01-01T00:02:02.000Z</time>
      </trkpt>
      <trkpt lat="44.71504" lon="5.10169">
        <ele>275.2</ele>
        <time>1970-01-01T00:02:03.000Z</time>
      </trkpt>
      <trkpt lat="44.71502" lon="5.10172">
        <ele>275.6</ele>
        <time>1970-01-01T00:02:04.000Z</time>
      </trkpt>
      <trkpt lat="44.71501" lon="5.10174">
        <ele>275.8</ele>
        <time>1970-01-01T00:02:05.000Z</time>
      </trkpt>
      <trkpt lat="44.715" lon="5.10177">
        <ele>275.8</ele>
        <time>1970-01-01T00:02:06.000Z</time>
      </trkpt>
      <trkpt lat="44.715" lon="5.1018">
        <ele>276</ele>
        <time>1970-01-01T00:02:07.000Z</time>
      </trkpt>
      <trkpt lat="44.71499" lon="5.10183">
        <ele>276</ele>
        <time>1970-01-01T00:02:08.000Z</time>
      </trkpt>
      <trkpt lat="44.71498" lon="5.10187">
        <ele>276.2</ele>
        <time>1970-01-01T00:02:09.000Z</time>
      </trkpt>
      <trkpt lat="44.71498" lon="5.1019">
        <ele>276.4</ele>
        <time>1970-01-01T00:02:10.000Z</time>
      </trkpt>
      <trkpt lat="44.71499" lon="5.10193">
        <ele>276.8</ele>
        <time>1970-01-01T00:02:11.000Z</time>
      </trkpt>
      <trkpt lat="44.715" lon="5.10196">
        <ele>277.4</ele>
        <time>1970-01-01T00:02:12.000Z</time>
      </trkpt>
      <trkpt lat="44.71502" lon="5.10197">
        <ele>278</ele>
        <time>1970-01-01T00:02:13.000Z</time>
      </trkpt>
      <trkpt lat="44.71503" lon="5.102">
        <ele>278.6</ele>
        <time>1970-01-01T00:02:14.000Z</time>
      </trkpt>
      <trkpt lat="44.71504" lon="5.10205">
        <ele>279</ele>
        <time>1970-01-01T00:02:15.000Z</time>
      </trkpt>
      <trkpt lat="44.71503" lon="5.10209">
        <ele>279.2</ele>
        <time>1970-01-01T00:02:16.000Z</time>
      </trkpt>
      <trkpt lat="44.71502" lon="5.10213">
        <ele>280</ele>
        <time>1970-01-01T00:02:17.000Z</time>
      </trkpt>
      <trkpt lat="44.715" lon="5.10215">
        <ele>280.2</ele>
        <time>1970-01-01T00:02:18.000Z</time>
      </trkpt>
      <trkpt lat="44.71498" lon="5.10217">
        <ele>280.4</ele>
        <time>1970-01-01T00:02:19.000Z</time>
      </trkpt>
      <trkpt lat="44.71496" lon="5.10219">
        <ele>280.8</ele>
        <time>1970-01-01T00:02:20.000Z</time>
      </trkpt>
      <trkpt lat="44.71494" lon="5.10221">
        <ele>281.2</ele>
        <time>1970-01-01T00:02:21.000Z</time>
      </trkpt>
      <trkpt lat="44.71493" lon="5.10224">
        <ele>281.2</ele>
        <time>1970-01-01T00:02:22.000Z</time>
      </trkpt>
      <trkpt lat="44.71492" lon="5.10226">
        <ele>281.6</ele>
        <time>1970-01-01T00:02:23.000Z</time>
      </trkpt>
      <trkpt lat="44.7149" lon="5.10228">
        <ele>281.8</ele>
        <time>1970-01-01T00:02:24.000Z</time>
      </trkpt>
      <trkpt lat="44.71489" lon="5.1023">
        <ele>281.8</ele>
        <time>1970-01-01T00:02:25.000Z</time>
      </trkpt>
      <trkpt lat="44.71488" lon="5.10233">
        <ele>282</ele>
        <time>1970-01-01T00:02:26.000Z</time>
      </trkpt>
      <trkpt lat="44.71486" lon="5.10235">
        <ele>282</ele>
        <time>1970-01-01T00:02:27.000Z</time>
      </trkpt>
      <trkpt lat="44.71485" lon="5.10238">
        <ele>282.2</ele>
        <time>1970-01-01T00:02:28.000Z</time>
      </trkpt>
      <trkpt lat="44.71483" lon="5.10241">
        <ele>282.6</ele>
        <time>1970-01-01T00:02:29.000Z</time>
      </trkpt>
      <trkpt lat="44.71482" lon="5.10243">
        <ele>282.6</ele>
        <time>1970-01-01T00:02:30.000Z</time>
      </trkpt>
      <trkpt lat="44.71481" lon="5.10246">
        <ele>282.8</ele>
        <time>1970-01-01T00:02:31.000Z</time>
      </trkpt>
      <trkpt lat="44.71479" lon="5.1025">
        <ele>283</ele>
        <time>1970-01-01T00:02:32.000Z</time>
      </trkpt>
      <trkpt lat="44.71478" lon="5.10252">
        <ele>283.4</ele>
        <time>1970-01-01T00:02:33.000Z</time>
      </trkpt>
      <trkpt lat="44.71477" lon="5.10255">
        <ele>283.6</ele>
        <time>1970-01-01T00:02:34.000Z</time>
      </trkpt>
      <trkpt lat="44.71476" lon="5.10258">
        <ele>283.8</ele>
        <time>1970-01-01T00:02:35.000Z</time>
      </trkpt>
      <trkpt lat="44.71475" lon="5.10261">
        <ele>283.8</ele>
        <time>1970-01-01T00:02:36.000Z</time>
      </trkpt>
      <trkpt lat="44.71473" lon="5.10263">
        <ele>284</ele>
        <time>1970-01-01T00:02:37.000Z</time>
      </trkpt>
      <trkpt lat="44.71472" lon="5.10266">
        <ele>284.2</ele>
        <time>1970-01-01T00:02:38.000Z</time>
      </trkpt>
      <trkpt lat="44.71471" lon="5.10269">
        <ele>284.4</ele>
        <time>1970-01-01T00:02:39.000Z</time>
      </trkpt>
      <trkpt lat="44.7147" lon="5.10272">
        <ele>284.8</ele>
        <time>1970-01-01T00:02:40.000Z</time>
      </trkpt>
      <trkpt lat="44.71469" lon="5.10275">
        <ele>285</ele>
        <time>1970-01-01T00:02:41.000Z</time>
      </trkpt>
      <trkpt lat="44.71468" lon="5.10278">
        <ele>285.2</ele>
        <time>1970-01-01T00:02:42.000Z</time>
      </trkpt>
      <trkpt lat="44.71468" lon="5.10281">
        <ele>285.4</ele>
        <time>1970-01-01T00:02:43.000Z</time>
      </trkpt>
      <trkpt lat="44.71467" lon="5.10285">
        <ele>285.6</ele>
        <time>1970-01-01T00:02:44.000Z</time>
      </trkpt>
      <trkpt lat="44.71467" lon="5.10288">
        <ele>285.8</ele>
        <time>1970-01-01T00:02:45.000Z</time>
      </trkpt>
      <trkpt lat="44.71467" lon="5.10292">
        <ele>286</ele>
        <time>1970-01-01T00:02:46.000Z</time>
      </trkpt>
      <trkpt lat="44.71467" lon="5.10295">
        <ele>286</ele>
        <time>1970-01-01T00:02:47.000Z</time>
      </trkpt>
      <trkpt lat="44.71467" lon="5.10299">
        <ele>286.2</ele>
        <time>1970-01-01T00:02:48.000Z</time>
      </trkpt>
      <trkpt lat="44.71468" lon="5.10303">
        <ele>286.4</ele>
        <time>1970-01-01T00:02:49.000Z</time>
      </trkpt>
      <trkpt lat="44.71468" lon="5.10307">
        <ele>286.6</ele>
        <time>1970-01-01T00:02:50.000Z</time>
      </trkpt>
      <trkpt lat="44.71469" lon="5.1031">
        <ele>286.8</ele>
        <time>1970-01-01T00:02:51.000Z</time>
      </trkpt>
      <trkpt lat="44.7147" lon="5.10314">
        <ele>287</ele>
        <time>1970-01-01T00:02:52.000Z</time>
      </trkpt>
      <trkpt lat="44.71471" lon="5.10317">
        <ele>287</ele>
        <time>1970-01-01T00:02:53.000Z</time>
      </trkpt>
      <trkpt lat="44.71472" lon="5.10321">
        <ele>287.2</ele>
        <time>1970-01-01T00:02:54.000Z</time>
      </trkpt>
      <trkpt lat="44.71473" lon="5.10324">
        <ele>287.6</ele>
        <time>1970-01-01T00:02:55.000Z</time>
      </trkpt>
      <trkpt lat="44.71474" lon="5.10328">
        <ele>287.8</ele>
        <time>1970-01-01T00:02:56.000Z</time>
      </trkpt>
      <trkpt lat="44.71475" lon="5.10331">
        <ele>288</ele>
        <time>1970-01-01T00:02:57.000Z</time>
      </trkpt>
      <trkpt lat="44.71476" lon="5.10334">
        <ele>288</ele>
        <time>1970-01-01T00:02:58.000Z</time>
      </trkpt>
      <trkpt lat="44.71477" lon="5.10338">
        <ele>288</ele>
        <time>1970-01-01T00:02:59.000Z</time>
      </trkpt>
      <trkpt lat="44.71479" lon="5.10341">
        <ele>288.2</ele>
        <time>1970-01-01T00:03:00.000Z</time>
      </trkpt>
      <trkpt lat="44.7148" lon="5.10344">
        <ele>288.4</ele>
        <time>1970-01-01T00:03:01.000Z</time>
      </trkpt>
      <trkpt lat="44.71481" lon="5.10347">
        <ele>288.6</ele>
        <time>1970-01-01T00:03:02.000Z</time>
      </trkpt>
      <trkpt lat="44.71482" lon="5.10351">
        <ele>288.6</ele>
        <time>1970-01-01T00:03:03.000Z</time>
      </trkpt>
      <trkpt lat="44.71484" lon="5.10354">
        <ele>288.8</ele>
        <time>1970-01-01T00:03:04.000Z</time>
      </trkpt>
      <trkpt lat="44.71485" lon="5.10356">
        <ele>289</ele>
        <time>1970-01-01T00:03:05.000Z</time>
      </trkpt>
      <trkpt lat="44.71487" lon="5.10359">
        <ele>289.2</ele>
        <time>1970-01-01T00:03:06.000Z</time>
      </trkpt>
      <trkpt lat="44.71488" lon="5.10362">
        <ele>289.4</ele>
        <time>1970-01-01T00:03:07.000Z</time>
      </trkpt>
      <trkpt lat="44.71489" lon="5.10365">
        <ele>289.6</ele>
        <time>1970-01-01T00:03:08.000Z</time>
      </trkpt>
      <trkpt lat="44.7149" lon="5.10368">
        <ele>290</ele>
        <time>1970-01-01T00:03:09.000Z</time>
      </trkpt>
      <trkpt lat="44.71492" lon="5.10371">
        <ele>290.2</ele>
        <time>1970-01-01T00:03:10.000Z</time>
      </trkpt>
      <trkpt lat="44.71493" lon="5.10375">
        <ele>290.4</ele>
        <time>1970-01-01T00:03:11.000Z</time>
      </trkpt>
      <trkpt lat="44.71495" lon="5.10378">
        <ele>290.6</ele>
        <time>1970-01-01T00:03:12.000Z</time>
      </trkpt>
      <trkpt lat="44.71496" lon="5.10381">
        <ele>290.8</ele>
        <time>1970-01-01T00:03:13.000Z</time>
      </trkpt>
      <trkpt lat="44.71498" lon="5.10384">
        <ele>290.8</ele>
        <time>1970-01-01T00:03:14.000Z</time>
      </trkpt>
      <trkpt lat="44.71499" lon="5.10387">
        <ele>291</ele>
        <time>1970-01-01T00:03:15.000Z</time>
      </trkpt>
      <trkpt lat="44.71501" lon="5.10391">
        <ele>291.2</ele>
        <time>1970-01-01T00:03:16.000Z</time>
      </trkpt>
      <trkpt lat="44.71502" lon="5.10394">
        <ele>291.2</ele>
        <time>1970-01-01T00:03:17.000Z</time>
      </trkpt>
      <trkpt lat="44.71504" lon="5.10398">
        <ele>291.4</ele>
        <time>1970-01-01T00:03:18.000Z</time>
      </trkpt>
      <trkpt lat="44.71505" lon="5.10401">
        <ele>291.8</ele>
        <time>1970-01-01T00:03:19.000Z</time>
      </trkpt>
      <trkpt lat="44.71507" lon="5.10405">
        <ele>292</ele>
        <time>1970-01-01T00:03:20.000Z</time>
      </trkpt>
      <trkpt lat="44.71508" lon="5.10408">
        <ele>292.2</ele>
        <time>1970-01-01T00:03:21.000Z</time>
      </trkpt>
      <trkpt lat="44.71509" lon="5.10412">
        <ele>292.4</ele>
        <time>1970-01-01T00:03:22.000Z</time>
      </trkpt>
      <trkpt lat="44.7151" lon="5.10415">
        <ele>292.8</ele>
        <time>1970-01-01T00:03:23.000Z</time>
      </trkpt>
      <trkpt lat="44.71511" lon="5.10418">
        <ele>292.8</ele>
        <time>1970-01-01T00:03:24.000Z</time>
      </trkpt>
      <trkpt lat="44.71512" lon="5.10421">
        <ele>293</ele>
        <time>1970-01-01T00:03:25.000Z</time>
      </trkpt>
      <trkpt lat="44.71513" lon="5.10425">
        <ele>293</ele>
        <time>1970-01-01T00:03:26.000Z</time>
      </trkpt>
      <trkpt lat="44.71512" lon="5.10428">
        <ele>293.2</ele>
        <time>1970-01-01T00:03:27.000Z</time>
      </trkpt>
      <trkpt lat="44.71511" lon="5.10431">
        <ele>293.4</ele>
        <time>1970-01-01T00:03:28.000Z</time>
      </trkpt>
      <trkpt lat="44.71509" lon="5.10432">
        <ele>293.6</ele>
        <time>1970-01-01T00:03:29.000Z</time>
      </trkpt>
      <trkpt lat="44.71507" lon="5.10432">
        <ele>293.8</ele>
        <time>1970-01-01T00:03:30.000Z</time>
      </trkpt>
      <trkpt lat="44.71505" lon="5.10431">
        <ele>294</ele>
        <time>1970-01-01T00:03:31.000Z</time>
      </trkpt>
      <trkpt lat="44.71504" lon="5.10429">
        <ele>294.4</ele>
        <time>1970-01-01T00:03:32.000Z</time>
      </trkpt>
      <trkpt lat="44.71502" lon="5.10426">
        <ele>294.6</ele>
        <time>1970-01-01T00:03:33.000Z</time>
      </trkpt>
      <trkpt lat="44.715" lon="5.10424">
        <ele>294.6</ele>
        <time>1970-01-01T00:03:34.000Z</time>
      </trkpt>
      <trkpt lat="44.71499" lon="5.10421">
        <ele>294.8</ele>
        <time>1970-01-01T00:03:35.000Z</time>
      </trkpt>
      <trkpt lat="44.71497" lon="5.10418">
        <ele>294.8</ele>
        <time>1970-01-01T00:03:36.000Z</time>
      </trkpt>
      <trkpt lat="44.71495" lon="5.10416">
        <ele>295</ele>
        <time>1970-01-01T00:03:37.000Z</time>
      </trkpt>
      <trkpt lat="44.71493" lon="5.10413">
        <ele>295.2</ele>
        <time>1970-01-01T00:03:38.000Z</time>
      </trkpt>
      <trkpt lat="44.7149" lon="5.10411">
        <ele>295.2</ele>
        <time>1970-01-01T00:03:39.000Z</time>
      </trkpt>
      <trkpt lat="44.71488" lon="5.10409">
        <ele>295.4</ele>
        <time>1970-01-01T00:03:40.000Z</time>
      </trkpt>
      <trkpt lat="44.71486" lon="5.10407">
        <ele>295.6</ele>
        <time>1970-01-01T00:03:41.000Z</time>
      </trkpt>
      <trkpt lat="44.71483" lon="5.10406">
        <ele>295.6</ele>
        <time>1970-01-01T00:03:42.000Z</time>
      </trkpt>
      <trkpt lat="44.7148" lon="5.10405">
        <ele>296</ele>
        <time>1970-01-01T00:03:43.000Z</time>
      </trkpt>
      <trkpt lat="44.71478" lon="5.10404">
        <ele>296</ele>
        <time>1970-01-01T00:03:44.000Z</time>
      </trkpt>
      <trkpt lat="44.71475" lon="5.10403">
        <ele>296.2</ele>
        <time>1970-01-01T00:03:45.000Z</time>
      </trkpt>
      <trkpt lat="44.71472" lon="5.10402">
        <ele>296.4</ele>
        <time>1970-01-01T00:03:46.000Z</time>
      </trkpt>
      <trkpt lat="44.7147" lon="5.10401">
        <ele>296.8</ele>
        <time>1970-01-01T00:03:47.000Z</time>
      </trkpt>
      <trkpt lat="44.71467" lon="5.104">
        <ele>297</ele>
        <time>1970-01-01T00:03:48.000Z</time>
      </trkpt>
      <trkpt lat="44.71464" lon="5.104">
        <ele>297.2</ele>
        <time>1970-01-01T00:03:49.000Z</time>
      </trkpt>
      <trkpt lat="44.71462" lon="5.104">
        <ele>297.6</ele>
        <time>1970-01-01T00:03:50.000Z</time>
      </trkpt>
      <trkpt lat="44.71459" lon="5.104">
        <ele>297.6</ele>
        <time>1970-01-01T00:03:51.000Z</time>
      </trkpt>
      <trkpt lat="44.71456" lon="5.10401">
        <ele>297.8</ele>
        <time>1970-01-01T00:03:52.000Z</time>
      </trkpt>
      <trkpt lat="44.71453" lon="5.10402">
        <ele>298</ele>
        <time>1970-01-01T00:03:53.000Z</time>
      </trkpt>
      <trkpt lat="44.7145" lon="5.10403">
        <ele>298.2</ele>
        <time>1970-01-01T00:03:54.000Z</time>
      </trkpt>
      <trkpt lat="44.71447" lon="5.10404">
        <ele>298.4</ele>
        <time>1970-01-01T00:03:55.000Z</time>
      </trkpt>
      <trkpt lat="44.71445" lon="5.10405">
        <ele>298.6</ele>
        <time>1970-01-01T00:03:56.000Z</time>
      </trkpt>
      <trkpt lat="44.71442" lon="5.10406">
        <ele>298.8</ele>
        <time>1970-01-01T00:03:57.000Z</time>
      </trkpt>
      <trkpt lat="44.7144" lon="5.10407">
        <ele>298.8</ele>
        <time>1970-01-01T00:03:58.000Z</time>
      </trkpt>
      <trkpt lat="44.71437" lon="5.10408">
        <ele>299.2</ele>
        <time>1970-01-01T00:03:59.000Z</time>
      </trkpt>
      <trkpt lat="44.71434" lon="5.10408">
        <ele>299.4</ele>
        <time>1970-01-01T00:04:00.000Z</time>
      </trkpt>
      <trkpt lat="44.71432" lon="5.10409">
        <ele>299.6</ele>
        <time>1970-01-01T00:04:01.000Z</time>
      </trkpt>
      <trkpt lat="44.71429" lon="5.1041">
        <ele>299.8</ele>
        <time>1970-01-01T00:04:02.000Z</time>
      </trkpt>
      <trkpt lat="44.71427" lon="5.10411">
        <ele>300</ele>
        <time>1970-01-01T00:04:03.000Z</time>
      </trkpt>
      <trkpt lat="44.71425" lon="5.10412">
        <ele>300</ele>
        <time>1970-01-01T00:04:04.000Z</time>
      </trkpt>
      <trkpt lat="44.71422" lon="5.10414">
        <ele>300.2</ele>
        <time>1970-01-01T00:04:05.000Z</time>
      </trkpt>
      <trkpt lat="44.7142" lon="5.10415">
        <ele>300.6</ele>
        <time>1970-01-01T00:04:06.000Z</time>
      </trkpt>
      <trkpt lat="44.71417" lon="5.10416">
        <ele>300.8</ele>
        <time>1970-01-01T00:04:07.000Z</time>
      </trkpt>
      <trkpt lat="44.71414" lon="5.10417">
        <ele>301</ele>
        <time>1970-01-01T00:04:08.000Z</time>
      </trkpt>
      <trkpt lat="44.71411" lon="5.10417">
        <ele>301.2</ele>
        <time>1970-01-01T00:04:09.000Z</time>
      </trkpt>
      <trkpt lat="44.71408" lon="5.10418">
        <ele>301.2</ele>
        <time>1970-01-01T00:04:10.000Z</time>
      </trkpt>
      <trkpt lat="44.71406" lon="5.10418">
        <ele>301.4</ele>
        <time>1970-01-01T00:04:11.000Z</time>
      </trkpt>
      <trkpt lat="44.71403" lon="5.10419">
        <ele>301.6</ele>
        <time>1970-01-01T00:04:12.000Z</time>
      </trkpt>
      <trkpt lat="44.714" lon="5.1042">
        <ele>301.8</ele>
        <time>1970-01-01T00:04:13.000Z</time>
      </trkpt>
      <trkpt lat="44.71398" lon="5.1042">
        <ele>302</ele>
        <time>1970-01-01T00:04:14.000Z</time>
      </trkpt>
      <trkpt lat="44.71395" lon="5.10421">
        <ele>302.4</ele>
        <time>1970-01-01T00:04:15.000Z</time>
      </trkpt>
      <trkpt lat="44.71393" lon="5.1042">
        <ele>302.6</ele>
        <time>1970-01-01T00:04:16.000Z</time>
      </trkpt>
      <trkpt lat="44.7139" lon="5.1042">
        <ele>302.8</ele>
        <time>1970-01-01T00:04:17.000Z</time>
      </trkpt>
      <trkpt lat="44.71387" lon="5.1042">
        <ele>303</ele>
        <time>1970-01-01T00:04:18.000Z</time>
      </trkpt>
      <trkpt lat="44.71384" lon="5.10419">
        <ele>303.2</ele>
        <time>1970-01-01T00:04:19.000Z</time>
      </trkpt>
      <trkpt lat="44.71382" lon="5.10418">
        <ele>303.6</ele>
        <time>1970-01-01T00:04:20.000Z</time>
      </trkpt>
      <trkpt lat="44.7138" lon="5.10418">
        <ele>304</ele>
        <time>1970-01-01T00:04:21.000Z</time>
      </trkpt>
      <trkpt lat="44.71377" lon="5.10418">
        <ele>304.2</ele>
        <time>1970-01-01T00:04:22.000Z</time>
      </trkpt>
      <trkpt lat="44.71375" lon="5.10417">
        <ele>304.6</ele>
        <time>1970-01-01T00:04:23.000Z</time>
      </trkpt>
      <trkpt lat="44.71373" lon="5.10416">
        <ele>305</ele>
        <time>1970-01-01T00:04:24.000Z</time>
      </trkpt>
      <trkpt lat="44.7137" lon="5.10415">
        <ele>305</ele>
        <time>1970-01-01T00:04:25.000Z</time>
      </trkpt>
      <trkpt lat="44.71367" lon="5.10414">
        <ele>305.4</ele>
        <time>1970-01-01T00:04:26.000Z</time>
      </trkpt>
      <trkpt lat="44.71365" lon="5.10414">
        <ele>305.4</ele>
        <time>1970-01-01T00:04:27.000Z</time>
      </trkpt>
      <trkpt lat="44.71362" lon="5.10413">
        <ele>305.6</ele>
        <time>1970-01-01T00:04:28.000Z</time>
      </trkpt>
      <trkpt lat="44.7136" lon="5.10412">
        <ele>305.8</ele>
        <time>1970-01-01T00:04:29.000Z</time>
      </trkpt>
      <trkpt lat="44.71357" lon="5.10412">
        <ele>306</ele>
        <time>1970-01-01T00:04:30.000Z</time>
      </trkpt>
      <trkpt lat="44.71355" lon="5.10411">
        <ele>306.4</ele>
        <time>1970-01-01T00:04:31.000Z</time>
      </trkpt>
      <trkpt lat="44.71352" lon="5.10411">
        <ele>306.4</ele>
        <time>1970-01-01T00:04:32.000Z</time>
      </trkpt>
      <trkpt lat="44.7135" lon="5.10411">
        <ele>306.6</ele>
        <time>1970-01-01T00:04:33.000Z</time>
      </trkpt>
      <trkpt lat="44.71347" lon="5.10412">
        <ele>306.8</ele>
        <time>1970-01-01T00:04:34.000Z</time>
      </trkpt>
      <trkpt lat="44.71344" lon="5.10413">
        <ele>307</ele>
        <time>1970-01-01T00:04:35.000Z</time>
      </trkpt>
      <trkpt lat="44.71342" lon="5.10414">
        <ele>307.4</ele>
        <time>1970-01-01T00:04:36.000Z</time>
      </trkpt>
      <trkpt lat="44.7134" lon="5.10415">
        <ele>307.4</ele>
        <time>1970-01-01T00:04:37.000Z</time>
      </trkpt>
      <trkpt lat="44.71339" lon="5.10417">
        <ele>307.6</ele>
        <time>1970-01-01T00:04:38.000Z</time>
      </trkpt>
      <trkpt lat="44.71338" lon="5.1042">
        <ele>307.8</ele>
        <time>1970-01-01T00:04:39.000Z</time>
      </trkpt>
      <trkpt lat="44.71337" lon="5.10422">
        <ele>308</ele>
        <time>1970-01-01T00:04:40.000Z</time>
      </trkpt>
      <trkpt lat="44.71336" lon="5.10425">
        <ele>308.2</ele>
        <time>1970-01-01T00:04:41.000Z</time>
      </trkpt>
      <trkpt lat="44.71337" lon="5.10428">
        <ele>308.4</ele>
        <time>1970-01-01T00:04:42.000Z</time>
      </trkpt>
      <trkpt lat="44.71337" lon="5.10432">
        <ele>308.6</ele>
        <time>1970-01-01T00:04:43.000Z</time>
      </trkpt>
      <trkpt lat="44.71338" lon="5.10435">
        <ele>308.8</ele>
        <time>1970-01-01T00:04:44.000Z</time>
      </trkpt>
      <trkpt lat="44.71338" lon="5.10438">
        <ele>309</ele>
        <time>1970-01-01T00:04:45.000Z</time>
      </trkpt>
      <trkpt lat="44.71338" lon="5.10442">
        <ele>309.2</ele>
        <time>1970-01-01T00:04:46.000Z</time>
      </trkpt>
      <trkpt lat="44.71339" lon="5.10445">
        <ele>309.4</ele>
        <time>1970-01-01T00:04:47.000Z</time>
      </trkpt>
      <trkpt lat="44.7134" lon="5.10448">
        <ele>309.8</ele>
        <time>1970-01-01T00:04:48.000Z</time>
      </trkpt>
      <trkpt lat="44.7134" lon="5.10451">
        <ele>310</ele>
        <time>1970-01-01T00:04:49.000Z</time>
      </trkpt>
      <trkpt lat="44.71341" lon="5.10454">
        <ele>310</ele>
        <time>1970-01-01T00:04:50.000Z</time>
      </trkpt>
      <trkpt lat="44.71341" lon="5.10457">
        <ele>310.2</ele>
        <time>1970-01-01T00:04:51.000Z</time>
      </trkpt>
      <trkpt lat="44.71342" lon="5.1046">
        <ele>310.4</ele>
        <time>1970-01-01T00:04:52.000Z</time>
      </trkpt>
      <trkpt lat="44.71342" lon="5.10463">
        <ele>310.6</ele>
        <time>1970-01-01T00:04:53.000Z</time>
      </trkpt>
      <trkpt lat="44.71343" lon="5.10466">
        <ele>310.6</ele>
        <time>1970-01-01T00:04:54.000Z</time>
      </trkpt>
      <trkpt lat="44.71343" lon="5.1047">
        <ele>310.8</ele>
        <time>1970-01-01T00:04:55.000Z</time>
      </trkpt>
      <trkpt lat="44.71343" lon="5.10473">
        <ele>311.2</ele>
        <time>1970-01-01T00:04:56.000Z</time>
      </trkpt>
      <trkpt lat="44.71343" lon="5.10476">
        <ele>311.4</ele>
        <time>1970-01-01T00:04:57.000Z</time>
      </trkpt>
      <trkpt lat="44.71344" lon="5.10479">
        <ele>311.8</ele>
        <time>1970-01-01T00:04:58.000Z</time>
      </trkpt>
      <trkpt lat="44.71343" lon="5.10483">
        <ele>312</ele>
        <time>1970-01-01T00:04:59.000Z</time>
      </trkpt>
      <trkpt lat="44.71344" lon="5.10486">
        <ele>312.2</ele>
        <time>1970-01-01T00:05:00.000Z</time>
      </trkpt>
      <trkpt lat="44.71344" lon="5.10488">
        <ele>312.4</ele>
        <time>1970-01-01T00:05:01.000Z</time>
      </trkpt>
      <trkpt lat="44.71344" lon="5.10491">
        <ele>312.6</ele>
        <time>1970-01-01T00:05:02.000Z</time>
      </trkpt>
      <trkpt lat="44.71344" lon="5.10494">
        <ele>312.8</ele>
        <time>1970-01-01T00:05:03.000Z</time>
      </trkpt>
      <trkpt lat="44.71344" lon="5.10496">
        <ele>312.8</ele>
        <time>1970-01-01T00:05:04.000Z</time>
      </trkpt>
      <trkpt lat="44.71344" lon="5.105">
        <ele>313</ele>
        <time>1970-01-01T00:05:05.000Z</time>
      </trkpt>
      <trkpt lat="44.71344" lon="5.10503">
        <ele>313</ele>
        <time>1970-01-01T00:05:06.000Z</time>
      </trkpt>
      <trkpt lat="44.71344" lon="5.10506">
        <ele>313.2</ele>
        <time>1970-01-01T00:05:07.000Z</time>
      </trkpt>
      <trkpt lat="44.71343" lon="5.1051">
        <ele>313.4</ele>
        <time>1970-01-01T00:05:08.000Z</time>
      </trkpt>
      <trkpt lat="44.71343" lon="5.10513">
        <ele>313.6</ele>
        <time>1970-01-01T00:05:09.000Z</time>
      </trkpt>
      <trkpt lat="44.71343" lon="5.10516">
        <ele>314</ele>
        <time>1970-01-01T00:05:10.000Z</time>
      </trkpt>
      <trkpt lat="44.71342" lon="5.10519">
        <ele>314.2</ele>
        <time>1970-01-01T00:05:11.000Z</time>
      </trkpt>
      <trkpt lat="44.71342" lon="5.10522">
        <ele>314.4</ele>
        <time>1970-01-01T00:05:12.000Z</time>
      </trkpt>
      <trkpt lat="44.71341" lon="5.10526">
        <ele>314.6</ele>
        <time>1970-01-01T00:05:13.000Z</time>
      </trkpt>
      <trkpt lat="44.71341" lon="5.10529">
        <ele>314.8</ele>
        <time>1970-01-01T00:05:14.000Z</time>
      </trkpt>
      <trkpt lat="44.7134" lon="5.10532">
        <ele>315</ele>
        <time>1970-01-01T00:05:15.000Z</time>
      </trkpt>
      <trkpt lat="44.71339" lon="5.10535">
        <ele>315.2</ele>
        <time>1970-01-01T00:05:16.000Z</time>
      </trkpt>
      <trkpt lat="44.71339" lon="5.10538">
        <ele>315.4</ele>
        <time>1970-01-01T00:05:17.000Z</time>
      </trkpt>
      <trkpt lat="44.71338" lon="5.1054">
        <ele>315.6</ele>
        <time>1970-01-01T00:05:18.000Z</time>
      </trkpt>
      <trkpt lat="44.71338" lon="5.10544">
        <ele>315.8</ele>
        <time>1970-01-01T00:05:19.000Z</time>
      </trkpt>
      <trkpt lat="44.71337" lon="5.10547">
        <ele>316</ele>
        <time>1970-01-01T00:05:20.000Z</time>
      </trkpt>
      <trkpt lat="44.71336" lon="5.10551">
        <ele>316.2</ele>
        <time>1970-01-01T00:05:21.000Z</time>
      </trkpt>
      <trkpt lat="44.71336" lon="5.10554">
        <ele>316.2</ele>
        <time>1970-01-01T00:05:22.000Z</time>
      </trkpt>
      <trkpt lat="44.71335" lon="5.10557">
        <ele>316.6</ele>
        <time>1970-01-01T00:05:23.000Z</time>
      </trkpt>
      <trkpt lat="44.71334" lon="5.10561">
        <ele>316.8</ele>
        <time>1970-01-01T00:05:24.000Z</time>
      </trkpt>
      <trkpt lat="44.71334" lon="5.10564">
        <ele>316.8</ele>
        <time>1970-01-01T00:05:25.000Z</time>
      </trkpt>
      <trkpt lat="44.71333" lon="5.10567">
        <ele>317.2</ele>
        <time>1970-01-01T00:05:26.000Z</time>
      </trkpt>
      <trkpt lat="44.71333" lon="5.1057">
        <ele>317.2</ele>
        <time>1970-01-01T00:05:27.000Z</time>
      </trkpt>
      <trkpt lat="44.71332" lon="5.10574">
        <ele>317.4</ele>
        <time>1970-01-01T00:05:28.000Z</time>
      </trkpt>
      <trkpt lat="44.71331" lon="5.10577">
        <ele>317.6</ele>
        <time>1970-01-01T00:05:29.000Z</time>
      </trkpt>
      <trkpt lat="44.71331" lon="5.1058">
        <ele>317.8</ele>
        <time>1970-01-01T00:05:30.000Z</time>
      </trkpt>
      <trkpt lat="44.7133" lon="5.10584">
        <ele>318</ele>
        <time>1970-01-01T00:05:31.000Z</time>
      </trkpt>
      <trkpt lat="44.7133" lon="5.10588">
        <ele>318.2</ele>
        <time>1970-01-01T00:05:32.000Z</time>
      </trkpt>
      <trkpt lat="44.71329" lon="5.10591">
        <ele>318.4</ele>
        <time>1970-01-01T00:05:33.000Z</time>
      </trkpt>
      <trkpt lat="44.71328" lon="5.10594">
        <ele>318.4</ele>
        <time>1970-01-01T00:05:34.000Z</time>
      </trkpt>
      <trkpt lat="44.71327" lon="5.10597">
        <ele>318.6</ele>
        <time>1970-01-01T00:05:35.000Z</time>
      </trkpt>
      <trkpt lat="44.71327" lon="5.106">
        <ele>318.6</ele>
        <time>1970-01-01T00:05:36.000Z</time>
      </trkpt>
      <trkpt lat="44.71326" lon="5.10604">
        <ele>318.6</ele>
        <time>1970-01-01T00:05:37.000Z</time>
      </trkpt>
      <trkpt lat="44.71325" lon="5.10607">
        <ele>318.6</ele>
        <time>1970-01-01T00:05:38.000Z</time>
      </trkpt>
      <trkpt lat="44.71324" lon="5.10611">
        <ele>318.8</ele>
        <time>1970-01-01T00:05:39.000Z</time>
      </trkpt>
      <trkpt lat="44.71322" lon="5.10615">
        <ele>318.8</ele>
        <time>1970-01-01T00:05:40.000Z</time>
      </trkpt>
      <trkpt lat="44.71321" lon="5.10619">
        <ele>318.8</ele>
        <time>1970-01-01T00:05:41.000Z</time>
      </trkpt>
      <trkpt lat="44.7132" lon="5.10623">
        <ele>319</ele>
        <time>1970-01-01T00:05:42.000Z</time>
      </trkpt>
      <trkpt lat="44.71319" lon="5.10627">
        <ele>319</ele>
        <time>1970-01-01T00:05:43.000Z</time>
      </trkpt>
      <trkpt lat="44.71317" lon="5.1063">
        <ele>319</ele>
        <time>1970-01-01T00:05:44.000Z</time>
      </trkpt>
      <trkpt lat="44.71316" lon="5.10634">
        <ele>319.2</ele>
        <time>1970-01-01T00:05:45.000Z</time>
      </trkpt>
      <trkpt lat="44.71315" lon="5.10638">
        <ele>319.2</ele>
        <time>1970-01-01T00:05:46.000Z</time>
      </trkpt>
      <trkpt lat="44.71314" lon="5.10642">
        <ele>319.2</ele>
        <time>1970-01-01T00:05:47.000Z</time>
      </trkpt>
      <trkpt lat="44.71313" lon="5.10645">
        <ele>319.4</ele>
        <time>1970-01-01T00:05:48.000Z</time>
      </trkpt>
      <trkpt lat="44.71312" lon="5.1065">
        <ele>319.4</ele>
        <time>1970-01-01T00:05:49.000Z</time>
      </trkpt>
      <trkpt lat="44.71311" lon="5.10655">
        <ele>319.4</ele>
        <time>1970-01-01T00:05:50.000Z</time>
      </trkpt>
      <trkpt lat="44.71311" lon="5.10658">
        <ele>319.4</ele>
        <time>1970-01-01T00:05:51.000Z</time>
      </trkpt>
      <trkpt lat="44.7131" lon="5.10661">
        <ele>319.6</ele>
        <time>1970-01-01T00:05:52.000Z</time>
      </trkpt>
      <trkpt lat="44.7131" lon="5.10665">
        <ele>319.6</ele>
        <time>1970-01-01T00:05:53.000Z</time>
      </trkpt>
      <trkpt lat="44.71309" lon="5.1067">
        <ele>319.8</ele>
        <time>1970-01-01T00:05:54.000Z</time>
      </trkpt>
      <trkpt lat="44.71308" lon="5.10674">
        <ele>320</ele>
        <time>1970-01-01T00:05:55.000Z</time>
      </trkpt>
      <trkpt lat="44.71306" lon="5.10685">
        <ele>320.6</ele>
        <time>1970-01-01T00:05:58.000Z</time>
      </trkpt>
      <trkpt lat="44.71305" lon="5.1069">
        <ele>320.6</ele>
        <time>1970-01-01T00:05:59.000Z</time>
      </trkpt>
      <trkpt lat="44.71305" lon="5.10693">
        <ele>320.8</ele>
        <time>1970-01-01T00:06:00.000Z</time>
      </trkpt>
      <trkpt lat="44.71304" lon="5.10697">
        <ele>321</ele>
        <time>1970-01-01T00:06:01.000Z</time>
      </trkpt>
      <trkpt lat="44.71304" lon="5.107">
        <ele>321.4</ele>
        <time>1970-01-01T00:06:02.000Z</time>
      </trkpt>
      <trkpt lat="44.71303" lon="5.10704">
        <ele>321.8</ele>
        <time>1970-01-01T00:06:03.000Z</time>
      </trkpt>
      <trkpt lat="44.71303" lon="5.10708">
        <ele>322</ele>
        <time>1970-01-01T00:06:04.000Z</time>
      </trkpt>
      <trkpt lat="44.71303" lon="5.10712">
        <ele>322.4</ele>
        <time>1970-01-01T00:06:05.000Z</time>
      </trkpt>
      <trkpt lat="44.71303" lon="5.10715">
        <ele>322.6</ele>
        <time>1970-01-01T00:06:06.000Z</time>
      </trkpt>
      <trkpt lat="44.71302" lon="5.10718">
        <ele>323</ele>
        <time>1970-01-01T00:06:07.000Z</time>
      </trkpt>
      <trkpt lat="44.71302" lon="5.10721">
        <ele>323.4</ele>
        <time>1970-01-01T00:06:08.000Z</time>
      </trkpt>
      <trkpt lat="44.71302" lon="5.10725">
        <ele>323.8</ele>
        <time>1970-01-01T00:06:09.000Z</time>
      </trkpt>
      <trkpt lat="44.71302" lon="5.10728">
        <ele>324</ele>
        <time>1970-01-01T00:06:10.000Z</time>
      </trkpt>
      <trkpt lat="44.71301" lon="5.10731">
        <ele>324.2</ele>
        <time>1970-01-01T00:06:11.000Z</time>
      </trkpt>
      <trkpt lat="44.713" lon="5.10734">
        <ele>324.6</ele>
        <time>1970-01-01T00:06:12.000Z</time>
      </trkpt>
      <trkpt lat="44.713" lon="5.10737">
        <ele>325.2</ele>
        <time>1970-01-01T00:06:13.000Z</time>
      </trkpt>
      <trkpt lat="44.713" lon="5.10739">
        <ele>325.6</ele>
        <time>1970-01-01T00:06:14.000Z</time>
      </trkpt>
      <trkpt lat="44.713" lon="5.10741">
        <ele>326.2</ele>
        <time>1970-01-01T00:06:15.000Z</time>
      </trkpt>
      <trkpt lat="44.713" lon="5.10744">
        <ele>326.4</ele>
        <time>1970-01-01T00:06:16.000Z</time>
      </trkpt>
      <trkpt lat="44.71299" lon="5.10747">
        <ele>326.8</ele>
        <time>1970-01-01T00:06:17.000Z</time>
      </trkpt>
      <trkpt lat="44.71299" lon="5.10749">
        <ele>327.2</ele>
        <time>1970-01-01T00:06:18.000Z</time>
      </trkpt>
      <trkpt lat="44.71299" lon="5.10751">
        <ele>327.6</ele>
        <time>1970-01-01T00:06:19.000Z</time>
      </trkpt>
      <trkpt lat="44.713" lon="5.10752">
        <ele>327.8</ele>
        <time>1970-01-01T00:06:20.000Z</time>
      </trkpt>
      <trkpt lat="44.713" lon="5.10751">
        <ele>327.8</ele>
        <time>1970-01-01T00:06:21.000Z</time>
      </trkpt>
      <trkpt lat="44.71302" lon="5.10748">
        <ele>328</ele>
        <time>1970-01-01T00:06:22.000Z</time>
      </trkpt>
      <trkpt lat="44.71303" lon="5.10745">
        <ele>328</ele>
        <time>1970-01-01T00:06:23.000Z</time>
      </trkpt>
      <trkpt lat="44.71305" lon="5.10743">
        <ele>328.2</ele>
        <time>1970-01-01T00:06:24.000Z</time>
      </trkpt>
      <trkpt lat="44.71306" lon="5.1074">
        <ele>328.4</ele>
        <time>1970-01-01T00:06:25.000Z</time>
      </trkpt>
      <trkpt lat="44.71308" lon="5.10738">
        <ele>328.6</ele>
        <time>1970-01-01T00:06:26.000Z</time>
      </trkpt>
      <trkpt lat="44.7131" lon="5.10736">
        <ele>328.8</ele>
        <time>1970-01-01T00:06:27.000Z</time>
      </trkpt>
      <trkpt lat="44.71312" lon="5.10736">
        <ele>328.8</ele>
        <time>1970-01-01T00:06:28.000Z</time>
      </trkpt>
      <trkpt lat="44.71314" lon="5.10735">
        <ele>329</ele>
        <time>1970-01-01T00:06:29.000Z</time>
      </trkpt>
      <trkpt lat="44.71317" lon="5.10735">
        <ele>329</ele>
        <time>1970-01-01T00:06:30.000Z</time>
      </trkpt>
      <trkpt lat="44.71319" lon="5.10737">
        <ele>329.6</ele>
        <time>1970-01-01T00:06:31.000Z</time>
      </trkpt>
      <trkpt lat="44.7132" lon="5.10739">
        <ele>330</ele>
        <time>1970-01-01T00:06:32.000Z</time>
      </trkpt>
      <trkpt lat="44.71321" lon="5.10742">
        <ele>330.2</ele>
        <time>1970-01-01T00:06:33.000Z</time>
      </trkpt>
      <trkpt lat="44.71322" lon="5.10743">
        <ele>330.6</ele>
        <time>1970-01-01T00:06:34.000Z</time>
      </trkpt>
      <trkpt lat="44.71322" lon="5.10746">
        <ele>331.2</ele>
        <time>1970-01-01T00:06:35.000Z</time>
      </trkpt>
      <trkpt lat="44.71322" lon="5.10749">
        <ele>331.6</ele>
        <time>1970-01-01T00:06:36.000Z</time>
      </trkpt>
      <trkpt lat="44.71321" lon="5.10751">
        <ele>332</ele>
        <time>1970-01-01T00:06:37.000Z</time>
      </trkpt>
      <trkpt lat="44.71321" lon="5.10754">
        <ele>332.4</ele>
        <time>1970-01-01T00:06:38.000Z</time>
      </trkpt>
      <trkpt lat="44.7132" lon="5.10757">
        <ele>332.8</ele>
        <time>1970-01-01T00:06:39.000Z</time>
      </trkpt>
      <trkpt lat="44.7132" lon="5.1076">
        <ele>333.4</ele>
        <time>1970-01-01T00:06:40.000Z</time>
      </trkpt>
      <trkpt lat="44.71319" lon="5.10762">
        <ele>333.8</ele>
        <time>1970-01-01T00:06:41.000Z</time>
      </trkpt>
      <trkpt lat="44.71319" lon="5.10764">
        <ele>334</ele>
        <time>1970-01-01T00:06:42.000Z</time>
      </trkpt>
      <trkpt lat="44.71319" lon="5.10766">
        <ele>334.4</ele>
        <time>1970-01-01T00:06:43.000Z</time>
      </trkpt>
      <trkpt lat="44.71318" lon="5.10768">
        <ele>334.8</ele>
        <time>1970-01-01T00:06:44.000Z</time>
      </trkpt>
      <trkpt lat="44.71318" lon="5.1077">
        <ele>335</ele>
        <time>1970-01-01T00:06:45.000Z</time>
      </trkpt>
      <trkpt lat="44.71318" lon="5.10772">
        <ele>335.2</ele>
        <time>1970-01-01T00:06:46.000Z</time>
      </trkpt>
      <trkpt lat="44.71318" lon="5.10775">
        <ele>335.8</ele>
        <time>1970-01-01T00:06:47.000Z</time>
      </trkpt>
      <trkpt lat="44.71318" lon="5.10777">
        <ele>336</ele>
        <time>1970-01-01T00:06:48.000Z</time>
      </trkpt>
      <trkpt lat="44.71319" lon="5.1078">
        <ele>336.4</ele>
        <time>1970-01-01T00:06:49.000Z</time>
      </trkpt>
      <trkpt lat="44.7132" lon="5.10782">
        <ele>336.6</ele>
        <time>1970-01-01T00:06:50.000Z</time>
      </trkpt>
      <trkpt lat="44.71321" lon="5.10784">
        <ele>337</ele>
        <time>1970-01-01T00:06:51.000Z</time>
      </trkpt>
      <trkpt lat="44.71322" lon="5.10786">
        <ele>337.4</ele>
        <time>1970-01-01T00:06:52.000Z</time>
      </trkpt>
      <trkpt lat="44.71323" lon="5.10788">
        <ele>337.8</ele>
        <time>1970-01-01T00:06:53.000Z</time>
      </trkpt>
      <trkpt lat="44.71324" lon="5.1079">
        <ele>338.2</ele>
        <time>1970-01-01T00:06:54.000Z</time>
      </trkpt>
      <trkpt lat="44.71325" lon="5.10791">
        <ele>338.6</ele>
        <time>1970-01-01T00:06:55.000Z</time>
      </trkpt>
      <trkpt lat="44.71326" lon="5.10793">
        <ele>339</ele>
        <time>1970-01-01T00:06:56.000Z</time>
      </trkpt>
      <trkpt lat="44.71328" lon="5.10795">
        <ele>339.2</ele>
        <time>1970-01-01T00:06:57.000Z</time>
      </trkpt>
      <trkpt lat="44.71328" lon="5.10797">
        <ele>339.4</ele>
        <time>1970-01-01T00:06:58.000Z</time>
      </trkpt>
      <trkpt lat="44.71329" lon="5.10798">
        <ele>339.8</ele>
        <time>1970-01-01T00:06:59.000Z</time>
      </trkpt>
      <trkpt lat="44.71331" lon="5.108">
        <ele>340.2</ele>
        <time>1970-01-01T00:07:00.000Z</time>
      </trkpt>
      <trkpt lat="44.71332" lon="5.10801">
        <ele>340.8</ele>
        <time>1970-01-01T00:07:01.000Z</time>
      </trkpt>
      <trkpt lat="44.71333" lon="5.10801">
        <ele>341.4</ele>
        <time>1970-01-01T00:07:02.000Z</time>
      </trkpt>
      <trkpt lat="44.71335" lon="5.10801">
        <ele>342</ele>
        <time>1970-01-01T00:07:03.000Z</time>
      </trkpt>
      <trkpt lat="44.71336" lon="5.10802">
        <ele>342.2</ele>
        <time>1970-01-01T00:07:04.000Z</time>
      </trkpt>
      <trkpt lat="44.71338" lon="5.10802">
        <ele>342.4</ele>
        <time>1970-01-01T00:07:05.000Z</time>
      </trkpt>
      <trkpt lat="44.71339" lon="5.10803">
        <ele>342.6</ele>
        <time>1970-01-01T00:07:06.000Z</time>
      </trkpt>
      <trkpt lat="44.7134" lon="5.10803">
        <ele>342.8</ele>
        <time>1970-01-01T00:07:07.000Z</time>
      </trkpt>
      <trkpt lat="44.71341" lon="5.10803">
        <ele>343</ele>
        <time>1970-01-01T00:07:08.000Z</time>
      </trkpt>
      <trkpt lat="44.71343" lon="5.10803">
        <ele>343</ele>
        <time>1970-01-01T00:07:09.000Z</time>
      </trkpt>
      <trkpt lat="44.71343" lon="5.10804">
        <ele>343</ele>
        <time>1970-01-01T00:07:10.000Z</time>
      </trkpt>
      <trkpt lat="44.71344" lon="5.10804">
        <ele>343</ele>
        <time>1970-01-01T00:07:11.000Z</time>
      </trkpt>
      <trkpt lat="44.71345" lon="5.10805">
        <ele>343</ele>
        <time>1970-01-01T00:07:12.000Z</time>
      </trkpt>
      <trkpt lat="44.71346" lon="5.10805">
        <ele>343.2</ele>
        <time>1970-01-01T00:07:13.000Z</time>
      </trkpt>
      <trkpt lat="44.71347" lon="5.10805">
        <ele>343.2</ele>
        <time>1970-01-01T00:07:14.000Z</time>
      </trkpt>
      <trkpt lat="44.71348" lon="5.10805">
        <ele>343.2</ele>
        <time>1970-01-01T00:07:15.000Z</time>
      </trkpt>
      <trkpt lat="44.71349" lon="5.10806">
        <ele>343.2</ele>
        <time>1970-01-01T00:07:16.000Z</time>
      </trkpt>
      <trkpt lat="44.71349" lon="5.10806">
        <ele>343.2</ele>
        <time>1970-01-01T00:07:17.000Z</time>
      </trkpt>
      <trkpt lat="44.7135" lon="5.10806">
        <ele>343</ele>
        <time>1970-01-01T00:07:18.000Z</time>
      </trkpt>
      <trkpt lat="44.71352" lon="5.10806">
        <ele>343</ele>
        <time>1970-01-01T00:07:19.000Z</time>
      </trkpt>
      <trkpt lat="44.71355" lon="5.10807">
        <ele>342.8</ele>
        <time>1970-01-01T00:07:20.000Z</time>
      </trkpt>
      <trkpt lat="44.71358" lon="5.10808">
        <ele>342.4</ele>
        <time>1970-01-01T00:07:21.000Z</time>
      </trkpt>
      <trkpt lat="44.71361" lon="5.10809">
        <ele>342</ele>
        <time>1970-01-01T00:07:22.000Z</time>
      </trkpt>
      <trkpt lat="44.71363" lon="5.10811">
        <ele>341.6</ele>
        <time>1970-01-01T00:07:23.000Z</time>
      </trkpt>
      <trkpt lat="44.71363" lon="5.10814">
        <ele>341</ele>
        <time>1970-01-01T00:07:24.000Z</time>
      </trkpt>
      <trkpt lat="44.71362" lon="5.10818">
        <ele>340</ele>
        <time>1970-01-01T00:07:25.000Z</time>
      </trkpt>
      <trkpt lat="44.71359" lon="5.10825">
        <ele>338.4</ele>
        <time>1970-01-01T00:07:26.000Z</time>
      </trkpt>
      <trkpt lat="44.71356" lon="5.10831">
        <ele>337.2</ele>
        <time>1970-01-01T00:07:27.000Z</time>
      </trkpt>
      <trkpt lat="44.71353" lon="5.10839">
        <ele>336.4</ele>
        <time>1970-01-01T00:07:28.000Z</time>
      </trkpt>
      <trkpt lat="44.71349" lon="5.10847">
        <ele>334.2</ele>
        <time>1970-01-01T00:07:29.000Z</time>
      </trkpt>
      <trkpt lat="44.71345" lon="5.10856">
        <ele>332.6</ele>
        <time>1970-01-01T00:07:30.000Z</time>
      </trkpt>
      <trkpt lat="44.71341" lon="5.10866">
        <ele>330.6</ele>
        <time>1970-01-01T00:07:31.000Z</time>
      </trkpt>
      <trkpt lat="44.71337" lon="5.10876">
        <ele>328.6</ele>
        <time>1970-01-01T00:07:32.000Z</time>
      </trkpt>
      <trkpt lat="44.71333" lon="5.10885">
        <ele>327.2</ele>
        <time>1970-01-01T00:07:33.000Z</time>
      </trkpt>
      <trkpt lat="44.7133" lon="5.10892">
        <ele>325.8</ele>
        <time>1970-01-01T00:07:34.000Z</time>
      </trkpt>
      <trkpt lat="44.7133" lon="5.109">
        <ele>324.6</ele>
        <time>1970-01-01T00:07:35.000Z</time>
      </trkpt>
      <trkpt lat="44.71333" lon="5.10907">
        <ele>323.2</ele>
        <time>1970-01-01T00:07:36.000Z</time>
      </trkpt>
      <trkpt lat="44.71337" lon="5.10915">
        <ele>322</ele>
        <time>1970-01-01T00:07:37.000Z</time>
      </trkpt>
      <trkpt lat="44.71341" lon="5.10924">
        <ele>320.4</ele>
        <time>1970-01-01T00:07:38.000Z</time>
      </trkpt>
      <trkpt lat="44.71346" lon="5.10934">
        <ele>319.4</ele>
        <time>1970-01-01T00:07:39.000Z</time>
      </trkpt>
      <trkpt lat="44.71358" lon="5.10954">
        <ele>317.2</ele>
        <time>1970-01-01T00:07:41.000Z</time>
      </trkpt>
      <trkpt lat="44.71366" lon="5.10964">
        <ele>316.2</ele>
        <time>1970-01-01T00:07:42.000Z</time>
      </trkpt>
      <trkpt lat="44.71379" lon="5.10986">
        <ele>314.6</ele>
        <time>1970-01-01T00:07:44.000Z</time>
      </trkpt>
      <trkpt lat="44.71386" lon="5.10997">
        <ele>313.8</ele>
        <time>1970-01-01T00:07:45.000Z</time>
      </trkpt>
      <trkpt lat="44.71393" lon="5.11008">
        <ele>313</ele>
        <time>1970-01-01T00:07:46.000Z</time>
      </trkpt>
      <trkpt lat="44.714" lon="5.11017">
        <ele>311.8</ele>
        <time>1970-01-01T00:07:47.000Z</time>
      </trkpt>
      <trkpt lat="44.71407" lon="5.11023">
        <ele>308.6</ele>
        <time>1970-01-01T00:07:48.000Z</time>
      </trkpt>
      <trkpt lat="44.71413" lon="5.11029">
        <ele>307.2</ele>
        <time>1970-01-01T00:07:49.000Z</time>
      </trkpt>
      <trkpt lat="44.71417" lon="5.11036">
        <ele>307.2</ele>
        <time>1970-01-01T00:07:50.000Z</time>
      </trkpt>
      <trkpt lat="44.71422" lon="5.11041">
        <ele>307.2</ele>
        <time>1970-01-01T00:07:51.000Z</time>
      </trkpt>
      <trkpt lat="44.71427" lon="5.11045">
        <ele>307.2</ele>
        <time>1970-01-01T00:07:52.000Z</time>
      </trkpt>
      <trkpt lat="44.7143" lon="5.11048">
        <ele>307.6</ele>
        <time>1970-01-01T00:07:53.000Z</time>
      </trkpt>
      <trkpt lat="44.71433" lon="5.11051">
        <ele>307.8</ele>
        <time>1970-01-01T00:07:54.000Z</time>
      </trkpt>
      <trkpt lat="44.71434" lon="5.11054">
        <ele>308.2</ele>
        <time>1970-01-01T00:07:55.000Z</time>
      </trkpt>
      <trkpt lat="44.71436" lon="5.11057">
        <ele>308.4</ele>
        <time>1970-01-01T00:07:56.000Z</time>
      </trkpt>
      <trkpt lat="44.71437" lon="5.11065">
        <ele>308.8</ele>
        <time>1970-01-01T00:07:58.000Z</time>
      </trkpt>
      <trkpt lat="44.71438" lon="5.11069">
        <ele>308.8</ele>
        <time>1970-01-01T00:07:59.000Z</time>
      </trkpt>
      <trkpt lat="44.71438" lon="5.11073">
        <ele>309</ele>
        <time>1970-01-01T00:08:00.000Z</time>
      </trkpt>
      <trkpt lat="44.71439" lon="5.11077">
        <ele>309.2</ele>
        <time>1970-01-01T00:08:01.000Z</time>
      </trkpt>
      <trkpt lat="44.7144" lon="5.1108">
        <ele>309.4</ele>
        <time>1970-01-01T00:08:02.000Z</time>
      </trkpt>
      <trkpt lat="44.71442" lon="5.11082">
        <ele>309.6</ele>
        <time>1970-01-01T00:08:03.000Z</time>
      </trkpt>
      <trkpt lat="44.71443" lon="5.11085">
        <ele>310.2</ele>
        <time>1970-01-01T00:08:04.000Z</time>
      </trkpt>
      <trkpt lat="44.71444" lon="5.11088">
        <ele>310.6</ele>
        <time>1970-01-01T00:08:05.000Z</time>
      </trkpt>
      <trkpt lat="44.71446" lon="5.1109">
        <ele>310.8</ele>
        <time>1970-01-01T00:08:06.000Z</time>
      </trkpt>
      <trkpt lat="44.71451" lon="5.11097">
        <ele>311.6</ele>
        <time>1970-01-01T00:08:09.000Z</time>
      </trkpt>
      <trkpt lat="44.71456" lon="5.11105">
        <ele>312.6</ele>
        <time>1970-01-01T00:08:12.000Z</time>
      </trkpt>
      <trkpt lat="44.71458" lon="5.11108">
        <ele>312.8</ele>
        <time>1970-01-01T00:08:13.000Z</time>
      </trkpt>
      <trkpt lat="44.71459" lon="5.11111">
        <ele>313</ele>
        <time>1970-01-01T00:08:14.000Z</time>
      </trkpt>
      <trkpt lat="44.71461" lon="5.11115">
        <ele>313.2</ele>
        <time>1970-01-01T00:08:15.000Z</time>
      </trkpt>
      <trkpt lat="44.71463" lon="5.11118">
        <ele>313.6</ele>
        <time>1970-01-01T00:08:16.000Z</time>
      </trkpt>
      <trkpt lat="44.71464" lon="5.1112">
        <ele>313.8</ele>
        <time>1970-01-01T00:08:17.000Z</time>
      </trkpt>
      <trkpt lat="44.71466" lon="5.11123">
        <ele>314.2</ele>
        <time>1970-01-01T00:08:18.000Z</time>
      </trkpt>
      <trkpt lat="44.71468" lon="5.11126">
        <ele>314.4</ele>
        <time>1970-01-01T00:08:19.000Z</time>
      </trkpt>
      <trkpt lat="44.71469" lon="5.11129">
        <ele>314.6</ele>
        <time>1970-01-01T00:08:20.000Z</time>
      </trkpt>
      <trkpt lat="44.71471" lon="5.11132">
        <ele>315</ele>
        <time>1970-01-01T00:08:21.000Z</time>
      </trkpt>
      <trkpt lat="44.71472" lon="5.11135">
        <ele>315.4</ele>
        <time>1970-01-01T00:08:22.000Z</time>
      </trkpt>
      <trkpt lat="44.71474" lon="5.11137">
        <ele>315.6</ele>
        <time>1970-01-01T00:08:23.000Z</time>
      </trkpt>
      <trkpt lat="44.71475" lon="5.11141">
        <ele>316</ele>
        <time>1970-01-01T00:08:24.000Z</time>
      </trkpt>
      <trkpt lat="44.71476" lon="5.11144">
        <ele>316.4</ele>
        <time>1970-01-01T00:08:25.000Z</time>
      </trkpt>
      <trkpt lat="44.71476" lon="5.11148">
        <ele>316.8</ele>
        <time>1970-01-01T00:08:26.000Z</time>
      </trkpt>
      <trkpt lat="44.71476" lon="5.11151">
        <ele>317.2</ele>
        <time>1970-01-01T00:08:27.000Z</time>
      </trkpt>
      <trkpt lat="44.71475" lon="5.11154">
        <ele>317.6</ele>
        <time>1970-01-01T00:08:28.000Z</time>
      </trkpt>
      <trkpt lat="44.71475" lon="5.11158">
        <ele>318.2</ele>
        <time>1970-01-01T00:08:29.000Z</time>
      </trkpt>
      <trkpt lat="44.71474" lon="5.11161">
        <ele>318.6</ele>
        <time>1970-01-01T00:08:30.000Z</time>
      </trkpt>
      <trkpt lat="44.71474" lon="5.11164">
        <ele>318.8</ele>
        <time>1970-01-01T00:08:31.000Z</time>
      </trkpt>
      <trkpt lat="44.71474" lon="5.11167">
        <ele>319</ele>
        <time>1970-01-01T00:08:32.000Z</time>
      </trkpt>
      <trkpt lat="44.71473" lon="5.1117">
        <ele>319.6</ele>
        <time>1970-01-01T00:08:33.000Z</time>
      </trkpt>
      <trkpt lat="44.71473" lon="5.11174">
        <ele>320</ele>
        <time>1970-01-01T00:08:34.000Z</time>
      </trkpt>
      <trkpt lat="44.71474" lon="5.11177">
        <ele>320.2</ele>
        <time>1970-01-01T00:08:35.000Z</time>
      </trkpt>
      <trkpt lat="44.71475" lon="5.11179">
        <ele>320.4</ele>
        <time>1970-01-01T00:08:36.000Z</time>
      </trkpt>
      <trkpt lat="44.71477" lon="5.11181">
        <ele>320.8</ele>
        <time>1970-01-01T00:08:37.000Z</time>
      </trkpt>
      <trkpt lat="44.71479" lon="5.11182">
        <ele>321</ele>
        <time>1970-01-01T00:08:38.000Z</time>
      </trkpt>
      <trkpt lat="44.71481" lon="5.11182">
        <ele>321.4</ele>
        <time>1970-01-01T00:08:39.000Z</time>
      </trkpt>
      <trkpt lat="44.71484" lon="5.11182">
        <ele>321.6</ele>
        <time>1970-01-01T00:08:40.000Z</time>
      </trkpt>
      <trkpt lat="44.71486" lon="5.11181">
        <ele>322</ele>
        <time>1970-01-01T00:08:41.000Z</time>
      </trkpt>
      <trkpt lat="44.71488" lon="5.1118">
        <ele>322.4</ele>
        <time>1970-01-01T00:08:42.000Z</time>
      </trkpt>
      <trkpt lat="44.7149" lon="5.11179">
        <ele>323</ele>
        <time>1970-01-01T00:08:43.000Z</time>
      </trkpt>
      <trkpt lat="44.71492" lon="5.11178">
        <ele>323.2</ele>
        <time>1970-01-01T00:08:44.000Z</time>
      </trkpt>
      <trkpt lat="44.71494" lon="5.11177">
        <ele>323.6</ele>
        <time>1970-01-01T00:08:45.000Z</time>
      </trkpt>
      <trkpt lat="44.71496" lon="5.11177">
        <ele>324</ele>
        <time>1970-01-01T00:08:46.000Z</time>
      </trkpt>
      <trkpt lat="44.71499" lon="5.11177">
        <ele>324.2</ele>
        <time>1970-01-01T00:08:47.000Z</time>
      </trkpt>
      <trkpt lat="44.71501" lon="5.11176">
        <ele>324.2</ele>
        <time>1970-01-01T00:08:48.000Z</time>
      </trkpt>
      <trkpt lat="44.71503" lon="5.11176">
        <ele>324.6</ele>
        <time>1970-01-01T00:08:49.000Z</time>
      </trkpt>
      <trkpt lat="44.71506" lon="5.11176">
        <ele>325</ele>
        <time>1970-01-01T00:08:50.000Z</time>
      </trkpt>
      <trkpt lat="44.71508" lon="5.11176">
        <ele>325.4</ele>
        <time>1970-01-01T00:08:51.000Z</time>
      </trkpt>
      <trkpt lat="44.71511" lon="5.11176">
        <ele>325.6</ele>
        <time>1970-01-01T00:08:52.000Z</time>
      </trkpt>
      <trkpt lat="44.71513" lon="5.11175">
        <ele>325.8</ele>
        <time>1970-01-01T00:08:53.000Z</time>
      </trkpt>
      <trkpt lat="44.71515" lon="5.11175">
        <ele>326</ele>
        <time>1970-01-01T00:08:54.000Z</time>
      </trkpt>
      <trkpt lat="44.71518" lon="5.11174">
        <ele>326.2</ele>
        <time>1970-01-01T00:08:55.000Z</time>
      </trkpt>
      <trkpt lat="44.7152" lon="5.11172">
        <ele>326.4</ele>
        <time>1970-01-01T00:08:56.000Z</time>
      </trkpt>
      <trkpt lat="44.71522" lon="5.11171">
        <ele>326.4</ele>
        <time>1970-01-01T00:08:57.000Z</time>
      </trkpt>
      <trkpt lat="44.71525" lon="5.11169">
        <ele>326.8</ele>
        <time>1970-01-01T00:08:58.000Z</time>
      </trkpt>
      <trkpt lat="44.71527" lon="5.11168">
        <ele>327.2</ele>
        <time>1970-01-01T00:08:59.000Z</time>
      </trkpt>
      <trkpt lat="44.71529" lon="5.11168">
        <ele>327.6</ele>
        <time>1970-01-01T00:09:00.000Z</time>
      </trkpt>
      <trkpt lat="44.71532" lon="5.11167">
        <ele>327.8</ele>
        <time>1970-01-01T00:09:01.000Z</time>
      </trkpt>
      <trkpt lat="44.71534" lon="5.11166">
        <ele>328</ele>
        <time>1970-01-01T00:09:02.000Z</time>
      </trkpt>
      <trkpt lat="44.71536" lon="5.11166">
        <ele>328.2</ele>
        <time>1970-01-01T00:09:03.000Z</time>
      </trkpt>
      <trkpt lat="44.71539" lon="5.11165">
        <ele>328.2</ele>
        <time>1970-01-01T00:09:04.000Z</time>
      </trkpt>
      <trkpt lat="44.71541" lon="5.11165">
        <ele>328.4</ele>
        <time>1970-01-01T00:09:05.000Z</time>
      </trkpt>
      <trkpt lat="44.71544" lon="5.11164">
        <ele>328.6</ele>
        <time>1970-01-01T00:09:06.000Z</time>
      </trkpt>
      <trkpt lat="44.71547" lon="5.11164">
        <ele>328.8</ele>
        <time>1970-01-01T00:09:07.000Z</time>
      </trkpt>
      <trkpt lat="44.7155" lon="5.11164">
        <ele>329.2</ele>
        <time>1970-01-01T00:09:08.000Z</time>
      </trkpt>
      <trkpt lat="44.71552" lon="5.11164">
        <ele>329.4</ele>
        <time>1970-01-01T00:09:09.000Z</time>
      </trkpt>
      <trkpt lat="44.71555" lon="5.11164">
        <ele>329.8</ele>
        <time>1970-01-01T00:09:10.000Z</time>
      </trkpt>
      <trkpt lat="44.71558" lon="5.11164">
        <ele>329.8</ele>
        <time>1970-01-01T00:09:11.000Z</time>
      </trkpt>
      <trkpt lat="44.7156" lon="5.11164">
        <ele>330</ele>
        <time>1970-01-01T00:09:12.000Z</time>
      </trkpt>
      <trkpt lat="44.71563" lon="5.11165">
        <ele>330.2</ele>
        <time>1970-01-01T00:09:13.000Z</time>
      </trkpt>
      <trkpt lat="44.71566" lon="5.11165">
        <ele>330.4</ele>
        <time>1970-01-01T00:09:14.000Z</time>
      </trkpt>
      <trkpt lat="44.71568" lon="5.11165">
        <ele>330.6</ele>
        <time>1970-01-01T00:09:15.000Z</time>
      </trkpt>
      <trkpt lat="44.71571" lon="5.11165">
        <ele>330.6</ele>
        <time>1970-01-01T00:09:16.000Z</time>
      </trkpt>
      <trkpt lat="44.71574" lon="5.11165">
        <ele>330.8</ele>
        <time>1970-01-01T00:09:17.000Z</time>
      </trkpt>
      <trkpt lat="44.71578" lon="5.11166">
        <ele>330.8</ele>
        <time>1970-01-01T00:09:18.000Z</time>
      </trkpt>
      <trkpt lat="44.71581" lon="5.11167">
        <ele>331</ele>
        <time>1970-01-01T00:09:19.000Z</time>
      </trkpt>
      <trkpt lat="44.71584" lon="5.11167">
        <ele>331.2</ele>
        <time>1970-01-01T00:09:20.000Z</time>
      </trkpt>
      <trkpt lat="44.71587" lon="5.11168">
        <ele>331.2</ele>
        <time>1970-01-01T00:09:21.000Z</time>
      </trkpt>
      <trkpt lat="44.7159" lon="5.11168">
        <ele>331.4</ele>
        <time>1970-01-01T00:09:22.000Z</time>
      </trkpt>
      <trkpt lat="44.71593" lon="5.11168">
        <ele>331.4</ele>
        <time>1970-01-01T00:09:23.000Z</time>
      </trkpt>
      <trkpt lat="44.71595" lon="5.11168">
        <ele>331.4</ele>
        <time>1970-01-01T00:09:24.000Z</time>
      </trkpt>
      <trkpt lat="44.71598" lon="5.11169">
        <ele>331.4</ele>
        <time>1970-01-01T00:09:25.000Z</time>
      </trkpt>
      <trkpt lat="44.71601" lon="5.11169">
        <ele>331.4</ele>
        <time>1970-01-01T00:09:26.000Z</time>
      </trkpt>
      <trkpt lat="44.71604" lon="5.1117">
        <ele>331.4</ele>
        <time>1970-01-01T00:09:27.000Z</time>
      </trkpt>
      <trkpt lat="44.71608" lon="5.11172">
        <ele>331.4</ele>
        <time>1970-01-01T00:09:28.000Z</time>
      </trkpt>
      <trkpt lat="44.7161" lon="5.11174">
        <ele>331.4</ele>
        <time>1970-01-01T00:09:29.000Z</time>
      </trkpt>
      <trkpt lat="44.71613" lon="5.11175">
        <ele>331.4</ele>
        <time>1970-01-01T00:09:30.000Z</time>
      </trkpt>
      <trkpt lat="44.71616" lon="5.11178">
        <ele>331.6</ele>
        <time>1970-01-01T00:09:31.000Z</time>
      </trkpt>
      <trkpt lat="44.71618" lon="5.1118">
        <ele>332</ele>
        <time>1970-01-01T00:09:32.000Z</time>
      </trkpt>
      <trkpt lat="44.7162" lon="5.11183">
        <ele>332.2</ele>
        <time>1970-01-01T00:09:33.000Z</time>
      </trkpt>
      <trkpt lat="44.71622" lon="5.11187">
        <ele>332.4</ele>
        <time>1970-01-01T00:09:34.000Z</time>
      </trkpt>
      <trkpt lat="44.71624" lon="5.11191">
        <ele>332.6</ele>
        <time>1970-01-01T00:09:35.000Z</time>
      </trkpt>
      <trkpt lat="44.71625" lon="5.11195">
        <ele>332.6</ele>
        <time>1970-01-01T00:09:36.000Z</time>
      </trkpt>
      <trkpt lat="44.71627" lon="5.11199">
        <ele>332.8</ele>
        <time>1970-01-01T00:09:37.000Z</time>
      </trkpt>
      <trkpt lat="44.71628" lon="5.11203">
        <ele>332.8</ele>
        <time>1970-01-01T00:09:38.000Z</time>
      </trkpt>
      <trkpt lat="44.7163" lon="5.11207">
        <ele>332.8</ele>
        <time>1970-01-01T00:09:39.000Z</time>
      </trkpt>
      <trkpt lat="44.71632" lon="5.11211">
        <ele>332.8</ele>
        <time>1970-01-01T00:09:40.000Z</time>
      </trkpt>
      <trkpt lat="44.71634" lon="5.11214">
        <ele>332.8</ele>
        <time>1970-01-01T00:09:41.000Z</time>
      </trkpt>
      <trkpt lat="44.71636" lon="5.11218">
        <ele>333</ele>
        <time>1970-01-01T00:09:42.000Z</time>
      </trkpt>
      <trkpt lat="44.71637" lon="5.11222">
        <ele>333.4</ele>
        <time>1970-01-01T00:09:43.000Z</time>
      </trkpt>
      <trkpt lat="44.71638" lon="5.11226">
        <ele>333.4</ele>
        <time>1970-01-01T00:09:44.000Z</time>
      </trkpt>
      <trkpt lat="44.71639" lon="5.1123">
        <ele>333.6</ele>
        <time>1970-01-01T00:09:45.000Z</time>
      </trkpt>
      <trkpt lat="44.7164" lon="5.11235">
        <ele>333.6</ele>
        <time>1970-01-01T00:09:46.000Z</time>
      </trkpt>
      <trkpt lat="44.71641" lon="5.11239">
        <ele>333.8</ele>
        <time>1970-01-01T00:09:47.000Z</time>
      </trkpt>
      <trkpt lat="44.71642" lon="5.11243">
        <ele>333.8</ele>
        <time>1970-01-01T00:09:48.000Z</time>
      </trkpt>
      <trkpt lat="44.71644" lon="5.11247">
        <ele>333.8</ele>
        <time>1970-01-01T00:09:49.000Z</time>
      </trkpt>
      <trkpt lat="44.71646" lon="5.11251">
        <ele>334</ele>
        <time>1970-01-01T00:09:50.000Z</time>
      </trkpt>
      <trkpt lat="44.71649" lon="5.11255">
        <ele>334.2</ele>
        <time>1970-01-01T00:09:51.000Z</time>
      </trkpt>
      <trkpt lat="44.71651" lon="5.11258">
        <ele>334.2</ele>
        <time>1970-01-01T00:09:52.000Z</time>
      </trkpt>
      <trkpt lat="44.71653" lon="5.11261">
        <ele>334.2</ele>
        <time>1970-01-01T00:09:53.000Z</time>
      </trkpt>
      <trkpt lat="44.71654" lon="5.11266">
        <ele>334.6</ele>
        <time>1970-01-01T00:09:54.000Z</time>
      </trkpt>
      <trkpt lat="44.71656" lon="5.11269">
        <ele>334.6</ele>
        <time>1970-01-01T00:09:55.000Z</time>
      </trkpt>
      <trkpt lat="44.71658" lon="5.11273">
        <ele>334.8</ele>
        <time>1970-01-01T00:09:56.000Z</time>
      </trkpt>
      <trkpt lat="44.71661" lon="5.11276">
        <ele>334.8</ele>
        <time>1970-01-01T00:09:57.000Z</time>
      </trkpt>
      <trkpt lat="44.71663" lon="5.11279">
        <ele>334.8</ele>
        <time>1970-01-01T00:09:58.000Z</time>
      </trkpt>
      <trkpt lat="44.71664" lon="5.11282">
        <ele>334.8</ele>
        <time>1970-01-01T00:09:59.000Z</time>
      </trkpt>
      <trkpt lat="44.71666" lon="5.11286">
        <ele>334.8</ele>
        <time>1970-01-01T00:10:00.000Z</time>
      </trkpt>
      <trkpt lat="44.71668" lon="5.1129">
        <ele>334.8</ele>
        <time>1970-01-01T00:10:01.000Z</time>
      </trkpt>
      <trkpt lat="44.7167" lon="5.11294">
        <ele>334.8</ele>
        <time>1970-01-01T00:10:02.000Z</time>
      </trkpt>
      <trkpt lat="44.71672" lon="5.11298">
        <ele>334.8</ele>
        <time>1970-01-01T00:10:03.000Z</time>
      </trkpt>
      <trkpt lat="44.71674" lon="5.11302">
        <ele>335</ele>
        <time>1970-01-01T00:10:04.000Z</time>
      </trkpt>
      <trkpt lat="44.7168" lon="5.11315">
        <ele>335.4</ele>
        <time>1970-01-01T00:10:07.000Z</time>
      </trkpt>
      <trkpt lat="44.71685" lon="5.11329">
        <ele>335.4</ele>
        <time>1970-01-01T00:10:10.000Z</time>
      </trkpt>
      <trkpt lat="44.7169" lon="5.11337">
        <ele>335.2</ele>
        <time>1970-01-01T00:10:12.000Z</time>
      </trkpt>
      <trkpt lat="44.71694" lon="5.11346">
        <ele>335.2</ele>
        <time>1970-01-01T00:10:14.000Z</time>
      </trkpt>
      <trkpt lat="44.71695" lon="5.11352">
        <ele>335.2</ele>
        <time>1970-01-01T00:10:15.000Z</time>
      </trkpt>
      <trkpt lat="44.71696" lon="5.11363">
        <ele>335.2</ele>
        <time>1970-01-01T00:10:17.000Z</time>
      </trkpt>
      <trkpt lat="44.71696" lon="5.11368">
        <ele>335.2</ele>
        <time>1970-01-01T00:10:18.000Z</time>
      </trkpt>
      <trkpt lat="44.71697" lon="5.11374">
        <ele>335.2</ele>
        <time>1970-01-01T00:10:19.000Z</time>
      </trkpt>
      <trkpt lat="44.71699" lon="5.11378">
        <ele>335.2</ele>
        <time>1970-01-01T00:10:20.000Z</time>
      </trkpt>
      <trkpt lat="44.71701" lon="5.11382">
        <ele>335.2</ele>
        <time>1970-01-01T00:10:21.000Z</time>
      </trkpt>
      <trkpt lat="44.71702" lon="5.11386">
        <ele>335.4</ele>
        <time>1970-01-01T00:10:22.000Z</time>
      </trkpt>
      <trkpt lat="44.71703" lon="5.1139">
        <ele>335.4</ele>
        <time>1970-01-01T00:10:23.000Z</time>
      </trkpt>
      <trkpt lat="44.71705" lon="5.11392">
        <ele>335.2</ele>
        <time>1970-01-01T00:10:24.000Z</time>
      </trkpt>
      <trkpt lat="44.71709" lon="5.11395">
        <ele>335</ele>
        <time>1970-01-01T00:10:25.000Z</time>
      </trkpt>
      <trkpt lat="44.71713" lon="5.11398">
        <ele>335</ele>
        <time>1970-01-01T00:10:26.000Z</time>
      </trkpt>
      <trkpt lat="44.71716" lon="5.11404">
        <ele>334.8</ele>
        <time>1970-01-01T00:10:27.000Z</time>
      </trkpt>
      <trkpt lat="44.71719" lon="5.11411">
        <ele>334.8</ele>
        <time>1970-01-01T00:10:28.000Z</time>
      </trkpt>
      <trkpt lat="44.71724" lon="5.11417">
        <ele>334.6</ele>
        <time>1970-01-01T00:10:29.000Z</time>
      </trkpt>
      <trkpt lat="44.71728" lon="5.11422">
        <ele>334.4</ele>
        <time>1970-01-01T00:10:30.000Z</time>
      </trkpt>
      <trkpt lat="44.71733" lon="5.11428">
        <ele>334.2</ele>
        <time>1970-01-01T00:10:31.000Z</time>
      </trkpt>
      <trkpt lat="44.71735" lon="5.11432">
        <ele>334</ele>
        <time>1970-01-01T00:10:32.000Z</time>
      </trkpt>
      <trkpt lat="44.71737" lon="5.11437">
        <ele>334</ele>
        <time>1970-01-01T00:10:33.000Z</time>
      </trkpt>
      <trkpt lat="44.7174" lon="5.11441">
        <ele>334</ele>
        <time>1970-01-01T00:10:34.000Z</time>
      </trkpt>
      <trkpt lat="44.71745" lon="5.11444">
        <ele>333.6</ele>
        <time>1970-01-01T00:10:35.000Z</time>
      </trkpt>
      <trkpt lat="44.71753" lon="5.11445">
        <ele>333.6</ele>
        <time>1970-01-01T00:10:36.000Z</time>
      </trkpt>
      <trkpt lat="44.71757" lon="5.11449">
        <ele>333.4</ele>
        <time>1970-01-01T00:10:37.000Z</time>
      </trkpt>
      <trkpt lat="44.71759" lon="5.1145">
        <ele>333.2</ele>
        <time>1970-01-01T00:10:38.000Z</time>
      </trkpt>
      <trkpt lat="44.71762" lon="5.11452">
        <ele>332.8</ele>
        <time>1970-01-01T00:10:39.000Z</time>
      </trkpt>
      <trkpt lat="44.71765" lon="5.11456">
        <ele>332.6</ele>
        <time>1970-01-01T00:10:40.000Z</time>
      </trkpt>
      <trkpt lat="44.71767" lon="5.11462">
        <ele>332.2</ele>
        <time>1970-01-01T00:10:41.000Z</time>
      </trkpt>
      <trkpt lat="44.71769" lon="5.11469">
        <ele>331.8</ele>
        <time>1970-01-01T00:10:42.000Z</time>
      </trkpt>
      <trkpt lat="44.71771" lon="5.11473">
        <ele>331.8</ele>
        <time>1970-01-01T00:10:43.000Z</time>
      </trkpt>
      <trkpt lat="44.71775" lon="5.11476">
        <ele>331.6</ele>
        <time>1970-01-01T00:10:44.000Z</time>
      </trkpt>
      <trkpt lat="44.71779" lon="5.11477">
        <ele>331.6</ele>
        <time>1970-01-01T00:10:45.000Z</time>
      </trkpt>
      <trkpt lat="44.71782" lon="5.11478">
        <ele>332.4</ele>
        <time>1970-01-01T00:10:46.000Z</time>
      </trkpt>
      <trkpt lat="44.71788" lon="5.11477">
        <ele>333.6</ele>
        <time>1970-01-01T00:10:48.000Z</time>
      </trkpt>
      <trkpt lat="44.71791" lon="5.11477">
        <ele>334</ele>
        <time>1970-01-01T00:10:49.000Z</time>
      </trkpt>
      <trkpt lat="44.71795" lon="5.11478">
        <ele>334.2</ele>
        <time>1970-01-01T00:10:50.000Z</time>
      </trkpt>
      <trkpt lat="44.71798" lon="5.11481">
        <ele>334.4</ele>
        <time>1970-01-01T00:10:51.000Z</time>
      </trkpt>
      <trkpt lat="44.718" lon="5.11484">
        <ele>334.8</ele>
        <time>1970-01-01T00:10:52.000Z</time>
      </trkpt>
      <trkpt lat="44.71803" lon="5.11486">
        <ele>335</ele>
        <time>1970-01-01T00:10:53.000Z</time>
      </trkpt>
      <trkpt lat="44.71806" lon="5.11487">
        <ele>335.2</ele>
        <time>1970-01-01T00:10:54.000Z</time>
      </trkpt>
      <trkpt lat="44.71809" lon="5.11489">
        <ele>335.4</ele>
        <time>1970-01-01T00:10:55.000Z</time>
      </trkpt>
      <trkpt lat="44.71811" lon="5.11491">
        <ele>336</ele>
        <time>1970-01-01T00:10:56.000Z</time>
      </trkpt>
      <trkpt lat="44.71814" lon="5.11493">
        <ele>336.6</ele>
        <time>1970-01-01T00:10:57.000Z</time>
      </trkpt>
      <trkpt lat="44.71816" lon="5.11494">
        <ele>337</ele>
        <time>1970-01-01T00:10:58.000Z</time>
      </trkpt>
      <trkpt lat="44.71818" lon="5.11496">
        <ele>337.4</ele>
        <time>1970-01-01T00:10:59.000Z</time>
      </trkpt>
      <trkpt lat="44.71821" lon="5.11497">
        <ele>337.8</ele>
        <time>1970-01-01T00:11:00.000Z</time>
      </trkpt>
      <trkpt lat="44.71823" lon="5.11499">
        <ele>338.8</ele>
        <time>1970-01-01T00:11:01.000Z</time>
      </trkpt>
      <trkpt lat="44.71825" lon="5.11502">
        <ele>339.4</ele>
        <time>1970-01-01T00:11:02.000Z</time>
      </trkpt>
      <trkpt lat="44.71826" lon="5.11505">
        <ele>339.8</ele>
        <time>1970-01-01T00:11:03.000Z</time>
      </trkpt>
      <trkpt lat="44.71828" lon="5.11507">
        <ele>340.2</ele>
        <time>1970-01-01T00:11:04.000Z</time>
      </trkpt>
      <trkpt lat="44.71829" lon="5.11508">
        <ele>340.6</ele>
        <time>1970-01-01T00:11:05.000Z</time>
      </trkpt>
      <trkpt lat="44.71831" lon="5.1151">
        <ele>341.2</ele>
        <time>1970-01-01T00:11:06.000Z</time>
      </trkpt>
      <trkpt lat="44.71832" lon="5.11513">
        <ele>341.8</ele>
        <time>1970-01-01T00:11:07.000Z</time>
      </trkpt>
      <trkpt lat="44.71832" lon="5.11515">
        <ele>342</ele>
        <time>1970-01-01T00:11:08.000Z</time>
      </trkpt>
      <trkpt lat="44.71833" lon="5.11517">
        <ele>342.6</ele>
        <time>1970-01-01T00:11:09.000Z</time>
      </trkpt>
      <trkpt lat="44.71834" lon="5.11519">
        <ele>343.2</ele>
        <time>1970-01-01T00:11:10.000Z</time>
      </trkpt>
      <trkpt lat="44.71836" lon="5.11521">
        <ele>344</ele>
        <time>1970-01-01T00:11:11.000Z</time>
      </trkpt>
      <trkpt lat="44.71837" lon="5.11524">
        <ele>344.4</ele>
        <time>1970-01-01T00:11:12.000Z</time>
      </trkpt>
      <trkpt lat="44.71838" lon="5.11527">
        <ele>344.8</ele>
        <time>1970-01-01T00:11:13.000Z</time>
      </trkpt>
      <trkpt lat="44.71839" lon="5.11528">
        <ele>344.8</ele>
        <time>1970-01-01T00:11:14.000Z</time>
      </trkpt>
      <trkpt lat="44.71842" lon="5.11529">
        <ele>344.8</ele>
        <time>1970-01-01T00:11:15.000Z</time>
      </trkpt>
      <trkpt lat="44.71844" lon="5.1153">
        <ele>345</ele>
        <time>1970-01-01T00:11:16.000Z</time>
      </trkpt>
      <trkpt lat="44.71847" lon="5.11531">
        <ele>345.4</ele>
        <time>1970-01-01T00:11:17.000Z</time>
      </trkpt>
      <trkpt lat="44.71849" lon="5.11532">
        <ele>345.6</ele>
        <time>1970-01-01T00:11:18.000Z</time>
      </trkpt>
      <trkpt lat="44.71852" lon="5.11532">
        <ele>345.6</ele>
        <time>1970-01-01T00:11:19.000Z</time>
      </trkpt>
      <trkpt lat="44.71855" lon="5.11532">
        <ele>345.8</ele>
        <time>1970-01-01T00:11:20.000Z</time>
      </trkpt>
      <trkpt lat="44.71857" lon="5.11532">
        <ele>346</ele>
        <time>1970-01-01T00:11:21.000Z</time>
      </trkpt>
      <trkpt lat="44.7186" lon="5.11533">
        <ele>346.2</ele>
        <time>1970-01-01T00:11:22.000Z</time>
      </trkpt>
      <trkpt lat="44.71863" lon="5.11533">
        <ele>346.4</ele>
        <time>1970-01-01T00:11:23.000Z</time>
      </trkpt>
      <trkpt lat="44.71865" lon="5.11534">
        <ele>346.8</ele>
        <time>1970-01-01T00:11:24.000Z</time>
      </trkpt>
      <trkpt lat="44.71867" lon="5.11535">
        <ele>347.2</ele>
        <time>1970-01-01T00:11:25.000Z</time>
      </trkpt>
      <trkpt lat="44.71869" lon="5.11535">
        <ele>347.4</ele>
        <time>1970-01-01T00:11:26.000Z</time>
      </trkpt>
      <trkpt lat="44.71871" lon="5.11536">
        <ele>347.8</ele>
        <time>1970-01-01T00:11:27.000Z</time>
      </trkpt>
      <trkpt lat="44.71874" lon="5.11536">
        <ele>348</ele>
        <time>1970-01-01T00:11:28.000Z</time>
      </trkpt>
      <trkpt lat="44.71876" lon="5.11536">
        <ele>348.2</ele>
        <time>1970-01-01T00:11:29.000Z</time>
      </trkpt>
      <trkpt lat="44.71878" lon="5.11537">
        <ele>348.4</ele>
        <time>1970-01-01T00:11:30.000Z</time>
      </trkpt>
      <trkpt lat="44.7188" lon="5.11537">
        <ele>348.6</ele>
        <time>1970-01-01T00:11:31.000Z</time>
      </trkpt>
      <trkpt lat="44.71883" lon="5.11538">
        <ele>348.8</ele>
        <time>1970-01-01T00:11:32.000Z</time>
      </trkpt>
      <trkpt lat="44.71885" lon="5.11539">
        <ele>348.8</ele>
        <time>1970-01-01T00:11:33.000Z</time>
      </trkpt>
      <trkpt lat="44.71888" lon="5.11541">
        <ele>349</ele>
        <time>1970-01-01T00:11:34.000Z</time>
      </trkpt>
      <trkpt lat="44.71891" lon="5.11541">
        <ele>349</ele>
        <time>1970-01-01T00:11:35.000Z</time>
      </trkpt>
      <trkpt lat="44.71893" lon="5.11542">
        <ele>349</ele>
        <time>1970-01-01T00:11:36.000Z</time>
      </trkpt>
      <trkpt lat="44.71896" lon="5.11542">
        <ele>349.2</ele>
        <time>1970-01-01T00:11:37.000Z</time>
      </trkpt>
      <trkpt lat="44.71899" lon="5.11543">
        <ele>349.4</ele>
        <time>1970-01-01T00:11:38.000Z</time>
      </trkpt>
      <trkpt lat="44.71903" lon="5.11543">
        <ele>349.4</ele>
        <time>1970-01-01T00:11:39.000Z</time>
      </trkpt>
      <trkpt lat="44.71905" lon="5.11543">
        <ele>349.6</ele>
        <time>1970-01-01T00:11:40.000Z</time>
      </trkpt>
      <trkpt lat="44.71908" lon="5.11543">
        <ele>349.6</ele>
        <time>1970-01-01T00:11:41.000Z</time>
      </trkpt>
      <trkpt lat="44.71911" lon="5.11544">
        <ele>349.8</ele>
        <time>1970-01-01T00:11:42.000Z</time>
      </trkpt>
      <trkpt lat="44.71913" lon="5.11545">
        <ele>349.8</ele>
        <time>1970-01-01T00:11:43.000Z</time>
      </trkpt>
      <trkpt lat="44.71916" lon="5.11546">
        <ele>350</ele>
        <time>1970-01-01T00:11:44.000Z</time>
      </trkpt>
      <trkpt lat="44.71919" lon="5.11547">
        <ele>350.4</ele>
        <time>1970-01-01T00:11:45.000Z</time>
      </trkpt>
      <trkpt lat="44.71922" lon="5.11547">
        <ele>350.6</ele>
        <time>1970-01-01T00:11:46.000Z</time>
      </trkpt>
      <trkpt lat="44.71925" lon="5.11548">
        <ele>350.6</ele>
        <time>1970-01-01T00:11:47.000Z</time>
      </trkpt>
      <trkpt lat="44.71928" lon="5.11549">
        <ele>350.8</ele>
        <time>1970-01-01T00:11:48.000Z</time>
      </trkpt>
      <trkpt lat="44.71931" lon="5.1155">
        <ele>351</ele>
        <time>1970-01-01T00:11:49.000Z</time>
      </trkpt>
      <trkpt lat="44.71933" lon="5.11551">
        <ele>351.2</ele>
        <time>1970-01-01T00:11:50.000Z</time>
      </trkpt>
      <trkpt lat="44.71937" lon="5.11552">
        <ele>351.4</ele>
        <time>1970-01-01T00:11:51.000Z</time>
      </trkpt>
      <trkpt lat="44.71939" lon="5.11553">
        <ele>351.8</ele>
        <time>1970-01-01T00:11:52.000Z</time>
      </trkpt>
      <trkpt lat="44.71942" lon="5.11553">
        <ele>352</ele>
        <time>1970-01-01T00:11:53.000Z</time>
      </trkpt>
      <trkpt lat="44.71945" lon="5.11554">
        <ele>352.2</ele>
        <time>1970-01-01T00:11:54.000Z</time>
      </trkpt>
      <trkpt lat="44.71948" lon="5.11555">
        <ele>352.2</ele>
        <time>1970-01-01T00:11:55.000Z</time>
      </trkpt>
      <trkpt lat="44.71951" lon="5.11556">
        <ele>352.4</ele>
        <time>1970-01-01T00:11:56.000Z</time>
      </trkpt>
      <trkpt lat="44.71954" lon="5.11556">
        <ele>352.4</ele>
        <time>1970-01-01T00:11:57.000Z</time>
      </trkpt>
      <trkpt lat="44.71956" lon="5.11556">
        <ele>352.6</ele>
        <time>1970-01-01T00:11:58.000Z</time>
      </trkpt>
      <trkpt lat="44.71958" lon="5.11556">
        <ele>353</ele>
        <time>1970-01-01T00:11:59.000Z</time>
      </trkpt>
      <trkpt lat="44.7196" lon="5.11558">
        <ele>353.6</ele>
        <time>1970-01-01T00:12:00.000Z</time>
      </trkpt>
      <trkpt lat="44.71963" lon="5.11559">
        <ele>354.2</ele>
        <time>1970-01-01T00:12:01.000Z</time>
      </trkpt>
      <trkpt lat="44.71965" lon="5.11561">
        <ele>354.6</ele>
        <time>1970-01-01T00:12:02.000Z</time>
      </trkpt>
      <trkpt lat="44.71967" lon="5.11563">
        <ele>355</ele>
        <time>1970-01-01T00:12:03.000Z</time>
      </trkpt>
      <trkpt lat="44.7197" lon="5.11565">
        <ele>355.4</ele>
        <time>1970-01-01T00:12:04.000Z</time>
      </trkpt>
      <trkpt lat="44.71972" lon="5.11566">
        <ele>355.6</ele>
        <time>1970-01-01T00:12:05.000Z</time>
      </trkpt>
      <trkpt lat="44.71975" lon="5.11567">
        <ele>355.8</ele>
        <time>1970-01-01T00:12:06.000Z</time>
      </trkpt>
      <trkpt lat="44.71977" lon="5.11568">
        <ele>356.2</ele>
        <time>1970-01-01T00:12:07.000Z</time>
      </trkpt>
      <trkpt lat="44.71979" lon="5.11569">
        <ele>356.6</ele>
        <time>1970-01-01T00:12:08.000Z</time>
      </trkpt>
      <trkpt lat="44.71982" lon="5.1157">
        <ele>356.8</ele>
        <time>1970-01-01T00:12:09.000Z</time>
      </trkpt>
      <trkpt lat="44.71985" lon="5.1157">
        <ele>357</ele>
        <time>1970-01-01T00:12:10.000Z</time>
      </trkpt>
      <trkpt lat="44.71988" lon="5.1157">
        <ele>357.2</ele>
        <time>1970-01-01T00:12:11.000Z</time>
      </trkpt>
      <trkpt lat="44.7199" lon="5.1157">
        <ele>357.4</ele>
        <time>1970-01-01T00:12:12.000Z</time>
      </trkpt>
      <trkpt lat="44.71993" lon="5.1157">
        <ele>357.6</ele>
        <time>1970-01-01T00:12:13.000Z</time>
      </trkpt>
      <trkpt lat="44.71996" lon="5.11571">
        <ele>357.8</ele>
        <time>1970-01-01T00:12:14.000Z</time>
      </trkpt>
      <trkpt lat="44.71999" lon="5.11571">
        <ele>358</ele>
        <time>1970-01-01T00:12:15.000Z</time>
      </trkpt>
      <trkpt lat="44.72001" lon="5.11572">
        <ele>358.2</ele>
        <time>1970-01-01T00:12:16.000Z</time>
      </trkpt>
      <trkpt lat="44.72004" lon="5.11573">
        <ele>358.4</ele>
        <time>1970-01-01T00:12:17.000Z</time>
      </trkpt>
      <trkpt lat="44.72007" lon="5.11573">
        <ele>358.4</ele>
        <time>1970-01-01T00:12:18.000Z</time>
      </trkpt>
      <trkpt lat="44.7201" lon="5.11574">
        <ele>358.6</ele>
        <time>1970-01-01T00:12:19.000Z</time>
      </trkpt>
      <trkpt lat="44.72013" lon="5.11575">
        <ele>358.8</ele>
        <time>1970-01-01T00:12:20.000Z</time>
      </trkpt>
      <trkpt lat="44.72016" lon="5.11576">
        <ele>359</ele>
        <time>1970-01-01T00:12:21.000Z</time>
      </trkpt>
      <trkpt lat="44.72018" lon="5.11576">
        <ele>359.2</ele>
        <time>1970-01-01T00:12:22.000Z</time>
      </trkpt>
      <trkpt lat="44.7202" lon="5.11577">
        <ele>359.4</ele>
        <time>1970-01-01T00:12:23.000Z</time>
      </trkpt>
      <trkpt lat="44.72023" lon="5.11579">
        <ele>359.8</ele>
        <time>1970-01-01T00:12:24.000Z</time>
      </trkpt>
      <trkpt lat="44.72025" lon="5.11581">
        <ele>360.2</ele>
        <time>1970-01-01T00:12:25.000Z</time>
      </trkpt>
      <trkpt lat="44.72027" lon="5.11582">
        <ele>360.6</ele>
        <time>1970-01-01T00:12:26.000Z</time>
      </trkpt>
      <trkpt lat="44.72029" lon="5.11584">
        <ele>361</ele>
        <time>1970-01-01T00:12:27.000Z</time>
      </trkpt>
      <trkpt lat="44.72031" lon="5.11585">
        <ele>361.2</ele>
        <time>1970-01-01T00:12:28.000Z</time>
      </trkpt>
      <trkpt lat="44.72033" lon="5.11586">
        <ele>361.2</ele>
        <time>1970-01-01T00:12:29.000Z</time>
      </trkpt>
      <trkpt lat="44.72035" lon="5.11588">
        <ele>361.4</ele>
        <time>1970-01-01T00:12:30.000Z</time>
      </trkpt>
      <trkpt lat="44.72037" lon="5.11591">
        <ele>361.6</ele>
        <time>1970-01-01T00:12:31.000Z</time>
      </trkpt>
      <trkpt lat="44.72038" lon="5.11592">
        <ele>361.8</ele>
        <time>1970-01-01T00:12:32.000Z</time>
      </trkpt>
      <trkpt lat="44.7204" lon="5.11593">
        <ele>362</ele>
        <time>1970-01-01T00:12:33.000Z</time>
      </trkpt>
      <trkpt lat="44.72042" lon="5.11594">
        <ele>362</ele>
        <time>1970-01-01T00:12:34.000Z</time>
      </trkpt>
      <trkpt lat="44.72045" lon="5.11594">
        <ele>362.4</ele>
        <time>1970-01-01T00:12:35.000Z</time>
      </trkpt>
      <trkpt lat="44.72049" lon="5.11594">
        <ele>362.4</ele>
        <time>1970-01-01T00:12:36.000Z</time>
      </trkpt>
      <trkpt lat="44.72053" lon="5.11594">
        <ele>362.4</ele>
        <time>1970-01-01T00:12:37.000Z</time>
      </trkpt>
      <trkpt lat="44.72057" lon="5.11593">
        <ele>362.4</ele>
        <time>1970-01-01T00:12:38.000Z</time>
      </trkpt>
      <trkpt lat="44.72061" lon="5.11593">
        <ele>362.2</ele>
        <time>1970-01-01T00:12:39.000Z</time>
      </trkpt>
      <trkpt lat="44.72064" lon="5.11592">
        <ele>362.2</ele>
        <time>1970-01-01T00:12:40.000Z</time>
      </trkpt>
      <trkpt lat="44.72068" lon="5.11592">
        <ele>362.2</ele>
        <time>1970-01-01T00:12:41.000Z</time>
      </trkpt>
      <trkpt lat="44.72071" lon="5.11594">
        <ele>362.2</ele>
        <time>1970-01-01T00:12:42.000Z</time>
      </trkpt>
      <trkpt lat="44.72074" lon="5.11596">
        <ele>362</ele>
        <time>1970-01-01T00:12:43.000Z</time>
      </trkpt>
      <trkpt lat="44.72077" lon="5.11598">
        <ele>362</ele>
        <time>1970-01-01T00:12:44.000Z</time>
      </trkpt>
      <trkpt lat="44.7208" lon="5.11598">
        <ele>362</ele>
        <time>1970-01-01T00:12:45.000Z</time>
      </trkpt>
      <trkpt lat="44.72084" lon="5.11598">
        <ele>362</ele>
        <time>1970-01-01T00:12:46.000Z</time>
      </trkpt>
      <trkpt lat="44.72087" lon="5.116">
        <ele>362</ele>
        <time>1970-01-01T00:12:47.000Z</time>
      </trkpt>
      <trkpt lat="44.72089" lon="5.11602">
        <ele>362.4</ele>
        <time>1970-01-01T00:12:48.000Z</time>
      </trkpt>
      <trkpt lat="44.72092" lon="5.11604">
        <ele>362.6</ele>
        <time>1970-01-01T00:12:49.000Z</time>
      </trkpt>
      <trkpt lat="44.72095" lon="5.11604">
        <ele>363.2</ele>
        <time>1970-01-01T00:12:50.000Z</time>
      </trkpt>
      <trkpt lat="44.72098" lon="5.11603">
        <ele>363.4</ele>
        <time>1970-01-01T00:12:51.000Z</time>
      </trkpt>
      <trkpt lat="44.72101" lon="5.11601">
        <ele>363.4</ele>
        <time>1970-01-01T00:12:52.000Z</time>
      </trkpt>
      <trkpt lat="44.72104" lon="5.11601">
        <ele>363.6</ele>
        <time>1970-01-01T00:12:53.000Z</time>
      </trkpt>
      <trkpt lat="44.72108" lon="5.11602">
        <ele>363.4</ele>
        <time>1970-01-01T00:12:54.000Z</time>
      </trkpt>
      <trkpt lat="44.72113" lon="5.11604">
        <ele>363.2</ele>
        <time>1970-01-01T00:12:55.000Z</time>
      </trkpt>
      <trkpt lat="44.72117" lon="5.11606">
        <ele>363.2</ele>
        <time>1970-01-01T00:12:56.000Z</time>
      </trkpt>
      <trkpt lat="44.72122" lon="5.11607">
        <ele>363.2</ele>
        <time>1970-01-01T00:12:57.000Z</time>
      </trkpt>
      <trkpt lat="44.72126" lon="5.11608">
        <ele>363.4</ele>
        <time>1970-01-01T00:12:58.000Z</time>
      </trkpt>
      <trkpt lat="44.72128" lon="5.11609">
        <ele>364</ele>
        <time>1970-01-01T00:12:59.000Z</time>
      </trkpt>
      <trkpt lat="44.7213" lon="5.1161">
        <ele>364.6</ele>
        <time>1970-01-01T00:13:00.000Z</time>
      </trkpt>
      <trkpt lat="44.72132" lon="5.11612">
        <ele>365</ele>
        <time>1970-01-01T00:13:01.000Z</time>
      </trkpt>
      <trkpt lat="44.72134" lon="5.11614">
        <ele>365.4</ele>
        <time>1970-01-01T00:13:02.000Z</time>
      </trkpt>
      <trkpt lat="44.72136" lon="5.11617">
        <ele>365.6</ele>
        <time>1970-01-01T00:13:03.000Z</time>
      </trkpt>
      <trkpt lat="44.72138" lon="5.11619">
        <ele>365.8</ele>
        <time>1970-01-01T00:13:04.000Z</time>
      </trkpt>
      <trkpt lat="44.7214" lon="5.1162">
        <ele>366.2</ele>
        <time>1970-01-01T00:13:05.000Z</time>
      </trkpt>
      <trkpt lat="44.72142" lon="5.11622">
        <ele>366.8</ele>
        <time>1970-01-01T00:13:06.000Z</time>
      </trkpt>
      <trkpt lat="44.72145" lon="5.11623">
        <ele>367.6</ele>
        <time>1970-01-01T00:13:07.000Z</time>
      </trkpt>
      <trkpt lat="44.72147" lon="5.11623">
        <ele>367.8</ele>
        <time>1970-01-01T00:13:08.000Z</time>
      </trkpt>
      <trkpt lat="44.7215" lon="5.11623">
        <ele>368.2</ele>
        <time>1970-01-01T00:13:09.000Z</time>
      </trkpt>
      <trkpt lat="44.72153" lon="5.11622">
        <ele>368.4</ele>
        <time>1970-01-01T00:13:10.000Z</time>
      </trkpt>
      <trkpt lat="44.72156" lon="5.11621">
        <ele>368.4</ele>
        <time>1970-01-01T00:13:11.000Z</time>
      </trkpt>
      <trkpt lat="44.72159" lon="5.11621">
        <ele>368.6</ele>
        <time>1970-01-01T00:13:12.000Z</time>
      </trkpt>
      <trkpt lat="44.72163" lon="5.1162">
        <ele>368.6</ele>
        <time>1970-01-01T00:13:13.000Z</time>
      </trkpt>
      <trkpt lat="44.72166" lon="5.1162">
        <ele>368.6</ele>
        <time>1970-01-01T00:13:14.000Z</time>
      </trkpt>
      <trkpt lat="44.72169" lon="5.11621">
        <ele>368.8</ele>
        <time>1970-01-01T00:13:15.000Z</time>
      </trkpt>
      <trkpt lat="44.72171" lon="5.11622">
        <ele>368.8</ele>
        <time>1970-01-01T00:13:16.000Z</time>
      </trkpt>
      <trkpt lat="44.72174" lon="5.11624">
        <ele>368.8</ele>
        <time>1970-01-01T00:13:17.000Z</time>
      </trkpt>
      <trkpt lat="44.72178" lon="5.11626">
        <ele>368.8</ele>
        <time>1970-01-01T00:13:18.000Z</time>
      </trkpt>
      <trkpt lat="44.72181" lon="5.11626">
        <ele>368.8</ele>
        <time>1970-01-01T00:13:19.000Z</time>
      </trkpt>
      <trkpt lat="44.72184" lon="5.11626">
        <ele>368.8</ele>
        <time>1970-01-01T00:13:20.000Z</time>
      </trkpt>
      <trkpt lat="44.72188" lon="5.11627">
        <ele>368.8</ele>
        <time>1970-01-01T00:13:21.000Z</time>
      </trkpt>
      <trkpt lat="44.72191" lon="5.11627">
        <ele>368.8</ele>
        <time>1970-01-01T00:13:22.000Z</time>
      </trkpt>
      <trkpt lat="44.72193" lon="5.11629">
        <ele>369.4</ele>
        <time>1970-01-01T00:13:23.000Z</time>
      </trkpt>
      <trkpt lat="44.72195" lon="5.11631">
        <ele>370.2</ele>
        <time>1970-01-01T00:13:24.000Z</time>
      </trkpt>
      <trkpt lat="44.72196" lon="5.11633">
        <ele>370.6</ele>
        <time>1970-01-01T00:13:25.000Z</time>
      </trkpt>
      <trkpt lat="44.72199" lon="5.11635">
        <ele>371</ele>
        <time>1970-01-01T00:13:26.000Z</time>
      </trkpt>
      <trkpt lat="44.72201" lon="5.11636">
        <ele>371.4</ele>
        <time>1970-01-01T00:13:27.000Z</time>
      </trkpt>
      <trkpt lat="44.72203" lon="5.11639">
        <ele>371.8</ele>
        <time>1970-01-01T00:13:28.000Z</time>
      </trkpt>
      <trkpt lat="44.72205" lon="5.11642">
        <ele>372.2</ele>
        <time>1970-01-01T00:13:29.000Z</time>
      </trkpt>
      <trkpt lat="44.72206" lon="5.11645">
        <ele>372.6</ele>
        <time>1970-01-01T00:13:30.000Z</time>
      </trkpt>
      <trkpt lat="44.72208" lon="5.11648">
        <ele>373.2</ele>
        <time>1970-01-01T00:13:31.000Z</time>
      </trkpt>
      <trkpt lat="44.7221" lon="5.1165">
        <ele>373.4</ele>
        <time>1970-01-01T00:13:32.000Z</time>
      </trkpt>
      <trkpt lat="44.72212" lon="5.11653">
        <ele>373.8</ele>
        <time>1970-01-01T00:13:33.000Z</time>
      </trkpt>
      <trkpt lat="44.72214" lon="5.11655">
        <ele>374.2</ele>
        <time>1970-01-01T00:13:34.000Z</time>
      </trkpt>
      <trkpt lat="44.72216" lon="5.11656">
        <ele>374.6</ele>
        <time>1970-01-01T00:13:35.000Z</time>
      </trkpt>
      <trkpt lat="44.72219" lon="5.11656">
        <ele>375</ele>
        <time>1970-01-01T00:13:36.000Z</time>
      </trkpt>
      <trkpt lat="44.72222" lon="5.11655">
        <ele>375.4</ele>
        <time>1970-01-01T00:13:37.000Z</time>
      </trkpt>
      <trkpt lat="44.72226" lon="5.11654">
        <ele>375.8</ele>
        <time>1970-01-01T00:13:38.000Z</time>
      </trkpt>
      <trkpt lat="44.72229" lon="5.11654">
        <ele>375.8</ele>
        <time>1970-01-01T00:13:39.000Z</time>
      </trkpt>
      <trkpt lat="44.72232" lon="5.11654">
        <ele>375.8</ele>
        <time>1970-01-01T00:13:40.000Z</time>
      </trkpt>
      <trkpt lat="44.72237" lon="5.11655">
        <ele>375.8</ele>
        <time>1970-01-01T00:13:41.000Z</time>
      </trkpt>
      <trkpt lat="44.7224" lon="5.11658">
        <ele>375.8</ele>
        <time>1970-01-01T00:13:42.000Z</time>
      </trkpt>
      <trkpt lat="44.72243" lon="5.1166">
        <ele>375.6</ele>
        <time>1970-01-01T00:13:43.000Z</time>
      </trkpt>
      <trkpt lat="44.72247" lon="5.11661">
        <ele>375.4</ele>
        <time>1970-01-01T00:13:44.000Z</time>
      </trkpt>
      <trkpt lat="44.7225" lon="5.11662">
        <ele>375.4</ele>
        <time>1970-01-01T00:13:45.000Z</time>
      </trkpt>
      <trkpt lat="44.72252" lon="5.11662">
        <ele>375.4</ele>
        <time>1970-01-01T00:13:46.000Z</time>
      </trkpt>
      <trkpt lat="44.72255" lon="5.11662">
        <ele>376.2</ele>
        <time>1970-01-01T00:13:47.000Z</time>
      </trkpt>
      <trkpt lat="44.72258" lon="5.11663">
        <ele>376.6</ele>
        <time>1970-01-01T00:13:48.000Z</time>
      </trkpt>
      <trkpt lat="44.7226" lon="5.11663">
        <ele>377.4</ele>
        <time>1970-01-01T00:13:49.000Z</time>
      </trkpt>
      <trkpt lat="44.72263" lon="5.11663">
        <ele>377.8</ele>
        <time>1970-01-01T00:13:50.000Z</time>
      </trkpt>
      <trkpt lat="44.72266" lon="5.11663">
        <ele>378</ele>
        <time>1970-01-01T00:13:51.000Z</time>
      </trkpt>
      <trkpt lat="44.72269" lon="5.11663">
        <ele>378.2</ele>
        <time>1970-01-01T00:13:52.000Z</time>
      </trkpt>
      <trkpt lat="44.72272" lon="5.11664">
        <ele>378.2</ele>
        <time>1970-01-01T00:13:53.000Z</time>
      </trkpt>
      <trkpt lat="44.72274" lon="5.11666">
        <ele>378.2</ele>
        <time>1970-01-01T00:13:54.000Z</time>
      </trkpt>
      <trkpt lat="44.72275" lon="5.11666">
        <ele>378.4</ele>
        <time>1970-01-01T00:13:55.000Z</time>
      </trkpt>
      <trkpt lat="44.72277" lon="5.11667">
        <ele>378.4</ele>
        <time>1970-01-01T00:13:56.000Z</time>
      </trkpt>
      <trkpt lat="44.72278" lon="5.11668">
        <ele>378.6</ele>
        <time>1970-01-01T00:13:57.000Z</time>
      </trkpt>
      <trkpt lat="44.72279" lon="5.11669">
        <ele>378.6</ele>
        <time>1970-01-01T00:13:58.000Z</time>
      </trkpt>
      <trkpt lat="44.72281" lon="5.1167">
        <ele>378.6</ele>
        <time>1970-01-01T00:13:59.000Z</time>
      </trkpt>
      <trkpt lat="44.72283" lon="5.11671">
        <ele>378.6</ele>
        <time>1970-01-01T00:14:00.000Z</time>
      </trkpt>
      <trkpt lat="44.72284" lon="5.11671">
        <ele>378.6</ele>
        <time>1970-01-01T00:14:03.000Z</time>
      </trkpt>
      <trkpt lat="44.72285" lon="5.11674">
        <ele>377.4</ele>
        <time>1970-01-01T00:15:08.000Z</time>
      </trkpt>
      <trkpt lat="44.72289" lon="5.11689">
        <ele>376.4</ele>
        <time>1970-01-01T00:15:11.000Z</time>
      </trkpt>
      <trkpt lat="44.7229" lon="5.11694">
        <ele>376.2</ele>
        <time>1970-01-01T00:15:12.000Z</time>
      </trkpt>
      <trkpt lat="44.72292" lon="5.117">
        <ele>375</ele>
        <time>1970-01-01T00:15:13.000Z</time>
      </trkpt>
      <trkpt lat="44.72294" lon="5.11711">
        <ele>374</ele>
        <time>1970-01-01T00:15:15.000Z</time>
      </trkpt>
      <trkpt lat="44.72293" lon="5.11718">
        <ele>373.6</ele>
        <time>1970-01-01T00:15:16.000Z</time>
      </trkpt>
      <trkpt lat="44.72293" lon="5.11727">
        <ele>373</ele>
        <time>1970-01-01T00:15:17.000Z</time>
      </trkpt>
      <trkpt lat="44.72294" lon="5.11738">
        <ele>371.6</ele>
        <time>1970-01-01T00:15:18.000Z</time>
      </trkpt>
      <trkpt lat="44.72294" lon="5.11745">
        <ele>369.6</ele>
        <time>1970-01-01T00:15:19.000Z</time>
      </trkpt>
      <trkpt lat="44.72292" lon="5.11755">
        <ele>368.2</ele>
        <time>1970-01-01T00:15:20.000Z</time>
      </trkpt>
      <trkpt lat="44.72289" lon="5.11776">
        <ele>367.2</ele>
        <time>1970-01-01T00:15:22.000Z</time>
      </trkpt>
      <trkpt lat="44.72287" lon="5.11785">
        <ele>367</ele>
        <time>1970-01-01T00:15:23.000Z</time>
      </trkpt>
      <trkpt lat="44.72286" lon="5.11793">
        <ele>367</ele>
        <time>1970-01-01T00:15:24.000Z</time>
      </trkpt>
      <trkpt lat="44.72285" lon="5.118">
        <ele>367</ele>
        <time>1970-01-01T00:15:25.000Z</time>
      </trkpt>
      <trkpt lat="44.72283" lon="5.11806">
        <ele>367.6</ele>
        <time>1970-01-01T00:15:26.000Z</time>
      </trkpt>
      <trkpt lat="44.72281" lon="5.11811">
        <ele>367.8</ele>
        <time>1970-01-01T00:15:27.000Z</time>
      </trkpt>
      <trkpt lat="44.72279" lon="5.11815">
        <ele>368</ele>
        <time>1970-01-01T00:15:28.000Z</time>
      </trkpt>
      <trkpt lat="44.72277" lon="5.11821">
        <ele>368</ele>
        <time>1970-01-01T00:15:29.000Z</time>
      </trkpt>
      <trkpt lat="44.72274" lon="5.11827">
        <ele>368.4</ele>
        <time>1970-01-01T00:15:30.000Z</time>
      </trkpt>
      <trkpt lat="44.72272" lon="5.11833">
        <ele>368.6</ele>
        <time>1970-01-01T00:15:31.000Z</time>
      </trkpt>
      <trkpt lat="44.72269" lon="5.11843">
        <ele>369.2</ele>
        <time>1970-01-01T00:15:33.000Z</time>
      </trkpt>
      <trkpt lat="44.72267" lon="5.11849">
        <ele>369.4</ele>
        <time>1970-01-01T00:15:34.000Z</time>
      </trkpt>
      <trkpt lat="44.72266" lon="5.11853">
        <ele>369.8</ele>
        <time>1970-01-01T00:15:35.000Z</time>
      </trkpt>
      <trkpt lat="44.72265" lon="5.11858">
        <ele>370.2</ele>
        <time>1970-01-01T00:15:36.000Z</time>
      </trkpt>
      <trkpt lat="44.72263" lon="5.11862">
        <ele>370.4</ele>
        <time>1970-01-01T00:15:37.000Z</time>
      </trkpt>
      <trkpt lat="44.72262" lon="5.11867">
        <ele>370.6</ele>
        <time>1970-01-01T00:15:38.000Z</time>
      </trkpt>
      <trkpt lat="44.72261" lon="5.11872">
        <ele>371.2</ele>
        <time>1970-01-01T00:15:39.000Z</time>
      </trkpt>
      <trkpt lat="44.72261" lon="5.11875">
        <ele>371.4</ele>
        <time>1970-01-01T00:15:40.000Z</time>
      </trkpt>
      <trkpt lat="44.7226" lon="5.11884">
        <ele>371.8</ele>
        <time>1970-01-01T00:15:42.000Z</time>
      </trkpt>
      <trkpt lat="44.72259" lon="5.11889">
        <ele>372.2</ele>
        <time>1970-01-01T00:15:43.000Z</time>
      </trkpt>
      <trkpt lat="44.7226" lon="5.11893">
        <ele>372.4</ele>
        <time>1970-01-01T00:15:44.000Z</time>
      </trkpt>
      <trkpt lat="44.72259" lon="5.11898">
        <ele>372.8</ele>
        <time>1970-01-01T00:15:45.000Z</time>
      </trkpt>
      <trkpt lat="44.72259" lon="5.11906">
        <ele>373.4</ele>
        <time>1970-01-01T00:15:47.000Z</time>
      </trkpt>
      <trkpt lat="44.72258" lon="5.11911">
        <ele>373.8</ele>
        <time>1970-01-01T00:15:48.000Z</time>
      </trkpt>
      <trkpt lat="44.72259" lon="5.11917">
        <ele>374</ele>
        <time>1970-01-01T00:15:49.000Z</time>
      </trkpt>
      <trkpt lat="44.72259" lon="5.11922">
        <ele>374.2</ele>
        <time>1970-01-01T00:15:50.000Z</time>
      </trkpt>
      <trkpt lat="44.72258" lon="5.11928">
        <ele>374.4</ele>
        <time>1970-01-01T00:15:51.000Z</time>
      </trkpt>
      <trkpt lat="44.72258" lon="5.11933">
        <ele>374.6</ele>
        <time>1970-01-01T00:15:52.000Z</time>
      </trkpt>
      <trkpt lat="44.72261" lon="5.11937">
        <ele>374.6</ele>
        <time>1970-01-01T00:15:53.000Z</time>
      </trkpt>
      <trkpt lat="44.72262" lon="5.11941">
        <ele>374.6</ele>
        <time>1970-01-01T00:15:54.000Z</time>
      </trkpt>
      <trkpt lat="44.72263" lon="5.11947">
        <ele>375</ele>
        <time>1970-01-01T00:15:55.000Z</time>
      </trkpt>
      <trkpt lat="44.72263" lon="5.11951">
        <ele>375.2</ele>
        <time>1970-01-01T00:15:56.000Z</time>
      </trkpt>
      <trkpt lat="44.72264" lon="5.11956">
        <ele>375.4</ele>
        <time>1970-01-01T00:15:57.000Z</time>
      </trkpt>
      <trkpt lat="44.72266" lon="5.11959">
        <ele>375.6</ele>
        <time>1970-01-01T00:15:58.000Z</time>
      </trkpt>
      <trkpt lat="44.72268" lon="5.11962">
        <ele>375.8</ele>
        <time>1970-01-01T00:15:59.000Z</time>
      </trkpt>
      <trkpt lat="44.7227" lon="5.11967">
        <ele>375.8</ele>
        <time>1970-01-01T00:16:00.000Z</time>
      </trkpt>
      <trkpt lat="44.72272" lon="5.11971">
        <ele>376.2</ele>
        <time>1970-01-01T00:16:01.000Z</time>
      </trkpt>
      <trkpt lat="44.72272" lon="5.11974">
        <ele>376.4</ele>
        <time>1970-01-01T00:16:02.000Z</time>
      </trkpt>
      <trkpt lat="44.72274" lon="5.11977">
        <ele>376.4</ele>
        <time>1970-01-01T00:16:03.000Z</time>
      </trkpt>
      <trkpt lat="44.72275" lon="5.11982">
        <ele>376.6</ele>
        <time>1970-01-01T00:16:04.000Z</time>
      </trkpt>
      <trkpt lat="44.72274" lon="5.11986">
        <ele>376.8</ele>
        <time>1970-01-01T00:16:05.000Z</time>
      </trkpt>
      <trkpt lat="44.72273" lon="5.11991">
        <ele>376.8</ele>
        <time>1970-01-01T00:16:06.000Z</time>
      </trkpt>
      <trkpt lat="44.72271" lon="5.11995">
        <ele>376.8</ele>
        <time>1970-01-01T00:16:07.000Z</time>
      </trkpt>
      <trkpt lat="44.72269" lon="5.11999">
        <ele>377</ele>
        <time>1970-01-01T00:16:08.000Z</time>
      </trkpt>
      <trkpt lat="44.72267" lon="5.12002">
        <ele>377</ele>
        <time>1970-01-01T00:16:09.000Z</time>
      </trkpt>
      <trkpt lat="44.72265" lon="5.12005">
        <ele>376.8</ele>
        <time>1970-01-01T00:16:10.000Z</time>
      </trkpt>
      <trkpt lat="44.72263" lon="5.12008">
        <ele>377</ele>
        <time>1970-01-01T00:16:11.000Z</time>
      </trkpt>
      <trkpt lat="44.72261" lon="5.1201">
        <ele>377</ele>
        <time>1970-01-01T00:16:12.000Z</time>
      </trkpt>
      <trkpt lat="44.72259" lon="5.12012">
        <ele>377</ele>
        <time>1970-01-01T00:16:13.000Z</time>
      </trkpt>
      <trkpt lat="44.72256" lon="5.12015">
        <ele>377</ele>
        <time>1970-01-01T00:16:14.000Z</time>
      </trkpt>
      <trkpt lat="44.72254" lon="5.12018">
        <ele>377</ele>
        <time>1970-01-01T00:16:15.000Z</time>
      </trkpt>
      <trkpt lat="44.72252" lon="5.12019">
        <ele>377.6</ele>
        <time>1970-01-01T00:16:16.000Z</time>
      </trkpt>
      <trkpt lat="44.7225" lon="5.12022">
        <ele>378.2</ele>
        <time>1970-01-01T00:16:17.000Z</time>
      </trkpt>
      <trkpt lat="44.72249" lon="5.12024">
        <ele>378.4</ele>
        <time>1970-01-01T00:16:18.000Z</time>
      </trkpt>
      <trkpt lat="44.72247" lon="5.12025">
        <ele>378.6</ele>
        <time>1970-01-01T00:16:19.000Z</time>
      </trkpt>
      <trkpt lat="44.72246" lon="5.12027">
        <ele>378.8</ele>
        <time>1970-01-01T00:16:20.000Z</time>
      </trkpt>
      <trkpt lat="44.72244" lon="5.1203">
        <ele>379</ele>
        <time>1970-01-01T00:16:21.000Z</time>
      </trkpt>
      <trkpt lat="44.72242" lon="5.12033">
        <ele>379.4</ele>
        <time>1970-01-01T00:16:22.000Z</time>
      </trkpt>
      <trkpt lat="44.7224" lon="5.12036">
        <ele>379.8</ele>
        <time>1970-01-01T00:16:23.000Z</time>
      </trkpt>
      <trkpt lat="44.72239" lon="5.1204">
        <ele>380.2</ele>
        <time>1970-01-01T00:16:24.000Z</time>
      </trkpt>
      <trkpt lat="44.72237" lon="5.12044">
        <ele>380.6</ele>
        <time>1970-01-01T00:16:25.000Z</time>
      </trkpt>
      <trkpt lat="44.72235" lon="5.12048">
        <ele>380.8</ele>
        <time>1970-01-01T00:16:26.000Z</time>
      </trkpt>
      <trkpt lat="44.72233" lon="5.12052">
        <ele>381</ele>
        <time>1970-01-01T00:16:27.000Z</time>
      </trkpt>
      <trkpt lat="44.7223" lon="5.12057">
        <ele>381.2</ele>
        <time>1970-01-01T00:16:28.000Z</time>
      </trkpt>
      <trkpt lat="44.72226" lon="5.12062">
        <ele>381.4</ele>
        <time>1970-01-01T00:16:29.000Z</time>
      </trkpt>
      <trkpt lat="44.72223" lon="5.12067">
        <ele>381.4</ele>
        <time>1970-01-01T00:16:30.000Z</time>
      </trkpt>
      <trkpt lat="44.72221" lon="5.1207">
        <ele>381.4</ele>
        <time>1970-01-01T00:16:31.000Z</time>
      </trkpt>
      <trkpt lat="44.72219" lon="5.12073">
        <ele>381.6</ele>
        <time>1970-01-01T00:16:32.000Z</time>
      </trkpt>
      <trkpt lat="44.72218" lon="5.12077">
        <ele>381.8</ele>
        <time>1970-01-01T00:16:33.000Z</time>
      </trkpt>
      <trkpt lat="44.72216" lon="5.1208">
        <ele>381.8</ele>
        <time>1970-01-01T00:16:34.000Z</time>
      </trkpt>
      <trkpt lat="44.72215" lon="5.12083">
        <ele>382</ele>
        <time>1970-01-01T00:16:35.000Z</time>
      </trkpt>
      <trkpt lat="44.72214" lon="5.12086">
        <ele>382.2</ele>
        <time>1970-01-01T00:16:36.000Z</time>
      </trkpt>
      <trkpt lat="44.72212" lon="5.12089">
        <ele>382.4</ele>
        <time>1970-01-01T00:16:37.000Z</time>
      </trkpt>
      <trkpt lat="44.7221" lon="5.12094">
        <ele>382.6</ele>
        <time>1970-01-01T00:16:38.000Z</time>
      </trkpt>
      <trkpt lat="44.7221" lon="5.12099">
        <ele>382.8</ele>
        <time>1970-01-01T00:16:39.000Z</time>
      </trkpt>
      <trkpt lat="44.7221" lon="5.12103">
        <ele>383</ele>
        <time>1970-01-01T00:16:40.000Z</time>
      </trkpt>
      <trkpt lat="44.7221" lon="5.12108">
        <ele>383.2</ele>
        <time>1970-01-01T00:16:41.000Z</time>
      </trkpt>
      <trkpt lat="44.72211" lon="5.12113">
        <ele>383.2</ele>
        <time>1970-01-01T00:16:42.000Z</time>
      </trkpt>
      <trkpt lat="44.72212" lon="5.12117">
        <ele>383.4</ele>
        <time>1970-01-01T00:16:43.000Z</time>
      </trkpt>
      <trkpt lat="44.72212" lon="5.12121">
        <ele>383.6</ele>
        <time>1970-01-01T00:16:44.000Z</time>
      </trkpt>
      <trkpt lat="44.72212" lon="5.12126">
        <ele>383.6</ele>
        <time>1970-01-01T00:16:45.000Z</time>
      </trkpt>
      <trkpt lat="44.72212" lon="5.12132">
        <ele>383.8</ele>
        <time>1970-01-01T00:16:46.000Z</time>
      </trkpt>
      <trkpt lat="44.72213" lon="5.12134">
        <ele>383.8</ele>
        <time>1970-01-01T00:16:47.000Z</time>
      </trkpt>
      <trkpt lat="44.72215" lon="5.12139">
        <ele>384</ele>
        <time>1970-01-01T00:16:48.000Z</time>
      </trkpt>
      <trkpt lat="44.72217" lon="5.12143">
        <ele>384</ele>
        <time>1970-01-01T00:16:49.000Z</time>
      </trkpt>
      <trkpt lat="44.72219" lon="5.12148">
        <ele>384.2</ele>
        <time>1970-01-01T00:16:50.000Z</time>
      </trkpt>
      <trkpt lat="44.72221" lon="5.12153">
        <ele>384.4</ele>
        <time>1970-01-01T00:16:51.000Z</time>
      </trkpt>
      <trkpt lat="44.72222" lon="5.12157">
        <ele>384.6</ele>
        <time>1970-01-01T00:16:52.000Z</time>
      </trkpt>
      <trkpt lat="44.72224" lon="5.1216">
        <ele>384.8</ele>
        <time>1970-01-01T00:16:53.000Z</time>
      </trkpt>
      <trkpt lat="44.72227" lon="5.12164">
        <ele>384.8</ele>
        <time>1970-01-01T00:16:54.000Z</time>
      </trkpt>
      <trkpt lat="44.72229" lon="5.12166">
        <ele>385</ele>
        <time>1970-01-01T00:16:55.000Z</time>
      </trkpt>
      <trkpt lat="44.72232" lon="5.12168">
        <ele>385</ele>
        <time>1970-01-01T00:16:56.000Z</time>
      </trkpt>
      <trkpt lat="44.72235" lon="5.12169">
        <ele>385.2</ele>
        <time>1970-01-01T00:16:57.000Z</time>
      </trkpt>
      <trkpt lat="44.72238" lon="5.12171">
        <ele>385.6</ele>
        <time>1970-01-01T00:16:58.000Z</time>
      </trkpt>
      <trkpt lat="44.7224" lon="5.12173">
        <ele>385.8</ele>
        <time>1970-01-01T00:16:59.000Z</time>
      </trkpt>
      <trkpt lat="44.72243" lon="5.12175">
        <ele>386</ele>
        <time>1970-01-01T00:17:00.000Z</time>
      </trkpt>
      <trkpt lat="44.72245" lon="5.12177">
        <ele>386.2</ele>
        <time>1970-01-01T00:17:01.000Z</time>
      </trkpt>
      <trkpt lat="44.72247" lon="5.1218">
        <ele>386.2</ele>
        <time>1970-01-01T00:17:02.000Z</time>
      </trkpt>
      <trkpt lat="44.72249" lon="5.12183">
        <ele>386.4</ele>
        <time>1970-01-01T00:17:03.000Z</time>
      </trkpt>
      <trkpt lat="44.72251" lon="5.12186">
        <ele>386.4</ele>
        <time>1970-01-01T00:17:04.000Z</time>
      </trkpt>
      <trkpt lat="44.72253" lon="5.1219">
        <ele>386.6</ele>
        <time>1970-01-01T00:17:05.000Z</time>
      </trkpt>
      <trkpt lat="44.72255" lon="5.12193">
        <ele>386.8</ele>
        <time>1970-01-01T00:17:06.000Z</time>
      </trkpt>
      <trkpt lat="44.72257" lon="5.12197">
        <ele>387.2</ele>
        <time>1970-01-01T00:17:07.000Z</time>
      </trkpt>
      <trkpt lat="44.72259" lon="5.12199">
        <ele>387.4</ele>
        <time>1970-01-01T00:17:08.000Z</time>
      </trkpt>
      <trkpt lat="44.72261" lon="5.12202">
        <ele>387.8</ele>
        <time>1970-01-01T00:17:09.000Z</time>
      </trkpt>
      <trkpt lat="44.72263" lon="5.12205">
        <ele>388.2</ele>
        <time>1970-01-01T00:17:10.000Z</time>
      </trkpt>
      <trkpt lat="44.72265" lon="5.12207">
        <ele>388.4</ele>
        <time>1970-01-01T00:17:11.000Z</time>
      </trkpt>
      <trkpt lat="44.72266" lon="5.12208">
        <ele>388.8</ele>
        <time>1970-01-01T00:17:12.000Z</time>
      </trkpt>
      <trkpt lat="44.72269" lon="5.1221">
        <ele>389.2</ele>
        <time>1970-01-01T00:17:13.000Z</time>
      </trkpt>
      <trkpt lat="44.72272" lon="5.12211">
        <ele>389.6</ele>
        <time>1970-01-01T00:17:14.000Z</time>
      </trkpt>
      <trkpt lat="44.72274" lon="5.12213">
        <ele>390</ele>
        <time>1970-01-01T00:17:15.000Z</time>
      </trkpt>
      <trkpt lat="44.72277" lon="5.12216">
        <ele>390.2</ele>
        <time>1970-01-01T00:17:16.000Z</time>
      </trkpt>
      <trkpt lat="44.72279" lon="5.12218">
        <ele>390.6</ele>
        <time>1970-01-01T00:17:17.000Z</time>
      </trkpt>
      <trkpt lat="44.72281" lon="5.1222">
        <ele>390.8</ele>
        <time>1970-01-01T00:17:18.000Z</time>
      </trkpt>
      <trkpt lat="44.72283" lon="5.12222">
        <ele>391</ele>
        <time>1970-01-01T00:17:19.000Z</time>
      </trkpt>
      <trkpt lat="44.72285" lon="5.12224">
        <ele>391.6</ele>
        <time>1970-01-01T00:17:20.000Z</time>
      </trkpt>
      <trkpt lat="44.72288" lon="5.12226">
        <ele>391.8</ele>
        <time>1970-01-01T00:17:21.000Z</time>
      </trkpt>
      <trkpt lat="44.7229" lon="5.12228">
        <ele>392.4</ele>
        <time>1970-01-01T00:17:22.000Z</time>
      </trkpt>
      <trkpt lat="44.72292" lon="5.1223">
        <ele>392.8</ele>
        <time>1970-01-01T00:17:23.000Z</time>
      </trkpt>
      <trkpt lat="44.72294" lon="5.12232">
        <ele>393.2</ele>
        <time>1970-01-01T00:17:24.000Z</time>
      </trkpt>
      <trkpt lat="44.72295" lon="5.12235">
        <ele>393.8</ele>
        <time>1970-01-01T00:17:25.000Z</time>
      </trkpt>
      <trkpt lat="44.72297" lon="5.12238">
        <ele>394</ele>
        <time>1970-01-01T00:17:26.000Z</time>
      </trkpt>
      <trkpt lat="44.72298" lon="5.1224">
        <ele>394.4</ele>
        <time>1970-01-01T00:17:27.000Z</time>
      </trkpt>
      <trkpt lat="44.723" lon="5.12242">
        <ele>394.6</ele>
        <time>1970-01-01T00:17:28.000Z</time>
      </trkpt>
      <trkpt lat="44.72302" lon="5.12245">
        <ele>395</ele>
        <time>1970-01-01T00:17:29.000Z</time>
      </trkpt>
      <trkpt lat="44.72303" lon="5.12248">
        <ele>395.2</ele>
        <time>1970-01-01T00:17:30.000Z</time>
      </trkpt>
      <trkpt lat="44.72305" lon="5.1225">
        <ele>395.4</ele>
        <time>1970-01-01T00:17:31.000Z</time>
      </trkpt>
      <trkpt lat="44.72307" lon="5.12252">
        <ele>395.6</ele>
        <time>1970-01-01T00:17:32.000Z</time>
      </trkpt>
      <trkpt lat="44.72309" lon="5.12253">
        <ele>395.6</ele>
        <time>1970-01-01T00:17:33.000Z</time>
      </trkpt>
      <trkpt lat="44.7231" lon="5.12255">
        <ele>395.8</ele>
        <time>1970-01-01T00:17:34.000Z</time>
      </trkpt>
      <trkpt lat="44.72312" lon="5.12256">
        <ele>396.4</ele>
        <time>1970-01-01T00:17:35.000Z</time>
      </trkpt>
      <trkpt lat="44.72314" lon="5.12257">
        <ele>396.6</ele>
        <time>1970-01-01T00:17:36.000Z</time>
      </trkpt>
      <trkpt lat="44.72315" lon="5.12259">
        <ele>396.8</ele>
        <time>1970-01-01T00:17:37.000Z</time>
      </trkpt>
      <trkpt lat="44.72316" lon="5.12261">
        <ele>397</ele>
        <time>1970-01-01T00:17:38.000Z</time>
      </trkpt>
      <trkpt lat="44.72318" lon="5.12263">
        <ele>397.2</ele>
        <time>1970-01-01T00:17:39.000Z</time>
      </trkpt>
      <trkpt lat="44.72319" lon="5.12265">
        <ele>397.6</ele>
        <time>1970-01-01T00:17:40.000Z</time>
      </trkpt>
      <trkpt lat="44.72321" lon="5.12268">
        <ele>397.8</ele>
        <time>1970-01-01T00:17:41.000Z</time>
      </trkpt>
      <trkpt lat="44.72322" lon="5.1227">
        <ele>398</ele>
        <time>1970-01-01T00:17:42.000Z</time>
      </trkpt>
      <trkpt lat="44.72324" lon="5.12272">
        <ele>398.2</ele>
        <time>1970-01-01T00:17:43.000Z</time>
      </trkpt>
      <trkpt lat="44.72325" lon="5.12274">
        <ele>398.4</ele>
        <time>1970-01-01T00:17:44.000Z</time>
      </trkpt>
      <trkpt lat="44.72327" lon="5.12276">
        <ele>398.8</ele>
        <time>1970-01-01T00:17:45.000Z</time>
      </trkpt>
      <trkpt lat="44.72329" lon="5.12278">
        <ele>399.2</ele>
        <time>1970-01-01T00:17:46.000Z</time>
      </trkpt>
      <trkpt lat="44.72331" lon="5.12279">
        <ele>399.4</ele>
        <time>1970-01-01T00:17:47.000Z</time>
      </trkpt>
      <trkpt lat="44.72332" lon="5.12281">
        <ele>399.6</ele>
        <time>1970-01-01T00:17:48.000Z</time>
      </trkpt>
      <trkpt lat="44.72334" lon="5.12283">
        <ele>399.8</ele>
        <time>1970-01-01T00:17:49.000Z</time>
      </trkpt>
      <trkpt lat="44.72337" lon="5.12285">
        <ele>400</ele>
        <time>1970-01-01T00:17:50.000Z</time>
      </trkpt>
      <trkpt lat="44.72339" lon="5.12287">
        <ele>400</ele>
        <time>1970-01-01T00:17:51.000Z</time>
      </trkpt>
      <trkpt lat="44.72341" lon="5.12288">
        <ele>400.6</ele>
        <time>1970-01-01T00:17:52.000Z</time>
      </trkpt>
      <trkpt lat="44.72342" lon="5.1229">
        <ele>400.8</ele>
        <time>1970-01-01T00:17:53.000Z</time>
      </trkpt>
      <trkpt lat="44.72343" lon="5.12292">
        <ele>401</ele>
        <time>1970-01-01T00:17:54.000Z</time>
      </trkpt>
      <trkpt lat="44.72344" lon="5.12293">
        <ele>401.4</ele>
        <time>1970-01-01T00:17:55.000Z</time>
      </trkpt>
      <trkpt lat="44.72346" lon="5.12294">
        <ele>401.6</ele>
        <time>1970-01-01T00:17:56.000Z</time>
      </trkpt>
      <trkpt lat="44.72348" lon="5.12295">
        <ele>401.8</ele>
        <time>1970-01-01T00:17:57.000Z</time>
      </trkpt>
      <trkpt lat="44.72349" lon="5.12296">
        <ele>402</ele>
        <time>1970-01-01T00:17:58.000Z</time>
      </trkpt>
      <trkpt lat="44.72351" lon="5.12297">
        <ele>402</ele>
        <time>1970-01-01T00:17:59.000Z</time>
      </trkpt>
      <trkpt lat="44.72353" lon="5.12298">
        <ele>402.4</ele>
        <time>1970-01-01T00:18:00.000Z</time>
      </trkpt>
      <trkpt lat="44.72355" lon="5.12298">
        <ele>402.6</ele>
        <time>1970-01-01T00:18:01.000Z</time>
      </trkpt>
      <trkpt lat="44.72357" lon="5.12299">
        <ele>402.8</ele>
        <time>1970-01-01T00:18:02.000Z</time>
      </trkpt>
      <trkpt lat="44.72359" lon="5.12299">
        <ele>403.2</ele>
        <time>1970-01-01T00:18:03.000Z</time>
      </trkpt>
      <trkpt lat="44.72362" lon="5.123">
        <ele>403.4</ele>
        <time>1970-01-01T00:18:04.000Z</time>
      </trkpt>
      <trkpt lat="44.72364" lon="5.123">
        <ele>403.6</ele>
        <time>1970-01-01T00:18:05.000Z</time>
      </trkpt>
      <trkpt lat="44.72366" lon="5.12301">
        <ele>403.8</ele>
        <time>1970-01-01T00:18:06.000Z</time>
      </trkpt>
      <trkpt lat="44.72367" lon="5.12302">
        <ele>404</ele>
        <time>1970-01-01T00:18:07.000Z</time>
      </trkpt>
      <trkpt lat="44.72369" lon="5.12302">
        <ele>404.2</ele>
        <time>1970-01-01T00:18:08.000Z</time>
      </trkpt>
      <trkpt lat="44.72371" lon="5.12304">
        <ele>404.2</ele>
        <time>1970-01-01T00:18:09.000Z</time>
      </trkpt>
      <trkpt lat="44.72373" lon="5.12305">
        <ele>404.6</ele>
        <time>1970-01-01T00:18:10.000Z</time>
      </trkpt>
      <trkpt lat="44.72375" lon="5.12307">
        <ele>404.8</ele>
        <time>1970-01-01T00:18:11.000Z</time>
      </trkpt>
      <trkpt lat="44.72377" lon="5.12309">
        <ele>404.8</ele>
        <time>1970-01-01T00:18:12.000Z</time>
      </trkpt>
      <trkpt lat="44.72378" lon="5.12311">
        <ele>405</ele>
        <time>1970-01-01T00:18:13.000Z</time>
      </trkpt>
      <trkpt lat="44.72381" lon="5.12313">
        <ele>405.2</ele>
        <time>1970-01-01T00:18:14.000Z</time>
      </trkpt>
      <trkpt lat="44.72383" lon="5.12315">
        <ele>405.4</ele>
        <time>1970-01-01T00:18:15.000Z</time>
      </trkpt>
      <trkpt lat="44.72385" lon="5.12317">
        <ele>405.6</ele>
        <time>1970-01-01T00:18:16.000Z</time>
      </trkpt>
      <trkpt lat="44.72387" lon="5.12319">
        <ele>405.8</ele>
        <time>1970-01-01T00:18:17.000Z</time>
      </trkpt>
      <trkpt lat="44.7239" lon="5.12322">
        <ele>405.8</ele>
        <time>1970-01-01T00:18:18.000Z</time>
      </trkpt>
      <trkpt lat="44.72392" lon="5.12325">
        <ele>406</ele>
        <time>1970-01-01T00:18:19.000Z</time>
      </trkpt>
      <trkpt lat="44.72393" lon="5.12328">
        <ele>406.4</ele>
        <time>1970-01-01T00:18:20.000Z</time>
      </trkpt>
      <trkpt lat="44.72394" lon="5.1233">
        <ele>406.6</ele>
        <time>1970-01-01T00:18:21.000Z</time>
      </trkpt>
      <trkpt lat="44.72395" lon="5.12334">
        <ele>407.2</ele>
        <time>1970-01-01T00:18:22.000Z</time>
      </trkpt>
      <trkpt lat="44.72397" lon="5.12337">
        <ele>407.4</ele>
        <time>1970-01-01T00:18:23.000Z</time>
      </trkpt>
      <trkpt lat="44.72399" lon="5.1234">
        <ele>407.6</ele>
        <time>1970-01-01T00:18:24.000Z</time>
      </trkpt>
      <trkpt lat="44.72402" lon="5.12343">
        <ele>407.8</ele>
        <time>1970-01-01T00:18:25.000Z</time>
      </trkpt>
      <trkpt lat="44.72404" lon="5.12346">
        <ele>407.8</ele>
        <time>1970-01-01T00:18:26.000Z</time>
      </trkpt>
      <trkpt lat="44.72406" lon="5.12348">
        <ele>408.2</ele>
        <time>1970-01-01T00:18:27.000Z</time>
      </trkpt>
      <trkpt lat="44.72408" lon="5.12351">
        <ele>408.6</ele>
        <time>1970-01-01T00:18:28.000Z</time>
      </trkpt>
      <trkpt lat="44.72411" lon="5.12353">
        <ele>409</ele>
        <time>1970-01-01T00:18:29.000Z</time>
      </trkpt>
      <trkpt lat="44.72413" lon="5.12356">
        <ele>409.2</ele>
        <time>1970-01-01T00:18:30.000Z</time>
      </trkpt>
      <trkpt lat="44.72415" lon="5.12358">
        <ele>409.4</ele>
        <time>1970-01-01T00:18:31.000Z</time>
      </trkpt>
      <trkpt lat="44.72416" lon="5.1236">
        <ele>409.8</ele>
        <time>1970-01-01T00:18:32.000Z</time>
      </trkpt>
      <trkpt lat="44.72418" lon="5.12362">
        <ele>410</ele>
        <time>1970-01-01T00:18:33.000Z</time>
      </trkpt>
      <trkpt lat="44.72419" lon="5.12364">
        <ele>410.2</ele>
        <time>1970-01-01T00:18:34.000Z</time>
      </trkpt>
      <trkpt lat="44.72421" lon="5.12367">
        <ele>410.4</ele>
        <time>1970-01-01T00:18:35.000Z</time>
      </trkpt>
      <trkpt lat="44.72421" lon="5.12369">
        <ele>410.8</ele>
        <time>1970-01-01T00:18:36.000Z</time>
      </trkpt>
      <trkpt lat="44.72422" lon="5.12372">
        <ele>411</ele>
        <time>1970-01-01T00:18:37.000Z</time>
      </trkpt>
      <trkpt lat="44.72423" lon="5.12374">
        <ele>411.2</ele>
        <time>1970-01-01T00:18:38.000Z</time>
      </trkpt>
      <trkpt lat="44.72425" lon="5.12376">
        <ele>411.4</ele>
        <time>1970-01-01T00:18:39.000Z</time>
      </trkpt>
      <trkpt lat="44.72428" lon="5.12378">
        <ele>411.6</ele>
        <time>1970-01-01T00:18:40.000Z</time>
      </trkpt>
      <trkpt lat="44.72429" lon="5.12381">
        <ele>411.6</ele>
        <time>1970-01-01T00:18:41.000Z</time>
      </trkpt>
      <trkpt lat="44.7243" lon="5.12385">
        <ele>411.8</ele>
        <time>1970-01-01T00:18:42.000Z</time>
      </trkpt>
      <trkpt lat="44.72433" lon="5.12389">
        <ele>412</ele>
        <time>1970-01-01T00:18:43.000Z</time>
      </trkpt>
      <trkpt lat="44.72435" lon="5.12392">
        <ele>412.4</ele>
        <time>1970-01-01T00:18:44.000Z</time>
      </trkpt>
      <trkpt lat="44.72436" lon="5.12395">
        <ele>412.4</ele>
        <time>1970-01-01T00:18:45.000Z</time>
      </trkpt>
      <trkpt lat="44.72437" lon="5.12399">
        <ele>412.8</ele>
        <time>1970-01-01T00:18:46.000Z</time>
      </trkpt>
      <trkpt lat="44.72437" lon="5.12402">
        <ele>413.2</ele>
        <time>1970-01-01T00:18:47.000Z</time>
      </trkpt>
      <trkpt lat="44.72438" lon="5.12405">
        <ele>413.4</ele>
        <time>1970-01-01T00:18:48.000Z</time>
      </trkpt>
      <trkpt lat="44.72439" lon="5.12408">
        <ele>413.8</ele>
        <time>1970-01-01T00:18:49.000Z</time>
      </trkpt>
      <trkpt lat="44.7244" lon="5.12411">
        <ele>414.2</ele>
        <time>1970-01-01T00:18:50.000Z</time>
      </trkpt>
      <trkpt lat="44.72441" lon="5.12414">
        <ele>414.4</ele>
        <time>1970-01-01T00:18:51.000Z</time>
      </trkpt>
      <trkpt lat="44.72442" lon="5.12417">
        <ele>414.8</ele>
        <time>1970-01-01T00:18:52.000Z</time>
      </trkpt>
      <trkpt lat="44.72443" lon="5.12421">
        <ele>415</ele>
        <time>1970-01-01T00:18:53.000Z</time>
      </trkpt>
      <trkpt lat="44.72443" lon="5.12425">
        <ele>415.2</ele>
        <time>1970-01-01T00:18:54.000Z</time>
      </trkpt>
      <trkpt lat="44.72446" lon="5.12428">
        <ele>415.6</ele>
        <time>1970-01-01T00:18:55.000Z</time>
      </trkpt>
      <trkpt lat="44.72447" lon="5.12431">
        <ele>416</ele>
        <time>1970-01-01T00:18:56.000Z</time>
      </trkpt>
      <trkpt lat="44.72447" lon="5.12436">
        <ele>416.4</ele>
        <time>1970-01-01T00:18:57.000Z</time>
      </trkpt>
      <trkpt lat="44.72448" lon="5.12439">
        <ele>416.6</ele>
        <time>1970-01-01T00:18:58.000Z</time>
      </trkpt>
      <trkpt lat="44.72449" lon="5.12443">
        <ele>416.8</ele>
        <time>1970-01-01T00:18:59.000Z</time>
      </trkpt>
      <trkpt lat="44.7245" lon="5.12447">
        <ele>416.8</ele>
        <time>1970-01-01T00:19:00.000Z</time>
      </trkpt>
      <trkpt lat="44.7245" lon="5.12451">
        <ele>416.8</ele>
        <time>1970-01-01T00:19:01.000Z</time>
      </trkpt>
      <trkpt lat="44.72452" lon="5.12455">
        <ele>416.6</ele>
        <time>1970-01-01T00:19:02.000Z</time>
      </trkpt>
      <trkpt lat="44.72452" lon="5.12462">
        <ele>416.6</ele>
        <time>1970-01-01T00:19:03.000Z</time>
      </trkpt>
      <trkpt lat="44.72453" lon="5.12468">
        <ele>416.4</ele>
        <time>1970-01-01T00:19:04.000Z</time>
      </trkpt>
      <trkpt lat="44.72454" lon="5.12472">
        <ele>416.2</ele>
        <time>1970-01-01T00:19:05.000Z</time>
      </trkpt>
      <trkpt lat="44.72455" lon="5.12478">
        <ele>416</ele>
        <time>1970-01-01T00:19:06.000Z</time>
      </trkpt>
      <trkpt lat="44.72457" lon="5.12483">
        <ele>416</ele>
        <time>1970-01-01T00:19:07.000Z</time>
      </trkpt>
      <trkpt lat="44.7246" lon="5.12488">
        <ele>415.8</ele>
        <time>1970-01-01T00:19:08.000Z</time>
      </trkpt>
      <trkpt lat="44.72463" lon="5.12493">
        <ele>415.8</ele>
        <time>1970-01-01T00:19:09.000Z</time>
      </trkpt>
      <trkpt lat="44.72465" lon="5.12497">
        <ele>415.6</ele>
        <time>1970-01-01T00:19:10.000Z</time>
      </trkpt>
      <trkpt lat="44.72467" lon="5.12502">
        <ele>415.6</ele>
        <time>1970-01-01T00:19:11.000Z</time>
      </trkpt>
      <trkpt lat="44.7247" lon="5.12506">
        <ele>415.6</ele>
        <time>1970-01-01T00:19:12.000Z</time>
      </trkpt>
      <trkpt lat="44.72473" lon="5.1251">
        <ele>415.6</ele>
        <time>1970-01-01T00:19:13.000Z</time>
      </trkpt>
      <trkpt lat="44.72474" lon="5.12514">
        <ele>415.8</ele>
        <time>1970-01-01T00:19:14.000Z</time>
      </trkpt>
      <trkpt lat="44.72479" lon="5.12521">
        <ele>416</ele>
        <time>1970-01-01T00:19:16.000Z</time>
      </trkpt>
      <trkpt lat="44.72489" lon="5.12543">
        <ele>416.4</ele>
        <time>1970-01-01T00:19:21.000Z</time>
      </trkpt>
      <trkpt lat="44.72491" lon="5.12548">
        <ele>416.4</ele>
        <time>1970-01-01T00:19:22.000Z</time>
      </trkpt>
      <trkpt lat="44.72496" lon="5.12557">
        <ele>416.2</ele>
        <time>1970-01-01T00:19:24.000Z</time>
      </trkpt>
      <trkpt lat="44.72499" lon="5.12567">
        <ele>415.8</ele>
        <time>1970-01-01T00:19:26.000Z</time>
      </trkpt>
      <trkpt lat="44.72503" lon="5.12578">
        <ele>415</ele>
        <time>1970-01-01T00:19:28.000Z</time>
      </trkpt>
      <trkpt lat="44.72505" lon="5.12583">
        <ele>414.6</ele>
        <time>1970-01-01T00:19:29.000Z</time>
      </trkpt>
      <trkpt lat="44.72507" lon="5.12589">
        <ele>414</ele>
        <time>1970-01-01T00:19:30.000Z</time>
      </trkpt>
      <trkpt lat="44.72508" lon="5.12597">
        <ele>413.8</ele>
        <time>1970-01-01T00:19:31.000Z</time>
      </trkpt>
      <trkpt lat="44.72512" lon="5.12614">
        <ele>412.8</ele>
        <time>1970-01-01T00:19:33.000Z</time>
      </trkpt>
      <trkpt lat="44.72515" lon="5.12623">
        <ele>412</ele>
        <time>1970-01-01T00:19:34.000Z</time>
      </trkpt>
      <trkpt lat="44.72517" lon="5.12631">
        <ele>411</ele>
        <time>1970-01-01T00:19:35.000Z</time>
      </trkpt>
      <trkpt lat="44.7252" lon="5.12639">
        <ele>410.6</ele>
        <time>1970-01-01T00:19:36.000Z</time>
      </trkpt>
      <trkpt lat="44.72522" lon="5.12648">
        <ele>410.2</ele>
        <time>1970-01-01T00:19:37.000Z</time>
      </trkpt>
      <trkpt lat="44.72524" lon="5.12655">
        <ele>410</ele>
        <time>1970-01-01T00:19:38.000Z</time>
      </trkpt>
      <trkpt lat="44.72525" lon="5.12662">
        <ele>410</ele>
        <time>1970-01-01T00:19:39.000Z</time>
      </trkpt>
      <trkpt lat="44.72525" lon="5.12668">
        <ele>410</ele>
        <time>1970-01-01T00:19:40.000Z</time>
      </trkpt>
      <trkpt lat="44.72526" lon="5.12673">
        <ele>410</ele>
        <time>1970-01-01T00:19:41.000Z</time>
      </trkpt>
      <trkpt lat="44.72528" lon="5.12679">
        <ele>410</ele>
        <time>1970-01-01T00:19:42.000Z</time>
      </trkpt>
      <trkpt lat="44.7253" lon="5.12683">
        <ele>410.2</ele>
        <time>1970-01-01T00:19:43.000Z</time>
      </trkpt>
      <trkpt lat="44.72533" lon="5.12687">
        <ele>410.4</ele>
        <time>1970-01-01T00:19:44.000Z</time>
      </trkpt>
      <trkpt lat="44.72537" lon="5.1269">
        <ele>410.8</ele>
        <time>1970-01-01T00:19:45.000Z</time>
      </trkpt>
      <trkpt lat="44.7254" lon="5.12695">
        <ele>411</ele>
        <time>1970-01-01T00:19:46.000Z</time>
      </trkpt>
      <trkpt lat="44.72542" lon="5.12699">
        <ele>411.2</ele>
        <time>1970-01-01T00:19:47.000Z</time>
      </trkpt>
      <trkpt lat="44.72546" lon="5.12708">
        <ele>411.8</ele>
        <time>1970-01-01T00:19:49.000Z</time>
      </trkpt>
      <trkpt lat="44.72547" lon="5.12713">
        <ele>412</ele>
        <time>1970-01-01T00:19:50.000Z</time>
      </trkpt>
      <trkpt lat="44.72554" lon="5.12727">
        <ele>412.6</ele>
        <time>1970-01-01T00:19:53.000Z</time>
      </trkpt>
      <trkpt lat="44.72557" lon="5.12733">
        <ele>412.8</ele>
        <time>1970-01-01T00:19:54.000Z</time>
      </trkpt>
      <trkpt lat="44.72559" lon="5.12739">
        <ele>413</ele>
        <time>1970-01-01T00:19:55.000Z</time>
      </trkpt>
      <trkpt lat="44.72561" lon="5.12744">
        <ele>413.2</ele>
        <time>1970-01-01T00:19:56.000Z</time>
      </trkpt>
      <trkpt lat="44.72563" lon="5.12749">
        <ele>413.4</ele>
        <time>1970-01-01T00:19:57.000Z</time>
      </trkpt>
      <trkpt lat="44.72567" lon="5.1276">
        <ele>413.4</ele>
        <time>1970-01-01T00:19:59.000Z</time>
      </trkpt>
      <trkpt lat="44.72571" lon="5.12765">
        <ele>413.4</ele>
        <time>1970-01-01T00:20:00.000Z</time>
      </trkpt>
      <trkpt lat="44.72574" lon="5.12769">
        <ele>413.4</ele>
        <time>1970-01-01T00:20:01.000Z</time>
      </trkpt>
      <trkpt lat="44.72577" lon="5.1278">
        <ele>413.6</ele>
        <time>1970-01-01T00:20:03.000Z</time>
      </trkpt>
      <trkpt lat="44.72578" lon="5.12785">
        <ele>413.6</ele>
        <time>1970-01-01T00:20:04.000Z</time>
      </trkpt>
      <trkpt lat="44.72579" lon="5.1279">
        <ele>413.6</ele>
        <time>1970-01-01T00:20:05.000Z</time>
      </trkpt>
      <trkpt lat="44.72583" lon="5.12806">
        <ele>414</ele>
        <time>1970-01-01T00:20:08.000Z</time>
      </trkpt>
      <trkpt lat="44.72583" lon="5.12812">
        <ele>414</ele>
        <time>1970-01-01T00:20:09.000Z</time>
      </trkpt>
      <trkpt lat="44.72583" lon="5.12818">
        <ele>414</ele>
        <time>1970-01-01T00:20:10.000Z</time>
      </trkpt>
      <trkpt lat="44.72584" lon="5.1283">
        <ele>414.2</ele>
        <time>1970-01-01T00:20:12.000Z</time>
      </trkpt>
      <trkpt lat="44.72586" lon="5.12834">
        <ele>414.2</ele>
        <time>1970-01-01T00:20:13.000Z</time>
      </trkpt>
      <trkpt lat="44.72587" lon="5.12839">
        <ele>414.2</ele>
        <time>1970-01-01T00:20:14.000Z</time>
      </trkpt>
      <trkpt lat="44.72589" lon="5.12845">
        <ele>414.4</ele>
        <time>1970-01-01T00:20:15.000Z</time>
      </trkpt>
      <trkpt lat="44.7259" lon="5.1285">
        <ele>415</ele>
        <time>1970-01-01T00:20:16.000Z</time>
      </trkpt>
      <trkpt lat="44.72591" lon="5.12855">
        <ele>415.2</ele>
        <time>1970-01-01T00:20:17.000Z</time>
      </trkpt>
      <trkpt lat="44.72593" lon="5.12859">
        <ele>415.6</ele>
        <time>1970-01-01T00:20:18.000Z</time>
      </trkpt>
      <trkpt lat="44.72594" lon="5.12863">
        <ele>415.8</ele>
        <time>1970-01-01T00:20:19.000Z</time>
      </trkpt>
      <trkpt lat="44.72597" lon="5.12868">
        <ele>415.8</ele>
        <time>1970-01-01T00:20:20.000Z</time>
      </trkpt>
      <trkpt lat="44.72599" lon="5.12871">
        <ele>416</ele>
        <time>1970-01-01T00:20:21.000Z</time>
      </trkpt>
      <trkpt lat="44.72602" lon="5.12875">
        <ele>416.2</ele>
        <time>1970-01-01T00:20:22.000Z</time>
      </trkpt>
      <trkpt lat="44.72606" lon="5.12878">
        <ele>416.4</ele>
        <time>1970-01-01T00:20:23.000Z</time>
      </trkpt>
      <trkpt lat="44.72609" lon="5.12884">
        <ele>417</ele>
        <time>1970-01-01T00:20:24.000Z</time>
      </trkpt>
      <trkpt lat="44.72611" lon="5.12888">
        <ele>417.2</ele>
        <time>1970-01-01T00:20:25.000Z</time>
      </trkpt>
      <trkpt lat="44.72612" lon="5.12892">
        <ele>417.6</ele>
        <time>1970-01-01T00:20:26.000Z</time>
      </trkpt>
      <trkpt lat="44.72612" lon="5.12896">
        <ele>417.6</ele>
        <time>1970-01-01T00:20:27.000Z</time>
      </trkpt>
      <trkpt lat="44.72613" lon="5.129">
        <ele>418</ele>
        <time>1970-01-01T00:20:28.000Z</time>
      </trkpt>
      <trkpt lat="44.72614" lon="5.12906">
        <ele>418.2</ele>
        <time>1970-01-01T00:20:29.000Z</time>
      </trkpt>
      <trkpt lat="44.72615" lon="5.12911">
        <ele>418.4</ele>
        <time>1970-01-01T00:20:30.000Z</time>
      </trkpt>
      <trkpt lat="44.72615" lon="5.12917">
        <ele>418.6</ele>
        <time>1970-01-01T00:20:31.000Z</time>
      </trkpt>
      <trkpt lat="44.72616" lon="5.12922">
        <ele>418.8</ele>
        <time>1970-01-01T00:20:32.000Z</time>
      </trkpt>
      <trkpt lat="44.72617" lon="5.12927">
        <ele>419.2</ele>
        <time>1970-01-01T00:20:33.000Z</time>
      </trkpt>
      <trkpt lat="44.72618" lon="5.12931">
        <ele>419.2</ele>
        <time>1970-01-01T00:20:34.000Z</time>
      </trkpt>
      <trkpt lat="44.72618" lon="5.12934">
        <ele>419.8</ele>
        <time>1970-01-01T00:20:35.000Z</time>
      </trkpt>
      <trkpt lat="44.72617" lon="5.12938">
        <ele>420</ele>
        <time>1970-01-01T00:20:36.000Z</time>
      </trkpt>
      <trkpt lat="44.72615" lon="5.12941">
        <ele>420.4</ele>
        <time>1970-01-01T00:20:37.000Z</time>
      </trkpt>
      <trkpt lat="44.72614" lon="5.12944">
        <ele>420.8</ele>
        <time>1970-01-01T00:20:38.000Z</time>
      </trkpt>
      <trkpt lat="44.72612" lon="5.12946">
        <ele>421</ele>
        <time>1970-01-01T00:20:39.000Z</time>
      </trkpt>
      <trkpt lat="44.72611" lon="5.1295">
        <ele>421.4</ele>
        <time>1970-01-01T00:20:40.000Z</time>
      </trkpt>
      <trkpt lat="44.7261" lon="5.12954">
        <ele>421.8</ele>
        <time>1970-01-01T00:20:41.000Z</time>
      </trkpt>
      <trkpt lat="44.72608" lon="5.12958">
        <ele>422</ele>
        <time>1970-01-01T00:20:42.000Z</time>
      </trkpt>
      <trkpt lat="44.72607" lon="5.12962">
        <ele>422.2</ele>
        <time>1970-01-01T00:20:43.000Z</time>
      </trkpt>
      <trkpt lat="44.72607" lon="5.12965">
        <ele>422.2</ele>
        <time>1970-01-01T00:20:44.000Z</time>
      </trkpt>
      <trkpt lat="44.72605" lon="5.12969">
        <ele>421.6</ele>
        <time>1970-01-01T00:20:45.000Z</time>
      </trkpt>
      <trkpt lat="44.72603" lon="5.12973">
        <ele>420.6</ele>
        <time>1970-01-01T00:20:46.000Z</time>
      </trkpt>
      <trkpt lat="44.72602" lon="5.12976">
        <ele>420.2</ele>
        <time>1970-01-01T00:20:47.000Z</time>
      </trkpt>
      <trkpt lat="44.72601" lon="5.12978">
        <ele>419.8</ele>
        <time>1970-01-01T00:20:48.000Z</time>
      </trkpt>
      <trkpt lat="44.72599" lon="5.12981">
        <ele>420.4</ele>
        <time>1970-01-01T00:20:49.000Z</time>
      </trkpt>
      <trkpt lat="44.72598" lon="5.12984">
        <ele>421</ele>
        <time>1970-01-01T00:20:50.000Z</time>
      </trkpt>
      <trkpt lat="44.72597" lon="5.12987">
        <ele>421.6</ele>
        <time>1970-01-01T00:20:51.000Z</time>
      </trkpt>
      <trkpt lat="44.72595" lon="5.1299">
        <ele>422</ele>
        <time>1970-01-01T00:20:52.000Z</time>
      </trkpt>
      <trkpt lat="44.72594" lon="5.12993">
        <ele>424</ele>
        <time>1970-01-01T00:20:53.000Z</time>
      </trkpt>
      <trkpt lat="44.72593" lon="5.12996">
        <ele>425.2</ele>
        <time>1970-01-01T00:20:54.000Z</time>
      </trkpt>
      <trkpt lat="44.72593" lon="5.13">
        <ele>425.8</ele>
        <time>1970-01-01T00:20:55.000Z</time>
      </trkpt>
      <trkpt lat="44.72593" lon="5.13004">
        <ele>426</ele>
        <time>1970-01-01T00:20:56.000Z</time>
      </trkpt>
      <trkpt lat="44.72592" lon="5.13007">
        <ele>426.2</ele>
        <time>1970-01-01T00:20:57.000Z</time>
      </trkpt>
      <trkpt lat="44.72592" lon="5.1301">
        <ele>426.6</ele>
        <time>1970-01-01T00:20:58.000Z</time>
      </trkpt>
      <trkpt lat="44.72591" lon="5.13014">
        <ele>426.8</ele>
        <time>1970-01-01T00:20:59.000Z</time>
      </trkpt>
      <trkpt lat="44.7259" lon="5.13018">
        <ele>426.8</ele>
        <time>1970-01-01T00:21:00.000Z</time>
      </trkpt>
      <trkpt lat="44.72588" lon="5.13022">
        <ele>427</ele>
        <time>1970-01-01T00:21:01.000Z</time>
      </trkpt>
      <trkpt lat="44.72587" lon="5.13027">
        <ele>427.2</ele>
        <time>1970-01-01T00:21:02.000Z</time>
      </trkpt>
      <trkpt lat="44.72585" lon="5.13033">
        <ele>427.2</ele>
        <time>1970-01-01T00:21:03.000Z</time>
      </trkpt>
      <trkpt lat="44.72583" lon="5.13038">
        <ele>427.2</ele>
        <time>1970-01-01T00:21:04.000Z</time>
      </trkpt>
      <trkpt lat="44.7258" lon="5.13044">
        <ele>427.4</ele>
        <time>1970-01-01T00:21:05.000Z</time>
      </trkpt>
      <trkpt lat="44.72578" lon="5.13048">
        <ele>427.4</ele>
        <time>1970-01-01T00:21:06.000Z</time>
      </trkpt>
      <trkpt lat="44.72576" lon="5.13053">
        <ele>427.6</ele>
        <time>1970-01-01T00:21:07.000Z</time>
      </trkpt>
      <trkpt lat="44.72574" lon="5.13058">
        <ele>427.8</ele>
        <time>1970-01-01T00:21:08.000Z</time>
      </trkpt>
      <trkpt lat="44.72572" lon="5.13063">
        <ele>428</ele>
        <time>1970-01-01T00:21:09.000Z</time>
      </trkpt>
      <trkpt lat="44.7257" lon="5.13067">
        <ele>428.6</ele>
        <time>1970-01-01T00:21:10.000Z</time>
      </trkpt>
      <trkpt lat="44.72569" lon="5.13071">
        <ele>429</ele>
        <time>1970-01-01T00:21:11.000Z</time>
      </trkpt>
      <trkpt lat="44.72567" lon="5.13076">
        <ele>429.2</ele>
        <time>1970-01-01T00:21:12.000Z</time>
      </trkpt>
      <trkpt lat="44.72565" lon="5.13079">
        <ele>429.2</ele>
        <time>1970-01-01T00:21:13.000Z</time>
      </trkpt>
      <trkpt lat="44.72564" lon="5.13082">
        <ele>429.6</ele>
        <time>1970-01-01T00:21:14.000Z</time>
      </trkpt>
      <trkpt lat="44.72563" lon="5.13085">
        <ele>429.8</ele>
        <time>1970-01-01T00:21:15.000Z</time>
      </trkpt>
      <trkpt lat="44.72562" lon="5.13089">
        <ele>430</ele>
        <time>1970-01-01T00:21:16.000Z</time>
      </trkpt>
      <trkpt lat="44.72562" lon="5.13093">
        <ele>430.2</ele>
        <time>1970-01-01T00:21:17.000Z</time>
      </trkpt>
      <trkpt lat="44.72562" lon="5.13096">
        <ele>430.2</ele>
        <time>1970-01-01T00:21:18.000Z</time>
      </trkpt>
      <trkpt lat="44.72564" lon="5.13098">
        <ele>430.2</ele>
        <time>1970-01-01T00:21:19.000Z</time>
      </trkpt>
      <trkpt lat="44.72566" lon="5.13099">
        <ele>430.4</ele>
        <time>1970-01-01T00:21:20.000Z</time>
      </trkpt>
      <trkpt lat="44.72568" lon="5.131">
        <ele>430.4</ele>
        <time>1970-01-01T00:21:21.000Z</time>
      </trkpt>
      <trkpt lat="44.7257" lon="5.13101">
        <ele>430.8</ele>
        <time>1970-01-01T00:21:22.000Z</time>
      </trkpt>
      <trkpt lat="44.72573" lon="5.13102">
        <ele>431</ele>
        <time>1970-01-01T00:21:23.000Z</time>
      </trkpt>
      <trkpt lat="44.72575" lon="5.13102">
        <ele>431.2</ele>
        <time>1970-01-01T00:21:24.000Z</time>
      </trkpt>
      <trkpt lat="44.72578" lon="5.13103">
        <ele>431.4</ele>
        <time>1970-01-01T00:21:25.000Z</time>
      </trkpt>
      <trkpt lat="44.7258" lon="5.13103">
        <ele>431.4</ele>
        <time>1970-01-01T00:21:26.000Z</time>
      </trkpt>
      <trkpt lat="44.72583" lon="5.13104">
        <ele>431.4</ele>
        <time>1970-01-01T00:21:27.000Z</time>
      </trkpt>
      <trkpt lat="44.72586" lon="5.13105">
        <ele>431.4</ele>
        <time>1970-01-01T00:21:28.000Z</time>
      </trkpt>
      <trkpt lat="44.72589" lon="5.13106">
        <ele>431.4</ele>
        <time>1970-01-01T00:21:29.000Z</time>
      </trkpt>
      <trkpt lat="44.72592" lon="5.13106">
        <ele>431.2</ele>
        <time>1970-01-01T00:21:30.000Z</time>
      </trkpt>
      <trkpt lat="44.72596" lon="5.13105">
        <ele>431.2</ele>
        <time>1970-01-01T00:21:31.000Z</time>
      </trkpt>
      <trkpt lat="44.72599" lon="5.13105">
        <ele>431.2</ele>
        <time>1970-01-01T00:21:32.000Z</time>
      </trkpt>
      <trkpt lat="44.72603" lon="5.13106">
        <ele>431.2</ele>
        <time>1970-01-01T00:21:33.000Z</time>
      </trkpt>
      <trkpt lat="44.72606" lon="5.13107">
        <ele>431.2</ele>
        <time>1970-01-01T00:21:34.000Z</time>
      </trkpt>
      <trkpt lat="44.72609" lon="5.13108">
        <ele>431.2</ele>
        <time>1970-01-01T00:21:35.000Z</time>
      </trkpt>
      <trkpt lat="44.72612" lon="5.13109">
        <ele>431</ele>
        <time>1970-01-01T00:21:36.000Z</time>
      </trkpt>
      <trkpt lat="44.72616" lon="5.1311">
        <ele>431</ele>
        <time>1970-01-01T00:21:37.000Z</time>
      </trkpt>
      <trkpt lat="44.7262" lon="5.13112">
        <ele>430.8</ele>
        <time>1970-01-01T00:21:38.000Z</time>
      </trkpt>
      <trkpt lat="44.72623" lon="5.13114">
        <ele>430.6</ele>
        <time>1970-01-01T00:21:39.000Z</time>
      </trkpt>
      <trkpt lat="44.7263" lon="5.13117">
        <ele>430.4</ele>
        <time>1970-01-01T00:21:41.000Z</time>
      </trkpt>
      <trkpt lat="44.72634" lon="5.13119">
        <ele>430.4</ele>
        <time>1970-01-01T00:21:42.000Z</time>
      </trkpt>
      <trkpt lat="44.72637" lon="5.13121">
        <ele>430.6</ele>
        <time>1970-01-01T00:21:43.000Z</time>
      </trkpt>
      <trkpt lat="44.72639" lon="5.13125">
        <ele>430.6</ele>
        <time>1970-01-01T00:21:44.000Z</time>
      </trkpt>
      <trkpt lat="44.72642" lon="5.13126">
        <ele>430.6</ele>
        <time>1970-01-01T00:21:45.000Z</time>
      </trkpt>
      <trkpt lat="44.72647" lon="5.13127">
        <ele>430.8</ele>
        <time>1970-01-01T00:21:46.000Z</time>
      </trkpt>
      <trkpt lat="44.72651" lon="5.13127">
        <ele>430.8</ele>
        <time>1970-01-01T00:21:47.000Z</time>
      </trkpt>
      <trkpt lat="44.72655" lon="5.13127">
        <ele>430.8</ele>
        <time>1970-01-01T00:21:48.000Z</time>
      </trkpt>
      <trkpt lat="44.72658" lon="5.13127">
        <ele>431</ele>
        <time>1970-01-01T00:21:49.000Z</time>
      </trkpt>
      <trkpt lat="44.72674" lon="5.13132">
        <ele>431</ele>
        <time>1970-01-01T00:21:53.000Z</time>
      </trkpt>
      <trkpt lat="44.72699" lon="5.13141">
        <ele>430.6</ele>
        <time>1970-01-01T00:22:00.000Z</time>
      </trkpt>
      <trkpt lat="44.72703" lon="5.13143">
        <ele>430.6</ele>
        <time>1970-01-01T00:22:01.000Z</time>
      </trkpt>
      <trkpt lat="44.72707" lon="5.13143">
        <ele>430.4</ele>
        <time>1970-01-01T00:22:02.000Z</time>
      </trkpt>
      <trkpt lat="44.72715" lon="5.13145">
        <ele>430.4</ele>
        <time>1970-01-01T00:22:04.000Z</time>
      </trkpt>
      <trkpt lat="44.72726" lon="5.13152">
        <ele>430.2</ele>
        <time>1970-01-01T00:22:07.000Z</time>
      </trkpt>
      <trkpt lat="44.72733" lon="5.13157">
        <ele>430.2</ele>
        <time>1970-01-01T00:22:09.000Z</time>
      </trkpt>
      <trkpt lat="44.72737" lon="5.13157">
        <ele>430.2</ele>
        <time>1970-01-01T00:22:10.000Z</time>
      </trkpt>
      <trkpt lat="44.7274" lon="5.13158">
        <ele>430.2</ele>
        <time>1970-01-01T00:22:11.000Z</time>
      </trkpt>
      <trkpt lat="44.72743" lon="5.1316">
        <ele>430.2</ele>
        <time>1970-01-01T00:22:12.000Z</time>
      </trkpt>
      <trkpt lat="44.72745" lon="5.13163">
        <ele>430.2</ele>
        <time>1970-01-01T00:22:13.000Z</time>
      </trkpt>
      <trkpt lat="44.72749" lon="5.13167">
        <ele>430.2</ele>
        <time>1970-01-01T00:22:14.000Z</time>
      </trkpt>
      <trkpt lat="44.72755" lon="5.13174">
        <ele>430.2</ele>
        <time>1970-01-01T00:22:16.000Z</time>
      </trkpt>
      <trkpt lat="44.72756" lon="5.13178">
        <ele>430.2</ele>
        <time>1970-01-01T00:22:17.000Z</time>
      </trkpt>
      <trkpt lat="44.72759" lon="5.13182">
        <ele>430</ele>
        <time>1970-01-01T00:22:18.000Z</time>
      </trkpt>
      <trkpt lat="44.72762" lon="5.13186">
        <ele>429.8</ele>
        <time>1970-01-01T00:22:19.000Z</time>
      </trkpt>
      <trkpt lat="44.72766" lon="5.1319">
        <ele>429.6</ele>
        <time>1970-01-01T00:22:20.000Z</time>
      </trkpt>
      <trkpt lat="44.72769" lon="5.13195">
        <ele>429.6</ele>
        <time>1970-01-01T00:22:21.000Z</time>
      </trkpt>
      <trkpt lat="44.72773" lon="5.132">
        <ele>429.6</ele>
        <time>1970-01-01T00:22:22.000Z</time>
      </trkpt>
      <trkpt lat="44.72777" lon="5.13204">
        <ele>429.4</ele>
        <time>1970-01-01T00:22:23.000Z</time>
      </trkpt>
      <trkpt lat="44.72781" lon="5.13208">
        <ele>429.4</ele>
        <time>1970-01-01T00:22:24.000Z</time>
      </trkpt>
      <trkpt lat="44.72785" lon="5.13211">
        <ele>429.4</ele>
        <time>1970-01-01T00:22:25.000Z</time>
      </trkpt>
      <trkpt lat="44.72789" lon="5.13214">
        <ele>429.4</ele>
        <time>1970-01-01T00:22:26.000Z</time>
      </trkpt>
      <trkpt lat="44.72794" lon="5.13222">
        <ele>429.4</ele>
        <time>1970-01-01T00:22:28.000Z</time>
      </trkpt>
      <trkpt lat="44.72796" lon="5.13227">
        <ele>429.4</ele>
        <time>1970-01-01T00:22:29.000Z</time>
      </trkpt>
      <trkpt lat="44.72798" lon="5.13232">
        <ele>429.2</ele>
        <time>1970-01-01T00:22:30.000Z</time>
      </trkpt>
      <trkpt lat="44.72801" lon="5.13237">
        <ele>429.2</ele>
        <time>1970-01-01T00:22:31.000Z</time>
      </trkpt>
      <trkpt lat="44.72803" lon="5.13243">
        <ele>429</ele>
        <time>1970-01-01T00:22:32.000Z</time>
      </trkpt>
      <trkpt lat="44.72807" lon="5.13257">
        <ele>429</ele>
        <time>1970-01-01T00:22:34.000Z</time>
      </trkpt>
      <trkpt lat="44.72811" lon="5.13262">
        <ele>428.8</ele>
        <time>1970-01-01T00:22:35.000Z</time>
      </trkpt>
      <trkpt lat="44.72815" lon="5.13265">
        <ele>428.8</ele>
        <time>1970-01-01T00:22:36.000Z</time>
      </trkpt>
      <trkpt lat="44.72816" lon="5.1327">
        <ele>429</ele>
        <time>1970-01-01T00:22:37.000Z</time>
      </trkpt>
      <trkpt lat="44.7282" lon="5.13279">
        <ele>429</ele>
        <time>1970-01-01T00:22:39.000Z</time>
      </trkpt>
      <trkpt lat="44.72828" lon="5.13285">
        <ele>429.2</ele>
        <time>1970-01-01T00:22:41.000Z</time>
      </trkpt>
      <trkpt lat="44.72829" lon="5.13289">
        <ele>429.2</ele>
        <time>1970-01-01T00:22:42.000Z</time>
      </trkpt>
      <trkpt lat="44.7283" lon="5.13292">
        <ele>429.2</ele>
        <time>1970-01-01T00:22:43.000Z</time>
      </trkpt>
      <trkpt lat="44.7283" lon="5.13295">
        <ele>429.2</ele>
        <time>1970-01-01T00:22:44.000Z</time>
      </trkpt>
      <trkpt lat="44.7283" lon="5.13297">
        <ele>429.4</ele>
        <time>1970-01-01T00:22:45.000Z</time>
      </trkpt>
      <trkpt lat="44.72829" lon="5.13299">
        <ele>429.4</ele>
        <time>1970-01-01T00:22:46.000Z</time>
      </trkpt>
      <trkpt lat="44.72828" lon="5.13301">
        <ele>429.4</ele>
        <time>1970-01-01T00:22:47.000Z</time>
      </trkpt>
      <trkpt lat="44.72827" lon="5.13301">
        <ele>429.4</ele>
        <time>1970-01-01T00:22:48.000Z</time>
      </trkpt>
      <trkpt lat="44.72826" lon="5.13302">
        <ele>429.4</ele>
        <time>1970-01-01T00:22:49.000Z</time>
      </trkpt>
      <trkpt lat="44.72825" lon="5.13302">
        <ele>429.4</ele>
        <time>1970-01-01T00:22:50.000Z</time>
      </trkpt>
      <trkpt lat="44.72825" lon="5.13304">
        <ele>429.4</ele>
        <time>1970-01-01T00:22:51.000Z</time>
      </trkpt>
      <trkpt lat="44.72826" lon="5.13306">
        <ele>429.4</ele>
        <time>1970-01-01T00:22:52.000Z</time>
      </trkpt>
      <trkpt lat="44.72826" lon="5.13309">
        <ele>429.6</ele>
        <time>1970-01-01T00:22:53.000Z</time>
      </trkpt>
      <trkpt lat="44.72826" lon="5.13313">
        <ele>429.6</ele>
        <time>1970-01-01T00:22:54.000Z</time>
      </trkpt>
      <trkpt lat="44.7283" lon="5.13324">
        <ele>430.4</ele>
        <time>1970-01-01T00:22:57.000Z</time>
      </trkpt>
      <trkpt lat="44.72832" lon="5.13328">
        <ele>430.8</ele>
        <time>1970-01-01T00:22:58.000Z</time>
      </trkpt>
      <trkpt lat="44.72833" lon="5.13332">
        <ele>431</ele>
        <time>1970-01-01T00:22:59.000Z</time>
      </trkpt>
      <trkpt lat="44.72834" lon="5.13336">
        <ele>431.2</ele>
        <time>1970-01-01T00:23:00.000Z</time>
      </trkpt>
      <trkpt lat="44.72837" lon="5.13343">
        <ele>432</ele>
        <time>1970-01-01T00:23:02.000Z</time>
      </trkpt>
      <trkpt lat="44.72838" lon="5.13347">
        <ele>432.2</ele>
        <time>1970-01-01T00:23:03.000Z</time>
      </trkpt>
      <trkpt lat="44.72839" lon="5.13351">
        <ele>432.6</ele>
        <time>1970-01-01T00:23:04.000Z</time>
      </trkpt>
      <trkpt lat="44.7284" lon="5.13354">
        <ele>433</ele>
        <time>1970-01-01T00:23:05.000Z</time>
      </trkpt>
      <trkpt lat="44.72842" lon="5.13358">
        <ele>433.2</ele>
        <time>1970-01-01T00:23:06.000Z</time>
      </trkpt>
      <trkpt lat="44.72843" lon="5.13362">
        <ele>433.4</ele>
        <time>1970-01-01T00:23:07.000Z</time>
      </trkpt>
      <trkpt lat="44.72843" lon="5.13367">
        <ele>433.6</ele>
        <time>1970-01-01T00:23:08.000Z</time>
      </trkpt>
      <trkpt lat="44.72843" lon="5.13372">
        <ele>433.8</ele>
        <time>1970-01-01T00:23:09.000Z</time>
      </trkpt>
      <trkpt lat="44.72843" lon="5.13375">
        <ele>433.8</ele>
        <time>1970-01-01T00:23:10.000Z</time>
      </trkpt>
      <trkpt lat="44.72843" lon="5.1338">
        <ele>433.8</ele>
        <time>1970-01-01T00:23:11.000Z</time>
      </trkpt>
      <trkpt lat="44.72843" lon="5.13384">
        <ele>434</ele>
        <time>1970-01-01T00:23:12.000Z</time>
      </trkpt>
      <trkpt lat="44.72844" lon="5.13388">
        <ele>434.2</ele>
        <time>1970-01-01T00:23:13.000Z</time>
      </trkpt>
      <trkpt lat="44.72845" lon="5.13393">
        <ele>434.4</ele>
        <time>1970-01-01T00:23:14.000Z</time>
      </trkpt>
      <trkpt lat="44.72845" lon="5.13397">
        <ele>434.6</ele>
        <time>1970-01-01T00:23:15.000Z</time>
      </trkpt>
      <trkpt lat="44.72847" lon="5.13401">
        <ele>435</ele>
        <time>1970-01-01T00:23:16.000Z</time>
      </trkpt>
      <trkpt lat="44.72847" lon="5.13404">
        <ele>435.2</ele>
        <time>1970-01-01T00:23:17.000Z</time>
      </trkpt>
      <trkpt lat="44.72849" lon="5.13408">
        <ele>435.4</ele>
        <time>1970-01-01T00:23:18.000Z</time>
      </trkpt>
      <trkpt lat="44.7285" lon="5.1341">
        <ele>435.8</ele>
        <time>1970-01-01T00:23:19.000Z</time>
      </trkpt>
      <trkpt lat="44.72852" lon="5.13413">
        <ele>436</ele>
        <time>1970-01-01T00:23:20.000Z</time>
      </trkpt>
      <trkpt lat="44.72854" lon="5.13418">
        <ele>436.2</ele>
        <time>1970-01-01T00:23:21.000Z</time>
      </trkpt>
      <trkpt lat="44.72855" lon="5.13422">
        <ele>436.6</ele>
        <time>1970-01-01T00:23:22.000Z</time>
      </trkpt>
      <trkpt lat="44.72855" lon="5.13425">
        <ele>436.8</ele>
        <time>1970-01-01T00:23:23.000Z</time>
      </trkpt>
      <trkpt lat="44.72855" lon="5.13429">
        <ele>437</ele>
        <time>1970-01-01T00:23:24.000Z</time>
      </trkpt>
      <trkpt lat="44.72855" lon="5.13433">
        <ele>437.2</ele>
        <time>1970-01-01T00:23:25.000Z</time>
      </trkpt>
      <trkpt lat="44.72857" lon="5.13437">
        <ele>437.4</ele>
        <time>1970-01-01T00:23:26.000Z</time>
      </trkpt>
      <trkpt lat="44.7286" lon="5.13438">
        <ele>437.8</ele>
        <time>1970-01-01T00:23:27.000Z</time>
      </trkpt>
      <trkpt lat="44.72861" lon="5.13442">
        <ele>438.2</ele>
        <time>1970-01-01T00:23:28.000Z</time>
      </trkpt>
      <trkpt lat="44.72861" lon="5.13446">
        <ele>438.4</ele>
        <time>1970-01-01T00:23:29.000Z</time>
      </trkpt>
      <trkpt lat="44.72862" lon="5.13451">
        <ele>439</ele>
        <time>1970-01-01T00:23:30.000Z</time>
      </trkpt>
      <trkpt lat="44.72863" lon="5.13454">
        <ele>439.2</ele>
        <time>1970-01-01T00:23:31.000Z</time>
      </trkpt>
      <trkpt lat="44.72863" lon="5.13458">
        <ele>439.4</ele>
        <time>1970-01-01T00:23:32.000Z</time>
      </trkpt>
      <trkpt lat="44.72864" lon="5.1346">
        <ele>439.4</ele>
        <time>1970-01-01T00:23:33.000Z</time>
      </trkpt>
      <trkpt lat="44.72865" lon="5.13465">
        <ele>439.4</ele>
        <time>1970-01-01T00:23:34.000Z</time>
      </trkpt>
      <trkpt lat="44.72866" lon="5.1347">
        <ele>439.6</ele>
        <time>1970-01-01T00:23:35.000Z</time>
      </trkpt>
      <trkpt lat="44.72866" lon="5.13474">
        <ele>439.6</ele>
        <time>1970-01-01T00:23:36.000Z</time>
      </trkpt>
      <trkpt lat="44.72865" lon="5.13478">
        <ele>439.8</ele>
        <time>1970-01-01T00:23:37.000Z</time>
      </trkpt>
      <trkpt lat="44.72864" lon="5.1348">
        <ele>440</ele>
        <time>1970-01-01T00:23:38.000Z</time>
      </trkpt>
      <trkpt lat="44.72863" lon="5.13482">
        <ele>440.6</ele>
        <time>1970-01-01T00:23:39.000Z</time>
      </trkpt>
      <trkpt lat="44.72863" lon="5.13486">
        <ele>441</ele>
        <time>1970-01-01T00:23:40.000Z</time>
      </trkpt>
      <trkpt lat="44.72863" lon="5.13489">
        <ele>441.2</ele>
        <time>1970-01-01T00:23:41.000Z</time>
      </trkpt>
      <trkpt lat="44.72864" lon="5.13493">
        <ele>441.4</ele>
        <time>1970-01-01T00:23:42.000Z</time>
      </trkpt>
      <trkpt lat="44.72865" lon="5.13496">
        <ele>441.6</ele>
        <time>1970-01-01T00:23:43.000Z</time>
      </trkpt>
      <trkpt lat="44.72866" lon="5.135">
        <ele>441.8</ele>
        <time>1970-01-01T00:23:44.000Z</time>
      </trkpt>
      <trkpt lat="44.72866" lon="5.13504">
        <ele>441.8</ele>
        <time>1970-01-01T00:23:45.000Z</time>
      </trkpt>
      <trkpt lat="44.72867" lon="5.13506">
        <ele>442</ele>
        <time>1970-01-01T00:23:46.000Z</time>
      </trkpt>
      <trkpt lat="44.72868" lon="5.13509">
        <ele>442</ele>
        <time>1970-01-01T00:23:47.000Z</time>
      </trkpt>
      <trkpt lat="44.72868" lon="5.13513">
        <ele>442</ele>
        <time>1970-01-01T00:23:48.000Z</time>
      </trkpt>
      <trkpt lat="44.72867" lon="5.13516">
        <ele>442.4</ele>
        <time>1970-01-01T00:23:49.000Z</time>
      </trkpt>
      <trkpt lat="44.72867" lon="5.1352">
        <ele>442.8</ele>
        <time>1970-01-01T00:23:50.000Z</time>
      </trkpt>
      <trkpt lat="44.72866" lon="5.13523">
        <ele>443.2</ele>
        <time>1970-01-01T00:23:51.000Z</time>
      </trkpt>
      <trkpt lat="44.72864" lon="5.13526">
        <ele>443.4</ele>
        <time>1970-01-01T00:23:52.000Z</time>
      </trkpt>
      <trkpt lat="44.72862" lon="5.13529">
        <ele>443.6</ele>
        <time>1970-01-01T00:23:53.000Z</time>
      </trkpt>
      <trkpt lat="44.72861" lon="5.13532">
        <ele>443.8</ele>
        <time>1970-01-01T00:23:54.000Z</time>
      </trkpt>
      <trkpt lat="44.72859" lon="5.13535">
        <ele>444.2</ele>
        <time>1970-01-01T00:23:55.000Z</time>
      </trkpt>
      <trkpt lat="44.72858" lon="5.13538">
        <ele>444.2</ele>
        <time>1970-01-01T00:23:56.000Z</time>
      </trkpt>
      <trkpt lat="44.72856" lon="5.1354">
        <ele>444.4</ele>
        <time>1970-01-01T00:23:57.000Z</time>
      </trkpt>
      <trkpt lat="44.72854" lon="5.13542">
        <ele>444.4</ele>
        <time>1970-01-01T00:23:58.000Z</time>
      </trkpt>
      <trkpt lat="44.72852" lon="5.13544">
        <ele>444.6</ele>
        <time>1970-01-01T00:23:59.000Z</time>
      </trkpt>
      <trkpt lat="44.7285" lon="5.13545">
        <ele>444.6</ele>
        <time>1970-01-01T00:24:00.000Z</time>
      </trkpt>
      <trkpt lat="44.72848" lon="5.13547">
        <ele>445</ele>
        <time>1970-01-01T00:24:01.000Z</time>
      </trkpt>
      <trkpt lat="44.72846" lon="5.13549">
        <ele>445.2</ele>
        <time>1970-01-01T00:24:02.000Z</time>
      </trkpt>
      <trkpt lat="44.72844" lon="5.13551">
        <ele>445.2</ele>
        <time>1970-01-01T00:24:03.000Z</time>
      </trkpt>
      <trkpt lat="44.72843" lon="5.13552">
        <ele>445.4</ele>
        <time>1970-01-01T00:24:04.000Z</time>
      </trkpt>
      <trkpt lat="44.7284" lon="5.13554">
        <ele>445.4</ele>
        <time>1970-01-01T00:24:05.000Z</time>
      </trkpt>
      <trkpt lat="44.72838" lon="5.13555">
        <ele>445.6</ele>
        <time>1970-01-01T00:24:06.000Z</time>
      </trkpt>
      <trkpt lat="44.72836" lon="5.13556">
        <ele>445.8</ele>
        <time>1970-01-01T00:24:07.000Z</time>
      </trkpt>
      <trkpt lat="44.72833" lon="5.13558">
        <ele>445.8</ele>
        <time>1970-01-01T00:24:08.000Z</time>
      </trkpt>
      <trkpt lat="44.7283" lon="5.1356">
        <ele>446</ele>
        <time>1970-01-01T00:24:09.000Z</time>
      </trkpt>
      <trkpt lat="44.72827" lon="5.13561">
        <ele>446.2</ele>
        <time>1970-01-01T00:24:10.000Z</time>
      </trkpt>
      <trkpt lat="44.72825" lon="5.13563">
        <ele>446.4</ele>
        <time>1970-01-01T00:24:11.000Z</time>
      </trkpt>
      <trkpt lat="44.72823" lon="5.13564">
        <ele>446.6</ele>
        <time>1970-01-01T00:24:12.000Z</time>
      </trkpt>
      <trkpt lat="44.72818" lon="5.13567">
        <ele>446.8</ele>
        <time>1970-01-01T00:24:13.000Z</time>
      </trkpt>
      <trkpt lat="44.72817" lon="5.13567">
        <ele>447</ele>
        <time>1970-01-01T00:24:14.000Z</time>
      </trkpt>
      <trkpt lat="44.72815" lon="5.13569">
        <ele>447.2</ele>
        <time>1970-01-01T00:24:15.000Z</time>
      </trkpt>
      <trkpt lat="44.72813" lon="5.13571">
        <ele>447.4</ele>
        <time>1970-01-01T00:24:16.000Z</time>
      </trkpt>
      <trkpt lat="44.72813" lon="5.13574">
        <ele>447.6</ele>
        <time>1970-01-01T00:24:17.000Z</time>
      </trkpt>
      <trkpt lat="44.72813" lon="5.13578">
        <ele>447.8</ele>
        <time>1970-01-01T00:24:18.000Z</time>
      </trkpt>
      <trkpt lat="44.72812" lon="5.13581">
        <ele>448.4</ele>
        <time>1970-01-01T00:24:19.000Z</time>
      </trkpt>
      <trkpt lat="44.72813" lon="5.13584">
        <ele>448.6</ele>
        <time>1970-01-01T00:24:20.000Z</time>
      </trkpt>
      <trkpt lat="44.72812" lon="5.13587">
        <ele>448.8</ele>
        <time>1970-01-01T00:24:21.000Z</time>
      </trkpt>
      <trkpt lat="44.72812" lon="5.13591">
        <ele>449.4</ele>
        <time>1970-01-01T00:24:22.000Z</time>
      </trkpt>
      <trkpt lat="44.72813" lon="5.13594">
        <ele>449.8</ele>
        <time>1970-01-01T00:24:23.000Z</time>
      </trkpt>
      <trkpt lat="44.72813" lon="5.13596">
        <ele>450</ele>
        <time>1970-01-01T00:24:24.000Z</time>
      </trkpt>
      <trkpt lat="44.72813" lon="5.13599">
        <ele>450.2</ele>
        <time>1970-01-01T00:24:25.000Z</time>
      </trkpt>
      <trkpt lat="44.72813" lon="5.13601">
        <ele>450.6</ele>
        <time>1970-01-01T00:24:26.000Z</time>
      </trkpt>
      <trkpt lat="44.72813" lon="5.13604">
        <ele>450.8</ele>
        <time>1970-01-01T00:24:27.000Z</time>
      </trkpt>
      <trkpt lat="44.72814" lon="5.13606">
        <ele>451.2</ele>
        <time>1970-01-01T00:24:28.000Z</time>
      </trkpt>
      <trkpt lat="44.72814" lon="5.13609">
        <ele>451.4</ele>
        <time>1970-01-01T00:24:29.000Z</time>
      </trkpt>
      <trkpt lat="44.72814" lon="5.13614">
        <ele>452</ele>
        <time>1970-01-01T00:24:31.000Z</time>
      </trkpt>
      <trkpt lat="44.72814" lon="5.13616">
        <ele>452.4</ele>
        <time>1970-01-01T00:24:32.000Z</time>
      </trkpt>
      <trkpt lat="44.72814" lon="5.13618">
        <ele>452.8</ele>
        <time>1970-01-01T00:24:33.000Z</time>
      </trkpt>
      <trkpt lat="44.72814" lon="5.1362">
        <ele>453.2</ele>
        <time>1970-01-01T00:24:34.000Z</time>
      </trkpt>
      <trkpt lat="44.72813" lon="5.13623">
        <ele>453.8</ele>
        <time>1970-01-01T00:24:35.000Z</time>
      </trkpt>
      <trkpt lat="44.72813" lon="5.13626">
        <ele>454.2</ele>
        <time>1970-01-01T00:24:36.000Z</time>
      </trkpt>
      <trkpt lat="44.72813" lon="5.13629">
        <ele>454.4</ele>
        <time>1970-01-01T00:24:37.000Z</time>
      </trkpt>
      <trkpt lat="44.72812" lon="5.13631">
        <ele>454.8</ele>
        <time>1970-01-01T00:24:38.000Z</time>
      </trkpt>
      <trkpt lat="44.72812" lon="5.13634">
        <ele>455.2</ele>
        <time>1970-01-01T00:24:39.000Z</time>
      </trkpt>
      <trkpt lat="44.72812" lon="5.13636">
        <ele>455.4</ele>
        <time>1970-01-01T00:24:40.000Z</time>
      </trkpt>
      <trkpt lat="44.72813" lon="5.13638">
        <ele>455.8</ele>
        <time>1970-01-01T00:24:41.000Z</time>
      </trkpt>
      <trkpt lat="44.72813" lon="5.1364">
        <ele>455.8</ele>
        <time>1970-01-01T00:24:42.000Z</time>
      </trkpt>
      <trkpt lat="44.72813" lon="5.13642">
        <ele>456</ele>
        <time>1970-01-01T00:24:43.000Z</time>
      </trkpt>
      <trkpt lat="44.72815" lon="5.13643">
        <ele>456.2</ele>
        <time>1970-01-01T00:24:44.000Z</time>
      </trkpt>
      <trkpt lat="44.72816" lon="5.13643">
        <ele>456.6</ele>
        <time>1970-01-01T00:24:45.000Z</time>
      </trkpt>
      <trkpt lat="44.72818" lon="5.13644">
        <ele>456.8</ele>
        <time>1970-01-01T00:24:46.000Z</time>
      </trkpt>
      <trkpt lat="44.7282" lon="5.13645">
        <ele>457</ele>
        <time>1970-01-01T00:24:47.000Z</time>
      </trkpt>
      <trkpt lat="44.72822" lon="5.13647">
        <ele>457.2</ele>
        <time>1970-01-01T00:24:48.000Z</time>
      </trkpt>
      <trkpt lat="44.72824" lon="5.13649">
        <ele>457.2</ele>
        <time>1970-01-01T00:24:49.000Z</time>
      </trkpt>
      <trkpt lat="44.72825" lon="5.1365">
        <ele>457.6</ele>
        <time>1970-01-01T00:24:50.000Z</time>
      </trkpt>
      <trkpt lat="44.72827" lon="5.13651">
        <ele>457.8</ele>
        <time>1970-01-01T00:24:51.000Z</time>
      </trkpt>
      <trkpt lat="44.72829" lon="5.13652">
        <ele>458</ele>
        <time>1970-01-01T00:24:52.000Z</time>
      </trkpt>
      <trkpt lat="44.72831" lon="5.13653">
        <ele>458.2</ele>
        <time>1970-01-01T00:24:53.000Z</time>
      </trkpt>
      <trkpt lat="44.72834" lon="5.13653">
        <ele>458.4</ele>
        <time>1970-01-01T00:24:54.000Z</time>
      </trkpt>
      <trkpt lat="44.72837" lon="5.13652">
        <ele>458.4</ele>
        <time>1970-01-01T00:24:55.000Z</time>
      </trkpt>
      <trkpt lat="44.72839" lon="5.13653">
        <ele>458.4</ele>
        <time>1970-01-01T00:24:56.000Z</time>
      </trkpt>
      <trkpt lat="44.72842" lon="5.13654">
        <ele>458.6</ele>
        <time>1970-01-01T00:24:57.000Z</time>
      </trkpt>
      <trkpt lat="44.72843" lon="5.13656">
        <ele>459</ele>
        <time>1970-01-01T00:24:58.000Z</time>
      </trkpt>
      <trkpt lat="44.72845" lon="5.13657">
        <ele>459.2</ele>
        <time>1970-01-01T00:24:59.000Z</time>
      </trkpt>
      <trkpt lat="44.72847" lon="5.13659">
        <ele>459.6</ele>
        <time>1970-01-01T00:25:00.000Z</time>
      </trkpt>
      <trkpt lat="44.72848" lon="5.13661">
        <ele>460</ele>
        <time>1970-01-01T00:25:01.000Z</time>
      </trkpt>
      <trkpt lat="44.7285" lon="5.13662">
        <ele>460.2</ele>
        <time>1970-01-01T00:25:02.000Z</time>
      </trkpt>
      <trkpt lat="44.72852" lon="5.13663">
        <ele>460.4</ele>
        <time>1970-01-01T00:25:03.000Z</time>
      </trkpt>
      <trkpt lat="44.72853" lon="5.13664">
        <ele>460.6</ele>
        <time>1970-01-01T00:25:04.000Z</time>
      </trkpt>
      <trkpt lat="44.72855" lon="5.13665">
        <ele>460.6</ele>
        <time>1970-01-01T00:25:05.000Z</time>
      </trkpt>
      <trkpt lat="44.72858" lon="5.13666">
        <ele>461</ele>
        <time>1970-01-01T00:25:06.000Z</time>
      </trkpt>
      <trkpt lat="44.72861" lon="5.13668">
        <ele>461.2</ele>
        <time>1970-01-01T00:25:07.000Z</time>
      </trkpt>
      <trkpt lat="44.72863" lon="5.1367">
        <ele>461.4</ele>
        <time>1970-01-01T00:25:08.000Z</time>
      </trkpt>
      <trkpt lat="44.72866" lon="5.13672">
        <ele>461.6</ele>
        <time>1970-01-01T00:25:09.000Z</time>
      </trkpt>
      <trkpt lat="44.72869" lon="5.13674">
        <ele>461.6</ele>
        <time>1970-01-01T00:25:10.000Z</time>
      </trkpt>
      <trkpt lat="44.72872" lon="5.13676">
        <ele>462</ele>
        <time>1970-01-01T00:25:11.000Z</time>
      </trkpt>
      <trkpt lat="44.72874" lon="5.13678">
        <ele>462.2</ele>
        <time>1970-01-01T00:25:12.000Z</time>
      </trkpt>
      <trkpt lat="44.72876" lon="5.1368">
        <ele>462.4</ele>
        <time>1970-01-01T00:25:13.000Z</time>
      </trkpt>
      <trkpt lat="44.7288" lon="5.13682">
        <ele>462.6</ele>
        <time>1970-01-01T00:25:14.000Z</time>
      </trkpt>
      <trkpt lat="44.72883" lon="5.13683">
        <ele>462.8</ele>
        <time>1970-01-01T00:25:15.000Z</time>
      </trkpt>
      <trkpt lat="44.72885" lon="5.13685">
        <ele>463.2</ele>
        <time>1970-01-01T00:25:16.000Z</time>
      </trkpt>
      <trkpt lat="44.72887" lon="5.13687">
        <ele>463.4</ele>
        <time>1970-01-01T00:25:17.000Z</time>
      </trkpt>
      <trkpt lat="44.72889" lon="5.1369">
        <ele>463.6</ele>
        <time>1970-01-01T00:25:18.000Z</time>
      </trkpt>
      <trkpt lat="44.72891" lon="5.13692">
        <ele>463.8</ele>
        <time>1970-01-01T00:25:19.000Z</time>
      </trkpt>
      <trkpt lat="44.72894" lon="5.13693">
        <ele>464</ele>
        <time>1970-01-01T00:25:20.000Z</time>
      </trkpt>
      <trkpt lat="44.72897" lon="5.13694">
        <ele>464.2</ele>
        <time>1970-01-01T00:25:21.000Z</time>
      </trkpt>
      <trkpt lat="44.72899" lon="5.13694">
        <ele>464.4</ele>
        <time>1970-01-01T00:25:22.000Z</time>
      </trkpt>
      <trkpt lat="44.72901" lon="5.13696">
        <ele>464.6</ele>
        <time>1970-01-01T00:25:23.000Z</time>
      </trkpt>
      <trkpt lat="44.72903" lon="5.13698">
        <ele>465</ele>
        <time>1970-01-01T00:25:24.000Z</time>
      </trkpt>
      <trkpt lat="44.72905" lon="5.137">
        <ele>465</ele>
        <time>1970-01-01T00:25:25.000Z</time>
      </trkpt>
      <trkpt lat="44.72908" lon="5.13702">
        <ele>465.4</ele>
        <time>1970-01-01T00:25:26.000Z</time>
      </trkpt>
      <trkpt lat="44.7291" lon="5.13703">
        <ele>465.4</ele>
        <time>1970-01-01T00:25:27.000Z</time>
      </trkpt>
      <trkpt lat="44.72914" lon="5.13703">
        <ele>465.6</ele>
        <time>1970-01-01T00:25:28.000Z</time>
      </trkpt>
      <trkpt lat="44.72916" lon="5.13704">
        <ele>465.6</ele>
        <time>1970-01-01T00:25:29.000Z</time>
      </trkpt>
      <trkpt lat="44.72919" lon="5.13706">
        <ele>465.6</ele>
        <time>1970-01-01T00:25:30.000Z</time>
      </trkpt>
      <trkpt lat="44.72921" lon="5.13707">
        <ele>465.6</ele>
        <time>1970-01-01T00:25:31.000Z</time>
      </trkpt>
      <trkpt lat="44.72923" lon="5.13708">
        <ele>465.8</ele>
        <time>1970-01-01T00:25:32.000Z</time>
      </trkpt>
      <trkpt lat="44.72925" lon="5.1371">
        <ele>465.8</ele>
        <time>1970-01-01T00:25:33.000Z</time>
      </trkpt>
      <trkpt lat="44.72927" lon="5.13711">
        <ele>465.8</ele>
        <time>1970-01-01T00:25:34.000Z</time>
      </trkpt>
      <trkpt lat="44.72929" lon="5.13713">
        <ele>466</ele>
        <time>1970-01-01T00:25:35.000Z</time>
      </trkpt>
      <trkpt lat="44.72931" lon="5.13713">
        <ele>466</ele>
        <time>1970-01-01T00:25:36.000Z</time>
      </trkpt>
      <trkpt lat="44.72933" lon="5.13713">
        <ele>466</ele>
        <time>1970-01-01T00:25:37.000Z</time>
      </trkpt>
      <trkpt lat="44.72935" lon="5.13712">
        <ele>466.2</ele>
        <time>1970-01-01T00:25:38.000Z</time>
      </trkpt>
      <trkpt lat="44.72936" lon="5.13711">
        <ele>466.4</ele>
        <time>1970-01-01T00:25:39.000Z</time>
      </trkpt>
      <trkpt lat="44.72938" lon="5.13711">
        <ele>466.4</ele>
        <time>1970-01-01T00:25:40.000Z</time>
      </trkpt>
      <trkpt lat="44.7294" lon="5.13712">
        <ele>466.6</ele>
        <time>1970-01-01T00:25:41.000Z</time>
      </trkpt>
      <trkpt lat="44.72943" lon="5.13713">
        <ele>466.6</ele>
        <time>1970-01-01T00:25:42.000Z</time>
      </trkpt>
      <trkpt lat="44.72947" lon="5.13715">
        <ele>466.8</ele>
        <time>1970-01-01T00:25:43.000Z</time>
      </trkpt>
      <trkpt lat="44.72949" lon="5.13717">
        <ele>466.8</ele>
        <time>1970-01-01T00:25:44.000Z</time>
      </trkpt>
      <trkpt lat="44.72952" lon="5.13718">
        <ele>466.8</ele>
        <time>1970-01-01T00:25:45.000Z</time>
      </trkpt>
      <trkpt lat="44.72955" lon="5.13719">
        <ele>467</ele>
        <time>1970-01-01T00:25:46.000Z</time>
      </trkpt>
      <trkpt lat="44.72958" lon="5.1372">
        <ele>467</ele>
        <time>1970-01-01T00:25:47.000Z</time>
      </trkpt>
      <trkpt lat="44.7296" lon="5.13722">
        <ele>467.2</ele>
        <time>1970-01-01T00:25:48.000Z</time>
      </trkpt>
      <trkpt lat="44.72962" lon="5.13723">
        <ele>467.2</ele>
        <time>1970-01-01T00:25:49.000Z</time>
      </trkpt>
      <trkpt lat="44.72965" lon="5.13724">
        <ele>467.2</ele>
        <time>1970-01-01T00:25:50.000Z</time>
      </trkpt>
      <trkpt lat="44.72968" lon="5.13724">
        <ele>467.2</ele>
        <time>1970-01-01T00:25:51.000Z</time>
      </trkpt>
      <trkpt lat="44.72971" lon="5.13726">
        <ele>467.2</ele>
        <time>1970-01-01T00:25:52.000Z</time>
      </trkpt>
      <trkpt lat="44.72973" lon="5.13729">
        <ele>467.2</ele>
        <time>1970-01-01T00:25:53.000Z</time>
      </trkpt>
      <trkpt lat="44.72977" lon="5.13731">
        <ele>467</ele>
        <time>1970-01-01T00:25:54.000Z</time>
      </trkpt>
      <trkpt lat="44.72981" lon="5.13733">
        <ele>467</ele>
        <time>1970-01-01T00:25:55.000Z</time>
      </trkpt>
      <trkpt lat="44.7299" lon="5.13737">
        <ele>466.6</ele>
        <time>1970-01-01T00:25:57.000Z</time>
      </trkpt>
      <trkpt lat="44.72993" lon="5.13739">
        <ele>466.4</ele>
        <time>1970-01-01T00:25:58.000Z</time>
      </trkpt>
      <trkpt lat="44.72997" lon="5.13741">
        <ele>466</ele>
        <time>1970-01-01T00:25:59.000Z</time>
      </trkpt>
      <trkpt lat="44.73011" lon="5.13748">
        <ele>465.2</ele>
        <time>1970-01-01T00:26:02.000Z</time>
      </trkpt>
      <trkpt lat="44.73018" lon="5.13749">
        <ele>465</ele>
        <time>1970-01-01T00:26:03.000Z</time>
      </trkpt>
      <trkpt lat="44.73023" lon="5.13753">
        <ele>464.6</ele>
        <time>1970-01-01T00:26:04.000Z</time>
      </trkpt>
      <trkpt lat="44.73026" lon="5.13756">
        <ele>464.2</ele>
        <time>1970-01-01T00:26:05.000Z</time>
      </trkpt>
      <trkpt lat="44.73028" lon="5.13761">
        <ele>464</ele>
        <time>1970-01-01T00:26:06.000Z</time>
      </trkpt>
      <trkpt lat="44.73031" lon="5.13767">
        <ele>463.6</ele>
        <time>1970-01-01T00:26:07.000Z</time>
      </trkpt>
      <trkpt lat="44.73033" lon="5.13773">
        <ele>463.2</ele>
        <time>1970-01-01T00:26:08.000Z</time>
      </trkpt>
      <trkpt lat="44.73033" lon="5.1378">
        <ele>463</ele>
        <time>1970-01-01T00:26:09.000Z</time>
      </trkpt>
      <trkpt lat="44.73035" lon="5.13786">
        <ele>463</ele>
        <time>1970-01-01T00:26:10.000Z</time>
      </trkpt>
      <trkpt lat="44.73036" lon="5.13791">
        <ele>462.8</ele>
        <time>1970-01-01T00:26:11.000Z</time>
      </trkpt>
      <trkpt lat="44.73038" lon="5.13796">
        <ele>462.8</ele>
        <time>1970-01-01T00:26:12.000Z</time>
      </trkpt>
      <trkpt lat="44.73041" lon="5.13808">
        <ele>462.8</ele>
        <time>1970-01-01T00:26:14.000Z</time>
      </trkpt>
      <trkpt lat="44.73043" lon="5.13815">
        <ele>463</ele>
        <time>1970-01-01T00:26:15.000Z</time>
      </trkpt>
      <trkpt lat="44.73048" lon="5.13826">
        <ele>463.2</ele>
        <time>1970-01-01T00:26:17.000Z</time>
      </trkpt>
      <trkpt lat="44.7305" lon="5.13832">
        <ele>463.4</ele>
        <time>1970-01-01T00:26:18.000Z</time>
      </trkpt>
      <trkpt lat="44.73051" lon="5.13837">
        <ele>463.6</ele>
        <time>1970-01-01T00:26:19.000Z</time>
      </trkpt>
      <trkpt lat="44.73053" lon="5.13841">
        <ele>464</ele>
        <time>1970-01-01T00:26:21.000Z</time>
      </trkpt>
      <trkpt lat="44.73058" lon="5.13853">
        <ele>464.2</ele>
        <time>1970-01-01T00:26:22.000Z</time>
      </trkpt>
      <trkpt lat="44.7306" lon="5.13856">
        <ele>464.4</ele>
        <time>1970-01-01T00:26:23.000Z</time>
      </trkpt>
      <trkpt lat="44.73062" lon="5.13861">
        <ele>464.6</ele>
        <time>1970-01-01T00:26:24.000Z</time>
      </trkpt>
      <trkpt lat="44.73063" lon="5.13865">
        <ele>464.8</ele>
        <time>1970-01-01T00:26:25.000Z</time>
      </trkpt>
      <trkpt lat="44.73065" lon="5.13869">
        <ele>464.8</ele>
        <time>1970-01-01T00:26:26.000Z</time>
      </trkpt>
      <trkpt lat="44.73066" lon="5.13874">
        <ele>465.2</ele>
        <time>1970-01-01T00:26:27.000Z</time>
      </trkpt>
      <trkpt lat="44.73067" lon="5.13879">
        <ele>465.4</ele>
        <time>1970-01-01T00:26:28.000Z</time>
      </trkpt>
      <trkpt lat="44.73069" lon="5.13884">
        <ele>465.6</ele>
        <time>1970-01-01T00:26:29.000Z</time>
      </trkpt>
      <trkpt lat="44.7307" lon="5.13888">
        <ele>465.6</ele>
        <time>1970-01-01T00:26:30.000Z</time>
      </trkpt>
      <trkpt lat="44.73076" lon="5.13912">
        <ele>465.4</ele>
        <time>1970-01-01T00:26:35.000Z</time>
      </trkpt>
      <trkpt lat="44.73082" lon="5.13923">
        <ele>463.8</ele>
        <time>1970-01-01T00:26:37.000Z</time>
      </trkpt>
      <trkpt lat="44.73087" lon="5.13926">
        <ele>463.6</ele>
        <time>1970-01-01T00:26:38.000Z</time>
      </trkpt>
      <trkpt lat="44.73091" lon="5.13931">
        <ele>463.2</ele>
        <time>1970-01-01T00:26:39.000Z</time>
      </trkpt>
      <trkpt lat="44.73095" lon="5.13936">
        <ele>463</ele>
        <time>1970-01-01T00:26:40.000Z</time>
      </trkpt>
      <trkpt lat="44.73098" lon="5.13942">
        <ele>462.8</ele>
        <time>1970-01-01T00:26:41.000Z</time>
      </trkpt>
      <trkpt lat="44.73105" lon="5.13952">
        <ele>462</ele>
        <time>1970-01-01T00:26:43.000Z</time>
      </trkpt>
      <trkpt lat="44.7311" lon="5.13957">
        <ele>461.6</ele>
        <time>1970-01-01T00:26:44.000Z</time>
      </trkpt>
      <trkpt lat="44.73116" lon="5.1396">
        <ele>461.4</ele>
        <time>1970-01-01T00:26:45.000Z</time>
      </trkpt>
      <trkpt lat="44.73121" lon="5.13964">
        <ele>461.2</ele>
        <time>1970-01-01T00:26:46.000Z</time>
      </trkpt>
      <trkpt lat="44.73126" lon="5.13968">
        <ele>461.2</ele>
        <time>1970-01-01T00:26:47.000Z</time>
      </trkpt>
      <trkpt lat="44.7313" lon="5.13973">
        <ele>461.4</ele>
        <time>1970-01-01T00:26:48.000Z</time>
      </trkpt>
      <trkpt lat="44.73134" lon="5.13978">
        <ele>461.6</ele>
        <time>1970-01-01T00:26:49.000Z</time>
      </trkpt>
      <trkpt lat="44.73137" lon="5.13982">
        <ele>461.6</ele>
        <time>1970-01-01T00:26:50.000Z</time>
      </trkpt>
      <trkpt lat="44.73141" lon="5.13986">
        <ele>461.6</ele>
        <time>1970-01-01T00:26:51.000Z</time>
      </trkpt>
      <trkpt lat="44.73144" lon="5.1399">
        <ele>461.8</ele>
        <time>1970-01-01T00:26:52.000Z</time>
      </trkpt>
      <trkpt lat="44.73147" lon="5.13994">
        <ele>462</ele>
        <time>1970-01-01T00:26:53.000Z</time>
      </trkpt>
      <trkpt lat="44.7315" lon="5.13999">
        <ele>462</ele>
        <time>1970-01-01T00:26:54.000Z</time>
      </trkpt>
      <trkpt lat="44.73154" lon="5.14002">
        <ele>462</ele>
        <time>1970-01-01T00:26:55.000Z</time>
      </trkpt>
      <trkpt lat="44.73157" lon="5.14006">
        <ele>462.4</ele>
        <time>1970-01-01T00:26:56.000Z</time>
      </trkpt>
      <trkpt lat="44.73159" lon="5.14009">
        <ele>462.8</ele>
        <time>1970-01-01T00:26:57.000Z</time>
      </trkpt>
      <trkpt lat="44.73162" lon="5.14011">
        <ele>463</ele>
        <time>1970-01-01T00:26:58.000Z</time>
      </trkpt>
      <trkpt lat="44.73178" lon="5.14028">
        <ele>464</ele>
        <time>1970-01-01T00:27:03.000Z</time>
      </trkpt>
      <trkpt lat="44.73182" lon="5.14029">
        <ele>464.2</ele>
        <time>1970-01-01T00:27:04.000Z</time>
      </trkpt>
      <trkpt lat="44.73189" lon="5.14034">
        <ele>465</ele>
        <time>1970-01-01T00:27:06.000Z</time>
      </trkpt>
      <trkpt lat="44.73194" lon="5.14035">
        <ele>465.2</ele>
        <time>1970-01-01T00:27:07.000Z</time>
      </trkpt>
      <trkpt lat="44.73197" lon="5.14037">
        <ele>465.4</ele>
        <time>1970-01-01T00:27:08.000Z</time>
      </trkpt>
      <trkpt lat="44.732" lon="5.1404">
        <ele>465.4</ele>
        <time>1970-01-01T00:27:09.000Z</time>
      </trkpt>
      <trkpt lat="44.73207" lon="5.14045">
        <ele>465.4</ele>
        <time>1970-01-01T00:27:11.000Z</time>
      </trkpt>
      <trkpt lat="44.73211" lon="5.14047">
        <ele>465.4</ele>
        <time>1970-01-01T00:27:12.000Z</time>
      </trkpt>
      <trkpt lat="44.73214" lon="5.1405">
        <ele>465.4</ele>
        <time>1970-01-01T00:27:13.000Z</time>
      </trkpt>
      <trkpt lat="44.73218" lon="5.14053">
        <ele>465.4</ele>
        <time>1970-01-01T00:27:14.000Z</time>
      </trkpt>
      <trkpt lat="44.73222" lon="5.14055">
        <ele>465.2</ele>
        <time>1970-01-01T00:27:15.000Z</time>
      </trkpt>
      <trkpt lat="44.73226" lon="5.14058">
        <ele>465.2</ele>
        <time>1970-01-01T00:27:16.000Z</time>
      </trkpt>
      <trkpt lat="44.73229" lon="5.1406">
        <ele>465</ele>
        <time>1970-01-01T00:27:17.000Z</time>
      </trkpt>
      <trkpt lat="44.73233" lon="5.14063">
        <ele>465</ele>
        <time>1970-01-01T00:27:18.000Z</time>
      </trkpt>
      <trkpt lat="44.73236" lon="5.14066">
        <ele>464.8</ele>
        <time>1970-01-01T00:27:19.000Z</time>
      </trkpt>
      <trkpt lat="44.73239" lon="5.14072">
        <ele>464.6</ele>
        <time>1970-01-01T00:27:20.000Z</time>
      </trkpt>
      <trkpt lat="44.73242" lon="5.14077">
        <ele>464.6</ele>
        <time>1970-01-01T00:27:21.000Z</time>
      </trkpt>
      <trkpt lat="44.73246" lon="5.14082">
        <ele>464.6</ele>
        <time>1970-01-01T00:27:22.000Z</time>
      </trkpt>
      <trkpt lat="44.73253" lon="5.14093">
        <ele>464.6</ele>
        <time>1970-01-01T00:27:24.000Z</time>
      </trkpt>
      <trkpt lat="44.73258" lon="5.14099">
        <ele>464.4</ele>
        <time>1970-01-01T00:27:25.000Z</time>
      </trkpt>
      <trkpt lat="44.73262" lon="5.14104">
        <ele>464.2</ele>
        <time>1970-01-01T00:27:26.000Z</time>
      </trkpt>
      <trkpt lat="44.73265" lon="5.1411">
        <ele>464</ele>
        <time>1970-01-01T00:27:27.000Z</time>
      </trkpt>
      <trkpt lat="44.73269" lon="5.14122">
        <ele>463.8</ele>
        <time>1970-01-01T00:27:29.000Z</time>
      </trkpt>
      <trkpt lat="44.73272" lon="5.1413">
        <ele>463.8</ele>
        <time>1970-01-01T00:27:30.000Z</time>
      </trkpt>
      <trkpt lat="44.73281" lon="5.14156">
        <ele>462.4</ele>
        <time>1970-01-01T00:27:34.000Z</time>
      </trkpt>
      <trkpt lat="44.73289" lon="5.14168">
        <ele>461.8</ele>
        <time>1970-01-01T00:27:36.000Z</time>
      </trkpt>
      <trkpt lat="44.73293" lon="5.14175">
        <ele>461.2</ele>
        <time>1970-01-01T00:27:37.000Z</time>
      </trkpt>
      <trkpt lat="44.73296" lon="5.14183">
        <ele>460.2</ele>
        <time>1970-01-01T00:27:38.000Z</time>
      </trkpt>
      <trkpt lat="44.73301" lon="5.1419">
        <ele>459.6</ele>
        <time>1970-01-01T00:27:39.000Z</time>
      </trkpt>
      <trkpt lat="44.73311" lon="5.14204">
        <ele>457.8</ele>
        <time>1970-01-01T00:27:41.000Z</time>
      </trkpt>
      <trkpt lat="44.73316" lon="5.14211">
        <ele>457</ele>
        <time>1970-01-01T00:27:42.000Z</time>
      </trkpt>
      <trkpt lat="44.7332" lon="5.14217">
        <ele>456.4</ele>
        <time>1970-01-01T00:27:43.000Z</time>
      </trkpt>
      <trkpt lat="44.73322" lon="5.14223">
        <ele>455.6</ele>
        <time>1970-01-01T00:27:44.000Z</time>
      </trkpt>
      <trkpt lat="44.73322" lon="5.14228">
        <ele>454.8</ele>
        <time>1970-01-01T00:27:45.000Z</time>
      </trkpt>
      <trkpt lat="44.7332" lon="5.14233">
        <ele>454.4</ele>
        <time>1970-01-01T00:27:46.000Z</time>
      </trkpt>
      <trkpt lat="44.73317" lon="5.1424">
        <ele>453.4</ele>
        <time>1970-01-01T00:27:47.000Z</time>
      </trkpt>
      <trkpt lat="44.73315" lon="5.14249">
        <ele>452</ele>
        <time>1970-01-01T00:27:48.000Z</time>
      </trkpt>
      <trkpt lat="44.73316" lon="5.14257">
        <ele>451</ele>
        <time>1970-01-01T00:27:49.000Z</time>
      </trkpt>
      <trkpt lat="44.73317" lon="5.14266">
        <ele>450.2</ele>
        <time>1970-01-01T00:27:50.000Z</time>
      </trkpt>
      <trkpt lat="44.73319" lon="5.14273">
        <ele>449.6</ele>
        <time>1970-01-01T00:27:51.000Z</time>
      </trkpt>
      <trkpt lat="44.73321" lon="5.14281">
        <ele>448.6</ele>
        <time>1970-01-01T00:27:52.000Z</time>
      </trkpt>
      <trkpt lat="44.73324" lon="5.14288">
        <ele>448.2</ele>
        <time>1970-01-01T00:27:53.000Z</time>
      </trkpt>
      <trkpt lat="44.73332" lon="5.143">
        <ele>447.6</ele>
        <time>1970-01-01T00:27:55.000Z</time>
      </trkpt>
      <trkpt lat="44.73336" lon="5.14303">
        <ele>447.6</ele>
        <time>1970-01-01T00:27:56.000Z</time>
      </trkpt>
      <trkpt lat="44.7334" lon="5.14307">
        <ele>447.6</ele>
        <time>1970-01-01T00:27:57.000Z</time>
      </trkpt>
      <trkpt lat="44.73345" lon="5.1431">
        <ele>447.8</ele>
        <time>1970-01-01T00:27:58.000Z</time>
      </trkpt>
      <trkpt lat="44.73349" lon="5.14314">
        <ele>448</ele>
        <time>1970-01-01T00:27:59.000Z</time>
      </trkpt>
      <trkpt lat="44.73359" lon="5.14321">
        <ele>448.4</ele>
        <time>1970-01-01T00:28:01.000Z</time>
      </trkpt>
      <trkpt lat="44.73363" lon="5.14324">
        <ele>448.4</ele>
        <time>1970-01-01T00:28:02.000Z</time>
      </trkpt>
      <trkpt lat="44.73367" lon="5.14327">
        <ele>448.4</ele>
        <time>1970-01-01T00:28:03.000Z</time>
      </trkpt>
      <trkpt lat="44.7337" lon="5.1433">
        <ele>448.4</ele>
        <time>1970-01-01T00:28:04.000Z</time>
      </trkpt>
      <trkpt lat="44.73373" lon="5.14333">
        <ele>448.4</ele>
        <time>1970-01-01T00:28:05.000Z</time>
      </trkpt>
      <trkpt lat="44.73376" lon="5.14337">
        <ele>448.4</ele>
        <time>1970-01-01T00:28:06.000Z</time>
      </trkpt>
      <trkpt lat="44.73378" lon="5.14341">
        <ele>448.4</ele>
        <time>1970-01-01T00:28:07.000Z</time>
      </trkpt>
      <trkpt lat="44.7338" lon="5.14345">
        <ele>448.2</ele>
        <time>1970-01-01T00:28:08.000Z</time>
      </trkpt>
      <trkpt lat="44.7339" lon="5.14355">
        <ele>447.2</ele>
        <time>1970-01-01T00:28:11.000Z</time>
      </trkpt>
      <trkpt lat="44.73394" lon="5.14359">
        <ele>446.8</ele>
        <time>1970-01-01T00:28:12.000Z</time>
      </trkpt>
      <trkpt lat="44.73398" lon="5.14362">
        <ele>446.4</ele>
        <time>1970-01-01T00:28:13.000Z</time>
      </trkpt>
      <trkpt lat="44.73408" lon="5.14368">
        <ele>446</ele>
        <time>1970-01-01T00:28:15.000Z</time>
      </trkpt>
      <trkpt lat="44.73419" lon="5.14375">
        <ele>445.8</ele>
        <time>1970-01-01T00:28:17.000Z</time>
      </trkpt>
      <trkpt lat="44.73425" lon="5.14379">
        <ele>445.2</ele>
        <time>1970-01-01T00:28:18.000Z</time>
      </trkpt>
      <trkpt lat="44.73434" lon="5.14392">
        <ele>443.8</ele>
        <time>1970-01-01T00:28:20.000Z</time>
      </trkpt>
      <trkpt lat="44.73438" lon="5.14399">
        <ele>443.2</ele>
        <time>1970-01-01T00:28:21.000Z</time>
      </trkpt>
      <trkpt lat="44.73443" lon="5.14405">
        <ele>442.8</ele>
        <time>1970-01-01T00:28:22.000Z</time>
      </trkpt>
      <trkpt lat="44.73446" lon="5.14411">
        <ele>442.6</ele>
        <time>1970-01-01T00:28:23.000Z</time>
      </trkpt>
      <trkpt lat="44.73449" lon="5.14416">
        <ele>442.4</ele>
        <time>1970-01-01T00:28:24.000Z</time>
      </trkpt>
      <trkpt lat="44.73453" lon="5.1442">
        <ele>442.2</ele>
        <time>1970-01-01T00:28:25.000Z</time>
      </trkpt>
      <trkpt lat="44.73457" lon="5.14423">
        <ele>442.2</ele>
        <time>1970-01-01T00:28:26.000Z</time>
      </trkpt>
      <trkpt lat="44.73461" lon="5.14427">
        <ele>442.2</ele>
        <time>1970-01-01T00:28:27.000Z</time>
      </trkpt>
      <trkpt lat="44.73466" lon="5.1443">
        <ele>442.2</ele>
        <time>1970-01-01T00:28:28.000Z</time>
      </trkpt>
      <trkpt lat="44.7347" lon="5.14433">
        <ele>442</ele>
        <time>1970-01-01T00:28:29.000Z</time>
      </trkpt>
      <trkpt lat="44.73475" lon="5.14435">
        <ele>442</ele>
        <time>1970-01-01T00:28:30.000Z</time>
      </trkpt>
      <trkpt lat="44.73483" lon="5.14441">
        <ele>441.8</ele>
        <time>1970-01-01T00:28:32.000Z</time>
      </trkpt>
      <trkpt lat="44.73486" lon="5.14446">
        <ele>441.6</ele>
        <time>1970-01-01T00:28:33.000Z</time>
      </trkpt>
      <trkpt lat="44.73488" lon="5.14452">
        <ele>441.6</ele>
        <time>1970-01-01T00:28:34.000Z</time>
      </trkpt>
      <trkpt lat="44.7349" lon="5.14458">
        <ele>441.6</ele>
        <time>1970-01-01T00:28:35.000Z</time>
      </trkpt>
      <trkpt lat="44.73492" lon="5.14465">
        <ele>441.4</ele>
        <time>1970-01-01T00:28:36.000Z</time>
      </trkpt>
      <trkpt lat="44.735" lon="5.1448">
        <ele>440.4</ele>
        <time>1970-01-01T00:28:38.000Z</time>
      </trkpt>
      <trkpt lat="44.73504" lon="5.1449">
        <ele>438.8</ele>
        <time>1970-01-01T00:28:39.000Z</time>
      </trkpt>
      <trkpt lat="44.73509" lon="5.14499">
        <ele>437.2</ele>
        <time>1970-01-01T00:28:40.000Z</time>
      </trkpt>
      <trkpt lat="44.73514" lon="5.14508">
        <ele>436.2</ele>
        <time>1970-01-01T00:28:41.000Z</time>
      </trkpt>
      <trkpt lat="44.73525" lon="5.14528">
        <ele>434.2</ele>
        <time>1970-01-01T00:28:43.000Z</time>
      </trkpt>
      <trkpt lat="44.73535" lon="5.14547">
        <ele>433.4</ele>
        <time>1970-01-01T00:28:45.000Z</time>
      </trkpt>
      <trkpt lat="44.7354" lon="5.14556">
        <ele>433.2</ele>
        <time>1970-01-01T00:28:46.000Z</time>
      </trkpt>
      <trkpt lat="44.73544" lon="5.14567">
        <ele>433</ele>
        <time>1970-01-01T00:28:47.000Z</time>
      </trkpt>
      <trkpt lat="44.73548" lon="5.14577">
        <ele>432</ele>
        <time>1970-01-01T00:28:48.000Z</time>
      </trkpt>
      <trkpt lat="44.73552" lon="5.14587">
        <ele>429.6</ele>
        <time>1970-01-01T00:28:49.000Z</time>
      </trkpt>
      <trkpt lat="44.73555" lon="5.14597">
        <ele>427.8</ele>
        <time>1970-01-01T00:28:50.000Z</time>
      </trkpt>
      <trkpt lat="44.73559" lon="5.14605">
        <ele>426.8</ele>
        <time>1970-01-01T00:28:51.000Z</time>
      </trkpt>
      <trkpt lat="44.73562" lon="5.14613">
        <ele>426.2</ele>
        <time>1970-01-01T00:28:52.000Z</time>
      </trkpt>
      <trkpt lat="44.73564" lon="5.14623">
        <ele>425.6</ele>
        <time>1970-01-01T00:28:53.000Z</time>
      </trkpt>
      <trkpt lat="44.73565" lon="5.14634">
        <ele>425</ele>
        <time>1970-01-01T00:28:54.000Z</time>
      </trkpt>
      <trkpt lat="44.73566" lon="5.14644">
        <ele>424</ele>
        <time>1970-01-01T00:28:55.000Z</time>
      </trkpt>
      <trkpt lat="44.73566" lon="5.14654">
        <ele>423.6</ele>
        <time>1970-01-01T00:28:56.000Z</time>
      </trkpt>
      <trkpt lat="44.73568" lon="5.14663">
        <ele>423.2</ele>
        <time>1970-01-01T00:28:57.000Z</time>
      </trkpt>
      <trkpt lat="44.73571" lon="5.14669">
        <ele>423.4</ele>
        <time>1970-01-01T00:28:58.000Z</time>
      </trkpt>
      <trkpt lat="44.73573" lon="5.14675">
        <ele>423.4</ele>
        <time>1970-01-01T00:28:59.000Z</time>
      </trkpt>
      <trkpt lat="44.73574" lon="5.14682">
        <ele>423.4</ele>
        <time>1970-01-01T00:29:00.000Z</time>
      </trkpt>
      <trkpt lat="44.73576" lon="5.14696">
        <ele>423.8</ele>
        <time>1970-01-01T00:29:02.000Z</time>
      </trkpt>
      <trkpt lat="44.73577" lon="5.14703">
        <ele>423.6</ele>
        <time>1970-01-01T00:29:03.000Z</time>
      </trkpt>
      <trkpt lat="44.73582" lon="5.14716">
        <ele>423.2</ele>
        <time>1970-01-01T00:29:05.000Z</time>
      </trkpt>
      <trkpt lat="44.73585" lon="5.14722">
        <ele>423.2</ele>
        <time>1970-01-01T00:29:06.000Z</time>
      </trkpt>
      <trkpt lat="44.73589" lon="5.1473">
        <ele>422.2</ele>
        <time>1970-01-01T00:29:07.000Z</time>
      </trkpt>
      <trkpt lat="44.73591" lon="5.14739">
        <ele>421.8</ele>
        <time>1970-01-01T00:29:08.000Z</time>
      </trkpt>
      <trkpt lat="44.73591" lon="5.14748">
        <ele>421.6</ele>
        <time>1970-01-01T00:29:09.000Z</time>
      </trkpt>
      <trkpt lat="44.73589" lon="5.14755">
        <ele>421.4</ele>
        <time>1970-01-01T00:29:10.000Z</time>
      </trkpt>
      <trkpt lat="44.73586" lon="5.14759">
        <ele>421.4</ele>
        <time>1970-01-01T00:29:11.000Z</time>
      </trkpt>
      <trkpt lat="44.73583" lon="5.14761">
        <ele>421.2</ele>
        <time>1970-01-01T00:29:12.000Z</time>
      </trkpt>
      <trkpt lat="44.73579" lon="5.14762">
        <ele>420.6</ele>
        <time>1970-01-01T00:29:13.000Z</time>
      </trkpt>
      <trkpt lat="44.73577" lon="5.14764">
        <ele>420.2</ele>
        <time>1970-01-01T00:29:14.000Z</time>
      </trkpt>
      <trkpt lat="44.73575" lon="5.14766">
        <ele>420</ele>
        <time>1970-01-01T00:29:15.000Z</time>
      </trkpt>
      <trkpt lat="44.73573" lon="5.1477">
        <ele>419.8</ele>
        <time>1970-01-01T00:29:16.000Z</time>
      </trkpt>
      <trkpt lat="44.73573" lon="5.14775">
        <ele>419.6</ele>
        <time>1970-01-01T00:29:17.000Z</time>
      </trkpt>
      <trkpt lat="44.73575" lon="5.14778">
        <ele>419.6</ele>
        <time>1970-01-01T00:29:18.000Z</time>
      </trkpt>
      <trkpt lat="44.73576" lon="5.14779">
        <ele>419.4</ele>
        <time>1970-01-01T00:29:19.000Z</time>
      </trkpt>
      <trkpt lat="44.73577" lon="5.14778">
        <ele>419.4</ele>
        <time>1970-01-01T00:29:20.000Z</time>
      </trkpt>
      <trkpt lat="44.73582" lon="5.14774">
        <ele>419.8</ele>
        <time>1970-01-01T00:29:22.000Z</time>
      </trkpt>
      <trkpt lat="44.73584" lon="5.14773">
        <ele>420</ele>
        <time>1970-01-01T00:29:23.000Z</time>
      </trkpt>
      <trkpt lat="44.73587" lon="5.14772">
        <ele>420.2</ele>
        <time>1970-01-01T00:29:24.000Z</time>
      </trkpt>
      <trkpt lat="44.73595" lon="5.1477">
        <ele>420.8</ele>
        <time>1970-01-01T00:29:27.000Z</time>
      </trkpt>
      <trkpt lat="44.73598" lon="5.14768">
        <ele>421</ele>
        <time>1970-01-01T00:29:28.000Z</time>
      </trkpt>
      <trkpt lat="44.736" lon="5.14768">
        <ele>421</ele>
        <time>1970-01-01T00:29:29.000Z</time>
      </trkpt>
      <trkpt lat="44.73603" lon="5.14768">
        <ele>421.2</ele>
        <time>1970-01-01T00:29:30.000Z</time>
      </trkpt>
      <trkpt lat="44.73605" lon="5.14769">
        <ele>421.4</ele>
        <time>1970-01-01T00:29:31.000Z</time>
      </trkpt>
      <trkpt lat="44.73606" lon="5.14771">
        <ele>421.6</ele>
        <time>1970-01-01T00:29:32.000Z</time>
      </trkpt>
      <trkpt lat="44.73607" lon="5.14774">
        <ele>421.8</ele>
        <time>1970-01-01T00:29:33.000Z</time>
      </trkpt>
      <trkpt lat="44.73608" lon="5.14781">
        <ele>422.4</ele>
        <time>1970-01-01T00:29:35.000Z</time>
      </trkpt>
      <trkpt lat="44.73608" lon="5.14786">
        <ele>422.6</ele>
        <time>1970-01-01T00:29:36.000Z</time>
      </trkpt>
      <trkpt lat="44.73607" lon="5.14789">
        <ele>422.8</ele>
        <time>1970-01-01T00:29:37.000Z</time>
      </trkpt>
      <trkpt lat="44.73606" lon="5.14792">
        <ele>423.4</ele>
        <time>1970-01-01T00:29:38.000Z</time>
      </trkpt>
      <trkpt lat="44.73606" lon="5.14796">
        <ele>424</ele>
        <time>1970-01-01T00:29:39.000Z</time>
      </trkpt>
      <trkpt lat="44.73605" lon="5.148">
        <ele>424.6</ele>
        <time>1970-01-01T00:29:40.000Z</time>
      </trkpt>
      <trkpt lat="44.73606" lon="5.14803">
        <ele>425.2</ele>
        <time>1970-01-01T00:29:41.000Z</time>
      </trkpt>
      <trkpt lat="44.73607" lon="5.14805">
        <ele>425.6</ele>
        <time>1970-01-01T00:29:42.000Z</time>
      </trkpt>
      <trkpt lat="44.73608" lon="5.14807">
        <ele>426</ele>
        <time>1970-01-01T00:29:43.000Z</time>
      </trkpt>
      <trkpt lat="44.73609" lon="5.1481">
        <ele>426.4</ele>
        <time>1970-01-01T00:29:44.000Z</time>
      </trkpt>
      <trkpt lat="44.7361" lon="5.14813">
        <ele>426.8</ele>
        <time>1970-01-01T00:29:45.000Z</time>
      </trkpt>
      <trkpt lat="44.7361" lon="5.14816">
        <ele>427</ele>
        <time>1970-01-01T00:29:46.000Z</time>
      </trkpt>
      <trkpt lat="44.73611" lon="5.14818">
        <ele>427.2</ele>
        <time>1970-01-01T00:29:47.000Z</time>
      </trkpt>
      <trkpt lat="44.73612" lon="5.14821">
        <ele>427.6</ele>
        <time>1970-01-01T00:29:48.000Z</time>
      </trkpt>
      <trkpt lat="44.73613" lon="5.14824">
        <ele>428</ele>
        <time>1970-01-01T00:29:49.000Z</time>
      </trkpt>
      <trkpt lat="44.73614" lon="5.14827">
        <ele>428.4</ele>
        <time>1970-01-01T00:29:50.000Z</time>
      </trkpt>
      <trkpt lat="44.73616" lon="5.1483">
        <ele>428.6</ele>
        <time>1970-01-01T00:29:51.000Z</time>
      </trkpt>
      <trkpt lat="44.73618" lon="5.14832">
        <ele>428.8</ele>
        <time>1970-01-01T00:29:52.000Z</time>
      </trkpt>
      <trkpt lat="44.7362" lon="5.14834">
        <ele>428.8</ele>
        <time>1970-01-01T00:29:53.000Z</time>
      </trkpt>
      <trkpt lat="44.73621" lon="5.14836">
        <ele>429.6</ele>
        <time>1970-01-01T00:29:54.000Z</time>
      </trkpt>
      <trkpt lat="44.73622" lon="5.14838">
        <ele>430.2</ele>
        <time>1970-01-01T00:29:55.000Z</time>
      </trkpt>
      <trkpt lat="44.73624" lon="5.14842">
        <ele>430.6</ele>
        <time>1970-01-01T00:29:56.000Z</time>
      </trkpt>
      <trkpt lat="44.73626" lon="5.14844">
        <ele>431.2</ele>
        <time>1970-01-01T00:29:57.000Z</time>
      </trkpt>
      <trkpt lat="44.73628" lon="5.14845">
        <ele>431.6</ele>
        <time>1970-01-01T00:29:58.000Z</time>
      </trkpt>
      <trkpt lat="44.7363" lon="5.14847">
        <ele>432.4</ele>
        <time>1970-01-01T00:29:59.000Z</time>
      </trkpt>
      <trkpt lat="44.73631" lon="5.14849">
        <ele>433.4</ele>
        <time>1970-01-01T00:30:00.000Z</time>
      </trkpt>
      <trkpt lat="44.73632" lon="5.14852">
        <ele>434</ele>
        <time>1970-01-01T00:30:01.000Z</time>
      </trkpt>
      <trkpt lat="44.73632" lon="5.14855">
        <ele>434.4</ele>
        <time>1970-01-01T00:30:02.000Z</time>
      </trkpt>
      <trkpt lat="44.73632" lon="5.14858">
        <ele>434.6</ele>
        <time>1970-01-01T00:30:03.000Z</time>
      </trkpt>
      <trkpt lat="44.73632" lon="5.14861">
        <ele>434.8</ele>
        <time>1970-01-01T00:30:04.000Z</time>
      </trkpt>
      <trkpt lat="44.73633" lon="5.14864">
        <ele>435</ele>
        <time>1970-01-01T00:30:05.000Z</time>
      </trkpt>
      <trkpt lat="44.73634" lon="5.14867">
        <ele>435</ele>
        <time>1970-01-01T00:30:06.000Z</time>
      </trkpt>
      <trkpt lat="44.73635" lon="5.1487">
        <ele>435</ele>
        <time>1970-01-01T00:30:07.000Z</time>
      </trkpt>
      <trkpt lat="44.73635" lon="5.14872">
        <ele>435.2</ele>
        <time>1970-01-01T00:30:08.000Z</time>
      </trkpt>
      <trkpt lat="44.73635" lon="5.14876">
        <ele>435.2</ele>
        <time>1970-01-01T00:30:09.000Z</time>
      </trkpt>
      <trkpt lat="44.73634" lon="5.14879">
        <ele>435.4</ele>
        <time>1970-01-01T00:30:10.000Z</time>
      </trkpt>
      <trkpt lat="44.73634" lon="5.14883">
        <ele>435.4</ele>
        <time>1970-01-01T00:30:11.000Z</time>
      </trkpt>
      <trkpt lat="44.73635" lon="5.14887">
        <ele>435.6</ele>
        <time>1970-01-01T00:30:12.000Z</time>
      </trkpt>
      <trkpt lat="44.73636" lon="5.14888">
        <ele>436.2</ele>
        <time>1970-01-01T00:30:13.000Z</time>
      </trkpt>
      <trkpt lat="44.73639" lon="5.14889">
        <ele>436.6</ele>
        <time>1970-01-01T00:30:14.000Z</time>
      </trkpt>
      <trkpt lat="44.73642" lon="5.1489">
        <ele>437.4</ele>
        <time>1970-01-01T00:30:16.000Z</time>
      </trkpt>
      <trkpt lat="44.73644" lon="5.14893">
        <ele>437.8</ele>
        <time>1970-01-01T00:30:17.000Z</time>
      </trkpt>
      <trkpt lat="44.73644" lon="5.14896">
        <ele>438</ele>
        <time>1970-01-01T00:30:18.000Z</time>
      </trkpt>
      <trkpt lat="44.73645" lon="5.14899">
        <ele>438.4</ele>
        <time>1970-01-01T00:30:19.000Z</time>
      </trkpt>
      <trkpt lat="44.73646" lon="5.14902">
        <ele>438.4</ele>
        <time>1970-01-01T00:30:20.000Z</time>
      </trkpt>
      <trkpt lat="44.73648" lon="5.14904">
        <ele>438.6</ele>
        <time>1970-01-01T00:30:21.000Z</time>
      </trkpt>
      <trkpt lat="44.7365" lon="5.14907">
        <ele>439</ele>
        <time>1970-01-01T00:30:22.000Z</time>
      </trkpt>
      <trkpt lat="44.7365" lon="5.1491">
        <ele>439.4</ele>
        <time>1970-01-01T00:30:23.000Z</time>
      </trkpt>
      <trkpt lat="44.73651" lon="5.14913">
        <ele>439.6</ele>
        <time>1970-01-01T00:30:24.000Z</time>
      </trkpt>
      <trkpt lat="44.73653" lon="5.14916">
        <ele>439.8</ele>
        <time>1970-01-01T00:30:25.000Z</time>
      </trkpt>
      <trkpt lat="44.73655" lon="5.14919">
        <ele>440</ele>
        <time>1970-01-01T00:30:26.000Z</time>
      </trkpt>
      <trkpt lat="44.73657" lon="5.14922">
        <ele>440</ele>
        <time>1970-01-01T00:30:27.000Z</time>
      </trkpt>
      <trkpt lat="44.73659" lon="5.14924">
        <ele>440</ele>
        <time>1970-01-01T00:30:28.000Z</time>
      </trkpt>
      <trkpt lat="44.7366" lon="5.14927">
        <ele>440.2</ele>
        <time>1970-01-01T00:30:29.000Z</time>
      </trkpt>
      <trkpt lat="44.73662" lon="5.14929">
        <ele>440.2</ele>
        <time>1970-01-01T00:30:30.000Z</time>
      </trkpt>
      <trkpt lat="44.73664" lon="5.14931">
        <ele>440.2</ele>
        <time>1970-01-01T00:30:31.000Z</time>
      </trkpt>
      <trkpt lat="44.73667" lon="5.14933">
        <ele>440.4</ele>
        <time>1970-01-01T00:30:32.000Z</time>
      </trkpt>
      <trkpt lat="44.73669" lon="5.14935">
        <ele>440.6</ele>
        <time>1970-01-01T00:30:33.000Z</time>
      </trkpt>
      <trkpt lat="44.73672" lon="5.14937">
        <ele>440.8</ele>
        <time>1970-01-01T00:30:34.000Z</time>
      </trkpt>
      <trkpt lat="44.73674" lon="5.14939">
        <ele>441</ele>
        <time>1970-01-01T00:30:35.000Z</time>
      </trkpt>
      <trkpt lat="44.73676" lon="5.14941">
        <ele>441.8</ele>
        <time>1970-01-01T00:30:36.000Z</time>
      </trkpt>
      <trkpt lat="44.73678" lon="5.14943">
        <ele>442.2</ele>
        <time>1970-01-01T00:30:37.000Z</time>
      </trkpt>
      <trkpt lat="44.73681" lon="5.14945">
        <ele>442.6</ele>
        <time>1970-01-01T00:30:38.000Z</time>
      </trkpt>
      <trkpt lat="44.73683" lon="5.14947">
        <ele>443</ele>
        <time>1970-01-01T00:30:39.000Z</time>
      </trkpt>
      <trkpt lat="44.73684" lon="5.1495">
        <ele>443.6</ele>
        <time>1970-01-01T00:30:40.000Z</time>
      </trkpt>
      <trkpt lat="44.73686" lon="5.14952">
        <ele>443.8</ele>
        <time>1970-01-01T00:30:41.000Z</time>
      </trkpt>
      <trkpt lat="44.73689" lon="5.14954">
        <ele>444</ele>
        <time>1970-01-01T00:30:42.000Z</time>
      </trkpt>
      <trkpt lat="44.73691" lon="5.14956">
        <ele>444.4</ele>
        <time>1970-01-01T00:30:43.000Z</time>
      </trkpt>
      <trkpt lat="44.73692" lon="5.14958">
        <ele>444.6</ele>
        <time>1970-01-01T00:30:44.000Z</time>
      </trkpt>
      <trkpt lat="44.73694" lon="5.1496">
        <ele>444.8</ele>
        <time>1970-01-01T00:30:45.000Z</time>
      </trkpt>
      <trkpt lat="44.73696" lon="5.14963">
        <ele>444.8</ele>
        <time>1970-01-01T00:30:46.000Z</time>
      </trkpt>
      <trkpt lat="44.73698" lon="5.14966">
        <ele>445</ele>
        <time>1970-01-01T00:30:47.000Z</time>
      </trkpt>
      <trkpt lat="44.73698" lon="5.14967">
        <ele>445.8</ele>
        <time>1970-01-01T00:30:48.000Z</time>
      </trkpt>
      <trkpt lat="44.73699" lon="5.14968">
        <ele>446.8</ele>
        <time>1970-01-01T00:30:50.000Z</time>
      </trkpt>
      <trkpt lat="44.73699" lon="5.14968">
        <ele>447.4</ele>
        <time>1970-01-01T00:30:51.000Z</time>
      </trkpt>
      <trkpt lat="44.737" lon="5.14969">
        <ele>447.6</ele>
        <time>1970-01-01T00:30:52.000Z</time>
      </trkpt>
      <trkpt lat="44.73701" lon="5.1497">
        <ele>447.8</ele>
        <time>1970-01-01T00:30:53.000Z</time>
      </trkpt>
      <trkpt lat="44.73702" lon="5.14971">
        <ele>447.8</ele>
        <time>1970-01-01T00:30:54.000Z</time>
      </trkpt>
      <trkpt lat="44.73704" lon="5.14976">
        <ele>448</ele>
        <time>1970-01-01T00:30:56.000Z</time>
      </trkpt>
      <trkpt lat="44.73705" lon="5.14979">
        <ele>448.2</ele>
        <time>1970-01-01T00:30:57.000Z</time>
      </trkpt>
      <trkpt lat="44.73706" lon="5.14982">
        <ele>448.2</ele>
        <time>1970-01-01T00:30:58.000Z</time>
      </trkpt>
      <trkpt lat="44.73708" lon="5.14985">
        <ele>448.4</ele>
        <time>1970-01-01T00:30:59.000Z</time>
      </trkpt>
      <trkpt lat="44.7371" lon="5.14987">
        <ele>448.4</ele>
        <time>1970-01-01T00:31:00.000Z</time>
      </trkpt>
      <trkpt lat="44.73712" lon="5.14989">
        <ele>448.8</ele>
        <time>1970-01-01T00:31:01.000Z</time>
      </trkpt>
      <trkpt lat="44.73714" lon="5.14992">
        <ele>449</ele>
        <time>1970-01-01T00:31:02.000Z</time>
      </trkpt>
      <trkpt lat="44.73716" lon="5.14995">
        <ele>449.2</ele>
        <time>1970-01-01T00:31:03.000Z</time>
      </trkpt>
      <trkpt lat="44.73717" lon="5.14997">
        <ele>449.4</ele>
        <time>1970-01-01T00:31:04.000Z</time>
      </trkpt>
      <trkpt lat="44.73718" lon="5.15">
        <ele>449.8</ele>
        <time>1970-01-01T00:31:05.000Z</time>
      </trkpt>
      <trkpt lat="44.73719" lon="5.15003">
        <ele>450.4</ele>
        <time>1970-01-01T00:31:06.000Z</time>
      </trkpt>
      <trkpt lat="44.73721" lon="5.15006">
        <ele>450.8</ele>
        <time>1970-01-01T00:31:07.000Z</time>
      </trkpt>
      <trkpt lat="44.73722" lon="5.15009">
        <ele>451.2</ele>
        <time>1970-01-01T00:31:08.000Z</time>
      </trkpt>
      <trkpt lat="44.73723" lon="5.15012">
        <ele>451.8</ele>
        <time>1970-01-01T00:31:09.000Z</time>
      </trkpt>
      <trkpt lat="44.73726" lon="5.15017">
        <ele>452.8</ele>
        <time>1970-01-01T00:31:11.000Z</time>
      </trkpt>
      <trkpt lat="44.73728" lon="5.15019">
        <ele>453.4</ele>
        <time>1970-01-01T00:31:12.000Z</time>
      </trkpt>
      <trkpt lat="44.7373" lon="5.15021">
        <ele>453.8</ele>
        <time>1970-01-01T00:31:13.000Z</time>
      </trkpt>
      <trkpt lat="44.73732" lon="5.15023">
        <ele>454.4</ele>
        <time>1970-01-01T00:31:14.000Z</time>
      </trkpt>
      <trkpt lat="44.73733" lon="5.15024">
        <ele>454.8</ele>
        <time>1970-01-01T00:31:15.000Z</time>
      </trkpt>
      <trkpt lat="44.73734" lon="5.15025">
        <ele>455.6</ele>
        <time>1970-01-01T00:31:17.000Z</time>
      </trkpt>
      <trkpt lat="44.73734" lon="5.15025">
        <ele>455.6</ele>
        <time>1970-01-01T00:31:18.000Z</time>
      </trkpt>
      <trkpt lat="44.73735" lon="5.15025">
        <ele>455.8</ele>
        <time>1970-01-01T00:31:25.000Z</time>
      </trkpt>
      <trkpt lat="44.73736" lon="5.15026">
        <ele>456</ele>
        <time>1970-01-01T00:31:26.000Z</time>
      </trkpt>
      <trkpt lat="44.73738" lon="5.15028">
        <ele>456</ele>
        <time>1970-01-01T00:31:27.000Z</time>
      </trkpt>
      <trkpt lat="44.73739" lon="5.15031">
        <ele>456</ele>
        <time>1970-01-01T00:31:28.000Z</time>
      </trkpt>
      <trkpt lat="44.7374" lon="5.15034">
        <ele>456.2</ele>
        <time>1970-01-01T00:31:29.000Z</time>
      </trkpt>
      <trkpt lat="44.73742" lon="5.15037">
        <ele>456.6</ele>
        <time>1970-01-01T00:31:30.000Z</time>
      </trkpt>
      <trkpt lat="44.73744" lon="5.1504">
        <ele>457</ele>
        <time>1970-01-01T00:31:31.000Z</time>
      </trkpt>
      <trkpt lat="44.73746" lon="5.15043">
        <ele>457.4</ele>
        <time>1970-01-01T00:31:32.000Z</time>
      </trkpt>
      <trkpt lat="44.73748" lon="5.15045">
        <ele>458</ele>
        <time>1970-01-01T00:31:33.000Z</time>
      </trkpt>
      <trkpt lat="44.7375" lon="5.15048">
        <ele>458.4</ele>
        <time>1970-01-01T00:31:34.000Z</time>
      </trkpt>
      <trkpt lat="44.73752" lon="5.1505">
        <ele>459</ele>
        <time>1970-01-01T00:31:35.000Z</time>
      </trkpt>
      <trkpt lat="44.73753" lon="5.15053">
        <ele>459.2</ele>
        <time>1970-01-01T00:31:36.000Z</time>
      </trkpt>
      <trkpt lat="44.73755" lon="5.15056">
        <ele>459.6</ele>
        <time>1970-01-01T00:31:37.000Z</time>
      </trkpt>
      <trkpt lat="44.73757" lon="5.15059">
        <ele>459.8</ele>
        <time>1970-01-01T00:31:38.000Z</time>
      </trkpt>
      <trkpt lat="44.73759" lon="5.15061">
        <ele>460.2</ele>
        <time>1970-01-01T00:31:39.000Z</time>
      </trkpt>
      <trkpt lat="44.7376" lon="5.15063">
        <ele>460.4</ele>
        <time>1970-01-01T00:31:40.000Z</time>
      </trkpt>
      <trkpt lat="44.73762" lon="5.15065">
        <ele>460.4</ele>
        <time>1970-01-01T00:31:41.000Z</time>
      </trkpt>
      <trkpt lat="44.73764" lon="5.15067">
        <ele>461</ele>
        <time>1970-01-01T00:31:42.000Z</time>
      </trkpt>
      <trkpt lat="44.73766" lon="5.15068">
        <ele>461.4</ele>
        <time>1970-01-01T00:31:43.000Z</time>
      </trkpt>
      <trkpt lat="44.73766" lon="5.15069">
        <ele>463</ele>
        <time>1970-01-01T00:31:45.000Z</time>
      </trkpt>
      <trkpt lat="44.73767" lon="5.15072">
        <ele>463</ele>
        <time>1970-01-01T00:31:48.000Z</time>
      </trkpt>
      <trkpt lat="44.73767" lon="5.15073">
        <ele>463</ele>
        <time>1970-01-01T00:31:49.000Z</time>
      </trkpt>
      <trkpt lat="44.73767" lon="5.15076">
        <ele>463</ele>
        <time>1970-01-01T00:31:50.000Z</time>
      </trkpt>
      <trkpt lat="44.73767" lon="5.15079">
        <ele>463</ele>
        <time>1970-01-01T00:31:51.000Z</time>
      </trkpt>
      <trkpt lat="44.73767" lon="5.15082">
        <ele>463</ele>
        <time>1970-01-01T00:31:52.000Z</time>
      </trkpt>
      <trkpt lat="44.73768" lon="5.15085">
        <ele>463.2</ele>
        <time>1970-01-01T00:31:53.000Z</time>
      </trkpt>
      <trkpt lat="44.73769" lon="5.15089">
        <ele>463.2</ele>
        <time>1970-01-01T00:31:54.000Z</time>
      </trkpt>
      <trkpt lat="44.73769" lon="5.15094">
        <ele>463.4</ele>
        <time>1970-01-01T00:31:55.000Z</time>
      </trkpt>
      <trkpt lat="44.7377" lon="5.15098">
        <ele>463.6</ele>
        <time>1970-01-01T00:31:56.000Z</time>
      </trkpt>
      <trkpt lat="44.73771" lon="5.15103">
        <ele>463.6</ele>
        <time>1970-01-01T00:31:57.000Z</time>
      </trkpt>
      <trkpt lat="44.73772" lon="5.15107">
        <ele>463.8</ele>
        <time>1970-01-01T00:31:58.000Z</time>
      </trkpt>
      <trkpt lat="44.73772" lon="5.15112">
        <ele>464.2</ele>
        <time>1970-01-01T00:31:59.000Z</time>
      </trkpt>
      <trkpt lat="44.73774" lon="5.15116">
        <ele>464.4</ele>
        <time>1970-01-01T00:32:00.000Z</time>
      </trkpt>
      <trkpt lat="44.73775" lon="5.15119">
        <ele>464.6</ele>
        <time>1970-01-01T00:32:01.000Z</time>
      </trkpt>
      <trkpt lat="44.73776" lon="5.15123">
        <ele>464.8</ele>
        <time>1970-01-01T00:32:02.000Z</time>
      </trkpt>
      <trkpt lat="44.73777" lon="5.15128">
        <ele>465</ele>
        <time>1970-01-01T00:32:03.000Z</time>
      </trkpt>
      <trkpt lat="44.73779" lon="5.15132">
        <ele>465.4</ele>
        <time>1970-01-01T00:32:04.000Z</time>
      </trkpt>
      <trkpt lat="44.7378" lon="5.15136">
        <ele>465.8</ele>
        <time>1970-01-01T00:32:05.000Z</time>
      </trkpt>
      <trkpt lat="44.73782" lon="5.15139">
        <ele>466</ele>
        <time>1970-01-01T00:32:06.000Z</time>
      </trkpt>
      <trkpt lat="44.73783" lon="5.15143">
        <ele>466.2</ele>
        <time>1970-01-01T00:32:07.000Z</time>
      </trkpt>
      <trkpt lat="44.73785" lon="5.15146">
        <ele>466.6</ele>
        <time>1970-01-01T00:32:08.000Z</time>
      </trkpt>
      <trkpt lat="44.73786" lon="5.15149">
        <ele>467</ele>
        <time>1970-01-01T00:32:09.000Z</time>
      </trkpt>
      <trkpt lat="44.73788" lon="5.15151">
        <ele>467.2</ele>
        <time>1970-01-01T00:32:10.000Z</time>
      </trkpt>
      <trkpt lat="44.73791" lon="5.15153">
        <ele>467.4</ele>
        <time>1970-01-01T00:32:11.000Z</time>
      </trkpt>
      <trkpt lat="44.73793" lon="5.15155">
        <ele>467.6</ele>
        <time>1970-01-01T00:32:12.000Z</time>
      </trkpt>
      <trkpt lat="44.73795" lon="5.15157">
        <ele>467.6</ele>
        <time>1970-01-01T00:32:13.000Z</time>
      </trkpt>
      <trkpt lat="44.73796" lon="5.1516">
        <ele>467.8</ele>
        <time>1970-01-01T00:32:14.000Z</time>
      </trkpt>
      <trkpt lat="44.73798" lon="5.15163">
        <ele>468</ele>
        <time>1970-01-01T00:32:15.000Z</time>
      </trkpt>
      <trkpt lat="44.73798" lon="5.15166">
        <ele>468.2</ele>
        <time>1970-01-01T00:32:16.000Z</time>
      </trkpt>
      <trkpt lat="44.73799" lon="5.1517">
        <ele>468.2</ele>
        <time>1970-01-01T00:32:17.000Z</time>
      </trkpt>
      <trkpt lat="44.738" lon="5.15172">
        <ele>468.4</ele>
        <time>1970-01-01T00:32:18.000Z</time>
      </trkpt>
      <trkpt lat="44.73801" lon="5.15174">
        <ele>468.4</ele>
        <time>1970-01-01T00:32:19.000Z</time>
      </trkpt>
      <trkpt lat="44.73804" lon="5.15179">
        <ele>468.6</ele>
        <time>1970-01-01T00:32:21.000Z</time>
      </trkpt>
      <trkpt lat="44.73805" lon="5.15182">
        <ele>468.6</ele>
        <time>1970-01-01T00:32:22.000Z</time>
      </trkpt>
      <trkpt lat="44.73807" lon="5.15184">
        <ele>468.8</ele>
        <time>1970-01-01T00:32:23.000Z</time>
      </trkpt>
      <trkpt lat="44.73809" lon="5.15185">
        <ele>468.6</ele>
        <time>1970-01-01T00:32:24.000Z</time>
      </trkpt>
      <trkpt lat="44.7381" lon="5.15187">
        <ele>468.6</ele>
        <time>1970-01-01T00:32:25.000Z</time>
      </trkpt>
      <trkpt lat="44.73812" lon="5.15188">
        <ele>468.4</ele>
        <time>1970-01-01T00:32:26.000Z</time>
      </trkpt>
      <trkpt lat="44.73814" lon="5.1519">
        <ele>468.4</ele>
        <time>1970-01-01T00:32:27.000Z</time>
      </trkpt>
      <trkpt lat="44.73814" lon="5.15191">
        <ele>468.4</ele>
        <time>1970-01-01T00:32:29.000Z</time>
      </trkpt>
      <trkpt lat="44.73817" lon="5.15194">
        <ele>467.4</ele>
        <time>1970-01-01T00:39:57.000Z</time>
      </trkpt>
      <trkpt lat="44.73819" lon="5.15196">
        <ele>467.4</ele>
        <time>1970-01-01T00:39:58.000Z</time>
      </trkpt>
      <trkpt lat="44.73822" lon="5.15199">
        <ele>467.4</ele>
        <time>1970-01-01T00:39:59.000Z</time>
      </trkpt>
      <trkpt lat="44.7383" lon="5.15205">
        <ele>467.4</ele>
        <time>1970-01-01T00:40:01.000Z</time>
      </trkpt>
      <trkpt lat="44.73839" lon="5.15211">
        <ele>467</ele>
        <time>1970-01-01T00:40:03.000Z</time>
      </trkpt>
      <trkpt lat="44.73843" lon="5.15213">
        <ele>465.6</ele>
        <time>1970-01-01T00:40:04.000Z</time>
      </trkpt>
      <trkpt lat="44.73856" lon="5.15214">
        <ele>464.2</ele>
        <time>1970-01-01T00:40:06.000Z</time>
      </trkpt>
      <trkpt lat="44.73862" lon="5.15212">
        <ele>463.4</ele>
        <time>1970-01-01T00:40:07.000Z</time>
      </trkpt>
      <trkpt lat="44.73867" lon="5.1521">
        <ele>462.4</ele>
        <time>1970-01-01T00:40:08.000Z</time>
      </trkpt>
      <trkpt lat="44.73871" lon="5.1521">
        <ele>461.8</ele>
        <time>1970-01-01T00:40:09.000Z</time>
      </trkpt>
      <trkpt lat="44.73877" lon="5.15212">
        <ele>461</ele>
        <time>1970-01-01T00:40:10.000Z</time>
      </trkpt>
      <trkpt lat="44.73883" lon="5.15216">
        <ele>459.8</ele>
        <time>1970-01-01T00:40:11.000Z</time>
      </trkpt>
      <trkpt lat="44.73888" lon="5.15219">
        <ele>458.8</ele>
        <time>1970-01-01T00:40:12.000Z</time>
      </trkpt>
      <trkpt lat="44.73893" lon="5.15222">
        <ele>457.8</ele>
        <time>1970-01-01T00:40:13.000Z</time>
      </trkpt>
      <trkpt lat="44.73899" lon="5.15226">
        <ele>457.2</ele>
        <time>1970-01-01T00:40:14.000Z</time>
      </trkpt>
      <trkpt lat="44.73905" lon="5.15231">
        <ele>456.8</ele>
        <time>1970-01-01T00:40:15.000Z</time>
      </trkpt>
      <trkpt lat="44.73908" lon="5.15235">
        <ele>456.2</ele>
        <time>1970-01-01T00:40:16.000Z</time>
      </trkpt>
      <trkpt lat="44.73912" lon="5.15239">
        <ele>455.2</ele>
        <time>1970-01-01T00:40:17.000Z</time>
      </trkpt>
      <trkpt lat="44.73918" lon="5.15242">
        <ele>454.6</ele>
        <time>1970-01-01T00:40:18.000Z</time>
      </trkpt>
      <trkpt lat="44.73923" lon="5.15245">
        <ele>454</ele>
        <time>1970-01-01T00:40:19.000Z</time>
      </trkpt>
      <trkpt lat="44.73936" lon="5.15252">
        <ele>452.8</ele>
        <time>1970-01-01T00:40:21.000Z</time>
      </trkpt>
      <trkpt lat="44.73946" lon="5.15256">
        <ele>452</ele>
        <time>1970-01-01T00:40:23.000Z</time>
      </trkpt>
      <trkpt lat="44.73952" lon="5.15259">
        <ele>451.8</ele>
        <time>1970-01-01T00:40:24.000Z</time>
      </trkpt>
      <trkpt lat="44.73958" lon="5.15262">
        <ele>451.8</ele>
        <time>1970-01-01T00:40:25.000Z</time>
      </trkpt>
      <trkpt lat="44.73971" lon="5.15269">
        <ele>451</ele>
        <time>1970-01-01T00:40:27.000Z</time>
      </trkpt>
      <trkpt lat="44.73976" lon="5.15272">
        <ele>450.6</ele>
        <time>1970-01-01T00:40:28.000Z</time>
      </trkpt>
      <trkpt lat="44.73989" lon="5.15281">
        <ele>449.8</ele>
        <time>1970-01-01T00:40:30.000Z</time>
      </trkpt>
      <trkpt lat="44.73995" lon="5.15286">
        <ele>449.4</ele>
        <time>1970-01-01T00:40:31.000Z</time>
      </trkpt>
      <trkpt lat="44.74" lon="5.15289">
        <ele>449.2</ele>
        <time>1970-01-01T00:40:32.000Z</time>
      </trkpt>
      <trkpt lat="44.74006" lon="5.15293">
        <ele>448.8</ele>
        <time>1970-01-01T00:40:33.000Z</time>
      </trkpt>
      <trkpt lat="44.74011" lon="5.15299">
        <ele>448.6</ele>
        <time>1970-01-01T00:40:34.000Z</time>
      </trkpt>
      <trkpt lat="44.74013" lon="5.15303">
        <ele>448.4</ele>
        <time>1970-01-01T00:40:35.000Z</time>
      </trkpt>
      <trkpt lat="44.74016" lon="5.15309">
        <ele>448.4</ele>
        <time>1970-01-01T00:40:36.000Z</time>
      </trkpt>
      <trkpt lat="44.74017" lon="5.15315">
        <ele>448.4</ele>
        <time>1970-01-01T00:40:37.000Z</time>
      </trkpt>
      <trkpt lat="44.74018" lon="5.15321">
        <ele>448.8</ele>
        <time>1970-01-01T00:40:38.000Z</time>
      </trkpt>
      <trkpt lat="44.74019" lon="5.15326">
        <ele>448.8</ele>
        <time>1970-01-01T00:40:39.000Z</time>
      </trkpt>
      <trkpt lat="44.7402" lon="5.1533">
        <ele>449.2</ele>
        <time>1970-01-01T00:40:40.000Z</time>
      </trkpt>
      <trkpt lat="44.7402" lon="5.15334">
        <ele>449.4</ele>
        <time>1970-01-01T00:40:41.000Z</time>
      </trkpt>
      <trkpt lat="44.74021" lon="5.15338">
        <ele>449.6</ele>
        <time>1970-01-01T00:40:42.000Z</time>
      </trkpt>
      <trkpt lat="44.74022" lon="5.15342">
        <ele>449.8</ele>
        <time>1970-01-01T00:40:43.000Z</time>
      </trkpt>
      <trkpt lat="44.74022" lon="5.15345">
        <ele>450</ele>
        <time>1970-01-01T00:40:44.000Z</time>
      </trkpt>
      <trkpt lat="44.74023" lon="5.15349">
        <ele>450.2</ele>
        <time>1970-01-01T00:40:45.000Z</time>
      </trkpt>
      <trkpt lat="44.74024" lon="5.15353">
        <ele>450.4</ele>
        <time>1970-01-01T00:40:46.000Z</time>
      </trkpt>
      <trkpt lat="44.74025" lon="5.15356">
        <ele>450.8</ele>
        <time>1970-01-01T00:40:47.000Z</time>
      </trkpt>
      <trkpt lat="44.74026" lon="5.15363">
        <ele>451.2</ele>
        <time>1970-01-01T00:40:49.000Z</time>
      </trkpt>
      <trkpt lat="44.74027" lon="5.15367">
        <ele>451.4</ele>
        <time>1970-01-01T00:40:50.000Z</time>
      </trkpt>
      <trkpt lat="44.74028" lon="5.1537">
        <ele>451.8</ele>
        <time>1970-01-01T00:40:51.000Z</time>
      </trkpt>
      <trkpt lat="44.74028" lon="5.15374">
        <ele>452.2</ele>
        <time>1970-01-01T00:40:52.000Z</time>
      </trkpt>
      <trkpt lat="44.7403" lon="5.15384">
        <ele>453</ele>
        <time>1970-01-01T00:40:55.000Z</time>
      </trkpt>
      <trkpt lat="44.74031" lon="5.15392">
        <ele>453.4</ele>
        <time>1970-01-01T00:40:57.000Z</time>
      </trkpt>
      <trkpt lat="44.74032" lon="5.15398">
        <ele>454</ele>
        <time>1970-01-01T00:40:59.000Z</time>
      </trkpt>
      <trkpt lat="44.74033" lon="5.15401">
        <ele>454.2</ele>
        <time>1970-01-01T00:41:00.000Z</time>
      </trkpt>
      <trkpt lat="44.74034" lon="5.15405">
        <ele>454.6</ele>
        <time>1970-01-01T00:41:01.000Z</time>
      </trkpt>
      <trkpt lat="44.74034" lon="5.15408">
        <ele>454.8</ele>
        <time>1970-01-01T00:41:02.000Z</time>
      </trkpt>
      <trkpt lat="44.74034" lon="5.15411">
        <ele>455.4</ele>
        <time>1970-01-01T00:41:03.000Z</time>
      </trkpt>
      <trkpt lat="44.74035" lon="5.15414">
        <ele>455.8</ele>
        <time>1970-01-01T00:41:04.000Z</time>
      </trkpt>
      <trkpt lat="44.74035" lon="5.15417">
        <ele>456.2</ele>
        <time>1970-01-01T00:41:05.000Z</time>
      </trkpt>
      <trkpt lat="44.74035" lon="5.15421">
        <ele>456.4</ele>
        <time>1970-01-01T00:41:06.000Z</time>
      </trkpt>
      <trkpt lat="44.74035" lon="5.15424">
        <ele>456.6</ele>
        <time>1970-01-01T00:41:07.000Z</time>
      </trkpt>
      <trkpt lat="44.74036" lon="5.15427">
        <ele>456.8</ele>
        <time>1970-01-01T00:41:08.000Z</time>
      </trkpt>
      <trkpt lat="44.74035" lon="5.15429">
        <ele>457.2</ele>
        <time>1970-01-01T00:41:09.000Z</time>
      </trkpt>
      <trkpt lat="44.74035" lon="5.15434">
        <ele>457.6</ele>
        <time>1970-01-01T00:41:10.000Z</time>
      </trkpt>
      <trkpt lat="44.74035" lon="5.15437">
        <ele>457.8</ele>
        <time>1970-01-01T00:41:11.000Z</time>
      </trkpt>
      <trkpt lat="44.74035" lon="5.1544">
        <ele>458</ele>
        <time>1970-01-01T00:41:12.000Z</time>
      </trkpt>
      <trkpt lat="44.74034" lon="5.15444">
        <ele>458.4</ele>
        <time>1970-01-01T00:41:13.000Z</time>
      </trkpt>
      <trkpt lat="44.74034" lon="5.15447">
        <ele>459</ele>
        <time>1970-01-01T00:41:14.000Z</time>
      </trkpt>
      <trkpt lat="44.74034" lon="5.1545">
        <ele>459.4</ele>
        <time>1970-01-01T00:41:15.000Z</time>
      </trkpt>
      <trkpt lat="44.74033" lon="5.15453">
        <ele>459.8</ele>
        <time>1970-01-01T00:41:16.000Z</time>
      </trkpt>
      <trkpt lat="44.74033" lon="5.15456">
        <ele>460</ele>
        <time>1970-01-01T00:41:17.000Z</time>
      </trkpt>
      <trkpt lat="44.74033" lon="5.15459">
        <ele>460</ele>
        <time>1970-01-01T00:41:18.000Z</time>
      </trkpt>
      <trkpt lat="44.74032" lon="5.15462">
        <ele>460.4</ele>
        <time>1970-01-01T00:41:19.000Z</time>
      </trkpt>
      <trkpt lat="44.74032" lon="5.15465">
        <ele>460.8</ele>
        <time>1970-01-01T00:41:20.000Z</time>
      </trkpt>
      <trkpt lat="44.74032" lon="5.15468">
        <ele>461.4</ele>
        <time>1970-01-01T00:41:21.000Z</time>
      </trkpt>
      <trkpt lat="44.74031" lon="5.15471">
        <ele>461.8</ele>
        <time>1970-01-01T00:41:22.000Z</time>
      </trkpt>
      <trkpt lat="44.74031" lon="5.15474">
        <ele>462.2</ele>
        <time>1970-01-01T00:41:23.000Z</time>
      </trkpt>
      <trkpt lat="44.74031" lon="5.15477">
        <ele>462.4</ele>
        <time>1970-01-01T00:41:24.000Z</time>
      </trkpt>
      <trkpt lat="44.74031" lon="5.1548">
        <ele>462.6</ele>
        <time>1970-01-01T00:41:25.000Z</time>
      </trkpt>
      <trkpt lat="44.74031" lon="5.15483">
        <ele>462.8</ele>
        <time>1970-01-01T00:41:26.000Z</time>
      </trkpt>
      <trkpt lat="44.74031" lon="5.15487">
        <ele>463.2</ele>
        <time>1970-01-01T00:41:27.000Z</time>
      </trkpt>
      <trkpt lat="44.74031" lon="5.1549">
        <ele>463.6</ele>
        <time>1970-01-01T00:41:28.000Z</time>
      </trkpt>
      <trkpt lat="44.74031" lon="5.15492">
        <ele>464</ele>
        <time>1970-01-01T00:41:29.000Z</time>
      </trkpt>
      <trkpt lat="44.74031" lon="5.15494">
        <ele>464.2</ele>
        <time>1970-01-01T00:41:30.000Z</time>
      </trkpt>
      <trkpt lat="44.74031" lon="5.15497">
        <ele>464.6</ele>
        <time>1970-01-01T00:41:31.000Z</time>
      </trkpt>
      <trkpt lat="44.74032" lon="5.155">
        <ele>465</ele>
        <time>1970-01-01T00:41:32.000Z</time>
      </trkpt>
      <trkpt lat="44.74032" lon="5.15503">
        <ele>465.4</ele>
        <time>1970-01-01T00:41:33.000Z</time>
      </trkpt>
      <trkpt lat="44.74032" lon="5.15505">
        <ele>465.6</ele>
        <time>1970-01-01T00:41:34.000Z</time>
      </trkpt>
      <trkpt lat="44.74033" lon="5.15508">
        <ele>465.8</ele>
        <time>1970-01-01T00:41:35.000Z</time>
      </trkpt>
      <trkpt lat="44.74033" lon="5.15511">
        <ele>466</ele>
        <time>1970-01-01T00:41:36.000Z</time>
      </trkpt>
      <trkpt lat="44.74034" lon="5.15514">
        <ele>466.4</ele>
        <time>1970-01-01T00:41:37.000Z</time>
      </trkpt>
      <trkpt lat="44.74035" lon="5.15517">
        <ele>466.8</ele>
        <time>1970-01-01T00:41:38.000Z</time>
      </trkpt>
      <trkpt lat="44.74036" lon="5.15519">
        <ele>467.2</ele>
        <time>1970-01-01T00:41:39.000Z</time>
      </trkpt>
      <trkpt lat="44.74037" lon="5.15521">
        <ele>467.4</ele>
        <time>1970-01-01T00:41:40.000Z</time>
      </trkpt>
      <trkpt lat="44.74038" lon="5.15523">
        <ele>467.6</ele>
        <time>1970-01-01T00:41:41.000Z</time>
      </trkpt>
      <trkpt lat="44.7404" lon="5.15525">
        <ele>467.8</ele>
        <time>1970-01-01T00:41:42.000Z</time>
      </trkpt>
      <trkpt lat="44.74041" lon="5.15527">
        <ele>467.8</ele>
        <time>1970-01-01T00:41:43.000Z</time>
      </trkpt>
      <trkpt lat="44.74042" lon="5.15528">
        <ele>468</ele>
        <time>1970-01-01T00:41:44.000Z</time>
      </trkpt>
      <trkpt lat="44.74043" lon="5.1553">
        <ele>468.2</ele>
        <time>1970-01-01T00:41:45.000Z</time>
      </trkpt>
      <trkpt lat="44.74045" lon="5.15532">
        <ele>468.2</ele>
        <time>1970-01-01T00:41:46.000Z</time>
      </trkpt>
      <trkpt lat="44.74046" lon="5.15534">
        <ele>468.4</ele>
        <time>1970-01-01T00:41:47.000Z</time>
      </trkpt>
      <trkpt lat="44.74047" lon="5.15536">
        <ele>468.6</ele>
        <time>1970-01-01T00:41:48.000Z</time>
      </trkpt>
      <trkpt lat="44.74049" lon="5.15537">
        <ele>468.8</ele>
        <time>1970-01-01T00:41:49.000Z</time>
      </trkpt>
      <trkpt lat="44.7405" lon="5.15538">
        <ele>469</ele>
        <time>1970-01-01T00:41:50.000Z</time>
      </trkpt>
      <trkpt lat="44.74052" lon="5.15539">
        <ele>469.2</ele>
        <time>1970-01-01T00:41:51.000Z</time>
      </trkpt>
      <trkpt lat="44.74054" lon="5.15541">
        <ele>469.4</ele>
        <time>1970-01-01T00:41:52.000Z</time>
      </trkpt>
      <trkpt lat="44.74056" lon="5.15542">
        <ele>469.6</ele>
        <time>1970-01-01T00:41:53.000Z</time>
      </trkpt>
      <trkpt lat="44.74058" lon="5.15542">
        <ele>469.8</ele>
        <time>1970-01-01T00:41:54.000Z</time>
      </trkpt>
      <trkpt lat="44.7406" lon="5.15542">
        <ele>470</ele>
        <time>1970-01-01T00:41:55.000Z</time>
      </trkpt>
      <trkpt lat="44.74062" lon="5.15542">
        <ele>470.2</ele>
        <time>1970-01-01T00:41:56.000Z</time>
      </trkpt>
      <trkpt lat="44.74064" lon="5.15542">
        <ele>470.4</ele>
        <time>1970-01-01T00:41:57.000Z</time>
      </trkpt>
      <trkpt lat="44.74066" lon="5.15542">
        <ele>470.8</ele>
        <time>1970-01-01T00:41:58.000Z</time>
      </trkpt>
      <trkpt lat="44.74068" lon="5.15542">
        <ele>471</ele>
        <time>1970-01-01T00:41:59.000Z</time>
      </trkpt>
      <trkpt lat="44.7407" lon="5.15542">
        <ele>471.4</ele>
        <time>1970-01-01T00:42:00.000Z</time>
      </trkpt>
      <trkpt lat="44.74072" lon="5.15542">
        <ele>471.6</ele>
        <time>1970-01-01T00:42:01.000Z</time>
      </trkpt>
      <trkpt lat="44.74074" lon="5.15542">
        <ele>471.8</ele>
        <time>1970-01-01T00:42:02.000Z</time>
      </trkpt>
      <trkpt lat="44.74076" lon="5.15542">
        <ele>472</ele>
        <time>1970-01-01T00:42:03.000Z</time>
      </trkpt>
      <trkpt lat="44.74078" lon="5.15542">
        <ele>472.2</ele>
        <time>1970-01-01T00:42:04.000Z</time>
      </trkpt>
      <trkpt lat="44.7408" lon="5.15542">
        <ele>472.4</ele>
        <time>1970-01-01T00:42:05.000Z</time>
      </trkpt>
      <trkpt lat="44.74082" lon="5.15542">
        <ele>472.6</ele>
        <time>1970-01-01T00:42:06.000Z</time>
      </trkpt>
      <trkpt lat="44.74085" lon="5.15543">
        <ele>473</ele>
        <time>1970-01-01T00:42:07.000Z</time>
      </trkpt>
      <trkpt lat="44.74087" lon="5.15543">
        <ele>473.2</ele>
        <time>1970-01-01T00:42:08.000Z</time>
      </trkpt>
      <trkpt lat="44.74089" lon="5.15543">
        <ele>473.4</ele>
        <time>1970-01-01T00:42:09.000Z</time>
      </trkpt>
      <trkpt lat="44.74091" lon="5.15544">
        <ele>473.8</ele>
        <time>1970-01-01T00:42:10.000Z</time>
      </trkpt>
      <trkpt lat="44.74092" lon="5.15544">
        <ele>474</ele>
        <time>1970-01-01T00:42:11.000Z</time>
      </trkpt>
      <trkpt lat="44.74094" lon="5.15545">
        <ele>474.4</ele>
        <time>1970-01-01T00:42:12.000Z</time>
      </trkpt>
      <trkpt lat="44.74096" lon="5.15545">
        <ele>474.6</ele>
        <time>1970-01-01T00:42:13.000Z</time>
      </trkpt>
      <trkpt lat="44.74098" lon="5.15546">
        <ele>474.8</ele>
        <time>1970-01-01T00:42:14.000Z</time>
      </trkpt>
      <trkpt lat="44.741" lon="5.15547">
        <ele>474.8</ele>
        <time>1970-01-01T00:42:15.000Z</time>
      </trkpt>
      <trkpt lat="44.74102" lon="5.15548">
        <ele>475</ele>
        <time>1970-01-01T00:42:16.000Z</time>
      </trkpt>
      <trkpt lat="44.74104" lon="5.15549">
        <ele>475</ele>
        <time>1970-01-01T00:42:17.000Z</time>
      </trkpt>
      <trkpt lat="44.74105" lon="5.15551">
        <ele>475</ele>
        <time>1970-01-01T00:42:18.000Z</time>
      </trkpt>
      <trkpt lat="44.74107" lon="5.15552">
        <ele>475</ele>
        <time>1970-01-01T00:42:19.000Z</time>
      </trkpt>
      <trkpt lat="44.74108" lon="5.15553">
        <ele>475.2</ele>
        <time>1970-01-01T00:42:20.000Z</time>
      </trkpt>
      <trkpt lat="44.7411" lon="5.15554">
        <ele>475.2</ele>
        <time>1970-01-01T00:42:21.000Z</time>
      </trkpt>
      <trkpt lat="44.74112" lon="5.15555">
        <ele>475.2</ele>
        <time>1970-01-01T00:42:22.000Z</time>
      </trkpt>
      <trkpt lat="44.74114" lon="5.15556">
        <ele>475.2</ele>
        <time>1970-01-01T00:42:23.000Z</time>
      </trkpt>
      <trkpt lat="44.74115" lon="5.15557">
        <ele>475.2</ele>
        <time>1970-01-01T00:42:24.000Z</time>
      </trkpt>
      <trkpt lat="44.74117" lon="5.15558">
        <ele>475.2</ele>
        <time>1970-01-01T00:42:25.000Z</time>
      </trkpt>
      <trkpt lat="44.74119" lon="5.15559">
        <ele>475.2</ele>
        <time>1970-01-01T00:42:26.000Z</time>
      </trkpt>
      <trkpt lat="44.74121" lon="5.1556">
        <ele>475</ele>
        <time>1970-01-01T00:42:27.000Z</time>
      </trkpt>
      <trkpt lat="44.74122" lon="5.15561">
        <ele>475</ele>
        <time>1970-01-01T00:42:28.000Z</time>
      </trkpt>
      <trkpt lat="44.74124" lon="5.15562">
        <ele>475</ele>
        <time>1970-01-01T00:42:29.000Z</time>
      </trkpt>
      <trkpt lat="44.74126" lon="5.15564">
        <ele>475</ele>
        <time>1970-01-01T00:42:30.000Z</time>
      </trkpt>
      <trkpt lat="44.74128" lon="5.15565">
        <ele>475</ele>
        <time>1970-01-01T00:42:31.000Z</time>
      </trkpt>
      <trkpt lat="44.7413" lon="5.15566">
        <ele>475</ele>
        <time>1970-01-01T00:42:32.000Z</time>
      </trkpt>
      <trkpt lat="44.74132" lon="5.15568">
        <ele>475</ele>
        <time>1970-01-01T00:42:33.000Z</time>
      </trkpt>
      <trkpt lat="44.74135" lon="5.15569">
        <ele>475</ele>
        <time>1970-01-01T00:42:34.000Z</time>
      </trkpt>
      <trkpt lat="44.74137" lon="5.15571">
        <ele>475</ele>
        <time>1970-01-01T00:42:35.000Z</time>
      </trkpt>
      <trkpt lat="44.74139" lon="5.15572">
        <ele>475</ele>
        <time>1970-01-01T00:42:36.000Z</time>
      </trkpt>
      <trkpt lat="44.74141" lon="5.15573">
        <ele>475</ele>
        <time>1970-01-01T00:42:37.000Z</time>
      </trkpt>
      <trkpt lat="44.74149" lon="5.15575">
        <ele>475</ele>
        <time>1970-01-01T00:42:40.000Z</time>
      </trkpt>
      <trkpt lat="44.74152" lon="5.15576">
        <ele>475</ele>
        <time>1970-01-01T00:42:41.000Z</time>
      </trkpt>
      <trkpt lat="44.74154" lon="5.15576">
        <ele>475.2</ele>
        <time>1970-01-01T00:42:42.000Z</time>
      </trkpt>
      <trkpt lat="44.74158" lon="5.15578">
        <ele>475.2</ele>
        <time>1970-01-01T00:42:44.000Z</time>
      </trkpt>
      <trkpt lat="44.74168" lon="5.1558">
        <ele>475.4</ele>
        <time>1970-01-01T00:42:48.000Z</time>
      </trkpt>
      <trkpt lat="44.74171" lon="5.15582">
        <ele>475.8</ele>
        <time>1970-01-01T00:42:49.000Z</time>
      </trkpt>
      <trkpt lat="44.74174" lon="5.15582">
        <ele>476</ele>
        <time>1970-01-01T00:42:50.000Z</time>
      </trkpt>
      <trkpt lat="44.74181" lon="5.15585">
        <ele>476.8</ele>
        <time>1970-01-01T00:42:53.000Z</time>
      </trkpt>
      <trkpt lat="44.74186" lon="5.15588">
        <ele>477.4</ele>
        <time>1970-01-01T00:42:55.000Z</time>
      </trkpt>
      <trkpt lat="44.74188" lon="5.15589">
        <ele>477.6</ele>
        <time>1970-01-01T00:42:56.000Z</time>
      </trkpt>
      <trkpt lat="44.74191" lon="5.15591">
        <ele>478.2</ele>
        <time>1970-01-01T00:42:57.000Z</time>
      </trkpt>
      <trkpt lat="44.74193" lon="5.15592">
        <ele>478.6</ele>
        <time>1970-01-01T00:42:58.000Z</time>
      </trkpt>
      <trkpt lat="44.74195" lon="5.15593">
        <ele>479.4</ele>
        <time>1970-01-01T00:42:59.000Z</time>
      </trkpt>
      <trkpt lat="44.74197" lon="5.15594">
        <ele>480</ele>
        <time>1970-01-01T00:43:00.000Z</time>
      </trkpt>
      <trkpt lat="44.74199" lon="5.15595">
        <ele>480.4</ele>
        <time>1970-01-01T00:43:01.000Z</time>
      </trkpt>
      <trkpt lat="44.74202" lon="5.15595">
        <ele>480.6</ele>
        <time>1970-01-01T00:43:02.000Z</time>
      </trkpt>
      <trkpt lat="44.74204" lon="5.15595">
        <ele>481</ele>
        <time>1970-01-01T00:43:03.000Z</time>
      </trkpt>
      <trkpt lat="44.74206" lon="5.15596">
        <ele>481.4</ele>
        <time>1970-01-01T00:43:04.000Z</time>
      </trkpt>
      <trkpt lat="44.74208" lon="5.15596">
        <ele>481.6</ele>
        <time>1970-01-01T00:43:05.000Z</time>
      </trkpt>
      <trkpt lat="44.7421" lon="5.15595">
        <ele>482</ele>
        <time>1970-01-01T00:43:06.000Z</time>
      </trkpt>
      <trkpt lat="44.74212" lon="5.15594">
        <ele>482.2</ele>
        <time>1970-01-01T00:43:07.000Z</time>
      </trkpt>
      <trkpt lat="44.74214" lon="5.15593">
        <ele>482.6</ele>
        <time>1970-01-01T00:43:08.000Z</time>
      </trkpt>
      <trkpt lat="44.74216" lon="5.15593">
        <ele>483</ele>
        <time>1970-01-01T00:43:09.000Z</time>
      </trkpt>
      <trkpt lat="44.74217" lon="5.15595">
        <ele>483.4</ele>
        <time>1970-01-01T00:43:10.000Z</time>
      </trkpt>
      <trkpt lat="44.74217" lon="5.15598">
        <ele>483.8</ele>
        <time>1970-01-01T00:43:11.000Z</time>
      </trkpt>
      <trkpt lat="44.74217" lon="5.15601">
        <ele>484</ele>
        <time>1970-01-01T00:43:12.000Z</time>
      </trkpt>
      <trkpt lat="44.74215" lon="5.15604">
        <ele>484.2</ele>
        <time>1970-01-01T00:43:13.000Z</time>
      </trkpt>
      <trkpt lat="44.74214" lon="5.15607">
        <ele>484.4</ele>
        <time>1970-01-01T00:43:14.000Z</time>
      </trkpt>
      <trkpt lat="44.74212" lon="5.15609">
        <ele>484.6</ele>
        <time>1970-01-01T00:43:15.000Z</time>
      </trkpt>
      <trkpt lat="44.7421" lon="5.15611">
        <ele>485.2</ele>
        <time>1970-01-01T00:43:16.000Z</time>
      </trkpt>
      <trkpt lat="44.74209" lon="5.15613">
        <ele>485.6</ele>
        <time>1970-01-01T00:43:17.000Z</time>
      </trkpt>
      <trkpt lat="44.74209" lon="5.15615">
        <ele>486</ele>
        <time>1970-01-01T00:43:18.000Z</time>
      </trkpt>
      <trkpt lat="44.74209" lon="5.15618">
        <ele>486.4</ele>
        <time>1970-01-01T00:43:19.000Z</time>
      </trkpt>
      <trkpt lat="44.74209" lon="5.1562">
        <ele>486.8</ele>
        <time>1970-01-01T00:43:20.000Z</time>
      </trkpt>
      <trkpt lat="44.7421" lon="5.15623">
        <ele>487.2</ele>
        <time>1970-01-01T00:43:21.000Z</time>
      </trkpt>
      <trkpt lat="44.74211" lon="5.15626">
        <ele>487.4</ele>
        <time>1970-01-01T00:43:22.000Z</time>
      </trkpt>
      <trkpt lat="44.74212" lon="5.15628">
        <ele>487.6</ele>
        <time>1970-01-01T00:43:23.000Z</time>
      </trkpt>
      <trkpt lat="44.74212" lon="5.15631">
        <ele>488</ele>
        <time>1970-01-01T00:43:24.000Z</time>
      </trkpt>
      <trkpt lat="44.74213" lon="5.15634">
        <ele>488.6</ele>
        <time>1970-01-01T00:43:25.000Z</time>
      </trkpt>
      <trkpt lat="44.74214" lon="5.15636">
        <ele>489.2</ele>
        <time>1970-01-01T00:43:26.000Z</time>
      </trkpt>
      <trkpt lat="44.74215" lon="5.15638">
        <ele>489.6</ele>
        <time>1970-01-01T00:43:27.000Z</time>
      </trkpt>
      <trkpt lat="44.74215" lon="5.15641">
        <ele>490.2</ele>
        <time>1970-01-01T00:43:28.000Z</time>
      </trkpt>
      <trkpt lat="44.74216" lon="5.15643">
        <ele>490.4</ele>
        <time>1970-01-01T00:43:29.000Z</time>
      </trkpt>
      <trkpt lat="44.74217" lon="5.15645">
        <ele>490.6</ele>
        <time>1970-01-01T00:43:30.000Z</time>
      </trkpt>
      <trkpt lat="44.74219" lon="5.15647">
        <ele>490.8</ele>
        <time>1970-01-01T00:43:31.000Z</time>
      </trkpt>
      <trkpt lat="44.7422" lon="5.1565">
        <ele>491.2</ele>
        <time>1970-01-01T00:43:32.000Z</time>
      </trkpt>
      <trkpt lat="44.7422" lon="5.15653">
        <ele>491.2</ele>
        <time>1970-01-01T00:43:33.000Z</time>
      </trkpt>
      <trkpt lat="44.74221" lon="5.15655">
        <ele>491.8</ele>
        <time>1970-01-01T00:43:34.000Z</time>
      </trkpt>
      <trkpt lat="44.74223" lon="5.15657">
        <ele>492.4</ele>
        <time>1970-01-01T00:43:35.000Z</time>
      </trkpt>
      <trkpt lat="44.74224" lon="5.15659">
        <ele>492.8</ele>
        <time>1970-01-01T00:43:36.000Z</time>
      </trkpt>
      <trkpt lat="44.74225" lon="5.15661">
        <ele>493.4</ele>
        <time>1970-01-01T00:43:37.000Z</time>
      </trkpt>
      <trkpt lat="44.74225" lon="5.15663">
        <ele>493.8</ele>
        <time>1970-01-01T00:43:38.000Z</time>
      </trkpt>
      <trkpt lat="44.74226" lon="5.15665">
        <ele>494.2</ele>
        <time>1970-01-01T00:43:39.000Z</time>
      </trkpt>
      <trkpt lat="44.74226" lon="5.15667">
        <ele>494.6</ele>
        <time>1970-01-01T00:43:40.000Z</time>
      </trkpt>
      <trkpt lat="44.74226" lon="5.15669">
        <ele>494.8</ele>
        <time>1970-01-01T00:43:41.000Z</time>
      </trkpt>
      <trkpt lat="44.74228" lon="5.1567">
        <ele>494.8</ele>
        <time>1970-01-01T00:43:42.000Z</time>
      </trkpt>
      <trkpt lat="44.74229" lon="5.15673">
        <ele>495.2</ele>
        <time>1970-01-01T00:43:43.000Z</time>
      </trkpt>
      <trkpt lat="44.7423" lon="5.15675">
        <ele>495.6</ele>
        <time>1970-01-01T00:43:44.000Z</time>
      </trkpt>
      <trkpt lat="44.74232" lon="5.15677">
        <ele>495.8</ele>
        <time>1970-01-01T00:43:45.000Z</time>
      </trkpt>
      <trkpt lat="44.74232" lon="5.15677">
        <ele>496.2</ele>
        <time>1970-01-01T00:43:46.000Z</time>
      </trkpt>
      <trkpt lat="44.74231" lon="5.15677">
        <ele>496.6</ele>
        <time>1970-01-01T00:43:50.000Z</time>
      </trkpt>
      <trkpt lat="44.74231" lon="5.15678">
        <ele>496.6</ele>
        <time>1970-01-01T00:43:55.000Z</time>
      </trkpt>
      <trkpt lat="44.74232" lon="5.15679">
        <ele>496.6</ele>
        <time>1970-01-01T00:43:56.000Z</time>
      </trkpt>
      <trkpt lat="44.74232" lon="5.1568">
        <ele>496.8</ele>
        <time>1970-01-01T00:43:57.000Z</time>
      </trkpt>
      <trkpt lat="44.74233" lon="5.1568">
        <ele>496.8</ele>
        <time>1970-01-01T00:43:58.000Z</time>
      </trkpt>
      <trkpt lat="44.74235" lon="5.15684">
        <ele>497.8</ele>
        <time>1970-01-01T00:44:11.000Z</time>
      </trkpt>
      <trkpt lat="44.74237" lon="5.15686">
        <ele>497.8</ele>
        <time>1970-01-01T00:44:12.000Z</time>
      </trkpt>
      <trkpt lat="44.74239" lon="5.15687">
        <ele>498</ele>
        <time>1970-01-01T00:44:13.000Z</time>
      </trkpt>
      <trkpt lat="44.7424" lon="5.1569">
        <ele>498.2</ele>
        <time>1970-01-01T00:44:14.000Z</time>
      </trkpt>
      <trkpt lat="44.74241" lon="5.15693">
        <ele>498.4</ele>
        <time>1970-01-01T00:44:15.000Z</time>
      </trkpt>
      <trkpt lat="44.74242" lon="5.15695">
        <ele>498.6</ele>
        <time>1970-01-01T00:44:16.000Z</time>
      </trkpt>
      <trkpt lat="44.74243" lon="5.15697">
        <ele>498.8</ele>
        <time>1970-01-01T00:44:17.000Z</time>
      </trkpt>
      <trkpt lat="44.74244" lon="5.157">
        <ele>499</ele>
        <time>1970-01-01T00:44:18.000Z</time>
      </trkpt>
      <trkpt lat="44.74245" lon="5.15702">
        <ele>499.2</ele>
        <time>1970-01-01T00:44:19.000Z</time>
      </trkpt>
      <trkpt lat="44.74246" lon="5.15705">
        <ele>499.8</ele>
        <time>1970-01-01T00:44:20.000Z</time>
      </trkpt>
      <trkpt lat="44.74247" lon="5.15706">
        <ele>500</ele>
        <time>1970-01-01T00:44:21.000Z</time>
      </trkpt>
      <trkpt lat="44.74249" lon="5.15709">
        <ele>500.2</ele>
        <time>1970-01-01T00:44:22.000Z</time>
      </trkpt>
      <trkpt lat="44.7425" lon="5.15711">
        <ele>500.4</ele>
        <time>1970-01-01T00:44:23.000Z</time>
      </trkpt>
      <trkpt lat="44.74252" lon="5.15713">
        <ele>500.8</ele>
        <time>1970-01-01T00:44:24.000Z</time>
      </trkpt>
      <trkpt lat="44.74253" lon="5.15715">
        <ele>501.2</ele>
        <time>1970-01-01T00:44:25.000Z</time>
      </trkpt>
      <trkpt lat="44.74254" lon="5.15718">
        <ele>501.6</ele>
        <time>1970-01-01T00:44:26.000Z</time>
      </trkpt>
      <trkpt lat="44.74256" lon="5.1572">
        <ele>501.8</ele>
        <time>1970-01-01T00:44:27.000Z</time>
      </trkpt>
      <trkpt lat="44.74258" lon="5.15722">
        <ele>502.2</ele>
        <time>1970-01-01T00:44:28.000Z</time>
      </trkpt>
      <trkpt lat="44.74259" lon="5.15724">
        <ele>502.8</ele>
        <time>1970-01-01T00:44:29.000Z</time>
      </trkpt>
      <trkpt lat="44.7426" lon="5.15727">
        <ele>503</ele>
        <time>1970-01-01T00:44:30.000Z</time>
      </trkpt>
      <trkpt lat="44.74262" lon="5.15729">
        <ele>503.4</ele>
        <time>1970-01-01T00:44:31.000Z</time>
      </trkpt>
      <trkpt lat="44.74264" lon="5.15732">
        <ele>504</ele>
        <time>1970-01-01T00:44:32.000Z</time>
      </trkpt>
      <trkpt lat="44.74266" lon="5.15733">
        <ele>505</ele>
        <time>1970-01-01T00:44:33.000Z</time>
      </trkpt>
      <trkpt lat="44.74267" lon="5.15735">
        <ele>505.4</ele>
        <time>1970-01-01T00:44:34.000Z</time>
      </trkpt>
      <trkpt lat="44.74269" lon="5.15736">
        <ele>506</ele>
        <time>1970-01-01T00:44:35.000Z</time>
      </trkpt>
      <trkpt lat="44.74272" lon="5.15737">
        <ele>506.4</ele>
        <time>1970-01-01T00:44:36.000Z</time>
      </trkpt>
      <trkpt lat="44.74273" lon="5.15739">
        <ele>506.8</ele>
        <time>1970-01-01T00:44:37.000Z</time>
      </trkpt>
      <trkpt lat="44.74274" lon="5.1574">
        <ele>507.4</ele>
        <time>1970-01-01T00:44:38.000Z</time>
      </trkpt>
      <trkpt lat="44.74276" lon="5.15741">
        <ele>508</ele>
        <time>1970-01-01T00:44:39.000Z</time>
      </trkpt>
      <trkpt lat="44.74278" lon="5.15742">
        <ele>508.6</ele>
        <time>1970-01-01T00:44:40.000Z</time>
      </trkpt>
      <trkpt lat="44.7428" lon="5.15743">
        <ele>508.8</ele>
        <time>1970-01-01T00:44:41.000Z</time>
      </trkpt>
      <trkpt lat="44.74281" lon="5.15743">
        <ele>509</ele>
        <time>1970-01-01T00:44:42.000Z</time>
      </trkpt>
      <trkpt lat="44.74282" lon="5.15744">
        <ele>509.2</ele>
        <time>1970-01-01T00:44:43.000Z</time>
      </trkpt>
      <trkpt lat="44.74284" lon="5.15744">
        <ele>509.4</ele>
        <time>1970-01-01T00:44:44.000Z</time>
      </trkpt>
      <trkpt lat="44.74285" lon="5.15745">
        <ele>510.4</ele>
        <time>1970-01-01T00:44:45.000Z</time>
      </trkpt>
      <trkpt lat="44.74287" lon="5.15747">
        <ele>510.8</ele>
        <time>1970-01-01T00:44:46.000Z</time>
      </trkpt>
      <trkpt lat="44.74288" lon="5.15749">
        <ele>511</ele>
        <time>1970-01-01T00:44:47.000Z</time>
      </trkpt>
      <trkpt lat="44.7429" lon="5.15751">
        <ele>511.4</ele>
        <time>1970-01-01T00:44:48.000Z</time>
      </trkpt>
      <trkpt lat="44.74291" lon="5.15753">
        <ele>511.6</ele>
        <time>1970-01-01T00:44:49.000Z</time>
      </trkpt>
      <trkpt lat="44.74293" lon="5.15755">
        <ele>512</ele>
        <time>1970-01-01T00:44:50.000Z</time>
      </trkpt>
      <trkpt lat="44.74294" lon="5.15757">
        <ele>512.6</ele>
        <time>1970-01-01T00:44:51.000Z</time>
      </trkpt>
      <trkpt lat="44.74295" lon="5.15759">
        <ele>512.8</ele>
        <time>1970-01-01T00:44:52.000Z</time>
      </trkpt>
      <trkpt lat="44.74296" lon="5.1576">
        <ele>513</ele>
        <time>1970-01-01T00:44:53.000Z</time>
      </trkpt>
      <trkpt lat="44.74298" lon="5.15762">
        <ele>513.2</ele>
        <time>1970-01-01T00:44:54.000Z</time>
      </trkpt>
      <trkpt lat="44.74299" lon="5.15763">
        <ele>513.4</ele>
        <time>1970-01-01T00:44:55.000Z</time>
      </trkpt>
      <trkpt lat="44.743" lon="5.15765">
        <ele>513.6</ele>
        <time>1970-01-01T00:44:56.000Z</time>
      </trkpt>
      <trkpt lat="44.74301" lon="5.15766">
        <ele>513.8</ele>
        <time>1970-01-01T00:44:57.000Z</time>
      </trkpt>
      <trkpt lat="44.74302" lon="5.15767">
        <ele>513.8</ele>
        <time>1970-01-01T00:44:58.000Z</time>
      </trkpt>
      <trkpt lat="44.74302" lon="5.15769">
        <ele>514</ele>
        <time>1970-01-01T00:44:59.000Z</time>
      </trkpt>
      <trkpt lat="44.74303" lon="5.15771">
        <ele>514.4</ele>
        <time>1970-01-01T00:45:00.000Z</time>
      </trkpt>
      <trkpt lat="44.74304" lon="5.15774">
        <ele>514.6</ele>
        <time>1970-01-01T00:45:01.000Z</time>
      </trkpt>
      <trkpt lat="44.74304" lon="5.15776">
        <ele>514.8</ele>
        <time>1970-01-01T00:45:02.000Z</time>
      </trkpt>
      <trkpt lat="44.74305" lon="5.15779">
        <ele>515</ele>
        <time>1970-01-01T00:45:03.000Z</time>
      </trkpt>
      <trkpt lat="44.74306" lon="5.15781">
        <ele>515.2</ele>
        <time>1970-01-01T00:45:04.000Z</time>
      </trkpt>
      <trkpt lat="44.74306" lon="5.15783">
        <ele>515.4</ele>
        <time>1970-01-01T00:45:05.000Z</time>
      </trkpt>
      <trkpt lat="44.74307" lon="5.15785">
        <ele>515.8</ele>
        <time>1970-01-01T00:45:06.000Z</time>
      </trkpt>
      <trkpt lat="44.74308" lon="5.15787">
        <ele>516</ele>
        <time>1970-01-01T00:45:07.000Z</time>
      </trkpt>
      <trkpt lat="44.74308" lon="5.15789">
        <ele>516.4</ele>
        <time>1970-01-01T00:45:08.000Z</time>
      </trkpt>
      <trkpt lat="44.74309" lon="5.15792">
        <ele>516.4</ele>
        <time>1970-01-01T00:45:09.000Z</time>
      </trkpt>
      <trkpt lat="44.74309" lon="5.15795">
        <ele>516.6</ele>
        <time>1970-01-01T00:45:10.000Z</time>
      </trkpt>
      <trkpt lat="44.7431" lon="5.15798">
        <ele>517</ele>
        <time>1970-01-01T00:45:11.000Z</time>
      </trkpt>
      <trkpt lat="44.7431" lon="5.15801">
        <ele>517.2</ele>
        <time>1970-01-01T00:45:12.000Z</time>
      </trkpt>
      <trkpt lat="44.7431" lon="5.15804">
        <ele>517.6</ele>
        <time>1970-01-01T00:45:13.000Z</time>
      </trkpt>
      <trkpt lat="44.7431" lon="5.15808">
        <ele>518</ele>
        <time>1970-01-01T00:45:14.000Z</time>
      </trkpt>
      <trkpt lat="44.74309" lon="5.15811">
        <ele>518.2</ele>
        <time>1970-01-01T00:45:15.000Z</time>
      </trkpt>
      <trkpt lat="44.74309" lon="5.15814">
        <ele>518.4</ele>
        <time>1970-01-01T00:45:16.000Z</time>
      </trkpt>
      <trkpt lat="44.74309" lon="5.15817">
        <ele>518.6</ele>
        <time>1970-01-01T00:45:17.000Z</time>
      </trkpt>
      <trkpt lat="44.74309" lon="5.1582">
        <ele>518.6</ele>
        <time>1970-01-01T00:45:18.000Z</time>
      </trkpt>
      <trkpt lat="44.74309" lon="5.15823">
        <ele>519</ele>
        <time>1970-01-01T00:45:19.000Z</time>
      </trkpt>
      <trkpt lat="44.74311" lon="5.15826">
        <ele>519.2</ele>
        <time>1970-01-01T00:45:20.000Z</time>
      </trkpt>
      <trkpt lat="44.74313" lon="5.15829">
        <ele>519.4</ele>
        <time>1970-01-01T00:45:21.000Z</time>
      </trkpt>
      <trkpt lat="44.74314" lon="5.15832">
        <ele>519.6</ele>
        <time>1970-01-01T00:45:22.000Z</time>
      </trkpt>
      <trkpt lat="44.74316" lon="5.15835">
        <ele>519.8</ele>
        <time>1970-01-01T00:45:23.000Z</time>
      </trkpt>
      <trkpt lat="44.74316" lon="5.15837">
        <ele>520</ele>
        <time>1970-01-01T00:45:24.000Z</time>
      </trkpt>
      <trkpt lat="44.74317" lon="5.1584">
        <ele>520</ele>
        <time>1970-01-01T00:45:25.000Z</time>
      </trkpt>
      <trkpt lat="44.74318" lon="5.15843">
        <ele>520.2</ele>
        <time>1970-01-01T00:45:26.000Z</time>
      </trkpt>
      <trkpt lat="44.74319" lon="5.15846">
        <ele>520.2</ele>
        <time>1970-01-01T00:45:27.000Z</time>
      </trkpt>
      <trkpt lat="44.74319" lon="5.15849">
        <ele>520.2</ele>
        <time>1970-01-01T00:45:28.000Z</time>
      </trkpt>
      <trkpt lat="44.7432" lon="5.15853">
        <ele>520</ele>
        <time>1970-01-01T00:45:29.000Z</time>
      </trkpt>
      <trkpt lat="44.74321" lon="5.15856">
        <ele>520</ele>
        <time>1970-01-01T00:45:30.000Z</time>
      </trkpt>
      <trkpt lat="44.74321" lon="5.1586">
        <ele>519.8</ele>
        <time>1970-01-01T00:45:31.000Z</time>
      </trkpt>
      <trkpt lat="44.74322" lon="5.15864">
        <ele>519.8</ele>
        <time>1970-01-01T00:45:32.000Z</time>
      </trkpt>
      <trkpt lat="44.74323" lon="5.15869">
        <ele>519.8</ele>
        <time>1970-01-01T00:45:33.000Z</time>
      </trkpt>
      <trkpt lat="44.74324" lon="5.15872">
        <ele>519.8</ele>
        <time>1970-01-01T00:45:34.000Z</time>
      </trkpt>
      <trkpt lat="44.74325" lon="5.15876">
        <ele>519.8</ele>
        <time>1970-01-01T00:45:35.000Z</time>
      </trkpt>
      <trkpt lat="44.74326" lon="5.1588">
        <ele>519.8</ele>
        <time>1970-01-01T00:45:36.000Z</time>
      </trkpt>
      <trkpt lat="44.74327" lon="5.15884">
        <ele>519.8</ele>
        <time>1970-01-01T00:45:37.000Z</time>
      </trkpt>
      <trkpt lat="44.74328" lon="5.15887">
        <ele>520</ele>
        <time>1970-01-01T00:45:38.000Z</time>
      </trkpt>
      <trkpt lat="44.74329" lon="5.15892">
        <ele>520</ele>
        <time>1970-01-01T00:45:39.000Z</time>
      </trkpt>
      <trkpt lat="44.7433" lon="5.15896">
        <ele>520</ele>
        <time>1970-01-01T00:45:40.000Z</time>
      </trkpt>
      <trkpt lat="44.74332" lon="5.15899">
        <ele>520</ele>
        <time>1970-01-01T00:45:41.000Z</time>
      </trkpt>
      <trkpt lat="44.74333" lon="5.15908">
        <ele>520</ele>
        <time>1970-01-01T00:45:43.000Z</time>
      </trkpt>
      <trkpt lat="44.74334" lon="5.15913">
        <ele>520.2</ele>
        <time>1970-01-01T00:45:44.000Z</time>
      </trkpt>
      <trkpt lat="44.74335" lon="5.15916">
        <ele>520.2</ele>
        <time>1970-01-01T00:45:45.000Z</time>
      </trkpt>
      <trkpt lat="44.74336" lon="5.1592">
        <ele>520.2</ele>
        <time>1970-01-01T00:45:46.000Z</time>
      </trkpt>
      <trkpt lat="44.74338" lon="5.15931">
        <ele>520.4</ele>
        <time>1970-01-01T00:45:49.000Z</time>
      </trkpt>
      <trkpt lat="44.74339" lon="5.15935">
        <ele>520.6</ele>
        <time>1970-01-01T00:45:50.000Z</time>
      </trkpt>
      <trkpt lat="44.74341" lon="5.15942">
        <ele>520.8</ele>
        <time>1970-01-01T00:45:52.000Z</time>
      </trkpt>
      <trkpt lat="44.74341" lon="5.15946">
        <ele>521</ele>
        <time>1970-01-01T00:45:53.000Z</time>
      </trkpt>
      <trkpt lat="44.74342" lon="5.15949">
        <ele>521</ele>
        <time>1970-01-01T00:45:54.000Z</time>
      </trkpt>
      <trkpt lat="44.74343" lon="5.15952">
        <ele>521</ele>
        <time>1970-01-01T00:45:55.000Z</time>
      </trkpt>
      <trkpt lat="44.74344" lon="5.15955">
        <ele>521.2</ele>
        <time>1970-01-01T00:45:56.000Z</time>
      </trkpt>
      <trkpt lat="44.74346" lon="5.15957">
        <ele>521.2</ele>
        <time>1970-01-01T00:45:57.000Z</time>
      </trkpt>
      <trkpt lat="44.74347" lon="5.15959">
        <ele>521.2</ele>
        <time>1970-01-01T00:45:58.000Z</time>
      </trkpt>
      <trkpt lat="44.74349" lon="5.15961">
        <ele>521.2</ele>
        <time>1970-01-01T00:45:59.000Z</time>
      </trkpt>
      <trkpt lat="44.74351" lon="5.15963">
        <ele>521.2</ele>
        <time>1970-01-01T00:46:00.000Z</time>
      </trkpt>
      <trkpt lat="44.74353" lon="5.15964">
        <ele>521.4</ele>
        <time>1970-01-01T00:46:01.000Z</time>
      </trkpt>
      <trkpt lat="44.74355" lon="5.15965">
        <ele>521.4</ele>
        <time>1970-01-01T00:46:02.000Z</time>
      </trkpt>
      <trkpt lat="44.74355" lon="5.15967">
        <ele>521.4</ele>
        <time>1970-01-01T00:46:03.000Z</time>
      </trkpt>
      <trkpt lat="44.74357" lon="5.15968">
        <ele>521</ele>
        <time>1970-01-01T00:52:00.000Z</time>
      </trkpt>
      <trkpt lat="44.74358" lon="5.15971">
        <ele>521</ele>
        <time>1970-01-01T00:52:01.000Z</time>
      </trkpt>
      <trkpt lat="44.7436" lon="5.15975">
        <ele>521</ele>
        <time>1970-01-01T00:52:02.000Z</time>
      </trkpt>
      <trkpt lat="44.74361" lon="5.15978">
        <ele>521</ele>
        <time>1970-01-01T00:52:03.000Z</time>
      </trkpt>
      <trkpt lat="44.74375" lon="5.16007">
        <ele>520.8</ele>
        <time>1970-01-01T00:52:09.000Z</time>
      </trkpt>
      <trkpt lat="44.74378" lon="5.16017">
        <ele>520.6</ele>
        <time>1970-01-01T00:52:11.000Z</time>
      </trkpt>
      <trkpt lat="44.74382" lon="5.16033">
        <ele>520</ele>
        <time>1970-01-01T00:52:14.000Z</time>
      </trkpt>
      <trkpt lat="44.74385" lon="5.16039">
        <ele>520</ele>
        <time>1970-01-01T00:52:15.000Z</time>
      </trkpt>
      <trkpt lat="44.74387" lon="5.16044">
        <ele>520</ele>
        <time>1970-01-01T00:52:16.000Z</time>
      </trkpt>
      <trkpt lat="44.7439" lon="5.16049">
        <ele>519.8</ele>
        <time>1970-01-01T00:52:17.000Z</time>
      </trkpt>
      <trkpt lat="44.74392" lon="5.16054">
        <ele>519.8</ele>
        <time>1970-01-01T00:52:18.000Z</time>
      </trkpt>
      <trkpt lat="44.74395" lon="5.1606">
        <ele>519.8</ele>
        <time>1970-01-01T00:52:19.000Z</time>
      </trkpt>
      <trkpt lat="44.74399" lon="5.16069">
        <ele>519.6</ele>
        <time>1970-01-01T00:52:21.000Z</time>
      </trkpt>
      <trkpt lat="44.74402" lon="5.16073">
        <ele>519.4</ele>
        <time>1970-01-01T00:52:22.000Z</time>
      </trkpt>
      <trkpt lat="44.74407" lon="5.16082">
        <ele>519.2</ele>
        <time>1970-01-01T00:52:24.000Z</time>
      </trkpt>
      <trkpt lat="44.7441" lon="5.16086">
        <ele>519.2</ele>
        <time>1970-01-01T00:52:25.000Z</time>
      </trkpt>
      <trkpt lat="44.74419" lon="5.16098">
        <ele>519</ele>
        <time>1970-01-01T00:52:28.000Z</time>
      </trkpt>
      <trkpt lat="44.74421" lon="5.16103">
        <ele>519</ele>
        <time>1970-01-01T00:52:29.000Z</time>
      </trkpt>
      <trkpt lat="44.74423" lon="5.16107">
        <ele>519</ele>
        <time>1970-01-01T00:52:30.000Z</time>
      </trkpt>
      <trkpt lat="44.74425" lon="5.16112">
        <ele>519</ele>
        <time>1970-01-01T00:52:31.000Z</time>
      </trkpt>
      <trkpt lat="44.74429" lon="5.16123">
        <ele>519.2</ele>
        <time>1970-01-01T00:52:33.000Z</time>
      </trkpt>
      <trkpt lat="44.74431" lon="5.16129">
        <ele>519.2</ele>
        <time>1970-01-01T00:52:34.000Z</time>
      </trkpt>
      <trkpt lat="44.74432" lon="5.16133">
        <ele>519.2</ele>
        <time>1970-01-01T00:52:35.000Z</time>
      </trkpt>
      <trkpt lat="44.74433" lon="5.16138">
        <ele>519.2</ele>
        <time>1970-01-01T00:52:36.000Z</time>
      </trkpt>
      <trkpt lat="44.74434" lon="5.16144">
        <ele>519.6</ele>
        <time>1970-01-01T00:52:37.000Z</time>
      </trkpt>
      <trkpt lat="44.74435" lon="5.16149">
        <ele>519.8</ele>
        <time>1970-01-01T00:52:38.000Z</time>
      </trkpt>
      <trkpt lat="44.74435" lon="5.16154">
        <ele>520</ele>
        <time>1970-01-01T00:52:39.000Z</time>
      </trkpt>
      <trkpt lat="44.74435" lon="5.16164">
        <ele>520.4</ele>
        <time>1970-01-01T00:52:41.000Z</time>
      </trkpt>
      <trkpt lat="44.74435" lon="5.16169">
        <ele>520.6</ele>
        <time>1970-01-01T00:52:42.000Z</time>
      </trkpt>
      <trkpt lat="44.74434" lon="5.16174">
        <ele>520.8</ele>
        <time>1970-01-01T00:52:43.000Z</time>
      </trkpt>
      <trkpt lat="44.74434" lon="5.16189">
        <ele>521.6</ele>
        <time>1970-01-01T00:52:46.000Z</time>
      </trkpt>
      <trkpt lat="44.74433" lon="5.16194">
        <ele>522</ele>
        <time>1970-01-01T00:52:47.000Z</time>
      </trkpt>
      <trkpt lat="44.74432" lon="5.16199">
        <ele>522.2</ele>
        <time>1970-01-01T00:52:48.000Z</time>
      </trkpt>
      <trkpt lat="44.74431" lon="5.16208">
        <ele>522.6</ele>
        <time>1970-01-01T00:52:50.000Z</time>
      </trkpt>
      <trkpt lat="44.7443" lon="5.16213">
        <ele>523</ele>
        <time>1970-01-01T00:52:51.000Z</time>
      </trkpt>
      <trkpt lat="44.7443" lon="5.16217">
        <ele>523.4</ele>
        <time>1970-01-01T00:52:52.000Z</time>
      </trkpt>
      <trkpt lat="44.74429" lon="5.16221">
        <ele>523.6</ele>
        <time>1970-01-01T00:52:53.000Z</time>
      </trkpt>
      <trkpt lat="44.74429" lon="5.16225">
        <ele>523.8</ele>
        <time>1970-01-01T00:52:54.000Z</time>
      </trkpt>
      <trkpt lat="44.74429" lon="5.1623">
        <ele>524.4</ele>
        <time>1970-01-01T00:52:55.000Z</time>
      </trkpt>
      <trkpt lat="44.74428" lon="5.16235">
        <ele>524.6</ele>
        <time>1970-01-01T00:52:56.000Z</time>
      </trkpt>
      <trkpt lat="44.74428" lon="5.16239">
        <ele>524.8</ele>
        <time>1970-01-01T00:52:57.000Z</time>
      </trkpt>
      <trkpt lat="44.74428" lon="5.16243">
        <ele>525</ele>
        <time>1970-01-01T00:52:58.000Z</time>
      </trkpt>
      <trkpt lat="44.74428" lon="5.16247">
        <ele>525.6</ele>
        <time>1970-01-01T00:52:59.000Z</time>
      </trkpt>
      <trkpt lat="44.74428" lon="5.16251">
        <ele>525.8</ele>
        <time>1970-01-01T00:53:00.000Z</time>
      </trkpt>
      <trkpt lat="44.74428" lon="5.16256">
        <ele>526</ele>
        <time>1970-01-01T00:53:01.000Z</time>
      </trkpt>
      <trkpt lat="44.74429" lon="5.16259">
        <ele>526.2</ele>
        <time>1970-01-01T00:53:02.000Z</time>
      </trkpt>
      <trkpt lat="44.7443" lon="5.16264">
        <ele>526.4</ele>
        <time>1970-01-01T00:53:03.000Z</time>
      </trkpt>
      <trkpt lat="44.74431" lon="5.16269">
        <ele>526.6</ele>
        <time>1970-01-01T00:53:04.000Z</time>
      </trkpt>
      <trkpt lat="44.74432" lon="5.16274">
        <ele>526.6</ele>
        <time>1970-01-01T00:53:05.000Z</time>
      </trkpt>
      <trkpt lat="44.74435" lon="5.16278">
        <ele>526.6</ele>
        <time>1970-01-01T00:53:06.000Z</time>
      </trkpt>
      <trkpt lat="44.74437" lon="5.16281">
        <ele>526.6</ele>
        <time>1970-01-01T00:53:07.000Z</time>
      </trkpt>
      <trkpt lat="44.7444" lon="5.16284">
        <ele>526.6</ele>
        <time>1970-01-01T00:53:08.000Z</time>
      </trkpt>
      <trkpt lat="44.74443" lon="5.16287">
        <ele>526.4</ele>
        <time>1970-01-01T00:53:09.000Z</time>
      </trkpt>
      <trkpt lat="44.74447" lon="5.16291">
        <ele>526.4</ele>
        <time>1970-01-01T00:53:10.000Z</time>
      </trkpt>
      <trkpt lat="44.7445" lon="5.16293">
        <ele>526.4</ele>
        <time>1970-01-01T00:53:11.000Z</time>
      </trkpt>
      <trkpt lat="44.74454" lon="5.16296">
        <ele>526</ele>
        <time>1970-01-01T00:53:12.000Z</time>
      </trkpt>
      <trkpt lat="44.74458" lon="5.163">
        <ele>525.8</ele>
        <time>1970-01-01T00:53:13.000Z</time>
      </trkpt>
      <trkpt lat="44.74461" lon="5.16302">
        <ele>525.6</ele>
        <time>1970-01-01T00:53:14.000Z</time>
      </trkpt>
      <trkpt lat="44.74465" lon="5.16305">
        <ele>525.6</ele>
        <time>1970-01-01T00:53:15.000Z</time>
      </trkpt>
      <trkpt lat="44.74468" lon="5.16308">
        <ele>525.4</ele>
        <time>1970-01-01T00:53:16.000Z</time>
      </trkpt>
      <trkpt lat="44.74472" lon="5.16311">
        <ele>525.4</ele>
        <time>1970-01-01T00:53:17.000Z</time>
      </trkpt>
      <trkpt lat="44.74475" lon="5.16314">
        <ele>525.4</ele>
        <time>1970-01-01T00:53:18.000Z</time>
      </trkpt>
      <trkpt lat="44.74478" lon="5.16316">
        <ele>525.6</ele>
        <time>1970-01-01T00:53:19.000Z</time>
      </trkpt>
      <trkpt lat="44.74482" lon="5.16319">
        <ele>525.8</ele>
        <time>1970-01-01T00:53:20.000Z</time>
      </trkpt>
      <trkpt lat="44.74489" lon="5.16324">
        <ele>525.8</ele>
        <time>1970-01-01T00:53:22.000Z</time>
      </trkpt>
      <trkpt lat="44.74493" lon="5.16327">
        <ele>526</ele>
        <time>1970-01-01T00:53:23.000Z</time>
      </trkpt>
      <trkpt lat="44.74496" lon="5.16329">
        <ele>526</ele>
        <time>1970-01-01T00:53:24.000Z</time>
      </trkpt>
      <trkpt lat="44.745" lon="5.16331">
        <ele>526</ele>
        <time>1970-01-01T00:53:25.000Z</time>
      </trkpt>
      <trkpt lat="44.74516" lon="5.16334">
        <ele>526.2</ele>
        <time>1970-01-01T00:53:29.000Z</time>
      </trkpt>
      <trkpt lat="44.74521" lon="5.16334">
        <ele>526.2</ele>
        <time>1970-01-01T00:53:30.000Z</time>
      </trkpt>
      <trkpt lat="44.74529" lon="5.16333">
        <ele>526.2</ele>
        <time>1970-01-01T00:53:32.000Z</time>
      </trkpt>
      <trkpt lat="44.74532" lon="5.16332">
        <ele>526</ele>
        <time>1970-01-01T00:53:33.000Z</time>
      </trkpt>
      <trkpt lat="44.74541" lon="5.16331">
        <ele>525.8</ele>
        <time>1970-01-01T00:53:35.000Z</time>
      </trkpt>
      <trkpt lat="44.74545" lon="5.16331">
        <ele>525.8</ele>
        <time>1970-01-01T00:53:36.000Z</time>
      </trkpt>
      <trkpt lat="44.74555" lon="5.16331">
        <ele>525.6</ele>
        <time>1970-01-01T00:53:38.000Z</time>
      </trkpt>
      <trkpt lat="44.74567" lon="5.16334">
        <ele>525.2</ele>
        <time>1970-01-01T00:53:41.000Z</time>
      </trkpt>
      <trkpt lat="44.74572" lon="5.16336">
        <ele>525</ele>
        <time>1970-01-01T00:53:42.000Z</time>
      </trkpt>
      <trkpt lat="44.74587" lon="5.16339">
        <ele>524.8</ele>
        <time>1970-01-01T00:53:45.000Z</time>
      </trkpt>
      <trkpt lat="44.74592" lon="5.16341">
        <ele>524.6</ele>
        <time>1970-01-01T00:53:46.000Z</time>
      </trkpt>
      <trkpt lat="44.74597" lon="5.16342">
        <ele>524.4</ele>
        <time>1970-01-01T00:53:47.000Z</time>
      </trkpt>
      <trkpt lat="44.74603" lon="5.16343">
        <ele>524.4</ele>
        <time>1970-01-01T00:53:48.000Z</time>
      </trkpt>
      <trkpt lat="44.74606" lon="5.16344">
        <ele>524.2</ele>
        <time>1970-01-01T00:53:49.000Z</time>
      </trkpt>
      <trkpt lat="44.7461" lon="5.16345">
        <ele>524.2</ele>
        <time>1970-01-01T00:53:50.000Z</time>
      </trkpt>
      <trkpt lat="44.74615" lon="5.16346">
        <ele>524.2</ele>
        <time>1970-01-01T00:53:51.000Z</time>
      </trkpt>
      <trkpt lat="44.7462" lon="5.16347">
        <ele>524.2</ele>
        <time>1970-01-01T00:53:52.000Z</time>
      </trkpt>
      <trkpt lat="44.74624" lon="5.16347">
        <ele>524.2</ele>
        <time>1970-01-01T00:53:53.000Z</time>
      </trkpt>
      <trkpt lat="44.74637" lon="5.16349">
        <ele>524.2</ele>
        <time>1970-01-01T00:53:56.000Z</time>
      </trkpt>
      <trkpt lat="44.74641" lon="5.1635">
        <ele>524.4</ele>
        <time>1970-01-01T00:53:57.000Z</time>
      </trkpt>
      <trkpt lat="44.74649" lon="5.16353">
        <ele>524.4</ele>
        <time>1970-01-01T00:53:59.000Z</time>
      </trkpt>
      <trkpt lat="44.74654" lon="5.16355">
        <ele>524.4</ele>
        <time>1970-01-01T00:54:00.000Z</time>
      </trkpt>
      <trkpt lat="44.74678" lon="5.16366">
        <ele>523.8</ele>
        <time>1970-01-01T00:54:05.000Z</time>
      </trkpt>
      <trkpt lat="44.74687" lon="5.16374">
        <ele>523.6</ele>
        <time>1970-01-01T00:54:07.000Z</time>
      </trkpt>
      <trkpt lat="44.7469" lon="5.16377">
        <ele>523.2</ele>
        <time>1970-01-01T00:54:08.000Z</time>
      </trkpt>
      <trkpt lat="44.74694" lon="5.16382">
        <ele>522.8</ele>
        <time>1970-01-01T00:54:09.000Z</time>
      </trkpt>
      <trkpt lat="44.74698" lon="5.16386">
        <ele>522.6</ele>
        <time>1970-01-01T00:54:10.000Z</time>
      </trkpt>
      <trkpt lat="44.74702" lon="5.16391">
        <ele>522.6</ele>
        <time>1970-01-01T00:54:11.000Z</time>
      </trkpt>
      <trkpt lat="44.74706" lon="5.16395">
        <ele>522.6</ele>
        <time>1970-01-01T00:54:12.000Z</time>
      </trkpt>
      <trkpt lat="44.74709" lon="5.16398">
        <ele>522.6</ele>
        <time>1970-01-01T00:54:13.000Z</time>
      </trkpt>
      <trkpt lat="44.74713" lon="5.16401">
        <ele>522.8</ele>
        <time>1970-01-01T00:54:14.000Z</time>
      </trkpt>
      <trkpt lat="44.74721" lon="5.16406">
        <ele>523</ele>
        <time>1970-01-01T00:54:16.000Z</time>
      </trkpt>
      <trkpt lat="44.74729" lon="5.16408">
        <ele>523</ele>
        <time>1970-01-01T00:54:18.000Z</time>
      </trkpt>
      <trkpt lat="44.74733" lon="5.16409">
        <ele>523.2</ele>
        <time>1970-01-01T00:54:19.000Z</time>
      </trkpt>
      <trkpt lat="44.74743" lon="5.16409">
        <ele>523.2</ele>
        <time>1970-01-01T00:54:21.000Z</time>
      </trkpt>
      <trkpt lat="44.74746" lon="5.16408">
        <ele>523.4</ele>
        <time>1970-01-01T00:54:22.000Z</time>
      </trkpt>
      <trkpt lat="44.74751" lon="5.16408">
        <ele>523.4</ele>
        <time>1970-01-01T00:54:23.000Z</time>
      </trkpt>
      <trkpt lat="44.74755" lon="5.16407">
        <ele>523.6</ele>
        <time>1970-01-01T00:54:24.000Z</time>
      </trkpt>
      <trkpt lat="44.7476" lon="5.16406">
        <ele>523.8</ele>
        <time>1970-01-01T00:54:25.000Z</time>
      </trkpt>
      <trkpt lat="44.74763" lon="5.16406">
        <ele>524</ele>
        <time>1970-01-01T00:54:26.000Z</time>
      </trkpt>
      <trkpt lat="44.74767" lon="5.16405">
        <ele>524</ele>
        <time>1970-01-01T00:54:27.000Z</time>
      </trkpt>
      <trkpt lat="44.74772" lon="5.16404">
        <ele>524.2</ele>
        <time>1970-01-01T00:54:28.000Z</time>
      </trkpt>
      <trkpt lat="44.74775" lon="5.16403">
        <ele>524.4</ele>
        <time>1970-01-01T00:54:29.000Z</time>
      </trkpt>
      <trkpt lat="44.74779" lon="5.16402">
        <ele>524.4</ele>
        <time>1970-01-01T00:54:30.000Z</time>
      </trkpt>
      <trkpt lat="44.74782" lon="5.16401">
        <ele>524.4</ele>
        <time>1970-01-01T00:54:31.000Z</time>
      </trkpt>
      <trkpt lat="44.74793" lon="5.16402">
        <ele>524.4</ele>
        <time>1970-01-01T00:54:34.000Z</time>
      </trkpt>
      <trkpt lat="44.74797" lon="5.16403">
        <ele>524.4</ele>
        <time>1970-01-01T00:54:35.000Z</time>
      </trkpt>
      <trkpt lat="44.74819" lon="5.16412">
        <ele>523.4</ele>
        <time>1970-01-01T00:54:39.000Z</time>
      </trkpt>
      <trkpt lat="44.74824" lon="5.16415">
        <ele>522.6</ele>
        <time>1970-01-01T00:54:40.000Z</time>
      </trkpt>
      <trkpt lat="44.74831" lon="5.16418">
        <ele>521.2</ele>
        <time>1970-01-01T00:54:41.000Z</time>
      </trkpt>
      <trkpt lat="44.74837" lon="5.1642">
        <ele>520.2</ele>
        <time>1970-01-01T00:54:42.000Z</time>
      </trkpt>
      <trkpt lat="44.74842" lon="5.16422">
        <ele>519.4</ele>
        <time>1970-01-01T00:54:43.000Z</time>
      </trkpt>
      <trkpt lat="44.74847" lon="5.16423">
        <ele>518.8</ele>
        <time>1970-01-01T00:54:44.000Z</time>
      </trkpt>
      <trkpt lat="44.74851" lon="5.16424">
        <ele>518.4</ele>
        <time>1970-01-01T00:54:45.000Z</time>
      </trkpt>
      <trkpt lat="44.74856" lon="5.16425">
        <ele>518</ele>
        <time>1970-01-01T00:54:46.000Z</time>
      </trkpt>
      <trkpt lat="44.74861" lon="5.16426">
        <ele>517.6</ele>
        <time>1970-01-01T00:54:47.000Z</time>
      </trkpt>
      <trkpt lat="44.74865" lon="5.16426">
        <ele>517.2</ele>
        <time>1970-01-01T00:54:48.000Z</time>
      </trkpt>
      <trkpt lat="44.74867" lon="5.16427">
        <ele>516.8</ele>
        <time>1970-01-01T00:54:49.000Z</time>
      </trkpt>
      <trkpt lat="44.74869" lon="5.16426">
        <ele>516.6</ele>
        <time>1970-01-01T00:54:50.000Z</time>
      </trkpt>
      <trkpt lat="44.74871" lon="5.16425">
        <ele>516.2</ele>
        <time>1970-01-01T00:54:51.000Z</time>
      </trkpt>
      <trkpt lat="44.74871" lon="5.16424">
        <ele>516</ele>
        <time>1970-01-01T00:54:52.000Z</time>
      </trkpt>
      <trkpt lat="44.7487" lon="5.16421">
        <ele>515.8</ele>
        <time>1970-01-01T00:54:53.000Z</time>
      </trkpt>
      <trkpt lat="44.74869" lon="5.1642">
        <ele>515.8</ele>
        <time>1970-01-01T00:54:54.000Z</time>
      </trkpt>
      <trkpt lat="44.74868" lon="5.16418">
        <ele>515.8</ele>
        <time>1970-01-01T00:54:55.000Z</time>
      </trkpt>
      <trkpt lat="44.74866" lon="5.16416">
        <ele>515.8</ele>
        <time>1970-01-01T00:54:56.000Z</time>
      </trkpt>
      <trkpt lat="44.74863" lon="5.1641">
        <ele>515.4</ele>
        <time>1970-01-01T00:54:58.000Z</time>
      </trkpt>
      <trkpt lat="44.74861" lon="5.16406">
        <ele>515.2</ele>
        <time>1970-01-01T00:54:59.000Z</time>
      </trkpt>
      <trkpt lat="44.74859" lon="5.16401">
        <ele>515.2</ele>
        <time>1970-01-01T00:55:00.000Z</time>
      </trkpt>
      <trkpt lat="44.74858" lon="5.16396">
        <ele>515.2</ele>
        <time>1970-01-01T00:55:01.000Z</time>
      </trkpt>
      <trkpt lat="44.74857" lon="5.1639">
        <ele>515</ele>
        <time>1970-01-01T00:55:02.000Z</time>
      </trkpt>
      <trkpt lat="44.74856" lon="5.16384">
        <ele>514.8</ele>
        <time>1970-01-01T00:55:03.000Z</time>
      </trkpt>
      <trkpt lat="44.74855" lon="5.16378">
        <ele>514.8</ele>
        <time>1970-01-01T00:55:04.000Z</time>
      </trkpt>
      <trkpt lat="44.74853" lon="5.16374">
        <ele>514.6</ele>
        <time>1970-01-01T00:55:05.000Z</time>
      </trkpt>
      <trkpt lat="44.74851" lon="5.16371">
        <ele>514.2</ele>
        <time>1970-01-01T00:55:06.000Z</time>
      </trkpt>
      <trkpt lat="44.74848" lon="5.16369">
        <ele>514</ele>
        <time>1970-01-01T00:55:07.000Z</time>
      </trkpt>
      <trkpt lat="44.74844" lon="5.16362">
        <ele>513.8</ele>
        <time>1970-01-01T00:55:09.000Z</time>
      </trkpt>
      <trkpt lat="44.74842" lon="5.16355">
        <ele>513.8</ele>
        <time>1970-01-01T00:55:10.000Z</time>
      </trkpt>
      <trkpt lat="44.74842" lon="5.16348">
        <ele>513.4</ele>
        <time>1970-01-01T00:55:11.000Z</time>
      </trkpt>
      <trkpt lat="44.74842" lon="5.16342">
        <ele>513.4</ele>
        <time>1970-01-01T00:55:12.000Z</time>
      </trkpt>
      <trkpt lat="44.74842" lon="5.16339">
        <ele>513</ele>
        <time>1970-01-01T00:55:13.000Z</time>
      </trkpt>
      <trkpt lat="44.74841" lon="5.16335">
        <ele>512.6</ele>
        <time>1970-01-01T00:55:14.000Z</time>
      </trkpt>
      <trkpt lat="44.74839" lon="5.16331">
        <ele>512</ele>
        <time>1970-01-01T00:55:15.000Z</time>
      </trkpt>
      <trkpt lat="44.74836" lon="5.16325">
        <ele>511.4</ele>
        <time>1970-01-01T00:55:16.000Z</time>
      </trkpt>
      <trkpt lat="44.74827" lon="5.16326">
        <ele>511</ele>
        <time>1970-01-01T00:55:18.000Z</time>
      </trkpt>
      <trkpt lat="44.74821" lon="5.16329">
        <ele>510.8</ele>
        <time>1970-01-01T00:55:19.000Z</time>
      </trkpt>
      <trkpt lat="44.74816" lon="5.16332">
        <ele>510.4</ele>
        <time>1970-01-01T00:55:20.000Z</time>
      </trkpt>
      <trkpt lat="44.74811" lon="5.16336">
        <ele>509.4</ele>
        <time>1970-01-01T00:55:21.000Z</time>
      </trkpt>
      <trkpt lat="44.74806" lon="5.16338">
        <ele>508.4</ele>
        <time>1970-01-01T00:55:22.000Z</time>
      </trkpt>
      <trkpt lat="44.74794" lon="5.16334">
        <ele>507.2</ele>
        <time>1970-01-01T00:55:24.000Z</time>
      </trkpt>
      <trkpt lat="44.74789" lon="5.16331">
        <ele>506.6</ele>
        <time>1970-01-01T00:55:25.000Z</time>
      </trkpt>
      <trkpt lat="44.74785" lon="5.16327">
        <ele>506.2</ele>
        <time>1970-01-01T00:55:26.000Z</time>
      </trkpt>
      <trkpt lat="44.74782" lon="5.16321">
        <ele>506</ele>
        <time>1970-01-01T00:55:27.000Z</time>
      </trkpt>
      <trkpt lat="44.74779" lon="5.16316">
        <ele>505.8</ele>
        <time>1970-01-01T00:55:28.000Z</time>
      </trkpt>
      <trkpt lat="44.74777" lon="5.16311">
        <ele>505.6</ele>
        <time>1970-01-01T00:55:29.000Z</time>
      </trkpt>
      <trkpt lat="44.74774" lon="5.16308">
        <ele>504.8</ele>
        <time>1970-01-01T00:55:30.000Z</time>
      </trkpt>
      <trkpt lat="44.7477" lon="5.16304">
        <ele>503.8</ele>
        <time>1970-01-01T00:55:32.000Z</time>
      </trkpt>
      <trkpt lat="44.74769" lon="5.163">
        <ele>503.4</ele>
        <time>1970-01-01T00:55:33.000Z</time>
      </trkpt>
      <trkpt lat="44.74767" lon="5.16296">
        <ele>503.2</ele>
        <time>1970-01-01T00:55:34.000Z</time>
      </trkpt>
      <trkpt lat="44.74764" lon="5.16292">
        <ele>502.8</ele>
        <time>1970-01-01T00:55:35.000Z</time>
      </trkpt>
      <trkpt lat="44.74762" lon="5.16287">
        <ele>502.4</ele>
        <time>1970-01-01T00:55:36.000Z</time>
      </trkpt>
      <trkpt lat="44.74755" lon="5.16274">
        <ele>501.6</ele>
        <time>1970-01-01T00:55:38.000Z</time>
      </trkpt>
      <trkpt lat="44.74752" lon="5.16265">
        <ele>501.2</ele>
        <time>1970-01-01T00:55:39.000Z</time>
      </trkpt>
      <trkpt lat="44.74741" lon="5.1625">
        <ele>500.6</ele>
        <time>1970-01-01T00:55:41.000Z</time>
      </trkpt>
      <trkpt lat="44.74738" lon="5.16242">
        <ele>499.8</ele>
        <time>1970-01-01T00:55:42.000Z</time>
      </trkpt>
      <trkpt lat="44.74734" lon="5.16234">
        <ele>498.8</ele>
        <time>1970-01-01T00:55:43.000Z</time>
      </trkpt>
      <trkpt lat="44.74731" lon="5.16225">
        <ele>497.8</ele>
        <time>1970-01-01T00:55:44.000Z</time>
      </trkpt>
      <trkpt lat="44.74728" lon="5.1622">
        <ele>496.8</ele>
        <time>1970-01-01T00:55:45.000Z</time>
      </trkpt>
      <trkpt lat="44.74725" lon="5.16216">
        <ele>496.2</ele>
        <time>1970-01-01T00:55:46.000Z</time>
      </trkpt>
      <trkpt lat="44.74721" lon="5.16212">
        <ele>495.6</ele>
        <time>1970-01-01T00:55:47.000Z</time>
      </trkpt>
      <trkpt lat="44.74715" lon="5.16208">
        <ele>494.6</ele>
        <time>1970-01-01T00:55:48.000Z</time>
      </trkpt>
      <trkpt lat="44.74707" lon="5.16201">
        <ele>494</ele>
        <time>1970-01-01T00:55:49.000Z</time>
      </trkpt>
      <trkpt lat="44.74701" lon="5.16194">
        <ele>492.8</ele>
        <time>1970-01-01T00:55:50.000Z</time>
      </trkpt>
      <trkpt lat="44.74697" lon="5.1619">
        <ele>492</ele>
        <time>1970-01-01T00:55:51.000Z</time>
      </trkpt>
      <trkpt lat="44.74693" lon="5.16183">
        <ele>491.4</ele>
        <time>1970-01-01T00:55:52.000Z</time>
      </trkpt>
      <trkpt lat="44.7469" lon="5.16175">
        <ele>490.6</ele>
        <time>1970-01-01T00:55:53.000Z</time>
      </trkpt>
      <trkpt lat="44.74688" lon="5.16168">
        <ele>489.8</ele>
        <time>1970-01-01T00:55:54.000Z</time>
      </trkpt>
      <trkpt lat="44.74686" lon="5.16162">
        <ele>489.4</ele>
        <time>1970-01-01T00:55:55.000Z</time>
      </trkpt>
      <trkpt lat="44.74683" lon="5.1616">
        <ele>488.8</ele>
        <time>1970-01-01T00:55:56.000Z</time>
      </trkpt>
      <trkpt lat="44.74681" lon="5.16158">
        <ele>488.4</ele>
        <time>1970-01-01T00:55:57.000Z</time>
      </trkpt>
      <trkpt lat="44.74678" lon="5.16158">
        <ele>488.2</ele>
        <time>1970-01-01T00:55:58.000Z</time>
      </trkpt>
      <trkpt lat="44.74676" lon="5.1616">
        <ele>488</ele>
        <time>1970-01-01T00:55:59.000Z</time>
      </trkpt>
      <trkpt lat="44.74673" lon="5.16162">
        <ele>487.6</ele>
        <time>1970-01-01T00:56:00.000Z</time>
      </trkpt>
      <trkpt lat="44.7467" lon="5.16163">
        <ele>487.2</ele>
        <time>1970-01-01T00:56:01.000Z</time>
      </trkpt>
      <trkpt lat="44.74666" lon="5.16165">
        <ele>487</ele>
        <time>1970-01-01T00:56:02.000Z</time>
      </trkpt>
      <trkpt lat="44.74663" lon="5.16167">
        <ele>486.2</ele>
        <time>1970-01-01T00:56:03.000Z</time>
      </trkpt>
      <trkpt lat="44.7466" lon="5.16169">
        <ele>486</ele>
        <time>1970-01-01T00:56:04.000Z</time>
      </trkpt>
      <trkpt lat="44.74657" lon="5.16172">
        <ele>485.6</ele>
        <time>1970-01-01T00:56:05.000Z</time>
      </trkpt>
      <trkpt lat="44.74654" lon="5.16175">
        <ele>485.6</ele>
        <time>1970-01-01T00:56:06.000Z</time>
      </trkpt>
      <trkpt lat="44.74652" lon="5.16174">
        <ele>485.4</ele>
        <time>1970-01-01T00:56:07.000Z</time>
      </trkpt>
      <trkpt lat="44.74648" lon="5.16172">
        <ele>485.4</ele>
        <time>1970-01-01T00:56:08.000Z</time>
      </trkpt>
      <trkpt lat="44.74645" lon="5.16172">
        <ele>485</ele>
        <time>1970-01-01T00:56:09.000Z</time>
      </trkpt>
      <trkpt lat="44.74643" lon="5.16172">
        <ele>484.8</ele>
        <time>1970-01-01T00:56:10.000Z</time>
      </trkpt>
      <trkpt lat="44.74639" lon="5.16174">
        <ele>484.2</ele>
        <time>1970-01-01T00:56:11.000Z</time>
      </trkpt>
      <trkpt lat="44.74636" lon="5.16175">
        <ele>483.8</ele>
        <time>1970-01-01T00:56:12.000Z</time>
      </trkpt>
      <trkpt lat="44.74634" lon="5.16174">
        <ele>483.6</ele>
        <time>1970-01-01T00:56:13.000Z</time>
      </trkpt>
      <trkpt lat="44.74634" lon="5.16171">
        <ele>483.4</ele>
        <time>1970-01-01T00:56:14.000Z</time>
      </trkpt>
      <trkpt lat="44.74634" lon="5.16157">
        <ele>482.8</ele>
        <time>1970-01-01T00:56:17.000Z</time>
      </trkpt>
      <trkpt lat="44.74634" lon="5.16152">
        <ele>482.2</ele>
        <time>1970-01-01T00:56:18.000Z</time>
      </trkpt>
      <trkpt lat="44.74634" lon="5.16148">
        <ele>482</ele>
        <time>1970-01-01T00:56:19.000Z</time>
      </trkpt>
      <trkpt lat="44.74634" lon="5.16145">
        <ele>481.8</ele>
        <time>1970-01-01T00:56:20.000Z</time>
      </trkpt>
      <trkpt lat="44.74634" lon="5.16142">
        <ele>481.6</ele>
        <time>1970-01-01T00:56:21.000Z</time>
      </trkpt>
      <trkpt lat="44.74633" lon="5.16134">
        <ele>481.6</ele>
        <time>1970-01-01T00:56:23.000Z</time>
      </trkpt>
      <trkpt lat="44.74632" lon="5.1613">
        <ele>481.2</ele>
        <time>1970-01-01T00:56:24.000Z</time>
      </trkpt>
      <trkpt lat="44.7463" lon="5.16125">
        <ele>481</ele>
        <time>1970-01-01T00:56:25.000Z</time>
      </trkpt>
      <trkpt lat="44.74629" lon="5.16123">
        <ele>481</ele>
        <time>1970-01-01T00:56:26.000Z</time>
      </trkpt>
      <trkpt lat="44.74625" lon="5.16119">
        <ele>480.8</ele>
        <time>1970-01-01T00:56:27.000Z</time>
      </trkpt>
      <trkpt lat="44.74622" lon="5.16113">
        <ele>480.8</ele>
        <time>1970-01-01T00:56:28.000Z</time>
      </trkpt>
      <trkpt lat="44.74622" lon="5.16107">
        <ele>480.4</ele>
        <time>1970-01-01T00:56:29.000Z</time>
      </trkpt>
      <trkpt lat="44.74624" lon="5.16099">
        <ele>479.4</ele>
        <time>1970-01-01T00:56:30.000Z</time>
      </trkpt>
      <trkpt lat="44.74627" lon="5.16094">
        <ele>479</ele>
        <time>1970-01-01T00:56:31.000Z</time>
      </trkpt>
      <trkpt lat="44.74628" lon="5.16091">
        <ele>478.6</ele>
        <time>1970-01-01T00:56:32.000Z</time>
      </trkpt>
      <trkpt lat="44.74628" lon="5.16087">
        <ele>478.2</ele>
        <time>1970-01-01T00:56:33.000Z</time>
      </trkpt>
      <trkpt lat="44.74627" lon="5.16081">
        <ele>477.8</ele>
        <time>1970-01-01T00:56:34.000Z</time>
      </trkpt>
      <trkpt lat="44.74626" lon="5.16075">
        <ele>477.6</ele>
        <time>1970-01-01T00:56:35.000Z</time>
      </trkpt>
      <trkpt lat="44.74623" lon="5.1607">
        <ele>477.4</ele>
        <time>1970-01-01T00:56:36.000Z</time>
      </trkpt>
      <trkpt lat="44.74623" lon="5.1607">
        <ele>476.8</ele>
        <time>1970-01-01T00:56:37.000Z</time>
      </trkpt>
      <trkpt lat="44.74621" lon="5.16071">
        <ele>476.4</ele>
        <time>1970-01-01T00:56:38.000Z</time>
      </trkpt>
      <trkpt lat="44.7462" lon="5.16071">
        <ele>476.2</ele>
        <time>1970-01-01T00:56:39.000Z</time>
      </trkpt>
      <trkpt lat="44.74618" lon="5.16069">
        <ele>475.8</ele>
        <time>1970-01-01T00:56:40.000Z</time>
      </trkpt>
      <trkpt lat="44.74618" lon="5.16065">
        <ele>475.4</ele>
        <time>1970-01-01T00:56:41.000Z</time>
      </trkpt>
      <trkpt lat="44.74619" lon="5.16062">
        <ele>475</ele>
        <time>1970-01-01T00:56:42.000Z</time>
      </trkpt>
      <trkpt lat="44.74619" lon="5.16057">
        <ele>474.6</ele>
        <time>1970-01-01T00:56:43.000Z</time>
      </trkpt>
      <trkpt lat="44.74619" lon="5.16051">
        <ele>474.6</ele>
        <time>1970-01-01T00:56:44.000Z</time>
      </trkpt>
      <trkpt lat="44.74617" lon="5.16047">
        <ele>474.2</ele>
        <time>1970-01-01T00:56:45.000Z</time>
      </trkpt>
      <trkpt lat="44.74608" lon="5.16037">
        <ele>474</ele>
        <time>1970-01-01T00:56:47.000Z</time>
      </trkpt>
      <trkpt lat="44.74607" lon="5.16032">
        <ele>473.8</ele>
        <time>1970-01-01T00:56:48.000Z</time>
      </trkpt>
      <trkpt lat="44.74609" lon="5.16028">
        <ele>473.6</ele>
        <time>1970-01-01T00:56:49.000Z</time>
      </trkpt>
      <trkpt lat="44.7461" lon="5.16024">
        <ele>473.2</ele>
        <time>1970-01-01T00:56:50.000Z</time>
      </trkpt>
      <trkpt lat="44.74612" lon="5.1602">
        <ele>473</ele>
        <time>1970-01-01T00:56:51.000Z</time>
      </trkpt>
      <trkpt lat="44.74611" lon="5.16015">
        <ele>473</ele>
        <time>1970-01-01T00:56:52.000Z</time>
      </trkpt>
      <trkpt lat="44.74611" lon="5.16012">
        <ele>472.8</ele>
        <time>1970-01-01T00:56:53.000Z</time>
      </trkpt>
      <trkpt lat="44.74612" lon="5.1601">
        <ele>472.8</ele>
        <time>1970-01-01T00:56:54.000Z</time>
      </trkpt>
      <trkpt lat="44.74614" lon="5.16009">
        <ele>472.6</ele>
        <time>1970-01-01T00:56:55.000Z</time>
      </trkpt>
      <trkpt lat="44.74616" lon="5.16008">
        <ele>472.6</ele>
        <time>1970-01-01T00:56:56.000Z</time>
      </trkpt>
      <trkpt lat="44.74618" lon="5.16005">
        <ele>472.2</ele>
        <time>1970-01-01T00:56:57.000Z</time>
      </trkpt>
      <trkpt lat="44.74618" lon="5.16002">
        <ele>472</ele>
        <time>1970-01-01T00:56:58.000Z</time>
      </trkpt>
      <trkpt lat="44.74616" lon="5.15999">
        <ele>471.8</ele>
        <time>1970-01-01T00:56:59.000Z</time>
      </trkpt>
      <trkpt lat="44.74614" lon="5.15997">
        <ele>471.4</ele>
        <time>1970-01-01T00:57:00.000Z</time>
      </trkpt>
      <trkpt lat="44.74612" lon="5.15997">
        <ele>471.2</ele>
        <time>1970-01-01T00:57:01.000Z</time>
      </trkpt>
      <trkpt lat="44.74611" lon="5.15996">
        <ele>471</ele>
        <time>1970-01-01T00:57:02.000Z</time>
      </trkpt>
      <trkpt lat="44.7461" lon="5.15993">
        <ele>470.4</ele>
        <time>1970-01-01T00:57:03.000Z</time>
      </trkpt>
      <trkpt lat="44.74607" lon="5.15979">
        <ele>469.6</ele>
        <time>1970-01-01T00:57:07.000Z</time>
      </trkpt>
      <trkpt lat="44.74607" lon="5.15975">
        <ele>469.4</ele>
        <time>1970-01-01T00:57:08.000Z</time>
      </trkpt>
      <trkpt lat="44.74608" lon="5.15971">
        <ele>469.2</ele>
        <time>1970-01-01T00:57:09.000Z</time>
      </trkpt>
      <trkpt lat="44.74613" lon="5.15963">
        <ele>468.6</ele>
        <time>1970-01-01T00:57:12.000Z</time>
      </trkpt>
      <trkpt lat="44.74614" lon="5.1596">
        <ele>468.2</ele>
        <time>1970-01-01T00:57:13.000Z</time>
      </trkpt>
      <trkpt lat="44.74616" lon="5.15955">
        <ele>468</ele>
        <time>1970-01-01T00:57:14.000Z</time>
      </trkpt>
      <trkpt lat="44.74619" lon="5.15948">
        <ele>467.4</ele>
        <time>1970-01-01T00:57:15.000Z</time>
      </trkpt>
      <trkpt lat="44.74621" lon="5.15941">
        <ele>467</ele>
        <time>1970-01-01T00:57:16.000Z</time>
      </trkpt>
      <trkpt lat="44.74623" lon="5.15934">
        <ele>466.8</ele>
        <time>1970-01-01T00:57:17.000Z</time>
      </trkpt>
      <trkpt lat="44.74626" lon="5.15908">
        <ele>465.4</ele>
        <time>1970-01-01T00:57:20.000Z</time>
      </trkpt>
      <trkpt lat="44.74626" lon="5.15898">
        <ele>464.8</ele>
        <time>1970-01-01T00:57:21.000Z</time>
      </trkpt>
      <trkpt lat="44.74627" lon="5.15886">
        <ele>464.4</ele>
        <time>1970-01-01T00:57:22.000Z</time>
      </trkpt>
      <trkpt lat="44.74628" lon="5.15879">
        <ele>464</ele>
        <time>1970-01-01T00:57:23.000Z</time>
      </trkpt>
      <trkpt lat="44.74628" lon="5.15871">
        <ele>463.6</ele>
        <time>1970-01-01T00:57:24.000Z</time>
      </trkpt>
      <trkpt lat="44.74629" lon="5.15862">
        <ele>463.2</ele>
        <time>1970-01-01T00:57:25.000Z</time>
      </trkpt>
      <trkpt lat="44.7463" lon="5.15853">
        <ele>462.6</ele>
        <time>1970-01-01T00:57:26.000Z</time>
      </trkpt>
      <trkpt lat="44.7463" lon="5.15845">
        <ele>462.2</ele>
        <time>1970-01-01T00:57:27.000Z</time>
      </trkpt>
      <trkpt lat="44.74631" lon="5.15837">
        <ele>461.6</ele>
        <time>1970-01-01T00:57:28.000Z</time>
      </trkpt>
      <trkpt lat="44.74629" lon="5.15833">
        <ele>461</ele>
        <time>1970-01-01T00:57:29.000Z</time>
      </trkpt>
      <trkpt lat="44.74627" lon="5.15827">
        <ele>460</ele>
        <time>1970-01-01T00:57:30.000Z</time>
      </trkpt>
      <trkpt lat="44.74623" lon="5.15822">
        <ele>458.8</ele>
        <time>1970-01-01T00:57:31.000Z</time>
      </trkpt>
      <trkpt lat="44.74617" lon="5.15817">
        <ele>457.6</ele>
        <time>1970-01-01T00:57:32.000Z</time>
      </trkpt>
      <trkpt lat="44.74611" lon="5.15813">
        <ele>456.8</ele>
        <time>1970-01-01T00:57:33.000Z</time>
      </trkpt>
      <trkpt lat="44.74605" lon="5.15811">
        <ele>455</ele>
        <time>1970-01-01T00:57:34.000Z</time>
      </trkpt>
      <trkpt lat="44.746" lon="5.15809">
        <ele>453.8</ele>
        <time>1970-01-01T00:57:35.000Z</time>
      </trkpt>
      <trkpt lat="44.74593" lon="5.15807">
        <ele>453.2</ele>
        <time>1970-01-01T00:57:36.000Z</time>
      </trkpt>
      <trkpt lat="44.74587" lon="5.15805">
        <ele>452.4</ele>
        <time>1970-01-01T00:57:37.000Z</time>
      </trkpt>
      <trkpt lat="44.74581" lon="5.15803">
        <ele>451.8</ele>
        <time>1970-01-01T00:57:38.000Z</time>
      </trkpt>
      <trkpt lat="44.74575" lon="5.15803">
        <ele>449.8</ele>
        <time>1970-01-01T00:57:39.000Z</time>
      </trkpt>
      <trkpt lat="44.74571" lon="5.15802">
        <ele>448.8</ele>
        <time>1970-01-01T00:57:40.000Z</time>
      </trkpt>
      <trkpt lat="44.74571" lon="5.15798">
        <ele>448</ele>
        <time>1970-01-01T00:57:41.000Z</time>
      </trkpt>
      <trkpt lat="44.74571" lon="5.15794">
        <ele>447.6</ele>
        <time>1970-01-01T00:57:42.000Z</time>
      </trkpt>
      <trkpt lat="44.74574" lon="5.15792">
        <ele>447.6</ele>
        <time>1970-01-01T00:57:43.000Z</time>
      </trkpt>
      <trkpt lat="44.74579" lon="5.15785">
        <ele>447.4</ele>
        <time>1970-01-01T00:57:45.000Z</time>
      </trkpt>
      <trkpt lat="44.74582" lon="5.15781">
        <ele>447.4</ele>
        <time>1970-01-01T00:57:46.000Z</time>
      </trkpt>
      <trkpt lat="44.74586" lon="5.15776">
        <ele>447.4</ele>
        <time>1970-01-01T00:57:47.000Z</time>
      </trkpt>
      <trkpt lat="44.74587" lon="5.15773">
        <ele>447.6</ele>
        <time>1970-01-01T00:57:48.000Z</time>
      </trkpt>
      <trkpt lat="44.74587" lon="5.1577">
        <ele>448.2</ele>
        <time>1970-01-01T00:57:49.000Z</time>
      </trkpt>
      <trkpt lat="44.74588" lon="5.15765">
        <ele>448.4</ele>
        <time>1970-01-01T00:57:50.000Z</time>
      </trkpt>
      <trkpt lat="44.7459" lon="5.15758">
        <ele>448.6</ele>
        <time>1970-01-01T00:57:51.000Z</time>
      </trkpt>
      <trkpt lat="44.74591" lon="5.15751">
        <ele>448.8</ele>
        <time>1970-01-01T00:57:52.000Z</time>
      </trkpt>
      <trkpt lat="44.74592" lon="5.15745">
        <ele>448.6</ele>
        <time>1970-01-01T00:57:53.000Z</time>
      </trkpt>
      <trkpt lat="44.74593" lon="5.15737">
        <ele>448.4</ele>
        <time>1970-01-01T00:57:54.000Z</time>
      </trkpt>
      <trkpt lat="44.74594" lon="5.15721">
        <ele>447.8</ele>
        <time>1970-01-01T00:57:56.000Z</time>
      </trkpt>
      <trkpt lat="44.74597" lon="5.15711">
        <ele>447.2</ele>
        <time>1970-01-01T00:57:57.000Z</time>
      </trkpt>
      <trkpt lat="44.746" lon="5.15698">
        <ele>446.4</ele>
        <time>1970-01-01T00:57:59.000Z</time>
      </trkpt>
      <trkpt lat="44.74603" lon="5.15691">
        <ele>446</ele>
        <time>1970-01-01T00:58:00.000Z</time>
      </trkpt>
      <trkpt lat="44.74604" lon="5.15681">
        <ele>445.8</ele>
        <time>1970-01-01T00:58:01.000Z</time>
      </trkpt>
      <trkpt lat="44.74605" lon="5.15674">
        <ele>445.4</ele>
        <time>1970-01-01T00:58:02.000Z</time>
      </trkpt>
      <trkpt lat="44.74604" lon="5.15665">
        <ele>445</ele>
        <time>1970-01-01T00:58:03.000Z</time>
      </trkpt>
      <trkpt lat="44.74603" lon="5.15657">
        <ele>444.8</ele>
        <time>1970-01-01T00:58:04.000Z</time>
      </trkpt>
      <trkpt lat="44.74601" lon="5.15649">
        <ele>444.8</ele>
        <time>1970-01-01T00:58:05.000Z</time>
      </trkpt>
      <trkpt lat="44.74598" lon="5.15642">
        <ele>444.8</ele>
        <time>1970-01-01T00:58:06.000Z</time>
      </trkpt>
      <trkpt lat="44.74596" lon="5.15635">
        <ele>445</ele>
        <time>1970-01-01T00:58:07.000Z</time>
      </trkpt>
      <trkpt lat="44.74594" lon="5.15629">
        <ele>445.2</ele>
        <time>1970-01-01T00:58:08.000Z</time>
      </trkpt>
      <trkpt lat="44.74595" lon="5.15623">
        <ele>445.2</ele>
        <time>1970-01-01T00:58:09.000Z</time>
      </trkpt>
      <trkpt lat="44.74597" lon="5.1562">
        <ele>445.4</ele>
        <time>1970-01-01T00:58:10.000Z</time>
      </trkpt>
      <trkpt lat="44.74598" lon="5.15616">
        <ele>445.4</ele>
        <time>1970-01-01T00:58:11.000Z</time>
      </trkpt>
      <trkpt lat="44.74599" lon="5.1561">
        <ele>445.2</ele>
        <time>1970-01-01T00:58:12.000Z</time>
      </trkpt>
      <trkpt lat="44.74598" lon="5.15603">
        <ele>445</ele>
        <time>1970-01-01T00:58:13.000Z</time>
      </trkpt>
      <trkpt lat="44.74596" lon="5.15597">
        <ele>444.8</ele>
        <time>1970-01-01T00:58:14.000Z</time>
      </trkpt>
      <trkpt lat="44.74597" lon="5.1559">
        <ele>444.8</ele>
        <time>1970-01-01T00:58:15.000Z</time>
      </trkpt>
      <trkpt lat="44.74598" lon="5.15583">
        <ele>444.8</ele>
        <time>1970-01-01T00:58:16.000Z</time>
      </trkpt>
      <trkpt lat="44.746" lon="5.15577">
        <ele>444.6</ele>
        <time>1970-01-01T00:58:17.000Z</time>
      </trkpt>
      <trkpt lat="44.74603" lon="5.15571">
        <ele>444.6</ele>
        <time>1970-01-01T00:58:18.000Z</time>
      </trkpt>
      <trkpt lat="44.74606" lon="5.15564">
        <ele>444.6</ele>
        <time>1970-01-01T00:58:19.000Z</time>
      </trkpt>
      <trkpt lat="44.74609" lon="5.15558">
        <ele>444.6</ele>
        <time>1970-01-01T00:58:20.000Z</time>
      </trkpt>
      <trkpt lat="44.74611" lon="5.15551">
        <ele>444.6</ele>
        <time>1970-01-01T00:58:21.000Z</time>
      </trkpt>
      <trkpt lat="44.74613" lon="5.15543">
        <ele>444.6</ele>
        <time>1970-01-01T00:58:22.000Z</time>
      </trkpt>
      <trkpt lat="44.74614" lon="5.15537">
        <ele>444.6</ele>
        <time>1970-01-01T00:58:23.000Z</time>
      </trkpt>
      <trkpt lat="44.74615" lon="5.15531">
        <ele>444.6</ele>
        <time>1970-01-01T00:58:24.000Z</time>
      </trkpt>
      <trkpt lat="44.74615" lon="5.15524">
        <ele>444.6</ele>
        <time>1970-01-01T00:58:25.000Z</time>
      </trkpt>
      <trkpt lat="44.74616" lon="5.15503">
        <ele>444.6</ele>
        <time>1970-01-01T00:58:28.000Z</time>
      </trkpt>
      <trkpt lat="44.74621" lon="5.15477">
        <ele>443.8</ele>
        <time>1970-01-01T00:58:31.000Z</time>
      </trkpt>
      <trkpt lat="44.74624" lon="5.15458">
        <ele>442.6</ele>
        <time>1970-01-01T00:58:33.000Z</time>
      </trkpt>
      <trkpt lat="44.74625" lon="5.15449">
        <ele>442.2</ele>
        <time>1970-01-01T00:58:34.000Z</time>
      </trkpt>
      <trkpt lat="44.74624" lon="5.1544">
        <ele>442</ele>
        <time>1970-01-01T00:58:35.000Z</time>
      </trkpt>
      <trkpt lat="44.74624" lon="5.15432">
        <ele>441.4</ele>
        <time>1970-01-01T00:58:36.000Z</time>
      </trkpt>
      <trkpt lat="44.74625" lon="5.15425">
        <ele>441.2</ele>
        <time>1970-01-01T00:58:37.000Z</time>
      </trkpt>
      <trkpt lat="44.74626" lon="5.15419">
        <ele>441.2</ele>
        <time>1970-01-01T00:58:38.000Z</time>
      </trkpt>
      <trkpt lat="44.74626" lon="5.15412">
        <ele>441.2</ele>
        <time>1970-01-01T00:58:39.000Z</time>
      </trkpt>
      <trkpt lat="44.74626" lon="5.15405">
        <ele>441.2</ele>
        <time>1970-01-01T00:58:40.000Z</time>
      </trkpt>
      <trkpt lat="44.74627" lon="5.15396">
        <ele>441.2</ele>
        <time>1970-01-01T00:58:41.000Z</time>
      </trkpt>
      <trkpt lat="44.74628" lon="5.15388">
        <ele>441.2</ele>
        <time>1970-01-01T00:58:42.000Z</time>
      </trkpt>
      <trkpt lat="44.74633" lon="5.15366">
        <ele>441</ele>
        <time>1970-01-01T00:58:45.000Z</time>
      </trkpt>
      <trkpt lat="44.74635" lon="5.15351">
        <ele>440.4</ele>
        <time>1970-01-01T00:58:47.000Z</time>
      </trkpt>
      <trkpt lat="44.74636" lon="5.15343">
        <ele>440.2</ele>
        <time>1970-01-01T00:58:48.000Z</time>
      </trkpt>
      <trkpt lat="44.74638" lon="5.15337">
        <ele>440</ele>
        <time>1970-01-01T00:58:49.000Z</time>
      </trkpt>
      <trkpt lat="44.74641" lon="5.15329">
        <ele>439.8</ele>
        <time>1970-01-01T00:58:50.000Z</time>
      </trkpt>
      <trkpt lat="44.74645" lon="5.15315">
        <ele>439.2</ele>
        <time>1970-01-01T00:58:52.000Z</time>
      </trkpt>
      <trkpt lat="44.74646" lon="5.15298">
        <ele>438.6</ele>
        <time>1970-01-01T00:58:54.000Z</time>
      </trkpt>
      <trkpt lat="44.74647" lon="5.15289">
        <ele>438.4</ele>
        <time>1970-01-01T00:58:55.000Z</time>
      </trkpt>
      <trkpt lat="44.74647" lon="5.1528">
        <ele>437.8</ele>
        <time>1970-01-01T00:58:56.000Z</time>
      </trkpt>
      <trkpt lat="44.74649" lon="5.15261">
        <ele>436.8</ele>
        <time>1970-01-01T00:58:58.000Z</time>
      </trkpt>
      <trkpt lat="44.7465" lon="5.15252">
        <ele>436.4</ele>
        <time>1970-01-01T00:58:59.000Z</time>
      </trkpt>
      <trkpt lat="44.74651" lon="5.15243">
        <ele>436.2</ele>
        <time>1970-01-01T00:59:00.000Z</time>
      </trkpt>
      <trkpt lat="44.74653" lon="5.15235">
        <ele>436</ele>
        <time>1970-01-01T00:59:01.000Z</time>
      </trkpt>
      <trkpt lat="44.74653" lon="5.15227">
        <ele>435.8</ele>
        <time>1970-01-01T00:59:02.000Z</time>
      </trkpt>
      <trkpt lat="44.74653" lon="5.15217">
        <ele>435.2</ele>
        <time>1970-01-01T00:59:03.000Z</time>
      </trkpt>
      <trkpt lat="44.74654" lon="5.1521">
        <ele>434.8</ele>
        <time>1970-01-01T00:59:04.000Z</time>
      </trkpt>
      <trkpt lat="44.74652" lon="5.15203">
        <ele>434.6</ele>
        <time>1970-01-01T00:59:05.000Z</time>
      </trkpt>
      <trkpt lat="44.74651" lon="5.15195">
        <ele>434.2</ele>
        <time>1970-01-01T00:59:06.000Z</time>
      </trkpt>
      <trkpt lat="44.74648" lon="5.15189">
        <ele>434</ele>
        <time>1970-01-01T00:59:07.000Z</time>
      </trkpt>
      <trkpt lat="44.74645" lon="5.15183">
        <ele>433.8</ele>
        <time>1970-01-01T00:59:08.000Z</time>
      </trkpt>
      <trkpt lat="44.74643" lon="5.15178">
        <ele>433.8</ele>
        <time>1970-01-01T00:59:09.000Z</time>
      </trkpt>
      <trkpt lat="44.74641" lon="5.15175">
        <ele>433.6</ele>
        <time>1970-01-01T00:59:10.000Z</time>
      </trkpt>
      <trkpt lat="44.7464" lon="5.15173">
        <ele>433.6</ele>
        <time>1970-01-01T00:59:11.000Z</time>
      </trkpt>
      <trkpt lat="44.74639" lon="5.15171">
        <ele>433.6</ele>
        <time>1970-01-01T00:59:12.000Z</time>
      </trkpt>
      <trkpt lat="44.74639" lon="5.15168">
        <ele>433.2</ele>
        <time>1970-01-01T00:59:13.000Z</time>
      </trkpt>
      <trkpt lat="44.74643" lon="5.15165">
        <ele>432.6</ele>
        <time>1970-01-01T00:59:16.000Z</time>
      </trkpt>
      <trkpt lat="44.74646" lon="5.15162">
        <ele>431</ele>
        <time>1970-01-01T01:00:12.000Z</time>
      </trkpt>
      <trkpt lat="44.74649" lon="5.1516">
        <ele>430.6</ele>
        <time>1970-01-01T01:00:13.000Z</time>
      </trkpt>
      <trkpt lat="44.74659" lon="5.15155">
        <ele>430</ele>
        <time>1970-01-01T01:00:15.000Z</time>
      </trkpt>
      <trkpt lat="44.74665" lon="5.15152">
        <ele>429</ele>
        <time>1970-01-01T01:00:16.000Z</time>
      </trkpt>
      <trkpt lat="44.74671" lon="5.15149">
        <ele>427.8</ele>
        <time>1970-01-01T01:00:17.000Z</time>
      </trkpt>
      <trkpt lat="44.74677" lon="5.15145">
        <ele>426.8</ele>
        <time>1970-01-01T01:00:18.000Z</time>
      </trkpt>
      <trkpt lat="44.74684" lon="5.15141">
        <ele>425.6</ele>
        <time>1970-01-01T01:00:19.000Z</time>
      </trkpt>
      <trkpt lat="44.7469" lon="5.15136">
        <ele>424.4</ele>
        <time>1970-01-01T01:00:20.000Z</time>
      </trkpt>
      <trkpt lat="44.74697" lon="5.15132">
        <ele>423.4</ele>
        <time>1970-01-01T01:00:21.000Z</time>
      </trkpt>
      <trkpt lat="44.74703" lon="5.15129">
        <ele>422.4</ele>
        <time>1970-01-01T01:00:22.000Z</time>
      </trkpt>
      <trkpt lat="44.7471" lon="5.15125">
        <ele>421</ele>
        <time>1970-01-01T01:00:23.000Z</time>
      </trkpt>
      <trkpt lat="44.74716" lon="5.15122">
        <ele>419.2</ele>
        <time>1970-01-01T01:00:24.000Z</time>
      </trkpt>
      <trkpt lat="44.74722" lon="5.15117">
        <ele>418.4</ele>
        <time>1970-01-01T01:00:25.000Z</time>
      </trkpt>
      <trkpt lat="44.74728" lon="5.15111">
        <ele>417.4</ele>
        <time>1970-01-01T01:00:26.000Z</time>
      </trkpt>
      <trkpt lat="44.74734" lon="5.15106">
        <ele>416.6</ele>
        <time>1970-01-01T01:00:27.000Z</time>
      </trkpt>
      <trkpt lat="44.74741" lon="5.15102">
        <ele>415.6</ele>
        <time>1970-01-01T01:00:28.000Z</time>
      </trkpt>
      <trkpt lat="44.74755" lon="5.15091">
        <ele>414.2</ele>
        <time>1970-01-01T01:00:30.000Z</time>
      </trkpt>
      <trkpt lat="44.74762" lon="5.15085">
        <ele>412.6</ele>
        <time>1970-01-01T01:00:31.000Z</time>
      </trkpt>
      <trkpt lat="44.74768" lon="5.15077">
        <ele>411.8</ele>
        <time>1970-01-01T01:00:32.000Z</time>
      </trkpt>
      <trkpt lat="44.74775" lon="5.15071">
        <ele>410</ele>
        <time>1970-01-01T01:00:33.000Z</time>
      </trkpt>
      <trkpt lat="44.74783" lon="5.15065">
        <ele>408.8</ele>
        <time>1970-01-01T01:00:34.000Z</time>
      </trkpt>
      <trkpt lat="44.7479" lon="5.15061">
        <ele>407.4</ele>
        <time>1970-01-01T01:00:35.000Z</time>
      </trkpt>
      <trkpt lat="44.74796" lon="5.15058">
        <ele>406</ele>
        <time>1970-01-01T01:00:36.000Z</time>
      </trkpt>
      <trkpt lat="44.74801" lon="5.15054">
        <ele>405.2</ele>
        <time>1970-01-01T01:00:37.000Z</time>
      </trkpt>
      <trkpt lat="44.74806" lon="5.15047">
        <ele>404</ele>
        <time>1970-01-01T01:00:38.000Z</time>
      </trkpt>
      <trkpt lat="44.7481" lon="5.15042">
        <ele>402.4</ele>
        <time>1970-01-01T01:00:39.000Z</time>
      </trkpt>
      <trkpt lat="44.74814" lon="5.1504">
        <ele>401.4</ele>
        <time>1970-01-01T01:00:40.000Z</time>
      </trkpt>
      <trkpt lat="44.74818" lon="5.15037">
        <ele>400.6</ele>
        <time>1970-01-01T01:00:41.000Z</time>
      </trkpt>
      <trkpt lat="44.74828" lon="5.15029">
        <ele>398.6</ele>
        <time>1970-01-01T01:00:43.000Z</time>
      </trkpt>
      <trkpt lat="44.74833" lon="5.15024">
        <ele>397.4</ele>
        <time>1970-01-01T01:00:44.000Z</time>
      </trkpt>
      <trkpt lat="44.74841" lon="5.1502">
        <ele>396.6</ele>
        <time>1970-01-01T01:00:45.000Z</time>
      </trkpt>
      <trkpt lat="44.74847" lon="5.15017">
        <ele>395.2</ele>
        <time>1970-01-01T01:00:46.000Z</time>
      </trkpt>
      <trkpt lat="44.74851" lon="5.15012">
        <ele>394</ele>
        <time>1970-01-01T01:00:47.000Z</time>
      </trkpt>
      <trkpt lat="44.74854" lon="5.15008">
        <ele>393.4</ele>
        <time>1970-01-01T01:00:48.000Z</time>
      </trkpt>
      <trkpt lat="44.74858" lon="5.15005">
        <ele>392.4</ele>
        <time>1970-01-01T01:00:49.000Z</time>
      </trkpt>
      <trkpt lat="44.74864" lon="5.15003">
        <ele>391.6</ele>
        <time>1970-01-01T01:00:50.000Z</time>
      </trkpt>
      <trkpt lat="44.7487" lon="5.15001">
        <ele>390.6</ele>
        <time>1970-01-01T01:00:51.000Z</time>
      </trkpt>
      <trkpt lat="44.74876" lon="5.14999">
        <ele>389.8</ele>
        <time>1970-01-01T01:00:52.000Z</time>
      </trkpt>
      <trkpt lat="44.74882" lon="5.14997">
        <ele>389</ele>
        <time>1970-01-01T01:00:53.000Z</time>
      </trkpt>
      <trkpt lat="44.74887" lon="5.14993">
        <ele>388.4</ele>
        <time>1970-01-01T01:00:54.000Z</time>
      </trkpt>
      <trkpt lat="44.74893" lon="5.1499">
        <ele>387.2</ele>
        <time>1970-01-01T01:00:55.000Z</time>
      </trkpt>
      <trkpt lat="44.74898" lon="5.14987">
        <ele>385.4</ele>
        <time>1970-01-01T01:00:56.000Z</time>
      </trkpt>
      <trkpt lat="44.74902" lon="5.14985">
        <ele>384</ele>
        <time>1970-01-01T01:00:57.000Z</time>
      </trkpt>
      <trkpt lat="44.74906" lon="5.14982">
        <ele>382.8</ele>
        <time>1970-01-01T01:00:58.000Z</time>
      </trkpt>
      <trkpt lat="44.74909" lon="5.14978">
        <ele>382.2</ele>
        <time>1970-01-01T01:00:59.000Z</time>
      </trkpt>
      <trkpt lat="44.74912" lon="5.14976">
        <ele>380</ele>
        <time>1970-01-01T01:01:00.000Z</time>
      </trkpt>
      <trkpt lat="44.74915" lon="5.14976">
        <ele>378.8</ele>
        <time>1970-01-01T01:01:01.000Z</time>
      </trkpt>
      <trkpt lat="44.74918" lon="5.14976">
        <ele>378</ele>
        <time>1970-01-01T01:01:02.000Z</time>
      </trkpt>
      <trkpt lat="44.74921" lon="5.14975">
        <ele>376.8</ele>
        <time>1970-01-01T01:01:03.000Z</time>
      </trkpt>
      <trkpt lat="44.74925" lon="5.14974">
        <ele>375.4</ele>
        <time>1970-01-01T01:01:04.000Z</time>
      </trkpt>
      <trkpt lat="44.7493" lon="5.14972">
        <ele>374.6</ele>
        <time>1970-01-01T01:01:05.000Z</time>
      </trkpt>
      <trkpt lat="44.74937" lon="5.14968">
        <ele>372.4</ele>
        <time>1970-01-01T01:01:06.000Z</time>
      </trkpt>
      <trkpt lat="44.74943" lon="5.14964">
        <ele>370.8</ele>
        <time>1970-01-01T01:01:07.000Z</time>
      </trkpt>
      <trkpt lat="44.74947" lon="5.14962">
        <ele>370</ele>
        <time>1970-01-01T01:01:08.000Z</time>
      </trkpt>
      <trkpt lat="44.74949" lon="5.14961">
        <ele>369.4</ele>
        <time>1970-01-01T01:01:09.000Z</time>
      </trkpt>
      <trkpt lat="44.74951" lon="5.14962">
        <ele>368.8</ele>
        <time>1970-01-01T01:01:10.000Z</time>
      </trkpt>
      <trkpt lat="44.74951" lon="5.14964">
        <ele>368</ele>
        <time>1970-01-01T01:01:11.000Z</time>
      </trkpt>
      <trkpt lat="44.74947" lon="5.14973">
        <ele>367.4</ele>
        <time>1970-01-01T01:01:14.000Z</time>
      </trkpt>
      <trkpt lat="44.74945" lon="5.14977">
        <ele>367.2</ele>
        <time>1970-01-01T01:01:15.000Z</time>
      </trkpt>
      <trkpt lat="44.74942" lon="5.14981">
        <ele>367</ele>
        <time>1970-01-01T01:01:16.000Z</time>
      </trkpt>
      <trkpt lat="44.74939" lon="5.14986">
        <ele>366.8</ele>
        <time>1970-01-01T01:01:17.000Z</time>
      </trkpt>
      <trkpt lat="44.74938" lon="5.14991">
        <ele>366.6</ele>
        <time>1970-01-01T01:01:18.000Z</time>
      </trkpt>
      <trkpt lat="44.74935" lon="5.15">
        <ele>366.4</ele>
        <time>1970-01-01T01:01:20.000Z</time>
      </trkpt>
      <trkpt lat="44.74934" lon="5.15005">
        <ele>366.2</ele>
        <time>1970-01-01T01:01:21.000Z</time>
      </trkpt>
      <trkpt lat="44.74933" lon="5.1501">
        <ele>366.2</ele>
        <time>1970-01-01T01:01:22.000Z</time>
      </trkpt>
      <trkpt lat="44.74931" lon="5.15016">
        <ele>365.8</ele>
        <time>1970-01-01T01:01:23.000Z</time>
      </trkpt>
      <trkpt lat="44.7493" lon="5.15022">
        <ele>365.6</ele>
        <time>1970-01-01T01:01:24.000Z</time>
      </trkpt>
      <trkpt lat="44.74929" lon="5.15029">
        <ele>365.2</ele>
        <time>1970-01-01T01:01:25.000Z</time>
      </trkpt>
      <trkpt lat="44.74928" lon="5.15037">
        <ele>364.8</ele>
        <time>1970-01-01T01:01:26.000Z</time>
      </trkpt>
      <trkpt lat="44.74927" lon="5.15044">
        <ele>364.6</ele>
        <time>1970-01-01T01:01:27.000Z</time>
      </trkpt>
      <trkpt lat="44.74925" lon="5.15051">
        <ele>364.4</ele>
        <time>1970-01-01T01:01:28.000Z</time>
      </trkpt>
      <trkpt lat="44.74925" lon="5.15058">
        <ele>364.2</ele>
        <time>1970-01-01T01:01:29.000Z</time>
      </trkpt>
      <trkpt lat="44.74924" lon="5.15065">
        <ele>363.8</ele>
        <time>1970-01-01T01:01:30.000Z</time>
      </trkpt>
      <trkpt lat="44.74923" lon="5.15072">
        <ele>363.6</ele>
        <time>1970-01-01T01:01:31.000Z</time>
      </trkpt>
      <trkpt lat="44.74921" lon="5.15079">
        <ele>363.4</ele>
        <time>1970-01-01T01:01:32.000Z</time>
      </trkpt>
      <trkpt lat="44.7492" lon="5.15091">
        <ele>362.6</ele>
        <time>1970-01-01T01:01:34.000Z</time>
      </trkpt>
      <trkpt lat="44.74919" lon="5.15097">
        <ele>362</ele>
        <time>1970-01-01T01:01:35.000Z</time>
      </trkpt>
      <trkpt lat="44.74919" lon="5.15102">
        <ele>361.4</ele>
        <time>1970-01-01T01:01:36.000Z</time>
      </trkpt>
      <trkpt lat="44.74918" lon="5.15106">
        <ele>360.6</ele>
        <time>1970-01-01T01:01:37.000Z</time>
      </trkpt>
      <trkpt lat="44.74917" lon="5.15111">
        <ele>359.4</ele>
        <time>1970-01-01T01:01:38.000Z</time>
      </trkpt>
      <trkpt lat="44.74918" lon="5.15119">
        <ele>358</ele>
        <time>1970-01-01T01:01:40.000Z</time>
      </trkpt>
      <trkpt lat="44.7492" lon="5.15124">
        <ele>357.8</ele>
        <time>1970-01-01T01:01:41.000Z</time>
      </trkpt>
      <trkpt lat="44.74921" lon="5.15127">
        <ele>357.6</ele>
        <time>1970-01-01T01:01:42.000Z</time>
      </trkpt>
      <trkpt lat="44.74924" lon="5.15129">
        <ele>357.6</ele>
        <time>1970-01-01T01:01:43.000Z</time>
      </trkpt>
      <trkpt lat="44.74924" lon="5.1513">
        <ele>357.8</ele>
        <time>1970-01-01T01:01:45.000Z</time>
      </trkpt>
      <trkpt lat="44.74925" lon="5.15136">
        <ele>358.8</ele>
        <time>1970-01-01T01:01:57.000Z</time>
      </trkpt>
      <trkpt lat="44.74926" lon="5.15136">
        <ele>359.2</ele>
        <time>1970-01-01T01:01:58.000Z</time>
      </trkpt>
      <trkpt lat="44.74928" lon="5.15138">
        <ele>359.4</ele>
        <time>1970-01-01T01:02:09.000Z</time>
      </trkpt>
      <trkpt lat="44.7493" lon="5.15139">
        <ele>359.4</ele>
        <time>1970-01-01T01:02:10.000Z</time>
      </trkpt>
      <trkpt lat="44.7493" lon="5.15138">
        <ele>359.2</ele>
        <time>1970-01-01T01:02:11.000Z</time>
      </trkpt>
      <trkpt lat="44.74931" lon="5.15131">
        <ele>360.4</ele>
        <time>1970-01-01T01:02:14.000Z</time>
      </trkpt>
      <trkpt lat="44.74931" lon="5.1513">
        <ele>360.8</ele>
        <time>1970-01-01T01:02:15.000Z</time>
      </trkpt>
      <trkpt lat="44.74934" lon="5.15125">
        <ele>362.2</ele>
        <time>1970-01-01T01:02:26.000Z</time>
      </trkpt>
      <trkpt lat="44.74935" lon="5.15124">
        <ele>362.4</ele>
        <time>1970-01-01T01:02:27.000Z</time>
      </trkpt>
      <trkpt lat="44.74936" lon="5.15123">
        <ele>362.4</ele>
        <time>1970-01-01T01:02:28.000Z</time>
      </trkpt>
      <trkpt lat="44.74936" lon="5.15123">
        <ele>363</ele>
        <time>1970-01-01T01:02:32.000Z</time>
      </trkpt>
      <trkpt lat="44.74937" lon="5.15121">
        <ele>363</ele>
        <time>1970-01-01T01:02:33.000Z</time>
      </trkpt>
      <trkpt lat="44.74937" lon="5.1512">
        <ele>363</ele>
        <time>1970-01-01T01:02:35.000Z</time>
      </trkpt>
      <trkpt lat="44.7494" lon="5.15113">
        <ele>362.8</ele>
        <time>1970-01-01T01:04:30.000Z</time>
      </trkpt>
      <trkpt lat="44.74942" lon="5.1511">
        <ele>362.8</ele>
        <time>1970-01-01T01:04:31.000Z</time>
      </trkpt>
      <trkpt lat="44.74947" lon="5.15106">
        <ele>362.8</ele>
        <time>1970-01-01T01:04:33.000Z</time>
      </trkpt>
      <trkpt lat="44.74951" lon="5.15106">
        <ele>362.8</ele>
        <time>1970-01-01T01:04:34.000Z</time>
      </trkpt>
      <trkpt lat="44.74953" lon="5.15107">
        <ele>363</ele>
        <time>1970-01-01T01:04:35.000Z</time>
      </trkpt>
      <trkpt lat="44.74957" lon="5.15111">
        <ele>363</ele>
        <time>1970-01-01T01:04:37.000Z</time>
      </trkpt>
      <trkpt lat="44.74959" lon="5.15114">
        <ele>363.2</ele>
        <time>1970-01-01T01:04:38.000Z</time>
      </trkpt>
      <trkpt lat="44.74961" lon="5.15118">
        <ele>363.2</ele>
        <time>1970-01-01T01:04:39.000Z</time>
      </trkpt>
      <trkpt lat="44.74964" lon="5.15122">
        <ele>363.2</ele>
        <time>1970-01-01T01:04:40.000Z</time>
      </trkpt>
      <trkpt lat="44.74969" lon="5.15127">
        <ele>363.2</ele>
        <time>1970-01-01T01:04:42.000Z</time>
      </trkpt>
      <trkpt lat="44.74971" lon="5.15128">
        <ele>363.4</ele>
        <time>1970-01-01T01:04:43.000Z</time>
      </trkpt>
      <trkpt lat="44.74973" lon="5.15129">
        <ele>363.4</ele>
        <time>1970-01-01T01:04:44.000Z</time>
      </trkpt>
      <trkpt lat="44.74975" lon="5.15128">
        <ele>363.4</ele>
        <time>1970-01-01T01:04:45.000Z</time>
      </trkpt>
      <trkpt lat="44.74976" lon="5.15125">
        <ele>363.4</ele>
        <time>1970-01-01T01:04:46.000Z</time>
      </trkpt>
      <trkpt lat="44.74976" lon="5.15121">
        <ele>363.4</ele>
        <time>1970-01-01T01:04:47.000Z</time>
      </trkpt>
      <trkpt lat="44.74975" lon="5.15112">
        <ele>363.6</ele>
        <time>1970-01-01T01:04:49.000Z</time>
      </trkpt>
      <trkpt lat="44.74975" lon="5.15107">
        <ele>363.8</ele>
        <time>1970-01-01T01:04:50.000Z</time>
      </trkpt>
      <trkpt lat="44.74974" lon="5.15103">
        <ele>364</ele>
        <time>1970-01-01T01:04:51.000Z</time>
      </trkpt>
      <trkpt lat="44.74974" lon="5.15094">
        <ele>364.2</ele>
        <time>1970-01-01T01:04:53.000Z</time>
      </trkpt>
      <trkpt lat="44.74976" lon="5.15091">
        <ele>364.6</ele>
        <time>1970-01-01T01:04:54.000Z</time>
      </trkpt>
      <trkpt lat="44.74979" lon="5.15089">
        <ele>364.6</ele>
        <time>1970-01-01T01:04:55.000Z</time>
      </trkpt>
      <trkpt lat="44.74982" lon="5.15088">
        <ele>364.8</ele>
        <time>1970-01-01T01:04:56.000Z</time>
      </trkpt>
      <trkpt lat="44.74984" lon="5.15087">
        <ele>365</ele>
        <time>1970-01-01T01:04:57.000Z</time>
      </trkpt>
      <trkpt lat="44.74987" lon="5.15086">
        <ele>365.2</ele>
        <time>1970-01-01T01:04:58.000Z</time>
      </trkpt>
      <trkpt lat="44.7499" lon="5.15086">
        <ele>365.6</ele>
        <time>1970-01-01T01:04:59.000Z</time>
      </trkpt>
      <trkpt lat="44.74992" lon="5.15085">
        <ele>366</ele>
        <time>1970-01-01T01:05:00.000Z</time>
      </trkpt>
      <trkpt lat="44.74994" lon="5.15083">
        <ele>366</ele>
        <time>1970-01-01T01:05:01.000Z</time>
      </trkpt>
      <trkpt lat="44.74998" lon="5.15082">
        <ele>366.2</ele>
        <time>1970-01-01T01:05:02.000Z</time>
      </trkpt>
      <trkpt lat="44.75" lon="5.1508">
        <ele>366.4</ele>
        <time>1970-01-01T01:05:03.000Z</time>
      </trkpt>
      <trkpt lat="44.75002" lon="5.15079">
        <ele>366.6</ele>
        <time>1970-01-01T01:05:04.000Z</time>
      </trkpt>
      <trkpt lat="44.75004" lon="5.15079">
        <ele>366.8</ele>
        <time>1970-01-01T01:05:05.000Z</time>
      </trkpt>
      <trkpt lat="44.75007" lon="5.15081">
        <ele>367</ele>
        <time>1970-01-01T01:05:06.000Z</time>
      </trkpt>
      <trkpt lat="44.75009" lon="5.15082">
        <ele>367</ele>
        <time>1970-01-01T01:05:07.000Z</time>
      </trkpt>
      <trkpt lat="44.75012" lon="5.15082">
        <ele>367.2</ele>
        <time>1970-01-01T01:05:08.000Z</time>
      </trkpt>
      <trkpt lat="44.75016" lon="5.1508">
        <ele>367.4</ele>
        <time>1970-01-01T01:05:09.000Z</time>
      </trkpt>
      <trkpt lat="44.75018" lon="5.15078">
        <ele>367.6</ele>
        <time>1970-01-01T01:05:10.000Z</time>
      </trkpt>
      <trkpt lat="44.75022" lon="5.15077">
        <ele>367.8</ele>
        <time>1970-01-01T01:05:11.000Z</time>
      </trkpt>
      <trkpt lat="44.75024" lon="5.15075">
        <ele>368</ele>
        <time>1970-01-01T01:05:12.000Z</time>
      </trkpt>
      <trkpt lat="44.75027" lon="5.15074">
        <ele>368.4</ele>
        <time>1970-01-01T01:05:13.000Z</time>
      </trkpt>
      <trkpt lat="44.75029" lon="5.15073">
        <ele>368.6</ele>
        <time>1970-01-01T01:05:14.000Z</time>
      </trkpt>
      <trkpt lat="44.75032" lon="5.15072">
        <ele>369.2</ele>
        <time>1970-01-01T01:05:15.000Z</time>
      </trkpt>
      <trkpt lat="44.75036" lon="5.15071">
        <ele>370.2</ele>
        <time>1970-01-01T01:05:16.000Z</time>
      </trkpt>
      <trkpt lat="44.75038" lon="5.15069">
        <ele>370.8</ele>
        <time>1970-01-01T01:05:17.000Z</time>
      </trkpt>
      <trkpt lat="44.7504" lon="5.15068">
        <ele>371.4</ele>
        <time>1970-01-01T01:05:18.000Z</time>
      </trkpt>
      <trkpt lat="44.75042" lon="5.15067">
        <ele>372</ele>
        <time>1970-01-01T01:05:19.000Z</time>
      </trkpt>
      <trkpt lat="44.75045" lon="5.15064">
        <ele>372.4</ele>
        <time>1970-01-01T01:05:20.000Z</time>
      </trkpt>
      <trkpt lat="44.75047" lon="5.15062">
        <ele>372.6</ele>
        <time>1970-01-01T01:05:21.000Z</time>
      </trkpt>
      <trkpt lat="44.75048" lon="5.1506">
        <ele>372.8</ele>
        <time>1970-01-01T01:05:22.000Z</time>
      </trkpt>
      <trkpt lat="44.75049" lon="5.15056">
        <ele>373</ele>
        <time>1970-01-01T01:05:23.000Z</time>
      </trkpt>
      <trkpt lat="44.75049" lon="5.15052">
        <ele>372.8</ele>
        <time>1970-01-01T01:05:24.000Z</time>
      </trkpt>
      <trkpt lat="44.75049" lon="5.15048">
        <ele>372.6</ele>
        <time>1970-01-01T01:05:25.000Z</time>
      </trkpt>
      <trkpt lat="44.7505" lon="5.15043">
        <ele>372.4</ele>
        <time>1970-01-01T01:05:26.000Z</time>
      </trkpt>
      <trkpt lat="44.75052" lon="5.15039">
        <ele>372.2</ele>
        <time>1970-01-01T01:05:27.000Z</time>
      </trkpt>
      <trkpt lat="44.75054" lon="5.15036">
        <ele>372.2</ele>
        <time>1970-01-01T01:05:28.000Z</time>
      </trkpt>
      <trkpt lat="44.75055" lon="5.15034">
        <ele>372.2</ele>
        <time>1970-01-01T01:05:29.000Z</time>
      </trkpt>
      <trkpt lat="44.75057" lon="5.15031">
        <ele>372.2</ele>
        <time>1970-01-01T01:05:30.000Z</time>
      </trkpt>
      <trkpt lat="44.7506" lon="5.15029">
        <ele>372.6</ele>
        <time>1970-01-01T01:05:31.000Z</time>
      </trkpt>
      <trkpt lat="44.75062" lon="5.15026">
        <ele>372.8</ele>
        <time>1970-01-01T01:05:32.000Z</time>
      </trkpt>
      <trkpt lat="44.75064" lon="5.15024">
        <ele>373</ele>
        <time>1970-01-01T01:05:33.000Z</time>
      </trkpt>
      <trkpt lat="44.75065" lon="5.15022">
        <ele>373.2</ele>
        <time>1970-01-01T01:05:34.000Z</time>
      </trkpt>
      <trkpt lat="44.75067" lon="5.15021">
        <ele>373.2</ele>
        <time>1970-01-01T01:05:35.000Z</time>
      </trkpt>
      <trkpt lat="44.75069" lon="5.15019">
        <ele>373.4</ele>
        <time>1970-01-01T01:05:36.000Z</time>
      </trkpt>
      <trkpt lat="44.7507" lon="5.15017">
        <ele>373.4</ele>
        <time>1970-01-01T01:05:37.000Z</time>
      </trkpt>
      <trkpt lat="44.75072" lon="5.15015">
        <ele>373.6</ele>
        <time>1970-01-01T01:05:38.000Z</time>
      </trkpt>
      <trkpt lat="44.75074" lon="5.15014">
        <ele>374.2</ele>
        <time>1970-01-01T01:05:39.000Z</time>
      </trkpt>
      <trkpt lat="44.75077" lon="5.15013">
        <ele>374.4</ele>
        <time>1970-01-01T01:05:40.000Z</time>
      </trkpt>
      <trkpt lat="44.75079" lon="5.15013">
        <ele>374.6</ele>
        <time>1970-01-01T01:05:41.000Z</time>
      </trkpt>
      <trkpt lat="44.75081" lon="5.15014">
        <ele>374.6</ele>
        <time>1970-01-01T01:05:42.000Z</time>
      </trkpt>
      <trkpt lat="44.75083" lon="5.15015">
        <ele>374.8</ele>
        <time>1970-01-01T01:05:43.000Z</time>
      </trkpt>
      <trkpt lat="44.75085" lon="5.15015">
        <ele>375.2</ele>
        <time>1970-01-01T01:05:44.000Z</time>
      </trkpt>
      <trkpt lat="44.75088" lon="5.15014">
        <ele>375.4</ele>
        <time>1970-01-01T01:05:45.000Z</time>
      </trkpt>
      <trkpt lat="44.7509" lon="5.15011">
        <ele>375.4</ele>
        <time>1970-01-01T01:05:46.000Z</time>
      </trkpt>
      <trkpt lat="44.75091" lon="5.15008">
        <ele>375.6</ele>
        <time>1970-01-01T01:05:47.000Z</time>
      </trkpt>
      <trkpt lat="44.75093" lon="5.15005">
        <ele>375.8</ele>
        <time>1970-01-01T01:05:48.000Z</time>
      </trkpt>
      <trkpt lat="44.75096" lon="5.15002">
        <ele>376.2</ele>
        <time>1970-01-01T01:05:49.000Z</time>
      </trkpt>
      <trkpt lat="44.75097" lon="5.15">
        <ele>376.6</ele>
        <time>1970-01-01T01:05:50.000Z</time>
      </trkpt>
      <trkpt lat="44.75099" lon="5.14998">
        <ele>376.8</ele>
        <time>1970-01-01T01:05:51.000Z</time>
      </trkpt>
      <trkpt lat="44.75101" lon="5.14996">
        <ele>377</ele>
        <time>1970-01-01T01:05:52.000Z</time>
      </trkpt>
      <trkpt lat="44.75103" lon="5.14993">
        <ele>377.2</ele>
        <time>1970-01-01T01:05:53.000Z</time>
      </trkpt>
      <trkpt lat="44.75104" lon="5.14988">
        <ele>377.4</ele>
        <time>1970-01-01T01:05:54.000Z</time>
      </trkpt>
      <trkpt lat="44.75105" lon="5.14985">
        <ele>377.4</ele>
        <time>1970-01-01T01:05:55.000Z</time>
      </trkpt>
      <trkpt lat="44.75107" lon="5.14983">
        <ele>377.8</ele>
        <time>1970-01-01T01:05:56.000Z</time>
      </trkpt>
      <trkpt lat="44.75109" lon="5.1498">
        <ele>378.2</ele>
        <time>1970-01-01T01:05:57.000Z</time>
      </trkpt>
      <trkpt lat="44.75111" lon="5.14977">
        <ele>378.4</ele>
        <time>1970-01-01T01:05:58.000Z</time>
      </trkpt>
      <trkpt lat="44.75113" lon="5.14974">
        <ele>378.6</ele>
        <time>1970-01-01T01:05:59.000Z</time>
      </trkpt>
      <trkpt lat="44.75116" lon="5.14971">
        <ele>378.8</ele>
        <time>1970-01-01T01:06:00.000Z</time>
      </trkpt>
      <trkpt lat="44.75117" lon="5.14968">
        <ele>379.2</ele>
        <time>1970-01-01T01:06:01.000Z</time>
      </trkpt>
      <trkpt lat="44.75119" lon="5.14964">
        <ele>379.4</ele>
        <time>1970-01-01T01:06:02.000Z</time>
      </trkpt>
      <trkpt lat="44.75121" lon="5.14961">
        <ele>379.4</ele>
        <time>1970-01-01T01:06:03.000Z</time>
      </trkpt>
      <trkpt lat="44.75123" lon="5.14959">
        <ele>379.6</ele>
        <time>1970-01-01T01:06:04.000Z</time>
      </trkpt>
      <trkpt lat="44.75124" lon="5.14956">
        <ele>379.8</ele>
        <time>1970-01-01T01:06:05.000Z</time>
      </trkpt>
      <trkpt lat="44.75126" lon="5.14953">
        <ele>380</ele>
        <time>1970-01-01T01:06:06.000Z</time>
      </trkpt>
      <trkpt lat="44.75127" lon="5.1495">
        <ele>380.2</ele>
        <time>1970-01-01T01:06:07.000Z</time>
      </trkpt>
      <trkpt lat="44.75129" lon="5.14947">
        <ele>380.4</ele>
        <time>1970-01-01T01:06:08.000Z</time>
      </trkpt>
      <trkpt lat="44.75131" lon="5.14944">
        <ele>380.8</ele>
        <time>1970-01-01T01:06:09.000Z</time>
      </trkpt>
      <trkpt lat="44.75132" lon="5.14942">
        <ele>381.2</ele>
        <time>1970-01-01T01:06:10.000Z</time>
      </trkpt>
      <trkpt lat="44.75133" lon="5.14938">
        <ele>381.6</ele>
        <time>1970-01-01T01:06:11.000Z</time>
      </trkpt>
      <trkpt lat="44.75135" lon="5.14933">
        <ele>381.8</ele>
        <time>1970-01-01T01:06:12.000Z</time>
      </trkpt>
      <trkpt lat="44.75136" lon="5.1493">
        <ele>382</ele>
        <time>1970-01-01T01:06:13.000Z</time>
      </trkpt>
      <trkpt lat="44.75138" lon="5.14927">
        <ele>382.2</ele>
        <time>1970-01-01T01:06:14.000Z</time>
      </trkpt>
      <trkpt lat="44.75139" lon="5.14924">
        <ele>382.6</ele>
        <time>1970-01-01T01:06:15.000Z</time>
      </trkpt>
      <trkpt lat="44.7514" lon="5.14921">
        <ele>382.8</ele>
        <time>1970-01-01T01:06:16.000Z</time>
      </trkpt>
      <trkpt lat="44.75141" lon="5.14918">
        <ele>383</ele>
        <time>1970-01-01T01:06:17.000Z</time>
      </trkpt>
      <trkpt lat="44.75142" lon="5.14914">
        <ele>383.2</ele>
        <time>1970-01-01T01:06:18.000Z</time>
      </trkpt>
      <trkpt lat="44.75143" lon="5.14913">
        <ele>383.2</ele>
        <time>1970-01-01T01:06:19.000Z</time>
      </trkpt>
      <trkpt lat="44.75145" lon="5.1491">
        <ele>383.6</ele>
        <time>1970-01-01T01:06:20.000Z</time>
      </trkpt>
      <trkpt lat="44.75147" lon="5.14908">
        <ele>383.6</ele>
        <time>1970-01-01T01:06:21.000Z</time>
      </trkpt>
      <trkpt lat="44.75148" lon="5.14906">
        <ele>383.8</ele>
        <time>1970-01-01T01:06:22.000Z</time>
      </trkpt>
      <trkpt lat="44.7515" lon="5.14903">
        <ele>384</ele>
        <time>1970-01-01T01:06:23.000Z</time>
      </trkpt>
      <trkpt lat="44.7515" lon="5.14901">
        <ele>384.4</ele>
        <time>1970-01-01T01:06:24.000Z</time>
      </trkpt>
      <trkpt lat="44.75152" lon="5.14898">
        <ele>384.8</ele>
        <time>1970-01-01T01:06:25.000Z</time>
      </trkpt>
      <trkpt lat="44.75153" lon="5.14894">
        <ele>384.8</ele>
        <time>1970-01-01T01:06:26.000Z</time>
      </trkpt>
      <trkpt lat="44.75154" lon="5.14891">
        <ele>385</ele>
        <time>1970-01-01T01:06:27.000Z</time>
      </trkpt>
      <trkpt lat="44.75155" lon="5.14887">
        <ele>385.2</ele>
        <time>1970-01-01T01:06:28.000Z</time>
      </trkpt>
      <trkpt lat="44.75156" lon="5.14884">
        <ele>385.6</ele>
        <time>1970-01-01T01:06:29.000Z</time>
      </trkpt>
      <trkpt lat="44.75158" lon="5.1488">
        <ele>385.8</ele>
        <time>1970-01-01T01:06:30.000Z</time>
      </trkpt>
      <trkpt lat="44.75159" lon="5.14877">
        <ele>386</ele>
        <time>1970-01-01T01:06:31.000Z</time>
      </trkpt>
      <trkpt lat="44.7516" lon="5.14874">
        <ele>386.2</ele>
        <time>1970-01-01T01:06:32.000Z</time>
      </trkpt>
      <trkpt lat="44.75162" lon="5.1487">
        <ele>386.4</ele>
        <time>1970-01-01T01:06:33.000Z</time>
      </trkpt>
      <trkpt lat="44.75164" lon="5.14867">
        <ele>386.6</ele>
        <time>1970-01-01T01:06:34.000Z</time>
      </trkpt>
      <trkpt lat="44.75166" lon="5.14864">
        <ele>387.2</ele>
        <time>1970-01-01T01:06:35.000Z</time>
      </trkpt>
      <trkpt lat="44.75168" lon="5.14864">
        <ele>387.6</ele>
        <time>1970-01-01T01:06:36.000Z</time>
      </trkpt>
      <trkpt lat="44.75169" lon="5.14864">
        <ele>387.8</ele>
        <time>1970-01-01T01:06:37.000Z</time>
      </trkpt>
      <trkpt lat="44.75171" lon="5.14863">
        <ele>388</ele>
        <time>1970-01-01T01:06:38.000Z</time>
      </trkpt>
      <trkpt lat="44.75174" lon="5.14863">
        <ele>388</ele>
        <time>1970-01-01T01:06:39.000Z</time>
      </trkpt>
      <trkpt lat="44.75178" lon="5.14864">
        <ele>388.2</ele>
        <time>1970-01-01T01:06:40.000Z</time>
      </trkpt>
      <trkpt lat="44.75183" lon="5.14864">
        <ele>387.6</ele>
        <time>1970-01-01T01:06:41.000Z</time>
      </trkpt>
      <trkpt lat="44.75188" lon="5.14864">
        <ele>387.2</ele>
        <time>1970-01-01T01:06:42.000Z</time>
      </trkpt>
      <trkpt lat="44.75193" lon="5.14864">
        <ele>387</ele>
        <time>1970-01-01T01:06:43.000Z</time>
      </trkpt>
      <trkpt lat="44.75197" lon="5.14864">
        <ele>386.6</ele>
        <time>1970-01-01T01:06:44.000Z</time>
      </trkpt>
      <trkpt lat="44.75201" lon="5.14865">
        <ele>386.2</ele>
        <time>1970-01-01T01:06:45.000Z</time>
      </trkpt>
      <trkpt lat="44.75205" lon="5.14864">
        <ele>385.6</ele>
        <time>1970-01-01T01:06:46.000Z</time>
      </trkpt>
      <trkpt lat="44.75209" lon="5.14864">
        <ele>385.2</ele>
        <time>1970-01-01T01:06:47.000Z</time>
      </trkpt>
      <trkpt lat="44.75213" lon="5.14862">
        <ele>384.8</ele>
        <time>1970-01-01T01:06:48.000Z</time>
      </trkpt>
      <trkpt lat="44.75217" lon="5.14859">
        <ele>384.6</ele>
        <time>1970-01-01T01:06:49.000Z</time>
      </trkpt>
      <trkpt lat="44.75221" lon="5.14855">
        <ele>384.2</ele>
        <time>1970-01-01T01:06:50.000Z</time>
      </trkpt>
      <trkpt lat="44.75226" lon="5.1485">
        <ele>383.4</ele>
        <time>1970-01-01T01:06:51.000Z</time>
      </trkpt>
      <trkpt lat="44.7523" lon="5.14843">
        <ele>382.8</ele>
        <time>1970-01-01T01:06:52.000Z</time>
      </trkpt>
      <trkpt lat="44.75234" lon="5.14835">
        <ele>382.4</ele>
        <time>1970-01-01T01:06:53.000Z</time>
      </trkpt>
      <trkpt lat="44.75238" lon="5.14827">
        <ele>381.4</ele>
        <time>1970-01-01T01:06:54.000Z</time>
      </trkpt>
      <trkpt lat="44.75248" lon="5.14811">
        <ele>380.2</ele>
        <time>1970-01-01T01:06:56.000Z</time>
      </trkpt>
      <trkpt lat="44.75253" lon="5.14801">
        <ele>379.6</ele>
        <time>1970-01-01T01:06:57.000Z</time>
      </trkpt>
      <trkpt lat="44.75258" lon="5.1479">
        <ele>378.8</ele>
        <time>1970-01-01T01:06:58.000Z</time>
      </trkpt>
      <trkpt lat="44.75266" lon="5.14769">
        <ele>377.6</ele>
        <time>1970-01-01T01:07:00.000Z</time>
      </trkpt>
      <trkpt lat="44.7527" lon="5.14759">
        <ele>376.4</ele>
        <time>1970-01-01T01:07:01.000Z</time>
      </trkpt>
      <trkpt lat="44.75274" lon="5.1475">
        <ele>375.6</ele>
        <time>1970-01-01T01:07:02.000Z</time>
      </trkpt>
      <trkpt lat="44.75278" lon="5.14741">
        <ele>375.2</ele>
        <time>1970-01-01T01:07:03.000Z</time>
      </trkpt>
      <trkpt lat="44.75283" lon="5.14733">
        <ele>374.6</ele>
        <time>1970-01-01T01:07:04.000Z</time>
      </trkpt>
      <trkpt lat="44.75288" lon="5.14727">
        <ele>374</ele>
        <time>1970-01-01T01:07:05.000Z</time>
      </trkpt>
      <trkpt lat="44.75294" lon="5.1472">
        <ele>373.6</ele>
        <time>1970-01-01T01:07:06.000Z</time>
      </trkpt>
      <trkpt lat="44.75307" lon="5.14708">
        <ele>372.8</ele>
        <time>1970-01-01T01:07:08.000Z</time>
      </trkpt>
      <trkpt lat="44.75311" lon="5.147">
        <ele>372.4</ele>
        <time>1970-01-01T01:07:09.000Z</time>
      </trkpt>
      <trkpt lat="44.75315" lon="5.1469">
        <ele>371.6</ele>
        <time>1970-01-01T01:07:10.000Z</time>
      </trkpt>
      <trkpt lat="44.75319" lon="5.14679">
        <ele>370.6</ele>
        <time>1970-01-01T01:07:11.000Z</time>
      </trkpt>
      <trkpt lat="44.75322" lon="5.14669">
        <ele>370</ele>
        <time>1970-01-01T01:07:12.000Z</time>
      </trkpt>
      <trkpt lat="44.75327" lon="5.14658">
        <ele>369</ele>
        <time>1970-01-01T01:07:13.000Z</time>
      </trkpt>
      <trkpt lat="44.7533" lon="5.14647">
        <ele>367.4</ele>
        <time>1970-01-01T01:07:14.000Z</time>
      </trkpt>
      <trkpt lat="44.75334" lon="5.14638">
        <ele>366</ele>
        <time>1970-01-01T01:07:15.000Z</time>
      </trkpt>
      <trkpt lat="44.75337" lon="5.14631">
        <ele>365</ele>
        <time>1970-01-01T01:07:16.000Z</time>
      </trkpt>
      <trkpt lat="44.75341" lon="5.14626">
        <ele>364.4</ele>
        <time>1970-01-01T01:07:17.000Z</time>
      </trkpt>
      <trkpt lat="44.75344" lon="5.14624">
        <ele>364</ele>
        <time>1970-01-01T01:07:18.000Z</time>
      </trkpt>
      <trkpt lat="44.75346" lon="5.14621">
        <ele>363.2</ele>
        <time>1970-01-01T01:07:19.000Z</time>
      </trkpt>
      <trkpt lat="44.75347" lon="5.14619">
        <ele>362.8</ele>
        <time>1970-01-01T01:07:20.000Z</time>
      </trkpt>
      <trkpt lat="44.75348" lon="5.14618">
        <ele>362.2</ele>
        <time>1970-01-01T01:07:21.000Z</time>
      </trkpt>
      <trkpt lat="44.75346" lon="5.1462">
        <ele>361.4</ele>
        <time>1970-01-01T01:07:29.000Z</time>
      </trkpt>
      <trkpt lat="44.75345" lon="5.14619">
        <ele>361.4</ele>
        <time>1970-01-01T01:07:30.000Z</time>
      </trkpt>
      <trkpt lat="44.75339" lon="5.14619">
        <ele>361.4</ele>
        <time>1970-01-01T01:07:32.000Z</time>
      </trkpt>
      <trkpt lat="44.75336" lon="5.14618">
        <ele>361.2</ele>
        <time>1970-01-01T01:07:33.000Z</time>
      </trkpt>
      <trkpt lat="44.75332" lon="5.14617">
        <ele>361</ele>
        <time>1970-01-01T01:07:34.000Z</time>
      </trkpt>
      <trkpt lat="44.75329" lon="5.14617">
        <ele>360.8</ele>
        <time>1970-01-01T01:07:35.000Z</time>
      </trkpt>
      <trkpt lat="44.75325" lon="5.14615">
        <ele>360.8</ele>
        <time>1970-01-01T01:07:36.000Z</time>
      </trkpt>
      <trkpt lat="44.75316" lon="5.1461">
        <ele>360</ele>
        <time>1970-01-01T01:07:38.000Z</time>
      </trkpt>
      <trkpt lat="44.75309" lon="5.14607">
        <ele>359.6</ele>
        <time>1970-01-01T01:07:39.000Z</time>
      </trkpt>
      <trkpt lat="44.75304" lon="5.14604">
        <ele>359</ele>
        <time>1970-01-01T01:07:40.000Z</time>
      </trkpt>
      <trkpt lat="44.753" lon="5.146">
        <ele>358.4</ele>
        <time>1970-01-01T01:07:41.000Z</time>
      </trkpt>
      <trkpt lat="44.75296" lon="5.14595">
        <ele>357.2</ele>
        <time>1970-01-01T01:07:42.000Z</time>
      </trkpt>
      <trkpt lat="44.75296" lon="5.14585">
        <ele>355.8</ele>
        <time>1970-01-01T01:07:44.000Z</time>
      </trkpt>
      <trkpt lat="44.753" lon="5.14575">
        <ele>355</ele>
        <time>1970-01-01T01:07:46.000Z</time>
      </trkpt>
      <trkpt lat="44.75302" lon="5.14568">
        <ele>354.4</ele>
        <time>1970-01-01T01:07:47.000Z</time>
      </trkpt>
      <trkpt lat="44.75305" lon="5.1456">
        <ele>353.8</ele>
        <time>1970-01-01T01:07:48.000Z</time>
      </trkpt>
      <trkpt lat="44.75307" lon="5.14551">
        <ele>353</ele>
        <time>1970-01-01T01:07:49.000Z</time>
      </trkpt>
      <trkpt lat="44.75309" lon="5.14543">
        <ele>352.4</ele>
        <time>1970-01-01T01:07:50.000Z</time>
      </trkpt>
      <trkpt lat="44.75312" lon="5.14536">
        <ele>350.8</ele>
        <time>1970-01-01T01:07:51.000Z</time>
      </trkpt>
      <trkpt lat="44.75314" lon="5.14528">
        <ele>350</ele>
        <time>1970-01-01T01:07:52.000Z</time>
      </trkpt>
      <trkpt lat="44.75317" lon="5.14521">
        <ele>349.6</ele>
        <time>1970-01-01T01:07:53.000Z</time>
      </trkpt>
      <trkpt lat="44.7532" lon="5.14516">
        <ele>349.4</ele>
        <time>1970-01-01T01:07:54.000Z</time>
      </trkpt>
      <trkpt lat="44.75322" lon="5.14511">
        <ele>349.2</ele>
        <time>1970-01-01T01:07:55.000Z</time>
      </trkpt>
      <trkpt lat="44.75324" lon="5.14507">
        <ele>349.6</ele>
        <time>1970-01-01T01:07:56.000Z</time>
      </trkpt>
      <trkpt lat="44.75327" lon="5.14502">
        <ele>350.2</ele>
        <time>1970-01-01T01:07:57.000Z</time>
      </trkpt>
      <trkpt lat="44.75329" lon="5.14497">
        <ele>350.6</ele>
        <time>1970-01-01T01:07:58.000Z</time>
      </trkpt>
      <trkpt lat="44.75332" lon="5.14488">
        <ele>351</ele>
        <time>1970-01-01T01:08:00.000Z</time>
      </trkpt>
      <trkpt lat="44.75333" lon="5.14483">
        <ele>351.2</ele>
        <time>1970-01-01T01:08:01.000Z</time>
      </trkpt>
      <trkpt lat="44.75335" lon="5.14477">
        <ele>351.2</ele>
        <time>1970-01-01T01:08:02.000Z</time>
      </trkpt>
      <trkpt lat="44.7534" lon="5.14452">
        <ele>351</ele>
        <time>1970-01-01T01:08:06.000Z</time>
      </trkpt>
      <trkpt lat="44.75343" lon="5.14437">
        <ele>350.4</ele>
        <time>1970-01-01T01:08:08.000Z</time>
      </trkpt>
      <trkpt lat="44.75346" lon="5.14429">
        <ele>350.2</ele>
        <time>1970-01-01T01:08:09.000Z</time>
      </trkpt>
      <trkpt lat="44.7535" lon="5.14421">
        <ele>349.8</ele>
        <time>1970-01-01T01:08:10.000Z</time>
      </trkpt>
      <trkpt lat="44.75353" lon="5.14414">
        <ele>349.2</ele>
        <time>1970-01-01T01:08:11.000Z</time>
      </trkpt>
      <trkpt lat="44.75357" lon="5.14408">
        <ele>348.8</ele>
        <time>1970-01-01T01:08:12.000Z</time>
      </trkpt>
      <trkpt lat="44.75361" lon="5.14403">
        <ele>348.4</ele>
        <time>1970-01-01T01:08:13.000Z</time>
      </trkpt>
      <trkpt lat="44.75365" lon="5.14397">
        <ele>348.2</ele>
        <time>1970-01-01T01:08:14.000Z</time>
      </trkpt>
      <trkpt lat="44.75372" lon="5.14386">
        <ele>348</ele>
        <time>1970-01-01T01:08:16.000Z</time>
      </trkpt>
      <trkpt lat="44.75381" lon="5.1437">
        <ele>347</ele>
        <time>1970-01-01T01:08:18.000Z</time>
      </trkpt>
      <trkpt lat="44.75387" lon="5.14362">
        <ele>345.8</ele>
        <time>1970-01-01T01:08:19.000Z</time>
      </trkpt>
      <trkpt lat="44.75393" lon="5.14352">
        <ele>344.6</ele>
        <time>1970-01-01T01:08:20.000Z</time>
      </trkpt>
      <trkpt lat="44.75398" lon="5.14342">
        <ele>344</ele>
        <time>1970-01-01T01:08:21.000Z</time>
      </trkpt>
      <trkpt lat="44.75404" lon="5.14331">
        <ele>342.4</ele>
        <time>1970-01-01T01:08:22.000Z</time>
      </trkpt>
      <trkpt lat="44.75408" lon="5.14322">
        <ele>340.8</ele>
        <time>1970-01-01T01:08:23.000Z</time>
      </trkpt>
      <trkpt lat="44.75412" lon="5.14315">
        <ele>340</ele>
        <time>1970-01-01T01:08:24.000Z</time>
      </trkpt>
      <trkpt lat="44.75416" lon="5.14312">
        <ele>339.2</ele>
        <time>1970-01-01T01:08:25.000Z</time>
      </trkpt>
      <trkpt lat="44.7542" lon="5.14313">
        <ele>338.8</ele>
        <time>1970-01-01T01:08:26.000Z</time>
      </trkpt>
      <trkpt lat="44.75425" lon="5.14315">
        <ele>337.6</ele>
        <time>1970-01-01T01:08:27.000Z</time>
      </trkpt>
      <trkpt lat="44.75432" lon="5.14317">
        <ele>335.4</ele>
        <time>1970-01-01T01:08:28.000Z</time>
      </trkpt>
      <trkpt lat="44.75439" lon="5.14319">
        <ele>334</ele>
        <time>1970-01-01T01:08:29.000Z</time>
      </trkpt>
      <trkpt lat="44.75445" lon="5.14319">
        <ele>333</ele>
        <time>1970-01-01T01:08:30.000Z</time>
      </trkpt>
      <trkpt lat="44.75449" lon="5.14316">
        <ele>331.2</ele>
        <time>1970-01-01T01:08:31.000Z</time>
      </trkpt>
      <trkpt lat="44.75452" lon="5.1431">
        <ele>330.2</ele>
        <time>1970-01-01T01:08:32.000Z</time>
      </trkpt>
      <trkpt lat="44.75454" lon="5.14303">
        <ele>329.4</ele>
        <time>1970-01-01T01:08:33.000Z</time>
      </trkpt>
      <trkpt lat="44.75455" lon="5.14299">
        <ele>327.8</ele>
        <time>1970-01-01T01:08:34.000Z</time>
      </trkpt>
      <trkpt lat="44.75458" lon="5.14298">
        <ele>327</ele>
        <time>1970-01-01T01:08:35.000Z</time>
      </trkpt>
      <trkpt lat="44.7546" lon="5.143">
        <ele>326.2</ele>
        <time>1970-01-01T01:08:36.000Z</time>
      </trkpt>
      <trkpt lat="44.75463" lon="5.14305">
        <ele>325.8</ele>
        <time>1970-01-01T01:08:38.000Z</time>
      </trkpt>
      <trkpt lat="44.75465" lon="5.14309">
        <ele>325.2</ele>
        <time>1970-01-01T01:08:39.000Z</time>
      </trkpt>
      <trkpt lat="44.7547" lon="5.14324">
        <ele>324.2</ele>
        <time>1970-01-01T01:08:42.000Z</time>
      </trkpt>
      <trkpt lat="44.75471" lon="5.14329">
        <ele>324</ele>
        <time>1970-01-01T01:08:43.000Z</time>
      </trkpt>
      <trkpt lat="44.75474" lon="5.14335">
        <ele>323.6</ele>
        <time>1970-01-01T01:08:44.000Z</time>
      </trkpt>
      <trkpt lat="44.75477" lon="5.1434">
        <ele>323.2</ele>
        <time>1970-01-01T01:08:45.000Z</time>
      </trkpt>
      <trkpt lat="44.75481" lon="5.14344">
        <ele>323</ele>
        <time>1970-01-01T01:08:46.000Z</time>
      </trkpt>
      <trkpt lat="44.75484" lon="5.14349">
        <ele>323</ele>
        <time>1970-01-01T01:08:47.000Z</time>
      </trkpt>
      <trkpt lat="44.75487" lon="5.14353">
        <ele>322.6</ele>
        <time>1970-01-01T01:08:48.000Z</time>
      </trkpt>
      <trkpt lat="44.75498" lon="5.14365">
        <ele>321.8</ele>
        <time>1970-01-01T01:08:51.000Z</time>
      </trkpt>
      <trkpt lat="44.75502" lon="5.14368">
        <ele>321.4</ele>
        <time>1970-01-01T01:08:52.000Z</time>
      </trkpt>
      <trkpt lat="44.75506" lon="5.14372">
        <ele>321.2</ele>
        <time>1970-01-01T01:08:53.000Z</time>
      </trkpt>
      <trkpt lat="44.7552" lon="5.14384">
        <ele>320.4</ele>
        <time>1970-01-01T01:08:56.000Z</time>
      </trkpt>
      <trkpt lat="44.75533" lon="5.14398">
        <ele>319.6</ele>
        <time>1970-01-01T01:08:59.000Z</time>
      </trkpt>
      <trkpt lat="44.75542" lon="5.14411">
        <ele>319.2</ele>
        <time>1970-01-01T01:09:01.000Z</time>
      </trkpt>
      <trkpt lat="44.75546" lon="5.14416">
        <ele>318.8</ele>
        <time>1970-01-01T01:09:02.000Z</time>
      </trkpt>
      <trkpt lat="44.75551" lon="5.14421">
        <ele>318.6</ele>
        <time>1970-01-01T01:09:03.000Z</time>
      </trkpt>
      <trkpt lat="44.75557" lon="5.14424">
        <ele>318.2</ele>
        <time>1970-01-01T01:09:04.000Z</time>
      </trkpt>
      <trkpt lat="44.75563" lon="5.14426">
        <ele>318</ele>
        <time>1970-01-01T01:09:05.000Z</time>
      </trkpt>
      <trkpt lat="44.75568" lon="5.14426">
        <ele>318</ele>
        <time>1970-01-01T01:09:06.000Z</time>
      </trkpt>
      <trkpt lat="44.75573" lon="5.14426">
        <ele>318</ele>
        <time>1970-01-01T01:09:07.000Z</time>
      </trkpt>
      <trkpt lat="44.75576" lon="5.14426">
        <ele>318.4</ele>
        <time>1970-01-01T01:09:08.000Z</time>
      </trkpt>
      <trkpt lat="44.75581" lon="5.14425">
        <ele>318.8</ele>
        <time>1970-01-01T01:09:09.000Z</time>
      </trkpt>
      <trkpt lat="44.75585" lon="5.14425">
        <ele>319</ele>
        <time>1970-01-01T01:09:10.000Z</time>
      </trkpt>
      <trkpt lat="44.75588" lon="5.14425">
        <ele>319.4</ele>
        <time>1970-01-01T01:09:11.000Z</time>
      </trkpt>
      <trkpt lat="44.75598" lon="5.14425">
        <ele>320.4</ele>
        <time>1970-01-01T01:09:14.000Z</time>
      </trkpt>
      <trkpt lat="44.75602" lon="5.14425">
        <ele>320.6</ele>
        <time>1970-01-01T01:09:15.000Z</time>
      </trkpt>
      <trkpt lat="44.75604" lon="5.14424">
        <ele>321</ele>
        <time>1970-01-01T01:09:16.000Z</time>
      </trkpt>
      <trkpt lat="44.75606" lon="5.14423">
        <ele>321.2</ele>
        <time>1970-01-01T01:09:17.000Z</time>
      </trkpt>
      <trkpt lat="44.75608" lon="5.1442">
        <ele>321.4</ele>
        <time>1970-01-01T01:09:18.000Z</time>
      </trkpt>
      <trkpt lat="44.75609" lon="5.14417">
        <ele>321.8</ele>
        <time>1970-01-01T01:09:19.000Z</time>
      </trkpt>
      <trkpt lat="44.75609" lon="5.14409">
        <ele>322</ele>
        <time>1970-01-01T01:09:21.000Z</time>
      </trkpt>
      <trkpt lat="44.75608" lon="5.14405">
        <ele>322.2</ele>
        <time>1970-01-01T01:09:22.000Z</time>
      </trkpt>
      <trkpt lat="44.75607" lon="5.14402">
        <ele>322.2</ele>
        <time>1970-01-01T01:09:23.000Z</time>
      </trkpt>
      <trkpt lat="44.75605" lon="5.14398">
        <ele>322.2</ele>
        <time>1970-01-01T01:09:24.000Z</time>
      </trkpt>
      <trkpt lat="44.75598" lon="5.14371">
        <ele>322</ele>
        <time>1970-01-01T01:09:30.000Z</time>
      </trkpt>
      <trkpt lat="44.75588" lon="5.14336">
        <ele>321.6</ele>
        <time>1970-01-01T01:09:37.000Z</time>
      </trkpt>
      <trkpt lat="44.75586" lon="5.14332">
        <ele>321.6</ele>
        <time>1970-01-01T01:09:38.000Z</time>
      </trkpt>
      <trkpt lat="44.75584" lon="5.14325">
        <ele>321.4</ele>
        <time>1970-01-01T01:09:39.000Z</time>
      </trkpt>
      <trkpt lat="44.75583" lon="5.1432">
        <ele>321.4</ele>
        <time>1970-01-01T01:09:40.000Z</time>
      </trkpt>
      <trkpt lat="44.75581" lon="5.14315">
        <ele>321.4</ele>
        <time>1970-01-01T01:09:41.000Z</time>
      </trkpt>
      <trkpt lat="44.75579" lon="5.14311">
        <ele>321.4</ele>
        <time>1970-01-01T01:09:42.000Z</time>
      </trkpt>
      <trkpt lat="44.75575" lon="5.14302">
        <ele>321.2</ele>
        <time>1970-01-01T01:09:44.000Z</time>
      </trkpt>
      <trkpt lat="44.75567" lon="5.14283">
        <ele>320.6</ele>
        <time>1970-01-01T01:09:48.000Z</time>
      </trkpt>
      <trkpt lat="44.75564" lon="5.14277">
        <ele>320.4</ele>
        <time>1970-01-01T01:09:49.000Z</time>
      </trkpt>
      <trkpt lat="44.7556" lon="5.14267">
        <ele>320</ele>
        <time>1970-01-01T01:09:51.000Z</time>
      </trkpt>
      <trkpt lat="44.75558" lon="5.14262">
        <ele>320</ele>
        <time>1970-01-01T01:09:52.000Z</time>
      </trkpt>
      <trkpt lat="44.75555" lon="5.14257">
        <ele>320</ele>
        <time>1970-01-01T01:09:53.000Z</time>
      </trkpt>
      <trkpt lat="44.75548" lon="5.14242">
        <ele>319.8</ele>
        <time>1970-01-01T01:09:56.000Z</time>
      </trkpt>
      <trkpt lat="44.75546" lon="5.14237">
        <ele>319.8</ele>
        <time>1970-01-01T01:09:57.000Z</time>
      </trkpt>
      <trkpt lat="44.75544" lon="5.14233">
        <ele>319.8</ele>
        <time>1970-01-01T01:09:58.000Z</time>
      </trkpt>
      <trkpt lat="44.75543" lon="5.14227">
        <ele>319.6</ele>
        <time>1970-01-01T01:09:59.000Z</time>
      </trkpt>
      <trkpt lat="44.75541" lon="5.14222">
        <ele>319.8</ele>
        <time>1970-01-01T01:10:00.000Z</time>
      </trkpt>
      <trkpt lat="44.75535" lon="5.14208">
        <ele>319.8</ele>
        <time>1970-01-01T01:10:03.000Z</time>
      </trkpt>
      <trkpt lat="44.75534" lon="5.14204">
        <ele>319.8</ele>
        <time>1970-01-01T01:10:04.000Z</time>
      </trkpt>
      <trkpt lat="44.75532" lon="5.14198">
        <ele>319.8</ele>
        <time>1970-01-01T01:10:05.000Z</time>
      </trkpt>
      <trkpt lat="44.75531" lon="5.14194">
        <ele>319.8</ele>
        <time>1970-01-01T01:10:06.000Z</time>
      </trkpt>
      <trkpt lat="44.7553" lon="5.14189">
        <ele>319.8</ele>
        <time>1970-01-01T01:10:07.000Z</time>
      </trkpt>
      <trkpt lat="44.75529" lon="5.14185">
        <ele>319.8</ele>
        <time>1970-01-01T01:10:08.000Z</time>
      </trkpt>
      <trkpt lat="44.75528" lon="5.1418">
        <ele>319.8</ele>
        <time>1970-01-01T01:10:09.000Z</time>
      </trkpt>
      <trkpt lat="44.75527" lon="5.14171">
        <ele>320</ele>
        <time>1970-01-01T01:10:11.000Z</time>
      </trkpt>
      <trkpt lat="44.75527" lon="5.14165">
        <ele>319.8</ele>
        <time>1970-01-01T01:10:12.000Z</time>
      </trkpt>
      <trkpt lat="44.75526" lon="5.14155">
        <ele>320</ele>
        <time>1970-01-01T01:10:14.000Z</time>
      </trkpt>
      <trkpt lat="44.75526" lon="5.1415">
        <ele>320</ele>
        <time>1970-01-01T01:10:15.000Z</time>
      </trkpt>
      <trkpt lat="44.75526" lon="5.14146">
        <ele>320</ele>
        <time>1970-01-01T01:10:16.000Z</time>
      </trkpt>
      <trkpt lat="44.75527" lon="5.14142">
        <ele>320</ele>
        <time>1970-01-01T01:10:17.000Z</time>
      </trkpt>
      <trkpt lat="44.75527" lon="5.14137">
        <ele>320.2</ele>
        <time>1970-01-01T01:10:18.000Z</time>
      </trkpt>
      <trkpt lat="44.75528" lon="5.14103">
        <ele>320.6</ele>
        <time>1970-01-01T01:10:25.000Z</time>
      </trkpt>
      <trkpt lat="44.75529" lon="5.14092">
        <ele>320.8</ele>
        <time>1970-01-01T01:10:27.000Z</time>
      </trkpt>
      <trkpt lat="44.75529" lon="5.14081">
        <ele>320.8</ele>
        <time>1970-01-01T01:10:29.000Z</time>
      </trkpt>
      <trkpt lat="44.75528" lon="5.14063">
        <ele>321</ele>
        <time>1970-01-01T01:10:32.000Z</time>
      </trkpt>
      <trkpt lat="44.75528" lon="5.14057">
        <ele>321</ele>
        <time>1970-01-01T01:10:33.000Z</time>
      </trkpt>
      <trkpt lat="44.75527" lon="5.14051">
        <ele>321</ele>
        <time>1970-01-01T01:10:34.000Z</time>
      </trkpt>
      <trkpt lat="44.75527" lon="5.14046">
        <ele>321</ele>
        <time>1970-01-01T01:10:35.000Z</time>
      </trkpt>
      <trkpt lat="44.75526" lon="5.1404">
        <ele>321</ele>
        <time>1970-01-01T01:10:36.000Z</time>
      </trkpt>
      <trkpt lat="44.75525" lon="5.14035">
        <ele>321</ele>
        <time>1970-01-01T01:10:37.000Z</time>
      </trkpt>
      <trkpt lat="44.75523" lon="5.14026">
        <ele>321.2</ele>
        <time>1970-01-01T01:10:39.000Z</time>
      </trkpt>
      <trkpt lat="44.75521" lon="5.14021">
        <ele>321.4</ele>
        <time>1970-01-01T01:10:40.000Z</time>
      </trkpt>
      <trkpt lat="44.7552" lon="5.14016">
        <ele>321.4</ele>
        <time>1970-01-01T01:10:41.000Z</time>
      </trkpt>
      <trkpt lat="44.7551" lon="5.13994">
        <ele>321.4</ele>
        <time>1970-01-01T01:10:46.000Z</time>
      </trkpt>
      <trkpt lat="44.75508" lon="5.1399">
        <ele>321.2</ele>
        <time>1970-01-01T01:10:47.000Z</time>
      </trkpt>
      <trkpt lat="44.75491" lon="5.13952">
        <ele>321</ele>
        <time>1970-01-01T01:10:55.000Z</time>
      </trkpt>
      <trkpt lat="44.75483" lon="5.13917">
        <ele>320.2</ele>
        <time>1970-01-01T01:11:01.000Z</time>
      </trkpt>
      <trkpt lat="44.75481" lon="5.13905">
        <ele>320</ele>
        <time>1970-01-01T01:11:03.000Z</time>
      </trkpt>
      <trkpt lat="44.75477" lon="5.13878">
        <ele>319.6</ele>
        <time>1970-01-01T01:11:07.000Z</time>
      </trkpt>
      <trkpt lat="44.75476" lon="5.13862">
        <ele>319.4</ele>
        <time>1970-01-01T01:11:09.000Z</time>
      </trkpt>
      <trkpt lat="44.75477" lon="5.13854">
        <ele>319.2</ele>
        <time>1970-01-01T01:11:10.000Z</time>
      </trkpt>
      <trkpt lat="44.75478" lon="5.13838">
        <ele>318.6</ele>
        <time>1970-01-01T01:11:12.000Z</time>
      </trkpt>
      <trkpt lat="44.75479" lon="5.1383">
        <ele>318.4</ele>
        <time>1970-01-01T01:11:13.000Z</time>
      </trkpt>
      <trkpt lat="44.7548" lon="5.13822">
        <ele>318</ele>
        <time>1970-01-01T01:11:14.000Z</time>
      </trkpt>
      <trkpt lat="44.75484" lon="5.13807">
        <ele>317.8</ele>
        <time>1970-01-01T01:11:16.000Z</time>
      </trkpt>
      <trkpt lat="44.75487" lon="5.13793">
        <ele>317.8</ele>
        <time>1970-01-01T01:11:18.000Z</time>
      </trkpt>
      <trkpt lat="44.75493" lon="5.13771">
        <ele>317.6</ele>
        <time>1970-01-01T01:11:21.000Z</time>
      </trkpt>
      <trkpt lat="44.75495" lon="5.13764">
        <ele>317.4</ele>
        <time>1970-01-01T01:11:22.000Z</time>
      </trkpt>
      <trkpt lat="44.75506" lon="5.13718">
        <ele>316.2</ele>
        <time>1970-01-01T01:11:28.000Z</time>
      </trkpt>
      <trkpt lat="44.75507" lon="5.1371">
        <ele>316.2</ele>
        <time>1970-01-01T01:11:29.000Z</time>
      </trkpt>
      <trkpt lat="44.75517" lon="5.13663">
        <ele>315</ele>
        <time>1970-01-01T01:11:35.000Z</time>
      </trkpt>
      <trkpt lat="44.75521" lon="5.13636">
        <ele>314.2</ele>
        <time>1970-01-01T01:11:38.000Z</time>
      </trkpt>
      <trkpt lat="44.75522" lon="5.13627">
        <ele>313.8</ele>
        <time>1970-01-01T01:11:39.000Z</time>
      </trkpt>
      <trkpt lat="44.75523" lon="5.13607">
        <ele>312.4</ele>
        <time>1970-01-01T01:11:41.000Z</time>
      </trkpt>
      <trkpt lat="44.75524" lon="5.13586">
        <ele>311.8</ele>
        <time>1970-01-01T01:11:43.000Z</time>
      </trkpt>
      <trkpt lat="44.75524" lon="5.13577">
        <ele>311.2</ele>
        <time>1970-01-01T01:11:44.000Z</time>
      </trkpt>
      <trkpt lat="44.75525" lon="5.13526">
        <ele>309.6</ele>
        <time>1970-01-01T01:11:48.000Z</time>
      </trkpt>
      <trkpt lat="44.75525" lon="5.13514">
        <ele>309</ele>
        <time>1970-01-01T01:11:49.000Z</time>
      </trkpt>
      <trkpt lat="44.75526" lon="5.13502">
        <ele>308.6</ele>
        <time>1970-01-01T01:11:50.000Z</time>
      </trkpt>
      <trkpt lat="44.75527" lon="5.13492">
        <ele>308.2</ele>
        <time>1970-01-01T01:11:51.000Z</time>
      </trkpt>
      <trkpt lat="44.75529" lon="5.13483">
        <ele>307.8</ele>
        <time>1970-01-01T01:11:52.000Z</time>
      </trkpt>
      <trkpt lat="44.75532" lon="5.13475">
        <ele>307.4</ele>
        <time>1970-01-01T01:11:53.000Z</time>
      </trkpt>
      <trkpt lat="44.75536" lon="5.13469">
        <ele>307</ele>
        <time>1970-01-01T01:11:54.000Z</time>
      </trkpt>
      <trkpt lat="44.75542" lon="5.13465">
        <ele>306.8</ele>
        <time>1970-01-01T01:11:55.000Z</time>
      </trkpt>
      <trkpt lat="44.75548" lon="5.13463">
        <ele>306.6</ele>
        <time>1970-01-01T01:11:56.000Z</time>
      </trkpt>
      <trkpt lat="44.75562" lon="5.13464">
        <ele>306.2</ele>
        <time>1970-01-01T01:11:58.000Z</time>
      </trkpt>
      <trkpt lat="44.75569" lon="5.13465">
        <ele>305.8</ele>
        <time>1970-01-01T01:11:59.000Z</time>
      </trkpt>
      <trkpt lat="44.75576" lon="5.13468">
        <ele>305.4</ele>
        <time>1970-01-01T01:12:00.000Z</time>
      </trkpt>
      <trkpt lat="44.75582" lon="5.1347">
        <ele>305</ele>
        <time>1970-01-01T01:12:01.000Z</time>
      </trkpt>
      <trkpt lat="44.75588" lon="5.13473">
        <ele>305</ele>
        <time>1970-01-01T01:12:02.000Z</time>
      </trkpt>
      <trkpt lat="44.75594" lon="5.13476">
        <ele>304.8</ele>
        <time>1970-01-01T01:12:03.000Z</time>
      </trkpt>
      <trkpt lat="44.75599" lon="5.1348">
        <ele>304.6</ele>
        <time>1970-01-01T01:12:04.000Z</time>
      </trkpt>
      <trkpt lat="44.75605" lon="5.13483">
        <ele>304.6</ele>
        <time>1970-01-01T01:12:05.000Z</time>
      </trkpt>
      <trkpt lat="44.75627" lon="5.13497">
        <ele>304</ele>
        <time>1970-01-01T01:12:09.000Z</time>
      </trkpt>
      <trkpt lat="44.75637" lon="5.13504">
        <ele>303.2</ele>
        <time>1970-01-01T01:12:11.000Z</time>
      </trkpt>
      <trkpt lat="44.75648" lon="5.13511">
        <ele>302.6</ele>
        <time>1970-01-01T01:12:13.000Z</time>
      </trkpt>
      <trkpt lat="44.75655" lon="5.13514">
        <ele>302.4</ele>
        <time>1970-01-01T01:12:14.000Z</time>
      </trkpt>
      <trkpt lat="44.75661" lon="5.13517">
        <ele>302.4</ele>
        <time>1970-01-01T01:12:15.000Z</time>
      </trkpt>
      <trkpt lat="44.75667" lon="5.1352">
        <ele>302</ele>
        <time>1970-01-01T01:12:16.000Z</time>
      </trkpt>
      <trkpt lat="44.75673" lon="5.13521">
        <ele>301.8</ele>
        <time>1970-01-01T01:12:17.000Z</time>
      </trkpt>
      <trkpt lat="44.75678" lon="5.13522">
        <ele>301.8</ele>
        <time>1970-01-01T01:12:18.000Z</time>
      </trkpt>
      <trkpt lat="44.75684" lon="5.13524">
        <ele>301.6</ele>
        <time>1970-01-01T01:12:19.000Z</time>
      </trkpt>
      <trkpt lat="44.75695" lon="5.13528">
        <ele>301.2</ele>
        <time>1970-01-01T01:12:21.000Z</time>
      </trkpt>
      <trkpt lat="44.75701" lon="5.1353">
        <ele>301</ele>
        <time>1970-01-01T01:12:22.000Z</time>
      </trkpt>
      <trkpt lat="44.75718" lon="5.13539">
        <ele>299.8</ele>
        <time>1970-01-01T01:12:25.000Z</time>
      </trkpt>
      <trkpt lat="44.75724" lon="5.13541">
        <ele>299.6</ele>
        <time>1970-01-01T01:12:26.000Z</time>
      </trkpt>
      <trkpt lat="44.7573" lon="5.13543">
        <ele>298.8</ele>
        <time>1970-01-01T01:12:27.000Z</time>
      </trkpt>
      <trkpt lat="44.75737" lon="5.13544">
        <ele>298.6</ele>
        <time>1970-01-01T01:12:28.000Z</time>
      </trkpt>
      <trkpt lat="44.75749" lon="5.13544">
        <ele>297.6</ele>
        <time>1970-01-01T01:12:30.000Z</time>
      </trkpt>
      <trkpt lat="44.75755" lon="5.13543">
        <ele>297.2</ele>
        <time>1970-01-01T01:12:31.000Z</time>
      </trkpt>
      <trkpt lat="44.75762" lon="5.13541">
        <ele>296.8</ele>
        <time>1970-01-01T01:12:32.000Z</time>
      </trkpt>
      <trkpt lat="44.75768" lon="5.13537">
        <ele>296.4</ele>
        <time>1970-01-01T01:12:33.000Z</time>
      </trkpt>
      <trkpt lat="44.75772" lon="5.1353">
        <ele>295.8</ele>
        <time>1970-01-01T01:12:34.000Z</time>
      </trkpt>
      <trkpt lat="44.75774" lon="5.13522">
        <ele>295.4</ele>
        <time>1970-01-01T01:12:35.000Z</time>
      </trkpt>
      <trkpt lat="44.75774" lon="5.13515">
        <ele>295</ele>
        <time>1970-01-01T01:12:36.000Z</time>
      </trkpt>
      <trkpt lat="44.75769" lon="5.13503">
        <ele>294.6</ele>
        <time>1970-01-01T01:12:38.000Z</time>
      </trkpt>
      <trkpt lat="44.75766" lon="5.13496">
        <ele>294.6</ele>
        <time>1970-01-01T01:12:39.000Z</time>
      </trkpt>
      <trkpt lat="44.75763" lon="5.1349">
        <ele>294.4</ele>
        <time>1970-01-01T01:12:40.000Z</time>
      </trkpt>
      <trkpt lat="44.7576" lon="5.13485">
        <ele>294.6</ele>
        <time>1970-01-01T01:12:41.000Z</time>
      </trkpt>
      <trkpt lat="44.75757" lon="5.13479">
        <ele>294.6</ele>
        <time>1970-01-01T01:12:42.000Z</time>
      </trkpt>
      <trkpt lat="44.75754" lon="5.13474">
        <ele>294.6</ele>
        <time>1970-01-01T01:12:43.000Z</time>
      </trkpt>
      <trkpt lat="44.7575" lon="5.13469">
        <ele>294.8</ele>
        <time>1970-01-01T01:12:44.000Z</time>
      </trkpt>
      <trkpt lat="44.75747" lon="5.13465">
        <ele>294.8</ele>
        <time>1970-01-01T01:12:45.000Z</time>
      </trkpt>
      <trkpt lat="44.75744" lon="5.1346">
        <ele>295</ele>
        <time>1970-01-01T01:12:46.000Z</time>
      </trkpt>
      <trkpt lat="44.75742" lon="5.13455">
        <ele>295.2</ele>
        <time>1970-01-01T01:12:47.000Z</time>
      </trkpt>
      <trkpt lat="44.7574" lon="5.1345">
        <ele>295.2</ele>
        <time>1970-01-01T01:12:48.000Z</time>
      </trkpt>
      <trkpt lat="44.75739" lon="5.13444">
        <ele>295.4</ele>
        <time>1970-01-01T01:12:49.000Z</time>
      </trkpt>
      <trkpt lat="44.75738" lon="5.13438">
        <ele>295.4</ele>
        <time>1970-01-01T01:12:50.000Z</time>
      </trkpt>
      <trkpt lat="44.75738" lon="5.13431">
        <ele>295.6</ele>
        <time>1970-01-01T01:12:51.000Z</time>
      </trkpt>
      <trkpt lat="44.75739" lon="5.13425">
        <ele>295.6</ele>
        <time>1970-01-01T01:12:52.000Z</time>
      </trkpt>
      <trkpt lat="44.75739" lon="5.13419">
        <ele>295.8</ele>
        <time>1970-01-01T01:12:53.000Z</time>
      </trkpt>
      <trkpt lat="44.7574" lon="5.13413">
        <ele>295.8</ele>
        <time>1970-01-01T01:12:54.000Z</time>
      </trkpt>
      <trkpt lat="44.7574" lon="5.13408">
        <ele>296</ele>
        <time>1970-01-01T01:12:55.000Z</time>
      </trkpt>
      <trkpt lat="44.75741" lon="5.13403">
        <ele>296.2</ele>
        <time>1970-01-01T01:12:56.000Z</time>
      </trkpt>
      <trkpt lat="44.75742" lon="5.13397">
        <ele>296.4</ele>
        <time>1970-01-01T01:12:57.000Z</time>
      </trkpt>
      <trkpt lat="44.75742" lon="5.13392">
        <ele>296.4</ele>
        <time>1970-01-01T01:12:58.000Z</time>
      </trkpt>
      <trkpt lat="44.75742" lon="5.13387">
        <ele>296.6</ele>
        <time>1970-01-01T01:12:59.000Z</time>
      </trkpt>
      <trkpt lat="44.75741" lon="5.13382">
        <ele>296.8</ele>
        <time>1970-01-01T01:13:00.000Z</time>
      </trkpt>
      <trkpt lat="44.7574" lon="5.13377">
        <ele>296.8</ele>
        <time>1970-01-01T01:13:01.000Z</time>
      </trkpt>
      <trkpt lat="44.75731" lon="5.13353">
        <ele>297.2</ele>
        <time>1970-01-01T01:13:06.000Z</time>
      </trkpt>
      <trkpt lat="44.75728" lon="5.13349">
        <ele>297.2</ele>
        <time>1970-01-01T01:13:07.000Z</time>
      </trkpt>
      <trkpt lat="44.75711" lon="5.13328">
        <ele>297</ele>
        <time>1970-01-01T01:13:12.000Z</time>
      </trkpt>
      <trkpt lat="44.75701" lon="5.13314">
        <ele>297</ele>
        <time>1970-01-01T01:13:15.000Z</time>
      </trkpt>
      <trkpt lat="44.75691" lon="5.13302">
        <ele>296.6</ele>
        <time>1970-01-01T01:13:18.000Z</time>
      </trkpt>
      <trkpt lat="44.75671" lon="5.13278">
        <ele>296.2</ele>
        <time>1970-01-01T01:13:23.000Z</time>
      </trkpt>
      <trkpt lat="44.75638" lon="5.13238">
        <ele>295.4</ele>
        <time>1970-01-01T01:13:31.000Z</time>
      </trkpt>
      <trkpt lat="44.75634" lon="5.13233">
        <ele>295.4</ele>
        <time>1970-01-01T01:13:32.000Z</time>
      </trkpt>
      <trkpt lat="44.756" lon="5.13191">
        <ele>294.6</ele>
        <time>1970-01-01T01:13:40.000Z</time>
      </trkpt>
      <trkpt lat="44.75596" lon="5.13186">
        <ele>294.4</ele>
        <time>1970-01-01T01:13:41.000Z</time>
      </trkpt>
      <trkpt lat="44.75592" lon="5.1318">
        <ele>294.4</ele>
        <time>1970-01-01T01:13:42.000Z</time>
      </trkpt>
      <trkpt lat="44.75588" lon="5.13175">
        <ele>294.2</ele>
        <time>1970-01-01T01:13:43.000Z</time>
      </trkpt>
      <trkpt lat="44.75584" lon="5.1317">
        <ele>294.2</ele>
        <time>1970-01-01T01:13:44.000Z</time>
      </trkpt>
      <trkpt lat="44.7558" lon="5.13164">
        <ele>294.2</ele>
        <time>1970-01-01T01:13:45.000Z</time>
      </trkpt>
      <trkpt lat="44.75576" lon="5.1316">
        <ele>294.2</ele>
        <time>1970-01-01T01:13:46.000Z</time>
      </trkpt>
      <trkpt lat="44.75568" lon="5.13149">
        <ele>294.4</ele>
        <time>1970-01-01T01:13:48.000Z</time>
      </trkpt>
      <trkpt lat="44.75566" lon="5.13142">
        <ele>294.6</ele>
        <time>1970-01-01T01:13:49.000Z</time>
      </trkpt>
      <trkpt lat="44.75568" lon="5.13136">
        <ele>294.8</ele>
        <time>1970-01-01T01:13:50.000Z</time>
      </trkpt>
      <trkpt lat="44.7557" lon="5.13132">
        <ele>294.8</ele>
        <time>1970-01-01T01:13:51.000Z</time>
      </trkpt>
      <trkpt lat="44.75573" lon="5.13128">
        <ele>294.8</ele>
        <time>1970-01-01T01:13:52.000Z</time>
      </trkpt>
      <trkpt lat="44.75575" lon="5.13124">
        <ele>294.8</ele>
        <time>1970-01-01T01:13:53.000Z</time>
      </trkpt>
      <trkpt lat="44.75579" lon="5.1312">
        <ele>294.8</ele>
        <time>1970-01-01T01:13:54.000Z</time>
      </trkpt>
      <trkpt lat="44.75581" lon="5.13116">
        <ele>294.8</ele>
        <time>1970-01-01T01:13:55.000Z</time>
      </trkpt>
      <trkpt lat="44.75584" lon="5.13113">
        <ele>295</ele>
        <time>1970-01-01T01:13:56.000Z</time>
      </trkpt>
      <trkpt lat="44.75586" lon="5.1311">
        <ele>295.2</ele>
        <time>1970-01-01T01:13:57.000Z</time>
      </trkpt>
      <trkpt lat="44.75588" lon="5.13107">
        <ele>295.2</ele>
        <time>1970-01-01T01:13:58.000Z</time>
      </trkpt>
      <trkpt lat="44.7559" lon="5.13104">
        <ele>295.4</ele>
        <time>1970-01-01T01:13:59.000Z</time>
      </trkpt>
      <trkpt lat="44.75593" lon="5.13102">
        <ele>295.4</ele>
        <time>1970-01-01T01:14:00.000Z</time>
      </trkpt>
      <trkpt lat="44.75595" lon="5.13099">
        <ele>295.6</ele>
        <time>1970-01-01T01:14:01.000Z</time>
      </trkpt>
      <trkpt lat="44.75597" lon="5.13097">
        <ele>295.8</ele>
        <time>1970-01-01T01:14:02.000Z</time>
      </trkpt>
      <trkpt lat="44.75599" lon="5.13094">
        <ele>296</ele>
        <time>1970-01-01T01:14:03.000Z</time>
      </trkpt>
      <trkpt lat="44.75601" lon="5.13091">
        <ele>296.2</ele>
        <time>1970-01-01T01:14:04.000Z</time>
      </trkpt>
      <trkpt lat="44.75605" lon="5.13086">
        <ele>296.6</ele>
        <time>1970-01-01T01:14:06.000Z</time>
      </trkpt>
      <trkpt lat="44.75607" lon="5.13083">
        <ele>296.8</ele>
        <time>1970-01-01T01:14:07.000Z</time>
      </trkpt>
      <trkpt lat="44.75615" lon="5.13068">
        <ele>297.2</ele>
        <time>1970-01-01T01:14:12.000Z</time>
      </trkpt>
      <trkpt lat="44.75618" lon="5.1306">
        <ele>297.6</ele>
        <time>1970-01-01T01:14:14.000Z</time>
      </trkpt>
      <trkpt lat="44.75619" lon="5.13056">
        <ele>297.8</ele>
        <time>1970-01-01T01:14:15.000Z</time>
      </trkpt>
      <trkpt lat="44.7562" lon="5.13053">
        <ele>297.8</ele>
        <time>1970-01-01T01:14:16.000Z</time>
      </trkpt>
      <trkpt lat="44.75621" lon="5.13049">
        <ele>297.8</ele>
        <time>1970-01-01T01:14:17.000Z</time>
      </trkpt>
      <trkpt lat="44.75622" lon="5.13045">
        <ele>297.8</ele>
        <time>1970-01-01T01:14:18.000Z</time>
      </trkpt>
      <trkpt lat="44.75624" lon="5.13042">
        <ele>298</ele>
        <time>1970-01-01T01:14:19.000Z</time>
      </trkpt>
      <trkpt lat="44.75625" lon="5.13038">
        <ele>298</ele>
        <time>1970-01-01T01:14:20.000Z</time>
      </trkpt>
      <trkpt lat="44.75626" lon="5.13034">
        <ele>298.2</ele>
        <time>1970-01-01T01:14:21.000Z</time>
      </trkpt>
      <trkpt lat="44.75627" lon="5.13031">
        <ele>298.4</ele>
        <time>1970-01-01T01:14:22.000Z</time>
      </trkpt>
      <trkpt lat="44.75628" lon="5.13028">
        <ele>298.4</ele>
        <time>1970-01-01T01:14:23.000Z</time>
      </trkpt>
      <trkpt lat="44.7563" lon="5.13024">
        <ele>298.6</ele>
        <time>1970-01-01T01:14:24.000Z</time>
      </trkpt>
      <trkpt lat="44.75631" lon="5.13021">
        <ele>298.6</ele>
        <time>1970-01-01T01:14:25.000Z</time>
      </trkpt>
      <trkpt lat="44.75633" lon="5.13018">
        <ele>298.8</ele>
        <time>1970-01-01T01:14:26.000Z</time>
      </trkpt>
      <trkpt lat="44.75634" lon="5.13015">
        <ele>299</ele>
        <time>1970-01-01T01:14:27.000Z</time>
      </trkpt>
      <trkpt lat="44.75636" lon="5.13012">
        <ele>299.2</ele>
        <time>1970-01-01T01:14:28.000Z</time>
      </trkpt>
      <trkpt lat="44.75638" lon="5.13009">
        <ele>299.4</ele>
        <time>1970-01-01T01:14:29.000Z</time>
      </trkpt>
      <trkpt lat="44.7564" lon="5.13006">
        <ele>299.4</ele>
        <time>1970-01-01T01:14:30.000Z</time>
      </trkpt>
      <trkpt lat="44.75642" lon="5.13003">
        <ele>299.8</ele>
        <time>1970-01-01T01:14:31.000Z</time>
      </trkpt>
      <trkpt lat="44.75644" lon="5.13001">
        <ele>299.8</ele>
        <time>1970-01-01T01:14:32.000Z</time>
      </trkpt>
      <trkpt lat="44.75647" lon="5.12998">
        <ele>300</ele>
        <time>1970-01-01T01:14:33.000Z</time>
      </trkpt>
      <trkpt lat="44.75649" lon="5.12996">
        <ele>300.2</ele>
        <time>1970-01-01T01:14:34.000Z</time>
      </trkpt>
      <trkpt lat="44.75652" lon="5.12992">
        <ele>300.4</ele>
        <time>1970-01-01T01:14:35.000Z</time>
      </trkpt>
      <trkpt lat="44.75653" lon="5.12991">
        <ele>300.8</ele>
        <time>1970-01-01T01:14:36.000Z</time>
      </trkpt>
      <trkpt lat="44.75655" lon="5.12989">
        <ele>300.8</ele>
        <time>1970-01-01T01:14:37.000Z</time>
      </trkpt>
      <trkpt lat="44.75657" lon="5.12986">
        <ele>301</ele>
        <time>1970-01-01T01:14:38.000Z</time>
      </trkpt>
      <trkpt lat="44.75659" lon="5.12983">
        <ele>301.2</ele>
        <time>1970-01-01T01:14:39.000Z</time>
      </trkpt>
      <trkpt lat="44.75661" lon="5.12981">
        <ele>301.4</ele>
        <time>1970-01-01T01:14:40.000Z</time>
      </trkpt>
      <trkpt lat="44.75663" lon="5.12978">
        <ele>301.6</ele>
        <time>1970-01-01T01:14:41.000Z</time>
      </trkpt>
      <trkpt lat="44.75665" lon="5.12975">
        <ele>301.8</ele>
        <time>1970-01-01T01:14:42.000Z</time>
      </trkpt>
      <trkpt lat="44.75667" lon="5.12972">
        <ele>301.8</ele>
        <time>1970-01-01T01:14:43.000Z</time>
      </trkpt>
      <trkpt lat="44.7567" lon="5.1297">
        <ele>302.2</ele>
        <time>1970-01-01T01:14:44.000Z</time>
      </trkpt>
      <trkpt lat="44.75671" lon="5.12967">
        <ele>302.4</ele>
        <time>1970-01-01T01:14:45.000Z</time>
      </trkpt>
      <trkpt lat="44.75674" lon="5.12965">
        <ele>302.6</ele>
        <time>1970-01-01T01:14:46.000Z</time>
      </trkpt>
      <trkpt lat="44.75676" lon="5.12962">
        <ele>302.6</ele>
        <time>1970-01-01T01:14:47.000Z</time>
      </trkpt>
      <trkpt lat="44.75678" lon="5.1296">
        <ele>302.8</ele>
        <time>1970-01-01T01:14:48.000Z</time>
      </trkpt>
      <trkpt lat="44.7568" lon="5.12957">
        <ele>303</ele>
        <time>1970-01-01T01:14:49.000Z</time>
      </trkpt>
      <trkpt lat="44.75682" lon="5.12954">
        <ele>303</ele>
        <time>1970-01-01T01:14:50.000Z</time>
      </trkpt>
      <trkpt lat="44.75684" lon="5.12951">
        <ele>303.2</ele>
        <time>1970-01-01T01:14:51.000Z</time>
      </trkpt>
      <trkpt lat="44.75686" lon="5.12948">
        <ele>303.4</ele>
        <time>1970-01-01T01:14:52.000Z</time>
      </trkpt>
      <trkpt lat="44.75688" lon="5.12945">
        <ele>303.4</ele>
        <time>1970-01-01T01:14:53.000Z</time>
      </trkpt>
      <trkpt lat="44.7569" lon="5.12941">
        <ele>303.6</ele>
        <time>1970-01-01T01:14:54.000Z</time>
      </trkpt>
      <trkpt lat="44.75692" lon="5.12939">
        <ele>303.8</ele>
        <time>1970-01-01T01:14:55.000Z</time>
      </trkpt>
      <trkpt lat="44.75694" lon="5.12935">
        <ele>304</ele>
        <time>1970-01-01T01:14:56.000Z</time>
      </trkpt>
      <trkpt lat="44.75696" lon="5.12932">
        <ele>304</ele>
        <time>1970-01-01T01:14:57.000Z</time>
      </trkpt>
      <trkpt lat="44.75699" lon="5.1293">
        <ele>304.2</ele>
        <time>1970-01-01T01:14:58.000Z</time>
      </trkpt>
      <trkpt lat="44.75701" lon="5.12927">
        <ele>304.2</ele>
        <time>1970-01-01T01:14:59.000Z</time>
      </trkpt>
      <trkpt lat="44.75703" lon="5.12924">
        <ele>304.4</ele>
        <time>1970-01-01T01:15:00.000Z</time>
      </trkpt>
      <trkpt lat="44.75706" lon="5.12921">
        <ele>304.6</ele>
        <time>1970-01-01T01:15:01.000Z</time>
      </trkpt>
      <trkpt lat="44.75708" lon="5.12919">
        <ele>304.6</ele>
        <time>1970-01-01T01:15:02.000Z</time>
      </trkpt>
      <trkpt lat="44.75711" lon="5.12916">
        <ele>304.6</ele>
        <time>1970-01-01T01:15:03.000Z</time>
      </trkpt>
      <trkpt lat="44.75713" lon="5.12914">
        <ele>304.8</ele>
        <time>1970-01-01T01:15:04.000Z</time>
      </trkpt>
      <trkpt lat="44.75716" lon="5.12912">
        <ele>304.8</ele>
        <time>1970-01-01T01:15:05.000Z</time>
      </trkpt>
      <trkpt lat="44.75718" lon="5.12909">
        <ele>305</ele>
        <time>1970-01-01T01:15:06.000Z</time>
      </trkpt>
      <trkpt lat="44.7572" lon="5.12907">
        <ele>305.2</ele>
        <time>1970-01-01T01:15:07.000Z</time>
      </trkpt>
      <trkpt lat="44.75723" lon="5.12905">
        <ele>305.2</ele>
        <time>1970-01-01T01:15:08.000Z</time>
      </trkpt>
      <trkpt lat="44.75725" lon="5.12902">
        <ele>305.4</ele>
        <time>1970-01-01T01:15:09.000Z</time>
      </trkpt>
      <trkpt lat="44.75728" lon="5.129">
        <ele>305.6</ele>
        <time>1970-01-01T01:15:10.000Z</time>
      </trkpt>
      <trkpt lat="44.7573" lon="5.12897">
        <ele>305.6</ele>
        <time>1970-01-01T01:15:11.000Z</time>
      </trkpt>
      <trkpt lat="44.75733" lon="5.12894">
        <ele>305.8</ele>
        <time>1970-01-01T01:15:12.000Z</time>
      </trkpt>
      <trkpt lat="44.75735" lon="5.12891">
        <ele>306</ele>
        <time>1970-01-01T01:15:13.000Z</time>
      </trkpt>
      <trkpt lat="44.75737" lon="5.12888">
        <ele>306.4</ele>
        <time>1970-01-01T01:15:14.000Z</time>
      </trkpt>
      <trkpt lat="44.75739" lon="5.12885">
        <ele>306.6</ele>
        <time>1970-01-01T01:15:15.000Z</time>
      </trkpt>
      <trkpt lat="44.75741" lon="5.12881">
        <ele>306.6</ele>
        <time>1970-01-01T01:15:16.000Z</time>
      </trkpt>
      <trkpt lat="44.75743" lon="5.12878">
        <ele>306.8</ele>
        <time>1970-01-01T01:15:17.000Z</time>
      </trkpt>
      <trkpt lat="44.75744" lon="5.12874">
        <ele>307</ele>
        <time>1970-01-01T01:15:18.000Z</time>
      </trkpt>
      <trkpt lat="44.75746" lon="5.12871">
        <ele>307</ele>
        <time>1970-01-01T01:15:19.000Z</time>
      </trkpt>
      <trkpt lat="44.75747" lon="5.12867">
        <ele>307.2</ele>
        <time>1970-01-01T01:15:20.000Z</time>
      </trkpt>
      <trkpt lat="44.75749" lon="5.12863">
        <ele>307.4</ele>
        <time>1970-01-01T01:15:21.000Z</time>
      </trkpt>
      <trkpt lat="44.75751" lon="5.12859">
        <ele>307.4</ele>
        <time>1970-01-01T01:15:22.000Z</time>
      </trkpt>
      <trkpt lat="44.75752" lon="5.12855">
        <ele>307.6</ele>
        <time>1970-01-01T01:15:23.000Z</time>
      </trkpt>
      <trkpt lat="44.75753" lon="5.12851">
        <ele>307.8</ele>
        <time>1970-01-01T01:15:24.000Z</time>
      </trkpt>
      <trkpt lat="44.75754" lon="5.12846">
        <ele>307.8</ele>
        <time>1970-01-01T01:15:25.000Z</time>
      </trkpt>
      <trkpt lat="44.75755" lon="5.12842">
        <ele>308</ele>
        <time>1970-01-01T01:15:26.000Z</time>
      </trkpt>
      <trkpt lat="44.75756" lon="5.12838">
        <ele>308.2</ele>
        <time>1970-01-01T01:15:27.000Z</time>
      </trkpt>
      <trkpt lat="44.75758" lon="5.12833">
        <ele>308.4</ele>
        <time>1970-01-01T01:15:28.000Z</time>
      </trkpt>
      <trkpt lat="44.75759" lon="5.12829">
        <ele>308.6</ele>
        <time>1970-01-01T01:15:29.000Z</time>
      </trkpt>
      <trkpt lat="44.75759" lon="5.12824">
        <ele>308.6</ele>
        <time>1970-01-01T01:15:30.000Z</time>
      </trkpt>
      <trkpt lat="44.75761" lon="5.1282">
        <ele>308.6</ele>
        <time>1970-01-01T01:15:31.000Z</time>
      </trkpt>
      <trkpt lat="44.75762" lon="5.12815">
        <ele>308.8</ele>
        <time>1970-01-01T01:15:32.000Z</time>
      </trkpt>
      <trkpt lat="44.75763" lon="5.12811">
        <ele>309</ele>
        <time>1970-01-01T01:15:33.000Z</time>
      </trkpt>
      <trkpt lat="44.75764" lon="5.12807">
        <ele>309</ele>
        <time>1970-01-01T01:15:34.000Z</time>
      </trkpt>
      <trkpt lat="44.75764" lon="5.12802">
        <ele>309.2</ele>
        <time>1970-01-01T01:15:35.000Z</time>
      </trkpt>
      <trkpt lat="44.75765" lon="5.12798">
        <ele>309.4</ele>
        <time>1970-01-01T01:15:36.000Z</time>
      </trkpt>
      <trkpt lat="44.75766" lon="5.12794">
        <ele>309.4</ele>
        <time>1970-01-01T01:15:37.000Z</time>
      </trkpt>
      <trkpt lat="44.75767" lon="5.12789">
        <ele>309.6</ele>
        <time>1970-01-01T01:15:38.000Z</time>
      </trkpt>
      <trkpt lat="44.75768" lon="5.12784">
        <ele>309.8</ele>
        <time>1970-01-01T01:15:39.000Z</time>
      </trkpt>
      <trkpt lat="44.75768" lon="5.1278">
        <ele>310</ele>
        <time>1970-01-01T01:15:40.000Z</time>
      </trkpt>
      <trkpt lat="44.75769" lon="5.12774">
        <ele>310.2</ele>
        <time>1970-01-01T01:15:41.000Z</time>
      </trkpt>
      <trkpt lat="44.75769" lon="5.12771">
        <ele>310.4</ele>
        <time>1970-01-01T01:15:42.000Z</time>
      </trkpt>
      <trkpt lat="44.7577" lon="5.12767">
        <ele>310.6</ele>
        <time>1970-01-01T01:15:43.000Z</time>
      </trkpt>
      <trkpt lat="44.7577" lon="5.12763">
        <ele>310.8</ele>
        <time>1970-01-01T01:15:44.000Z</time>
      </trkpt>
      <trkpt lat="44.7577" lon="5.12759">
        <ele>311.2</ele>
        <time>1970-01-01T01:15:45.000Z</time>
      </trkpt>
      <trkpt lat="44.7577" lon="5.12755">
        <ele>311.4</ele>
        <time>1970-01-01T01:15:46.000Z</time>
      </trkpt>
      <trkpt lat="44.7577" lon="5.12751">
        <ele>311.8</ele>
        <time>1970-01-01T01:15:47.000Z</time>
      </trkpt>
      <trkpt lat="44.7577" lon="5.12747">
        <ele>312.2</ele>
        <time>1970-01-01T01:15:48.000Z</time>
      </trkpt>
      <trkpt lat="44.7577" lon="5.12743">
        <ele>312.4</ele>
        <time>1970-01-01T01:15:49.000Z</time>
      </trkpt>
      <trkpt lat="44.7577" lon="5.12739">
        <ele>312.6</ele>
        <time>1970-01-01T01:15:50.000Z</time>
      </trkpt>
      <trkpt lat="44.75769" lon="5.12735">
        <ele>312.8</ele>
        <time>1970-01-01T01:15:51.000Z</time>
      </trkpt>
      <trkpt lat="44.7577" lon="5.12731">
        <ele>313.2</ele>
        <time>1970-01-01T01:15:52.000Z</time>
      </trkpt>
      <trkpt lat="44.7577" lon="5.12727">
        <ele>313.4</ele>
        <time>1970-01-01T01:15:53.000Z</time>
      </trkpt>
      <trkpt lat="44.7577" lon="5.12724">
        <ele>313.6</ele>
        <time>1970-01-01T01:15:54.000Z</time>
      </trkpt>
      <trkpt lat="44.75769" lon="5.1272">
        <ele>313.8</ele>
        <time>1970-01-01T01:15:55.000Z</time>
      </trkpt>
      <trkpt lat="44.75769" lon="5.12716">
        <ele>314</ele>
        <time>1970-01-01T01:15:56.000Z</time>
      </trkpt>
      <trkpt lat="44.75769" lon="5.12713">
        <ele>314.2</ele>
        <time>1970-01-01T01:15:57.000Z</time>
      </trkpt>
      <trkpt lat="44.75768" lon="5.12709">
        <ele>314.6</ele>
        <time>1970-01-01T01:15:58.000Z</time>
      </trkpt>
      <trkpt lat="44.75768" lon="5.12705">
        <ele>314.8</ele>
        <time>1970-01-01T01:15:59.000Z</time>
      </trkpt>
      <trkpt lat="44.75768" lon="5.12701">
        <ele>315.2</ele>
        <time>1970-01-01T01:16:00.000Z</time>
      </trkpt>
      <trkpt lat="44.75767" lon="5.12698">
        <ele>315.4</ele>
        <time>1970-01-01T01:16:01.000Z</time>
      </trkpt>
      <trkpt lat="44.75767" lon="5.12694">
        <ele>315.6</ele>
        <time>1970-01-01T01:16:02.000Z</time>
      </trkpt>
      <trkpt lat="44.75766" lon="5.1269">
        <ele>315.8</ele>
        <time>1970-01-01T01:16:03.000Z</time>
      </trkpt>
      <trkpt lat="44.75766" lon="5.12686">
        <ele>316</ele>
        <time>1970-01-01T01:16:04.000Z</time>
      </trkpt>
      <trkpt lat="44.75766" lon="5.12682">
        <ele>316</ele>
        <time>1970-01-01T01:16:05.000Z</time>
      </trkpt>
      <trkpt lat="44.75766" lon="5.12677">
        <ele>316.4</ele>
        <time>1970-01-01T01:16:06.000Z</time>
      </trkpt>
      <trkpt lat="44.75767" lon="5.12673">
        <ele>316.4</ele>
        <time>1970-01-01T01:16:07.000Z</time>
      </trkpt>
      <trkpt lat="44.75769" lon="5.1267">
        <ele>316.6</ele>
        <time>1970-01-01T01:16:08.000Z</time>
      </trkpt>
      <trkpt lat="44.7577" lon="5.12666">
        <ele>316.8</ele>
        <time>1970-01-01T01:16:09.000Z</time>
      </trkpt>
      <trkpt lat="44.75772" lon="5.12664">
        <ele>317</ele>
        <time>1970-01-01T01:16:10.000Z</time>
      </trkpt>
      <trkpt lat="44.75774" lon="5.12661">
        <ele>317.2</ele>
        <time>1970-01-01T01:16:11.000Z</time>
      </trkpt>
      <trkpt lat="44.75777" lon="5.12659">
        <ele>317.4</ele>
        <time>1970-01-01T01:16:12.000Z</time>
      </trkpt>
      <trkpt lat="44.75779" lon="5.12657">
        <ele>317.6</ele>
        <time>1970-01-01T01:16:13.000Z</time>
      </trkpt>
      <trkpt lat="44.75781" lon="5.12656">
        <ele>317.6</ele>
        <time>1970-01-01T01:16:14.000Z</time>
      </trkpt>
      <trkpt lat="44.75784" lon="5.12654">
        <ele>317.8</ele>
        <time>1970-01-01T01:16:15.000Z</time>
      </trkpt>
      <trkpt lat="44.75786" lon="5.12652">
        <ele>318.2</ele>
        <time>1970-01-01T01:16:16.000Z</time>
      </trkpt>
      <trkpt lat="44.75789" lon="5.1265">
        <ele>318.4</ele>
        <time>1970-01-01T01:16:17.000Z</time>
      </trkpt>
      <trkpt lat="44.75791" lon="5.12647">
        <ele>318.6</ele>
        <time>1970-01-01T01:16:18.000Z</time>
      </trkpt>
      <trkpt lat="44.75793" lon="5.12645">
        <ele>318.8</ele>
        <time>1970-01-01T01:16:19.000Z</time>
      </trkpt>
      <trkpt lat="44.75796" lon="5.12642">
        <ele>319</ele>
        <time>1970-01-01T01:16:20.000Z</time>
      </trkpt>
      <trkpt lat="44.75798" lon="5.1264">
        <ele>319</ele>
        <time>1970-01-01T01:16:21.000Z</time>
      </trkpt>
      <trkpt lat="44.758" lon="5.12637">
        <ele>319.4</ele>
        <time>1970-01-01T01:16:22.000Z</time>
      </trkpt>
      <trkpt lat="44.75802" lon="5.12634">
        <ele>319.6</ele>
        <time>1970-01-01T01:16:23.000Z</time>
      </trkpt>
      <trkpt lat="44.75804" lon="5.12632">
        <ele>319.8</ele>
        <time>1970-01-01T01:16:24.000Z</time>
      </trkpt>
      <trkpt lat="44.75806" lon="5.1263">
        <ele>320</ele>
        <time>1970-01-01T01:16:25.000Z</time>
      </trkpt>
      <trkpt lat="44.75808" lon="5.12627">
        <ele>320.2</ele>
        <time>1970-01-01T01:16:26.000Z</time>
      </trkpt>
      <trkpt lat="44.7581" lon="5.12625">
        <ele>320.4</ele>
        <time>1970-01-01T01:16:27.000Z</time>
      </trkpt>
      <trkpt lat="44.75812" lon="5.12623">
        <ele>320.6</ele>
        <time>1970-01-01T01:16:28.000Z</time>
      </trkpt>
      <trkpt lat="44.75814" lon="5.1262">
        <ele>321</ele>
        <time>1970-01-01T01:16:29.000Z</time>
      </trkpt>
      <trkpt lat="44.75817" lon="5.12618">
        <ele>321.2</ele>
        <time>1970-01-01T01:16:30.000Z</time>
      </trkpt>
      <trkpt lat="44.75819" lon="5.12616">
        <ele>321.4</ele>
        <time>1970-01-01T01:16:31.000Z</time>
      </trkpt>
      <trkpt lat="44.75821" lon="5.12614">
        <ele>321.8</ele>
        <time>1970-01-01T01:16:32.000Z</time>
      </trkpt>
      <trkpt lat="44.75823" lon="5.12612">
        <ele>322.2</ele>
        <time>1970-01-01T01:16:33.000Z</time>
      </trkpt>
      <trkpt lat="44.75826" lon="5.1261">
        <ele>322.2</ele>
        <time>1970-01-01T01:16:34.000Z</time>
      </trkpt>
      <trkpt lat="44.75828" lon="5.12607">
        <ele>322.6</ele>
        <time>1970-01-01T01:16:35.000Z</time>
      </trkpt>
      <trkpt lat="44.7583" lon="5.12605">
        <ele>323</ele>
        <time>1970-01-01T01:16:36.000Z</time>
      </trkpt>
      <trkpt lat="44.75833" lon="5.12602">
        <ele>323.2</ele>
        <time>1970-01-01T01:16:37.000Z</time>
      </trkpt>
      <trkpt lat="44.75835" lon="5.126">
        <ele>323.4</ele>
        <time>1970-01-01T01:16:38.000Z</time>
      </trkpt>
      <trkpt lat="44.75837" lon="5.12598">
        <ele>323.6</ele>
        <time>1970-01-01T01:16:39.000Z</time>
      </trkpt>
      <trkpt lat="44.7584" lon="5.12596">
        <ele>324</ele>
        <time>1970-01-01T01:16:40.000Z</time>
      </trkpt>
      <trkpt lat="44.75843" lon="5.12594">
        <ele>324.2</ele>
        <time>1970-01-01T01:16:41.000Z</time>
      </trkpt>
      <trkpt lat="44.75845" lon="5.12591">
        <ele>324.4</ele>
        <time>1970-01-01T01:16:42.000Z</time>
      </trkpt>
      <trkpt lat="44.75847" lon="5.12589">
        <ele>324.6</ele>
        <time>1970-01-01T01:16:43.000Z</time>
      </trkpt>
      <trkpt lat="44.7585" lon="5.12586">
        <ele>324.8</ele>
        <time>1970-01-01T01:16:44.000Z</time>
      </trkpt>
      <trkpt lat="44.75852" lon="5.12584">
        <ele>325</ele>
        <time>1970-01-01T01:16:45.000Z</time>
      </trkpt>
      <trkpt lat="44.75855" lon="5.12581">
        <ele>325.2</ele>
        <time>1970-01-01T01:16:46.000Z</time>
      </trkpt>
      <trkpt lat="44.75857" lon="5.12579">
        <ele>325.4</ele>
        <time>1970-01-01T01:16:47.000Z</time>
      </trkpt>
      <trkpt lat="44.7586" lon="5.12576">
        <ele>325.6</ele>
        <time>1970-01-01T01:16:48.000Z</time>
      </trkpt>
      <trkpt lat="44.75863" lon="5.12574">
        <ele>325.8</ele>
        <time>1970-01-01T01:16:49.000Z</time>
      </trkpt>
      <trkpt lat="44.75865" lon="5.12571">
        <ele>326</ele>
        <time>1970-01-01T01:16:50.000Z</time>
      </trkpt>
      <trkpt lat="44.75868" lon="5.12569">
        <ele>326</ele>
        <time>1970-01-01T01:16:51.000Z</time>
      </trkpt>
      <trkpt lat="44.75871" lon="5.12566">
        <ele>326.4</ele>
        <time>1970-01-01T01:16:52.000Z</time>
      </trkpt>
      <trkpt lat="44.75873" lon="5.12564">
        <ele>326.4</ele>
        <time>1970-01-01T01:16:53.000Z</time>
      </trkpt>
      <trkpt lat="44.75877" lon="5.12562">
        <ele>326.8</ele>
        <time>1970-01-01T01:16:54.000Z</time>
      </trkpt>
      <trkpt lat="44.75878" lon="5.1256">
        <ele>327</ele>
        <time>1970-01-01T01:16:55.000Z</time>
      </trkpt>
      <trkpt lat="44.75881" lon="5.12558">
        <ele>327.2</ele>
        <time>1970-01-01T01:16:56.000Z</time>
      </trkpt>
      <trkpt lat="44.75883" lon="5.12555">
        <ele>327.4</ele>
        <time>1970-01-01T01:16:57.000Z</time>
      </trkpt>
      <trkpt lat="44.75886" lon="5.12552">
        <ele>327.6</ele>
        <time>1970-01-01T01:16:58.000Z</time>
      </trkpt>
      <trkpt lat="44.75889" lon="5.1255">
        <ele>328</ele>
        <time>1970-01-01T01:16:59.000Z</time>
      </trkpt>
      <trkpt lat="44.75891" lon="5.12548">
        <ele>328.2</ele>
        <time>1970-01-01T01:17:00.000Z</time>
      </trkpt>
      <trkpt lat="44.75894" lon="5.12546">
        <ele>328.6</ele>
        <time>1970-01-01T01:17:01.000Z</time>
      </trkpt>
      <trkpt lat="44.75897" lon="5.12544">
        <ele>328.8</ele>
        <time>1970-01-01T01:17:02.000Z</time>
      </trkpt>
      <trkpt lat="44.75899" lon="5.12543">
        <ele>329</ele>
        <time>1970-01-01T01:17:03.000Z</time>
      </trkpt>
      <trkpt lat="44.75902" lon="5.12542">
        <ele>329.2</ele>
        <time>1970-01-01T01:17:04.000Z</time>
      </trkpt>
      <trkpt lat="44.75905" lon="5.1254">
        <ele>329.4</ele>
        <time>1970-01-01T01:17:05.000Z</time>
      </trkpt>
      <trkpt lat="44.75907" lon="5.12539">
        <ele>329.6</ele>
        <time>1970-01-01T01:17:06.000Z</time>
      </trkpt>
      <trkpt lat="44.75909" lon="5.12537">
        <ele>329.8</ele>
        <time>1970-01-01T01:17:07.000Z</time>
      </trkpt>
      <trkpt lat="44.75912" lon="5.12535">
        <ele>330</ele>
        <time>1970-01-01T01:17:08.000Z</time>
      </trkpt>
      <trkpt lat="44.75915" lon="5.12533">
        <ele>330.2</ele>
        <time>1970-01-01T01:17:09.000Z</time>
      </trkpt>
      <trkpt lat="44.75918" lon="5.12531">
        <ele>330.4</ele>
        <time>1970-01-01T01:17:10.000Z</time>
      </trkpt>
      <trkpt lat="44.7592" lon="5.12528">
        <ele>330.4</ele>
        <time>1970-01-01T01:17:11.000Z</time>
      </trkpt>
      <trkpt lat="44.75922" lon="5.12525">
        <ele>330.6</ele>
        <time>1970-01-01T01:17:12.000Z</time>
      </trkpt>
      <trkpt lat="44.75925" lon="5.12522">
        <ele>330.6</ele>
        <time>1970-01-01T01:17:13.000Z</time>
      </trkpt>
      <trkpt lat="44.75927" lon="5.12519">
        <ele>330.6</ele>
        <time>1970-01-01T01:17:14.000Z</time>
      </trkpt>
      <trkpt lat="44.75931" lon="5.12516">
        <ele>330.8</ele>
        <time>1970-01-01T01:17:15.000Z</time>
      </trkpt>
      <trkpt lat="44.75933" lon="5.12513">
        <ele>330.8</ele>
        <time>1970-01-01T01:17:16.000Z</time>
      </trkpt>
      <trkpt lat="44.75936" lon="5.12511">
        <ele>331</ele>
        <time>1970-01-01T01:17:17.000Z</time>
      </trkpt>
      <trkpt lat="44.75938" lon="5.12507">
        <ele>331</ele>
        <time>1970-01-01T01:17:18.000Z</time>
      </trkpt>
      <trkpt lat="44.75941" lon="5.12505">
        <ele>331.2</ele>
        <time>1970-01-01T01:17:19.000Z</time>
      </trkpt>
      <trkpt lat="44.75944" lon="5.12502">
        <ele>331.2</ele>
        <time>1970-01-01T01:17:20.000Z</time>
      </trkpt>
      <trkpt lat="44.75947" lon="5.12499">
        <ele>331.2</ele>
        <time>1970-01-01T01:17:21.000Z</time>
      </trkpt>
      <trkpt lat="44.7595" lon="5.12497">
        <ele>331.4</ele>
        <time>1970-01-01T01:17:22.000Z</time>
      </trkpt>
      <trkpt lat="44.75953" lon="5.12494">
        <ele>331.4</ele>
        <time>1970-01-01T01:17:23.000Z</time>
      </trkpt>
      <trkpt lat="44.75956" lon="5.12492">
        <ele>331.6</ele>
        <time>1970-01-01T01:17:24.000Z</time>
      </trkpt>
      <trkpt lat="44.75959" lon="5.12489">
        <ele>331.6</ele>
        <time>1970-01-01T01:17:25.000Z</time>
      </trkpt>
      <trkpt lat="44.75962" lon="5.12487">
        <ele>331.6</ele>
        <time>1970-01-01T01:17:26.000Z</time>
      </trkpt>
      <trkpt lat="44.75965" lon="5.12485">
        <ele>331.8</ele>
        <time>1970-01-01T01:17:27.000Z</time>
      </trkpt>
      <trkpt lat="44.75968" lon="5.12483">
        <ele>331.8</ele>
        <time>1970-01-01T01:17:28.000Z</time>
      </trkpt>
      <trkpt lat="44.75971" lon="5.1248">
        <ele>332</ele>
        <time>1970-01-01T01:17:29.000Z</time>
      </trkpt>
      <trkpt lat="44.75973" lon="5.12477">
        <ele>332.2</ele>
        <time>1970-01-01T01:17:30.000Z</time>
      </trkpt>
      <trkpt lat="44.75976" lon="5.12475">
        <ele>332.4</ele>
        <time>1970-01-01T01:17:31.000Z</time>
      </trkpt>
      <trkpt lat="44.75978" lon="5.12472">
        <ele>332.4</ele>
        <time>1970-01-01T01:17:32.000Z</time>
      </trkpt>
      <trkpt lat="44.75981" lon="5.1247">
        <ele>332.6</ele>
        <time>1970-01-01T01:17:33.000Z</time>
      </trkpt>
      <trkpt lat="44.75985" lon="5.12468">
        <ele>332.8</ele>
        <time>1970-01-01T01:17:34.000Z</time>
      </trkpt>
      <trkpt lat="44.75987" lon="5.12465">
        <ele>332.8</ele>
        <time>1970-01-01T01:17:35.000Z</time>
      </trkpt>
      <trkpt lat="44.7599" lon="5.12463">
        <ele>333</ele>
        <time>1970-01-01T01:17:36.000Z</time>
      </trkpt>
      <trkpt lat="44.75992" lon="5.12462">
        <ele>333.2</ele>
        <time>1970-01-01T01:17:37.000Z</time>
      </trkpt>
      <trkpt lat="44.75995" lon="5.1246">
        <ele>333.6</ele>
        <time>1970-01-01T01:17:38.000Z</time>
      </trkpt>
      <trkpt lat="44.75998" lon="5.12457">
        <ele>333.8</ele>
        <time>1970-01-01T01:17:39.000Z</time>
      </trkpt>
      <trkpt lat="44.76" lon="5.12456">
        <ele>334.2</ele>
        <time>1970-01-01T01:17:40.000Z</time>
      </trkpt>
      <trkpt lat="44.76004" lon="5.12454">
        <ele>334.4</ele>
        <time>1970-01-01T01:17:41.000Z</time>
      </trkpt>
      <trkpt lat="44.76006" lon="5.12452">
        <ele>334.6</ele>
        <time>1970-01-01T01:17:42.000Z</time>
      </trkpt>
      <trkpt lat="44.76009" lon="5.1245">
        <ele>334.8</ele>
        <time>1970-01-01T01:17:43.000Z</time>
      </trkpt>
      <trkpt lat="44.76012" lon="5.12448">
        <ele>335.2</ele>
        <time>1970-01-01T01:17:44.000Z</time>
      </trkpt>
      <trkpt lat="44.76015" lon="5.12446">
        <ele>335.4</ele>
        <time>1970-01-01T01:17:45.000Z</time>
      </trkpt>
      <trkpt lat="44.76019" lon="5.12445">
        <ele>335.8</ele>
        <time>1970-01-01T01:17:46.000Z</time>
      </trkpt>
      <trkpt lat="44.76022" lon="5.12442">
        <ele>336</ele>
        <time>1970-01-01T01:17:47.000Z</time>
      </trkpt>
      <trkpt lat="44.76025" lon="5.1244">
        <ele>336.4</ele>
        <time>1970-01-01T01:17:48.000Z</time>
      </trkpt>
      <trkpt lat="44.76028" lon="5.12438">
        <ele>336.6</ele>
        <time>1970-01-01T01:17:49.000Z</time>
      </trkpt>
      <trkpt lat="44.76031" lon="5.12435">
        <ele>336.8</ele>
        <time>1970-01-01T01:17:50.000Z</time>
      </trkpt>
      <trkpt lat="44.76034" lon="5.12434">
        <ele>337</ele>
        <time>1970-01-01T01:17:51.000Z</time>
      </trkpt>
      <trkpt lat="44.76037" lon="5.12431">
        <ele>337.2</ele>
        <time>1970-01-01T01:17:52.000Z</time>
      </trkpt>
      <trkpt lat="44.76039" lon="5.12429">
        <ele>337.4</ele>
        <time>1970-01-01T01:17:53.000Z</time>
      </trkpt>
      <trkpt lat="44.76042" lon="5.12426">
        <ele>337.6</ele>
        <time>1970-01-01T01:17:54.000Z</time>
      </trkpt>
      <trkpt lat="44.76044" lon="5.12425">
        <ele>338</ele>
        <time>1970-01-01T01:17:55.000Z</time>
      </trkpt>
      <trkpt lat="44.76047" lon="5.12422">
        <ele>338.2</ele>
        <time>1970-01-01T01:17:56.000Z</time>
      </trkpt>
      <trkpt lat="44.76049" lon="5.12419">
        <ele>338.2</ele>
        <time>1970-01-01T01:17:57.000Z</time>
      </trkpt>
      <trkpt lat="44.76052" lon="5.12415">
        <ele>338.6</ele>
        <time>1970-01-01T01:17:58.000Z</time>
      </trkpt>
      <trkpt lat="44.76055" lon="5.12413">
        <ele>338.8</ele>
        <time>1970-01-01T01:17:59.000Z</time>
      </trkpt>
      <trkpt lat="44.76057" lon="5.1241">
        <ele>339.2</ele>
        <time>1970-01-01T01:18:00.000Z</time>
      </trkpt>
      <trkpt lat="44.76061" lon="5.12407">
        <ele>339.4</ele>
        <time>1970-01-01T01:18:01.000Z</time>
      </trkpt>
      <trkpt lat="44.76063" lon="5.12404">
        <ele>339.6</ele>
        <time>1970-01-01T01:18:02.000Z</time>
      </trkpt>
      <trkpt lat="44.76066" lon="5.12402">
        <ele>339.8</ele>
        <time>1970-01-01T01:18:03.000Z</time>
      </trkpt>
      <trkpt lat="44.76068" lon="5.12398">
        <ele>340</ele>
        <time>1970-01-01T01:18:04.000Z</time>
      </trkpt>
      <trkpt lat="44.76071" lon="5.12395">
        <ele>340.2</ele>
        <time>1970-01-01T01:18:05.000Z</time>
      </trkpt>
      <trkpt lat="44.76074" lon="5.12393">
        <ele>340.4</ele>
        <time>1970-01-01T01:18:06.000Z</time>
      </trkpt>
      <trkpt lat="44.76077" lon="5.12391">
        <ele>340.6</ele>
        <time>1970-01-01T01:18:07.000Z</time>
      </trkpt>
      <trkpt lat="44.76081" lon="5.12389">
        <ele>341</ele>
        <time>1970-01-01T01:18:08.000Z</time>
      </trkpt>
      <trkpt lat="44.76084" lon="5.12388">
        <ele>341.2</ele>
        <time>1970-01-01T01:18:09.000Z</time>
      </trkpt>
      <trkpt lat="44.76087" lon="5.12387">
        <ele>341.6</ele>
        <time>1970-01-01T01:18:10.000Z</time>
      </trkpt>
      <trkpt lat="44.7609" lon="5.12386">
        <ele>342</ele>
        <time>1970-01-01T01:18:11.000Z</time>
      </trkpt>
      <trkpt lat="44.76092" lon="5.12385">
        <ele>342.2</ele>
        <time>1970-01-01T01:18:12.000Z</time>
      </trkpt>
      <trkpt lat="44.76095" lon="5.12384">
        <ele>342.6</ele>
        <time>1970-01-01T01:18:13.000Z</time>
      </trkpt>
      <trkpt lat="44.76098" lon="5.12382">
        <ele>342.8</ele>
        <time>1970-01-01T01:18:14.000Z</time>
      </trkpt>
      <trkpt lat="44.761" lon="5.12381">
        <ele>343.2</ele>
        <time>1970-01-01T01:18:15.000Z</time>
      </trkpt>
      <trkpt lat="44.76104" lon="5.1238">
        <ele>343.4</ele>
        <time>1970-01-01T01:18:16.000Z</time>
      </trkpt>
      <trkpt lat="44.76106" lon="5.12379">
        <ele>343.6</ele>
        <time>1970-01-01T01:18:17.000Z</time>
      </trkpt>
      <trkpt lat="44.76109" lon="5.12377">
        <ele>343.8</ele>
        <time>1970-01-01T01:18:18.000Z</time>
      </trkpt>
      <trkpt lat="44.76111" lon="5.12376">
        <ele>344.2</ele>
        <time>1970-01-01T01:18:19.000Z</time>
      </trkpt>
      <trkpt lat="44.76115" lon="5.12374">
        <ele>344.6</ele>
        <time>1970-01-01T01:18:20.000Z</time>
      </trkpt>
      <trkpt lat="44.76116" lon="5.12372">
        <ele>344.8</ele>
        <time>1970-01-01T01:18:21.000Z</time>
      </trkpt>
      <trkpt lat="44.76119" lon="5.12371">
        <ele>344.8</ele>
        <time>1970-01-01T01:18:22.000Z</time>
      </trkpt>
      <trkpt lat="44.76121" lon="5.1237">
        <ele>345.2</ele>
        <time>1970-01-01T01:18:23.000Z</time>
      </trkpt>
      <trkpt lat="44.76123" lon="5.12369">
        <ele>345.4</ele>
        <time>1970-01-01T01:18:24.000Z</time>
      </trkpt>
      <trkpt lat="44.76125" lon="5.12367">
        <ele>345.8</ele>
        <time>1970-01-01T01:18:25.000Z</time>
      </trkpt>
      <trkpt lat="44.76128" lon="5.12366">
        <ele>346</ele>
        <time>1970-01-01T01:18:26.000Z</time>
      </trkpt>
      <trkpt lat="44.7613" lon="5.12365">
        <ele>346.2</ele>
        <time>1970-01-01T01:18:27.000Z</time>
      </trkpt>
      <trkpt lat="44.76133" lon="5.12365">
        <ele>346.4</ele>
        <time>1970-01-01T01:18:28.000Z</time>
      </trkpt>
      <trkpt lat="44.76135" lon="5.12364">
        <ele>346.6</ele>
        <time>1970-01-01T01:18:29.000Z</time>
      </trkpt>
      <trkpt lat="44.76138" lon="5.12363">
        <ele>347</ele>
        <time>1970-01-01T01:18:30.000Z</time>
      </trkpt>
      <trkpt lat="44.7614" lon="5.12361">
        <ele>347.2</ele>
        <time>1970-01-01T01:18:31.000Z</time>
      </trkpt>
      <trkpt lat="44.76143" lon="5.1236">
        <ele>347.4</ele>
        <time>1970-01-01T01:18:32.000Z</time>
      </trkpt>
      <trkpt lat="44.76145" lon="5.12358">
        <ele>347.8</ele>
        <time>1970-01-01T01:18:33.000Z</time>
      </trkpt>
      <trkpt lat="44.76147" lon="5.12356">
        <ele>348.2</ele>
        <time>1970-01-01T01:18:34.000Z</time>
      </trkpt>
      <trkpt lat="44.76149" lon="5.12354">
        <ele>348.4</ele>
        <time>1970-01-01T01:18:35.000Z</time>
      </trkpt>
      <trkpt lat="44.7615" lon="5.12351">
        <ele>348.4</ele>
        <time>1970-01-01T01:18:36.000Z</time>
      </trkpt>
      <trkpt lat="44.76152" lon="5.12348">
        <ele>348.8</ele>
        <time>1970-01-01T01:18:37.000Z</time>
      </trkpt>
      <trkpt lat="44.76152" lon="5.12344">
        <ele>349.2</ele>
        <time>1970-01-01T01:18:38.000Z</time>
      </trkpt>
      <trkpt lat="44.76152" lon="5.1234">
        <ele>349.4</ele>
        <time>1970-01-01T01:18:39.000Z</time>
      </trkpt>
      <trkpt lat="44.76153" lon="5.12337">
        <ele>349.6</ele>
        <time>1970-01-01T01:18:40.000Z</time>
      </trkpt>
      <trkpt lat="44.76153" lon="5.12333">
        <ele>349.8</ele>
        <time>1970-01-01T01:18:41.000Z</time>
      </trkpt>
      <trkpt lat="44.76152" lon="5.12329">
        <ele>350</ele>
        <time>1970-01-01T01:18:42.000Z</time>
      </trkpt>
      <trkpt lat="44.76151" lon="5.12325">
        <ele>350.2</ele>
        <time>1970-01-01T01:18:43.000Z</time>
      </trkpt>
      <trkpt lat="44.7615" lon="5.12321">
        <ele>350.4</ele>
        <time>1970-01-01T01:18:44.000Z</time>
      </trkpt>
      <trkpt lat="44.76149" lon="5.12318">
        <ele>350.6</ele>
        <time>1970-01-01T01:18:45.000Z</time>
      </trkpt>
      <trkpt lat="44.76147" lon="5.12315">
        <ele>350.6</ele>
        <time>1970-01-01T01:18:46.000Z</time>
      </trkpt>
      <trkpt lat="44.76146" lon="5.12311">
        <ele>350.8</ele>
        <time>1970-01-01T01:18:47.000Z</time>
      </trkpt>
      <trkpt lat="44.76144" lon="5.12307">
        <ele>351</ele>
        <time>1970-01-01T01:18:48.000Z</time>
      </trkpt>
      <trkpt lat="44.76143" lon="5.12304">
        <ele>351.2</ele>
        <time>1970-01-01T01:18:49.000Z</time>
      </trkpt>
      <trkpt lat="44.76141" lon="5.123">
        <ele>351.4</ele>
        <time>1970-01-01T01:18:50.000Z</time>
      </trkpt>
      <trkpt lat="44.7614" lon="5.12297">
        <ele>351.6</ele>
        <time>1970-01-01T01:18:51.000Z</time>
      </trkpt>
      <trkpt lat="44.76139" lon="5.12293">
        <ele>351.8</ele>
        <time>1970-01-01T01:18:52.000Z</time>
      </trkpt>
      <trkpt lat="44.76137" lon="5.1229">
        <ele>352</ele>
        <time>1970-01-01T01:18:53.000Z</time>
      </trkpt>
      <trkpt lat="44.76136" lon="5.12287">
        <ele>352</ele>
        <time>1970-01-01T01:18:54.000Z</time>
      </trkpt>
      <trkpt lat="44.76134" lon="5.12285">
        <ele>352.2</ele>
        <time>1970-01-01T01:18:55.000Z</time>
      </trkpt>
      <trkpt lat="44.76133" lon="5.12282">
        <ele>352.4</ele>
        <time>1970-01-01T01:18:56.000Z</time>
      </trkpt>
      <trkpt lat="44.76131" lon="5.12279">
        <ele>352.6</ele>
        <time>1970-01-01T01:18:57.000Z</time>
      </trkpt>
      <trkpt lat="44.76129" lon="5.12277">
        <ele>352.8</ele>
        <time>1970-01-01T01:18:58.000Z</time>
      </trkpt>
      <trkpt lat="44.76127" lon="5.12274">
        <ele>352.8</ele>
        <time>1970-01-01T01:18:59.000Z</time>
      </trkpt>
      <trkpt lat="44.76125" lon="5.12272">
        <ele>352.8</ele>
        <time>1970-01-01T01:19:00.000Z</time>
      </trkpt>
      <trkpt lat="44.76123" lon="5.12269">
        <ele>353</ele>
        <time>1970-01-01T01:19:01.000Z</time>
      </trkpt>
      <trkpt lat="44.7612" lon="5.12266">
        <ele>353.2</ele>
        <time>1970-01-01T01:19:02.000Z</time>
      </trkpt>
      <trkpt lat="44.76118" lon="5.12264">
        <ele>353.2</ele>
        <time>1970-01-01T01:19:03.000Z</time>
      </trkpt>
      <trkpt lat="44.76116" lon="5.12261">
        <ele>353.2</ele>
        <time>1970-01-01T01:19:04.000Z</time>
      </trkpt>
      <trkpt lat="44.76114" lon="5.12258">
        <ele>353.4</ele>
        <time>1970-01-01T01:19:05.000Z</time>
      </trkpt>
      <trkpt lat="44.76113" lon="5.12254">
        <ele>353.6</ele>
        <time>1970-01-01T01:19:06.000Z</time>
      </trkpt>
      <trkpt lat="44.76111" lon="5.12251">
        <ele>353.8</ele>
        <time>1970-01-01T01:19:07.000Z</time>
      </trkpt>
      <trkpt lat="44.76109" lon="5.12247">
        <ele>353.8</ele>
        <time>1970-01-01T01:19:08.000Z</time>
      </trkpt>
      <trkpt lat="44.76108" lon="5.12242">
        <ele>354</ele>
        <time>1970-01-01T01:19:09.000Z</time>
      </trkpt>
      <trkpt lat="44.76107" lon="5.12238">
        <ele>354</ele>
        <time>1970-01-01T01:19:10.000Z</time>
      </trkpt>
      <trkpt lat="44.76106" lon="5.12234">
        <ele>354.2</ele>
        <time>1970-01-01T01:19:11.000Z</time>
      </trkpt>
      <trkpt lat="44.76105" lon="5.1223">
        <ele>354.4</ele>
        <time>1970-01-01T01:19:12.000Z</time>
      </trkpt>
      <trkpt lat="44.76104" lon="5.12226">
        <ele>354.6</ele>
        <time>1970-01-01T01:19:13.000Z</time>
      </trkpt>
      <trkpt lat="44.76103" lon="5.12221">
        <ele>354.8</ele>
        <time>1970-01-01T01:19:14.000Z</time>
      </trkpt>
      <trkpt lat="44.76103" lon="5.12217">
        <ele>354.8</ele>
        <time>1970-01-01T01:19:15.000Z</time>
      </trkpt>
      <trkpt lat="44.76102" lon="5.12212">
        <ele>355</ele>
        <time>1970-01-01T01:19:16.000Z</time>
      </trkpt>
      <trkpt lat="44.76101" lon="5.12208">
        <ele>355.4</ele>
        <time>1970-01-01T01:19:17.000Z</time>
      </trkpt>
      <trkpt lat="44.76101" lon="5.12204">
        <ele>355.4</ele>
        <time>1970-01-01T01:19:18.000Z</time>
      </trkpt>
      <trkpt lat="44.76101" lon="5.12199">
        <ele>355.8</ele>
        <time>1970-01-01T01:19:19.000Z</time>
      </trkpt>
      <trkpt lat="44.761" lon="5.12195">
        <ele>356</ele>
        <time>1970-01-01T01:19:20.000Z</time>
      </trkpt>
      <trkpt lat="44.761" lon="5.12191">
        <ele>356.2</ele>
        <time>1970-01-01T01:19:21.000Z</time>
      </trkpt>
      <trkpt lat="44.76099" lon="5.12188">
        <ele>356.4</ele>
        <time>1970-01-01T01:19:22.000Z</time>
      </trkpt>
      <trkpt lat="44.76098" lon="5.12183">
        <ele>356.8</ele>
        <time>1970-01-01T01:19:23.000Z</time>
      </trkpt>
      <trkpt lat="44.76097" lon="5.12179">
        <ele>357.2</ele>
        <time>1970-01-01T01:19:24.000Z</time>
      </trkpt>
      <trkpt lat="44.76097" lon="5.12175">
        <ele>357.4</ele>
        <time>1970-01-01T01:19:25.000Z</time>
      </trkpt>
      <trkpt lat="44.76096" lon="5.12171">
        <ele>357.6</ele>
        <time>1970-01-01T01:19:26.000Z</time>
      </trkpt>
      <trkpt lat="44.76095" lon="5.12167">
        <ele>357.8</ele>
        <time>1970-01-01T01:19:27.000Z</time>
      </trkpt>
      <trkpt lat="44.76094" lon="5.12163">
        <ele>357.8</ele>
        <time>1970-01-01T01:19:28.000Z</time>
      </trkpt>
      <trkpt lat="44.76093" lon="5.12159">
        <ele>358.2</ele>
        <time>1970-01-01T01:19:29.000Z</time>
      </trkpt>
      <trkpt lat="44.76092" lon="5.12156">
        <ele>358.4</ele>
        <time>1970-01-01T01:19:30.000Z</time>
      </trkpt>
      <trkpt lat="44.76091" lon="5.12152">
        <ele>358.6</ele>
        <time>1970-01-01T01:19:31.000Z</time>
      </trkpt>
      <trkpt lat="44.7609" lon="5.12148">
        <ele>358.8</ele>
        <time>1970-01-01T01:19:32.000Z</time>
      </trkpt>
      <trkpt lat="44.76089" lon="5.12144">
        <ele>358.8</ele>
        <time>1970-01-01T01:19:33.000Z</time>
      </trkpt>
      <trkpt lat="44.76088" lon="5.1214">
        <ele>359</ele>
        <time>1970-01-01T01:19:34.000Z</time>
      </trkpt>
      <trkpt lat="44.76087" lon="5.12135">
        <ele>359.2</ele>
        <time>1970-01-01T01:19:35.000Z</time>
      </trkpt>
      <trkpt lat="44.76086" lon="5.12131">
        <ele>359.4</ele>
        <time>1970-01-01T01:19:36.000Z</time>
      </trkpt>
      <trkpt lat="44.76086" lon="5.12128">
        <ele>359.6</ele>
        <time>1970-01-01T01:19:37.000Z</time>
      </trkpt>
      <trkpt lat="44.76086" lon="5.12124">
        <ele>359.8</ele>
        <time>1970-01-01T01:19:38.000Z</time>
      </trkpt>
      <trkpt lat="44.76085" lon="5.1212">
        <ele>359.8</ele>
        <time>1970-01-01T01:19:39.000Z</time>
      </trkpt>
      <trkpt lat="44.76085" lon="5.12116">
        <ele>360</ele>
        <time>1970-01-01T01:19:40.000Z</time>
      </trkpt>
      <trkpt lat="44.76085" lon="5.12111">
        <ele>360.2</ele>
        <time>1970-01-01T01:19:41.000Z</time>
      </trkpt>
      <trkpt lat="44.76086" lon="5.12108">
        <ele>360.4</ele>
        <time>1970-01-01T01:19:42.000Z</time>
      </trkpt>
      <trkpt lat="44.76087" lon="5.12105">
        <ele>360.6</ele>
        <time>1970-01-01T01:19:43.000Z</time>
      </trkpt>
      <trkpt lat="44.76089" lon="5.12102">
        <ele>360.6</ele>
        <time>1970-01-01T01:19:44.000Z</time>
      </trkpt>
      <trkpt lat="44.76091" lon="5.121">
        <ele>360.6</ele>
        <time>1970-01-01T01:19:45.000Z</time>
      </trkpt>
      <trkpt lat="44.76094" lon="5.12098">
        <ele>360.8</ele>
        <time>1970-01-01T01:19:46.000Z</time>
      </trkpt>
      <trkpt lat="44.76097" lon="5.12096">
        <ele>360.8</ele>
        <time>1970-01-01T01:19:47.000Z</time>
      </trkpt>
      <trkpt lat="44.76099" lon="5.12094">
        <ele>361</ele>
        <time>1970-01-01T01:19:48.000Z</time>
      </trkpt>
      <trkpt lat="44.76102" lon="5.12092">
        <ele>361.2</ele>
        <time>1970-01-01T01:19:49.000Z</time>
      </trkpt>
      <trkpt lat="44.76105" lon="5.1209">
        <ele>361.2</ele>
        <time>1970-01-01T01:19:50.000Z</time>
      </trkpt>
      <trkpt lat="44.76108" lon="5.12088">
        <ele>361.4</ele>
        <time>1970-01-01T01:19:51.000Z</time>
      </trkpt>
      <trkpt lat="44.76111" lon="5.12087">
        <ele>361.4</ele>
        <time>1970-01-01T01:19:52.000Z</time>
      </trkpt>
      <trkpt lat="44.76114" lon="5.12086">
        <ele>361.4</ele>
        <time>1970-01-01T01:19:53.000Z</time>
      </trkpt>
      <trkpt lat="44.76116" lon="5.12084">
        <ele>361.4</ele>
        <time>1970-01-01T01:19:54.000Z</time>
      </trkpt>
      <trkpt lat="44.76119" lon="5.12083">
        <ele>361.4</ele>
        <time>1970-01-01T01:19:55.000Z</time>
      </trkpt>
      <trkpt lat="44.76121" lon="5.12083">
        <ele>361.6</ele>
        <time>1970-01-01T01:19:56.000Z</time>
      </trkpt>
      <trkpt lat="44.76123" lon="5.12082">
        <ele>361.6</ele>
        <time>1970-01-01T01:19:57.000Z</time>
      </trkpt>
      <trkpt lat="44.76125" lon="5.1208">
        <ele>361.6</ele>
        <time>1970-01-01T01:19:58.000Z</time>
      </trkpt>
      <trkpt lat="44.76128" lon="5.1208">
        <ele>361.8</ele>
        <time>1970-01-01T01:19:59.000Z</time>
      </trkpt>
      <trkpt lat="44.76131" lon="5.1208">
        <ele>361.8</ele>
        <time>1970-01-01T01:20:00.000Z</time>
      </trkpt>
      <trkpt lat="44.76133" lon="5.1208">
        <ele>361.8</ele>
        <time>1970-01-01T01:20:01.000Z</time>
      </trkpt>
      <trkpt lat="44.76135" lon="5.1208">
        <ele>362</ele>
        <time>1970-01-01T01:20:02.000Z</time>
      </trkpt>
      <trkpt lat="44.76137" lon="5.1208">
        <ele>362</ele>
        <time>1970-01-01T01:20:03.000Z</time>
      </trkpt>
      <trkpt lat="44.76139" lon="5.1208">
        <ele>362.2</ele>
        <time>1970-01-01T01:20:04.000Z</time>
      </trkpt>
      <trkpt lat="44.76142" lon="5.12079">
        <ele>362.2</ele>
        <time>1970-01-01T01:20:05.000Z</time>
      </trkpt>
      <trkpt lat="44.76144" lon="5.12079">
        <ele>362.4</ele>
        <time>1970-01-01T01:20:06.000Z</time>
      </trkpt>
      <trkpt lat="44.76147" lon="5.12078">
        <ele>362.4</ele>
        <time>1970-01-01T01:20:07.000Z</time>
      </trkpt>
      <trkpt lat="44.76157" lon="5.12078">
        <ele>362.8</ele>
        <time>1970-01-01T01:20:10.000Z</time>
      </trkpt>
      <trkpt lat="44.7616" lon="5.12077">
        <ele>362.8</ele>
        <time>1970-01-01T01:20:11.000Z</time>
      </trkpt>
      <trkpt lat="44.76173" lon="5.12076">
        <ele>363.2</ele>
        <time>1970-01-01T01:20:15.000Z</time>
      </trkpt>
      <trkpt lat="44.76176" lon="5.12076">
        <ele>363.2</ele>
        <time>1970-01-01T01:20:16.000Z</time>
      </trkpt>
      <trkpt lat="44.76183" lon="5.12075">
        <ele>363.4</ele>
        <time>1970-01-01T01:20:18.000Z</time>
      </trkpt>
      <trkpt lat="44.76186" lon="5.12075">
        <ele>363.6</ele>
        <time>1970-01-01T01:20:19.000Z</time>
      </trkpt>
      <trkpt lat="44.76189" lon="5.12075">
        <ele>363.6</ele>
        <time>1970-01-01T01:20:20.000Z</time>
      </trkpt>
      <trkpt lat="44.76192" lon="5.12074">
        <ele>363.8</ele>
        <time>1970-01-01T01:20:21.000Z</time>
      </trkpt>
      <trkpt lat="44.76205" lon="5.12071">
        <ele>364</ele>
        <time>1970-01-01T01:20:25.000Z</time>
      </trkpt>
      <trkpt lat="44.76208" lon="5.1207">
        <ele>364</ele>
        <time>1970-01-01T01:20:26.000Z</time>
      </trkpt>
      <trkpt lat="44.76222" lon="5.12061">
        <ele>364.4</ele>
        <time>1970-01-01T01:20:30.000Z</time>
      </trkpt>
      <trkpt lat="44.76225" lon="5.12058">
        <ele>364.4</ele>
        <time>1970-01-01T01:20:31.000Z</time>
      </trkpt>
      <trkpt lat="44.76228" lon="5.12055">
        <ele>364.4</ele>
        <time>1970-01-01T01:20:32.000Z</time>
      </trkpt>
      <trkpt lat="44.7623" lon="5.12053">
        <ele>364.2</ele>
        <time>1970-01-01T01:20:33.000Z</time>
      </trkpt>
      <trkpt lat="44.76233" lon="5.1205">
        <ele>364</ele>
        <time>1970-01-01T01:20:34.000Z</time>
      </trkpt>
      <trkpt lat="44.76236" lon="5.12048">
        <ele>364</ele>
        <time>1970-01-01T01:20:35.000Z</time>
      </trkpt>
      <trkpt lat="44.76251" lon="5.12037">
        <ele>363.8</ele>
        <time>1970-01-01T01:20:40.000Z</time>
      </trkpt>
      <trkpt lat="44.76254" lon="5.12035">
        <ele>363.8</ele>
        <time>1970-01-01T01:20:41.000Z</time>
      </trkpt>
      <trkpt lat="44.76256" lon="5.12033">
        <ele>363.8</ele>
        <time>1970-01-01T01:20:42.000Z</time>
      </trkpt>
      <trkpt lat="44.76259" lon="5.12032">
        <ele>363.6</ele>
        <time>1970-01-01T01:20:43.000Z</time>
      </trkpt>
      <trkpt lat="44.76276" lon="5.12018">
        <ele>363.4</ele>
        <time>1970-01-01T01:20:49.000Z</time>
      </trkpt>
      <trkpt lat="44.76296" lon="5.11995">
        <ele>363.2</ele>
        <time>1970-01-01T01:20:56.000Z</time>
      </trkpt>
      <trkpt lat="44.763" lon="5.11992">
        <ele>363.2</ele>
        <time>1970-01-01T01:20:57.000Z</time>
      </trkpt>
      <trkpt lat="44.7631" lon="5.11982">
        <ele>363.2</ele>
        <time>1970-01-01T01:21:00.000Z</time>
      </trkpt>
      <trkpt lat="44.7632" lon="5.11973">
        <ele>363</ele>
        <time>1970-01-01T01:21:03.000Z</time>
      </trkpt>
      <trkpt lat="44.76323" lon="5.1197">
        <ele>363</ele>
        <time>1970-01-01T01:21:04.000Z</time>
      </trkpt>
      <trkpt lat="44.76327" lon="5.11968">
        <ele>363</ele>
        <time>1970-01-01T01:21:05.000Z</time>
      </trkpt>
      <trkpt lat="44.76342" lon="5.11965">
        <ele>362.8</ele>
        <time>1970-01-01T01:21:09.000Z</time>
      </trkpt>
      <trkpt lat="44.76346" lon="5.11964">
        <ele>362.8</ele>
        <time>1970-01-01T01:21:10.000Z</time>
      </trkpt>
      <trkpt lat="44.7635" lon="5.11964">
        <ele>362.8</ele>
        <time>1970-01-01T01:21:11.000Z</time>
      </trkpt>
      <trkpt lat="44.76354" lon="5.11964">
        <ele>362.6</ele>
        <time>1970-01-01T01:21:12.000Z</time>
      </trkpt>
      <trkpt lat="44.76357" lon="5.11964">
        <ele>362.6</ele>
        <time>1970-01-01T01:21:13.000Z</time>
      </trkpt>
      <trkpt lat="44.76365" lon="5.11965">
        <ele>362.6</ele>
        <time>1970-01-01T01:21:15.000Z</time>
      </trkpt>
      <trkpt lat="44.76372" lon="5.11966">
        <ele>362.6</ele>
        <time>1970-01-01T01:21:17.000Z</time>
      </trkpt>
      <trkpt lat="44.76376" lon="5.11967">
        <ele>362.6</ele>
        <time>1970-01-01T01:21:18.000Z</time>
      </trkpt>
      <trkpt lat="44.7638" lon="5.11967">
        <ele>362.4</ele>
        <time>1970-01-01T01:21:19.000Z</time>
      </trkpt>
      <trkpt lat="44.76383" lon="5.11968">
        <ele>362.4</ele>
        <time>1970-01-01T01:21:20.000Z</time>
      </trkpt>
      <trkpt lat="44.76399" lon="5.11968">
        <ele>362</ele>
        <time>1970-01-01T01:21:24.000Z</time>
      </trkpt>
      <trkpt lat="44.76402" lon="5.11968">
        <ele>361.8</ele>
        <time>1970-01-01T01:21:25.000Z</time>
      </trkpt>
      <trkpt lat="44.76406" lon="5.11968">
        <ele>361.8</ele>
        <time>1970-01-01T01:21:26.000Z</time>
      </trkpt>
      <trkpt lat="44.76409" lon="5.11969">
        <ele>361.8</ele>
        <time>1970-01-01T01:21:27.000Z</time>
      </trkpt>
      <trkpt lat="44.7642" lon="5.11969">
        <ele>361.8</ele>
        <time>1970-01-01T01:21:30.000Z</time>
      </trkpt>
      <trkpt lat="44.76424" lon="5.11969">
        <ele>361.8</ele>
        <time>1970-01-01T01:21:31.000Z</time>
      </trkpt>
      <trkpt lat="44.7643" lon="5.11968">
        <ele>361.6</ele>
        <time>1970-01-01T01:21:33.000Z</time>
      </trkpt>
      <trkpt lat="44.76433" lon="5.11966">
        <ele>361.6</ele>
        <time>1970-01-01T01:21:34.000Z</time>
      </trkpt>
      <trkpt lat="44.76434" lon="5.11962">
        <ele>361.6</ele>
        <time>1970-01-01T01:21:35.000Z</time>
      </trkpt>
      <trkpt lat="44.76436" lon="5.11951">
        <ele>361.4</ele>
        <time>1970-01-01T01:21:37.000Z</time>
      </trkpt>
      <trkpt lat="44.76437" lon="5.11945">
        <ele>361.4</ele>
        <time>1970-01-01T01:21:38.000Z</time>
      </trkpt>
      <trkpt lat="44.76437" lon="5.11939">
        <ele>361.6</ele>
        <time>1970-01-01T01:21:39.000Z</time>
      </trkpt>
      <trkpt lat="44.76437" lon="5.11933">
        <ele>361.8</ele>
        <time>1970-01-01T01:21:40.000Z</time>
      </trkpt>
      <trkpt lat="44.76438" lon="5.11927">
        <ele>361.8</ele>
        <time>1970-01-01T01:21:41.000Z</time>
      </trkpt>
      <trkpt lat="44.76438" lon="5.11921">
        <ele>361.8</ele>
        <time>1970-01-01T01:21:42.000Z</time>
      </trkpt>
      <trkpt lat="44.7644" lon="5.1191">
        <ele>362</ele>
        <time>1970-01-01T01:21:44.000Z</time>
      </trkpt>
      <trkpt lat="44.76441" lon="5.11905">
        <ele>361.8</ele>
        <time>1970-01-01T01:21:45.000Z</time>
      </trkpt>
      <trkpt lat="44.76442" lon="5.11899">
        <ele>362</ele>
        <time>1970-01-01T01:21:46.000Z</time>
      </trkpt>
      <trkpt lat="44.76443" lon="5.11894">
        <ele>361.8</ele>
        <time>1970-01-01T01:21:47.000Z</time>
      </trkpt>
      <trkpt lat="44.76444" lon="5.11889">
        <ele>361.8</ele>
        <time>1970-01-01T01:21:48.000Z</time>
      </trkpt>
      <trkpt lat="44.76445" lon="5.11884">
        <ele>361.8</ele>
        <time>1970-01-01T01:21:49.000Z</time>
      </trkpt>
      <trkpt lat="44.76446" lon="5.11878">
        <ele>361.8</ele>
        <time>1970-01-01T01:21:50.000Z</time>
      </trkpt>
      <trkpt lat="44.76449" lon="5.11863">
        <ele>361.8</ele>
        <time>1970-01-01T01:21:53.000Z</time>
      </trkpt>
      <trkpt lat="44.76453" lon="5.11842">
        <ele>362.2</ele>
        <time>1970-01-01T01:21:57.000Z</time>
      </trkpt>
      <trkpt lat="44.76457" lon="5.11826">
        <ele>362.6</ele>
        <time>1970-01-01T01:22:00.000Z</time>
      </trkpt>
      <trkpt lat="44.76458" lon="5.11821">
        <ele>362.8</ele>
        <time>1970-01-01T01:22:01.000Z</time>
      </trkpt>
      <trkpt lat="44.76458" lon="5.11815">
        <ele>362.8</ele>
        <time>1970-01-01T01:22:02.000Z</time>
      </trkpt>
      <trkpt lat="44.76459" lon="5.11809">
        <ele>363</ele>
        <time>1970-01-01T01:22:03.000Z</time>
      </trkpt>
      <trkpt lat="44.7646" lon="5.11803">
        <ele>363.2</ele>
        <time>1970-01-01T01:22:04.000Z</time>
      </trkpt>
      <trkpt lat="44.7646" lon="5.11798">
        <ele>363.4</ele>
        <time>1970-01-01T01:22:05.000Z</time>
      </trkpt>
      <trkpt lat="44.76462" lon="5.11793">
        <ele>363.6</ele>
        <time>1970-01-01T01:22:06.000Z</time>
      </trkpt>
      <trkpt lat="44.76463" lon="5.11789">
        <ele>363.8</ele>
        <time>1970-01-01T01:22:07.000Z</time>
      </trkpt>
      <trkpt lat="44.76466" lon="5.11785">
        <ele>364</ele>
        <time>1970-01-01T01:22:08.000Z</time>
      </trkpt>
      <trkpt lat="44.76469" lon="5.11781">
        <ele>364.4</ele>
        <time>1970-01-01T01:22:09.000Z</time>
      </trkpt>
      <trkpt lat="44.76471" lon="5.11779">
        <ele>364.6</ele>
        <time>1970-01-01T01:22:10.000Z</time>
      </trkpt>
      <trkpt lat="44.76475" lon="5.11778">
        <ele>364.8</ele>
        <time>1970-01-01T01:22:11.000Z</time>
      </trkpt>
      <trkpt lat="44.76477" lon="5.11777">
        <ele>365</ele>
        <time>1970-01-01T01:22:12.000Z</time>
      </trkpt>
      <trkpt lat="44.7648" lon="5.11776">
        <ele>365.4</ele>
        <time>1970-01-01T01:22:13.000Z</time>
      </trkpt>
      <trkpt lat="44.76482" lon="5.11776">
        <ele>365.6</ele>
        <time>1970-01-01T01:22:14.000Z</time>
      </trkpt>
      <trkpt lat="44.76485" lon="5.11776">
        <ele>365.8</ele>
        <time>1970-01-01T01:22:15.000Z</time>
      </trkpt>
      <trkpt lat="44.76488" lon="5.11777">
        <ele>366</ele>
        <time>1970-01-01T01:22:16.000Z</time>
      </trkpt>
      <trkpt lat="44.7649" lon="5.11778">
        <ele>366</ele>
        <time>1970-01-01T01:22:17.000Z</time>
      </trkpt>
      <trkpt lat="44.76493" lon="5.11779">
        <ele>366.2</ele>
        <time>1970-01-01T01:22:18.000Z</time>
      </trkpt>
      <trkpt lat="44.76495" lon="5.11779">
        <ele>366.2</ele>
        <time>1970-01-01T01:22:19.000Z</time>
      </trkpt>
      <trkpt lat="44.76498" lon="5.11778">
        <ele>366.4</ele>
        <time>1970-01-01T01:22:20.000Z</time>
      </trkpt>
      <trkpt lat="44.765" lon="5.11775">
        <ele>366.6</ele>
        <time>1970-01-01T01:22:21.000Z</time>
      </trkpt>
      <trkpt lat="44.76502" lon="5.11771">
        <ele>367</ele>
        <time>1970-01-01T01:22:22.000Z</time>
      </trkpt>
      <trkpt lat="44.76503" lon="5.11768">
        <ele>367.4</ele>
        <time>1970-01-01T01:22:23.000Z</time>
      </trkpt>
      <trkpt lat="44.76505" lon="5.11764">
        <ele>367.8</ele>
        <time>1970-01-01T01:22:24.000Z</time>
      </trkpt>
      <trkpt lat="44.76506" lon="5.1176">
        <ele>368.2</ele>
        <time>1970-01-01T01:22:25.000Z</time>
      </trkpt>
      <trkpt lat="44.76507" lon="5.11756">
        <ele>368.6</ele>
        <time>1970-01-01T01:22:26.000Z</time>
      </trkpt>
      <trkpt lat="44.76509" lon="5.11753">
        <ele>369</ele>
        <time>1970-01-01T01:22:27.000Z</time>
      </trkpt>
      <trkpt lat="44.76511" lon="5.11751">
        <ele>369.2</ele>
        <time>1970-01-01T01:22:28.000Z</time>
      </trkpt>
      <trkpt lat="44.76513" lon="5.1175">
        <ele>369.6</ele>
        <time>1970-01-01T01:22:29.000Z</time>
      </trkpt>
      <trkpt lat="44.76516" lon="5.11749">
        <ele>370</ele>
        <time>1970-01-01T01:22:30.000Z</time>
      </trkpt>
      <trkpt lat="44.76519" lon="5.11749">
        <ele>370.2</ele>
        <time>1970-01-01T01:22:31.000Z</time>
      </trkpt>
      <trkpt lat="44.76522" lon="5.1175">
        <ele>370.4</ele>
        <time>1970-01-01T01:22:32.000Z</time>
      </trkpt>
      <trkpt lat="44.76525" lon="5.11751">
        <ele>370.6</ele>
        <time>1970-01-01T01:22:33.000Z</time>
      </trkpt>
      <trkpt lat="44.76528" lon="5.11753">
        <ele>370.8</ele>
        <time>1970-01-01T01:22:34.000Z</time>
      </trkpt>
      <trkpt lat="44.76531" lon="5.11755">
        <ele>370.8</ele>
        <time>1970-01-01T01:22:35.000Z</time>
      </trkpt>
      <trkpt lat="44.76534" lon="5.11757">
        <ele>371</ele>
        <time>1970-01-01T01:22:36.000Z</time>
      </trkpt>
      <trkpt lat="44.76537" lon="5.11758">
        <ele>371</ele>
        <time>1970-01-01T01:22:37.000Z</time>
      </trkpt>
      <trkpt lat="44.7654" lon="5.1176">
        <ele>371</ele>
        <time>1970-01-01T01:22:38.000Z</time>
      </trkpt>
      <trkpt lat="44.76544" lon="5.11761">
        <ele>371.2</ele>
        <time>1970-01-01T01:22:39.000Z</time>
      </trkpt>
      <trkpt lat="44.76547" lon="5.11763">
        <ele>371.2</ele>
        <time>1970-01-01T01:22:40.000Z</time>
      </trkpt>
      <trkpt lat="44.7655" lon="5.11765">
        <ele>371.4</ele>
        <time>1970-01-01T01:22:41.000Z</time>
      </trkpt>
      <trkpt lat="44.76554" lon="5.11768">
        <ele>371.4</ele>
        <time>1970-01-01T01:22:42.000Z</time>
      </trkpt>
      <trkpt lat="44.76557" lon="5.1177">
        <ele>371.6</ele>
        <time>1970-01-01T01:22:43.000Z</time>
      </trkpt>
      <trkpt lat="44.7656" lon="5.11771">
        <ele>371.6</ele>
        <time>1970-01-01T01:22:44.000Z</time>
      </trkpt>
      <trkpt lat="44.76563" lon="5.11773">
        <ele>371.8</ele>
        <time>1970-01-01T01:22:45.000Z</time>
      </trkpt>
      <trkpt lat="44.76566" lon="5.11776">
        <ele>372</ele>
        <time>1970-01-01T01:22:46.000Z</time>
      </trkpt>
      <trkpt lat="44.76568" lon="5.11777">
        <ele>372</ele>
        <time>1970-01-01T01:22:47.000Z</time>
      </trkpt>
      <trkpt lat="44.7657" lon="5.11779">
        <ele>372.2</ele>
        <time>1970-01-01T01:22:48.000Z</time>
      </trkpt>
      <trkpt lat="44.76574" lon="5.11781">
        <ele>372.2</ele>
        <time>1970-01-01T01:22:49.000Z</time>
      </trkpt>
      <trkpt lat="44.76577" lon="5.11782">
        <ele>372.4</ele>
        <time>1970-01-01T01:22:50.000Z</time>
      </trkpt>
      <trkpt lat="44.76579" lon="5.11784">
        <ele>372.6</ele>
        <time>1970-01-01T01:22:51.000Z</time>
      </trkpt>
      <trkpt lat="44.76582" lon="5.11785">
        <ele>372.6</ele>
        <time>1970-01-01T01:22:52.000Z</time>
      </trkpt>
      <trkpt lat="44.76585" lon="5.11787">
        <ele>372.8</ele>
        <time>1970-01-01T01:22:53.000Z</time>
      </trkpt>
      <trkpt lat="44.76588" lon="5.11788">
        <ele>372.8</ele>
        <time>1970-01-01T01:22:54.000Z</time>
      </trkpt>
      <trkpt lat="44.7659" lon="5.1179">
        <ele>372.8</ele>
        <time>1970-01-01T01:22:55.000Z</time>
      </trkpt>
      <trkpt lat="44.76593" lon="5.11792">
        <ele>373</ele>
        <time>1970-01-01T01:22:56.000Z</time>
      </trkpt>
      <trkpt lat="44.76596" lon="5.11793">
        <ele>373.2</ele>
        <time>1970-01-01T01:22:57.000Z</time>
      </trkpt>
      <trkpt lat="44.76599" lon="5.11796">
        <ele>373.2</ele>
        <time>1970-01-01T01:22:58.000Z</time>
      </trkpt>
      <trkpt lat="44.76602" lon="5.11798">
        <ele>373.4</ele>
        <time>1970-01-01T01:22:59.000Z</time>
      </trkpt>
      <trkpt lat="44.76605" lon="5.118">
        <ele>373.8</ele>
        <time>1970-01-01T01:23:00.000Z</time>
      </trkpt>
      <trkpt lat="44.76608" lon="5.11802">
        <ele>373.8</ele>
        <time>1970-01-01T01:23:01.000Z</time>
      </trkpt>
      <trkpt lat="44.76611" lon="5.11804">
        <ele>374</ele>
        <time>1970-01-01T01:23:02.000Z</time>
      </trkpt>
      <trkpt lat="44.76614" lon="5.11806">
        <ele>374</ele>
        <time>1970-01-01T01:23:03.000Z</time>
      </trkpt>
      <trkpt lat="44.76617" lon="5.11809">
        <ele>374.2</ele>
        <time>1970-01-01T01:23:04.000Z</time>
      </trkpt>
      <trkpt lat="44.76619" lon="5.11811">
        <ele>374.2</ele>
        <time>1970-01-01T01:23:05.000Z</time>
      </trkpt>
      <trkpt lat="44.76623" lon="5.11815">
        <ele>374.2</ele>
        <time>1970-01-01T01:23:06.000Z</time>
      </trkpt>
      <trkpt lat="44.76625" lon="5.11817">
        <ele>374.4</ele>
        <time>1970-01-01T01:23:07.000Z</time>
      </trkpt>
      <trkpt lat="44.76627" lon="5.11821">
        <ele>374.4</ele>
        <time>1970-01-01T01:23:08.000Z</time>
      </trkpt>
      <trkpt lat="44.76629" lon="5.11826">
        <ele>374.4</ele>
        <time>1970-01-01T01:23:09.000Z</time>
      </trkpt>
      <trkpt lat="44.7663" lon="5.11831">
        <ele>374.6</ele>
        <time>1970-01-01T01:23:10.000Z</time>
      </trkpt>
      <trkpt lat="44.76631" lon="5.11835">
        <ele>374.8</ele>
        <time>1970-01-01T01:23:11.000Z</time>
      </trkpt>
      <trkpt lat="44.76631" lon="5.1184">
        <ele>374.8</ele>
        <time>1970-01-01T01:23:12.000Z</time>
      </trkpt>
      <trkpt lat="44.76631" lon="5.11846">
        <ele>375</ele>
        <time>1970-01-01T01:23:13.000Z</time>
      </trkpt>
      <trkpt lat="44.76631" lon="5.11851">
        <ele>375</ele>
        <time>1970-01-01T01:23:14.000Z</time>
      </trkpt>
      <trkpt lat="44.76631" lon="5.11856">
        <ele>375.2</ele>
        <time>1970-01-01T01:23:15.000Z</time>
      </trkpt>
      <trkpt lat="44.76631" lon="5.1186">
        <ele>375.2</ele>
        <time>1970-01-01T01:23:16.000Z</time>
      </trkpt>
      <trkpt lat="44.76631" lon="5.11865">
        <ele>375.2</ele>
        <time>1970-01-01T01:23:17.000Z</time>
      </trkpt>
      <trkpt lat="44.7663" lon="5.1187">
        <ele>375.4</ele>
        <time>1970-01-01T01:23:18.000Z</time>
      </trkpt>
      <trkpt lat="44.7663" lon="5.11875">
        <ele>375.4</ele>
        <time>1970-01-01T01:23:19.000Z</time>
      </trkpt>
      <trkpt lat="44.76629" lon="5.11879">
        <ele>375.6</ele>
        <time>1970-01-01T01:23:20.000Z</time>
      </trkpt>
      <trkpt lat="44.76629" lon="5.11884">
        <ele>375.8</ele>
        <time>1970-01-01T01:23:21.000Z</time>
      </trkpt>
      <trkpt lat="44.76628" lon="5.11889">
        <ele>376</ele>
        <time>1970-01-01T01:23:22.000Z</time>
      </trkpt>
      <trkpt lat="44.76628" lon="5.11894">
        <ele>376</ele>
        <time>1970-01-01T01:23:23.000Z</time>
      </trkpt>
      <trkpt lat="44.76627" lon="5.11899">
        <ele>376.2</ele>
        <time>1970-01-01T01:23:24.000Z</time>
      </trkpt>
      <trkpt lat="44.76627" lon="5.11904">
        <ele>376.4</ele>
        <time>1970-01-01T01:23:25.000Z</time>
      </trkpt>
      <trkpt lat="44.76626" lon="5.11908">
        <ele>376.6</ele>
        <time>1970-01-01T01:23:26.000Z</time>
      </trkpt>
      <trkpt lat="44.76626" lon="5.11912">
        <ele>376.8</ele>
        <time>1970-01-01T01:23:27.000Z</time>
      </trkpt>
      <trkpt lat="44.76626" lon="5.11918">
        <ele>377</ele>
        <time>1970-01-01T01:23:28.000Z</time>
      </trkpt>
      <trkpt lat="44.76626" lon="5.11922">
        <ele>377.2</ele>
        <time>1970-01-01T01:23:29.000Z</time>
      </trkpt>
      <trkpt lat="44.76625" lon="5.11926">
        <ele>377.2</ele>
        <time>1970-01-01T01:23:30.000Z</time>
      </trkpt>
      <trkpt lat="44.76626" lon="5.11929">
        <ele>377.4</ele>
        <time>1970-01-01T01:23:31.000Z</time>
      </trkpt>
      <trkpt lat="44.76626" lon="5.11933">
        <ele>377.6</ele>
        <time>1970-01-01T01:23:32.000Z</time>
      </trkpt>
      <trkpt lat="44.76626" lon="5.11938">
        <ele>377.8</ele>
        <time>1970-01-01T01:23:33.000Z</time>
      </trkpt>
      <trkpt lat="44.76628" lon="5.11942">
        <ele>378</ele>
        <time>1970-01-01T01:23:34.000Z</time>
      </trkpt>
      <trkpt lat="44.76629" lon="5.11945">
        <ele>378.2</ele>
        <time>1970-01-01T01:23:35.000Z</time>
      </trkpt>
      <trkpt lat="44.76631" lon="5.11946">
        <ele>378.4</ele>
        <time>1970-01-01T01:23:36.000Z</time>
      </trkpt>
      <trkpt lat="44.76634" lon="5.11948">
        <ele>378.6</ele>
        <time>1970-01-01T01:23:37.000Z</time>
      </trkpt>
      <trkpt lat="44.76636" lon="5.11947">
        <ele>378.8</ele>
        <time>1970-01-01T01:23:38.000Z</time>
      </trkpt>
      <trkpt lat="44.76639" lon="5.11946">
        <ele>379</ele>
        <time>1970-01-01T01:23:39.000Z</time>
      </trkpt>
      <trkpt lat="44.76641" lon="5.11945">
        <ele>379.4</ele>
        <time>1970-01-01T01:23:40.000Z</time>
      </trkpt>
      <trkpt lat="44.76643" lon="5.11944">
        <ele>380</ele>
        <time>1970-01-01T01:23:41.000Z</time>
      </trkpt>
      <trkpt lat="44.76646" lon="5.11942">
        <ele>380.4</ele>
        <time>1970-01-01T01:23:42.000Z</time>
      </trkpt>
      <trkpt lat="44.76649" lon="5.1194">
        <ele>380.6</ele>
        <time>1970-01-01T01:23:43.000Z</time>
      </trkpt>
      <trkpt lat="44.76651" lon="5.11939">
        <ele>380.6</ele>
        <time>1970-01-01T01:23:44.000Z</time>
      </trkpt>
      <trkpt lat="44.76654" lon="5.11938">
        <ele>380.8</ele>
        <time>1970-01-01T01:23:45.000Z</time>
      </trkpt>
      <trkpt lat="44.76656" lon="5.11936">
        <ele>381</ele>
        <time>1970-01-01T01:23:46.000Z</time>
      </trkpt>
      <trkpt lat="44.76659" lon="5.11934">
        <ele>381.4</ele>
        <time>1970-01-01T01:23:47.000Z</time>
      </trkpt>
      <trkpt lat="44.76662" lon="5.11933">
        <ele>381.6</ele>
        <time>1970-01-01T01:23:48.000Z</time>
      </trkpt>
      <trkpt lat="44.76664" lon="5.11931">
        <ele>381.8</ele>
        <time>1970-01-01T01:23:49.000Z</time>
      </trkpt>
      <trkpt lat="44.76666" lon="5.1193">
        <ele>382</ele>
        <time>1970-01-01T01:23:50.000Z</time>
      </trkpt>
      <trkpt lat="44.76669" lon="5.11929">
        <ele>382.2</ele>
        <time>1970-01-01T01:23:51.000Z</time>
      </trkpt>
      <trkpt lat="44.76671" lon="5.11927">
        <ele>382.4</ele>
        <time>1970-01-01T01:23:52.000Z</time>
      </trkpt>
      <trkpt lat="44.76674" lon="5.11925">
        <ele>382.6</ele>
        <time>1970-01-01T01:23:53.000Z</time>
      </trkpt>
      <trkpt lat="44.76676" lon="5.11924">
        <ele>382.8</ele>
        <time>1970-01-01T01:23:54.000Z</time>
      </trkpt>
      <trkpt lat="44.76679" lon="5.11922">
        <ele>383.2</ele>
        <time>1970-01-01T01:23:55.000Z</time>
      </trkpt>
      <trkpt lat="44.76681" lon="5.11921">
        <ele>383.4</ele>
        <time>1970-01-01T01:23:56.000Z</time>
      </trkpt>
      <trkpt lat="44.76683" lon="5.11919">
        <ele>383.6</ele>
        <time>1970-01-01T01:23:57.000Z</time>
      </trkpt>
      <trkpt lat="44.76686" lon="5.11917">
        <ele>383.8</ele>
        <time>1970-01-01T01:23:58.000Z</time>
      </trkpt>
      <trkpt lat="44.76688" lon="5.11916">
        <ele>384</ele>
        <time>1970-01-01T01:23:59.000Z</time>
      </trkpt>
      <trkpt lat="44.76691" lon="5.11914">
        <ele>384.2</ele>
        <time>1970-01-01T01:24:00.000Z</time>
      </trkpt>
      <trkpt lat="44.76694" lon="5.11913">
        <ele>384.4</ele>
        <time>1970-01-01T01:24:01.000Z</time>
      </trkpt>
      <trkpt lat="44.76697" lon="5.11911">
        <ele>384.4</ele>
        <time>1970-01-01T01:24:02.000Z</time>
      </trkpt>
      <trkpt lat="44.76699" lon="5.1191">
        <ele>384.6</ele>
        <time>1970-01-01T01:24:03.000Z</time>
      </trkpt>
      <trkpt lat="44.76701" lon="5.11908">
        <ele>384.8</ele>
        <time>1970-01-01T01:24:04.000Z</time>
      </trkpt>
      <trkpt lat="44.76704" lon="5.11907">
        <ele>385</ele>
        <time>1970-01-01T01:24:05.000Z</time>
      </trkpt>
      <trkpt lat="44.76707" lon="5.11905">
        <ele>385.2</ele>
        <time>1970-01-01T01:24:06.000Z</time>
      </trkpt>
      <trkpt lat="44.7671" lon="5.11904">
        <ele>385.4</ele>
        <time>1970-01-01T01:24:07.000Z</time>
      </trkpt>
      <trkpt lat="44.76712" lon="5.11903">
        <ele>385.8</ele>
        <time>1970-01-01T01:24:08.000Z</time>
      </trkpt>
      <trkpt lat="44.76714" lon="5.11902">
        <ele>386</ele>
        <time>1970-01-01T01:24:09.000Z</time>
      </trkpt>
      <trkpt lat="44.76717" lon="5.119">
        <ele>386.2</ele>
        <time>1970-01-01T01:24:10.000Z</time>
      </trkpt>
      <trkpt lat="44.7672" lon="5.11899">
        <ele>386.6</ele>
        <time>1970-01-01T01:24:11.000Z</time>
      </trkpt>
      <trkpt lat="44.76723" lon="5.11898">
        <ele>386.8</ele>
        <time>1970-01-01T01:24:12.000Z</time>
      </trkpt>
      <trkpt lat="44.76725" lon="5.11897">
        <ele>387.2</ele>
        <time>1970-01-01T01:24:13.000Z</time>
      </trkpt>
      <trkpt lat="44.76727" lon="5.11897">
        <ele>387.4</ele>
        <time>1970-01-01T01:24:14.000Z</time>
      </trkpt>
      <trkpt lat="44.76729" lon="5.11896">
        <ele>387.6</ele>
        <time>1970-01-01T01:24:15.000Z</time>
      </trkpt>
      <trkpt lat="44.76732" lon="5.11895">
        <ele>387.8</ele>
        <time>1970-01-01T01:24:16.000Z</time>
      </trkpt>
      <trkpt lat="44.76735" lon="5.11894">
        <ele>388</ele>
        <time>1970-01-01T01:24:17.000Z</time>
      </trkpt>
      <trkpt lat="44.76737" lon="5.11892">
        <ele>388.2</ele>
        <time>1970-01-01T01:24:18.000Z</time>
      </trkpt>
      <trkpt lat="44.76739" lon="5.1189">
        <ele>388.4</ele>
        <time>1970-01-01T01:24:19.000Z</time>
      </trkpt>
      <trkpt lat="44.76741" lon="5.11886">
        <ele>388.8</ele>
        <time>1970-01-01T01:24:20.000Z</time>
      </trkpt>
      <trkpt lat="44.76742" lon="5.11883">
        <ele>389</ele>
        <time>1970-01-01T01:24:21.000Z</time>
      </trkpt>
      <trkpt lat="44.76743" lon="5.1188">
        <ele>389.2</ele>
        <time>1970-01-01T01:24:22.000Z</time>
      </trkpt>
      <trkpt lat="44.76744" lon="5.11877">
        <ele>389.4</ele>
        <time>1970-01-01T01:24:23.000Z</time>
      </trkpt>
      <trkpt lat="44.76745" lon="5.11874">
        <ele>389.6</ele>
        <time>1970-01-01T01:24:24.000Z</time>
      </trkpt>
      <trkpt lat="44.76746" lon="5.11871">
        <ele>389.8</ele>
        <time>1970-01-01T01:24:25.000Z</time>
      </trkpt>
      <trkpt lat="44.76748" lon="5.11868">
        <ele>390</ele>
        <time>1970-01-01T01:24:26.000Z</time>
      </trkpt>
      <trkpt lat="44.76749" lon="5.11864">
        <ele>390</ele>
        <time>1970-01-01T01:24:27.000Z</time>
      </trkpt>
      <trkpt lat="44.7675" lon="5.11861">
        <ele>390.2</ele>
        <time>1970-01-01T01:24:28.000Z</time>
      </trkpt>
      <trkpt lat="44.76751" lon="5.11858">
        <ele>390.4</ele>
        <time>1970-01-01T01:24:29.000Z</time>
      </trkpt>
      <trkpt lat="44.76753" lon="5.11856">
        <ele>390.6</ele>
        <time>1970-01-01T01:24:30.000Z</time>
      </trkpt>
      <trkpt lat="44.76755" lon="5.11854">
        <ele>391.2</ele>
        <time>1970-01-01T01:24:31.000Z</time>
      </trkpt>
      <trkpt lat="44.76757" lon="5.11853">
        <ele>391.4</ele>
        <time>1970-01-01T01:24:32.000Z</time>
      </trkpt>
      <trkpt lat="44.76759" lon="5.11852">
        <ele>391.6</ele>
        <time>1970-01-01T01:24:33.000Z</time>
      </trkpt>
      <trkpt lat="44.76762" lon="5.11851">
        <ele>391.6</ele>
        <time>1970-01-01T01:24:34.000Z</time>
      </trkpt>
      <trkpt lat="44.76764" lon="5.11851">
        <ele>391.8</ele>
        <time>1970-01-01T01:24:35.000Z</time>
      </trkpt>
      <trkpt lat="44.76767" lon="5.1185">
        <ele>391.8</ele>
        <time>1970-01-01T01:24:36.000Z</time>
      </trkpt>
      <trkpt lat="44.76769" lon="5.1185">
        <ele>392</ele>
        <time>1970-01-01T01:24:37.000Z</time>
      </trkpt>
      <trkpt lat="44.76772" lon="5.11849">
        <ele>392.2</ele>
        <time>1970-01-01T01:24:38.000Z</time>
      </trkpt>
      <trkpt lat="44.76774" lon="5.11847">
        <ele>392.4</ele>
        <time>1970-01-01T01:24:39.000Z</time>
      </trkpt>
      <trkpt lat="44.76776" lon="5.11845">
        <ele>392.6</ele>
        <time>1970-01-01T01:24:40.000Z</time>
      </trkpt>
      <trkpt lat="44.76777" lon="5.11843">
        <ele>393</ele>
        <time>1970-01-01T01:24:41.000Z</time>
      </trkpt>
      <trkpt lat="44.76777" lon="5.1184">
        <ele>393.2</ele>
        <time>1970-01-01T01:24:42.000Z</time>
      </trkpt>
      <trkpt lat="44.76777" lon="5.11837">
        <ele>393.4</ele>
        <time>1970-01-01T01:24:43.000Z</time>
      </trkpt>
      <trkpt lat="44.76777" lon="5.11833">
        <ele>393.4</ele>
        <time>1970-01-01T01:24:44.000Z</time>
      </trkpt>
      <trkpt lat="44.76777" lon="5.11829">
        <ele>393.4</ele>
        <time>1970-01-01T01:24:45.000Z</time>
      </trkpt>
      <trkpt lat="44.76777" lon="5.11825">
        <ele>393.4</ele>
        <time>1970-01-01T01:24:46.000Z</time>
      </trkpt>
      <trkpt lat="44.76776" lon="5.1182">
        <ele>393.4</ele>
        <time>1970-01-01T01:24:47.000Z</time>
      </trkpt>
      <trkpt lat="44.76776" lon="5.11816">
        <ele>393.4</ele>
        <time>1970-01-01T01:24:48.000Z</time>
      </trkpt>
      <trkpt lat="44.76776" lon="5.11811">
        <ele>393.4</ele>
        <time>1970-01-01T01:24:49.000Z</time>
      </trkpt>
      <trkpt lat="44.76775" lon="5.11807">
        <ele>393.4</ele>
        <time>1970-01-01T01:24:50.000Z</time>
      </trkpt>
      <trkpt lat="44.76775" lon="5.11802">
        <ele>393.4</ele>
        <time>1970-01-01T01:24:51.000Z</time>
      </trkpt>
      <trkpt lat="44.76775" lon="5.11797">
        <ele>393.4</ele>
        <time>1970-01-01T01:24:52.000Z</time>
      </trkpt>
      <trkpt lat="44.76775" lon="5.11792">
        <ele>393.4</ele>
        <time>1970-01-01T01:24:53.000Z</time>
      </trkpt>
      <trkpt lat="44.76775" lon="5.11788">
        <ele>393.4</ele>
        <time>1970-01-01T01:24:54.000Z</time>
      </trkpt>
      <trkpt lat="44.76775" lon="5.11783">
        <ele>393.4</ele>
        <time>1970-01-01T01:24:55.000Z</time>
      </trkpt>
      <trkpt lat="44.76775" lon="5.11777">
        <ele>393.4</ele>
        <time>1970-01-01T01:24:56.000Z</time>
      </trkpt>
      <trkpt lat="44.76776" lon="5.11773">
        <ele>393.4</ele>
        <time>1970-01-01T01:24:57.000Z</time>
      </trkpt>
      <trkpt lat="44.76777" lon="5.11769">
        <ele>393.4</ele>
        <time>1970-01-01T01:24:58.000Z</time>
      </trkpt>
      <trkpt lat="44.76779" lon="5.11765">
        <ele>393.4</ele>
        <time>1970-01-01T01:24:59.000Z</time>
      </trkpt>
      <trkpt lat="44.76781" lon="5.11762">
        <ele>393.4</ele>
        <time>1970-01-01T01:25:00.000Z</time>
      </trkpt>
      <trkpt lat="44.76783" lon="5.1176">
        <ele>393.6</ele>
        <time>1970-01-01T01:25:01.000Z</time>
      </trkpt>
      <trkpt lat="44.76786" lon="5.11758">
        <ele>393.6</ele>
        <time>1970-01-01T01:25:02.000Z</time>
      </trkpt>
      <trkpt lat="44.76788" lon="5.11756">
        <ele>393.6</ele>
        <time>1970-01-01T01:25:03.000Z</time>
      </trkpt>
      <trkpt lat="44.76791" lon="5.11754">
        <ele>393.8</ele>
        <time>1970-01-01T01:25:04.000Z</time>
      </trkpt>
      <trkpt lat="44.76794" lon="5.11753">
        <ele>393.8</ele>
        <time>1970-01-01T01:25:05.000Z</time>
      </trkpt>
      <trkpt lat="44.76796" lon="5.11751">
        <ele>394</ele>
        <time>1970-01-01T01:25:06.000Z</time>
      </trkpt>
      <trkpt lat="44.76798" lon="5.1175">
        <ele>394</ele>
        <time>1970-01-01T01:25:07.000Z</time>
      </trkpt>
      <trkpt lat="44.76803" lon="5.11746">
        <ele>394.4</ele>
        <time>1970-01-01T01:25:09.000Z</time>
      </trkpt>
      <trkpt lat="44.76806" lon="5.11745">
        <ele>394.4</ele>
        <time>1970-01-01T01:25:10.000Z</time>
      </trkpt>
      <trkpt lat="44.76813" lon="5.11743">
        <ele>395.2</ele>
        <time>1970-01-01T01:25:13.000Z</time>
      </trkpt>
      <trkpt lat="44.76819" lon="5.11742">
        <ele>395.4</ele>
        <time>1970-01-01T01:25:15.000Z</time>
      </trkpt>
      <trkpt lat="44.76821" lon="5.11742">
        <ele>395.6</ele>
        <time>1970-01-01T01:25:16.000Z</time>
      </trkpt>
      <trkpt lat="44.76824" lon="5.1174">
        <ele>396</ele>
        <time>1970-01-01T01:25:18.000Z</time>
      </trkpt>
      <trkpt lat="44.76826" lon="5.11739">
        <ele>396.2</ele>
        <time>1970-01-01T01:25:19.000Z</time>
      </trkpt>
      <trkpt lat="44.76828" lon="5.11736">
        <ele>396.4</ele>
        <time>1970-01-01T01:25:20.000Z</time>
      </trkpt>
      <trkpt lat="44.76829" lon="5.11733">
        <ele>396.6</ele>
        <time>1970-01-01T01:25:21.000Z</time>
      </trkpt>
      <trkpt lat="44.76831" lon="5.11731">
        <ele>396.8</ele>
        <time>1970-01-01T01:25:22.000Z</time>
      </trkpt>
      <trkpt lat="44.76834" lon="5.11729">
        <ele>397</ele>
        <time>1970-01-01T01:25:23.000Z</time>
      </trkpt>
      <trkpt lat="44.76836" lon="5.11727">
        <ele>397.4</ele>
        <time>1970-01-01T01:25:24.000Z</time>
      </trkpt>
      <trkpt lat="44.76838" lon="5.11725">
        <ele>397.6</ele>
        <time>1970-01-01T01:25:25.000Z</time>
      </trkpt>
      <trkpt lat="44.76841" lon="5.11723">
        <ele>397.8</ele>
        <time>1970-01-01T01:25:26.000Z</time>
      </trkpt>
      <trkpt lat="44.76843" lon="5.11722">
        <ele>398.2</ele>
        <time>1970-01-01T01:25:27.000Z</time>
      </trkpt>
      <trkpt lat="44.76844" lon="5.11721">
        <ele>398.4</ele>
        <time>1970-01-01T01:25:28.000Z</time>
      </trkpt>
      <trkpt lat="44.76847" lon="5.11719">
        <ele>398.6</ele>
        <time>1970-01-01T01:25:29.000Z</time>
      </trkpt>
      <trkpt lat="44.76849" lon="5.11717">
        <ele>398.8</ele>
        <time>1970-01-01T01:25:30.000Z</time>
      </trkpt>
      <trkpt lat="44.76851" lon="5.11715">
        <ele>399</ele>
        <time>1970-01-01T01:25:31.000Z</time>
      </trkpt>
      <trkpt lat="44.76853" lon="5.11713">
        <ele>399</ele>
        <time>1970-01-01T01:25:32.000Z</time>
      </trkpt>
      <trkpt lat="44.76855" lon="5.11711">
        <ele>399.2</ele>
        <time>1970-01-01T01:25:33.000Z</time>
      </trkpt>
      <trkpt lat="44.76856" lon="5.1171">
        <ele>399.4</ele>
        <time>1970-01-01T01:25:34.000Z</time>
      </trkpt>
      <trkpt lat="44.76858" lon="5.11707">
        <ele>399.4</ele>
        <time>1970-01-01T01:25:35.000Z</time>
      </trkpt>
      <trkpt lat="44.7686" lon="5.11705">
        <ele>399.6</ele>
        <time>1970-01-01T01:25:36.000Z</time>
      </trkpt>
      <trkpt lat="44.76862" lon="5.11702">
        <ele>399.8</ele>
        <time>1970-01-01T01:25:37.000Z</time>
      </trkpt>
      <trkpt lat="44.76863" lon="5.117">
        <ele>400</ele>
        <time>1970-01-01T01:25:38.000Z</time>
      </trkpt>
      <trkpt lat="44.76865" lon="5.11698">
        <ele>400.2</ele>
        <time>1970-01-01T01:25:39.000Z</time>
      </trkpt>
      <trkpt lat="44.76867" lon="5.11695">
        <ele>400.4</ele>
        <time>1970-01-01T01:25:40.000Z</time>
      </trkpt>
      <trkpt lat="44.76869" lon="5.11694">
        <ele>401</ele>
        <time>1970-01-01T01:25:41.000Z</time>
      </trkpt>
      <trkpt lat="44.76871" lon="5.11692">
        <ele>401.2</ele>
        <time>1970-01-01T01:25:42.000Z</time>
      </trkpt>
      <trkpt lat="44.76872" lon="5.1169">
        <ele>401.4</ele>
        <time>1970-01-01T01:25:43.000Z</time>
      </trkpt>
      <trkpt lat="44.76874" lon="5.11688">
        <ele>401.4</ele>
        <time>1970-01-01T01:25:44.000Z</time>
      </trkpt>
      <trkpt lat="44.76876" lon="5.11686">
        <ele>401.8</ele>
        <time>1970-01-01T01:25:45.000Z</time>
      </trkpt>
      <trkpt lat="44.76878" lon="5.11684">
        <ele>402</ele>
        <time>1970-01-01T01:25:46.000Z</time>
      </trkpt>
      <trkpt lat="44.76879" lon="5.11682">
        <ele>402.4</ele>
        <time>1970-01-01T01:25:47.000Z</time>
      </trkpt>
      <trkpt lat="44.76881" lon="5.1168">
        <ele>402.8</ele>
        <time>1970-01-01T01:25:48.000Z</time>
      </trkpt>
      <trkpt lat="44.76882" lon="5.11678">
        <ele>403</ele>
        <time>1970-01-01T01:25:49.000Z</time>
      </trkpt>
      <trkpt lat="44.76883" lon="5.11675">
        <ele>403.4</ele>
        <time>1970-01-01T01:25:50.000Z</time>
      </trkpt>
      <trkpt lat="44.76885" lon="5.11672">
        <ele>403.8</ele>
        <time>1970-01-01T01:25:51.000Z</time>
      </trkpt>
      <trkpt lat="44.76886" lon="5.11671">
        <ele>404</ele>
        <time>1970-01-01T01:25:52.000Z</time>
      </trkpt>
      <trkpt lat="44.76888" lon="5.11669">
        <ele>404.6</ele>
        <time>1970-01-01T01:25:53.000Z</time>
      </trkpt>
      <trkpt lat="44.76889" lon="5.11667">
        <ele>404.8</ele>
        <time>1970-01-01T01:25:54.000Z</time>
      </trkpt>
      <trkpt lat="44.76891" lon="5.11665">
        <ele>405</ele>
        <time>1970-01-01T01:25:55.000Z</time>
      </trkpt>
      <trkpt lat="44.76892" lon="5.11662">
        <ele>405.2</ele>
        <time>1970-01-01T01:25:56.000Z</time>
      </trkpt>
      <trkpt lat="44.76894" lon="5.1166">
        <ele>405.6</ele>
        <time>1970-01-01T01:25:57.000Z</time>
      </trkpt>
      <trkpt lat="44.76896" lon="5.11658">
        <ele>406.2</ele>
        <time>1970-01-01T01:25:58.000Z</time>
      </trkpt>
      <trkpt lat="44.76897" lon="5.11656">
        <ele>406.4</ele>
        <time>1970-01-01T01:25:59.000Z</time>
      </trkpt>
      <trkpt lat="44.76898" lon="5.11654">
        <ele>406.8</ele>
        <time>1970-01-01T01:26:00.000Z</time>
      </trkpt>
      <trkpt lat="44.769" lon="5.11652">
        <ele>407</ele>
        <time>1970-01-01T01:26:01.000Z</time>
      </trkpt>
      <trkpt lat="44.76901" lon="5.11651">
        <ele>407.2</ele>
        <time>1970-01-01T01:26:02.000Z</time>
      </trkpt>
      <trkpt lat="44.76903" lon="5.1165">
        <ele>407.6</ele>
        <time>1970-01-01T01:26:03.000Z</time>
      </trkpt>
      <trkpt lat="44.76905" lon="5.11648">
        <ele>408.2</ele>
        <time>1970-01-01T01:26:04.000Z</time>
      </trkpt>
      <trkpt lat="44.76906" lon="5.11647">
        <ele>408.6</ele>
        <time>1970-01-01T01:26:05.000Z</time>
      </trkpt>
      <trkpt lat="44.76908" lon="5.11646">
        <ele>409.2</ele>
        <time>1970-01-01T01:26:06.000Z</time>
      </trkpt>
      <trkpt lat="44.76909" lon="5.11645">
        <ele>409.4</ele>
        <time>1970-01-01T01:26:07.000Z</time>
      </trkpt>
      <trkpt lat="44.76911" lon="5.11644">
        <ele>409.8</ele>
        <time>1970-01-01T01:26:08.000Z</time>
      </trkpt>
      <trkpt lat="44.76912" lon="5.11643">
        <ele>410.2</ele>
        <time>1970-01-01T01:26:09.000Z</time>
      </trkpt>
      <trkpt lat="44.76914" lon="5.11641">
        <ele>410.4</ele>
        <time>1970-01-01T01:26:10.000Z</time>
      </trkpt>
      <trkpt lat="44.76916" lon="5.1164">
        <ele>410.8</ele>
        <time>1970-01-01T01:26:11.000Z</time>
      </trkpt>
      <trkpt lat="44.76918" lon="5.11638">
        <ele>411.2</ele>
        <time>1970-01-01T01:26:12.000Z</time>
      </trkpt>
      <trkpt lat="44.7692" lon="5.11637">
        <ele>411.4</ele>
        <time>1970-01-01T01:26:13.000Z</time>
      </trkpt>
      <trkpt lat="44.76922" lon="5.11636">
        <ele>411.6</ele>
        <time>1970-01-01T01:26:14.000Z</time>
      </trkpt>
      <trkpt lat="44.76924" lon="5.11634">
        <ele>412</ele>
        <time>1970-01-01T01:26:15.000Z</time>
      </trkpt>
      <trkpt lat="44.76926" lon="5.11633">
        <ele>412.4</ele>
        <time>1970-01-01T01:26:16.000Z</time>
      </trkpt>
      <trkpt lat="44.76927" lon="5.11631">
        <ele>412.6</ele>
        <time>1970-01-01T01:26:17.000Z</time>
      </trkpt>
      <trkpt lat="44.76929" lon="5.1163">
        <ele>412.8</ele>
        <time>1970-01-01T01:26:18.000Z</time>
      </trkpt>
      <trkpt lat="44.7693" lon="5.11628">
        <ele>412.8</ele>
        <time>1970-01-01T01:26:19.000Z</time>
      </trkpt>
      <trkpt lat="44.76932" lon="5.11627">
        <ele>413</ele>
        <time>1970-01-01T01:26:20.000Z</time>
      </trkpt>
      <trkpt lat="44.76933" lon="5.11626">
        <ele>413.6</ele>
        <time>1970-01-01T01:26:21.000Z</time>
      </trkpt>
      <trkpt lat="44.76935" lon="5.11625">
        <ele>413.8</ele>
        <time>1970-01-01T01:26:22.000Z</time>
      </trkpt>
      <trkpt lat="44.76937" lon="5.11624">
        <ele>414.4</ele>
        <time>1970-01-01T01:26:23.000Z</time>
      </trkpt>
      <trkpt lat="44.76938" lon="5.11623">
        <ele>414.8</ele>
        <time>1970-01-01T01:26:24.000Z</time>
      </trkpt>
      <trkpt lat="44.7694" lon="5.11621">
        <ele>415</ele>
        <time>1970-01-01T01:26:25.000Z</time>
      </trkpt>
      <trkpt lat="44.76941" lon="5.11619">
        <ele>415.6</ele>
        <time>1970-01-01T01:26:26.000Z</time>
      </trkpt>
      <trkpt lat="44.76943" lon="5.11617">
        <ele>416</ele>
        <time>1970-01-01T01:26:27.000Z</time>
      </trkpt>
      <trkpt lat="44.76945" lon="5.11615">
        <ele>416.2</ele>
        <time>1970-01-01T01:26:28.000Z</time>
      </trkpt>
      <trkpt lat="44.76946" lon="5.11613">
        <ele>416.8</ele>
        <time>1970-01-01T01:26:29.000Z</time>
      </trkpt>
      <trkpt lat="44.76947" lon="5.11612">
        <ele>417.2</ele>
        <time>1970-01-01T01:26:30.000Z</time>
      </trkpt>
      <trkpt lat="44.76949" lon="5.1161">
        <ele>417.8</ele>
        <time>1970-01-01T01:26:31.000Z</time>
      </trkpt>
      <trkpt lat="44.7695" lon="5.11608">
        <ele>418</ele>
        <time>1970-01-01T01:26:32.000Z</time>
      </trkpt>
      <trkpt lat="44.76951" lon="5.11606">
        <ele>418.6</ele>
        <time>1970-01-01T01:26:33.000Z</time>
      </trkpt>
      <trkpt lat="44.76953" lon="5.11604">
        <ele>418.8</ele>
        <time>1970-01-01T01:26:34.000Z</time>
      </trkpt>
      <trkpt lat="44.76954" lon="5.11603">
        <ele>419.4</ele>
        <time>1970-01-01T01:26:35.000Z</time>
      </trkpt>
      <trkpt lat="44.76955" lon="5.11601">
        <ele>419.8</ele>
        <time>1970-01-01T01:26:36.000Z</time>
      </trkpt>
      <trkpt lat="44.76957" lon="5.11599">
        <ele>420</ele>
        <time>1970-01-01T01:26:37.000Z</time>
      </trkpt>
      <trkpt lat="44.76958" lon="5.11598">
        <ele>420.6</ele>
        <time>1970-01-01T01:26:38.000Z</time>
      </trkpt>
      <trkpt lat="44.7696" lon="5.11596">
        <ele>421</ele>
        <time>1970-01-01T01:26:39.000Z</time>
      </trkpt>
      <trkpt lat="44.76961" lon="5.11595">
        <ele>421.2</ele>
        <time>1970-01-01T01:26:40.000Z</time>
      </trkpt>
      <trkpt lat="44.76962" lon="5.11594">
        <ele>421.6</ele>
        <time>1970-01-01T01:26:41.000Z</time>
      </trkpt>
      <trkpt lat="44.76963" lon="5.11592">
        <ele>421.8</ele>
        <time>1970-01-01T01:26:42.000Z</time>
      </trkpt>
      <trkpt lat="44.76965" lon="5.11591">
        <ele>422.2</ele>
        <time>1970-01-01T01:26:43.000Z</time>
      </trkpt>
      <trkpt lat="44.76966" lon="5.11589">
        <ele>422.6</ele>
        <time>1970-01-01T01:26:44.000Z</time>
      </trkpt>
      <trkpt lat="44.76967" lon="5.11587">
        <ele>422.8</ele>
        <time>1970-01-01T01:26:45.000Z</time>
      </trkpt>
      <trkpt lat="44.76968" lon="5.11585">
        <ele>423</ele>
        <time>1970-01-01T01:26:46.000Z</time>
      </trkpt>
      <trkpt lat="44.7697" lon="5.11582">
        <ele>423.2</ele>
        <time>1970-01-01T01:26:47.000Z</time>
      </trkpt>
      <trkpt lat="44.76972" lon="5.1158">
        <ele>423.4</ele>
        <time>1970-01-01T01:26:48.000Z</time>
      </trkpt>
      <trkpt lat="44.76973" lon="5.11578">
        <ele>423.8</ele>
        <time>1970-01-01T01:26:49.000Z</time>
      </trkpt>
      <trkpt lat="44.76974" lon="5.11574">
        <ele>424.2</ele>
        <time>1970-01-01T01:26:50.000Z</time>
      </trkpt>
      <trkpt lat="44.76974" lon="5.11571">
        <ele>424.4</ele>
        <time>1970-01-01T01:26:51.000Z</time>
      </trkpt>
      <trkpt lat="44.76974" lon="5.11566">
        <ele>424.4</ele>
        <time>1970-01-01T01:26:52.000Z</time>
      </trkpt>
      <trkpt lat="44.76974" lon="5.11563">
        <ele>424.6</ele>
        <time>1970-01-01T01:26:53.000Z</time>
      </trkpt>
      <trkpt lat="44.76973" lon="5.1156">
        <ele>424.6</ele>
        <time>1970-01-01T01:26:54.000Z</time>
      </trkpt>
      <trkpt lat="44.76972" lon="5.11556">
        <ele>424.4</ele>
        <time>1970-01-01T01:26:55.000Z</time>
      </trkpt>
      <trkpt lat="44.7697" lon="5.11552">
        <ele>424.4</ele>
        <time>1970-01-01T01:26:56.000Z</time>
      </trkpt>
      <trkpt lat="44.76968" lon="5.11548">
        <ele>424.4</ele>
        <time>1970-01-01T01:26:57.000Z</time>
      </trkpt>
      <trkpt lat="44.76967" lon="5.11544">
        <ele>424.4</ele>
        <time>1970-01-01T01:26:58.000Z</time>
      </trkpt>
      <trkpt lat="44.76965" lon="5.11542">
        <ele>424.2</ele>
        <time>1970-01-01T01:26:59.000Z</time>
      </trkpt>
      <trkpt lat="44.76963" lon="5.11539">
        <ele>424.2</ele>
        <time>1970-01-01T01:27:00.000Z</time>
      </trkpt>
      <trkpt lat="44.76961" lon="5.11536">
        <ele>424.4</ele>
        <time>1970-01-01T01:27:01.000Z</time>
      </trkpt>
      <trkpt lat="44.76959" lon="5.11534">
        <ele>424.6</ele>
        <time>1970-01-01T01:27:02.000Z</time>
      </trkpt>
      <trkpt lat="44.76957" lon="5.11531">
        <ele>424.8</ele>
        <time>1970-01-01T01:27:03.000Z</time>
      </trkpt>
      <trkpt lat="44.76956" lon="5.11529">
        <ele>425.2</ele>
        <time>1970-01-01T01:27:04.000Z</time>
      </trkpt>
      <trkpt lat="44.76954" lon="5.11527">
        <ele>425.4</ele>
        <time>1970-01-01T01:27:05.000Z</time>
      </trkpt>
      <trkpt lat="44.76952" lon="5.11525">
        <ele>425.6</ele>
        <time>1970-01-01T01:27:06.000Z</time>
      </trkpt>
      <trkpt lat="44.7695" lon="5.11523">
        <ele>425.8</ele>
        <time>1970-01-01T01:27:07.000Z</time>
      </trkpt>
      <trkpt lat="44.76949" lon="5.11521">
        <ele>426.2</ele>
        <time>1970-01-01T01:27:08.000Z</time>
      </trkpt>
      <trkpt lat="44.76947" lon="5.11518">
        <ele>426.8</ele>
        <time>1970-01-01T01:27:09.000Z</time>
      </trkpt>
      <trkpt lat="44.76946" lon="5.11516">
        <ele>427.2</ele>
        <time>1970-01-01T01:27:10.000Z</time>
      </trkpt>
      <trkpt lat="44.76946" lon="5.11514">
        <ele>427.8</ele>
        <time>1970-01-01T01:27:11.000Z</time>
      </trkpt>
      <trkpt lat="44.76946" lon="5.11511">
        <ele>428.2</ele>
        <time>1970-01-01T01:27:12.000Z</time>
      </trkpt>
      <trkpt lat="44.76946" lon="5.11508">
        <ele>428.6</ele>
        <time>1970-01-01T01:27:13.000Z</time>
      </trkpt>
      <trkpt lat="44.76947" lon="5.11505">
        <ele>428.8</ele>
        <time>1970-01-01T01:27:14.000Z</time>
      </trkpt>
      <trkpt lat="44.76948" lon="5.11503">
        <ele>429.2</ele>
        <time>1970-01-01T01:27:15.000Z</time>
      </trkpt>
      <trkpt lat="44.76949" lon="5.11501">
        <ele>429.6</ele>
        <time>1970-01-01T01:27:16.000Z</time>
      </trkpt>
      <trkpt lat="44.76951" lon="5.11498">
        <ele>429.8</ele>
        <time>1970-01-01T01:27:17.000Z</time>
      </trkpt>
      <trkpt lat="44.76952" lon="5.11496">
        <ele>430.2</ele>
        <time>1970-01-01T01:27:18.000Z</time>
      </trkpt>
      <trkpt lat="44.76953" lon="5.11493">
        <ele>430.6</ele>
        <time>1970-01-01T01:27:19.000Z</time>
      </trkpt>
      <trkpt lat="44.76954" lon="5.11492">
        <ele>431</ele>
        <time>1970-01-01T01:27:20.000Z</time>
      </trkpt>
      <trkpt lat="44.76955" lon="5.1149">
        <ele>431.2</ele>
        <time>1970-01-01T01:27:21.000Z</time>
      </trkpt>
      <trkpt lat="44.76957" lon="5.11487">
        <ele>431.6</ele>
        <time>1970-01-01T01:27:22.000Z</time>
      </trkpt>
      <trkpt lat="44.76958" lon="5.11485">
        <ele>432</ele>
        <time>1970-01-01T01:27:23.000Z</time>
      </trkpt>
      <trkpt lat="44.76959" lon="5.11483">
        <ele>432.4</ele>
        <time>1970-01-01T01:27:24.000Z</time>
      </trkpt>
      <trkpt lat="44.7696" lon="5.1148">
        <ele>432.6</ele>
        <time>1970-01-01T01:27:25.000Z</time>
      </trkpt>
      <trkpt lat="44.76962" lon="5.11478">
        <ele>432.8</ele>
        <time>1970-01-01T01:27:26.000Z</time>
      </trkpt>
      <trkpt lat="44.76964" lon="5.11475">
        <ele>433.2</ele>
        <time>1970-01-01T01:27:27.000Z</time>
      </trkpt>
      <trkpt lat="44.76965" lon="5.11473">
        <ele>433.4</ele>
        <time>1970-01-01T01:27:28.000Z</time>
      </trkpt>
      <trkpt lat="44.76967" lon="5.1147">
        <ele>434</ele>
        <time>1970-01-01T01:27:29.000Z</time>
      </trkpt>
      <trkpt lat="44.76968" lon="5.11468">
        <ele>434.4</ele>
        <time>1970-01-01T01:27:30.000Z</time>
      </trkpt>
      <trkpt lat="44.7697" lon="5.11465">
        <ele>434.8</ele>
        <time>1970-01-01T01:27:31.000Z</time>
      </trkpt>
      <trkpt lat="44.76971" lon="5.11462">
        <ele>435.4</ele>
        <time>1970-01-01T01:27:32.000Z</time>
      </trkpt>
      <trkpt lat="44.76973" lon="5.11459">
        <ele>436</ele>
        <time>1970-01-01T01:27:33.000Z</time>
      </trkpt>
      <trkpt lat="44.76974" lon="5.11457">
        <ele>436.2</ele>
        <time>1970-01-01T01:27:34.000Z</time>
      </trkpt>
      <trkpt lat="44.76976" lon="5.11454">
        <ele>436.6</ele>
        <time>1970-01-01T01:27:35.000Z</time>
      </trkpt>
      <trkpt lat="44.76978" lon="5.11452">
        <ele>437</ele>
        <time>1970-01-01T01:27:36.000Z</time>
      </trkpt>
      <trkpt lat="44.76979" lon="5.11449">
        <ele>437.2</ele>
        <time>1970-01-01T01:27:37.000Z</time>
      </trkpt>
      <trkpt lat="44.7698" lon="5.11447">
        <ele>437.4</ele>
        <time>1970-01-01T01:27:38.000Z</time>
      </trkpt>
      <trkpt lat="44.76982" lon="5.11445">
        <ele>438</ele>
        <time>1970-01-01T01:27:39.000Z</time>
      </trkpt>
      <trkpt lat="44.76983" lon="5.11442">
        <ele>438.4</ele>
        <time>1970-01-01T01:27:40.000Z</time>
      </trkpt>
      <trkpt lat="44.76984" lon="5.1144">
        <ele>438.8</ele>
        <time>1970-01-01T01:27:41.000Z</time>
      </trkpt>
      <trkpt lat="44.76986" lon="5.11438">
        <ele>439</ele>
        <time>1970-01-01T01:27:42.000Z</time>
      </trkpt>
      <trkpt lat="44.76987" lon="5.11436">
        <ele>439</ele>
        <time>1970-01-01T01:27:43.000Z</time>
      </trkpt>
      <trkpt lat="44.76989" lon="5.11433">
        <ele>439.4</ele>
        <time>1970-01-01T01:27:44.000Z</time>
      </trkpt>
      <trkpt lat="44.76991" lon="5.11431">
        <ele>440</ele>
        <time>1970-01-01T01:27:45.000Z</time>
      </trkpt>
      <trkpt lat="44.76992" lon="5.11429">
        <ele>440.2</ele>
        <time>1970-01-01T01:27:46.000Z</time>
      </trkpt>
      <trkpt lat="44.76993" lon="5.11426">
        <ele>440.4</ele>
        <time>1970-01-01T01:27:47.000Z</time>
      </trkpt>
      <trkpt lat="44.76995" lon="5.11424">
        <ele>440.6</ele>
        <time>1970-01-01T01:27:48.000Z</time>
      </trkpt>
      <trkpt lat="44.76997" lon="5.11422">
        <ele>441</ele>
        <time>1970-01-01T01:27:49.000Z</time>
      </trkpt>
      <trkpt lat="44.76998" lon="5.1142">
        <ele>441.4</ele>
        <time>1970-01-01T01:27:50.000Z</time>
      </trkpt>
      <trkpt lat="44.76999" lon="5.11418">
        <ele>441.6</ele>
        <time>1970-01-01T01:27:51.000Z</time>
      </trkpt>
      <trkpt lat="44.77001" lon="5.11415">
        <ele>442</ele>
        <time>1970-01-01T01:27:52.000Z</time>
      </trkpt>
      <trkpt lat="44.77002" lon="5.11413">
        <ele>442.2</ele>
        <time>1970-01-01T01:27:53.000Z</time>
      </trkpt>
      <trkpt lat="44.77004" lon="5.1141">
        <ele>442.6</ele>
        <time>1970-01-01T01:27:54.000Z</time>
      </trkpt>
      <trkpt lat="44.77005" lon="5.11408">
        <ele>443.2</ele>
        <time>1970-01-01T01:27:55.000Z</time>
      </trkpt>
      <trkpt lat="44.77006" lon="5.11406">
        <ele>443.4</ele>
        <time>1970-01-01T01:27:56.000Z</time>
      </trkpt>
      <trkpt lat="44.77008" lon="5.11403">
        <ele>443.6</ele>
        <time>1970-01-01T01:27:57.000Z</time>
      </trkpt>
      <trkpt lat="44.77009" lon="5.11401">
        <ele>444</ele>
        <time>1970-01-01T01:27:58.000Z</time>
      </trkpt>
      <trkpt lat="44.77011" lon="5.11398">
        <ele>444.4</ele>
        <time>1970-01-01T01:27:59.000Z</time>
      </trkpt>
      <trkpt lat="44.77012" lon="5.11396">
        <ele>444.8</ele>
        <time>1970-01-01T01:28:00.000Z</time>
      </trkpt>
      <trkpt lat="44.77014" lon="5.11394">
        <ele>445</ele>
        <time>1970-01-01T01:28:01.000Z</time>
      </trkpt>
      <trkpt lat="44.77016" lon="5.11391">
        <ele>445.6</ele>
        <time>1970-01-01T01:28:02.000Z</time>
      </trkpt>
      <trkpt lat="44.77017" lon="5.11388">
        <ele>446</ele>
        <time>1970-01-01T01:28:03.000Z</time>
      </trkpt>
      <trkpt lat="44.77018" lon="5.11385">
        <ele>446.2</ele>
        <time>1970-01-01T01:28:04.000Z</time>
      </trkpt>
      <trkpt lat="44.7702" lon="5.11382">
        <ele>446.6</ele>
        <time>1970-01-01T01:28:05.000Z</time>
      </trkpt>
      <trkpt lat="44.77021" lon="5.11381">
        <ele>447</ele>
        <time>1970-01-01T01:28:06.000Z</time>
      </trkpt>
      <trkpt lat="44.77023" lon="5.11378">
        <ele>447.4</ele>
        <time>1970-01-01T01:28:07.000Z</time>
      </trkpt>
      <trkpt lat="44.77025" lon="5.11375">
        <ele>447.6</ele>
        <time>1970-01-01T01:28:08.000Z</time>
      </trkpt>
      <trkpt lat="44.77027" lon="5.11373">
        <ele>448</ele>
        <time>1970-01-01T01:28:09.000Z</time>
      </trkpt>
      <trkpt lat="44.77029" lon="5.11371">
        <ele>448.4</ele>
        <time>1970-01-01T01:28:10.000Z</time>
      </trkpt>
      <trkpt lat="44.7703" lon="5.11369">
        <ele>448.8</ele>
        <time>1970-01-01T01:28:11.000Z</time>
      </trkpt>
      <trkpt lat="44.77033" lon="5.11368">
        <ele>449.2</ele>
        <time>1970-01-01T01:28:12.000Z</time>
      </trkpt>
      <trkpt lat="44.77035" lon="5.11366">
        <ele>449.6</ele>
        <time>1970-01-01T01:28:13.000Z</time>
      </trkpt>
      <trkpt lat="44.77037" lon="5.11365">
        <ele>450</ele>
        <time>1970-01-01T01:28:14.000Z</time>
      </trkpt>
      <trkpt lat="44.77038" lon="5.11364">
        <ele>450.4</ele>
        <time>1970-01-01T01:28:15.000Z</time>
      </trkpt>
      <trkpt lat="44.7704" lon="5.11363">
        <ele>450.6</ele>
        <time>1970-01-01T01:28:16.000Z</time>
      </trkpt>
      <trkpt lat="44.77042" lon="5.11363">
        <ele>451.2</ele>
        <time>1970-01-01T01:28:17.000Z</time>
      </trkpt>
      <trkpt lat="44.77044" lon="5.11361">
        <ele>451.4</ele>
        <time>1970-01-01T01:28:18.000Z</time>
      </trkpt>
      <trkpt lat="44.77046" lon="5.1136">
        <ele>451.6</ele>
        <time>1970-01-01T01:28:19.000Z</time>
      </trkpt>
      <trkpt lat="44.77048" lon="5.11358">
        <ele>452</ele>
        <time>1970-01-01T01:28:20.000Z</time>
      </trkpt>
      <trkpt lat="44.7705" lon="5.11357">
        <ele>452.4</ele>
        <time>1970-01-01T01:28:21.000Z</time>
      </trkpt>
      <trkpt lat="44.77051" lon="5.11355">
        <ele>452.6</ele>
        <time>1970-01-01T01:28:22.000Z</time>
      </trkpt>
      <trkpt lat="44.77053" lon="5.11352">
        <ele>453</ele>
        <time>1970-01-01T01:28:23.000Z</time>
      </trkpt>
      <trkpt lat="44.77054" lon="5.11349">
        <ele>453.4</ele>
        <time>1970-01-01T01:28:24.000Z</time>
      </trkpt>
      <trkpt lat="44.77056" lon="5.11346">
        <ele>453.6</ele>
        <time>1970-01-01T01:28:25.000Z</time>
      </trkpt>
      <trkpt lat="44.77057" lon="5.11344">
        <ele>453.8</ele>
        <time>1970-01-01T01:28:26.000Z</time>
      </trkpt>
      <trkpt lat="44.77059" lon="5.11341">
        <ele>454</ele>
        <time>1970-01-01T01:28:27.000Z</time>
      </trkpt>
      <trkpt lat="44.77059" lon="5.11338">
        <ele>454.6</ele>
        <time>1970-01-01T01:28:28.000Z</time>
      </trkpt>
      <trkpt lat="44.77061" lon="5.11336">
        <ele>455</ele>
        <time>1970-01-01T01:28:29.000Z</time>
      </trkpt>
      <trkpt lat="44.77062" lon="5.11334">
        <ele>455.4</ele>
        <time>1970-01-01T01:28:30.000Z</time>
      </trkpt>
      <trkpt lat="44.77063" lon="5.11332">
        <ele>455.8</ele>
        <time>1970-01-01T01:28:31.000Z</time>
      </trkpt>
      <trkpt lat="44.77064" lon="5.11329">
        <ele>456</ele>
        <time>1970-01-01T01:28:32.000Z</time>
      </trkpt>
      <trkpt lat="44.77065" lon="5.11325">
        <ele>456.2</ele>
        <time>1970-01-01T01:28:33.000Z</time>
      </trkpt>
      <trkpt lat="44.77066" lon="5.11321">
        <ele>456.8</ele>
        <time>1970-01-01T01:28:34.000Z</time>
      </trkpt>
      <trkpt lat="44.77067" lon="5.11317">
        <ele>457.2</ele>
        <time>1970-01-01T01:28:35.000Z</time>
      </trkpt>
      <trkpt lat="44.77067" lon="5.11313">
        <ele>457.4</ele>
        <time>1970-01-01T01:28:36.000Z</time>
      </trkpt>
      <trkpt lat="44.77068" lon="5.11309">
        <ele>457.4</ele>
        <time>1970-01-01T01:28:37.000Z</time>
      </trkpt>
      <trkpt lat="44.77069" lon="5.11304">
        <ele>457.8</ele>
        <time>1970-01-01T01:28:38.000Z</time>
      </trkpt>
      <trkpt lat="44.77069" lon="5.113">
        <ele>458</ele>
        <time>1970-01-01T01:28:39.000Z</time>
      </trkpt>
      <trkpt lat="44.7707" lon="5.11296">
        <ele>458.4</ele>
        <time>1970-01-01T01:28:40.000Z</time>
      </trkpt>
      <trkpt lat="44.77071" lon="5.11292">
        <ele>459</ele>
        <time>1970-01-01T01:28:41.000Z</time>
      </trkpt>
      <trkpt lat="44.77071" lon="5.11289">
        <ele>459.2</ele>
        <time>1970-01-01T01:28:42.000Z</time>
      </trkpt>
      <trkpt lat="44.77071" lon="5.11284">
        <ele>459.6</ele>
        <time>1970-01-01T01:28:43.000Z</time>
      </trkpt>
      <trkpt lat="44.77072" lon="5.1128">
        <ele>459.8</ele>
        <time>1970-01-01T01:28:44.000Z</time>
      </trkpt>
      <trkpt lat="44.77072" lon="5.11277">
        <ele>460.2</ele>
        <time>1970-01-01T01:28:45.000Z</time>
      </trkpt>
      <trkpt lat="44.77073" lon="5.11273">
        <ele>460.6</ele>
        <time>1970-01-01T01:28:46.000Z</time>
      </trkpt>
      <trkpt lat="44.77073" lon="5.11269">
        <ele>461.2</ele>
        <time>1970-01-01T01:28:47.000Z</time>
      </trkpt>
      <trkpt lat="44.77074" lon="5.11265">
        <ele>461.6</ele>
        <time>1970-01-01T01:28:48.000Z</time>
      </trkpt>
      <trkpt lat="44.77075" lon="5.11261">
        <ele>462.4</ele>
        <time>1970-01-01T01:28:49.000Z</time>
      </trkpt>
      <trkpt lat="44.77076" lon="5.11258">
        <ele>462.6</ele>
        <time>1970-01-01T01:28:50.000Z</time>
      </trkpt>
      <trkpt lat="44.77076" lon="5.11254">
        <ele>463</ele>
        <time>1970-01-01T01:28:51.000Z</time>
      </trkpt>
      <trkpt lat="44.77076" lon="5.1125">
        <ele>463.2</ele>
        <time>1970-01-01T01:28:52.000Z</time>
      </trkpt>
      <trkpt lat="44.77076" lon="5.11246">
        <ele>463.4</ele>
        <time>1970-01-01T01:28:53.000Z</time>
      </trkpt>
      <trkpt lat="44.77076" lon="5.11242">
        <ele>463.8</ele>
        <time>1970-01-01T01:28:54.000Z</time>
      </trkpt>
      <trkpt lat="44.77075" lon="5.11239">
        <ele>464</ele>
        <time>1970-01-01T01:28:55.000Z</time>
      </trkpt>
      <trkpt lat="44.77074" lon="5.11235">
        <ele>464.6</ele>
        <time>1970-01-01T01:28:56.000Z</time>
      </trkpt>
      <trkpt lat="44.77074" lon="5.11232">
        <ele>465</ele>
        <time>1970-01-01T01:28:57.000Z</time>
      </trkpt>
      <trkpt lat="44.77073" lon="5.11228">
        <ele>465.4</ele>
        <time>1970-01-01T01:28:58.000Z</time>
      </trkpt>
      <trkpt lat="44.77072" lon="5.11225">
        <ele>466</ele>
        <time>1970-01-01T01:28:59.000Z</time>
      </trkpt>
      <trkpt lat="44.77071" lon="5.11221">
        <ele>466.4</ele>
        <time>1970-01-01T01:29:00.000Z</time>
      </trkpt>
      <trkpt lat="44.7707" lon="5.11219">
        <ele>467</ele>
        <time>1970-01-01T01:29:01.000Z</time>
      </trkpt>
      <trkpt lat="44.77069" lon="5.11215">
        <ele>467.4</ele>
        <time>1970-01-01T01:29:02.000Z</time>
      </trkpt>
      <trkpt lat="44.77068" lon="5.11211">
        <ele>468.2</ele>
        <time>1970-01-01T01:29:03.000Z</time>
      </trkpt>
      <trkpt lat="44.77067" lon="5.11208">
        <ele>468.6</ele>
        <time>1970-01-01T01:29:04.000Z</time>
      </trkpt>
      <trkpt lat="44.77065" lon="5.11205">
        <ele>469.4</ele>
        <time>1970-01-01T01:29:05.000Z</time>
      </trkpt>
      <trkpt lat="44.77064" lon="5.11203">
        <ele>470</ele>
        <time>1970-01-01T01:29:06.000Z</time>
      </trkpt>
      <trkpt lat="44.77062" lon="5.112">
        <ele>470.4</ele>
        <time>1970-01-01T01:29:07.000Z</time>
      </trkpt>
      <trkpt lat="44.7706" lon="5.11197">
        <ele>470.8</ele>
        <time>1970-01-01T01:29:08.000Z</time>
      </trkpt>
      <trkpt lat="44.77058" lon="5.11194">
        <ele>471.6</ele>
        <time>1970-01-01T01:29:09.000Z</time>
      </trkpt>
      <trkpt lat="44.77056" lon="5.11192">
        <ele>472.4</ele>
        <time>1970-01-01T01:29:10.000Z</time>
      </trkpt>
      <trkpt lat="44.77055" lon="5.11189">
        <ele>473.4</ele>
        <time>1970-01-01T01:29:11.000Z</time>
      </trkpt>
      <trkpt lat="44.77054" lon="5.11186">
        <ele>473.8</ele>
        <time>1970-01-01T01:29:12.000Z</time>
      </trkpt>
      <trkpt lat="44.77051" lon="5.11183">
        <ele>474.4</ele>
        <time>1970-01-01T01:29:13.000Z</time>
      </trkpt>
      <trkpt lat="44.7705" lon="5.11181">
        <ele>474.6</ele>
        <time>1970-01-01T01:29:14.000Z</time>
      </trkpt>
      <trkpt lat="44.77047" lon="5.11177">
        <ele>475</ele>
        <time>1970-01-01T01:29:15.000Z</time>
      </trkpt>
      <trkpt lat="44.77046" lon="5.11175">
        <ele>476</ele>
        <time>1970-01-01T01:29:16.000Z</time>
      </trkpt>
      <trkpt lat="44.77044" lon="5.11172">
        <ele>476.8</ele>
        <time>1970-01-01T01:29:17.000Z</time>
      </trkpt>
      <trkpt lat="44.77042" lon="5.1117">
        <ele>477.2</ele>
        <time>1970-01-01T01:29:18.000Z</time>
      </trkpt>
      <trkpt lat="44.7704" lon="5.11166">
        <ele>477.6</ele>
        <time>1970-01-01T01:29:19.000Z</time>
      </trkpt>
      <trkpt lat="44.77039" lon="5.11163">
        <ele>478</ele>
        <time>1970-01-01T01:29:20.000Z</time>
      </trkpt>
      <trkpt lat="44.77037" lon="5.1116">
        <ele>478.4</ele>
        <time>1970-01-01T01:29:21.000Z</time>
      </trkpt>
      <trkpt lat="44.77036" lon="5.11157">
        <ele>478.6</ele>
        <time>1970-01-01T01:29:22.000Z</time>
      </trkpt>
      <trkpt lat="44.77035" lon="5.11153">
        <ele>478.8</ele>
        <time>1970-01-01T01:29:23.000Z</time>
      </trkpt>
      <trkpt lat="44.77034" lon="5.11149">
        <ele>479</ele>
        <time>1970-01-01T01:29:24.000Z</time>
      </trkpt>
      <trkpt lat="44.77034" lon="5.11146">
        <ele>479.4</ele>
        <time>1970-01-01T01:29:25.000Z</time>
      </trkpt>
      <trkpt lat="44.77033" lon="5.11143">
        <ele>479.8</ele>
        <time>1970-01-01T01:29:26.000Z</time>
      </trkpt>
      <trkpt lat="44.77033" lon="5.1114">
        <ele>480.6</ele>
        <time>1970-01-01T01:29:27.000Z</time>
      </trkpt>
      <trkpt lat="44.77033" lon="5.11137">
        <ele>481</ele>
        <time>1970-01-01T01:29:28.000Z</time>
      </trkpt>
      <trkpt lat="44.77033" lon="5.11133">
        <ele>481.4</ele>
        <time>1970-01-01T01:29:29.000Z</time>
      </trkpt>
      <trkpt lat="44.77033" lon="5.1113">
        <ele>481.8</ele>
        <time>1970-01-01T01:29:30.000Z</time>
      </trkpt>
      <trkpt lat="44.77033" lon="5.11127">
        <ele>482.4</ele>
        <time>1970-01-01T01:29:31.000Z</time>
      </trkpt>
      <trkpt lat="44.77033" lon="5.11123">
        <ele>482.8</ele>
        <time>1970-01-01T01:29:32.000Z</time>
      </trkpt>
      <trkpt lat="44.77033" lon="5.1112">
        <ele>483.4</ele>
        <time>1970-01-01T01:29:33.000Z</time>
      </trkpt>
      <trkpt lat="44.77034" lon="5.11117">
        <ele>483.6</ele>
        <time>1970-01-01T01:29:34.000Z</time>
      </trkpt>
      <trkpt lat="44.77034" lon="5.11114">
        <ele>484.2</ele>
        <time>1970-01-01T01:29:35.000Z</time>
      </trkpt>
      <trkpt lat="44.77034" lon="5.11111">
        <ele>484.6</ele>
        <time>1970-01-01T01:29:36.000Z</time>
      </trkpt>
      <trkpt lat="44.77034" lon="5.11108">
        <ele>485</ele>
        <time>1970-01-01T01:29:37.000Z</time>
      </trkpt>
      <trkpt lat="44.77034" lon="5.11105">
        <ele>485.6</ele>
        <time>1970-01-01T01:29:38.000Z</time>
      </trkpt>
      <trkpt lat="44.77034" lon="5.11101">
        <ele>486</ele>
        <time>1970-01-01T01:29:39.000Z</time>
      </trkpt>
      <trkpt lat="44.77035" lon="5.11098">
        <ele>486.6</ele>
        <time>1970-01-01T01:29:40.000Z</time>
      </trkpt>
      <trkpt lat="44.77035" lon="5.11095">
        <ele>487</ele>
        <time>1970-01-01T01:29:41.000Z</time>
      </trkpt>
      <trkpt lat="44.77035" lon="5.11092">
        <ele>487.6</ele>
        <time>1970-01-01T01:29:42.000Z</time>
      </trkpt>
      <trkpt lat="44.77036" lon="5.11089">
        <ele>488.2</ele>
        <time>1970-01-01T01:29:43.000Z</time>
      </trkpt>
      <trkpt lat="44.77036" lon="5.11086">
        <ele>488.4</ele>
        <time>1970-01-01T01:29:44.000Z</time>
      </trkpt>
      <trkpt lat="44.77037" lon="5.11084">
        <ele>489</ele>
        <time>1970-01-01T01:29:45.000Z</time>
      </trkpt>
      <trkpt lat="44.77038" lon="5.11081">
        <ele>489.6</ele>
        <time>1970-01-01T01:29:46.000Z</time>
      </trkpt>
      <trkpt lat="44.77039" lon="5.11079">
        <ele>489.8</ele>
        <time>1970-01-01T01:29:47.000Z</time>
      </trkpt>
      <trkpt lat="44.7704" lon="5.11076">
        <ele>490</ele>
        <time>1970-01-01T01:29:48.000Z</time>
      </trkpt>
      <trkpt lat="44.77042" lon="5.11075">
        <ele>490.4</ele>
        <time>1970-01-01T01:29:49.000Z</time>
      </trkpt>
      <trkpt lat="44.77043" lon="5.11074">
        <ele>490.6</ele>
        <time>1970-01-01T01:29:50.000Z</time>
      </trkpt>
      <trkpt lat="44.77044" lon="5.11073">
        <ele>490.8</ele>
        <time>1970-01-01T01:29:51.000Z</time>
      </trkpt>
      <trkpt lat="44.77044" lon="5.11073">
        <ele>491</ele>
        <time>1970-01-01T01:29:53.000Z</time>
      </trkpt>
      <trkpt lat="44.77048" lon="5.11068">
        <ele>491</ele>
        <time>1970-01-01T01:38:59.000Z</time>
      </trkpt>
      <trkpt lat="44.77052" lon="5.11067">
        <ele>491</ele>
        <time>1970-01-01T01:39:01.000Z</time>
      </trkpt>
      <trkpt lat="44.77054" lon="5.11066">
        <ele>491</ele>
        <time>1970-01-01T01:39:02.000Z</time>
      </trkpt>
      <trkpt lat="44.77062" lon="5.11061">
        <ele>491.2</ele>
        <time>1970-01-01T01:39:06.000Z</time>
      </trkpt>
      <trkpt lat="44.77064" lon="5.11059">
        <ele>491.6</ele>
        <time>1970-01-01T01:39:07.000Z</time>
      </trkpt>
      <trkpt lat="44.77071" lon="5.11054">
        <ele>492</ele>
        <time>1970-01-01T01:39:10.000Z</time>
      </trkpt>
      <trkpt lat="44.77073" lon="5.11052">
        <ele>492.2</ele>
        <time>1970-01-01T01:39:11.000Z</time>
      </trkpt>
      <trkpt lat="44.77075" lon="5.11051">
        <ele>492.4</ele>
        <time>1970-01-01T01:39:12.000Z</time>
      </trkpt>
      <trkpt lat="44.7708" lon="5.11051">
        <ele>492.6</ele>
        <time>1970-01-01T01:39:14.000Z</time>
      </trkpt>
      <trkpt lat="44.77082" lon="5.1105">
        <ele>493</ele>
        <time>1970-01-01T01:39:15.000Z</time>
      </trkpt>
      <trkpt lat="44.77087" lon="5.11051">
        <ele>493.4</ele>
        <time>1970-01-01T01:39:17.000Z</time>
      </trkpt>
      <trkpt lat="44.77095" lon="5.11052">
        <ele>494</ele>
        <time>1970-01-01T01:39:20.000Z</time>
      </trkpt>
      <trkpt lat="44.77098" lon="5.11052">
        <ele>494.2</ele>
        <time>1970-01-01T01:39:21.000Z</time>
      </trkpt>
      <trkpt lat="44.771" lon="5.11051">
        <ele>494.6</ele>
        <time>1970-01-01T01:39:22.000Z</time>
      </trkpt>
      <trkpt lat="44.77103" lon="5.1105">
        <ele>495</ele>
        <time>1970-01-01T01:39:23.000Z</time>
      </trkpt>
      <trkpt lat="44.77105" lon="5.11048">
        <ele>495.6</ele>
        <time>1970-01-01T01:39:24.000Z</time>
      </trkpt>
      <trkpt lat="44.77107" lon="5.11045">
        <ele>496.2</ele>
        <time>1970-01-01T01:39:25.000Z</time>
      </trkpt>
      <trkpt lat="44.77109" lon="5.11042">
        <ele>496.6</ele>
        <time>1970-01-01T01:39:26.000Z</time>
      </trkpt>
      <trkpt lat="44.77111" lon="5.11038">
        <ele>497.2</ele>
        <time>1970-01-01T01:39:27.000Z</time>
      </trkpt>
      <trkpt lat="44.77112" lon="5.11034">
        <ele>497.6</ele>
        <time>1970-01-01T01:39:28.000Z</time>
      </trkpt>
      <trkpt lat="44.77113" lon="5.1103">
        <ele>498</ele>
        <time>1970-01-01T01:39:29.000Z</time>
      </trkpt>
      <trkpt lat="44.77113" lon="5.11026">
        <ele>498.2</ele>
        <time>1970-01-01T01:39:30.000Z</time>
      </trkpt>
      <trkpt lat="44.77114" lon="5.11022">
        <ele>498.4</ele>
        <time>1970-01-01T01:39:31.000Z</time>
      </trkpt>
      <trkpt lat="44.77114" lon="5.11018">
        <ele>498.8</ele>
        <time>1970-01-01T01:39:32.000Z</time>
      </trkpt>
      <trkpt lat="44.77114" lon="5.11014">
        <ele>499</ele>
        <time>1970-01-01T01:39:33.000Z</time>
      </trkpt>
      <trkpt lat="44.77115" lon="5.1101">
        <ele>499.6</ele>
        <time>1970-01-01T01:39:34.000Z</time>
      </trkpt>
      <trkpt lat="44.77115" lon="5.11005">
        <ele>500</ele>
        <time>1970-01-01T01:39:35.000Z</time>
      </trkpt>
      <trkpt lat="44.77115" lon="5.11001">
        <ele>500.4</ele>
        <time>1970-01-01T01:39:36.000Z</time>
      </trkpt>
      <trkpt lat="44.77114" lon="5.10997">
        <ele>500.8</ele>
        <time>1970-01-01T01:39:37.000Z</time>
      </trkpt>
      <trkpt lat="44.77114" lon="5.10993">
        <ele>501.2</ele>
        <time>1970-01-01T01:39:38.000Z</time>
      </trkpt>
      <trkpt lat="44.77113" lon="5.10989">
        <ele>501.6</ele>
        <time>1970-01-01T01:39:39.000Z</time>
      </trkpt>
      <trkpt lat="44.77111" lon="5.10986">
        <ele>502.2</ele>
        <time>1970-01-01T01:39:40.000Z</time>
      </trkpt>
      <trkpt lat="44.77109" lon="5.10983">
        <ele>502.8</ele>
        <time>1970-01-01T01:39:41.000Z</time>
      </trkpt>
      <trkpt lat="44.77108" lon="5.1098">
        <ele>503.2</ele>
        <time>1970-01-01T01:39:42.000Z</time>
      </trkpt>
      <trkpt lat="44.77109" lon="5.10978">
        <ele>503.4</ele>
        <time>1970-01-01T01:39:43.000Z</time>
      </trkpt>
      <trkpt lat="44.77111" lon="5.10978">
        <ele>503.6</ele>
        <time>1970-01-01T01:39:44.000Z</time>
      </trkpt>
      <trkpt lat="44.77114" lon="5.10979">
        <ele>503.6</ele>
        <time>1970-01-01T01:39:45.000Z</time>
      </trkpt>
      <trkpt lat="44.77117" lon="5.10979">
        <ele>503.4</ele>
        <time>1970-01-01T01:39:46.000Z</time>
      </trkpt>
      <trkpt lat="44.77121" lon="5.10979">
        <ele>503.2</ele>
        <time>1970-01-01T01:39:47.000Z</time>
      </trkpt>
      <trkpt lat="44.77125" lon="5.10979">
        <ele>503</ele>
        <time>1970-01-01T01:39:48.000Z</time>
      </trkpt>
      <trkpt lat="44.77128" lon="5.10979">
        <ele>502.6</ele>
        <time>1970-01-01T01:39:49.000Z</time>
      </trkpt>
      <trkpt lat="44.77133" lon="5.10978">
        <ele>502.2</ele>
        <time>1970-01-01T01:39:50.000Z</time>
      </trkpt>
      <trkpt lat="44.77137" lon="5.10978">
        <ele>502</ele>
        <time>1970-01-01T01:39:51.000Z</time>
      </trkpt>
      <trkpt lat="44.77141" lon="5.10977">
        <ele>501.6</ele>
        <time>1970-01-01T01:39:52.000Z</time>
      </trkpt>
      <trkpt lat="44.77146" lon="5.10975">
        <ele>501.4</ele>
        <time>1970-01-01T01:39:53.000Z</time>
      </trkpt>
      <trkpt lat="44.77149" lon="5.10974">
        <ele>501.4</ele>
        <time>1970-01-01T01:39:54.000Z</time>
      </trkpt>
      <trkpt lat="44.77151" lon="5.10972">
        <ele>501.4</ele>
        <time>1970-01-01T01:39:55.000Z</time>
      </trkpt>
      <trkpt lat="44.77153" lon="5.10971">
        <ele>501.4</ele>
        <time>1970-01-01T01:39:56.000Z</time>
      </trkpt>
      <trkpt lat="44.77155" lon="5.10969">
        <ele>501.6</ele>
        <time>1970-01-01T01:39:57.000Z</time>
      </trkpt>
      <trkpt lat="44.77157" lon="5.10968">
        <ele>501.6</ele>
        <time>1970-01-01T01:39:58.000Z</time>
      </trkpt>
      <trkpt lat="44.77159" lon="5.10967">
        <ele>501.8</ele>
        <time>1970-01-01T01:39:59.000Z</time>
      </trkpt>
      <trkpt lat="44.77161" lon="5.10967">
        <ele>501.8</ele>
        <time>1970-01-01T01:40:00.000Z</time>
      </trkpt>
      <trkpt lat="44.77168" lon="5.10964">
        <ele>501.4</ele>
        <time>1970-01-01T01:40:03.000Z</time>
      </trkpt>
      <trkpt lat="44.77176" lon="5.10963">
        <ele>501.4</ele>
        <time>1970-01-01T01:40:06.000Z</time>
      </trkpt>
      <trkpt lat="44.77179" lon="5.10964">
        <ele>501.6</ele>
        <time>1970-01-01T01:40:07.000Z</time>
      </trkpt>
      <trkpt lat="44.77191" lon="5.10967">
        <ele>502</ele>
        <time>1970-01-01T01:40:11.000Z</time>
      </trkpt>
      <trkpt lat="44.77197" lon="5.10967">
        <ele>502</ele>
        <time>1970-01-01T01:40:13.000Z</time>
      </trkpt>
      <trkpt lat="44.77212" lon="5.10969">
        <ele>502</ele>
        <time>1970-01-01T01:40:18.000Z</time>
      </trkpt>
      <trkpt lat="44.77237" lon="5.10973">
        <ele>501.4</ele>
        <time>1970-01-01T01:40:24.000Z</time>
      </trkpt>
      <trkpt lat="44.77241" lon="5.10974">
        <ele>501.2</ele>
        <time>1970-01-01T01:40:25.000Z</time>
      </trkpt>
      <trkpt lat="44.77247" lon="5.10976">
        <ele>501.2</ele>
        <time>1970-01-01T01:40:26.000Z</time>
      </trkpt>
      <trkpt lat="44.77252" lon="5.10978">
        <ele>501.2</ele>
        <time>1970-01-01T01:40:27.000Z</time>
      </trkpt>
      <trkpt lat="44.77257" lon="5.1098">
        <ele>501</ele>
        <time>1970-01-01T01:40:28.000Z</time>
      </trkpt>
      <trkpt lat="44.77262" lon="5.10981">
        <ele>501</ele>
        <time>1970-01-01T01:40:29.000Z</time>
      </trkpt>
      <trkpt lat="44.77267" lon="5.10983">
        <ele>501</ele>
        <time>1970-01-01T01:40:30.000Z</time>
      </trkpt>
      <trkpt lat="44.77271" lon="5.10985">
        <ele>501.2</ele>
        <time>1970-01-01T01:40:31.000Z</time>
      </trkpt>
      <trkpt lat="44.77276" lon="5.10987">
        <ele>501.2</ele>
        <time>1970-01-01T01:40:32.000Z</time>
      </trkpt>
      <trkpt lat="44.7728" lon="5.10989">
        <ele>501.2</ele>
        <time>1970-01-01T01:40:33.000Z</time>
      </trkpt>
      <trkpt lat="44.77292" lon="5.10995">
        <ele>501.4</ele>
        <time>1970-01-01T01:40:36.000Z</time>
      </trkpt>
      <trkpt lat="44.77297" lon="5.10996">
        <ele>501.4</ele>
        <time>1970-01-01T01:40:37.000Z</time>
      </trkpt>
      <trkpt lat="44.77301" lon="5.10999">
        <ele>501.6</ele>
        <time>1970-01-01T01:40:38.000Z</time>
      </trkpt>
      <trkpt lat="44.77305" lon="5.11001">
        <ele>501.6</ele>
        <time>1970-01-01T01:40:39.000Z</time>
      </trkpt>
      <trkpt lat="44.77308" lon="5.11003">
        <ele>501.6</ele>
        <time>1970-01-01T01:40:40.000Z</time>
      </trkpt>
      <trkpt lat="44.77316" lon="5.11008">
        <ele>501.6</ele>
        <time>1970-01-01T01:40:42.000Z</time>
      </trkpt>
      <trkpt lat="44.7732" lon="5.11012">
        <ele>501.6</ele>
        <time>1970-01-01T01:40:43.000Z</time>
      </trkpt>
      <trkpt lat="44.77323" lon="5.11016">
        <ele>501.6</ele>
        <time>1970-01-01T01:40:44.000Z</time>
      </trkpt>
      <trkpt lat="44.77326" lon="5.11021">
        <ele>501.6</ele>
        <time>1970-01-01T01:40:45.000Z</time>
      </trkpt>
      <trkpt lat="44.77329" lon="5.11028">
        <ele>501.6</ele>
        <time>1970-01-01T01:40:46.000Z</time>
      </trkpt>
      <trkpt lat="44.77332" lon="5.11033">
        <ele>501.6</ele>
        <time>1970-01-01T01:40:47.000Z</time>
      </trkpt>
      <trkpt lat="44.77334" lon="5.11038">
        <ele>501.8</ele>
        <time>1970-01-01T01:40:48.000Z</time>
      </trkpt>
      <trkpt lat="44.77336" lon="5.11042">
        <ele>501.8</ele>
        <time>1970-01-01T01:40:49.000Z</time>
      </trkpt>
      <trkpt lat="44.77339" lon="5.11047">
        <ele>501.8</ele>
        <time>1970-01-01T01:40:50.000Z</time>
      </trkpt>
      <trkpt lat="44.77342" lon="5.11051">
        <ele>501.8</ele>
        <time>1970-01-01T01:40:51.000Z</time>
      </trkpt>
      <trkpt lat="44.77344" lon="5.11057">
        <ele>501.8</ele>
        <time>1970-01-01T01:40:52.000Z</time>
      </trkpt>
      <trkpt lat="44.7735" lon="5.11068">
        <ele>501.6</ele>
        <time>1970-01-01T01:40:54.000Z</time>
      </trkpt>
      <trkpt lat="44.77354" lon="5.11073">
        <ele>501.6</ele>
        <time>1970-01-01T01:40:55.000Z</time>
      </trkpt>
      <trkpt lat="44.77359" lon="5.11077">
        <ele>501.8</ele>
        <time>1970-01-01T01:40:56.000Z</time>
      </trkpt>
      <trkpt lat="44.77363" lon="5.1108">
        <ele>501.8</ele>
        <time>1970-01-01T01:40:57.000Z</time>
      </trkpt>
      <trkpt lat="44.77368" lon="5.11083">
        <ele>501.8</ele>
        <time>1970-01-01T01:40:58.000Z</time>
      </trkpt>
      <trkpt lat="44.77373" lon="5.11084">
        <ele>501.8</ele>
        <time>1970-01-01T01:40:59.000Z</time>
      </trkpt>
      <trkpt lat="44.77377" lon="5.11084">
        <ele>502</ele>
        <time>1970-01-01T01:41:00.000Z</time>
      </trkpt>
      <trkpt lat="44.77382" lon="5.11085">
        <ele>502</ele>
        <time>1970-01-01T01:41:01.000Z</time>
      </trkpt>
      <trkpt lat="44.77395" lon="5.11087">
        <ele>502.2</ele>
        <time>1970-01-01T01:41:04.000Z</time>
      </trkpt>
      <trkpt lat="44.77399" lon="5.11088">
        <ele>502.2</ele>
        <time>1970-01-01T01:41:05.000Z</time>
      </trkpt>
      <trkpt lat="44.77429" lon="5.11093">
        <ele>501.6</ele>
        <time>1970-01-01T01:41:11.000Z</time>
      </trkpt>
      <trkpt lat="44.77442" lon="5.11093">
        <ele>501</ele>
        <time>1970-01-01T01:41:14.000Z</time>
      </trkpt>
      <trkpt lat="44.77453" lon="5.11094">
        <ele>500</ele>
        <time>1970-01-01T01:41:16.000Z</time>
      </trkpt>
      <trkpt lat="44.77464" lon="5.11094">
        <ele>499.4</ele>
        <time>1970-01-01T01:41:18.000Z</time>
      </trkpt>
      <trkpt lat="44.7747" lon="5.11092">
        <ele>499</ele>
        <time>1970-01-01T01:41:19.000Z</time>
      </trkpt>
      <trkpt lat="44.77478" lon="5.1109">
        <ele>498.4</ele>
        <time>1970-01-01T01:41:20.000Z</time>
      </trkpt>
      <trkpt lat="44.77487" lon="5.11086">
        <ele>498.2</ele>
        <time>1970-01-01T01:41:21.000Z</time>
      </trkpt>
      <trkpt lat="44.77493" lon="5.11082">
        <ele>497.8</ele>
        <time>1970-01-01T01:41:22.000Z</time>
      </trkpt>
      <trkpt lat="44.77499" lon="5.11076">
        <ele>497.4</ele>
        <time>1970-01-01T01:41:23.000Z</time>
      </trkpt>
      <trkpt lat="44.77503" lon="5.11068">
        <ele>497.2</ele>
        <time>1970-01-01T01:41:24.000Z</time>
      </trkpt>
      <trkpt lat="44.77507" lon="5.11059">
        <ele>496.8</ele>
        <time>1970-01-01T01:41:25.000Z</time>
      </trkpt>
      <trkpt lat="44.77509" lon="5.11051">
        <ele>496.4</ele>
        <time>1970-01-01T01:41:26.000Z</time>
      </trkpt>
      <trkpt lat="44.77512" lon="5.11042">
        <ele>496</ele>
        <time>1970-01-01T01:41:27.000Z</time>
      </trkpt>
      <trkpt lat="44.77514" lon="5.11034">
        <ele>495.8</ele>
        <time>1970-01-01T01:41:28.000Z</time>
      </trkpt>
      <trkpt lat="44.77515" lon="5.11025">
        <ele>495.4</ele>
        <time>1970-01-01T01:41:29.000Z</time>
      </trkpt>
      <trkpt lat="44.77517" lon="5.11018">
        <ele>494.8</ele>
        <time>1970-01-01T01:41:30.000Z</time>
      </trkpt>
      <trkpt lat="44.77518" lon="5.11009">
        <ele>494.4</ele>
        <time>1970-01-01T01:41:31.000Z</time>
      </trkpt>
      <trkpt lat="44.77521" lon="5.11002">
        <ele>494</ele>
        <time>1970-01-01T01:41:32.000Z</time>
      </trkpt>
      <trkpt lat="44.77523" lon="5.10995">
        <ele>493.8</ele>
        <time>1970-01-01T01:41:33.000Z</time>
      </trkpt>
      <trkpt lat="44.77526" lon="5.10988">
        <ele>493.6</ele>
        <time>1970-01-01T01:41:34.000Z</time>
      </trkpt>
      <trkpt lat="44.77527" lon="5.10981">
        <ele>493.6</ele>
        <time>1970-01-01T01:41:35.000Z</time>
      </trkpt>
      <trkpt lat="44.77529" lon="5.10974">
        <ele>493.4</ele>
        <time>1970-01-01T01:41:36.000Z</time>
      </trkpt>
      <trkpt lat="44.77531" lon="5.10967">
        <ele>493.2</ele>
        <time>1970-01-01T01:41:37.000Z</time>
      </trkpt>
      <trkpt lat="44.77533" lon="5.10961">
        <ele>493</ele>
        <time>1970-01-01T01:41:38.000Z</time>
      </trkpt>
      <trkpt lat="44.77533" lon="5.10954">
        <ele>493</ele>
        <time>1970-01-01T01:41:39.000Z</time>
      </trkpt>
      <trkpt lat="44.77533" lon="5.10947">
        <ele>492.6</ele>
        <time>1970-01-01T01:41:40.000Z</time>
      </trkpt>
      <trkpt lat="44.77531" lon="5.10938">
        <ele>492.4</ele>
        <time>1970-01-01T01:41:41.000Z</time>
      </trkpt>
      <trkpt lat="44.77532" lon="5.10931">
        <ele>492.4</ele>
        <time>1970-01-01T01:41:42.000Z</time>
      </trkpt>
      <trkpt lat="44.77534" lon="5.10926">
        <ele>492.2</ele>
        <time>1970-01-01T01:41:43.000Z</time>
      </trkpt>
      <trkpt lat="44.77539" lon="5.10923">
        <ele>492.2</ele>
        <time>1970-01-01T01:41:44.000Z</time>
      </trkpt>
      <trkpt lat="44.77543" lon="5.10922">
        <ele>492</ele>
        <time>1970-01-01T01:41:45.000Z</time>
      </trkpt>
      <trkpt lat="44.77547" lon="5.10924">
        <ele>491.8</ele>
        <time>1970-01-01T01:41:46.000Z</time>
      </trkpt>
      <trkpt lat="44.77554" lon="5.10935">
        <ele>491.6</ele>
        <time>1970-01-01T01:41:48.000Z</time>
      </trkpt>
      <trkpt lat="44.77561" lon="5.10948">
        <ele>491.2</ele>
        <time>1970-01-01T01:41:50.000Z</time>
      </trkpt>
      <trkpt lat="44.77567" lon="5.10956">
        <ele>491</ele>
        <time>1970-01-01T01:41:52.000Z</time>
      </trkpt>
      <trkpt lat="44.77571" lon="5.10958">
        <ele>490.6</ele>
        <time>1970-01-01T01:41:53.000Z</time>
      </trkpt>
      <trkpt lat="44.77576" lon="5.10957">
        <ele>490.2</ele>
        <time>1970-01-01T01:41:54.000Z</time>
      </trkpt>
      <trkpt lat="44.77583" lon="5.10956">
        <ele>489.8</ele>
        <time>1970-01-01T01:41:55.000Z</time>
      </trkpt>
      <trkpt lat="44.7759" lon="5.10953">
        <ele>489.6</ele>
        <time>1970-01-01T01:41:56.000Z</time>
      </trkpt>
      <trkpt lat="44.77596" lon="5.1095">
        <ele>489</ele>
        <time>1970-01-01T01:41:57.000Z</time>
      </trkpt>
      <trkpt lat="44.77602" lon="5.10947">
        <ele>488.4</ele>
        <time>1970-01-01T01:41:58.000Z</time>
      </trkpt>
      <trkpt lat="44.77607" lon="5.10945">
        <ele>487.6</ele>
        <time>1970-01-01T01:41:59.000Z</time>
      </trkpt>
      <trkpt lat="44.77613" lon="5.10943">
        <ele>487.2</ele>
        <time>1970-01-01T01:42:00.000Z</time>
      </trkpt>
      <trkpt lat="44.77621" lon="5.10941">
        <ele>486.6</ele>
        <time>1970-01-01T01:42:01.000Z</time>
      </trkpt>
      <trkpt lat="44.77627" lon="5.10939">
        <ele>486.4</ele>
        <time>1970-01-01T01:42:02.000Z</time>
      </trkpt>
      <trkpt lat="44.77633" lon="5.10937">
        <ele>486</ele>
        <time>1970-01-01T01:42:03.000Z</time>
      </trkpt>
      <trkpt lat="44.77637" lon="5.10935">
        <ele>485.8</ele>
        <time>1970-01-01T01:42:04.000Z</time>
      </trkpt>
      <trkpt lat="44.77643" lon="5.10932">
        <ele>485.6</ele>
        <time>1970-01-01T01:42:05.000Z</time>
      </trkpt>
      <trkpt lat="44.7765" lon="5.10928">
        <ele>485.4</ele>
        <time>1970-01-01T01:42:06.000Z</time>
      </trkpt>
      <trkpt lat="44.77653" lon="5.10925">
        <ele>485.4</ele>
        <time>1970-01-01T01:42:07.000Z</time>
      </trkpt>
      <trkpt lat="44.77656" lon="5.10921">
        <ele>485.2</ele>
        <time>1970-01-01T01:42:08.000Z</time>
      </trkpt>
      <trkpt lat="44.77659" lon="5.10917">
        <ele>485.4</ele>
        <time>1970-01-01T01:42:09.000Z</time>
      </trkpt>
      <trkpt lat="44.77662" lon="5.10912">
        <ele>485.6</ele>
        <time>1970-01-01T01:42:10.000Z</time>
      </trkpt>
      <trkpt lat="44.77691" lon="5.10884">
        <ele>486</ele>
        <time>1970-01-01T01:42:15.000Z</time>
      </trkpt>
      <trkpt lat="44.77697" lon="5.1088">
        <ele>486</ele>
        <time>1970-01-01T01:42:16.000Z</time>
      </trkpt>
      <trkpt lat="44.77702" lon="5.10876">
        <ele>486</ele>
        <time>1970-01-01T01:42:17.000Z</time>
      </trkpt>
      <trkpt lat="44.77713" lon="5.10866">
        <ele>486</ele>
        <time>1970-01-01T01:42:19.000Z</time>
      </trkpt>
      <trkpt lat="44.77717" lon="5.10863">
        <ele>486</ele>
        <time>1970-01-01T01:42:20.000Z</time>
      </trkpt>
      <trkpt lat="44.77722" lon="5.10859">
        <ele>486.2</ele>
        <time>1970-01-01T01:42:21.000Z</time>
      </trkpt>
      <trkpt lat="44.77737" lon="5.10847">
        <ele>486.4</ele>
        <time>1970-01-01T01:42:24.000Z</time>
      </trkpt>
      <trkpt lat="44.77742" lon="5.10844">
        <ele>486.6</ele>
        <time>1970-01-01T01:42:25.000Z</time>
      </trkpt>
      <trkpt lat="44.77746" lon="5.10841">
        <ele>486.8</ele>
        <time>1970-01-01T01:42:26.000Z</time>
      </trkpt>
      <trkpt lat="44.77754" lon="5.10835">
        <ele>487</ele>
        <time>1970-01-01T01:42:28.000Z</time>
      </trkpt>
      <trkpt lat="44.7776" lon="5.10833">
        <ele>487.2</ele>
        <time>1970-01-01T01:42:29.000Z</time>
      </trkpt>
      <trkpt lat="44.77763" lon="5.10831">
        <ele>487.6</ele>
        <time>1970-01-01T01:42:30.000Z</time>
      </trkpt>
      <trkpt lat="44.77768" lon="5.10829">
        <ele>487.6</ele>
        <time>1970-01-01T01:42:31.000Z</time>
      </trkpt>
      <trkpt lat="44.77773" lon="5.10828">
        <ele>487.8</ele>
        <time>1970-01-01T01:42:32.000Z</time>
      </trkpt>
      <trkpt lat="44.77778" lon="5.10825">
        <ele>487.8</ele>
        <time>1970-01-01T01:42:33.000Z</time>
      </trkpt>
      <trkpt lat="44.7779" lon="5.10819">
        <ele>488</ele>
        <time>1970-01-01T01:42:36.000Z</time>
      </trkpt>
      <trkpt lat="44.77808" lon="5.1081">
        <ele>488.2</ele>
        <time>1970-01-01T01:42:40.000Z</time>
      </trkpt>
      <trkpt lat="44.7782" lon="5.10802">
        <ele>488.4</ele>
        <time>1970-01-01T01:42:43.000Z</time>
      </trkpt>
      <trkpt lat="44.77835" lon="5.10793">
        <ele>489</ele>
        <time>1970-01-01T01:42:46.000Z</time>
      </trkpt>
      <trkpt lat="44.77838" lon="5.10789">
        <ele>489</ele>
        <time>1970-01-01T01:42:47.000Z</time>
      </trkpt>
      <trkpt lat="44.77848" lon="5.10782">
        <ele>489.8</ele>
        <time>1970-01-01T01:42:49.000Z</time>
      </trkpt>
      <trkpt lat="44.77856" lon="5.10777">
        <ele>490.2</ele>
        <time>1970-01-01T01:42:51.000Z</time>
      </trkpt>
      <trkpt lat="44.77858" lon="5.10774">
        <ele>490.4</ele>
        <time>1970-01-01T01:42:52.000Z</time>
      </trkpt>
      <trkpt lat="44.77861" lon="5.10772">
        <ele>490.4</ele>
        <time>1970-01-01T01:42:53.000Z</time>
      </trkpt>
      <trkpt lat="44.77864" lon="5.1077">
        <ele>490.4</ele>
        <time>1970-01-01T01:42:54.000Z</time>
      </trkpt>
      <trkpt lat="44.77869" lon="5.10767">
        <ele>490.4</ele>
        <time>1970-01-01T01:42:55.000Z</time>
      </trkpt>
      <trkpt lat="44.77873" lon="5.10764">
        <ele>490.4</ele>
        <time>1970-01-01T01:42:56.000Z</time>
      </trkpt>
      <trkpt lat="44.77876" lon="5.10762">
        <ele>490.4</ele>
        <time>1970-01-01T01:42:57.000Z</time>
      </trkpt>
      <trkpt lat="44.77879" lon="5.10761">
        <ele>490.4</ele>
        <time>1970-01-01T01:42:58.000Z</time>
      </trkpt>
      <trkpt lat="44.77882" lon="5.1076">
        <ele>490.4</ele>
        <time>1970-01-01T01:42:59.000Z</time>
      </trkpt>
      <trkpt lat="44.77887" lon="5.10758">
        <ele>490.6</ele>
        <time>1970-01-01T01:43:00.000Z</time>
      </trkpt>
      <trkpt lat="44.7789" lon="5.10757">
        <ele>490.6</ele>
        <time>1970-01-01T01:43:01.000Z</time>
      </trkpt>
      <trkpt lat="44.77894" lon="5.10756">
        <ele>490.6</ele>
        <time>1970-01-01T01:43:02.000Z</time>
      </trkpt>
      <trkpt lat="44.77897" lon="5.10755">
        <ele>491</ele>
        <time>1970-01-01T01:43:03.000Z</time>
      </trkpt>
      <trkpt lat="44.779" lon="5.10754">
        <ele>491.4</ele>
        <time>1970-01-01T01:43:04.000Z</time>
      </trkpt>
      <trkpt lat="44.77903" lon="5.10752">
        <ele>491.6</ele>
        <time>1970-01-01T01:43:05.000Z</time>
      </trkpt>
      <trkpt lat="44.77907" lon="5.10751">
        <ele>491.6</ele>
        <time>1970-01-01T01:43:06.000Z</time>
      </trkpt>
      <trkpt lat="44.7791" lon="5.1075">
        <ele>491.8</ele>
        <time>1970-01-01T01:43:07.000Z</time>
      </trkpt>
      <trkpt lat="44.77913" lon="5.10748">
        <ele>491.8</ele>
        <time>1970-01-01T01:43:08.000Z</time>
      </trkpt>
      <trkpt lat="44.77916" lon="5.10747">
        <ele>491.8</ele>
        <time>1970-01-01T01:43:09.000Z</time>
      </trkpt>
      <trkpt lat="44.77919" lon="5.10746">
        <ele>491.8</ele>
        <time>1970-01-01T01:43:10.000Z</time>
      </trkpt>
      <trkpt lat="44.77924" lon="5.10745">
        <ele>491.8</ele>
        <time>1970-01-01T01:43:11.000Z</time>
      </trkpt>
      <trkpt lat="44.77929" lon="5.10743">
        <ele>491.8</ele>
        <time>1970-01-01T01:43:12.000Z</time>
      </trkpt>
      <trkpt lat="44.77934" lon="5.10741">
        <ele>491.8</ele>
        <time>1970-01-01T01:43:13.000Z</time>
      </trkpt>
      <trkpt lat="44.77938" lon="5.1074">
        <ele>491.8</ele>
        <time>1970-01-01T01:43:14.000Z</time>
      </trkpt>
      <trkpt lat="44.77945" lon="5.10737">
        <ele>491.8</ele>
        <time>1970-01-01T01:43:15.000Z</time>
      </trkpt>
      <trkpt lat="44.77951" lon="5.10733">
        <ele>492</ele>
        <time>1970-01-01T01:43:16.000Z</time>
      </trkpt>
      <trkpt lat="44.77958" lon="5.10729">
        <ele>492.2</ele>
        <time>1970-01-01T01:43:17.000Z</time>
      </trkpt>
      <trkpt lat="44.77962" lon="5.10725">
        <ele>492.4</ele>
        <time>1970-01-01T01:43:18.000Z</time>
      </trkpt>
      <trkpt lat="44.77965" lon="5.10723">
        <ele>492.6</ele>
        <time>1970-01-01T01:43:19.000Z</time>
      </trkpt>
      <trkpt lat="44.77968" lon="5.10719">
        <ele>492.8</ele>
        <time>1970-01-01T01:43:20.000Z</time>
      </trkpt>
      <trkpt lat="44.77982" lon="5.10708">
        <ele>493.2</ele>
        <time>1970-01-01T01:43:23.000Z</time>
      </trkpt>
      <trkpt lat="44.77986" lon="5.10706">
        <ele>493.2</ele>
        <time>1970-01-01T01:43:24.000Z</time>
      </trkpt>
      <trkpt lat="44.77991" lon="5.10703">
        <ele>493.4</ele>
        <time>1970-01-01T01:43:25.000Z</time>
      </trkpt>
      <trkpt lat="44.77993" lon="5.107">
        <ele>494</ele>
        <time>1970-01-01T01:43:26.000Z</time>
      </trkpt>
      <trkpt lat="44.77998" lon="5.10698">
        <ele>494.4</ele>
        <time>1970-01-01T01:43:27.000Z</time>
      </trkpt>
      <trkpt lat="44.78001" lon="5.10696">
        <ele>494.6</ele>
        <time>1970-01-01T01:43:28.000Z</time>
      </trkpt>
      <trkpt lat="44.78005" lon="5.10694">
        <ele>495</ele>
        <time>1970-01-01T01:43:29.000Z</time>
      </trkpt>
      <trkpt lat="44.78007" lon="5.10691">
        <ele>495.2</ele>
        <time>1970-01-01T01:43:30.000Z</time>
      </trkpt>
      <trkpt lat="44.7801" lon="5.10689">
        <ele>495.4</ele>
        <time>1970-01-01T01:43:31.000Z</time>
      </trkpt>
      <trkpt lat="44.78013" lon="5.10688">
        <ele>495.4</ele>
        <time>1970-01-01T01:43:32.000Z</time>
      </trkpt>
      <trkpt lat="44.78016" lon="5.10685">
        <ele>495.6</ele>
        <time>1970-01-01T01:43:33.000Z</time>
      </trkpt>
      <trkpt lat="44.78021" lon="5.10684">
        <ele>495.4</ele>
        <time>1970-01-01T01:43:34.000Z</time>
      </trkpt>
      <trkpt lat="44.78025" lon="5.10682">
        <ele>495.4</ele>
        <time>1970-01-01T01:43:35.000Z</time>
      </trkpt>
      <trkpt lat="44.78029" lon="5.10679">
        <ele>495.4</ele>
        <time>1970-01-01T01:43:36.000Z</time>
      </trkpt>
      <trkpt lat="44.78034" lon="5.10674">
        <ele>495.4</ele>
        <time>1970-01-01T01:43:37.000Z</time>
      </trkpt>
      <trkpt lat="44.78038" lon="5.10671">
        <ele>495.2</ele>
        <time>1970-01-01T01:43:38.000Z</time>
      </trkpt>
      <trkpt lat="44.78044" lon="5.10668">
        <ele>495.2</ele>
        <time>1970-01-01T01:43:39.000Z</time>
      </trkpt>
      <trkpt lat="44.78047" lon="5.10665">
        <ele>495.4</ele>
        <time>1970-01-01T01:43:40.000Z</time>
      </trkpt>
      <trkpt lat="44.78051" lon="5.10663">
        <ele>495.8</ele>
        <time>1970-01-01T01:43:41.000Z</time>
      </trkpt>
      <trkpt lat="44.78056" lon="5.1066">
        <ele>496.2</ele>
        <time>1970-01-01T01:43:42.000Z</time>
      </trkpt>
      <trkpt lat="44.78059" lon="5.10658">
        <ele>496.4</ele>
        <time>1970-01-01T01:43:43.000Z</time>
      </trkpt>
      <trkpt lat="44.78063" lon="5.10654">
        <ele>496.4</ele>
        <time>1970-01-01T01:43:44.000Z</time>
      </trkpt>
      <trkpt lat="44.78066" lon="5.10652">
        <ele>496.6</ele>
        <time>1970-01-01T01:43:45.000Z</time>
      </trkpt>
      <trkpt lat="44.78072" lon="5.10648">
        <ele>496.4</ele>
        <time>1970-01-01T01:43:46.000Z</time>
      </trkpt>
      <trkpt lat="44.78078" lon="5.10645">
        <ele>496.2</ele>
        <time>1970-01-01T01:43:47.000Z</time>
      </trkpt>
      <trkpt lat="44.78083" lon="5.10642">
        <ele>496.2</ele>
        <time>1970-01-01T01:43:48.000Z</time>
      </trkpt>
      <trkpt lat="44.78086" lon="5.10641">
        <ele>496</ele>
        <time>1970-01-01T01:43:49.000Z</time>
      </trkpt>
      <trkpt lat="44.78088" lon="5.10639">
        <ele>496</ele>
        <time>1970-01-01T01:43:50.000Z</time>
      </trkpt>
      <trkpt lat="44.78093" lon="5.10637">
        <ele>495.8</ele>
        <time>1970-01-01T01:43:51.000Z</time>
      </trkpt>
      <trkpt lat="44.78099" lon="5.10633">
        <ele>495.8</ele>
        <time>1970-01-01T01:43:52.000Z</time>
      </trkpt>
      <trkpt lat="44.78102" lon="5.1063">
        <ele>495.6</ele>
        <time>1970-01-01T01:43:53.000Z</time>
      </trkpt>
      <trkpt lat="44.78106" lon="5.10626">
        <ele>495.4</ele>
        <time>1970-01-01T01:43:54.000Z</time>
      </trkpt>
      <trkpt lat="44.7811" lon="5.10622">
        <ele>495.4</ele>
        <time>1970-01-01T01:43:55.000Z</time>
      </trkpt>
      <trkpt lat="44.78114" lon="5.10618">
        <ele>495.6</ele>
        <time>1970-01-01T01:43:56.000Z</time>
      </trkpt>
      <trkpt lat="44.78117" lon="5.10614">
        <ele>495.6</ele>
        <time>1970-01-01T01:43:57.000Z</time>
      </trkpt>
      <trkpt lat="44.78121" lon="5.10608">
        <ele>496</ele>
        <time>1970-01-01T01:43:58.000Z</time>
      </trkpt>
      <trkpt lat="44.78124" lon="5.10603">
        <ele>496.2</ele>
        <time>1970-01-01T01:43:59.000Z</time>
      </trkpt>
      <trkpt lat="44.7813" lon="5.10588">
        <ele>496.8</ele>
        <time>1970-01-01T01:44:02.000Z</time>
      </trkpt>
      <trkpt lat="44.78135" lon="5.10587">
        <ele>496.8</ele>
        <time>1970-01-01T01:44:03.000Z</time>
      </trkpt>
      <trkpt lat="44.78139" lon="5.10588">
        <ele>497</ele>
        <time>1970-01-01T01:44:04.000Z</time>
      </trkpt>
      <trkpt lat="44.78142" lon="5.10589">
        <ele>497</ele>
        <time>1970-01-01T01:44:05.000Z</time>
      </trkpt>
      <trkpt lat="44.78144" lon="5.10589">
        <ele>497</ele>
        <time>1970-01-01T01:44:06.000Z</time>
      </trkpt>
      <trkpt lat="44.78146" lon="5.10588">
        <ele>497.2</ele>
        <time>1970-01-01T01:44:07.000Z</time>
      </trkpt>
      <trkpt lat="44.78148" lon="5.10587">
        <ele>497.6</ele>
        <time>1970-01-01T01:44:08.000Z</time>
      </trkpt>
      <trkpt lat="44.78151" lon="5.10585">
        <ele>498</ele>
        <time>1970-01-01T01:44:09.000Z</time>
      </trkpt>
      <trkpt lat="44.78159" lon="5.10583">
        <ele>499.2</ele>
        <time>1970-01-01T01:44:12.000Z</time>
      </trkpt>
      <trkpt lat="44.78161" lon="5.10583">
        <ele>499.6</ele>
        <time>1970-01-01T01:44:13.000Z</time>
      </trkpt>
      <trkpt lat="44.78164" lon="5.10584">
        <ele>500.2</ele>
        <time>1970-01-01T01:44:14.000Z</time>
      </trkpt>
      <trkpt lat="44.78166" lon="5.10584">
        <ele>500.4</ele>
        <time>1970-01-01T01:44:15.000Z</time>
      </trkpt>
      <trkpt lat="44.78168" lon="5.10585">
        <ele>500.8</ele>
        <time>1970-01-01T01:44:16.000Z</time>
      </trkpt>
      <trkpt lat="44.78171" lon="5.10585">
        <ele>501.2</ele>
        <time>1970-01-01T01:44:17.000Z</time>
      </trkpt>
      <trkpt lat="44.78173" lon="5.10585">
        <ele>501.8</ele>
        <time>1970-01-01T01:44:18.000Z</time>
      </trkpt>
      <trkpt lat="44.78176" lon="5.10585">
        <ele>502.4</ele>
        <time>1970-01-01T01:44:19.000Z</time>
      </trkpt>
      <trkpt lat="44.78178" lon="5.10586">
        <ele>502.6</ele>
        <time>1970-01-01T01:44:20.000Z</time>
      </trkpt>
      <trkpt lat="44.7818" lon="5.10586">
        <ele>503.2</ele>
        <time>1970-01-01T01:44:21.000Z</time>
      </trkpt>
      <trkpt lat="44.78182" lon="5.10586">
        <ele>503.6</ele>
        <time>1970-01-01T01:44:22.000Z</time>
      </trkpt>
      <trkpt lat="44.78185" lon="5.10586">
        <ele>504.2</ele>
        <time>1970-01-01T01:44:23.000Z</time>
      </trkpt>
      <trkpt lat="44.78188" lon="5.10586">
        <ele>504.4</ele>
        <time>1970-01-01T01:44:24.000Z</time>
      </trkpt>
      <trkpt lat="44.78189" lon="5.10585">
        <ele>504.6</ele>
        <time>1970-01-01T01:44:25.000Z</time>
      </trkpt>
      <trkpt lat="44.7819" lon="5.10584">
        <ele>504.8</ele>
        <time>1970-01-01T01:44:26.000Z</time>
      </trkpt>
      <trkpt lat="44.78193" lon="5.10583">
        <ele>505</ele>
        <time>1970-01-01T01:44:27.000Z</time>
      </trkpt>
      <trkpt lat="44.78195" lon="5.10582">
        <ele>505</ele>
        <time>1970-01-01T01:44:28.000Z</time>
      </trkpt>
      <trkpt lat="44.78197" lon="5.10582">
        <ele>505.2</ele>
        <time>1970-01-01T01:44:29.000Z</time>
      </trkpt>
      <trkpt lat="44.78199" lon="5.1058">
        <ele>505.4</ele>
        <time>1970-01-01T01:44:30.000Z</time>
      </trkpt>
      <trkpt lat="44.78201" lon="5.10579">
        <ele>505.4</ele>
        <time>1970-01-01T01:44:31.000Z</time>
      </trkpt>
      <trkpt lat="44.78204" lon="5.10578">
        <ele>505.6</ele>
        <time>1970-01-01T01:44:32.000Z</time>
      </trkpt>
      <trkpt lat="44.78206" lon="5.10577">
        <ele>505.6</ele>
        <time>1970-01-01T01:44:33.000Z</time>
      </trkpt>
      <trkpt lat="44.78207" lon="5.10574">
        <ele>505.8</ele>
        <time>1970-01-01T01:44:34.000Z</time>
      </trkpt>
      <trkpt lat="44.78209" lon="5.10572">
        <ele>505.8</ele>
        <time>1970-01-01T01:44:35.000Z</time>
      </trkpt>
      <trkpt lat="44.7821" lon="5.10568">
        <ele>505.8</ele>
        <time>1970-01-01T01:44:36.000Z</time>
      </trkpt>
      <trkpt lat="44.78211" lon="5.10564">
        <ele>506</ele>
        <time>1970-01-01T01:44:37.000Z</time>
      </trkpt>
      <trkpt lat="44.78211" lon="5.10559">
        <ele>506</ele>
        <time>1970-01-01T01:44:38.000Z</time>
      </trkpt>
      <trkpt lat="44.78212" lon="5.10555">
        <ele>506.2</ele>
        <time>1970-01-01T01:44:39.000Z</time>
      </trkpt>
      <trkpt lat="44.78214" lon="5.10551">
        <ele>506.4</ele>
        <time>1970-01-01T01:44:40.000Z</time>
      </trkpt>
      <trkpt lat="44.78214" lon="5.10546">
        <ele>506.8</ele>
        <time>1970-01-01T01:44:41.000Z</time>
      </trkpt>
      <trkpt lat="44.78216" lon="5.10542">
        <ele>507</ele>
        <time>1970-01-01T01:44:42.000Z</time>
      </trkpt>
      <trkpt lat="44.78217" lon="5.1054">
        <ele>507.4</ele>
        <time>1970-01-01T01:44:43.000Z</time>
      </trkpt>
      <trkpt lat="44.78217" lon="5.10537">
        <ele>507.4</ele>
        <time>1970-01-01T01:44:44.000Z</time>
      </trkpt>
      <trkpt lat="44.78217" lon="5.10533">
        <ele>507.6</ele>
        <time>1970-01-01T01:44:45.000Z</time>
      </trkpt>
      <trkpt lat="44.78217" lon="5.10529">
        <ele>508</ele>
        <time>1970-01-01T01:44:46.000Z</time>
      </trkpt>
      <trkpt lat="44.78217" lon="5.10526">
        <ele>508.2</ele>
        <time>1970-01-01T01:44:47.000Z</time>
      </trkpt>
      <trkpt lat="44.78216" lon="5.10522">
        <ele>508.2</ele>
        <time>1970-01-01T01:44:48.000Z</time>
      </trkpt>
      <trkpt lat="44.78216" lon="5.10518">
        <ele>508.4</ele>
        <time>1970-01-01T01:44:49.000Z</time>
      </trkpt>
      <trkpt lat="44.78215" lon="5.10514">
        <ele>508.4</ele>
        <time>1970-01-01T01:44:50.000Z</time>
      </trkpt>
      <trkpt lat="44.78214" lon="5.1051">
        <ele>508.6</ele>
        <time>1970-01-01T01:44:51.000Z</time>
      </trkpt>
      <trkpt lat="44.78214" lon="5.10505">
        <ele>508.6</ele>
        <time>1970-01-01T01:44:52.000Z</time>
      </trkpt>
      <trkpt lat="44.78215" lon="5.10502">
        <ele>508.6</ele>
        <time>1970-01-01T01:44:53.000Z</time>
      </trkpt>
      <trkpt lat="44.78218" lon="5.10499">
        <ele>508.8</ele>
        <time>1970-01-01T01:44:54.000Z</time>
      </trkpt>
      <trkpt lat="44.78222" lon="5.10498">
        <ele>509</ele>
        <time>1970-01-01T01:44:55.000Z</time>
      </trkpt>
      <trkpt lat="44.78224" lon="5.10497">
        <ele>509.2</ele>
        <time>1970-01-01T01:44:56.000Z</time>
      </trkpt>
      <trkpt lat="44.78227" lon="5.10496">
        <ele>509.4</ele>
        <time>1970-01-01T01:44:57.000Z</time>
      </trkpt>
      <trkpt lat="44.7823" lon="5.10495">
        <ele>509.6</ele>
        <time>1970-01-01T01:44:58.000Z</time>
      </trkpt>
      <trkpt lat="44.78233" lon="5.10493">
        <ele>509.8</ele>
        <time>1970-01-01T01:44:59.000Z</time>
      </trkpt>
      <trkpt lat="44.78235" lon="5.10491">
        <ele>510</ele>
        <time>1970-01-01T01:45:00.000Z</time>
      </trkpt>
      <trkpt lat="44.78238" lon="5.10489">
        <ele>510</ele>
        <time>1970-01-01T01:45:01.000Z</time>
      </trkpt>
      <trkpt lat="44.78239" lon="5.10487">
        <ele>510.4</ele>
        <time>1970-01-01T01:45:02.000Z</time>
      </trkpt>
      <trkpt lat="44.78241" lon="5.10485">
        <ele>510.6</ele>
        <time>1970-01-01T01:45:03.000Z</time>
      </trkpt>
      <trkpt lat="44.78243" lon="5.10482">
        <ele>510.8</ele>
        <time>1970-01-01T01:45:04.000Z</time>
      </trkpt>
      <trkpt lat="44.78246" lon="5.1048">
        <ele>510.8</ele>
        <time>1970-01-01T01:45:05.000Z</time>
      </trkpt>
      <trkpt lat="44.78248" lon="5.10477">
        <ele>510.8</ele>
        <time>1970-01-01T01:45:06.000Z</time>
      </trkpt>
      <trkpt lat="44.7825" lon="5.10474">
        <ele>511</ele>
        <time>1970-01-01T01:45:07.000Z</time>
      </trkpt>
      <trkpt lat="44.78253" lon="5.10472">
        <ele>511</ele>
        <time>1970-01-01T01:45:08.000Z</time>
      </trkpt>
      <trkpt lat="44.78255" lon="5.10469">
        <ele>511</ele>
        <time>1970-01-01T01:45:09.000Z</time>
      </trkpt>
      <trkpt lat="44.78257" lon="5.10467">
        <ele>511</ele>
        <time>1970-01-01T01:45:10.000Z</time>
      </trkpt>
      <trkpt lat="44.78258" lon="5.10464">
        <ele>511.2</ele>
        <time>1970-01-01T01:45:11.000Z</time>
      </trkpt>
      <trkpt lat="44.7826" lon="5.10461">
        <ele>511.4</ele>
        <time>1970-01-01T01:45:12.000Z</time>
      </trkpt>
      <trkpt lat="44.78263" lon="5.10458">
        <ele>511.6</ele>
        <time>1970-01-01T01:45:13.000Z</time>
      </trkpt>
      <trkpt lat="44.78264" lon="5.10455">
        <ele>511.8</ele>
        <time>1970-01-01T01:45:14.000Z</time>
      </trkpt>
      <trkpt lat="44.78265" lon="5.10451">
        <ele>512</ele>
        <time>1970-01-01T01:45:15.000Z</time>
      </trkpt>
      <trkpt lat="44.78266" lon="5.10446">
        <ele>512.2</ele>
        <time>1970-01-01T01:45:16.000Z</time>
      </trkpt>
      <trkpt lat="44.78265" lon="5.10442">
        <ele>512.4</ele>
        <time>1970-01-01T01:45:17.000Z</time>
      </trkpt>
      <trkpt lat="44.78264" lon="5.10439">
        <ele>513</ele>
        <time>1970-01-01T01:45:18.000Z</time>
      </trkpt>
      <trkpt lat="44.78262" lon="5.10436">
        <ele>513.6</ele>
        <time>1970-01-01T01:45:19.000Z</time>
      </trkpt>
      <trkpt lat="44.7826" lon="5.10434">
        <ele>514</ele>
        <time>1970-01-01T01:45:20.000Z</time>
      </trkpt>
      <trkpt lat="44.78259" lon="5.10431">
        <ele>514.4</ele>
        <time>1970-01-01T01:45:21.000Z</time>
      </trkpt>
      <trkpt lat="44.78256" lon="5.10428">
        <ele>514.6</ele>
        <time>1970-01-01T01:45:22.000Z</time>
      </trkpt>
      <trkpt lat="44.78255" lon="5.10425">
        <ele>514.6</ele>
        <time>1970-01-01T01:45:23.000Z</time>
      </trkpt>
      <trkpt lat="44.78254" lon="5.10423">
        <ele>515.4</ele>
        <time>1970-01-01T01:45:24.000Z</time>
      </trkpt>
      <trkpt lat="44.78252" lon="5.1042">
        <ele>515.8</ele>
        <time>1970-01-01T01:45:25.000Z</time>
      </trkpt>
      <trkpt lat="44.78251" lon="5.10417">
        <ele>516</ele>
        <time>1970-01-01T01:45:26.000Z</time>
      </trkpt>
      <trkpt lat="44.78249" lon="5.10414">
        <ele>516.2</ele>
        <time>1970-01-01T01:45:27.000Z</time>
      </trkpt>
      <trkpt lat="44.78247" lon="5.1041">
        <ele>516.4</ele>
        <time>1970-01-01T01:45:28.000Z</time>
      </trkpt>
      <trkpt lat="44.78247" lon="5.10407">
        <ele>516.6</ele>
        <time>1970-01-01T01:45:29.000Z</time>
      </trkpt>
      <trkpt lat="44.78246" lon="5.10403">
        <ele>516.8</ele>
        <time>1970-01-01T01:45:30.000Z</time>
      </trkpt>
      <trkpt lat="44.78245" lon="5.104">
        <ele>516.8</ele>
        <time>1970-01-01T01:45:31.000Z</time>
      </trkpt>
      <trkpt lat="44.78244" lon="5.10395">
        <ele>517</ele>
        <time>1970-01-01T01:45:32.000Z</time>
      </trkpt>
      <trkpt lat="44.78245" lon="5.1039">
        <ele>517</ele>
        <time>1970-01-01T01:45:33.000Z</time>
      </trkpt>
      <trkpt lat="44.78245" lon="5.10386">
        <ele>517.2</ele>
        <time>1970-01-01T01:45:34.000Z</time>
      </trkpt>
      <trkpt lat="44.78246" lon="5.10382">
        <ele>517.2</ele>
        <time>1970-01-01T01:45:35.000Z</time>
      </trkpt>
      <trkpt lat="44.78247" lon="5.1038">
        <ele>517</ele>
        <time>1970-01-01T01:45:36.000Z</time>
      </trkpt>
      <trkpt lat="44.78249" lon="5.10381">
        <ele>517</ele>
        <time>1970-01-01T01:45:37.000Z</time>
      </trkpt>
      <trkpt lat="44.78254" lon="5.10384">
        <ele>517</ele>
        <time>1970-01-01T01:45:38.000Z</time>
      </trkpt>
      <trkpt lat="44.78257" lon="5.10387">
        <ele>516.4</ele>
        <time>1970-01-01T01:45:39.000Z</time>
      </trkpt>
      <trkpt lat="44.78261" lon="5.1039">
        <ele>516.2</ele>
        <time>1970-01-01T01:45:40.000Z</time>
      </trkpt>
      <trkpt lat="44.78265" lon="5.10391">
        <ele>515.6</ele>
        <time>1970-01-01T01:45:41.000Z</time>
      </trkpt>
      <trkpt lat="44.78269" lon="5.10391">
        <ele>515.2</ele>
        <time>1970-01-01T01:45:42.000Z</time>
      </trkpt>
      <trkpt lat="44.78272" lon="5.10389">
        <ele>515</ele>
        <time>1970-01-01T01:45:43.000Z</time>
      </trkpt>
      <trkpt lat="44.78274" lon="5.10385">
        <ele>514.8</ele>
        <time>1970-01-01T01:45:44.000Z</time>
      </trkpt>
      <trkpt lat="44.78275" lon="5.1038">
        <ele>514.8</ele>
        <time>1970-01-01T01:45:45.000Z</time>
      </trkpt>
      <trkpt lat="44.78276" lon="5.10374">
        <ele>514.6</ele>
        <time>1970-01-01T01:45:46.000Z</time>
      </trkpt>
      <trkpt lat="44.78277" lon="5.10369">
        <ele>514.6</ele>
        <time>1970-01-01T01:45:47.000Z</time>
      </trkpt>
      <trkpt lat="44.7828" lon="5.10366">
        <ele>514.4</ele>
        <time>1970-01-01T01:45:48.000Z</time>
      </trkpt>
      <trkpt lat="44.78287" lon="5.10366">
        <ele>514.2</ele>
        <time>1970-01-01T01:45:50.000Z</time>
      </trkpt>
      <trkpt lat="44.78291" lon="5.10369">
        <ele>514</ele>
        <time>1970-01-01T01:45:51.000Z</time>
      </trkpt>
      <trkpt lat="44.78294" lon="5.10371">
        <ele>514</ele>
        <time>1970-01-01T01:45:52.000Z</time>
      </trkpt>
      <trkpt lat="44.783" lon="5.10373">
        <ele>514</ele>
        <time>1970-01-01T01:45:54.000Z</time>
      </trkpt>
      <trkpt lat="44.78303" lon="5.10372">
        <ele>514</ele>
        <time>1970-01-01T01:45:55.000Z</time>
      </trkpt>
      <trkpt lat="44.78306" lon="5.1037">
        <ele>514.2</ele>
        <time>1970-01-01T01:45:56.000Z</time>
      </trkpt>
      <trkpt lat="44.78308" lon="5.10367">
        <ele>514.2</ele>
        <time>1970-01-01T01:45:57.000Z</time>
      </trkpt>
      <trkpt lat="44.78311" lon="5.10363">
        <ele>514.2</ele>
        <time>1970-01-01T01:45:58.000Z</time>
      </trkpt>
      <trkpt lat="44.78313" lon="5.1036">
        <ele>514.2</ele>
        <time>1970-01-01T01:45:59.000Z</time>
      </trkpt>
      <trkpt lat="44.78315" lon="5.10356">
        <ele>514.8</ele>
        <time>1970-01-01T01:46:00.000Z</time>
      </trkpt>
      <trkpt lat="44.78316" lon="5.10353">
        <ele>515</ele>
        <time>1970-01-01T01:46:01.000Z</time>
      </trkpt>
      <trkpt lat="44.78317" lon="5.1035">
        <ele>515.2</ele>
        <time>1970-01-01T01:46:02.000Z</time>
      </trkpt>
      <trkpt lat="44.78318" lon="5.10348">
        <ele>515.4</ele>
        <time>1970-01-01T01:46:03.000Z</time>
      </trkpt>
      <trkpt lat="44.78319" lon="5.10346">
        <ele>515.4</ele>
        <time>1970-01-01T01:46:04.000Z</time>
      </trkpt>
      <trkpt lat="44.78319" lon="5.10344">
        <ele>515.6</ele>
        <time>1970-01-01T01:46:05.000Z</time>
      </trkpt>
      <trkpt lat="44.78318" lon="5.10342">
        <ele>515.6</ele>
        <time>1970-01-01T01:46:06.000Z</time>
      </trkpt>
      <trkpt lat="44.78316" lon="5.10335">
        <ele>516.4</ele>
        <time>1970-01-01T01:46:09.000Z</time>
      </trkpt>
      <trkpt lat="44.78316" lon="5.10333">
        <ele>516.8</ele>
        <time>1970-01-01T01:46:10.000Z</time>
      </trkpt>
      <trkpt lat="44.78315" lon="5.1033">
        <ele>517.2</ele>
        <time>1970-01-01T01:46:11.000Z</time>
      </trkpt>
      <trkpt lat="44.78315" lon="5.10327">
        <ele>517.8</ele>
        <time>1970-01-01T01:46:12.000Z</time>
      </trkpt>
      <trkpt lat="44.78314" lon="5.10324">
        <ele>518.4</ele>
        <time>1970-01-01T01:46:13.000Z</time>
      </trkpt>
      <trkpt lat="44.78314" lon="5.10322">
        <ele>519</ele>
        <time>1970-01-01T01:46:14.000Z</time>
      </trkpt>
      <trkpt lat="44.78313" lon="5.10319">
        <ele>519.6</ele>
        <time>1970-01-01T01:46:15.000Z</time>
      </trkpt>
      <trkpt lat="44.78312" lon="5.10317">
        <ele>520.2</ele>
        <time>1970-01-01T01:46:16.000Z</time>
      </trkpt>
      <trkpt lat="44.7831" lon="5.10316">
        <ele>520.6</ele>
        <time>1970-01-01T01:46:17.000Z</time>
      </trkpt>
      <trkpt lat="44.78308" lon="5.10315">
        <ele>521.2</ele>
        <time>1970-01-01T01:46:18.000Z</time>
      </trkpt>
      <trkpt lat="44.78307" lon="5.10314">
        <ele>521.8</ele>
        <time>1970-01-01T01:46:19.000Z</time>
      </trkpt>
      <trkpt lat="44.78305" lon="5.10313">
        <ele>522.2</ele>
        <time>1970-01-01T01:46:20.000Z</time>
      </trkpt>
      <trkpt lat="44.78304" lon="5.10312">
        <ele>522.8</ele>
        <time>1970-01-01T01:46:21.000Z</time>
      </trkpt>
      <trkpt lat="44.78303" lon="5.10311">
        <ele>523.4</ele>
        <time>1970-01-01T01:46:22.000Z</time>
      </trkpt>
      <trkpt lat="44.78302" lon="5.10309">
        <ele>523.8</ele>
        <time>1970-01-01T01:46:23.000Z</time>
      </trkpt>
      <trkpt lat="44.78301" lon="5.10306">
        <ele>524</ele>
        <time>1970-01-01T01:46:24.000Z</time>
      </trkpt>
      <trkpt lat="44.78301" lon="5.10303">
        <ele>524.4</ele>
        <time>1970-01-01T01:46:25.000Z</time>
      </trkpt>
      <trkpt lat="44.783" lon="5.103">
        <ele>524.8</ele>
        <time>1970-01-01T01:46:26.000Z</time>
      </trkpt>
      <trkpt lat="44.783" lon="5.10298">
        <ele>525.2</ele>
        <time>1970-01-01T01:46:27.000Z</time>
      </trkpt>
      <trkpt lat="44.78299" lon="5.10296">
        <ele>525.4</ele>
        <time>1970-01-01T01:46:28.000Z</time>
      </trkpt>
      <trkpt lat="44.78298" lon="5.10294">
        <ele>525.8</ele>
        <time>1970-01-01T01:46:29.000Z</time>
      </trkpt>
      <trkpt lat="44.78297" lon="5.10292">
        <ele>526.2</ele>
        <time>1970-01-01T01:46:30.000Z</time>
      </trkpt>
      <trkpt lat="44.78295" lon="5.1029">
        <ele>526.8</ele>
        <time>1970-01-01T01:46:31.000Z</time>
      </trkpt>
      <trkpt lat="44.78295" lon="5.10288">
        <ele>527.2</ele>
        <time>1970-01-01T01:46:32.000Z</time>
      </trkpt>
      <trkpt lat="44.78294" lon="5.10286">
        <ele>527.4</ele>
        <time>1970-01-01T01:46:33.000Z</time>
      </trkpt>
      <trkpt lat="44.78292" lon="5.10284">
        <ele>527.8</ele>
        <time>1970-01-01T01:46:34.000Z</time>
      </trkpt>
      <trkpt lat="44.78291" lon="5.10283">
        <ele>528.2</ele>
        <time>1970-01-01T01:46:35.000Z</time>
      </trkpt>
      <trkpt lat="44.78289" lon="5.10281">
        <ele>528.6</ele>
        <time>1970-01-01T01:46:36.000Z</time>
      </trkpt>
      <trkpt lat="44.78288" lon="5.1028">
        <ele>529</ele>
        <time>1970-01-01T01:46:37.000Z</time>
      </trkpt>
      <trkpt lat="44.78287" lon="5.10278">
        <ele>529.8</ele>
        <time>1970-01-01T01:46:38.000Z</time>
      </trkpt>
      <trkpt lat="44.78286" lon="5.10275">
        <ele>530</ele>
        <time>1970-01-01T01:46:39.000Z</time>
      </trkpt>
      <trkpt lat="44.78285" lon="5.10274">
        <ele>530.8</ele>
        <time>1970-01-01T01:46:40.000Z</time>
      </trkpt>
      <trkpt lat="44.78284" lon="5.10272">
        <ele>531.2</ele>
        <time>1970-01-01T01:46:41.000Z</time>
      </trkpt>
      <trkpt lat="44.78283" lon="5.10269">
        <ele>532.2</ele>
        <time>1970-01-01T01:46:42.000Z</time>
      </trkpt>
      <trkpt lat="44.78281" lon="5.10267">
        <ele>533</ele>
        <time>1970-01-01T01:46:43.000Z</time>
      </trkpt>
      <trkpt lat="44.78281" lon="5.10265">
        <ele>533.6</ele>
        <time>1970-01-01T01:46:44.000Z</time>
      </trkpt>
      <trkpt lat="44.7828" lon="5.10263">
        <ele>534</ele>
        <time>1970-01-01T01:46:45.000Z</time>
      </trkpt>
      <trkpt lat="44.78279" lon="5.1026">
        <ele>534.4</ele>
        <time>1970-01-01T01:46:46.000Z</time>
      </trkpt>
      <trkpt lat="44.78278" lon="5.10258">
        <ele>534.8</ele>
        <time>1970-01-01T01:46:47.000Z</time>
      </trkpt>
      <trkpt lat="44.78277" lon="5.10257">
        <ele>535</ele>
        <time>1970-01-01T01:46:48.000Z</time>
      </trkpt>
      <trkpt lat="44.78276" lon="5.10255">
        <ele>535.4</ele>
        <time>1970-01-01T01:46:49.000Z</time>
      </trkpt>
      <trkpt lat="44.78274" lon="5.10255">
        <ele>535.8</ele>
        <time>1970-01-01T01:46:50.000Z</time>
      </trkpt>
      <trkpt lat="44.78272" lon="5.10254">
        <ele>536</ele>
        <time>1970-01-01T01:46:51.000Z</time>
      </trkpt>
      <trkpt lat="44.7827" lon="5.10254">
        <ele>536.8</ele>
        <time>1970-01-01T01:46:52.000Z</time>
      </trkpt>
      <trkpt lat="44.78268" lon="5.10254">
        <ele>537.2</ele>
        <time>1970-01-01T01:46:53.000Z</time>
      </trkpt>
      <trkpt lat="44.78267" lon="5.10252">
        <ele>537.6</ele>
        <time>1970-01-01T01:46:54.000Z</time>
      </trkpt>
      <trkpt lat="44.78265" lon="5.10251">
        <ele>538</ele>
        <time>1970-01-01T01:46:55.000Z</time>
      </trkpt>
      <trkpt lat="44.78264" lon="5.10249">
        <ele>538.2</ele>
        <time>1970-01-01T01:46:56.000Z</time>
      </trkpt>
      <trkpt lat="44.78263" lon="5.10247">
        <ele>538.8</ele>
        <time>1970-01-01T01:46:57.000Z</time>
      </trkpt>
      <trkpt lat="44.78262" lon="5.10246">
        <ele>539.4</ele>
        <time>1970-01-01T01:46:58.000Z</time>
      </trkpt>
      <trkpt lat="44.78261" lon="5.10245">
        <ele>540</ele>
        <time>1970-01-01T01:46:59.000Z</time>
      </trkpt>
      <trkpt lat="44.78261" lon="5.10245">
        <ele>541.2</ele>
        <time>1970-01-01T01:47:02.000Z</time>
      </trkpt>
      <trkpt lat="44.78256" lon="5.10244">
        <ele>542</ele>
        <time>1970-01-01T01:47:08.000Z</time>
      </trkpt>
      <trkpt lat="44.78254" lon="5.10244">
        <ele>542.2</ele>
        <time>1970-01-01T01:47:09.000Z</time>
      </trkpt>
      <trkpt lat="44.78252" lon="5.10243">
        <ele>543.2</ele>
        <time>1970-01-01T01:47:10.000Z</time>
      </trkpt>
      <trkpt lat="44.7825" lon="5.10242">
        <ele>543.8</ele>
        <time>1970-01-01T01:47:11.000Z</time>
      </trkpt>
      <trkpt lat="44.78248" lon="5.10242">
        <ele>544.4</ele>
        <time>1970-01-01T01:47:12.000Z</time>
      </trkpt>
      <trkpt lat="44.78247" lon="5.10241">
        <ele>544.8</ele>
        <time>1970-01-01T01:47:13.000Z</time>
      </trkpt>
      <trkpt lat="44.78245" lon="5.1024">
        <ele>545.2</ele>
        <time>1970-01-01T01:47:14.000Z</time>
      </trkpt>
      <trkpt lat="44.78243" lon="5.1024">
        <ele>545.4</ele>
        <time>1970-01-01T01:47:15.000Z</time>
      </trkpt>
      <trkpt lat="44.78241" lon="5.10239">
        <ele>545.6</ele>
        <time>1970-01-01T01:47:16.000Z</time>
      </trkpt>
      <trkpt lat="44.78239" lon="5.10239">
        <ele>545.8</ele>
        <time>1970-01-01T01:47:17.000Z</time>
      </trkpt>
      <trkpt lat="44.78237" lon="5.10238">
        <ele>545.8</ele>
        <time>1970-01-01T01:47:18.000Z</time>
      </trkpt>
      <trkpt lat="44.78235" lon="5.10237">
        <ele>546.2</ele>
        <time>1970-01-01T01:47:19.000Z</time>
      </trkpt>
      <trkpt lat="44.78232" lon="5.10236">
        <ele>546.4</ele>
        <time>1970-01-01T01:47:20.000Z</time>
      </trkpt>
      <trkpt lat="44.7823" lon="5.10235">
        <ele>546.6</ele>
        <time>1970-01-01T01:47:21.000Z</time>
      </trkpt>
      <trkpt lat="44.78228" lon="5.10234">
        <ele>547</ele>
        <time>1970-01-01T01:47:22.000Z</time>
      </trkpt>
      <trkpt lat="44.78226" lon="5.10234">
        <ele>547.4</ele>
        <time>1970-01-01T01:47:23.000Z</time>
      </trkpt>
      <trkpt lat="44.78224" lon="5.10234">
        <ele>547.8</ele>
        <time>1970-01-01T01:47:24.000Z</time>
      </trkpt>
      <trkpt lat="44.78222" lon="5.10233">
        <ele>548.4</ele>
        <time>1970-01-01T01:47:25.000Z</time>
      </trkpt>
      <trkpt lat="44.7822" lon="5.10233">
        <ele>548.8</ele>
        <time>1970-01-01T01:47:26.000Z</time>
      </trkpt>
      <trkpt lat="44.78218" lon="5.10233">
        <ele>549.2</ele>
        <time>1970-01-01T01:47:27.000Z</time>
      </trkpt>
      <trkpt lat="44.78215" lon="5.10233">
        <ele>549.8</ele>
        <time>1970-01-01T01:47:28.000Z</time>
      </trkpt>
      <trkpt lat="44.78214" lon="5.10233">
        <ele>550.2</ele>
        <time>1970-01-01T01:47:29.000Z</time>
      </trkpt>
      <trkpt lat="44.78212" lon="5.10233">
        <ele>550.8</ele>
        <time>1970-01-01T01:47:30.000Z</time>
      </trkpt>
      <trkpt lat="44.7821" lon="5.10233">
        <ele>551.4</ele>
        <time>1970-01-01T01:47:31.000Z</time>
      </trkpt>
      <trkpt lat="44.78209" lon="5.10233">
        <ele>551.8</ele>
        <time>1970-01-01T01:47:32.000Z</time>
      </trkpt>
      <trkpt lat="44.78207" lon="5.10232">
        <ele>552.6</ele>
        <time>1970-01-01T01:47:33.000Z</time>
      </trkpt>
      <trkpt lat="44.78205" lon="5.10231">
        <ele>553.2</ele>
        <time>1970-01-01T01:47:34.000Z</time>
      </trkpt>
      <trkpt lat="44.78204" lon="5.1023">
        <ele>553.8</ele>
        <time>1970-01-01T01:47:35.000Z</time>
      </trkpt>
      <trkpt lat="44.78202" lon="5.1023">
        <ele>554.2</ele>
        <time>1970-01-01T01:47:36.000Z</time>
      </trkpt>
      <trkpt lat="44.782" lon="5.1023">
        <ele>554.8</ele>
        <time>1970-01-01T01:47:37.000Z</time>
      </trkpt>
      <trkpt lat="44.78198" lon="5.1023">
        <ele>555.4</ele>
        <time>1970-01-01T01:47:38.000Z</time>
      </trkpt>
      <trkpt lat="44.78196" lon="5.1023">
        <ele>556</ele>
        <time>1970-01-01T01:47:39.000Z</time>
      </trkpt>
      <trkpt lat="44.78194" lon="5.1023">
        <ele>556.8</ele>
        <time>1970-01-01T01:47:40.000Z</time>
      </trkpt>
      <trkpt lat="44.78192" lon="5.1023">
        <ele>557.4</ele>
        <time>1970-01-01T01:47:41.000Z</time>
      </trkpt>
      <trkpt lat="44.78191" lon="5.1023">
        <ele>557.8</ele>
        <time>1970-01-01T01:47:42.000Z</time>
      </trkpt>
      <trkpt lat="44.7819" lon="5.10229">
        <ele>558.2</ele>
        <time>1970-01-01T01:47:43.000Z</time>
      </trkpt>
      <trkpt lat="44.78189" lon="5.10228">
        <ele>558.4</ele>
        <time>1970-01-01T01:47:44.000Z</time>
      </trkpt>
      <trkpt lat="44.78188" lon="5.10227">
        <ele>558.8</ele>
        <time>1970-01-01T01:47:45.000Z</time>
      </trkpt>
      <trkpt lat="44.78186" lon="5.10225">
        <ele>559</ele>
        <time>1970-01-01T01:47:46.000Z</time>
      </trkpt>
      <trkpt lat="44.78185" lon="5.10223">
        <ele>559.4</ele>
        <time>1970-01-01T01:47:47.000Z</time>
      </trkpt>
      <trkpt lat="44.78184" lon="5.10221">
        <ele>559.8</ele>
        <time>1970-01-01T01:47:48.000Z</time>
      </trkpt>
      <trkpt lat="44.78183" lon="5.1022">
        <ele>560</ele>
        <time>1970-01-01T01:47:49.000Z</time>
      </trkpt>
      <trkpt lat="44.78183" lon="5.10219">
        <ele>560.4</ele>
        <time>1970-01-01T01:47:50.000Z</time>
      </trkpt>
      <trkpt lat="44.78182" lon="5.10217">
        <ele>560.6</ele>
        <time>1970-01-01T01:47:51.000Z</time>
      </trkpt>
      <trkpt lat="44.78182" lon="5.10213">
        <ele>561.2</ele>
        <time>1970-01-01T01:47:52.000Z</time>
      </trkpt>
      <trkpt lat="44.78181" lon="5.10211">
        <ele>561.6</ele>
        <time>1970-01-01T01:47:53.000Z</time>
      </trkpt>
      <trkpt lat="44.7818" lon="5.1021">
        <ele>562.2</ele>
        <time>1970-01-01T01:47:54.000Z</time>
      </trkpt>
      <trkpt lat="44.78179" lon="5.10208">
        <ele>562.6</ele>
        <time>1970-01-01T01:47:55.000Z</time>
      </trkpt>
      <trkpt lat="44.78178" lon="5.10206">
        <ele>562.8</ele>
        <time>1970-01-01T01:47:56.000Z</time>
      </trkpt>
      <trkpt lat="44.78177" lon="5.10204">
        <ele>563.2</ele>
        <time>1970-01-01T01:47:57.000Z</time>
      </trkpt>
      <trkpt lat="44.78176" lon="5.10203">
        <ele>563.6</ele>
        <time>1970-01-01T01:47:58.000Z</time>
      </trkpt>
      <trkpt lat="44.78175" lon="5.10201">
        <ele>563.8</ele>
        <time>1970-01-01T01:47:59.000Z</time>
      </trkpt>
      <trkpt lat="44.78173" lon="5.102">
        <ele>564.2</ele>
        <time>1970-01-01T01:48:00.000Z</time>
      </trkpt>
      <trkpt lat="44.78171" lon="5.10199">
        <ele>564.4</ele>
        <time>1970-01-01T01:48:01.000Z</time>
      </trkpt>
      <trkpt lat="44.78169" lon="5.10199">
        <ele>564.8</ele>
        <time>1970-01-01T01:48:02.000Z</time>
      </trkpt>
      <trkpt lat="44.78167" lon="5.10201">
        <ele>565</ele>
        <time>1970-01-01T01:48:03.000Z</time>
      </trkpt>
      <trkpt lat="44.78165" lon="5.10202">
        <ele>565.2</ele>
        <time>1970-01-01T01:48:04.000Z</time>
      </trkpt>
      <trkpt lat="44.78164" lon="5.10204">
        <ele>565.4</ele>
        <time>1970-01-01T01:48:05.000Z</time>
      </trkpt>
      <trkpt lat="44.78163" lon="5.10205">
        <ele>565.6</ele>
        <time>1970-01-01T01:48:06.000Z</time>
      </trkpt>
      <trkpt lat="44.78162" lon="5.10207">
        <ele>565.6</ele>
        <time>1970-01-01T01:48:07.000Z</time>
      </trkpt>
      <trkpt lat="44.78161" lon="5.1021">
        <ele>565.8</ele>
        <time>1970-01-01T01:48:08.000Z</time>
      </trkpt>
      <trkpt lat="44.7816" lon="5.10212">
        <ele>566</ele>
        <time>1970-01-01T01:48:09.000Z</time>
      </trkpt>
      <trkpt lat="44.78159" lon="5.10215">
        <ele>566.2</ele>
        <time>1970-01-01T01:48:10.000Z</time>
      </trkpt>
      <trkpt lat="44.78158" lon="5.10217">
        <ele>566.2</ele>
        <time>1970-01-01T01:48:11.000Z</time>
      </trkpt>
      <trkpt lat="44.78157" lon="5.1022">
        <ele>566.2</ele>
        <time>1970-01-01T01:48:12.000Z</time>
      </trkpt>
      <trkpt lat="44.78156" lon="5.10222">
        <ele>566.2</ele>
        <time>1970-01-01T01:48:13.000Z</time>
      </trkpt>
      <trkpt lat="44.78155" lon="5.10225">
        <ele>566.2</ele>
        <time>1970-01-01T01:48:14.000Z</time>
      </trkpt>
      <trkpt lat="44.78153" lon="5.10228">
        <ele>566.2</ele>
        <time>1970-01-01T01:48:15.000Z</time>
      </trkpt>
      <trkpt lat="44.78152" lon="5.1023">
        <ele>566.2</ele>
        <time>1970-01-01T01:48:16.000Z</time>
      </trkpt>
      <trkpt lat="44.78151" lon="5.10233">
        <ele>566.2</ele>
        <time>1970-01-01T01:48:17.000Z</time>
      </trkpt>
      <trkpt lat="44.78149" lon="5.10234">
        <ele>566.2</ele>
        <time>1970-01-01T01:48:18.000Z</time>
      </trkpt>
      <trkpt lat="44.78148" lon="5.10236">
        <ele>566.2</ele>
        <time>1970-01-01T01:48:19.000Z</time>
      </trkpt>
      <trkpt lat="44.78147" lon="5.10238">
        <ele>566.2</ele>
        <time>1970-01-01T01:48:20.000Z</time>
      </trkpt>
      <trkpt lat="44.78145" lon="5.1024">
        <ele>566.4</ele>
        <time>1970-01-01T01:48:21.000Z</time>
      </trkpt>
      <trkpt lat="44.78144" lon="5.10243">
        <ele>566.6</ele>
        <time>1970-01-01T01:48:22.000Z</time>
      </trkpt>
      <trkpt lat="44.78142" lon="5.10246">
        <ele>566.6</ele>
        <time>1970-01-01T01:48:23.000Z</time>
      </trkpt>
      <trkpt lat="44.7814" lon="5.10248">
        <ele>566.8</ele>
        <time>1970-01-01T01:48:24.000Z</time>
      </trkpt>
      <trkpt lat="44.78138" lon="5.10251">
        <ele>566.8</ele>
        <time>1970-01-01T01:48:25.000Z</time>
      </trkpt>
      <trkpt lat="44.78136" lon="5.10253">
        <ele>566.8</ele>
        <time>1970-01-01T01:48:26.000Z</time>
      </trkpt>
      <trkpt lat="44.78134" lon="5.10254">
        <ele>566.8</ele>
        <time>1970-01-01T01:48:27.000Z</time>
      </trkpt>
      <trkpt lat="44.78133" lon="5.10255">
        <ele>567.4</ele>
        <time>1970-01-01T01:48:28.000Z</time>
      </trkpt>
      <trkpt lat="44.78131" lon="5.10256">
        <ele>567.6</ele>
        <time>1970-01-01T01:48:29.000Z</time>
      </trkpt>
      <trkpt lat="44.7813" lon="5.10258">
        <ele>568</ele>
        <time>1970-01-01T01:48:30.000Z</time>
      </trkpt>
      <trkpt lat="44.78128" lon="5.10261">
        <ele>568.4</ele>
        <time>1970-01-01T01:48:31.000Z</time>
      </trkpt>
      <trkpt lat="44.78126" lon="5.10262">
        <ele>569</ele>
        <time>1970-01-01T01:48:32.000Z</time>
      </trkpt>
      <trkpt lat="44.78125" lon="5.10263">
        <ele>569.2</ele>
        <time>1970-01-01T01:48:33.000Z</time>
      </trkpt>
      <trkpt lat="44.78123" lon="5.10267">
        <ele>569.6</ele>
        <time>1970-01-01T01:48:34.000Z</time>
      </trkpt>
      <trkpt lat="44.7812" lon="5.10269">
        <ele>569.8</ele>
        <time>1970-01-01T01:48:35.000Z</time>
      </trkpt>
      <trkpt lat="44.78118" lon="5.10271">
        <ele>570.2</ele>
        <time>1970-01-01T01:48:36.000Z</time>
      </trkpt>
      <trkpt lat="44.78116" lon="5.10272">
        <ele>570.6</ele>
        <time>1970-01-01T01:48:37.000Z</time>
      </trkpt>
      <trkpt lat="44.78114" lon="5.10273">
        <ele>571</ele>
        <time>1970-01-01T01:48:38.000Z</time>
      </trkpt>
      <trkpt lat="44.78112" lon="5.10273">
        <ele>571.2</ele>
        <time>1970-01-01T01:48:39.000Z</time>
      </trkpt>
      <trkpt lat="44.7811" lon="5.10272">
        <ele>571.4</ele>
        <time>1970-01-01T01:48:40.000Z</time>
      </trkpt>
      <trkpt lat="44.78109" lon="5.10272">
        <ele>571.6</ele>
        <time>1970-01-01T01:48:41.000Z</time>
      </trkpt>
      <trkpt lat="44.78107" lon="5.10272">
        <ele>571.8</ele>
        <time>1970-01-01T01:48:42.000Z</time>
      </trkpt>
      <trkpt lat="44.78106" lon="5.10271">
        <ele>572</ele>
        <time>1970-01-01T01:48:43.000Z</time>
      </trkpt>
      <trkpt lat="44.78104" lon="5.1027">
        <ele>572.4</ele>
        <time>1970-01-01T01:48:44.000Z</time>
      </trkpt>
      <trkpt lat="44.78102" lon="5.10268">
        <ele>572.8</ele>
        <time>1970-01-01T01:48:45.000Z</time>
      </trkpt>
      <trkpt lat="44.78101" lon="5.10267">
        <ele>573.2</ele>
        <time>1970-01-01T01:48:46.000Z</time>
      </trkpt>
      <trkpt lat="44.78099" lon="5.10266">
        <ele>573.6</ele>
        <time>1970-01-01T01:48:47.000Z</time>
      </trkpt>
      <trkpt lat="44.78097" lon="5.10265">
        <ele>573.8</ele>
        <time>1970-01-01T01:48:48.000Z</time>
      </trkpt>
      <trkpt lat="44.78094" lon="5.10263">
        <ele>574.4</ele>
        <time>1970-01-01T01:48:49.000Z</time>
      </trkpt>
      <trkpt lat="44.78093" lon="5.10261">
        <ele>574.8</ele>
        <time>1970-01-01T01:48:50.000Z</time>
      </trkpt>
      <trkpt lat="44.7809" lon="5.1026">
        <ele>575.2</ele>
        <time>1970-01-01T01:48:51.000Z</time>
      </trkpt>
      <trkpt lat="44.78089" lon="5.10259">
        <ele>575.6</ele>
        <time>1970-01-01T01:48:52.000Z</time>
      </trkpt>
      <trkpt lat="44.78088" lon="5.10258">
        <ele>576</ele>
        <time>1970-01-01T01:48:53.000Z</time>
      </trkpt>
      <trkpt lat="44.78087" lon="5.10256">
        <ele>576.6</ele>
        <time>1970-01-01T01:48:54.000Z</time>
      </trkpt>
      <trkpt lat="44.78085" lon="5.10255">
        <ele>577.2</ele>
        <time>1970-01-01T01:48:55.000Z</time>
      </trkpt>
      <trkpt lat="44.78084" lon="5.10254">
        <ele>577.6</ele>
        <time>1970-01-01T01:48:56.000Z</time>
      </trkpt>
      <trkpt lat="44.78082" lon="5.10253">
        <ele>578.2</ele>
        <time>1970-01-01T01:48:57.000Z</time>
      </trkpt>
      <trkpt lat="44.7808" lon="5.10251">
        <ele>578.8</ele>
        <time>1970-01-01T01:48:58.000Z</time>
      </trkpt>
      <trkpt lat="44.78079" lon="5.1025">
        <ele>579.4</ele>
        <time>1970-01-01T01:48:59.000Z</time>
      </trkpt>
      <trkpt lat="44.78077" lon="5.10249">
        <ele>580</ele>
        <time>1970-01-01T01:49:00.000Z</time>
      </trkpt>
      <trkpt lat="44.78075" lon="5.10248">
        <ele>580.6</ele>
        <time>1970-01-01T01:49:01.000Z</time>
      </trkpt>
      <trkpt lat="44.78073" lon="5.10247">
        <ele>580.8</ele>
        <time>1970-01-01T01:49:02.000Z</time>
      </trkpt>
      <trkpt lat="44.78071" lon="5.10247">
        <ele>582</ele>
        <time>1970-01-01T01:49:03.000Z</time>
      </trkpt>
      <trkpt lat="44.78069" lon="5.10246">
        <ele>582.6</ele>
        <time>1970-01-01T01:49:04.000Z</time>
      </trkpt>
      <trkpt lat="44.78067" lon="5.10245">
        <ele>583.2</ele>
        <time>1970-01-01T01:49:05.000Z</time>
      </trkpt>
      <trkpt lat="44.78066" lon="5.10244">
        <ele>583.4</ele>
        <time>1970-01-01T01:49:06.000Z</time>
      </trkpt>
      <trkpt lat="44.78064" lon="5.10243">
        <ele>584</ele>
        <time>1970-01-01T01:49:07.000Z</time>
      </trkpt>
      <trkpt lat="44.78062" lon="5.10242">
        <ele>584.6</ele>
        <time>1970-01-01T01:49:08.000Z</time>
      </trkpt>
      <trkpt lat="44.7806" lon="5.10241">
        <ele>585</ele>
        <time>1970-01-01T01:49:09.000Z</time>
      </trkpt>
      <trkpt lat="44.78058" lon="5.1024">
        <ele>586</ele>
        <time>1970-01-01T01:49:10.000Z</time>
      </trkpt>
      <trkpt lat="44.78056" lon="5.10239">
        <ele>586.4</ele>
        <time>1970-01-01T01:49:11.000Z</time>
      </trkpt>
      <trkpt lat="44.78054" lon="5.10238">
        <ele>587</ele>
        <time>1970-01-01T01:49:12.000Z</time>
      </trkpt>
      <trkpt lat="44.78053" lon="5.10238">
        <ele>587.2</ele>
        <time>1970-01-01T01:49:13.000Z</time>
      </trkpt>
      <trkpt lat="44.78051" lon="5.10237">
        <ele>587.4</ele>
        <time>1970-01-01T01:49:14.000Z</time>
      </trkpt>
      <trkpt lat="44.78047" lon="5.10237">
        <ele>587.6</ele>
        <time>1970-01-01T01:49:15.000Z</time>
      </trkpt>
      <trkpt lat="44.78046" lon="5.10237">
        <ele>588</ele>
        <time>1970-01-01T01:49:16.000Z</time>
      </trkpt>
      <trkpt lat="44.78044" lon="5.10235">
        <ele>588.2</ele>
        <time>1970-01-01T01:49:17.000Z</time>
      </trkpt>
      <trkpt lat="44.78042" lon="5.10234">
        <ele>588.4</ele>
        <time>1970-01-01T01:49:18.000Z</time>
      </trkpt>
      <trkpt lat="44.78042" lon="5.10232">
        <ele>588.8</ele>
        <time>1970-01-01T01:49:19.000Z</time>
      </trkpt>
      <trkpt lat="44.78043" lon="5.1023">
        <ele>589.2</ele>
        <time>1970-01-01T01:49:20.000Z</time>
      </trkpt>
      <trkpt lat="44.78046" lon="5.10228">
        <ele>589.8</ele>
        <time>1970-01-01T01:49:21.000Z</time>
      </trkpt>
      <trkpt lat="44.78048" lon="5.10227">
        <ele>590</ele>
        <time>1970-01-01T01:49:22.000Z</time>
      </trkpt>
      <trkpt lat="44.78049" lon="5.10226">
        <ele>590.6</ele>
        <time>1970-01-01T01:49:23.000Z</time>
      </trkpt>
      <trkpt lat="44.78051" lon="5.10226">
        <ele>591.2</ele>
        <time>1970-01-01T01:49:24.000Z</time>
      </trkpt>
      <trkpt lat="44.78054" lon="5.10225">
        <ele>591.6</ele>
        <time>1970-01-01T01:49:25.000Z</time>
      </trkpt>
      <trkpt lat="44.78055" lon="5.10225">
        <ele>592</ele>
        <time>1970-01-01T01:49:26.000Z</time>
      </trkpt>
      <trkpt lat="44.78058" lon="5.10224">
        <ele>592.4</ele>
        <time>1970-01-01T01:49:27.000Z</time>
      </trkpt>
      <trkpt lat="44.78059" lon="5.10223">
        <ele>592.8</ele>
        <time>1970-01-01T01:49:28.000Z</time>
      </trkpt>
      <trkpt lat="44.7806" lon="5.10222">
        <ele>593.2</ele>
        <time>1970-01-01T01:49:29.000Z</time>
      </trkpt>
      <trkpt lat="44.78061" lon="5.1022">
        <ele>593.8</ele>
        <time>1970-01-01T01:49:30.000Z</time>
      </trkpt>
      <trkpt lat="44.78062" lon="5.1022">
        <ele>594</ele>
        <time>1970-01-01T01:49:31.000Z</time>
      </trkpt>
      <trkpt lat="44.78063" lon="5.10219">
        <ele>594.2</ele>
        <time>1970-01-01T01:49:32.000Z</time>
      </trkpt>
      <trkpt lat="44.78063" lon="5.10218">
        <ele>594.6</ele>
        <time>1970-01-01T01:49:33.000Z</time>
      </trkpt>
      <trkpt lat="44.78064" lon="5.10217">
        <ele>594.8</ele>
        <time>1970-01-01T01:49:34.000Z</time>
      </trkpt>
      <trkpt lat="44.78065" lon="5.10216">
        <ele>595</ele>
        <time>1970-01-01T01:49:35.000Z</time>
      </trkpt>
      <trkpt lat="44.78066" lon="5.10214">
        <ele>595.2</ele>
        <time>1970-01-01T01:49:36.000Z</time>
      </trkpt>
      <trkpt lat="44.78067" lon="5.10213">
        <ele>595.4</ele>
        <time>1970-01-01T01:49:37.000Z</time>
      </trkpt>
      <trkpt lat="44.78068" lon="5.10212">
        <ele>595.6</ele>
        <time>1970-01-01T01:49:38.000Z</time>
      </trkpt>
      <trkpt lat="44.7807" lon="5.10211">
        <ele>596</ele>
        <time>1970-01-01T01:49:39.000Z</time>
      </trkpt>
      <trkpt lat="44.78072" lon="5.1021">
        <ele>596.2</ele>
        <time>1970-01-01T01:49:40.000Z</time>
      </trkpt>
      <trkpt lat="44.78074" lon="5.10208">
        <ele>596.8</ele>
        <time>1970-01-01T01:49:41.000Z</time>
      </trkpt>
      <trkpt lat="44.78076" lon="5.10207">
        <ele>597.2</ele>
        <time>1970-01-01T01:49:42.000Z</time>
      </trkpt>
      <trkpt lat="44.78078" lon="5.10207">
        <ele>597.4</ele>
        <time>1970-01-01T01:49:43.000Z</time>
      </trkpt>
      <trkpt lat="44.7808" lon="5.10206">
        <ele>598.2</ele>
        <time>1970-01-01T01:49:44.000Z</time>
      </trkpt>
      <trkpt lat="44.78082" lon="5.10204">
        <ele>598.6</ele>
        <time>1970-01-01T01:49:45.000Z</time>
      </trkpt>
      <trkpt lat="44.78084" lon="5.10203">
        <ele>599</ele>
        <time>1970-01-01T01:49:46.000Z</time>
      </trkpt>
      <trkpt lat="44.78087" lon="5.10201">
        <ele>599.8</ele>
        <time>1970-01-01T01:49:47.000Z</time>
      </trkpt>
      <trkpt lat="44.78088" lon="5.102">
        <ele>600.2</ele>
        <time>1970-01-01T01:49:48.000Z</time>
      </trkpt>
      <trkpt lat="44.7809" lon="5.10198">
        <ele>600.6</ele>
        <time>1970-01-01T01:49:49.000Z</time>
      </trkpt>
      <trkpt lat="44.78092" lon="5.10196">
        <ele>601</ele>
        <time>1970-01-01T01:49:50.000Z</time>
      </trkpt>
      <trkpt lat="44.78095" lon="5.10195">
        <ele>601.4</ele>
        <time>1970-01-01T01:49:51.000Z</time>
      </trkpt>
      <trkpt lat="44.78097" lon="5.10193">
        <ele>601.6</ele>
        <time>1970-01-01T01:49:52.000Z</time>
      </trkpt>
      <trkpt lat="44.78099" lon="5.10191">
        <ele>601.8</ele>
        <time>1970-01-01T01:49:53.000Z</time>
      </trkpt>
      <trkpt lat="44.781" lon="5.1019">
        <ele>602.2</ele>
        <time>1970-01-01T01:49:54.000Z</time>
      </trkpt>
      <trkpt lat="44.78102" lon="5.10188">
        <ele>602.4</ele>
        <time>1970-01-01T01:49:55.000Z</time>
      </trkpt>
      <trkpt lat="44.78103" lon="5.10187">
        <ele>602.4</ele>
        <time>1970-01-01T01:49:56.000Z</time>
      </trkpt>
      <trkpt lat="44.78105" lon="5.10184">
        <ele>602.4</ele>
        <time>1970-01-01T01:49:57.000Z</time>
      </trkpt>
      <trkpt lat="44.78107" lon="5.10181">
        <ele>602.2</ele>
        <time>1970-01-01T01:49:58.000Z</time>
      </trkpt>
      <trkpt lat="44.78109" lon="5.10178">
        <ele>602</ele>
        <time>1970-01-01T01:49:59.000Z</time>
      </trkpt>
      <trkpt lat="44.78111" lon="5.10174">
        <ele>601.8</ele>
        <time>1970-01-01T01:50:00.000Z</time>
      </trkpt>
      <trkpt lat="44.78114" lon="5.10169">
        <ele>601.6</ele>
        <time>1970-01-01T01:50:01.000Z</time>
      </trkpt>
      <trkpt lat="44.78115" lon="5.10164">
        <ele>601.4</ele>
        <time>1970-01-01T01:50:02.000Z</time>
      </trkpt>
      <trkpt lat="44.78117" lon="5.10159">
        <ele>601.2</ele>
        <time>1970-01-01T01:50:03.000Z</time>
      </trkpt>
      <trkpt lat="44.7812" lon="5.10153">
        <ele>601</ele>
        <time>1970-01-01T01:50:04.000Z</time>
      </trkpt>
      <trkpt lat="44.78123" lon="5.10148">
        <ele>601</ele>
        <time>1970-01-01T01:50:05.000Z</time>
      </trkpt>
      <trkpt lat="44.78126" lon="5.10145">
        <ele>600.8</ele>
        <time>1970-01-01T01:50:06.000Z</time>
      </trkpt>
      <trkpt lat="44.78127" lon="5.10142">
        <ele>601</ele>
        <time>1970-01-01T01:50:07.000Z</time>
      </trkpt>
      <trkpt lat="44.78129" lon="5.10139">
        <ele>601.2</ele>
        <time>1970-01-01T01:50:08.000Z</time>
      </trkpt>
      <trkpt lat="44.78129" lon="5.10135">
        <ele>601.2</ele>
        <time>1970-01-01T01:50:09.000Z</time>
      </trkpt>
      <trkpt lat="44.7813" lon="5.10132">
        <ele>601.4</ele>
        <time>1970-01-01T01:50:10.000Z</time>
      </trkpt>
      <trkpt lat="44.78131" lon="5.10128">
        <ele>601.6</ele>
        <time>1970-01-01T01:50:11.000Z</time>
      </trkpt>
      <trkpt lat="44.78131" lon="5.10123">
        <ele>601.6</ele>
        <time>1970-01-01T01:50:12.000Z</time>
      </trkpt>
      <trkpt lat="44.78132" lon="5.10119">
        <ele>601.6</ele>
        <time>1970-01-01T01:50:13.000Z</time>
      </trkpt>
      <trkpt lat="44.78135" lon="5.10115">
        <ele>601.8</ele>
        <time>1970-01-01T01:50:14.000Z</time>
      </trkpt>
      <trkpt lat="44.78138" lon="5.10109">
        <ele>602</ele>
        <time>1970-01-01T01:50:16.000Z</time>
      </trkpt>
      <trkpt lat="44.78141" lon="5.10106">
        <ele>602.2</ele>
        <time>1970-01-01T01:50:17.000Z</time>
      </trkpt>
      <trkpt lat="44.78142" lon="5.10105">
        <ele>602.2</ele>
        <time>1970-01-01T01:50:18.000Z</time>
      </trkpt>
      <trkpt lat="44.78146" lon="5.10104">
        <ele>602.4</ele>
        <time>1970-01-01T01:50:19.000Z</time>
      </trkpt>
      <trkpt lat="44.78151" lon="5.10103">
        <ele>602.6</ele>
        <time>1970-01-01T01:50:20.000Z</time>
      </trkpt>
      <trkpt lat="44.78153" lon="5.10103">
        <ele>602.8</ele>
        <time>1970-01-01T01:50:21.000Z</time>
      </trkpt>
      <trkpt lat="44.78156" lon="5.10103">
        <ele>603.2</ele>
        <time>1970-01-01T01:50:22.000Z</time>
      </trkpt>
      <trkpt lat="44.78165" lon="5.10104">
        <ele>603.6</ele>
        <time>1970-01-01T01:50:24.000Z</time>
      </trkpt>
      <trkpt lat="44.78168" lon="5.10104">
        <ele>603.6</ele>
        <time>1970-01-01T01:50:25.000Z</time>
      </trkpt>
      <trkpt lat="44.78171" lon="5.10105">
        <ele>604.2</ele>
        <time>1970-01-01T01:50:26.000Z</time>
      </trkpt>
      <trkpt lat="44.78173" lon="5.10105">
        <ele>604.6</ele>
        <time>1970-01-01T01:50:27.000Z</time>
      </trkpt>
      <trkpt lat="44.78175" lon="5.10103">
        <ele>605.2</ele>
        <time>1970-01-01T01:50:28.000Z</time>
      </trkpt>
      <trkpt lat="44.78177" lon="5.10103">
        <ele>606</ele>
        <time>1970-01-01T01:50:29.000Z</time>
      </trkpt>
      <trkpt lat="44.7818" lon="5.10102">
        <ele>606.4</ele>
        <time>1970-01-01T01:50:30.000Z</time>
      </trkpt>
      <trkpt lat="44.78182" lon="5.10101">
        <ele>606.8</ele>
        <time>1970-01-01T01:50:31.000Z</time>
      </trkpt>
      <trkpt lat="44.78184" lon="5.10099">
        <ele>606.8</ele>
        <time>1970-01-01T01:50:32.000Z</time>
      </trkpt>
      <trkpt lat="44.78186" lon="5.10097">
        <ele>607</ele>
        <time>1970-01-01T01:50:33.000Z</time>
      </trkpt>
      <trkpt lat="44.78188" lon="5.10096">
        <ele>607.4</ele>
        <time>1970-01-01T01:50:34.000Z</time>
      </trkpt>
      <trkpt lat="44.7819" lon="5.10094">
        <ele>607.6</ele>
        <time>1970-01-01T01:50:35.000Z</time>
      </trkpt>
      <trkpt lat="44.78195" lon="5.10091">
        <ele>607.8</ele>
        <time>1970-01-01T01:50:36.000Z</time>
      </trkpt>
      <trkpt lat="44.78198" lon="5.10087">
        <ele>608</ele>
        <time>1970-01-01T01:50:37.000Z</time>
      </trkpt>
      <trkpt lat="44.78201" lon="5.10085">
        <ele>608.4</ele>
        <time>1970-01-01T01:50:38.000Z</time>
      </trkpt>
      <trkpt lat="44.78204" lon="5.10081">
        <ele>609</ele>
        <time>1970-01-01T01:50:39.000Z</time>
      </trkpt>
      <trkpt lat="44.78207" lon="5.10079">
        <ele>609.4</ele>
        <time>1970-01-01T01:50:40.000Z</time>
      </trkpt>
      <trkpt lat="44.78208" lon="5.10075">
        <ele>609.8</ele>
        <time>1970-01-01T01:50:41.000Z</time>
      </trkpt>
      <trkpt lat="44.78207" lon="5.10072">
        <ele>610.2</ele>
        <time>1970-01-01T01:50:42.000Z</time>
      </trkpt>
      <trkpt lat="44.78207" lon="5.10071">
        <ele>610.6</ele>
        <time>1970-01-01T01:50:43.000Z</time>
      </trkpt>
      <trkpt lat="44.78208" lon="5.10068">
        <ele>610.8</ele>
        <time>1970-01-01T01:50:44.000Z</time>
      </trkpt>
      <trkpt lat="44.7821" lon="5.10065">
        <ele>611</ele>
        <time>1970-01-01T01:50:45.000Z</time>
      </trkpt>
      <trkpt lat="44.78212" lon="5.10063">
        <ele>611</ele>
        <time>1970-01-01T01:50:46.000Z</time>
      </trkpt>
      <trkpt lat="44.78214" lon="5.10059">
        <ele>611</ele>
        <time>1970-01-01T01:50:47.000Z</time>
      </trkpt>
      <trkpt lat="44.78217" lon="5.10057">
        <ele>611</ele>
        <time>1970-01-01T01:50:48.000Z</time>
      </trkpt>
      <trkpt lat="44.78219" lon="5.10055">
        <ele>611</ele>
        <time>1970-01-01T01:50:49.000Z</time>
      </trkpt>
      <trkpt lat="44.78221" lon="5.10052">
        <ele>610.8</ele>
        <time>1970-01-01T01:50:50.000Z</time>
      </trkpt>
      <trkpt lat="44.78223" lon="5.10049">
        <ele>610.6</ele>
        <time>1970-01-01T01:50:51.000Z</time>
      </trkpt>
      <trkpt lat="44.78224" lon="5.10047">
        <ele>610.6</ele>
        <time>1970-01-01T01:50:52.000Z</time>
      </trkpt>
      <trkpt lat="44.78225" lon="5.10044">
        <ele>610.4</ele>
        <time>1970-01-01T01:50:53.000Z</time>
      </trkpt>
      <trkpt lat="44.78227" lon="5.10041">
        <ele>610.2</ele>
        <time>1970-01-01T01:50:54.000Z</time>
      </trkpt>
      <trkpt lat="44.7823" lon="5.10037">
        <ele>610</ele>
        <time>1970-01-01T01:50:55.000Z</time>
      </trkpt>
      <trkpt lat="44.78233" lon="5.10033">
        <ele>609.8</ele>
        <time>1970-01-01T01:50:56.000Z</time>
      </trkpt>
      <trkpt lat="44.78236" lon="5.10028">
        <ele>609.8</ele>
        <time>1970-01-01T01:50:57.000Z</time>
      </trkpt>
      <trkpt lat="44.78239" lon="5.10024">
        <ele>609.8</ele>
        <time>1970-01-01T01:50:58.000Z</time>
      </trkpt>
      <trkpt lat="44.78242" lon="5.1002">
        <ele>609.8</ele>
        <time>1970-01-01T01:50:59.000Z</time>
      </trkpt>
      <trkpt lat="44.78244" lon="5.10017">
        <ele>609.8</ele>
        <time>1970-01-01T01:51:00.000Z</time>
      </trkpt>
      <trkpt lat="44.78246" lon="5.10013">
        <ele>610</ele>
        <time>1970-01-01T01:51:01.000Z</time>
      </trkpt>
      <trkpt lat="44.78248" lon="5.10011">
        <ele>610</ele>
        <time>1970-01-01T01:51:02.000Z</time>
      </trkpt>
      <trkpt lat="44.78255" lon="5.10001">
        <ele>610.8</ele>
        <time>1970-01-01T01:51:05.000Z</time>
      </trkpt>
      <trkpt lat="44.78258" lon="5.09998">
        <ele>611</ele>
        <time>1970-01-01T01:51:06.000Z</time>
      </trkpt>
      <trkpt lat="44.78261" lon="5.09996">
        <ele>611.4</ele>
        <time>1970-01-01T01:51:07.000Z</time>
      </trkpt>
      <trkpt lat="44.78266" lon="5.09994">
        <ele>611.8</ele>
        <time>1970-01-01T01:51:08.000Z</time>
      </trkpt>
      <trkpt lat="44.78269" lon="5.09993">
        <ele>612.2</ele>
        <time>1970-01-01T01:51:09.000Z</time>
      </trkpt>
      <trkpt lat="44.78271" lon="5.09991">
        <ele>612.4</ele>
        <time>1970-01-01T01:51:10.000Z</time>
      </trkpt>
      <trkpt lat="44.78274" lon="5.09989">
        <ele>613.2</ele>
        <time>1970-01-01T01:51:11.000Z</time>
      </trkpt>
      <trkpt lat="44.78278" lon="5.09987">
        <ele>613.8</ele>
        <time>1970-01-01T01:51:12.000Z</time>
      </trkpt>
      <trkpt lat="44.78281" lon="5.09985">
        <ele>614.2</ele>
        <time>1970-01-01T01:51:13.000Z</time>
      </trkpt>
      <trkpt lat="44.78286" lon="5.09983">
        <ele>614.6</ele>
        <time>1970-01-01T01:51:14.000Z</time>
      </trkpt>
      <trkpt lat="44.78289" lon="5.09982">
        <ele>615.2</ele>
        <time>1970-01-01T01:51:15.000Z</time>
      </trkpt>
      <trkpt lat="44.78292" lon="5.09982">
        <ele>615.6</ele>
        <time>1970-01-01T01:51:16.000Z</time>
      </trkpt>
      <trkpt lat="44.78295" lon="5.09981">
        <ele>616.4</ele>
        <time>1970-01-01T01:51:17.000Z</time>
      </trkpt>
      <trkpt lat="44.78297" lon="5.09981">
        <ele>616.8</ele>
        <time>1970-01-01T01:51:18.000Z</time>
      </trkpt>
      <trkpt lat="44.78299" lon="5.0998">
        <ele>617.2</ele>
        <time>1970-01-01T01:51:19.000Z</time>
      </trkpt>
      <trkpt lat="44.783" lon="5.0998">
        <ele>617.6</ele>
        <time>1970-01-01T01:51:20.000Z</time>
      </trkpt>
      <trkpt lat="44.78302" lon="5.0998">
        <ele>617.8</ele>
        <time>1970-01-01T01:51:21.000Z</time>
      </trkpt>
      <trkpt lat="44.78305" lon="5.0998">
        <ele>618</ele>
        <time>1970-01-01T01:51:22.000Z</time>
      </trkpt>
      <trkpt lat="44.78308" lon="5.0998">
        <ele>618.4</ele>
        <time>1970-01-01T01:51:23.000Z</time>
      </trkpt>
      <trkpt lat="44.78313" lon="5.09979">
        <ele>618.4</ele>
        <time>1970-01-01T01:51:24.000Z</time>
      </trkpt>
      <trkpt lat="44.78316" lon="5.09979">
        <ele>619</ele>
        <time>1970-01-01T01:51:25.000Z</time>
      </trkpt>
      <trkpt lat="44.78319" lon="5.0998">
        <ele>619.4</ele>
        <time>1970-01-01T01:51:26.000Z</time>
      </trkpt>
      <trkpt lat="44.78323" lon="5.0998">
        <ele>620</ele>
        <time>1970-01-01T01:51:27.000Z</time>
      </trkpt>
      <trkpt lat="44.78325" lon="5.0998">
        <ele>620.4</ele>
        <time>1970-01-01T01:51:28.000Z</time>
      </trkpt>
      <trkpt lat="44.78327" lon="5.0998">
        <ele>621.2</ele>
        <time>1970-01-01T01:51:29.000Z</time>
      </trkpt>
      <trkpt lat="44.78328" lon="5.09978">
        <ele>622</ele>
        <time>1970-01-01T01:51:30.000Z</time>
      </trkpt>
      <trkpt lat="44.78328" lon="5.09974">
        <ele>622.8</ele>
        <time>1970-01-01T01:51:31.000Z</time>
      </trkpt>
      <trkpt lat="44.78328" lon="5.09971">
        <ele>623.2</ele>
        <time>1970-01-01T01:51:32.000Z</time>
      </trkpt>
      <trkpt lat="44.78328" lon="5.09968">
        <ele>623.8</ele>
        <time>1970-01-01T01:51:33.000Z</time>
      </trkpt>
      <trkpt lat="44.78327" lon="5.09965">
        <ele>624</ele>
        <time>1970-01-01T01:51:34.000Z</time>
      </trkpt>
      <trkpt lat="44.78325" lon="5.09963">
        <ele>624.4</ele>
        <time>1970-01-01T01:51:35.000Z</time>
      </trkpt>
      <trkpt lat="44.78323" lon="5.09961">
        <ele>624.8</ele>
        <time>1970-01-01T01:51:36.000Z</time>
      </trkpt>
      <trkpt lat="44.78321" lon="5.09959">
        <ele>625.6</ele>
        <time>1970-01-01T01:51:37.000Z</time>
      </trkpt>
      <trkpt lat="44.78319" lon="5.09956">
        <ele>626</ele>
        <time>1970-01-01T01:51:38.000Z</time>
      </trkpt>
      <trkpt lat="44.78317" lon="5.09954">
        <ele>626.8</ele>
        <time>1970-01-01T01:51:39.000Z</time>
      </trkpt>
      <trkpt lat="44.78314" lon="5.09952">
        <ele>627</ele>
        <time>1970-01-01T01:51:40.000Z</time>
      </trkpt>
      <trkpt lat="44.78312" lon="5.09949">
        <ele>627.4</ele>
        <time>1970-01-01T01:51:41.000Z</time>
      </trkpt>
      <trkpt lat="44.78309" lon="5.09948">
        <ele>627.6</ele>
        <time>1970-01-01T01:51:42.000Z</time>
      </trkpt>
      <trkpt lat="44.78306" lon="5.09946">
        <ele>627.6</ele>
        <time>1970-01-01T01:51:43.000Z</time>
      </trkpt>
      <trkpt lat="44.78303" lon="5.09945">
        <ele>627.6</ele>
        <time>1970-01-01T01:51:44.000Z</time>
      </trkpt>
      <trkpt lat="44.78301" lon="5.09943">
        <ele>627.8</ele>
        <time>1970-01-01T01:51:45.000Z</time>
      </trkpt>
      <trkpt lat="44.78298" lon="5.09942">
        <ele>628.2</ele>
        <time>1970-01-01T01:51:46.000Z</time>
      </trkpt>
      <trkpt lat="44.78296" lon="5.0994">
        <ele>628.8</ele>
        <time>1970-01-01T01:51:47.000Z</time>
      </trkpt>
      <trkpt lat="44.78293" lon="5.09939">
        <ele>629.2</ele>
        <time>1970-01-01T01:51:48.000Z</time>
      </trkpt>
      <trkpt lat="44.78291" lon="5.09937">
        <ele>629.6</ele>
        <time>1970-01-01T01:51:49.000Z</time>
      </trkpt>
      <trkpt lat="44.78288" lon="5.09935">
        <ele>630</ele>
        <time>1970-01-01T01:51:50.000Z</time>
      </trkpt>
      <trkpt lat="44.78285" lon="5.09934">
        <ele>630.2</ele>
        <time>1970-01-01T01:51:51.000Z</time>
      </trkpt>
      <trkpt lat="44.78283" lon="5.09933">
        <ele>630.4</ele>
        <time>1970-01-01T01:51:52.000Z</time>
      </trkpt>
      <trkpt lat="44.7828" lon="5.09932">
        <ele>630.8</ele>
        <time>1970-01-01T01:51:53.000Z</time>
      </trkpt>
      <trkpt lat="44.78278" lon="5.09932">
        <ele>631.4</ele>
        <time>1970-01-01T01:51:54.000Z</time>
      </trkpt>
      <trkpt lat="44.78276" lon="5.09931">
        <ele>631.8</ele>
        <time>1970-01-01T01:51:55.000Z</time>
      </trkpt>
      <trkpt lat="44.78273" lon="5.09931">
        <ele>632.4</ele>
        <time>1970-01-01T01:51:56.000Z</time>
      </trkpt>
      <trkpt lat="44.78271" lon="5.0993">
        <ele>633</ele>
        <time>1970-01-01T01:51:57.000Z</time>
      </trkpt>
      <trkpt lat="44.78268" lon="5.09928">
        <ele>633.6</ele>
        <time>1970-01-01T01:51:58.000Z</time>
      </trkpt>
      <trkpt lat="44.78265" lon="5.09927">
        <ele>634</ele>
        <time>1970-01-01T01:51:59.000Z</time>
      </trkpt>
      <trkpt lat="44.78263" lon="5.09927">
        <ele>634</ele>
        <time>1970-01-01T01:52:00.000Z</time>
      </trkpt>
      <trkpt lat="44.78261" lon="5.09926">
        <ele>634.4</ele>
        <time>1970-01-01T01:52:01.000Z</time>
      </trkpt>
      <trkpt lat="44.78259" lon="5.09926">
        <ele>634.6</ele>
        <time>1970-01-01T01:52:02.000Z</time>
      </trkpt>
      <trkpt lat="44.78257" lon="5.09926">
        <ele>635</ele>
        <time>1970-01-01T01:52:03.000Z</time>
      </trkpt>
      <trkpt lat="44.78254" lon="5.09926">
        <ele>635.4</ele>
        <time>1970-01-01T01:52:04.000Z</time>
      </trkpt>
      <trkpt lat="44.78252" lon="5.09926">
        <ele>636</ele>
        <time>1970-01-01T01:52:05.000Z</time>
      </trkpt>
      <trkpt lat="44.7825" lon="5.09926">
        <ele>636.6</ele>
        <time>1970-01-01T01:52:06.000Z</time>
      </trkpt>
      <trkpt lat="44.78248" lon="5.09926">
        <ele>637.2</ele>
        <time>1970-01-01T01:52:07.000Z</time>
      </trkpt>
      <trkpt lat="44.78245" lon="5.09926">
        <ele>637.8</ele>
        <time>1970-01-01T01:52:08.000Z</time>
      </trkpt>
      <trkpt lat="44.78243" lon="5.09926">
        <ele>638.4</ele>
        <time>1970-01-01T01:52:09.000Z</time>
      </trkpt>
      <trkpt lat="44.78241" lon="5.09926">
        <ele>639</ele>
        <time>1970-01-01T01:52:10.000Z</time>
      </trkpt>
      <trkpt lat="44.78239" lon="5.09926">
        <ele>639.4</ele>
        <time>1970-01-01T01:52:11.000Z</time>
      </trkpt>
      <trkpt lat="44.78236" lon="5.09926">
        <ele>639.8</ele>
        <time>1970-01-01T01:52:12.000Z</time>
      </trkpt>
      <trkpt lat="44.78233" lon="5.09927">
        <ele>640.4</ele>
        <time>1970-01-01T01:52:13.000Z</time>
      </trkpt>
      <trkpt lat="44.7823" lon="5.09927">
        <ele>640.6</ele>
        <time>1970-01-01T01:52:14.000Z</time>
      </trkpt>
      <trkpt lat="44.78227" lon="5.09928">
        <ele>641</ele>
        <time>1970-01-01T01:52:15.000Z</time>
      </trkpt>
      <trkpt lat="44.78225" lon="5.09929">
        <ele>641.6</ele>
        <time>1970-01-01T01:52:16.000Z</time>
      </trkpt>
      <trkpt lat="44.78224" lon="5.0993">
        <ele>641.8</ele>
        <time>1970-01-01T01:52:17.000Z</time>
      </trkpt>
      <trkpt lat="44.78222" lon="5.0993">
        <ele>642</ele>
        <time>1970-01-01T01:52:18.000Z</time>
      </trkpt>
      <trkpt lat="44.7822" lon="5.09931">
        <ele>642.6</ele>
        <time>1970-01-01T01:52:19.000Z</time>
      </trkpt>
      <trkpt lat="44.78217" lon="5.0993">
        <ele>643</ele>
        <time>1970-01-01T01:52:20.000Z</time>
      </trkpt>
      <trkpt lat="44.78215" lon="5.0993">
        <ele>643.4</ele>
        <time>1970-01-01T01:52:21.000Z</time>
      </trkpt>
      <trkpt lat="44.78211" lon="5.0993">
        <ele>643.8</ele>
        <time>1970-01-01T01:52:22.000Z</time>
      </trkpt>
      <trkpt lat="44.78209" lon="5.0993">
        <ele>644.4</ele>
        <time>1970-01-01T01:52:23.000Z</time>
      </trkpt>
      <trkpt lat="44.78207" lon="5.0993">
        <ele>644.8</ele>
        <time>1970-01-01T01:52:24.000Z</time>
      </trkpt>
      <trkpt lat="44.78206" lon="5.0993">
        <ele>645.6</ele>
        <time>1970-01-01T01:52:25.000Z</time>
      </trkpt>
      <trkpt lat="44.78204" lon="5.0993">
        <ele>646</ele>
        <time>1970-01-01T01:52:26.000Z</time>
      </trkpt>
      <trkpt lat="44.78203" lon="5.0993">
        <ele>646.2</ele>
        <time>1970-01-01T01:52:27.000Z</time>
      </trkpt>
      <trkpt lat="44.78201" lon="5.0993">
        <ele>646.4</ele>
        <time>1970-01-01T01:52:28.000Z</time>
      </trkpt>
      <trkpt lat="44.782" lon="5.0993">
        <ele>646.2</ele>
        <time>1970-01-01T01:52:29.000Z</time>
      </trkpt>
      <trkpt lat="44.78198" lon="5.09931">
        <ele>646.2</ele>
        <time>1970-01-01T01:52:30.000Z</time>
      </trkpt>
      <trkpt lat="44.78196" lon="5.09931">
        <ele>646.2</ele>
        <time>1970-01-01T01:52:31.000Z</time>
      </trkpt>
      <trkpt lat="44.78194" lon="5.09931">
        <ele>646.4</ele>
        <time>1970-01-01T01:52:33.000Z</time>
      </trkpt>
      <trkpt lat="44.78196" lon="5.0993">
        <ele>645</ele>
        <time>1970-01-01T02:05:49.000Z</time>
      </trkpt>
      <trkpt lat="44.78199" lon="5.09929">
        <ele>645</ele>
        <time>1970-01-01T02:05:51.000Z</time>
      </trkpt>
      <trkpt lat="44.782" lon="5.09929">
        <ele>645</ele>
        <time>1970-01-01T02:05:52.000Z</time>
      </trkpt>
      <trkpt lat="44.78204" lon="5.09927">
        <ele>645</ele>
        <time>1970-01-01T02:05:54.000Z</time>
      </trkpt>
      <trkpt lat="44.78206" lon="5.09926">
        <ele>645</ele>
        <time>1970-01-01T02:05:55.000Z</time>
      </trkpt>
      <trkpt lat="44.78212" lon="5.0992">
        <ele>645</ele>
        <time>1970-01-01T02:05:58.000Z</time>
      </trkpt>
      <trkpt lat="44.78215" lon="5.09917">
        <ele>645.4</ele>
        <time>1970-01-01T02:05:59.000Z</time>
      </trkpt>
      <trkpt lat="44.78217" lon="5.09915">
        <ele>645.6</ele>
        <time>1970-01-01T02:06:00.000Z</time>
      </trkpt>
      <trkpt lat="44.78219" lon="5.09913">
        <ele>645.8</ele>
        <time>1970-01-01T02:06:01.000Z</time>
      </trkpt>
      <trkpt lat="44.7822" lon="5.09912">
        <ele>645.8</ele>
        <time>1970-01-01T02:06:02.000Z</time>
      </trkpt>
      <trkpt lat="44.78222" lon="5.0991">
        <ele>646</ele>
        <time>1970-01-01T02:06:03.000Z</time>
      </trkpt>
      <trkpt lat="44.78223" lon="5.09908">
        <ele>646</ele>
        <time>1970-01-01T02:06:04.000Z</time>
      </trkpt>
      <trkpt lat="44.78225" lon="5.09905">
        <ele>646.2</ele>
        <time>1970-01-01T02:06:05.000Z</time>
      </trkpt>
      <trkpt lat="44.78226" lon="5.09903">
        <ele>646.4</ele>
        <time>1970-01-01T02:06:06.000Z</time>
      </trkpt>
      <trkpt lat="44.78227" lon="5.09901">
        <ele>646.6</ele>
        <time>1970-01-01T02:06:07.000Z</time>
      </trkpt>
      <trkpt lat="44.78226" lon="5.09898">
        <ele>646.8</ele>
        <time>1970-01-01T02:06:08.000Z</time>
      </trkpt>
      <trkpt lat="44.78225" lon="5.09896">
        <ele>646.8</ele>
        <time>1970-01-01T02:06:09.000Z</time>
      </trkpt>
      <trkpt lat="44.78222" lon="5.0989">
        <ele>646.8</ele>
        <time>1970-01-01T02:06:11.000Z</time>
      </trkpt>
      <trkpt lat="44.78219" lon="5.09887">
        <ele>646.6</ele>
        <time>1970-01-01T02:06:12.000Z</time>
      </trkpt>
      <trkpt lat="44.78216" lon="5.09884">
        <ele>646.6</ele>
        <time>1970-01-01T02:06:13.000Z</time>
      </trkpt>
      <trkpt lat="44.78208" lon="5.09875">
        <ele>646.8</ele>
        <time>1970-01-01T02:06:16.000Z</time>
      </trkpt>
      <trkpt lat="44.78203" lon="5.0987">
        <ele>646.8</ele>
        <time>1970-01-01T02:06:18.000Z</time>
      </trkpt>
      <trkpt lat="44.782" lon="5.09866">
        <ele>647</ele>
        <time>1970-01-01T02:06:19.000Z</time>
      </trkpt>
      <trkpt lat="44.78198" lon="5.09864">
        <ele>647.2</ele>
        <time>1970-01-01T02:06:20.000Z</time>
      </trkpt>
      <trkpt lat="44.78195" lon="5.09861">
        <ele>647.4</ele>
        <time>1970-01-01T02:06:21.000Z</time>
      </trkpt>
      <trkpt lat="44.78193" lon="5.09859">
        <ele>647.8</ele>
        <time>1970-01-01T02:06:22.000Z</time>
      </trkpt>
      <trkpt lat="44.78191" lon="5.09857">
        <ele>648</ele>
        <time>1970-01-01T02:06:23.000Z</time>
      </trkpt>
      <trkpt lat="44.78189" lon="5.09854">
        <ele>648.2</ele>
        <time>1970-01-01T02:06:24.000Z</time>
      </trkpt>
      <trkpt lat="44.78188" lon="5.09853">
        <ele>648.4</ele>
        <time>1970-01-01T02:06:25.000Z</time>
      </trkpt>
      <trkpt lat="44.78187" lon="5.09851">
        <ele>648.6</ele>
        <time>1970-01-01T02:06:26.000Z</time>
      </trkpt>
      <trkpt lat="44.78187" lon="5.0985">
        <ele>648.8</ele>
        <time>1970-01-01T02:06:27.000Z</time>
      </trkpt>
      <trkpt lat="44.78185" lon="5.09845">
        <ele>649</ele>
        <time>1970-01-01T02:06:29.000Z</time>
      </trkpt>
      <trkpt lat="44.78185" lon="5.09842">
        <ele>649.2</ele>
        <time>1970-01-01T02:06:30.000Z</time>
      </trkpt>
      <trkpt lat="44.78184" lon="5.09838">
        <ele>649.6</ele>
        <time>1970-01-01T02:06:31.000Z</time>
      </trkpt>
      <trkpt lat="44.78184" lon="5.09836">
        <ele>650.2</ele>
        <time>1970-01-01T02:06:32.000Z</time>
      </trkpt>
      <trkpt lat="44.78183" lon="5.09833">
        <ele>650.6</ele>
        <time>1970-01-01T02:06:33.000Z</time>
      </trkpt>
      <trkpt lat="44.78183" lon="5.09831">
        <ele>651</ele>
        <time>1970-01-01T02:06:34.000Z</time>
      </trkpt>
      <trkpt lat="44.78182" lon="5.09829">
        <ele>651.8</ele>
        <time>1970-01-01T02:06:35.000Z</time>
      </trkpt>
      <trkpt lat="44.78181" lon="5.09826">
        <ele>652.6</ele>
        <time>1970-01-01T02:06:36.000Z</time>
      </trkpt>
      <trkpt lat="44.78179" lon="5.09823">
        <ele>653</ele>
        <time>1970-01-01T02:06:37.000Z</time>
      </trkpt>
      <trkpt lat="44.78179" lon="5.0982">
        <ele>653.4</ele>
        <time>1970-01-01T02:06:38.000Z</time>
      </trkpt>
      <trkpt lat="44.78178" lon="5.09818">
        <ele>654</ele>
        <time>1970-01-01T02:06:39.000Z</time>
      </trkpt>
      <trkpt lat="44.78179" lon="5.09816">
        <ele>654.8</ele>
        <time>1970-01-01T02:06:40.000Z</time>
      </trkpt>
      <trkpt lat="44.7818" lon="5.09814">
        <ele>655.4</ele>
        <time>1970-01-01T02:06:41.000Z</time>
      </trkpt>
      <trkpt lat="44.78181" lon="5.09811">
        <ele>655.8</ele>
        <time>1970-01-01T02:06:42.000Z</time>
      </trkpt>
      <trkpt lat="44.78183" lon="5.09809">
        <ele>656.6</ele>
        <time>1970-01-01T02:06:43.000Z</time>
      </trkpt>
      <trkpt lat="44.78184" lon="5.09807">
        <ele>657</ele>
        <time>1970-01-01T02:06:44.000Z</time>
      </trkpt>
      <trkpt lat="44.78184" lon="5.09805">
        <ele>657.8</ele>
        <time>1970-01-01T02:06:45.000Z</time>
      </trkpt>
      <trkpt lat="44.78185" lon="5.09804">
        <ele>658.2</ele>
        <time>1970-01-01T02:06:46.000Z</time>
      </trkpt>
      <trkpt lat="44.78185" lon="5.09804">
        <ele>658.6</ele>
        <time>1970-01-01T02:06:47.000Z</time>
      </trkpt>
      <trkpt lat="44.78185" lon="5.09805">
        <ele>659</ele>
        <time>1970-01-01T02:06:49.000Z</time>
      </trkpt>
      <trkpt lat="44.78184" lon="5.09805">
        <ele>659</ele>
        <time>1970-01-01T02:06:50.000Z</time>
      </trkpt>
      <trkpt lat="44.78186" lon="5.09801">
        <ele>661.4</ele>
        <time>1970-01-01T02:07:29.000Z</time>
      </trkpt>
      <trkpt lat="44.78187" lon="5.09798">
        <ele>662.2</ele>
        <time>1970-01-01T02:07:32.000Z</time>
      </trkpt>
      <trkpt lat="44.78191" lon="5.0979">
        <ele>666</ele>
        <time>1970-01-01T02:07:52.000Z</time>
      </trkpt>
      <trkpt lat="44.78192" lon="5.09789">
        <ele>666.4</ele>
        <time>1970-01-01T02:07:53.000Z</time>
      </trkpt>
      <trkpt lat="44.78193" lon="5.09787">
        <ele>666.8</ele>
        <time>1970-01-01T02:07:54.000Z</time>
      </trkpt>
      <trkpt lat="44.78194" lon="5.09786">
        <ele>667</ele>
        <time>1970-01-01T02:07:55.000Z</time>
      </trkpt>
      <trkpt lat="44.78194" lon="5.09785">
        <ele>667.4</ele>
        <time>1970-01-01T02:07:56.000Z</time>
      </trkpt>
      <trkpt lat="44.78195" lon="5.09784">
        <ele>667.6</ele>
        <time>1970-01-01T02:07:57.000Z</time>
      </trkpt>
      <trkpt lat="44.78196" lon="5.09783">
        <ele>668</ele>
        <time>1970-01-01T02:07:58.000Z</time>
      </trkpt>
      <trkpt lat="44.78197" lon="5.09782">
        <ele>668.2</ele>
        <time>1970-01-01T02:07:59.000Z</time>
      </trkpt>
      <trkpt lat="44.78198" lon="5.09782">
        <ele>668.4</ele>
        <time>1970-01-01T02:08:00.000Z</time>
      </trkpt>
      <trkpt lat="44.78198" lon="5.09781">
        <ele>668.6</ele>
        <time>1970-01-01T02:08:01.000Z</time>
      </trkpt>
      <trkpt lat="44.78199" lon="5.0978">
        <ele>668.8</ele>
        <time>1970-01-01T02:08:02.000Z</time>
      </trkpt>
      <trkpt lat="44.78199" lon="5.09779">
        <ele>669</ele>
        <time>1970-01-01T02:08:03.000Z</time>
      </trkpt>
      <trkpt lat="44.782" lon="5.09779">
        <ele>669.2</ele>
        <time>1970-01-01T02:08:04.000Z</time>
      </trkpt>
      <trkpt lat="44.78201" lon="5.09778">
        <ele>669.6</ele>
        <time>1970-01-01T02:08:05.000Z</time>
      </trkpt>
      <trkpt lat="44.78201" lon="5.09777">
        <ele>670</ele>
        <time>1970-01-01T02:08:06.000Z</time>
      </trkpt>
      <trkpt lat="44.78202" lon="5.09777">
        <ele>670.2</ele>
        <time>1970-01-01T02:08:07.000Z</time>
      </trkpt>
      <trkpt lat="44.78203" lon="5.09776">
        <ele>670.6</ele>
        <time>1970-01-01T02:08:08.000Z</time>
      </trkpt>
      <trkpt lat="44.78204" lon="5.09775">
        <ele>671</ele>
        <time>1970-01-01T02:08:09.000Z</time>
      </trkpt>
      <trkpt lat="44.78204" lon="5.09774">
        <ele>671.2</ele>
        <time>1970-01-01T02:08:10.000Z</time>
      </trkpt>
      <trkpt lat="44.78206" lon="5.09772">
        <ele>672</ele>
        <time>1970-01-01T02:08:13.000Z</time>
      </trkpt>
      <trkpt lat="44.7821" lon="5.09769">
        <ele>673</ele>
        <time>1970-01-01T02:08:23.000Z</time>
      </trkpt>
      <trkpt lat="44.78211" lon="5.09767">
        <ele>673.4</ele>
        <time>1970-01-01T02:08:24.000Z</time>
      </trkpt>
      <trkpt lat="44.78212" lon="5.09765">
        <ele>673.6</ele>
        <time>1970-01-01T02:08:25.000Z</time>
      </trkpt>
      <trkpt lat="44.78213" lon="5.09764">
        <ele>674.2</ele>
        <time>1970-01-01T02:08:26.000Z</time>
      </trkpt>
      <trkpt lat="44.78215" lon="5.09762">
        <ele>674.6</ele>
        <time>1970-01-01T02:08:27.000Z</time>
      </trkpt>
      <trkpt lat="44.78216" lon="5.09761">
        <ele>675</ele>
        <time>1970-01-01T02:08:28.000Z</time>
      </trkpt>
      <trkpt lat="44.78218" lon="5.09759">
        <ele>675.2</ele>
        <time>1970-01-01T02:08:29.000Z</time>
      </trkpt>
      <trkpt lat="44.78219" lon="5.09758">
        <ele>675.6</ele>
        <time>1970-01-01T02:08:30.000Z</time>
      </trkpt>
      <trkpt lat="44.78221" lon="5.09756">
        <ele>676</ele>
        <time>1970-01-01T02:08:31.000Z</time>
      </trkpt>
      <trkpt lat="44.78223" lon="5.09756">
        <ele>676.6</ele>
        <time>1970-01-01T02:08:32.000Z</time>
      </trkpt>
      <trkpt lat="44.78225" lon="5.09755">
        <ele>677.2</ele>
        <time>1970-01-01T02:08:33.000Z</time>
      </trkpt>
      <trkpt lat="44.78227" lon="5.09754">
        <ele>678.2</ele>
        <time>1970-01-01T02:08:34.000Z</time>
      </trkpt>
      <trkpt lat="44.78228" lon="5.09752">
        <ele>678.6</ele>
        <time>1970-01-01T02:08:35.000Z</time>
      </trkpt>
      <trkpt lat="44.78229" lon="5.09749">
        <ele>679.2</ele>
        <time>1970-01-01T02:08:36.000Z</time>
      </trkpt>
      <trkpt lat="44.7823" lon="5.09747">
        <ele>679.6</ele>
        <time>1970-01-01T02:08:37.000Z</time>
      </trkpt>
      <trkpt lat="44.78231" lon="5.09745">
        <ele>680</ele>
        <time>1970-01-01T02:08:38.000Z</time>
      </trkpt>
      <trkpt lat="44.78232" lon="5.09743">
        <ele>680.8</ele>
        <time>1970-01-01T02:08:39.000Z</time>
      </trkpt>
      <trkpt lat="44.78233" lon="5.0974">
        <ele>681.4</ele>
        <time>1970-01-01T02:08:40.000Z</time>
      </trkpt>
      <trkpt lat="44.78234" lon="5.09737">
        <ele>681.8</ele>
        <time>1970-01-01T02:08:41.000Z</time>
      </trkpt>
      <trkpt lat="44.78235" lon="5.09734">
        <ele>682.4</ele>
        <time>1970-01-01T02:08:42.000Z</time>
      </trkpt>
      <trkpt lat="44.78235" lon="5.09731">
        <ele>682.8</ele>
        <time>1970-01-01T02:08:43.000Z</time>
      </trkpt>
      <trkpt lat="44.78236" lon="5.09729">
        <ele>683.4</ele>
        <time>1970-01-01T02:08:44.000Z</time>
      </trkpt>
      <trkpt lat="44.78236" lon="5.09726">
        <ele>684</ele>
        <time>1970-01-01T02:08:45.000Z</time>
      </trkpt>
      <trkpt lat="44.78236" lon="5.09722">
        <ele>684.4</ele>
        <time>1970-01-01T02:08:46.000Z</time>
      </trkpt>
      <trkpt lat="44.78237" lon="5.09719">
        <ele>685</ele>
        <time>1970-01-01T02:08:47.000Z</time>
      </trkpt>
      <trkpt lat="44.78238" lon="5.09717">
        <ele>685.4</ele>
        <time>1970-01-01T02:08:48.000Z</time>
      </trkpt>
      <trkpt lat="44.78238" lon="5.09714">
        <ele>685.8</ele>
        <time>1970-01-01T02:08:49.000Z</time>
      </trkpt>
      <trkpt lat="44.78238" lon="5.09711">
        <ele>686.4</ele>
        <time>1970-01-01T02:08:50.000Z</time>
      </trkpt>
      <trkpt lat="44.78238" lon="5.09711">
        <ele>687</ele>
        <time>1970-01-01T02:08:53.000Z</time>
      </trkpt>
      <trkpt lat="44.78234" lon="5.09709">
        <ele>686.8</ele>
        <time>1970-01-01T02:08:57.000Z</time>
      </trkpt>
      <trkpt lat="44.78233" lon="5.09708">
        <ele>686.8</ele>
        <time>1970-01-01T02:08:58.000Z</time>
      </trkpt>
      <trkpt lat="44.78232" lon="5.09708">
        <ele>686.8</ele>
        <time>1970-01-01T02:08:59.000Z</time>
      </trkpt>
      <trkpt lat="44.78232" lon="5.09708">
        <ele>686.6</ele>
        <time>1970-01-01T02:09:02.000Z</time>
      </trkpt>
      <trkpt lat="44.78227" lon="5.09704">
        <ele>686.8</ele>
        <time>1970-01-01T02:09:32.000Z</time>
      </trkpt>
      <trkpt lat="44.78223" lon="5.09698">
        <ele>687.2</ele>
        <time>1970-01-01T02:09:35.000Z</time>
      </trkpt>
      <trkpt lat="44.78222" lon="5.09696">
        <ele>687.8</ele>
        <time>1970-01-01T02:09:36.000Z</time>
      </trkpt>
      <trkpt lat="44.78222" lon="5.09694">
        <ele>688.2</ele>
        <time>1970-01-01T02:09:37.000Z</time>
      </trkpt>
      <trkpt lat="44.78223" lon="5.09691">
        <ele>688.6</ele>
        <time>1970-01-01T02:09:38.000Z</time>
      </trkpt>
      <trkpt lat="44.78223" lon="5.09689">
        <ele>689</ele>
        <time>1970-01-01T02:09:39.000Z</time>
      </trkpt>
      <trkpt lat="44.78223" lon="5.09687">
        <ele>689</ele>
        <time>1970-01-01T02:09:40.000Z</time>
      </trkpt>
      <trkpt lat="44.78223" lon="5.09685">
        <ele>689.4</ele>
        <time>1970-01-01T02:09:41.000Z</time>
      </trkpt>
      <trkpt lat="44.78224" lon="5.09683">
        <ele>690</ele>
        <time>1970-01-01T02:09:42.000Z</time>
      </trkpt>
      <trkpt lat="44.78224" lon="5.09682">
        <ele>690.2</ele>
        <time>1970-01-01T02:09:43.000Z</time>
      </trkpt>
      <trkpt lat="44.78224" lon="5.0968">
        <ele>690.6</ele>
        <time>1970-01-01T02:09:44.000Z</time>
      </trkpt>
      <trkpt lat="44.78225" lon="5.09679">
        <ele>691</ele>
        <time>1970-01-01T02:09:45.000Z</time>
      </trkpt>
      <trkpt lat="44.78225" lon="5.09677">
        <ele>691.2</ele>
        <time>1970-01-01T02:09:46.000Z</time>
      </trkpt>
      <trkpt lat="44.78225" lon="5.09675">
        <ele>691.4</ele>
        <time>1970-01-01T02:09:47.000Z</time>
      </trkpt>
      <trkpt lat="44.78225" lon="5.09674">
        <ele>691.6</ele>
        <time>1970-01-01T02:09:48.000Z</time>
      </trkpt>
      <trkpt lat="44.78225" lon="5.09665">
        <ele>692.8</ele>
        <time>1970-01-01T02:10:09.000Z</time>
      </trkpt>
      <trkpt lat="44.78225" lon="5.09665">
        <ele>695</ele>
        <time>1970-01-01T02:10:20.000Z</time>
      </trkpt>
      <trkpt lat="44.78224" lon="5.09663">
        <ele>695.2</ele>
        <time>1970-01-01T02:10:21.000Z</time>
      </trkpt>
      <trkpt lat="44.78223" lon="5.09662">
        <ele>695.6</ele>
        <time>1970-01-01T02:10:22.000Z</time>
      </trkpt>
      <trkpt lat="44.78223" lon="5.0966">
        <ele>695.8</ele>
        <time>1970-01-01T02:10:23.000Z</time>
      </trkpt>
      <trkpt lat="44.78223" lon="5.09658">
        <ele>696</ele>
        <time>1970-01-01T02:10:24.000Z</time>
      </trkpt>
      <trkpt lat="44.78223" lon="5.09657">
        <ele>696.2</ele>
        <time>1970-01-01T02:10:25.000Z</time>
      </trkpt>
      <trkpt lat="44.78223" lon="5.09654">
        <ele>696.8</ele>
        <time>1970-01-01T02:10:28.000Z</time>
      </trkpt>
      <trkpt lat="44.78223" lon="5.09653">
        <ele>697.4</ele>
        <time>1970-01-01T02:10:48.000Z</time>
      </trkpt>
      <trkpt lat="44.78223" lon="5.09652">
        <ele>698</ele>
        <time>1970-01-01T02:10:52.000Z</time>
      </trkpt>
      <trkpt lat="44.78223" lon="5.0965">
        <ele>698.4</ele>
        <time>1970-01-01T02:10:55.000Z</time>
      </trkpt>
      <trkpt lat="44.78207" lon="5.0965">
        <ele>693.2</ele>
        <time>1970-01-01T02:18:06.000Z</time>
      </trkpt>
      <trkpt lat="44.78204" lon="5.09652">
        <ele>693.2</ele>
        <time>1970-01-01T02:18:07.000Z</time>
      </trkpt>
      <trkpt lat="44.78201" lon="5.09658">
        <ele>693.2</ele>
        <time>1970-01-01T02:18:09.000Z</time>
      </trkpt>
      <trkpt lat="44.78199" lon="5.09662">
        <ele>693.2</ele>
        <time>1970-01-01T02:18:10.000Z</time>
      </trkpt>
      <trkpt lat="44.78197" lon="5.09665">
        <ele>693</ele>
        <time>1970-01-01T02:18:11.000Z</time>
      </trkpt>
      <trkpt lat="44.78195" lon="5.09666">
        <ele>692.8</ele>
        <time>1970-01-01T02:18:12.000Z</time>
      </trkpt>
      <trkpt lat="44.78193" lon="5.09665">
        <ele>692.6</ele>
        <time>1970-01-01T02:18:13.000Z</time>
      </trkpt>
      <trkpt lat="44.78191" lon="5.09663">
        <ele>692.4</ele>
        <time>1970-01-01T02:18:14.000Z</time>
      </trkpt>
      <trkpt lat="44.7819" lon="5.09661">
        <ele>692.4</ele>
        <time>1970-01-01T02:18:15.000Z</time>
      </trkpt>
      <trkpt lat="44.78188" lon="5.09655">
        <ele>693</ele>
        <time>1970-01-01T02:18:17.000Z</time>
      </trkpt>
      <trkpt lat="44.78186" lon="5.09653">
        <ele>693.4</ele>
        <time>1970-01-01T02:18:18.000Z</time>
      </trkpt>
      <trkpt lat="44.78185" lon="5.09652">
        <ele>694.2</ele>
        <time>1970-01-01T02:18:19.000Z</time>
      </trkpt>
      <trkpt lat="44.78183" lon="5.09652">
        <ele>694.8</ele>
        <time>1970-01-01T02:18:20.000Z</time>
      </trkpt>
      <trkpt lat="44.78182" lon="5.09652">
        <ele>695.2</ele>
        <time>1970-01-01T02:18:21.000Z</time>
      </trkpt>
      <trkpt lat="44.7818" lon="5.09651">
        <ele>696</ele>
        <time>1970-01-01T02:18:25.000Z</time>
      </trkpt>
      <trkpt lat="44.78179" lon="5.09651">
        <ele>697</ele>
        <time>1970-01-01T02:18:29.000Z</time>
      </trkpt>
      <trkpt lat="44.78177" lon="5.0965">
        <ele>697</ele>
        <time>1970-01-01T02:18:30.000Z</time>
      </trkpt>
      <trkpt lat="44.78176" lon="5.0965">
        <ele>697.4</ele>
        <time>1970-01-01T02:18:31.000Z</time>
      </trkpt>
      <trkpt lat="44.78174" lon="5.09649">
        <ele>697.4</ele>
        <time>1970-01-01T02:18:32.000Z</time>
      </trkpt>
      <trkpt lat="44.78173" lon="5.09649">
        <ele>697.6</ele>
        <time>1970-01-01T02:18:33.000Z</time>
      </trkpt>
      <trkpt lat="44.78171" lon="5.09648">
        <ele>697.6</ele>
        <time>1970-01-01T02:18:34.000Z</time>
      </trkpt>
      <trkpt lat="44.7817" lon="5.09648">
        <ele>697.8</ele>
        <time>1970-01-01T02:18:35.000Z</time>
      </trkpt>
      <trkpt lat="44.78168" lon="5.09647">
        <ele>697.8</ele>
        <time>1970-01-01T02:18:36.000Z</time>
      </trkpt>
      <trkpt lat="44.78167" lon="5.09647">
        <ele>698</ele>
        <time>1970-01-01T02:18:38.000Z</time>
      </trkpt>
      <trkpt lat="44.78165" lon="5.09647">
        <ele>698</ele>
        <time>1970-01-01T02:18:39.000Z</time>
      </trkpt>
      <trkpt lat="44.78164" lon="5.09646">
        <ele>698</ele>
        <time>1970-01-01T02:18:40.000Z</time>
      </trkpt>
      <trkpt lat="44.78162" lon="5.09646">
        <ele>697</ele>
        <time>1970-01-01T02:19:17.000Z</time>
      </trkpt>
      <trkpt lat="44.78161" lon="5.09645">
        <ele>696.4</ele>
        <time>1970-01-01T02:19:18.000Z</time>
      </trkpt>
      <trkpt lat="44.78158" lon="5.09649">
        <ele>695.8</ele>
        <time>1970-01-01T02:19:19.000Z</time>
      </trkpt>
      <trkpt lat="44.78156" lon="5.09653">
        <ele>694.8</ele>
        <time>1970-01-01T02:19:20.000Z</time>
      </trkpt>
      <trkpt lat="44.78156" lon="5.09657">
        <ele>694</ele>
        <time>1970-01-01T02:19:21.000Z</time>
      </trkpt>
      <trkpt lat="44.78155" lon="5.09663">
        <ele>692.6</ele>
        <time>1970-01-01T02:19:22.000Z</time>
      </trkpt>
      <trkpt lat="44.78153" lon="5.09668">
        <ele>691.8</ele>
        <time>1970-01-01T02:19:23.000Z</time>
      </trkpt>
      <trkpt lat="44.7815" lon="5.09672">
        <ele>690.8</ele>
        <time>1970-01-01T02:19:24.000Z</time>
      </trkpt>
      <trkpt lat="44.78146" lon="5.09675">
        <ele>689.8</ele>
        <time>1970-01-01T02:19:25.000Z</time>
      </trkpt>
      <trkpt lat="44.7814" lon="5.09682">
        <ele>687.6</ele>
        <time>1970-01-01T02:19:27.000Z</time>
      </trkpt>
      <trkpt lat="44.78135" lon="5.09684">
        <ele>686.4</ele>
        <time>1970-01-01T02:19:28.000Z</time>
      </trkpt>
      <trkpt lat="44.7813" lon="5.09687">
        <ele>685.2</ele>
        <time>1970-01-01T02:19:29.000Z</time>
      </trkpt>
      <trkpt lat="44.78126" lon="5.09691">
        <ele>684.2</ele>
        <time>1970-01-01T02:19:30.000Z</time>
      </trkpt>
      <trkpt lat="44.78124" lon="5.09693">
        <ele>683.2</ele>
        <time>1970-01-01T02:19:31.000Z</time>
      </trkpt>
      <trkpt lat="44.7812" lon="5.09693">
        <ele>682.6</ele>
        <time>1970-01-01T02:19:32.000Z</time>
      </trkpt>
      <trkpt lat="44.78117" lon="5.09693">
        <ele>682.4</ele>
        <time>1970-01-01T02:19:33.000Z</time>
      </trkpt>
      <trkpt lat="44.78114" lon="5.0969">
        <ele>682.2</ele>
        <time>1970-01-01T02:19:34.000Z</time>
      </trkpt>
      <trkpt lat="44.78104" lon="5.09683">
        <ele>683.4</ele>
        <time>1970-01-01T02:19:37.000Z</time>
      </trkpt>
      <trkpt lat="44.78101" lon="5.09682">
        <ele>683.8</ele>
        <time>1970-01-01T02:19:38.000Z</time>
      </trkpt>
      <trkpt lat="44.78094" lon="5.09678">
        <ele>684.2</ele>
        <time>1970-01-01T02:19:40.000Z</time>
      </trkpt>
      <trkpt lat="44.78092" lon="5.09677">
        <ele>684.2</ele>
        <time>1970-01-01T02:19:41.000Z</time>
      </trkpt>
      <trkpt lat="44.78086" lon="5.09673">
        <ele>684</ele>
        <time>1970-01-01T02:19:43.000Z</time>
      </trkpt>
      <trkpt lat="44.78084" lon="5.09671">
        <ele>684</ele>
        <time>1970-01-01T02:19:44.000Z</time>
      </trkpt>
      <trkpt lat="44.78083" lon="5.09668">
        <ele>683.8</ele>
        <time>1970-01-01T02:19:45.000Z</time>
      </trkpt>
      <trkpt lat="44.78081" lon="5.09665">
        <ele>683.8</ele>
        <time>1970-01-01T02:19:46.000Z</time>
      </trkpt>
      <trkpt lat="44.78079" lon="5.09663">
        <ele>683.8</ele>
        <time>1970-01-01T02:19:47.000Z</time>
      </trkpt>
      <trkpt lat="44.78077" lon="5.09661">
        <ele>683.6</ele>
        <time>1970-01-01T02:19:48.000Z</time>
      </trkpt>
      <trkpt lat="44.78075" lon="5.09659">
        <ele>683.8</ele>
        <time>1970-01-01T02:19:49.000Z</time>
      </trkpt>
      <trkpt lat="44.7807" lon="5.09653">
        <ele>684.4</ele>
        <time>1970-01-01T02:19:51.000Z</time>
      </trkpt>
      <trkpt lat="44.78067" lon="5.09646">
        <ele>685</ele>
        <time>1970-01-01T02:19:53.000Z</time>
      </trkpt>
      <trkpt lat="44.78065" lon="5.09642">
        <ele>685.4</ele>
        <time>1970-01-01T02:19:54.000Z</time>
      </trkpt>
      <trkpt lat="44.7806" lon="5.09632">
        <ele>686.6</ele>
        <time>1970-01-01T02:19:57.000Z</time>
      </trkpt>
      <trkpt lat="44.78059" lon="5.0963">
        <ele>686.8</ele>
        <time>1970-01-01T02:19:58.000Z</time>
      </trkpt>
      <trkpt lat="44.78057" lon="5.09629">
        <ele>687.4</ele>
        <time>1970-01-01T02:19:59.000Z</time>
      </trkpt>
      <trkpt lat="44.78054" lon="5.09628">
        <ele>687.6</ele>
        <time>1970-01-01T02:20:00.000Z</time>
      </trkpt>
      <trkpt lat="44.78051" lon="5.09628">
        <ele>687.8</ele>
        <time>1970-01-01T02:20:01.000Z</time>
      </trkpt>
      <trkpt lat="44.78048" lon="5.09628">
        <ele>688</ele>
        <time>1970-01-01T02:20:02.000Z</time>
      </trkpt>
      <trkpt lat="44.78045" lon="5.09628">
        <ele>688</ele>
        <time>1970-01-01T02:20:03.000Z</time>
      </trkpt>
      <trkpt lat="44.78038" lon="5.09627">
        <ele>687.8</ele>
        <time>1970-01-01T02:20:05.000Z</time>
      </trkpt>
      <trkpt lat="44.78034" lon="5.09626">
        <ele>687.4</ele>
        <time>1970-01-01T02:20:06.000Z</time>
      </trkpt>
      <trkpt lat="44.78031" lon="5.09627">
        <ele>687</ele>
        <time>1970-01-01T02:20:07.000Z</time>
      </trkpt>
      <trkpt lat="44.78028" lon="5.09627">
        <ele>686.8</ele>
        <time>1970-01-01T02:20:08.000Z</time>
      </trkpt>
      <trkpt lat="44.78023" lon="5.09627">
        <ele>686.6</ele>
        <time>1970-01-01T02:20:09.000Z</time>
      </trkpt>
      <trkpt lat="44.78021" lon="5.09626">
        <ele>686</ele>
        <time>1970-01-01T02:20:10.000Z</time>
      </trkpt>
      <trkpt lat="44.78021" lon="5.09625">
        <ele>685.6</ele>
        <time>1970-01-01T02:20:11.000Z</time>
      </trkpt>
      <trkpt lat="44.7802" lon="5.09625">
        <ele>685.4</ele>
        <time>1970-01-01T02:20:12.000Z</time>
      </trkpt>
      <trkpt lat="44.78015" lon="5.09625">
        <ele>684.8</ele>
        <time>1970-01-01T02:20:14.000Z</time>
      </trkpt>
      <trkpt lat="44.78012" lon="5.09626">
        <ele>684.6</ele>
        <time>1970-01-01T02:20:15.000Z</time>
      </trkpt>
      <trkpt lat="44.78008" lon="5.09626">
        <ele>684.4</ele>
        <time>1970-01-01T02:20:16.000Z</time>
      </trkpt>
      <trkpt lat="44.7799" lon="5.09623">
        <ele>683.6</ele>
        <time>1970-01-01T02:20:21.000Z</time>
      </trkpt>
      <trkpt lat="44.77965" lon="5.09624">
        <ele>683.8</ele>
        <time>1970-01-01T02:20:27.000Z</time>
      </trkpt>
      <trkpt lat="44.77956" lon="5.09625">
        <ele>683</ele>
        <time>1970-01-01T02:20:29.000Z</time>
      </trkpt>
      <trkpt lat="44.77944" lon="5.09627">
        <ele>682.2</ele>
        <time>1970-01-01T02:20:32.000Z</time>
      </trkpt>
      <trkpt lat="44.77941" lon="5.09625">
        <ele>682</ele>
        <time>1970-01-01T02:20:33.000Z</time>
      </trkpt>
      <trkpt lat="44.7794" lon="5.09623">
        <ele>682</ele>
        <time>1970-01-01T02:20:34.000Z</time>
      </trkpt>
      <trkpt lat="44.77938" lon="5.09622">
        <ele>682</ele>
        <time>1970-01-01T02:20:35.000Z</time>
      </trkpt>
      <trkpt lat="44.77935" lon="5.09623">
        <ele>681.8</ele>
        <time>1970-01-01T02:20:36.000Z</time>
      </trkpt>
      <trkpt lat="44.77933" lon="5.09623">
        <ele>681.8</ele>
        <time>1970-01-01T02:20:37.000Z</time>
      </trkpt>
      <trkpt lat="44.77929" lon="5.09622">
        <ele>681.8</ele>
        <time>1970-01-01T02:20:38.000Z</time>
      </trkpt>
      <trkpt lat="44.77921" lon="5.09621">
        <ele>681.8</ele>
        <time>1970-01-01T02:20:40.000Z</time>
      </trkpt>
      <trkpt lat="44.77917" lon="5.0962">
        <ele>681.8</ele>
        <time>1970-01-01T02:20:41.000Z</time>
      </trkpt>
      <trkpt lat="44.7791" lon="5.09619">
        <ele>681.8</ele>
        <time>1970-01-01T02:20:43.000Z</time>
      </trkpt>
      <trkpt lat="44.77907" lon="5.09617">
        <ele>681.8</ele>
        <time>1970-01-01T02:20:44.000Z</time>
      </trkpt>
      <trkpt lat="44.77903" lon="5.09616">
        <ele>681.8</ele>
        <time>1970-01-01T02:20:45.000Z</time>
      </trkpt>
      <trkpt lat="44.77889" lon="5.09614">
        <ele>681.6</ele>
        <time>1970-01-01T02:20:48.000Z</time>
      </trkpt>
      <trkpt lat="44.77882" lon="5.0961">
        <ele>681.6</ele>
        <time>1970-01-01T02:20:50.000Z</time>
      </trkpt>
      <trkpt lat="44.77874" lon="5.09609">
        <ele>681.4</ele>
        <time>1970-01-01T02:20:52.000Z</time>
      </trkpt>
      <trkpt lat="44.77869" lon="5.09611">
        <ele>681.4</ele>
        <time>1970-01-01T02:20:53.000Z</time>
      </trkpt>
      <trkpt lat="44.7786" lon="5.09609">
        <ele>680.6</ele>
        <time>1970-01-01T02:20:55.000Z</time>
      </trkpt>
      <trkpt lat="44.77856" lon="5.09609">
        <ele>680.6</ele>
        <time>1970-01-01T02:20:56.000Z</time>
      </trkpt>
      <trkpt lat="44.77852" lon="5.09608">
        <ele>679.6</ele>
        <time>1970-01-01T02:20:57.000Z</time>
      </trkpt>
      <trkpt lat="44.77849" lon="5.09609">
        <ele>679.2</ele>
        <time>1970-01-01T02:20:58.000Z</time>
      </trkpt>
      <trkpt lat="44.77845" lon="5.09611">
        <ele>678.6</ele>
        <time>1970-01-01T02:20:59.000Z</time>
      </trkpt>
      <trkpt lat="44.7784" lon="5.09612">
        <ele>678</ele>
        <time>1970-01-01T02:21:00.000Z</time>
      </trkpt>
      <trkpt lat="44.7783" lon="5.09611">
        <ele>676.8</ele>
        <time>1970-01-01T02:21:02.000Z</time>
      </trkpt>
      <trkpt lat="44.77826" lon="5.09611">
        <ele>676.2</ele>
        <time>1970-01-01T02:21:03.000Z</time>
      </trkpt>
      <trkpt lat="44.77822" lon="5.09609">
        <ele>675.8</ele>
        <time>1970-01-01T02:21:04.000Z</time>
      </trkpt>
      <trkpt lat="44.77819" lon="5.09606">
        <ele>675.6</ele>
        <time>1970-01-01T02:21:05.000Z</time>
      </trkpt>
      <trkpt lat="44.77815" lon="5.09604">
        <ele>675.6</ele>
        <time>1970-01-01T02:21:06.000Z</time>
      </trkpt>
      <trkpt lat="44.77805" lon="5.09604">
        <ele>675</ele>
        <time>1970-01-01T02:21:08.000Z</time>
      </trkpt>
      <trkpt lat="44.778" lon="5.09603">
        <ele>674.8</ele>
        <time>1970-01-01T02:21:09.000Z</time>
      </trkpt>
      <trkpt lat="44.77796" lon="5.09602">
        <ele>674.8</ele>
        <time>1970-01-01T02:21:10.000Z</time>
      </trkpt>
      <trkpt lat="44.77794" lon="5.09603">
        <ele>674.6</ele>
        <time>1970-01-01T02:21:11.000Z</time>
      </trkpt>
      <trkpt lat="44.7779" lon="5.09603">
        <ele>674.4</ele>
        <time>1970-01-01T02:21:12.000Z</time>
      </trkpt>
      <trkpt lat="44.77782" lon="5.09603">
        <ele>673.8</ele>
        <time>1970-01-01T02:21:14.000Z</time>
      </trkpt>
      <trkpt lat="44.77777" lon="5.09603">
        <ele>673.8</ele>
        <time>1970-01-01T02:21:15.000Z</time>
      </trkpt>
      <trkpt lat="44.77772" lon="5.09601">
        <ele>673.8</ele>
        <time>1970-01-01T02:21:16.000Z</time>
      </trkpt>
      <trkpt lat="44.7777" lon="5.09598">
        <ele>673.6</ele>
        <time>1970-01-01T02:21:17.000Z</time>
      </trkpt>
      <trkpt lat="44.77767" lon="5.09597">
        <ele>673.6</ele>
        <time>1970-01-01T02:21:18.000Z</time>
      </trkpt>
      <trkpt lat="44.77764" lon="5.09597">
        <ele>673.6</ele>
        <time>1970-01-01T02:21:19.000Z</time>
      </trkpt>
      <trkpt lat="44.7776" lon="5.09596">
        <ele>673.6</ele>
        <time>1970-01-01T02:21:20.000Z</time>
      </trkpt>
      <trkpt lat="44.77757" lon="5.09596">
        <ele>673.6</ele>
        <time>1970-01-01T02:21:21.000Z</time>
      </trkpt>
      <trkpt lat="44.77755" lon="5.09595">
        <ele>673.6</ele>
        <time>1970-01-01T02:21:22.000Z</time>
      </trkpt>
      <trkpt lat="44.77753" lon="5.09594">
        <ele>673.4</ele>
        <time>1970-01-01T02:21:23.000Z</time>
      </trkpt>
      <trkpt lat="44.77751" lon="5.09594">
        <ele>673.2</ele>
        <time>1970-01-01T02:21:24.000Z</time>
      </trkpt>
      <trkpt lat="44.77749" lon="5.09596">
        <ele>673.2</ele>
        <time>1970-01-01T02:21:25.000Z</time>
      </trkpt>
      <trkpt lat="44.77746" lon="5.09598">
        <ele>672.8</ele>
        <time>1970-01-01T02:21:26.000Z</time>
      </trkpt>
      <trkpt lat="44.77742" lon="5.096">
        <ele>672.6</ele>
        <time>1970-01-01T02:21:27.000Z</time>
      </trkpt>
      <trkpt lat="44.77738" lon="5.096">
        <ele>672.4</ele>
        <time>1970-01-01T02:21:28.000Z</time>
      </trkpt>
      <trkpt lat="44.77734" lon="5.09598">
        <ele>671.8</ele>
        <time>1970-01-01T02:21:29.000Z</time>
      </trkpt>
      <trkpt lat="44.77731" lon="5.09596">
        <ele>671.6</ele>
        <time>1970-01-01T02:21:30.000Z</time>
      </trkpt>
      <trkpt lat="44.77728" lon="5.09595">
        <ele>671.4</ele>
        <time>1970-01-01T02:21:31.000Z</time>
      </trkpt>
      <trkpt lat="44.77726" lon="5.09595">
        <ele>671.2</ele>
        <time>1970-01-01T02:21:32.000Z</time>
      </trkpt>
      <trkpt lat="44.77725" lon="5.09595">
        <ele>671.2</ele>
        <time>1970-01-01T02:21:33.000Z</time>
      </trkpt>
      <trkpt lat="44.77723" lon="5.09595">
        <ele>671.2</ele>
        <time>1970-01-01T02:21:34.000Z</time>
      </trkpt>
      <trkpt lat="44.7772" lon="5.09595">
        <ele>671.2</ele>
        <time>1970-01-01T02:21:35.000Z</time>
      </trkpt>
      <trkpt lat="44.77717" lon="5.09595">
        <ele>671</ele>
        <time>1970-01-01T02:21:36.000Z</time>
      </trkpt>
      <trkpt lat="44.77713" lon="5.09596">
        <ele>670.8</ele>
        <time>1970-01-01T02:21:37.000Z</time>
      </trkpt>
      <trkpt lat="44.7771" lon="5.09596">
        <ele>670.6</ele>
        <time>1970-01-01T02:21:38.000Z</time>
      </trkpt>
      <trkpt lat="44.77708" lon="5.09597">
        <ele>670.6</ele>
        <time>1970-01-01T02:21:39.000Z</time>
      </trkpt>
      <trkpt lat="44.77705" lon="5.09596">
        <ele>670.6</ele>
        <time>1970-01-01T02:21:40.000Z</time>
      </trkpt>
      <trkpt lat="44.77702" lon="5.09596">
        <ele>670.6</ele>
        <time>1970-01-01T02:21:41.000Z</time>
      </trkpt>
      <trkpt lat="44.777" lon="5.09596">
        <ele>670.8</ele>
        <time>1970-01-01T02:21:42.000Z</time>
      </trkpt>
      <trkpt lat="44.77686" lon="5.09597">
        <ele>671.2</ele>
        <time>1970-01-01T02:21:47.000Z</time>
      </trkpt>
      <trkpt lat="44.77684" lon="5.09597">
        <ele>671</ele>
        <time>1970-01-01T02:21:48.000Z</time>
      </trkpt>
      <trkpt lat="44.77683" lon="5.09597">
        <ele>670.8</ele>
        <time>1970-01-01T02:21:49.000Z</time>
      </trkpt>
      <trkpt lat="44.77682" lon="5.09597">
        <ele>670.6</ele>
        <time>1970-01-01T02:21:50.000Z</time>
      </trkpt>
      <trkpt lat="44.77673" lon="5.09597">
        <ele>671</ele>
        <time>1970-01-01T02:21:54.000Z</time>
      </trkpt>
      <trkpt lat="44.77669" lon="5.09599">
        <ele>671</ele>
        <time>1970-01-01T02:21:55.000Z</time>
      </trkpt>
      <trkpt lat="44.77667" lon="5.09601">
        <ele>671</ele>
        <time>1970-01-01T02:21:57.000Z</time>
      </trkpt>
      <trkpt lat="44.77665" lon="5.09602">
        <ele>671.2</ele>
        <time>1970-01-01T02:21:59.000Z</time>
      </trkpt>
      <trkpt lat="44.77663" lon="5.09604">
        <ele>670.4</ele>
        <time>1970-01-01T02:22:46.000Z</time>
      </trkpt>
      <trkpt lat="44.77661" lon="5.09605">
        <ele>670.2</ele>
        <time>1970-01-01T02:22:47.000Z</time>
      </trkpt>
      <trkpt lat="44.77658" lon="5.09607">
        <ele>669.4</ele>
        <time>1970-01-01T02:22:48.000Z</time>
      </trkpt>
      <trkpt lat="44.77654" lon="5.09608">
        <ele>668.6</ele>
        <time>1970-01-01T02:22:49.000Z</time>
      </trkpt>
      <trkpt lat="44.7765" lon="5.09608">
        <ele>668.2</ele>
        <time>1970-01-01T02:22:50.000Z</time>
      </trkpt>
      <trkpt lat="44.77647" lon="5.09607">
        <ele>668</ele>
        <time>1970-01-01T02:22:51.000Z</time>
      </trkpt>
      <trkpt lat="44.77644" lon="5.09605">
        <ele>668.4</ele>
        <time>1970-01-01T02:22:52.000Z</time>
      </trkpt>
      <trkpt lat="44.7764" lon="5.09604">
        <ele>668.8</ele>
        <time>1970-01-01T02:22:53.000Z</time>
      </trkpt>
      <trkpt lat="44.77633" lon="5.09603">
        <ele>669.2</ele>
        <time>1970-01-01T02:22:55.000Z</time>
      </trkpt>
      <trkpt lat="44.77629" lon="5.09601">
        <ele>669.4</ele>
        <time>1970-01-01T02:22:56.000Z</time>
      </trkpt>
      <trkpt lat="44.77615" lon="5.09598">
        <ele>670.4</ele>
        <time>1970-01-01T02:23:00.000Z</time>
      </trkpt>
      <trkpt lat="44.77613" lon="5.09599">
        <ele>670.4</ele>
        <time>1970-01-01T02:23:01.000Z</time>
      </trkpt>
      <trkpt lat="44.7761" lon="5.09601">
        <ele>670.4</ele>
        <time>1970-01-01T02:23:02.000Z</time>
      </trkpt>
      <trkpt lat="44.77607" lon="5.09602">
        <ele>670.8</ele>
        <time>1970-01-01T02:23:03.000Z</time>
      </trkpt>
      <trkpt lat="44.77601" lon="5.09601">
        <ele>671</ele>
        <time>1970-01-01T02:23:05.000Z</time>
      </trkpt>
      <trkpt lat="44.77599" lon="5.096">
        <ele>671.2</ele>
        <time>1970-01-01T02:23:06.000Z</time>
      </trkpt>
      <trkpt lat="44.77597" lon="5.096">
        <ele>671.2</ele>
        <time>1970-01-01T02:23:07.000Z</time>
      </trkpt>
      <trkpt lat="44.77595" lon="5.096">
        <ele>671.2</ele>
        <time>1970-01-01T02:23:08.000Z</time>
      </trkpt>
      <trkpt lat="44.77594" lon="5.09602">
        <ele>671.2</ele>
        <time>1970-01-01T02:23:09.000Z</time>
      </trkpt>
      <trkpt lat="44.77592" lon="5.09603">
        <ele>671.2</ele>
        <time>1970-01-01T02:23:10.000Z</time>
      </trkpt>
      <trkpt lat="44.77586" lon="5.09605">
        <ele>671</ele>
        <time>1970-01-01T02:23:12.000Z</time>
      </trkpt>
      <trkpt lat="44.77581" lon="5.09605">
        <ele>670.8</ele>
        <time>1970-01-01T02:23:13.000Z</time>
      </trkpt>
      <trkpt lat="44.77577" lon="5.09603">
        <ele>670.6</ele>
        <time>1970-01-01T02:23:14.000Z</time>
      </trkpt>
      <trkpt lat="44.77572" lon="5.09602">
        <ele>670.6</ele>
        <time>1970-01-01T02:23:15.000Z</time>
      </trkpt>
      <trkpt lat="44.77563" lon="5.09603">
        <ele>670.6</ele>
        <time>1970-01-01T02:23:17.000Z</time>
      </trkpt>
      <trkpt lat="44.7756" lon="5.09602">
        <ele>670.8</ele>
        <time>1970-01-01T02:23:18.000Z</time>
      </trkpt>
      <trkpt lat="44.77558" lon="5.09602">
        <ele>671</ele>
        <time>1970-01-01T02:23:19.000Z</time>
      </trkpt>
      <trkpt lat="44.77555" lon="5.09603">
        <ele>671</ele>
        <time>1970-01-01T02:23:20.000Z</time>
      </trkpt>
      <trkpt lat="44.77552" lon="5.09604">
        <ele>671</ele>
        <time>1970-01-01T02:23:21.000Z</time>
      </trkpt>
      <trkpt lat="44.77549" lon="5.09604">
        <ele>671</ele>
        <time>1970-01-01T02:23:22.000Z</time>
      </trkpt>
      <trkpt lat="44.77546" lon="5.09604">
        <ele>670.8</ele>
        <time>1970-01-01T02:23:23.000Z</time>
      </trkpt>
      <trkpt lat="44.77542" lon="5.09604">
        <ele>670.6</ele>
        <time>1970-01-01T02:23:24.000Z</time>
      </trkpt>
      <trkpt lat="44.77534" lon="5.09606">
        <ele>670.2</ele>
        <time>1970-01-01T02:23:26.000Z</time>
      </trkpt>
      <trkpt lat="44.7753" lon="5.09607">
        <ele>669.8</ele>
        <time>1970-01-01T02:23:27.000Z</time>
      </trkpt>
      <trkpt lat="44.77527" lon="5.09606">
        <ele>669.8</ele>
        <time>1970-01-01T02:23:28.000Z</time>
      </trkpt>
      <trkpt lat="44.77524" lon="5.09604">
        <ele>669.6</ele>
        <time>1970-01-01T02:23:29.000Z</time>
      </trkpt>
      <trkpt lat="44.77521" lon="5.09602">
        <ele>669.4</ele>
        <time>1970-01-01T02:23:30.000Z</time>
      </trkpt>
      <trkpt lat="44.77518" lon="5.09601">
        <ele>669.4</ele>
        <time>1970-01-01T02:23:31.000Z</time>
      </trkpt>
      <trkpt lat="44.77512" lon="5.09599">
        <ele>669.6</ele>
        <time>1970-01-01T02:23:33.000Z</time>
      </trkpt>
      <trkpt lat="44.7751" lon="5.09598">
        <ele>669.8</ele>
        <time>1970-01-01T02:23:34.000Z</time>
      </trkpt>
      <trkpt lat="44.77509" lon="5.09597">
        <ele>669.8</ele>
        <time>1970-01-01T02:23:36.000Z</time>
      </trkpt>
      <trkpt lat="44.77503" lon="5.09596">
        <ele>669.8</ele>
        <time>1970-01-01T02:23:39.000Z</time>
      </trkpt>
      <trkpt lat="44.77501" lon="5.09597">
        <ele>669.8</ele>
        <time>1970-01-01T02:23:40.000Z</time>
      </trkpt>
      <trkpt lat="44.77498" lon="5.09598">
        <ele>669.8</ele>
        <time>1970-01-01T02:23:41.000Z</time>
      </trkpt>
      <trkpt lat="44.77495" lon="5.09599">
        <ele>669.8</ele>
        <time>1970-01-01T02:23:42.000Z</time>
      </trkpt>
      <trkpt lat="44.77489" lon="5.09599">
        <ele>669.8</ele>
        <time>1970-01-01T02:23:44.000Z</time>
      </trkpt>
      <trkpt lat="44.77487" lon="5.09598">
        <ele>670</ele>
        <time>1970-01-01T02:23:45.000Z</time>
      </trkpt>
      <trkpt lat="44.77485" lon="5.09597">
        <ele>670</ele>
        <time>1970-01-01T02:23:46.000Z</time>
      </trkpt>
      <trkpt lat="44.77483" lon="5.09598">
        <ele>670</ele>
        <time>1970-01-01T02:23:47.000Z</time>
      </trkpt>
      <trkpt lat="44.77481" lon="5.09598">
        <ele>670</ele>
        <time>1970-01-01T02:23:48.000Z</time>
      </trkpt>
      <trkpt lat="44.77475" lon="5.09598">
        <ele>670</ele>
        <time>1970-01-01T02:23:50.000Z</time>
      </trkpt>
      <trkpt lat="44.77472" lon="5.09599">
        <ele>669.8</ele>
        <time>1970-01-01T02:23:51.000Z</time>
      </trkpt>
      <trkpt lat="44.77462" lon="5.096">
        <ele>669.4</ele>
        <time>1970-01-01T02:23:54.000Z</time>
      </trkpt>
      <trkpt lat="44.7746" lon="5.09602">
        <ele>668.8</ele>
        <time>1970-01-01T02:23:55.000Z</time>
      </trkpt>
      <trkpt lat="44.77458" lon="5.09605">
        <ele>668.6</ele>
        <time>1970-01-01T02:23:56.000Z</time>
      </trkpt>
      <trkpt lat="44.77455" lon="5.09606">
        <ele>668.4</ele>
        <time>1970-01-01T02:23:57.000Z</time>
      </trkpt>
      <trkpt lat="44.77449" lon="5.09606">
        <ele>668</ele>
        <time>1970-01-01T02:23:59.000Z</time>
      </trkpt>
      <trkpt lat="44.77447" lon="5.09606">
        <ele>667.6</ele>
        <time>1970-01-01T02:24:00.000Z</time>
      </trkpt>
      <trkpt lat="44.77444" lon="5.09605">
        <ele>667.4</ele>
        <time>1970-01-01T02:24:01.000Z</time>
      </trkpt>
      <trkpt lat="44.77438" lon="5.09606">
        <ele>667.2</ele>
        <time>1970-01-01T02:24:03.000Z</time>
      </trkpt>
      <trkpt lat="44.77435" lon="5.09606">
        <ele>667.2</ele>
        <time>1970-01-01T02:24:04.000Z</time>
      </trkpt>
      <trkpt lat="44.77433" lon="5.09607">
        <ele>667.2</ele>
        <time>1970-01-01T02:24:05.000Z</time>
      </trkpt>
      <trkpt lat="44.7743" lon="5.09608">
        <ele>667</ele>
        <time>1970-01-01T02:24:06.000Z</time>
      </trkpt>
      <trkpt lat="44.7742" lon="5.09607">
        <ele>666.8</ele>
        <time>1970-01-01T02:24:10.000Z</time>
      </trkpt>
      <trkpt lat="44.77418" lon="5.09607">
        <ele>666.6</ele>
        <time>1970-01-01T02:24:11.000Z</time>
      </trkpt>
      <trkpt lat="44.77417" lon="5.09608">
        <ele>666.4</ele>
        <time>1970-01-01T02:24:12.000Z</time>
      </trkpt>
      <trkpt lat="44.77415" lon="5.09609">
        <ele>666</ele>
        <time>1970-01-01T02:24:13.000Z</time>
      </trkpt>
      <trkpt lat="44.77413" lon="5.0961">
        <ele>665.8</ele>
        <time>1970-01-01T02:24:15.000Z</time>
      </trkpt>
      <trkpt lat="44.77412" lon="5.0961">
        <ele>665.6</ele>
        <time>1970-01-01T02:24:16.000Z</time>
      </trkpt>
      <trkpt lat="44.77411" lon="5.0961">
        <ele>665.4</ele>
        <time>1970-01-01T02:24:17.000Z</time>
      </trkpt>
      <trkpt lat="44.7741" lon="5.0961">
        <ele>665.4</ele>
        <time>1970-01-01T02:24:18.000Z</time>
      </trkpt>
      <trkpt lat="44.77409" lon="5.0961">
        <ele>665.4</ele>
        <time>1970-01-01T02:24:19.000Z</time>
      </trkpt>
      <trkpt lat="44.77409" lon="5.0961">
        <ele>665.4</ele>
        <time>1970-01-01T02:24:20.000Z</time>
      </trkpt>
      <trkpt lat="44.77408" lon="5.0961">
        <ele>665.4</ele>
        <time>1970-01-01T02:24:21.000Z</time>
      </trkpt>
      <trkpt lat="44.77406" lon="5.09609">
        <ele>665.6</ele>
        <time>1970-01-01T02:24:23.000Z</time>
      </trkpt>
      <trkpt lat="44.77405" lon="5.09609">
        <ele>665.6</ele>
        <time>1970-01-01T02:24:24.000Z</time>
      </trkpt>
      <trkpt lat="44.77404" lon="5.0961">
        <ele>665.6</ele>
        <time>1970-01-01T02:24:25.000Z</time>
      </trkpt>
      <trkpt lat="44.77397" lon="5.09611">
        <ele>665.2</ele>
        <time>1970-01-01T02:24:28.000Z</time>
      </trkpt>
      <trkpt lat="44.77394" lon="5.09611">
        <ele>664.8</ele>
        <time>1970-01-01T02:24:29.000Z</time>
      </trkpt>
      <trkpt lat="44.77392" lon="5.09613">
        <ele>664.4</ele>
        <time>1970-01-01T02:24:30.000Z</time>
      </trkpt>
      <trkpt lat="44.7739" lon="5.09614">
        <ele>664</ele>
        <time>1970-01-01T02:24:31.000Z</time>
      </trkpt>
      <trkpt lat="44.77388" lon="5.09614">
        <ele>663.8</ele>
        <time>1970-01-01T02:24:32.000Z</time>
      </trkpt>
      <trkpt lat="44.77382" lon="5.09614">
        <ele>663.4</ele>
        <time>1970-01-01T02:24:34.000Z</time>
      </trkpt>
      <trkpt lat="44.7738" lon="5.09614">
        <ele>663</ele>
        <time>1970-01-01T02:24:35.000Z</time>
      </trkpt>
      <trkpt lat="44.77378" lon="5.09615">
        <ele>662.8</ele>
        <time>1970-01-01T02:24:36.000Z</time>
      </trkpt>
      <trkpt lat="44.77376" lon="5.09616">
        <ele>662.8</ele>
        <time>1970-01-01T02:24:37.000Z</time>
      </trkpt>
      <trkpt lat="44.77373" lon="5.09617">
        <ele>662.6</ele>
        <time>1970-01-01T02:24:38.000Z</time>
      </trkpt>
      <trkpt lat="44.77369" lon="5.09617">
        <ele>662.6</ele>
        <time>1970-01-01T02:24:40.000Z</time>
      </trkpt>
      <trkpt lat="44.77364" lon="5.09618">
        <ele>662.4</ele>
        <time>1970-01-01T02:24:42.000Z</time>
      </trkpt>
      <trkpt lat="44.7736" lon="5.09618">
        <ele>662.2</ele>
        <time>1970-01-01T02:24:44.000Z</time>
      </trkpt>
      <trkpt lat="44.77358" lon="5.09619">
        <ele>662</ele>
        <time>1970-01-01T02:24:45.000Z</time>
      </trkpt>
      <trkpt lat="44.77347" lon="5.09619">
        <ele>660.8</ele>
        <time>1970-01-01T02:24:48.000Z</time>
      </trkpt>
      <trkpt lat="44.77342" lon="5.09619">
        <ele>660.6</ele>
        <time>1970-01-01T02:24:49.000Z</time>
      </trkpt>
      <trkpt lat="44.77337" lon="5.09619">
        <ele>660.2</ele>
        <time>1970-01-01T02:24:50.000Z</time>
      </trkpt>
      <trkpt lat="44.77333" lon="5.0962">
        <ele>660</ele>
        <time>1970-01-01T02:24:51.000Z</time>
      </trkpt>
      <trkpt lat="44.77329" lon="5.0962">
        <ele>660</ele>
        <time>1970-01-01T02:24:52.000Z</time>
      </trkpt>
      <trkpt lat="44.77326" lon="5.0962">
        <ele>659.8</ele>
        <time>1970-01-01T02:24:53.000Z</time>
      </trkpt>
      <trkpt lat="44.77324" lon="5.0962">
        <ele>659.8</ele>
        <time>1970-01-01T02:24:54.000Z</time>
      </trkpt>
      <trkpt lat="44.77322" lon="5.09619">
        <ele>659.8</ele>
        <time>1970-01-01T02:24:55.000Z</time>
      </trkpt>
      <trkpt lat="44.77321" lon="5.09619">
        <ele>659.8</ele>
        <time>1970-01-01T02:24:56.000Z</time>
      </trkpt>
      <trkpt lat="44.77321" lon="5.09619">
        <ele>659.8</ele>
        <time>1970-01-01T02:24:58.000Z</time>
      </trkpt>
      <trkpt lat="44.77314" lon="5.09621">
        <ele>659.4</ele>
        <time>1970-01-01T02:25:29.000Z</time>
      </trkpt>
      <trkpt lat="44.77311" lon="5.09622">
        <ele>659.2</ele>
        <time>1970-01-01T02:25:30.000Z</time>
      </trkpt>
      <trkpt lat="44.77308" lon="5.09623">
        <ele>659.2</ele>
        <time>1970-01-01T02:25:31.000Z</time>
      </trkpt>
      <trkpt lat="44.77305" lon="5.09624">
        <ele>659</ele>
        <time>1970-01-01T02:25:32.000Z</time>
      </trkpt>
      <trkpt lat="44.77303" lon="5.09624">
        <ele>658.8</ele>
        <time>1970-01-01T02:25:33.000Z</time>
      </trkpt>
      <trkpt lat="44.773" lon="5.09624">
        <ele>658.6</ele>
        <time>1970-01-01T02:25:34.000Z</time>
      </trkpt>
      <trkpt lat="44.77294" lon="5.09625">
        <ele>658.2</ele>
        <time>1970-01-01T02:25:36.000Z</time>
      </trkpt>
      <trkpt lat="44.77286" lon="5.09629">
        <ele>657.4</ele>
        <time>1970-01-01T02:25:38.000Z</time>
      </trkpt>
      <trkpt lat="44.77278" lon="5.0963">
        <ele>656.4</ele>
        <time>1970-01-01T02:25:40.000Z</time>
      </trkpt>
      <trkpt lat="44.77275" lon="5.09629">
        <ele>656.4</ele>
        <time>1970-01-01T02:25:41.000Z</time>
      </trkpt>
      <trkpt lat="44.77271" lon="5.09628">
        <ele>656.4</ele>
        <time>1970-01-01T02:25:42.000Z</time>
      </trkpt>
      <trkpt lat="44.77268" lon="5.09628">
        <ele>656.4</ele>
        <time>1970-01-01T02:25:43.000Z</time>
      </trkpt>
      <trkpt lat="44.77265" lon="5.09628">
        <ele>656.4</ele>
        <time>1970-01-01T02:25:44.000Z</time>
      </trkpt>
      <trkpt lat="44.77262" lon="5.09628">
        <ele>656.8</ele>
        <time>1970-01-01T02:25:45.000Z</time>
      </trkpt>
      <trkpt lat="44.77259" lon="5.09628">
        <ele>657</ele>
        <time>1970-01-01T02:25:46.000Z</time>
      </trkpt>
      <trkpt lat="44.77256" lon="5.09627">
        <ele>656.8</ele>
        <time>1970-01-01T02:25:47.000Z</time>
      </trkpt>
      <trkpt lat="44.77253" lon="5.09627">
        <ele>656.6</ele>
        <time>1970-01-01T02:25:48.000Z</time>
      </trkpt>
      <trkpt lat="44.77252" lon="5.09627">
        <ele>656.6</ele>
        <time>1970-01-01T02:25:49.000Z</time>
      </trkpt>
      <trkpt lat="44.7725" lon="5.09629">
        <ele>656.4</ele>
        <time>1970-01-01T02:25:50.000Z</time>
      </trkpt>
      <trkpt lat="44.77248" lon="5.09631">
        <ele>656.4</ele>
        <time>1970-01-01T02:25:51.000Z</time>
      </trkpt>
      <trkpt lat="44.77246" lon="5.09632">
        <ele>656.4</ele>
        <time>1970-01-01T02:25:52.000Z</time>
      </trkpt>
      <trkpt lat="44.77244" lon="5.09633">
        <ele>656.2</ele>
        <time>1970-01-01T02:25:53.000Z</time>
      </trkpt>
      <trkpt lat="44.7724" lon="5.09633">
        <ele>656.2</ele>
        <time>1970-01-01T02:25:54.000Z</time>
      </trkpt>
      <trkpt lat="44.77237" lon="5.09633">
        <ele>656.2</ele>
        <time>1970-01-01T02:25:55.000Z</time>
      </trkpt>
      <trkpt lat="44.77234" lon="5.09633">
        <ele>656.2</ele>
        <time>1970-01-01T02:25:56.000Z</time>
      </trkpt>
      <trkpt lat="44.77231" lon="5.09633">
        <ele>656.2</ele>
        <time>1970-01-01T02:25:57.000Z</time>
      </trkpt>
      <trkpt lat="44.77228" lon="5.09632">
        <ele>656.2</ele>
        <time>1970-01-01T02:25:58.000Z</time>
      </trkpt>
      <trkpt lat="44.77221" lon="5.0963">
        <ele>656.2</ele>
        <time>1970-01-01T02:26:01.000Z</time>
      </trkpt>
      <trkpt lat="44.77211" lon="5.09629">
        <ele>656.8</ele>
        <time>1970-01-01T02:26:04.000Z</time>
      </trkpt>
      <trkpt lat="44.77205" lon="5.09631">
        <ele>657.2</ele>
        <time>1970-01-01T02:26:06.000Z</time>
      </trkpt>
      <trkpt lat="44.77202" lon="5.09632">
        <ele>657.2</ele>
        <time>1970-01-01T02:26:07.000Z</time>
      </trkpt>
      <trkpt lat="44.77192" lon="5.09636">
        <ele>657.4</ele>
        <time>1970-01-01T02:26:10.000Z</time>
      </trkpt>
      <trkpt lat="44.77189" lon="5.09637">
        <ele>657.2</ele>
        <time>1970-01-01T02:26:11.000Z</time>
      </trkpt>
      <trkpt lat="44.77185" lon="5.09637">
        <ele>656.8</ele>
        <time>1970-01-01T02:26:12.000Z</time>
      </trkpt>
      <trkpt lat="44.77182" lon="5.09636">
        <ele>656.6</ele>
        <time>1970-01-01T02:26:13.000Z</time>
      </trkpt>
      <trkpt lat="44.77179" lon="5.09636">
        <ele>656.4</ele>
        <time>1970-01-01T02:26:14.000Z</time>
      </trkpt>
      <trkpt lat="44.77176" lon="5.09636">
        <ele>656.2</ele>
        <time>1970-01-01T02:26:15.000Z</time>
      </trkpt>
      <trkpt lat="44.77169" lon="5.09635">
        <ele>656.4</ele>
        <time>1970-01-01T02:26:17.000Z</time>
      </trkpt>
      <trkpt lat="44.77166" lon="5.09634">
        <ele>656.4</ele>
        <time>1970-01-01T02:26:18.000Z</time>
      </trkpt>
      <trkpt lat="44.77163" lon="5.09633">
        <ele>656.6</ele>
        <time>1970-01-01T02:26:19.000Z</time>
      </trkpt>
      <trkpt lat="44.77161" lon="5.09633">
        <ele>656.8</ele>
        <time>1970-01-01T02:26:20.000Z</time>
      </trkpt>
      <trkpt lat="44.77157" lon="5.09634">
        <ele>656.6</ele>
        <time>1970-01-01T02:26:21.000Z</time>
      </trkpt>
      <trkpt lat="44.77154" lon="5.09634">
        <ele>656.6</ele>
        <time>1970-01-01T02:26:22.000Z</time>
      </trkpt>
      <trkpt lat="44.77149" lon="5.09635">
        <ele>656.4</ele>
        <time>1970-01-01T02:26:24.000Z</time>
      </trkpt>
      <trkpt lat="44.77146" lon="5.09635">
        <ele>656</ele>
        <time>1970-01-01T02:26:25.000Z</time>
      </trkpt>
      <trkpt lat="44.77133" lon="5.09636">
        <ele>655.4</ele>
        <time>1970-01-01T02:26:29.000Z</time>
      </trkpt>
      <trkpt lat="44.7713" lon="5.09636">
        <ele>655.2</ele>
        <time>1970-01-01T02:26:30.000Z</time>
      </trkpt>
      <trkpt lat="44.77127" lon="5.09635">
        <ele>655.2</ele>
        <time>1970-01-01T02:26:31.000Z</time>
      </trkpt>
      <trkpt lat="44.7712" lon="5.09634">
        <ele>655.2</ele>
        <time>1970-01-01T02:26:33.000Z</time>
      </trkpt>
      <trkpt lat="44.77117" lon="5.09633">
        <ele>655.6</ele>
        <time>1970-01-01T02:26:34.000Z</time>
      </trkpt>
      <trkpt lat="44.77114" lon="5.09632">
        <ele>655.8</ele>
        <time>1970-01-01T02:26:35.000Z</time>
      </trkpt>
      <trkpt lat="44.77111" lon="5.09632">
        <ele>656</ele>
        <time>1970-01-01T02:26:36.000Z</time>
      </trkpt>
      <trkpt lat="44.77109" lon="5.09633">
        <ele>656.2</ele>
        <time>1970-01-01T02:26:37.000Z</time>
      </trkpt>
      <trkpt lat="44.77108" lon="5.09634">
        <ele>656.2</ele>
        <time>1970-01-01T02:26:38.000Z</time>
      </trkpt>
      <trkpt lat="44.77107" lon="5.09634">
        <ele>656</ele>
        <time>1970-01-01T02:26:39.000Z</time>
      </trkpt>
      <trkpt lat="44.77104" lon="5.09636">
        <ele>654.8</ele>
        <time>1970-01-01T02:27:49.000Z</time>
      </trkpt>
      <trkpt lat="44.77102" lon="5.09636">
        <ele>654.6</ele>
        <time>1970-01-01T02:27:50.000Z</time>
      </trkpt>
      <trkpt lat="44.77099" lon="5.09636">
        <ele>654.2</ele>
        <time>1970-01-01T02:27:51.000Z</time>
      </trkpt>
      <trkpt lat="44.77094" lon="5.09636">
        <ele>653.4</ele>
        <time>1970-01-01T02:27:53.000Z</time>
      </trkpt>
      <trkpt lat="44.77091" lon="5.09637">
        <ele>653</ele>
        <time>1970-01-01T02:27:54.000Z</time>
      </trkpt>
      <trkpt lat="44.77088" lon="5.09638">
        <ele>652.8</ele>
        <time>1970-01-01T02:27:55.000Z</time>
      </trkpt>
      <trkpt lat="44.77085" lon="5.09638">
        <ele>652.2</ele>
        <time>1970-01-01T02:27:56.000Z</time>
      </trkpt>
      <trkpt lat="44.77082" lon="5.09639">
        <ele>651.8</ele>
        <time>1970-01-01T02:27:57.000Z</time>
      </trkpt>
      <trkpt lat="44.77072" lon="5.09639">
        <ele>651.4</ele>
        <time>1970-01-01T02:28:00.000Z</time>
      </trkpt>
      <trkpt lat="44.77069" lon="5.09639">
        <ele>651</ele>
        <time>1970-01-01T02:28:01.000Z</time>
      </trkpt>
      <trkpt lat="44.77065" lon="5.09639">
        <ele>650.6</ele>
        <time>1970-01-01T02:28:02.000Z</time>
      </trkpt>
      <trkpt lat="44.77061" lon="5.09638">
        <ele>650.2</ele>
        <time>1970-01-01T02:28:03.000Z</time>
      </trkpt>
      <trkpt lat="44.77058" lon="5.09639">
        <ele>649.6</ele>
        <time>1970-01-01T02:28:04.000Z</time>
      </trkpt>
      <trkpt lat="44.77056" lon="5.09641">
        <ele>649.2</ele>
        <time>1970-01-01T02:28:05.000Z</time>
      </trkpt>
      <trkpt lat="44.77052" lon="5.09644">
        <ele>648.6</ele>
        <time>1970-01-01T02:28:06.000Z</time>
      </trkpt>
      <trkpt lat="44.77048" lon="5.09647">
        <ele>648.2</ele>
        <time>1970-01-01T02:28:07.000Z</time>
      </trkpt>
      <trkpt lat="44.77045" lon="5.09648">
        <ele>647.8</ele>
        <time>1970-01-01T02:28:08.000Z</time>
      </trkpt>
      <trkpt lat="44.77041" lon="5.09649">
        <ele>647</ele>
        <time>1970-01-01T02:28:09.000Z</time>
      </trkpt>
      <trkpt lat="44.77037" lon="5.09647">
        <ele>646.2</ele>
        <time>1970-01-01T02:28:10.000Z</time>
      </trkpt>
      <trkpt lat="44.77034" lon="5.09646">
        <ele>645.8</ele>
        <time>1970-01-01T02:28:11.000Z</time>
      </trkpt>
      <trkpt lat="44.77031" lon="5.09645">
        <ele>645</ele>
        <time>1970-01-01T02:28:12.000Z</time>
      </trkpt>
      <trkpt lat="44.77028" lon="5.09645">
        <ele>644.6</ele>
        <time>1970-01-01T02:28:13.000Z</time>
      </trkpt>
      <trkpt lat="44.77027" lon="5.09645">
        <ele>644</ele>
        <time>1970-01-01T02:28:15.000Z</time>
      </trkpt>
      <trkpt lat="44.77023" lon="5.09645">
        <ele>643.2</ele>
        <time>1970-01-01T02:28:18.000Z</time>
      </trkpt>
      <trkpt lat="44.77016" lon="5.09643">
        <ele>641.8</ele>
        <time>1970-01-01T02:28:20.000Z</time>
      </trkpt>
      <trkpt lat="44.77012" lon="5.09642">
        <ele>641</ele>
        <time>1970-01-01T02:28:21.000Z</time>
      </trkpt>
      <trkpt lat="44.77009" lon="5.09641">
        <ele>640.4</ele>
        <time>1970-01-01T02:28:22.000Z</time>
      </trkpt>
      <trkpt lat="44.77005" lon="5.09642">
        <ele>639.2</ele>
        <time>1970-01-01T02:28:23.000Z</time>
      </trkpt>
      <trkpt lat="44.77001" lon="5.09644">
        <ele>638.2</ele>
        <time>1970-01-01T02:28:24.000Z</time>
      </trkpt>
      <trkpt lat="44.76996" lon="5.09646">
        <ele>636.8</ele>
        <time>1970-01-01T02:28:25.000Z</time>
      </trkpt>
      <trkpt lat="44.76993" lon="5.09645">
        <ele>635.2</ele>
        <time>1970-01-01T02:28:26.000Z</time>
      </trkpt>
      <trkpt lat="44.7699" lon="5.09645">
        <ele>633.6</ele>
        <time>1970-01-01T02:28:27.000Z</time>
      </trkpt>
      <trkpt lat="44.76986" lon="5.09644">
        <ele>633</ele>
        <time>1970-01-01T02:28:28.000Z</time>
      </trkpt>
      <trkpt lat="44.76982" lon="5.09644">
        <ele>632.4</ele>
        <time>1970-01-01T02:28:29.000Z</time>
      </trkpt>
      <trkpt lat="44.76975" lon="5.09644">
        <ele>631</ele>
        <time>1970-01-01T02:28:31.000Z</time>
      </trkpt>
      <trkpt lat="44.76972" lon="5.09646">
        <ele>630.4</ele>
        <time>1970-01-01T02:28:32.000Z</time>
      </trkpt>
      <trkpt lat="44.76968" lon="5.09649">
        <ele>629.6</ele>
        <time>1970-01-01T02:28:33.000Z</time>
      </trkpt>
      <trkpt lat="44.76965" lon="5.09651">
        <ele>628.4</ele>
        <time>1970-01-01T02:28:34.000Z</time>
      </trkpt>
      <trkpt lat="44.76962" lon="5.09654">
        <ele>627.8</ele>
        <time>1970-01-01T02:28:35.000Z</time>
      </trkpt>
      <trkpt lat="44.7696" lon="5.09658">
        <ele>626.4</ele>
        <time>1970-01-01T02:28:36.000Z</time>
      </trkpt>
      <trkpt lat="44.76957" lon="5.09662">
        <ele>625.2</ele>
        <time>1970-01-01T02:28:37.000Z</time>
      </trkpt>
      <trkpt lat="44.76953" lon="5.09665">
        <ele>624.4</ele>
        <time>1970-01-01T02:28:38.000Z</time>
      </trkpt>
      <trkpt lat="44.76948" lon="5.09669">
        <ele>623</ele>
        <time>1970-01-01T02:28:39.000Z</time>
      </trkpt>
      <trkpt lat="44.76943" lon="5.09671">
        <ele>621.6</ele>
        <time>1970-01-01T02:28:40.000Z</time>
      </trkpt>
      <trkpt lat="44.76938" lon="5.09672">
        <ele>620.6</ele>
        <time>1970-01-01T02:28:41.000Z</time>
      </trkpt>
      <trkpt lat="44.76932" lon="5.09671">
        <ele>619.6</ele>
        <time>1970-01-01T02:28:42.000Z</time>
      </trkpt>
      <trkpt lat="44.76926" lon="5.0967">
        <ele>617.8</ele>
        <time>1970-01-01T02:28:43.000Z</time>
      </trkpt>
      <trkpt lat="44.76922" lon="5.09671">
        <ele>615.4</ele>
        <time>1970-01-01T02:28:44.000Z</time>
      </trkpt>
      <trkpt lat="44.76918" lon="5.09672">
        <ele>614</ele>
        <time>1970-01-01T02:28:45.000Z</time>
      </trkpt>
      <trkpt lat="44.76914" lon="5.09671">
        <ele>613.4</ele>
        <time>1970-01-01T02:28:46.000Z</time>
      </trkpt>
      <trkpt lat="44.76909" lon="5.09669">
        <ele>612.8</ele>
        <time>1970-01-01T02:28:47.000Z</time>
      </trkpt>
      <trkpt lat="44.76905" lon="5.09667">
        <ele>612.2</ele>
        <time>1970-01-01T02:28:48.000Z</time>
      </trkpt>
      <trkpt lat="44.76901" lon="5.09666">
        <ele>610.6</ele>
        <time>1970-01-01T02:28:49.000Z</time>
      </trkpt>
      <trkpt lat="44.76897" lon="5.09666">
        <ele>609.2</ele>
        <time>1970-01-01T02:28:50.000Z</time>
      </trkpt>
      <trkpt lat="44.76894" lon="5.09666">
        <ele>608.2</ele>
        <time>1970-01-01T02:28:51.000Z</time>
      </trkpt>
      <trkpt lat="44.76892" lon="5.09666">
        <ele>607.4</ele>
        <time>1970-01-01T02:28:52.000Z</time>
      </trkpt>
      <trkpt lat="44.76884" lon="5.09667">
        <ele>605.6</ele>
        <time>1970-01-01T02:28:55.000Z</time>
      </trkpt>
      <trkpt lat="44.7688" lon="5.09667">
        <ele>604.8</ele>
        <time>1970-01-01T02:28:56.000Z</time>
      </trkpt>
      <trkpt lat="44.76876" lon="5.09666">
        <ele>604.2</ele>
        <time>1970-01-01T02:28:57.000Z</time>
      </trkpt>
      <trkpt lat="44.76872" lon="5.09666">
        <ele>603.6</ele>
        <time>1970-01-01T02:28:58.000Z</time>
      </trkpt>
      <trkpt lat="44.76869" lon="5.09664">
        <ele>603</ele>
        <time>1970-01-01T02:28:59.000Z</time>
      </trkpt>
      <trkpt lat="44.76865" lon="5.09663">
        <ele>602.6</ele>
        <time>1970-01-01T02:29:00.000Z</time>
      </trkpt>
      <trkpt lat="44.76862" lon="5.09663">
        <ele>602.4</ele>
        <time>1970-01-01T02:29:01.000Z</time>
      </trkpt>
      <trkpt lat="44.76855" lon="5.09664">
        <ele>602.2</ele>
        <time>1970-01-01T02:29:03.000Z</time>
      </trkpt>
      <trkpt lat="44.76851" lon="5.09664">
        <ele>602</ele>
        <time>1970-01-01T02:29:04.000Z</time>
      </trkpt>
      <trkpt lat="44.76848" lon="5.09664">
        <ele>602</ele>
        <time>1970-01-01T02:29:05.000Z</time>
      </trkpt>
      <trkpt lat="44.76844" lon="5.09665">
        <ele>601.8</ele>
        <time>1970-01-01T02:29:06.000Z</time>
      </trkpt>
      <trkpt lat="44.76841" lon="5.09665">
        <ele>601.8</ele>
        <time>1970-01-01T02:29:07.000Z</time>
      </trkpt>
      <trkpt lat="44.76838" lon="5.09664">
        <ele>601.8</ele>
        <time>1970-01-01T02:29:08.000Z</time>
      </trkpt>
      <trkpt lat="44.76836" lon="5.09663">
        <ele>601.8</ele>
        <time>1970-01-01T02:29:09.000Z</time>
      </trkpt>
      <trkpt lat="44.76833" lon="5.09663">
        <ele>602</ele>
        <time>1970-01-01T02:29:10.000Z</time>
      </trkpt>
      <trkpt lat="44.76829" lon="5.09662">
        <ele>602.6</ele>
        <time>1970-01-01T02:29:12.000Z</time>
      </trkpt>
      <trkpt lat="44.76826" lon="5.09661">
        <ele>602.6</ele>
        <time>1970-01-01T02:29:13.000Z</time>
      </trkpt>
      <trkpt lat="44.76824" lon="5.0966">
        <ele>602.8</ele>
        <time>1970-01-01T02:29:14.000Z</time>
      </trkpt>
      <trkpt lat="44.76821" lon="5.0966">
        <ele>602.8</ele>
        <time>1970-01-01T02:29:15.000Z</time>
      </trkpt>
      <trkpt lat="44.76819" lon="5.09661">
        <ele>602.8</ele>
        <time>1970-01-01T02:29:16.000Z</time>
      </trkpt>
      <trkpt lat="44.76817" lon="5.09662">
        <ele>602.8</ele>
        <time>1970-01-01T02:29:17.000Z</time>
      </trkpt>
      <trkpt lat="44.76809" lon="5.09663">
        <ele>602.4</ele>
        <time>1970-01-01T02:29:20.000Z</time>
      </trkpt>
      <trkpt lat="44.76806" lon="5.09664">
        <ele>602.4</ele>
        <time>1970-01-01T02:29:21.000Z</time>
      </trkpt>
      <trkpt lat="44.76802" lon="5.09664">
        <ele>602.2</ele>
        <time>1970-01-01T02:29:22.000Z</time>
      </trkpt>
      <trkpt lat="44.76796" lon="5.09668">
        <ele>602.2</ele>
        <time>1970-01-01T02:29:24.000Z</time>
      </trkpt>
      <trkpt lat="44.76794" lon="5.09668">
        <ele>602</ele>
        <time>1970-01-01T02:29:25.000Z</time>
      </trkpt>
      <trkpt lat="44.7679" lon="5.09667">
        <ele>602</ele>
        <time>1970-01-01T02:29:26.000Z</time>
      </trkpt>
      <trkpt lat="44.76786" lon="5.09666">
        <ele>601.8</ele>
        <time>1970-01-01T02:29:27.000Z</time>
      </trkpt>
      <trkpt lat="44.76782" lon="5.09666">
        <ele>602</ele>
        <time>1970-01-01T02:29:28.000Z</time>
      </trkpt>
      <trkpt lat="44.76778" lon="5.09666">
        <ele>602</ele>
        <time>1970-01-01T02:29:29.000Z</time>
      </trkpt>
      <trkpt lat="44.76771" lon="5.09668">
        <ele>602</ele>
        <time>1970-01-01T02:29:31.000Z</time>
      </trkpt>
      <trkpt lat="44.76767" lon="5.09669">
        <ele>601.8</ele>
        <time>1970-01-01T02:29:32.000Z</time>
      </trkpt>
      <trkpt lat="44.76764" lon="5.0967">
        <ele>601.4</ele>
        <time>1970-01-01T02:29:33.000Z</time>
      </trkpt>
      <trkpt lat="44.7676" lon="5.09674">
        <ele>601</ele>
        <time>1970-01-01T02:29:34.000Z</time>
      </trkpt>
      <trkpt lat="44.76753" lon="5.09678">
        <ele>600.4</ele>
        <time>1970-01-01T02:29:36.000Z</time>
      </trkpt>
      <trkpt lat="44.76749" lon="5.09678">
        <ele>600.4</ele>
        <time>1970-01-01T02:29:37.000Z</time>
      </trkpt>
      <trkpt lat="44.76746" lon="5.09676">
        <ele>600.2</ele>
        <time>1970-01-01T02:29:38.000Z</time>
      </trkpt>
      <trkpt lat="44.76743" lon="5.09675">
        <ele>600.2</ele>
        <time>1970-01-01T02:29:39.000Z</time>
      </trkpt>
      <trkpt lat="44.76739" lon="5.09674">
        <ele>600.6</ele>
        <time>1970-01-01T02:29:40.000Z</time>
      </trkpt>
      <trkpt lat="44.76735" lon="5.09674">
        <ele>600.8</ele>
        <time>1970-01-01T02:29:41.000Z</time>
      </trkpt>
      <trkpt lat="44.7673" lon="5.09674">
        <ele>601</ele>
        <time>1970-01-01T02:29:42.000Z</time>
      </trkpt>
      <trkpt lat="44.76721" lon="5.09674">
        <ele>600.8</ele>
        <time>1970-01-01T02:29:44.000Z</time>
      </trkpt>
      <trkpt lat="44.76716" lon="5.09673">
        <ele>600.8</ele>
        <time>1970-01-01T02:29:45.000Z</time>
      </trkpt>
      <trkpt lat="44.76712" lon="5.09671">
        <ele>600.6</ele>
        <time>1970-01-01T02:29:46.000Z</time>
      </trkpt>
      <trkpt lat="44.76708" lon="5.09669">
        <ele>600.4</ele>
        <time>1970-01-01T02:29:47.000Z</time>
      </trkpt>
      <trkpt lat="44.76704" lon="5.09668">
        <ele>600.2</ele>
        <time>1970-01-01T02:29:48.000Z</time>
      </trkpt>
      <trkpt lat="44.76701" lon="5.09668">
        <ele>600</ele>
        <time>1970-01-01T02:29:49.000Z</time>
      </trkpt>
      <trkpt lat="44.76697" lon="5.09668">
        <ele>599.8</ele>
        <time>1970-01-01T02:29:50.000Z</time>
      </trkpt>
      <trkpt lat="44.76693" lon="5.09668">
        <ele>599.6</ele>
        <time>1970-01-01T02:29:51.000Z</time>
      </trkpt>
      <trkpt lat="44.76685" lon="5.09667">
        <ele>598.6</ele>
        <time>1970-01-01T02:29:53.000Z</time>
      </trkpt>
      <trkpt lat="44.76681" lon="5.09668">
        <ele>598.2</ele>
        <time>1970-01-01T02:29:54.000Z</time>
      </trkpt>
      <trkpt lat="44.76678" lon="5.0967">
        <ele>597.8</ele>
        <time>1970-01-01T02:29:55.000Z</time>
      </trkpt>
      <trkpt lat="44.76674" lon="5.09673">
        <ele>597.4</ele>
        <time>1970-01-01T02:29:56.000Z</time>
      </trkpt>
      <trkpt lat="44.7667" lon="5.09674">
        <ele>596.2</ele>
        <time>1970-01-01T02:29:57.000Z</time>
      </trkpt>
      <trkpt lat="44.76666" lon="5.09674">
        <ele>595.2</ele>
        <time>1970-01-01T02:29:58.000Z</time>
      </trkpt>
      <trkpt lat="44.76663" lon="5.09673">
        <ele>594.4</ele>
        <time>1970-01-01T02:29:59.000Z</time>
      </trkpt>
      <trkpt lat="44.76661" lon="5.09672">
        <ele>593.8</ele>
        <time>1970-01-01T02:30:00.000Z</time>
      </trkpt>
      <trkpt lat="44.76658" lon="5.09672">
        <ele>593.2</ele>
        <time>1970-01-01T02:30:01.000Z</time>
      </trkpt>
      <trkpt lat="44.76657" lon="5.09674">
        <ele>592.8</ele>
        <time>1970-01-01T02:30:02.000Z</time>
      </trkpt>
      <trkpt lat="44.76652" lon="5.09681">
        <ele>591.6</ele>
        <time>1970-01-01T02:30:04.000Z</time>
      </trkpt>
      <trkpt lat="44.76649" lon="5.09684">
        <ele>590.6</ele>
        <time>1970-01-01T02:30:05.000Z</time>
      </trkpt>
      <trkpt lat="44.76645" lon="5.09686">
        <ele>589.6</ele>
        <time>1970-01-01T02:30:06.000Z</time>
      </trkpt>
      <trkpt lat="44.7664" lon="5.09689">
        <ele>588.2</ele>
        <time>1970-01-01T02:30:07.000Z</time>
      </trkpt>
      <trkpt lat="44.76635" lon="5.09691">
        <ele>587</ele>
        <time>1970-01-01T02:30:08.000Z</time>
      </trkpt>
      <trkpt lat="44.76631" lon="5.09692">
        <ele>586</ele>
        <time>1970-01-01T02:30:09.000Z</time>
      </trkpt>
      <trkpt lat="44.76626" lon="5.09693">
        <ele>584.6</ele>
        <time>1970-01-01T02:30:10.000Z</time>
      </trkpt>
      <trkpt lat="44.76622" lon="5.09694">
        <ele>583.6</ele>
        <time>1970-01-01T02:30:11.000Z</time>
      </trkpt>
      <trkpt lat="44.76615" lon="5.09698">
        <ele>580.8</ele>
        <time>1970-01-01T02:30:12.000Z</time>
      </trkpt>
      <trkpt lat="44.7661" lon="5.097">
        <ele>579.4</ele>
        <time>1970-01-01T02:30:13.000Z</time>
      </trkpt>
      <trkpt lat="44.76604" lon="5.09701">
        <ele>578.6</ele>
        <time>1970-01-01T02:30:14.000Z</time>
      </trkpt>
      <trkpt lat="44.76599" lon="5.09702">
        <ele>577.8</ele>
        <time>1970-01-01T02:30:15.000Z</time>
      </trkpt>
      <trkpt lat="44.76592" lon="5.09706">
        <ele>577</ele>
        <time>1970-01-01T02:30:16.000Z</time>
      </trkpt>
      <trkpt lat="44.76586" lon="5.09708">
        <ele>575.4</ele>
        <time>1970-01-01T02:30:17.000Z</time>
      </trkpt>
      <trkpt lat="44.76579" lon="5.09711">
        <ele>572.6</ele>
        <time>1970-01-01T02:30:18.000Z</time>
      </trkpt>
      <trkpt lat="44.76574" lon="5.09713">
        <ele>570.8</ele>
        <time>1970-01-01T02:30:19.000Z</time>
      </trkpt>
      <trkpt lat="44.76569" lon="5.09715">
        <ele>569.4</ele>
        <time>1970-01-01T02:30:20.000Z</time>
      </trkpt>
      <trkpt lat="44.76564" lon="5.09715">
        <ele>568.6</ele>
        <time>1970-01-01T02:30:21.000Z</time>
      </trkpt>
      <trkpt lat="44.76561" lon="5.09714">
        <ele>567.8</ele>
        <time>1970-01-01T02:30:22.000Z</time>
      </trkpt>
      <trkpt lat="44.76556" lon="5.09713">
        <ele>567</ele>
        <time>1970-01-01T02:30:23.000Z</time>
      </trkpt>
      <trkpt lat="44.76553" lon="5.09712">
        <ele>566.6</ele>
        <time>1970-01-01T02:30:24.000Z</time>
      </trkpt>
      <trkpt lat="44.7655" lon="5.09712">
        <ele>565.8</ele>
        <time>1970-01-01T02:30:25.000Z</time>
      </trkpt>
      <trkpt lat="44.76547" lon="5.09711">
        <ele>565.4</ele>
        <time>1970-01-01T02:30:26.000Z</time>
      </trkpt>
      <trkpt lat="44.7654" lon="5.0971">
        <ele>564.6</ele>
        <time>1970-01-01T02:30:28.000Z</time>
      </trkpt>
      <trkpt lat="44.76536" lon="5.09712">
        <ele>564.2</ele>
        <time>1970-01-01T02:30:29.000Z</time>
      </trkpt>
      <trkpt lat="44.76533" lon="5.09712">
        <ele>564</ele>
        <time>1970-01-01T02:30:30.000Z</time>
      </trkpt>
      <trkpt lat="44.7653" lon="5.09711">
        <ele>563.6</ele>
        <time>1970-01-01T02:30:31.000Z</time>
      </trkpt>
      <trkpt lat="44.76523" lon="5.09709">
        <ele>563.4</ele>
        <time>1970-01-01T02:30:33.000Z</time>
      </trkpt>
      <trkpt lat="44.7652" lon="5.0971">
        <ele>563.2</ele>
        <time>1970-01-01T02:30:34.000Z</time>
      </trkpt>
      <trkpt lat="44.76514" lon="5.09709">
        <ele>562.6</ele>
        <time>1970-01-01T02:30:36.000Z</time>
      </trkpt>
      <trkpt lat="44.76506" lon="5.09709">
        <ele>562</ele>
        <time>1970-01-01T02:30:38.000Z</time>
      </trkpt>
      <trkpt lat="44.76502" lon="5.09709">
        <ele>561.2</ele>
        <time>1970-01-01T02:30:39.000Z</time>
      </trkpt>
      <trkpt lat="44.76498" lon="5.09709">
        <ele>560.6</ele>
        <time>1970-01-01T02:30:40.000Z</time>
      </trkpt>
      <trkpt lat="44.76486" lon="5.09706">
        <ele>559.2</ele>
        <time>1970-01-01T02:30:43.000Z</time>
      </trkpt>
      <trkpt lat="44.76481" lon="5.09706">
        <ele>559</ele>
        <time>1970-01-01T02:30:44.000Z</time>
      </trkpt>
      <trkpt lat="44.76476" lon="5.09706">
        <ele>558.4</ele>
        <time>1970-01-01T02:30:45.000Z</time>
      </trkpt>
      <trkpt lat="44.76471" lon="5.09707">
        <ele>557.6</ele>
        <time>1970-01-01T02:30:46.000Z</time>
      </trkpt>
      <trkpt lat="44.76468" lon="5.09708">
        <ele>557</ele>
        <time>1970-01-01T02:30:47.000Z</time>
      </trkpt>
      <trkpt lat="44.76463" lon="5.09708">
        <ele>555.6</ele>
        <time>1970-01-01T02:30:48.000Z</time>
      </trkpt>
      <trkpt lat="44.76458" lon="5.09706">
        <ele>554.6</ele>
        <time>1970-01-01T02:30:49.000Z</time>
      </trkpt>
      <trkpt lat="44.76454" lon="5.09704">
        <ele>554</ele>
        <time>1970-01-01T02:30:50.000Z</time>
      </trkpt>
      <trkpt lat="44.76449" lon="5.09704">
        <ele>553.4</ele>
        <time>1970-01-01T02:30:51.000Z</time>
      </trkpt>
      <trkpt lat="44.76444" lon="5.09704">
        <ele>552.4</ele>
        <time>1970-01-01T02:30:52.000Z</time>
      </trkpt>
      <trkpt lat="44.7644" lon="5.09704">
        <ele>552</ele>
        <time>1970-01-01T02:30:53.000Z</time>
      </trkpt>
      <trkpt lat="44.76435" lon="5.09702">
        <ele>551.2</ele>
        <time>1970-01-01T02:30:54.000Z</time>
      </trkpt>
      <trkpt lat="44.76429" lon="5.09701">
        <ele>549.8</ele>
        <time>1970-01-01T02:30:56.000Z</time>
      </trkpt>
      <trkpt lat="44.76426" lon="5.09702">
        <ele>549.2</ele>
        <time>1970-01-01T02:30:57.000Z</time>
      </trkpt>
      <trkpt lat="44.76422" lon="5.09703">
        <ele>548.2</ele>
        <time>1970-01-01T02:30:58.000Z</time>
      </trkpt>
      <trkpt lat="44.7641" lon="5.09704">
        <ele>546.8</ele>
        <time>1970-01-01T02:31:00.000Z</time>
      </trkpt>
      <trkpt lat="44.76404" lon="5.09704">
        <ele>545.4</ele>
        <time>1970-01-01T02:31:01.000Z</time>
      </trkpt>
      <trkpt lat="44.76399" lon="5.09704">
        <ele>544</ele>
        <time>1970-01-01T02:31:02.000Z</time>
      </trkpt>
      <trkpt lat="44.76395" lon="5.09706">
        <ele>542.6</ele>
        <time>1970-01-01T02:31:03.000Z</time>
      </trkpt>
      <trkpt lat="44.76392" lon="5.09707">
        <ele>541.8</ele>
        <time>1970-01-01T02:31:04.000Z</time>
      </trkpt>
      <trkpt lat="44.7639" lon="5.09708">
        <ele>540.4</ele>
        <time>1970-01-01T02:31:05.000Z</time>
      </trkpt>
      <trkpt lat="44.76388" lon="5.09709">
        <ele>539.6</ele>
        <time>1970-01-01T02:31:06.000Z</time>
      </trkpt>
      <trkpt lat="44.76387" lon="5.0971">
        <ele>538.8</ele>
        <time>1970-01-01T02:31:07.000Z</time>
      </trkpt>
      <trkpt lat="44.76385" lon="5.09711">
        <ele>538.4</ele>
        <time>1970-01-01T02:31:08.000Z</time>
      </trkpt>
      <trkpt lat="44.76382" lon="5.0971">
        <ele>538</ele>
        <time>1970-01-01T02:31:09.000Z</time>
      </trkpt>
      <trkpt lat="44.7638" lon="5.09709">
        <ele>536.8</ele>
        <time>1970-01-01T02:31:10.000Z</time>
      </trkpt>
      <trkpt lat="44.76378" lon="5.09708">
        <ele>535.8</ele>
        <time>1970-01-01T02:31:11.000Z</time>
      </trkpt>
      <trkpt lat="44.76376" lon="5.09708">
        <ele>534.8</ele>
        <time>1970-01-01T02:31:12.000Z</time>
      </trkpt>
      <trkpt lat="44.76376" lon="5.09707">
        <ele>534</ele>
        <time>1970-01-01T02:31:13.000Z</time>
      </trkpt>
      <trkpt lat="44.76375" lon="5.09708">
        <ele>532.8</ele>
        <time>1970-01-01T02:31:14.000Z</time>
      </trkpt>
      <trkpt lat="44.76374" lon="5.0971">
        <ele>531.8</ele>
        <time>1970-01-01T02:31:15.000Z</time>
      </trkpt>
      <trkpt lat="44.76373" lon="5.09711">
        <ele>531</ele>
        <time>1970-01-01T02:31:16.000Z</time>
      </trkpt>
      <trkpt lat="44.76372" lon="5.09712">
        <ele>530</ele>
        <time>1970-01-01T02:31:17.000Z</time>
      </trkpt>
      <trkpt lat="44.76371" lon="5.09712">
        <ele>529.4</ele>
        <time>1970-01-01T02:31:18.000Z</time>
      </trkpt>
      <trkpt lat="44.7637" lon="5.09711">
        <ele>528.8</ele>
        <time>1970-01-01T02:31:19.000Z</time>
      </trkpt>
      <trkpt lat="44.76369" lon="5.09711">
        <ele>528.2</ele>
        <time>1970-01-01T02:31:20.000Z</time>
      </trkpt>
      <trkpt lat="44.76367" lon="5.09711">
        <ele>527.6</ele>
        <time>1970-01-01T02:31:21.000Z</time>
      </trkpt>
      <trkpt lat="44.76364" lon="5.09711">
        <ele>526</ele>
        <time>1970-01-01T02:31:22.000Z</time>
      </trkpt>
      <trkpt lat="44.76363" lon="5.0971">
        <ele>525</ele>
        <time>1970-01-01T02:31:23.000Z</time>
      </trkpt>
      <trkpt lat="44.76361" lon="5.09707">
        <ele>523.4</ele>
        <time>1970-01-01T02:31:24.000Z</time>
      </trkpt>
      <trkpt lat="44.76359" lon="5.09702">
        <ele>521.8</ele>
        <time>1970-01-01T02:31:26.000Z</time>
      </trkpt>
      <trkpt lat="44.76357" lon="5.09699">
        <ele>521</ele>
        <time>1970-01-01T02:31:27.000Z</time>
      </trkpt>
      <trkpt lat="44.76355" lon="5.09696">
        <ele>519.4</ele>
        <time>1970-01-01T02:31:28.000Z</time>
      </trkpt>
      <trkpt lat="44.76354" lon="5.09693">
        <ele>518.6</ele>
        <time>1970-01-01T02:31:29.000Z</time>
      </trkpt>
      <trkpt lat="44.76352" lon="5.09689">
        <ele>517</ele>
        <time>1970-01-01T02:31:30.000Z</time>
      </trkpt>
      <trkpt lat="44.76351" lon="5.09686">
        <ele>516</ele>
        <time>1970-01-01T02:31:31.000Z</time>
      </trkpt>
      <trkpt lat="44.76351" lon="5.09683">
        <ele>514.8</ele>
        <time>1970-01-01T02:31:32.000Z</time>
      </trkpt>
      <trkpt lat="44.76348" lon="5.09676">
        <ele>512.2</ele>
        <time>1970-01-01T02:31:34.000Z</time>
      </trkpt>
      <trkpt lat="44.76345" lon="5.09673">
        <ele>511</ele>
        <time>1970-01-01T02:31:35.000Z</time>
      </trkpt>
      <trkpt lat="44.76341" lon="5.0967">
        <ele>509.6</ele>
        <time>1970-01-01T02:31:36.000Z</time>
      </trkpt>
      <trkpt lat="44.76336" lon="5.09666">
        <ele>508.4</ele>
        <time>1970-01-01T02:31:37.000Z</time>
      </trkpt>
      <trkpt lat="44.76331" lon="5.09662">
        <ele>507.2</ele>
        <time>1970-01-01T02:31:38.000Z</time>
      </trkpt>
      <trkpt lat="44.76326" lon="5.09658">
        <ele>506.6</ele>
        <time>1970-01-01T02:31:39.000Z</time>
      </trkpt>
      <trkpt lat="44.76323" lon="5.09655">
        <ele>505.6</ele>
        <time>1970-01-01T02:31:40.000Z</time>
      </trkpt>
      <trkpt lat="44.76321" lon="5.09654">
        <ele>505</ele>
        <time>1970-01-01T02:31:41.000Z</time>
      </trkpt>
      <trkpt lat="44.76316" lon="5.09655">
        <ele>504.6</ele>
        <time>1970-01-01T02:31:43.000Z</time>
      </trkpt>
      <trkpt lat="44.76311" lon="5.09656">
        <ele>503.2</ele>
        <time>1970-01-01T02:33:10.000Z</time>
      </trkpt>
      <trkpt lat="44.76306" lon="5.09657">
        <ele>502.8</ele>
        <time>1970-01-01T02:33:11.000Z</time>
      </trkpt>
      <trkpt lat="44.76301" lon="5.0966">
        <ele>502.6</ele>
        <time>1970-01-01T02:33:12.000Z</time>
      </trkpt>
      <trkpt lat="44.76297" lon="5.09662">
        <ele>502.4</ele>
        <time>1970-01-01T02:33:13.000Z</time>
      </trkpt>
      <trkpt lat="44.76292" lon="5.09664">
        <ele>502.2</ele>
        <time>1970-01-01T02:33:14.000Z</time>
      </trkpt>
      <trkpt lat="44.76287" lon="5.09665">
        <ele>502</ele>
        <time>1970-01-01T02:33:15.000Z</time>
      </trkpt>
      <trkpt lat="44.76282" lon="5.09667">
        <ele>501.8</ele>
        <time>1970-01-01T02:33:16.000Z</time>
      </trkpt>
      <trkpt lat="44.76276" lon="5.09668">
        <ele>500.8</ele>
        <time>1970-01-01T02:33:17.000Z</time>
      </trkpt>
      <trkpt lat="44.76266" lon="5.09672">
        <ele>499.4</ele>
        <time>1970-01-01T02:33:19.000Z</time>
      </trkpt>
      <trkpt lat="44.76255" lon="5.09674">
        <ele>498.8</ele>
        <time>1970-01-01T02:33:21.000Z</time>
      </trkpt>
      <trkpt lat="44.76247" lon="5.09674">
        <ele>496.6</ele>
        <time>1970-01-01T02:33:22.000Z</time>
      </trkpt>
      <trkpt lat="44.7624" lon="5.09673">
        <ele>494.8</ele>
        <time>1970-01-01T02:33:23.000Z</time>
      </trkpt>
      <trkpt lat="44.76231" lon="5.09673">
        <ele>493.4</ele>
        <time>1970-01-01T02:33:24.000Z</time>
      </trkpt>
      <trkpt lat="44.76224" lon="5.09675">
        <ele>491.4</ele>
        <time>1970-01-01T02:33:25.000Z</time>
      </trkpt>
      <trkpt lat="44.76216" lon="5.09676">
        <ele>489.2</ele>
        <time>1970-01-01T02:33:26.000Z</time>
      </trkpt>
      <trkpt lat="44.76205" lon="5.09678">
        <ele>488</ele>
        <time>1970-01-01T02:33:27.000Z</time>
      </trkpt>
      <trkpt lat="44.76186" lon="5.09677">
        <ele>486.2</ele>
        <time>1970-01-01T02:33:29.000Z</time>
      </trkpt>
      <trkpt lat="44.76178" lon="5.09676">
        <ele>485</ele>
        <time>1970-01-01T02:33:30.000Z</time>
      </trkpt>
      <trkpt lat="44.76169" lon="5.09675">
        <ele>482.2</ele>
        <time>1970-01-01T02:33:31.000Z</time>
      </trkpt>
      <trkpt lat="44.76161" lon="5.09674">
        <ele>481.2</ele>
        <time>1970-01-01T02:33:32.000Z</time>
      </trkpt>
      <trkpt lat="44.76155" lon="5.09675">
        <ele>480.6</ele>
        <time>1970-01-01T02:33:33.000Z</time>
      </trkpt>
      <trkpt lat="44.76152" lon="5.09677">
        <ele>480</ele>
        <time>1970-01-01T02:33:34.000Z</time>
      </trkpt>
      <trkpt lat="44.7615" lon="5.09681">
        <ele>479.6</ele>
        <time>1970-01-01T02:33:35.000Z</time>
      </trkpt>
      <trkpt lat="44.76149" lon="5.09687">
        <ele>479.2</ele>
        <time>1970-01-01T02:33:36.000Z</time>
      </trkpt>
      <trkpt lat="44.76148" lon="5.09692">
        <ele>479</ele>
        <time>1970-01-01T02:33:37.000Z</time>
      </trkpt>
      <trkpt lat="44.76147" lon="5.09697">
        <ele>479</ele>
        <time>1970-01-01T02:33:38.000Z</time>
      </trkpt>
      <trkpt lat="44.76148" lon="5.09702">
        <ele>478.8</ele>
        <time>1970-01-01T02:33:39.000Z</time>
      </trkpt>
      <trkpt lat="44.76149" lon="5.09705">
        <ele>478.8</ele>
        <time>1970-01-01T02:33:40.000Z</time>
      </trkpt>
      <trkpt lat="44.76149" lon="5.09709">
        <ele>478.6</ele>
        <time>1970-01-01T02:33:41.000Z</time>
      </trkpt>
      <trkpt lat="44.7615" lon="5.09712">
        <ele>478.6</ele>
        <time>1970-01-01T02:33:42.000Z</time>
      </trkpt>
      <trkpt lat="44.7615" lon="5.09721">
        <ele>478</ele>
        <time>1970-01-01T02:33:44.000Z</time>
      </trkpt>
      <trkpt lat="44.76149" lon="5.09726">
        <ele>477.6</ele>
        <time>1970-01-01T02:33:45.000Z</time>
      </trkpt>
      <trkpt lat="44.76149" lon="5.09733">
        <ele>476.6</ele>
        <time>1970-01-01T02:33:46.000Z</time>
      </trkpt>
      <trkpt lat="44.76149" lon="5.0974">
        <ele>476</ele>
        <time>1970-01-01T02:33:47.000Z</time>
      </trkpt>
      <trkpt lat="44.76149" lon="5.09749">
        <ele>474.6</ele>
        <time>1970-01-01T02:33:48.000Z</time>
      </trkpt>
      <trkpt lat="44.76151" lon="5.09756">
        <ele>473</ele>
        <time>1970-01-01T02:33:49.000Z</time>
      </trkpt>
      <trkpt lat="44.76153" lon="5.09761">
        <ele>472.2</ele>
        <time>1970-01-01T02:33:50.000Z</time>
      </trkpt>
      <trkpt lat="44.76156" lon="5.09768">
        <ele>471.2</ele>
        <time>1970-01-01T02:33:51.000Z</time>
      </trkpt>
      <trkpt lat="44.76162" lon="5.09777">
        <ele>470.2</ele>
        <time>1970-01-01T02:33:52.000Z</time>
      </trkpt>
      <trkpt lat="44.76168" lon="5.09785">
        <ele>469.4</ele>
        <time>1970-01-01T02:33:53.000Z</time>
      </trkpt>
      <trkpt lat="44.76173" lon="5.09793">
        <ele>468.4</ele>
        <time>1970-01-01T02:33:54.000Z</time>
      </trkpt>
      <trkpt lat="44.76177" lon="5.09802">
        <ele>467.4</ele>
        <time>1970-01-01T02:33:55.000Z</time>
      </trkpt>
      <trkpt lat="44.76179" lon="5.09807">
        <ele>466.8</ele>
        <time>1970-01-01T02:33:56.000Z</time>
      </trkpt>
      <trkpt lat="44.76184" lon="5.09817">
        <ele>466.2</ele>
        <time>1970-01-01T02:33:57.000Z</time>
      </trkpt>
      <trkpt lat="44.76187" lon="5.09825">
        <ele>466</ele>
        <time>1970-01-01T02:33:58.000Z</time>
      </trkpt>
      <trkpt lat="44.7619" lon="5.09834">
        <ele>465.6</ele>
        <time>1970-01-01T02:33:59.000Z</time>
      </trkpt>
      <trkpt lat="44.76193" lon="5.09841">
        <ele>465.2</ele>
        <time>1970-01-01T02:34:00.000Z</time>
      </trkpt>
      <trkpt lat="44.76197" lon="5.09849">
        <ele>463.6</ele>
        <time>1970-01-01T02:34:01.000Z</time>
      </trkpt>
      <trkpt lat="44.76201" lon="5.09855">
        <ele>462.6</ele>
        <time>1970-01-01T02:34:02.000Z</time>
      </trkpt>
      <trkpt lat="44.76204" lon="5.09859">
        <ele>461.4</ele>
        <time>1970-01-01T02:34:03.000Z</time>
      </trkpt>
      <trkpt lat="44.76207" lon="5.09861">
        <ele>460.2</ele>
        <time>1970-01-01T02:34:04.000Z</time>
      </trkpt>
      <trkpt lat="44.76208" lon="5.09861">
        <ele>459.4</ele>
        <time>1970-01-01T02:34:05.000Z</time>
      </trkpt>
      <trkpt lat="44.76207" lon="5.09862">
        <ele>458.4</ele>
        <time>1970-01-01T02:34:06.000Z</time>
      </trkpt>
      <trkpt lat="44.76206" lon="5.09862">
        <ele>457.4</ele>
        <time>1970-01-01T02:34:07.000Z</time>
      </trkpt>
      <trkpt lat="44.76205" lon="5.09861">
        <ele>456.6</ele>
        <time>1970-01-01T02:34:08.000Z</time>
      </trkpt>
      <trkpt lat="44.76204" lon="5.0986">
        <ele>456.2</ele>
        <time>1970-01-01T02:34:09.000Z</time>
      </trkpt>
      <trkpt lat="44.76201" lon="5.09858">
        <ele>455.8</ele>
        <time>1970-01-01T02:34:11.000Z</time>
      </trkpt>
      <trkpt lat="44.762" lon="5.09857">
        <ele>455.6</ele>
        <time>1970-01-01T02:34:12.000Z</time>
      </trkpt>
      <trkpt lat="44.76198" lon="5.09856">
        <ele>455.4</ele>
        <time>1970-01-01T02:34:13.000Z</time>
      </trkpt>
      <trkpt lat="44.76195" lon="5.09856">
        <ele>455</ele>
        <time>1970-01-01T02:34:15.000Z</time>
      </trkpt>
      <trkpt lat="44.76185" lon="5.0985">
        <ele>454.4</ele>
        <time>1970-01-01T02:34:18.000Z</time>
      </trkpt>
      <trkpt lat="44.76177" lon="5.09847">
        <ele>454</ele>
        <time>1970-01-01T02:34:20.000Z</time>
      </trkpt>
      <trkpt lat="44.76174" lon="5.09845">
        <ele>453.8</ele>
        <time>1970-01-01T02:34:21.000Z</time>
      </trkpt>
      <trkpt lat="44.76154" lon="5.09836">
        <ele>453</ele>
        <time>1970-01-01T02:34:26.000Z</time>
      </trkpt>
      <trkpt lat="44.76149" lon="5.09833">
        <ele>452.6</ele>
        <time>1970-01-01T02:34:27.000Z</time>
      </trkpt>
      <trkpt lat="44.76143" lon="5.0983">
        <ele>452.4</ele>
        <time>1970-01-01T02:34:28.000Z</time>
      </trkpt>
      <trkpt lat="44.76138" lon="5.09827">
        <ele>452.2</ele>
        <time>1970-01-01T02:34:29.000Z</time>
      </trkpt>
      <trkpt lat="44.76133" lon="5.09824">
        <ele>452</ele>
        <time>1970-01-01T02:34:30.000Z</time>
      </trkpt>
      <trkpt lat="44.76128" lon="5.09821">
        <ele>451.8</ele>
        <time>1970-01-01T02:34:31.000Z</time>
      </trkpt>
      <trkpt lat="44.76122" lon="5.09818">
        <ele>451.8</ele>
        <time>1970-01-01T02:34:32.000Z</time>
      </trkpt>
      <trkpt lat="44.76117" lon="5.09816">
        <ele>451.4</ele>
        <time>1970-01-01T02:34:33.000Z</time>
      </trkpt>
      <trkpt lat="44.76112" lon="5.09813">
        <ele>451.4</ele>
        <time>1970-01-01T02:34:34.000Z</time>
      </trkpt>
      <trkpt lat="44.76108" lon="5.09811">
        <ele>451.2</ele>
        <time>1970-01-01T02:34:35.000Z</time>
      </trkpt>
      <trkpt lat="44.76103" lon="5.09808">
        <ele>451.4</ele>
        <time>1970-01-01T02:34:36.000Z</time>
      </trkpt>
      <trkpt lat="44.76099" lon="5.09806">
        <ele>451.6</ele>
        <time>1970-01-01T02:34:37.000Z</time>
      </trkpt>
      <trkpt lat="44.76095" lon="5.09803">
        <ele>451.6</ele>
        <time>1970-01-01T02:34:38.000Z</time>
      </trkpt>
      <trkpt lat="44.76091" lon="5.09801">
        <ele>452</ele>
        <time>1970-01-01T02:34:39.000Z</time>
      </trkpt>
      <trkpt lat="44.76087" lon="5.098">
        <ele>452.2</ele>
        <time>1970-01-01T02:34:40.000Z</time>
      </trkpt>
      <trkpt lat="44.76083" lon="5.09799">
        <ele>452.4</ele>
        <time>1970-01-01T02:34:41.000Z</time>
      </trkpt>
      <trkpt lat="44.76079" lon="5.09798">
        <ele>452.6</ele>
        <time>1970-01-01T02:34:42.000Z</time>
      </trkpt>
      <trkpt lat="44.76074" lon="5.09798">
        <ele>452.6</ele>
        <time>1970-01-01T02:34:43.000Z</time>
      </trkpt>
      <trkpt lat="44.76067" lon="5.09798">
        <ele>453.2</ele>
        <time>1970-01-01T02:34:45.000Z</time>
      </trkpt>
      <trkpt lat="44.76055" lon="5.09798">
        <ele>453.4</ele>
        <time>1970-01-01T02:34:48.000Z</time>
      </trkpt>
      <trkpt lat="44.7605" lon="5.09798">
        <ele>453.4</ele>
        <time>1970-01-01T02:34:49.000Z</time>
      </trkpt>
      <trkpt lat="44.76046" lon="5.09798">
        <ele>453.6</ele>
        <time>1970-01-01T02:34:50.000Z</time>
      </trkpt>
      <trkpt lat="44.76042" lon="5.09798">
        <ele>453.6</ele>
        <time>1970-01-01T02:34:51.000Z</time>
      </trkpt>
      <trkpt lat="44.76038" lon="5.09798">
        <ele>453.6</ele>
        <time>1970-01-01T02:34:52.000Z</time>
      </trkpt>
      <trkpt lat="44.76034" lon="5.09797">
        <ele>453.8</ele>
        <time>1970-01-01T02:34:53.000Z</time>
      </trkpt>
      <trkpt lat="44.7603" lon="5.09797">
        <ele>454</ele>
        <time>1970-01-01T02:34:54.000Z</time>
      </trkpt>
      <trkpt lat="44.76026" lon="5.09797">
        <ele>454.4</ele>
        <time>1970-01-01T02:34:55.000Z</time>
      </trkpt>
      <trkpt lat="44.76022" lon="5.09796">
        <ele>455</ele>
        <time>1970-01-01T02:34:56.000Z</time>
      </trkpt>
      <trkpt lat="44.76018" lon="5.09796">
        <ele>455.6</ele>
        <time>1970-01-01T02:34:57.000Z</time>
      </trkpt>
      <trkpt lat="44.76014" lon="5.09796">
        <ele>456</ele>
        <time>1970-01-01T02:34:58.000Z</time>
      </trkpt>
      <trkpt lat="44.76006" lon="5.09797">
        <ele>456.2</ele>
        <time>1970-01-01T02:35:00.000Z</time>
      </trkpt>
      <trkpt lat="44.76001" lon="5.09797">
        <ele>456.2</ele>
        <time>1970-01-01T02:35:01.000Z</time>
      </trkpt>
      <trkpt lat="44.75999" lon="5.09795">
        <ele>456</ele>
        <time>1970-01-01T02:35:02.000Z</time>
      </trkpt>
      <trkpt lat="44.75998" lon="5.09793">
        <ele>455.8</ele>
        <time>1970-01-01T02:35:03.000Z</time>
      </trkpt>
      <trkpt lat="44.75996" lon="5.09789">
        <ele>455.6</ele>
        <time>1970-01-01T02:35:04.000Z</time>
      </trkpt>
      <trkpt lat="44.75993" lon="5.09784">
        <ele>455.2</ele>
        <time>1970-01-01T02:35:05.000Z</time>
      </trkpt>
      <trkpt lat="44.7599" lon="5.0978">
        <ele>455</ele>
        <time>1970-01-01T02:35:06.000Z</time>
      </trkpt>
      <trkpt lat="44.75985" lon="5.09776">
        <ele>454.8</ele>
        <time>1970-01-01T02:35:07.000Z</time>
      </trkpt>
      <trkpt lat="44.75981" lon="5.09772">
        <ele>454.4</ele>
        <time>1970-01-01T02:35:08.000Z</time>
      </trkpt>
      <trkpt lat="44.75975" lon="5.09768">
        <ele>453.8</ele>
        <time>1970-01-01T02:35:09.000Z</time>
      </trkpt>
      <trkpt lat="44.7597" lon="5.09763">
        <ele>453.2</ele>
        <time>1970-01-01T02:35:10.000Z</time>
      </trkpt>
      <trkpt lat="44.75966" lon="5.09757">
        <ele>452.8</ele>
        <time>1970-01-01T02:35:11.000Z</time>
      </trkpt>
      <trkpt lat="44.75963" lon="5.09751">
        <ele>452.2</ele>
        <time>1970-01-01T02:35:12.000Z</time>
      </trkpt>
      <trkpt lat="44.75961" lon="5.09745">
        <ele>452</ele>
        <time>1970-01-01T02:35:13.000Z</time>
      </trkpt>
      <trkpt lat="44.75958" lon="5.09739">
        <ele>451.6</ele>
        <time>1970-01-01T02:35:14.000Z</time>
      </trkpt>
      <trkpt lat="44.75955" lon="5.09733">
        <ele>451.6</ele>
        <time>1970-01-01T02:35:15.000Z</time>
      </trkpt>
      <trkpt lat="44.75952" lon="5.09727">
        <ele>451.4</ele>
        <time>1970-01-01T02:35:16.000Z</time>
      </trkpt>
      <trkpt lat="44.75949" lon="5.09722">
        <ele>451.4</ele>
        <time>1970-01-01T02:35:17.000Z</time>
      </trkpt>
      <trkpt lat="44.75946" lon="5.09717">
        <ele>451.4</ele>
        <time>1970-01-01T02:35:18.000Z</time>
      </trkpt>
      <trkpt lat="44.75938" lon="5.09708">
        <ele>451.2</ele>
        <time>1970-01-01T02:35:20.000Z</time>
      </trkpt>
      <trkpt lat="44.75934" lon="5.09704">
        <ele>451.2</ele>
        <time>1970-01-01T02:35:21.000Z</time>
      </trkpt>
      <trkpt lat="44.7593" lon="5.09701">
        <ele>451</ele>
        <time>1970-01-01T02:35:22.000Z</time>
      </trkpt>
      <trkpt lat="44.75926" lon="5.09699">
        <ele>449.8</ele>
        <time>1970-01-01T02:35:23.000Z</time>
      </trkpt>
      <trkpt lat="44.75923" lon="5.09698">
        <ele>448.8</ele>
        <time>1970-01-01T02:35:24.000Z</time>
      </trkpt>
      <trkpt lat="44.75921" lon="5.09695">
        <ele>448</ele>
        <time>1970-01-01T02:35:25.000Z</time>
      </trkpt>
      <trkpt lat="44.7592" lon="5.09692">
        <ele>447.2</ele>
        <time>1970-01-01T02:35:26.000Z</time>
      </trkpt>
      <trkpt lat="44.75921" lon="5.09688">
        <ele>446.4</ele>
        <time>1970-01-01T02:35:27.000Z</time>
      </trkpt>
      <trkpt lat="44.75923" lon="5.09684">
        <ele>445.6</ele>
        <time>1970-01-01T02:35:28.000Z</time>
      </trkpt>
      <trkpt lat="44.75924" lon="5.09678">
        <ele>444.8</ele>
        <time>1970-01-01T02:35:29.000Z</time>
      </trkpt>
      <trkpt lat="44.75926" lon="5.09669">
        <ele>443.6</ele>
        <time>1970-01-01T02:35:30.000Z</time>
      </trkpt>
      <trkpt lat="44.75927" lon="5.0966">
        <ele>442.8</ele>
        <time>1970-01-01T02:35:31.000Z</time>
      </trkpt>
      <trkpt lat="44.75929" lon="5.09651">
        <ele>441.4</ele>
        <time>1970-01-01T02:35:32.000Z</time>
      </trkpt>
      <trkpt lat="44.75932" lon="5.09643">
        <ele>440</ele>
        <time>1970-01-01T02:35:33.000Z</time>
      </trkpt>
      <trkpt lat="44.75935" lon="5.09636">
        <ele>439</ele>
        <time>1970-01-01T02:35:34.000Z</time>
      </trkpt>
      <trkpt lat="44.75938" lon="5.0963">
        <ele>437.2</ele>
        <time>1970-01-01T02:35:35.000Z</time>
      </trkpt>
      <trkpt lat="44.7594" lon="5.09622">
        <ele>436</ele>
        <time>1970-01-01T02:35:36.000Z</time>
      </trkpt>
      <trkpt lat="44.7594" lon="5.09615">
        <ele>434.6</ele>
        <time>1970-01-01T02:35:37.000Z</time>
      </trkpt>
      <trkpt lat="44.75942" lon="5.09608">
        <ele>433.8</ele>
        <time>1970-01-01T02:35:38.000Z</time>
      </trkpt>
      <trkpt lat="44.75943" lon="5.09603">
        <ele>432.6</ele>
        <time>1970-01-01T02:35:39.000Z</time>
      </trkpt>
      <trkpt lat="44.75946" lon="5.09597">
        <ele>431.8</ele>
        <time>1970-01-01T02:35:40.000Z</time>
      </trkpt>
      <trkpt lat="44.7595" lon="5.0959">
        <ele>431</ele>
        <time>1970-01-01T02:35:41.000Z</time>
      </trkpt>
      <trkpt lat="44.75954" lon="5.09582">
        <ele>430</ele>
        <time>1970-01-01T02:35:42.000Z</time>
      </trkpt>
      <trkpt lat="44.75958" lon="5.09573">
        <ele>428.6</ele>
        <time>1970-01-01T02:35:43.000Z</time>
      </trkpt>
      <trkpt lat="44.7596" lon="5.09565">
        <ele>427</ele>
        <time>1970-01-01T02:35:44.000Z</time>
      </trkpt>
      <trkpt lat="44.75962" lon="5.09557">
        <ele>425</ele>
        <time>1970-01-01T02:35:45.000Z</time>
      </trkpt>
      <trkpt lat="44.75964" lon="5.0955">
        <ele>424</ele>
        <time>1970-01-01T02:35:46.000Z</time>
      </trkpt>
      <trkpt lat="44.75964" lon="5.09545">
        <ele>423.2</ele>
        <time>1970-01-01T02:35:47.000Z</time>
      </trkpt>
      <trkpt lat="44.75966" lon="5.09543">
        <ele>422.6</ele>
        <time>1970-01-01T02:35:48.000Z</time>
      </trkpt>
      <trkpt lat="44.75968" lon="5.09539">
        <ele>422.2</ele>
        <time>1970-01-01T02:35:49.000Z</time>
      </trkpt>
      <trkpt lat="44.75971" lon="5.09533">
        <ele>421.2</ele>
        <time>1970-01-01T02:35:50.000Z</time>
      </trkpt>
      <trkpt lat="44.75973" lon="5.09525">
        <ele>419.6</ele>
        <time>1970-01-01T02:35:51.000Z</time>
      </trkpt>
      <trkpt lat="44.75973" lon="5.09516">
        <ele>418</ele>
        <time>1970-01-01T02:35:52.000Z</time>
      </trkpt>
      <trkpt lat="44.75972" lon="5.09508">
        <ele>417</ele>
        <time>1970-01-01T02:35:53.000Z</time>
      </trkpt>
      <trkpt lat="44.75972" lon="5.09499">
        <ele>416.2</ele>
        <time>1970-01-01T02:35:54.000Z</time>
      </trkpt>
      <trkpt lat="44.75974" lon="5.09492">
        <ele>415.6</ele>
        <time>1970-01-01T02:35:55.000Z</time>
      </trkpt>
      <trkpt lat="44.75978" lon="5.09486">
        <ele>415</ele>
        <time>1970-01-01T02:35:56.000Z</time>
      </trkpt>
      <trkpt lat="44.75981" lon="5.09481">
        <ele>414.2</ele>
        <time>1970-01-01T02:35:57.000Z</time>
      </trkpt>
      <trkpt lat="44.75984" lon="5.09476">
        <ele>413.6</ele>
        <time>1970-01-01T02:35:58.000Z</time>
      </trkpt>
      <trkpt lat="44.75986" lon="5.09473">
        <ele>413.2</ele>
        <time>1970-01-01T02:35:59.000Z</time>
      </trkpt>
      <trkpt lat="44.75992" lon="5.09462">
        <ele>412.2</ele>
        <time>1970-01-01T02:36:01.000Z</time>
      </trkpt>
      <trkpt lat="44.75999" lon="5.0945">
        <ele>411</ele>
        <time>1970-01-01T02:36:03.000Z</time>
      </trkpt>
      <trkpt lat="44.76007" lon="5.09438">
        <ele>410</ele>
        <time>1970-01-01T02:36:05.000Z</time>
      </trkpt>
      <trkpt lat="44.76015" lon="5.09426">
        <ele>408.6</ele>
        <time>1970-01-01T02:36:07.000Z</time>
      </trkpt>
      <trkpt lat="44.76024" lon="5.09415">
        <ele>407</ele>
        <time>1970-01-01T02:36:09.000Z</time>
      </trkpt>
      <trkpt lat="44.76035" lon="5.09402">
        <ele>405.2</ele>
        <time>1970-01-01T02:36:11.000Z</time>
      </trkpt>
      <trkpt lat="44.7604" lon="5.09396">
        <ele>404.6</ele>
        <time>1970-01-01T02:36:12.000Z</time>
      </trkpt>
      <trkpt lat="44.76045" lon="5.09392">
        <ele>404</ele>
        <time>1970-01-01T02:36:13.000Z</time>
      </trkpt>
      <trkpt lat="44.76051" lon="5.09385">
        <ele>403</ele>
        <time>1970-01-01T02:36:14.000Z</time>
      </trkpt>
      <trkpt lat="44.76065" lon="5.09369">
        <ele>401.6</ele>
        <time>1970-01-01T02:36:16.000Z</time>
      </trkpt>
      <trkpt lat="44.76072" lon="5.09361">
        <ele>401</ele>
        <time>1970-01-01T02:36:17.000Z</time>
      </trkpt>
      <trkpt lat="44.76079" lon="5.09354">
        <ele>400.8</ele>
        <time>1970-01-01T02:36:18.000Z</time>
      </trkpt>
      <trkpt lat="44.76084" lon="5.09348">
        <ele>399.8</ele>
        <time>1970-01-01T02:36:19.000Z</time>
      </trkpt>
      <trkpt lat="44.76092" lon="5.0934">
        <ele>399.4</ele>
        <time>1970-01-01T02:36:20.000Z</time>
      </trkpt>
      <trkpt lat="44.76095" lon="5.09331">
        <ele>398.4</ele>
        <time>1970-01-01T02:36:21.000Z</time>
      </trkpt>
      <trkpt lat="44.76095" lon="5.09322">
        <ele>397.2</ele>
        <time>1970-01-01T02:36:22.000Z</time>
      </trkpt>
      <trkpt lat="44.76092" lon="5.09316">
        <ele>396.4</ele>
        <time>1970-01-01T02:36:23.000Z</time>
      </trkpt>
      <trkpt lat="44.76088" lon="5.09313">
        <ele>395.8</ele>
        <time>1970-01-01T02:36:24.000Z</time>
      </trkpt>
      <trkpt lat="44.76081" lon="5.09313">
        <ele>395.2</ele>
        <time>1970-01-01T02:36:25.000Z</time>
      </trkpt>
      <trkpt lat="44.76071" lon="5.09314">
        <ele>394</ele>
        <time>1970-01-01T02:36:26.000Z</time>
      </trkpt>
      <trkpt lat="44.76062" lon="5.09312">
        <ele>392.8</ele>
        <time>1970-01-01T02:36:27.000Z</time>
      </trkpt>
      <trkpt lat="44.76056" lon="5.09309">
        <ele>391.4</ele>
        <time>1970-01-01T02:36:28.000Z</time>
      </trkpt>
      <trkpt lat="44.76052" lon="5.09299">
        <ele>390</ele>
        <time>1970-01-01T02:36:29.000Z</time>
      </trkpt>
      <trkpt lat="44.76055" lon="5.09292">
        <ele>389</ele>
        <time>1970-01-01T02:36:30.000Z</time>
      </trkpt>
      <trkpt lat="44.76062" lon="5.09287">
        <ele>387.6</ele>
        <time>1970-01-01T02:36:31.000Z</time>
      </trkpt>
      <trkpt lat="44.7607" lon="5.09284">
        <ele>386.8</ele>
        <time>1970-01-01T02:36:32.000Z</time>
      </trkpt>
      <trkpt lat="44.76078" lon="5.09283">
        <ele>386</ele>
        <time>1970-01-01T02:36:33.000Z</time>
      </trkpt>
      <trkpt lat="44.76085" lon="5.09282">
        <ele>385.8</ele>
        <time>1970-01-01T02:36:34.000Z</time>
      </trkpt>
      <trkpt lat="44.76093" lon="5.09281">
        <ele>385.4</ele>
        <time>1970-01-01T02:36:35.000Z</time>
      </trkpt>
      <trkpt lat="44.76102" lon="5.09276">
        <ele>385.4</ele>
        <time>1970-01-01T02:36:36.000Z</time>
      </trkpt>
      <trkpt lat="44.76107" lon="5.0927">
        <ele>385.2</ele>
        <time>1970-01-01T02:36:37.000Z</time>
      </trkpt>
      <trkpt lat="44.76107" lon="5.09262">
        <ele>385</ele>
        <time>1970-01-01T02:36:38.000Z</time>
      </trkpt>
      <trkpt lat="44.76104" lon="5.09252">
        <ele>384.8</ele>
        <time>1970-01-01T02:36:39.000Z</time>
      </trkpt>
      <trkpt lat="44.76098" lon="5.09231">
        <ele>384.6</ele>
        <time>1970-01-01T02:36:41.000Z</time>
      </trkpt>
      <trkpt lat="44.76096" lon="5.0922">
        <ele>384.2</ele>
        <time>1970-01-01T02:36:42.000Z</time>
      </trkpt>
      <trkpt lat="44.76097" lon="5.09209">
        <ele>384</ele>
        <time>1970-01-01T02:36:43.000Z</time>
      </trkpt>
      <trkpt lat="44.76103" lon="5.09189">
        <ele>383.2</ele>
        <time>1970-01-01T02:36:45.000Z</time>
      </trkpt>
      <trkpt lat="44.76107" lon="5.09179">
        <ele>383</ele>
        <time>1970-01-01T02:36:46.000Z</time>
      </trkpt>
      <trkpt lat="44.76112" lon="5.09169">
        <ele>382.8</ele>
        <time>1970-01-01T02:36:47.000Z</time>
      </trkpt>
      <trkpt lat="44.76132" lon="5.09119">
        <ele>382.2</ele>
        <time>1970-01-01T02:36:52.000Z</time>
      </trkpt>
      <trkpt lat="44.76135" lon="5.09097">
        <ele>381.2</ele>
        <time>1970-01-01T02:36:54.000Z</time>
      </trkpt>
      <trkpt lat="44.76134" lon="5.09084">
        <ele>380.8</ele>
        <time>1970-01-01T02:36:55.000Z</time>
      </trkpt>
      <trkpt lat="44.76132" lon="5.09072">
        <ele>380.4</ele>
        <time>1970-01-01T02:36:56.000Z</time>
      </trkpt>
      <trkpt lat="44.7613" lon="5.09058">
        <ele>379.8</ele>
        <time>1970-01-01T02:36:57.000Z</time>
      </trkpt>
      <trkpt lat="44.76126" lon="5.09034">
        <ele>378.8</ele>
        <time>1970-01-01T02:36:59.000Z</time>
      </trkpt>
      <trkpt lat="44.76124" lon="5.09021">
        <ele>378.2</ele>
        <time>1970-01-01T02:37:00.000Z</time>
      </trkpt>
      <trkpt lat="44.76121" lon="5.09006">
        <ele>377.8</ele>
        <time>1970-01-01T02:37:01.000Z</time>
      </trkpt>
      <trkpt lat="44.76119" lon="5.08993">
        <ele>377.2</ele>
        <time>1970-01-01T02:37:02.000Z</time>
      </trkpt>
      <trkpt lat="44.76118" lon="5.08983">
        <ele>376.8</ele>
        <time>1970-01-01T02:37:03.000Z</time>
      </trkpt>
      <trkpt lat="44.76116" lon="5.08969">
        <ele>376.4</ele>
        <time>1970-01-01T02:37:04.000Z</time>
      </trkpt>
      <trkpt lat="44.76114" lon="5.08956">
        <ele>376</ele>
        <time>1970-01-01T02:37:05.000Z</time>
      </trkpt>
      <trkpt lat="44.76112" lon="5.08945">
        <ele>375.2</ele>
        <time>1970-01-01T02:37:06.000Z</time>
      </trkpt>
      <trkpt lat="44.76109" lon="5.08936">
        <ele>374.6</ele>
        <time>1970-01-01T02:37:07.000Z</time>
      </trkpt>
      <trkpt lat="44.76101" lon="5.08919">
        <ele>373.2</ele>
        <time>1970-01-01T02:37:09.000Z</time>
      </trkpt>
      <trkpt lat="44.76094" lon="5.08912">
        <ele>372.8</ele>
        <time>1970-01-01T02:37:10.000Z</time>
      </trkpt>
      <trkpt lat="44.76086" lon="5.08905">
        <ele>372.6</ele>
        <time>1970-01-01T02:37:11.000Z</time>
      </trkpt>
      <trkpt lat="44.76072" lon="5.08895">
        <ele>372</ele>
        <time>1970-01-01T02:37:13.000Z</time>
      </trkpt>
      <trkpt lat="44.76063" lon="5.08888">
        <ele>371.6</ele>
        <time>1970-01-01T02:37:14.000Z</time>
      </trkpt>
      <trkpt lat="44.76057" lon="5.08884">
        <ele>371.2</ele>
        <time>1970-01-01T02:37:15.000Z</time>
      </trkpt>
      <trkpt lat="44.7605" lon="5.08879">
        <ele>371</ele>
        <time>1970-01-01T02:37:16.000Z</time>
      </trkpt>
      <trkpt lat="44.76045" lon="5.08872">
        <ele>371</ele>
        <time>1970-01-01T02:37:17.000Z</time>
      </trkpt>
      <trkpt lat="44.76041" lon="5.08866">
        <ele>371</ele>
        <time>1970-01-01T02:37:18.000Z</time>
      </trkpt>
      <trkpt lat="44.76038" lon="5.08859">
        <ele>371</ele>
        <time>1970-01-01T02:37:19.000Z</time>
      </trkpt>
      <trkpt lat="44.76035" lon="5.08854">
        <ele>371</ele>
        <time>1970-01-01T02:37:20.000Z</time>
      </trkpt>
      <trkpt lat="44.76033" lon="5.08848">
        <ele>371.6</ele>
        <time>1970-01-01T02:37:21.000Z</time>
      </trkpt>
      <trkpt lat="44.76024" lon="5.08822">
        <ele>373.2</ele>
        <time>1970-01-01T02:37:25.000Z</time>
      </trkpt>
      <trkpt lat="44.76022" lon="5.08816">
        <ele>373.6</ele>
        <time>1970-01-01T02:37:26.000Z</time>
      </trkpt>
      <trkpt lat="44.76017" lon="5.0881">
        <ele>374</ele>
        <time>1970-01-01T02:37:27.000Z</time>
      </trkpt>
      <trkpt lat="44.76014" lon="5.08807">
        <ele>374.4</ele>
        <time>1970-01-01T02:37:28.000Z</time>
      </trkpt>
      <trkpt lat="44.7601" lon="5.08807">
        <ele>374.8</ele>
        <time>1970-01-01T02:37:29.000Z</time>
      </trkpt>
      <trkpt lat="44.76005" lon="5.0881">
        <ele>375.6</ele>
        <time>1970-01-01T02:37:30.000Z</time>
      </trkpt>
      <trkpt lat="44.76001" lon="5.08814">
        <ele>376</ele>
        <time>1970-01-01T02:37:31.000Z</time>
      </trkpt>
      <trkpt lat="44.75998" lon="5.08818">
        <ele>376.4</ele>
        <time>1970-01-01T02:37:32.000Z</time>
      </trkpt>
      <trkpt lat="44.75994" lon="5.08822">
        <ele>377.2</ele>
        <time>1970-01-01T02:37:33.000Z</time>
      </trkpt>
      <trkpt lat="44.75991" lon="5.08825">
        <ele>378</ele>
        <time>1970-01-01T02:37:34.000Z</time>
      </trkpt>
      <trkpt lat="44.75988" lon="5.08827">
        <ele>378.6</ele>
        <time>1970-01-01T02:37:35.000Z</time>
      </trkpt>
      <trkpt lat="44.75985" lon="5.08829">
        <ele>379.2</ele>
        <time>1970-01-01T02:37:36.000Z</time>
      </trkpt>
      <trkpt lat="44.75981" lon="5.08831">
        <ele>379.6</ele>
        <time>1970-01-01T02:37:37.000Z</time>
      </trkpt>
      <trkpt lat="44.75978" lon="5.08833">
        <ele>380.4</ele>
        <time>1970-01-01T02:37:38.000Z</time>
      </trkpt>
      <trkpt lat="44.75974" lon="5.08836">
        <ele>380.8</ele>
        <time>1970-01-01T02:37:39.000Z</time>
      </trkpt>
      <trkpt lat="44.7597" lon="5.08839">
        <ele>381.2</ele>
        <time>1970-01-01T02:37:40.000Z</time>
      </trkpt>
      <trkpt lat="44.75965" lon="5.08843">
        <ele>381.6</ele>
        <time>1970-01-01T02:37:41.000Z</time>
      </trkpt>
      <trkpt lat="44.75961" lon="5.08846">
        <ele>382.2</ele>
        <time>1970-01-01T02:37:42.000Z</time>
      </trkpt>
      <trkpt lat="44.75956" lon="5.08848">
        <ele>382.4</ele>
        <time>1970-01-01T02:37:43.000Z</time>
      </trkpt>
      <trkpt lat="44.75951" lon="5.0885">
        <ele>383</ele>
        <time>1970-01-01T02:37:44.000Z</time>
      </trkpt>
      <trkpt lat="44.75945" lon="5.08852">
        <ele>383.4</ele>
        <time>1970-01-01T02:37:45.000Z</time>
      </trkpt>
      <trkpt lat="44.7594" lon="5.08853">
        <ele>383.8</ele>
        <time>1970-01-01T02:37:46.000Z</time>
      </trkpt>
      <trkpt lat="44.75935" lon="5.08853">
        <ele>384.6</ele>
        <time>1970-01-01T02:37:47.000Z</time>
      </trkpt>
      <trkpt lat="44.7593" lon="5.08853">
        <ele>385</ele>
        <time>1970-01-01T02:37:48.000Z</time>
      </trkpt>
      <trkpt lat="44.75925" lon="5.08853">
        <ele>385.6</ele>
        <time>1970-01-01T02:37:49.000Z</time>
      </trkpt>
      <trkpt lat="44.75919" lon="5.08852">
        <ele>386</ele>
        <time>1970-01-01T02:37:50.000Z</time>
      </trkpt>
      <trkpt lat="44.75914" lon="5.08852">
        <ele>386.6</ele>
        <time>1970-01-01T02:37:51.000Z</time>
      </trkpt>
      <trkpt lat="44.75909" lon="5.0885">
        <ele>387</ele>
        <time>1970-01-01T02:37:52.000Z</time>
      </trkpt>
      <trkpt lat="44.75903" lon="5.08849">
        <ele>387.4</ele>
        <time>1970-01-01T02:37:53.000Z</time>
      </trkpt>
      <trkpt lat="44.75898" lon="5.08847">
        <ele>388</ele>
        <time>1970-01-01T02:37:54.000Z</time>
      </trkpt>
      <trkpt lat="44.75891" lon="5.08846">
        <ele>388.4</ele>
        <time>1970-01-01T02:37:55.000Z</time>
      </trkpt>
      <trkpt lat="44.75885" lon="5.08846">
        <ele>388.8</ele>
        <time>1970-01-01T02:37:56.000Z</time>
      </trkpt>
      <trkpt lat="44.7588" lon="5.08845">
        <ele>389.2</ele>
        <time>1970-01-01T02:37:57.000Z</time>
      </trkpt>
      <trkpt lat="44.75874" lon="5.08843">
        <ele>389.4</ele>
        <time>1970-01-01T02:37:58.000Z</time>
      </trkpt>
      <trkpt lat="44.75869" lon="5.08842">
        <ele>389.6</ele>
        <time>1970-01-01T02:37:59.000Z</time>
      </trkpt>
      <trkpt lat="44.75862" lon="5.0884">
        <ele>389.8</ele>
        <time>1970-01-01T02:38:00.000Z</time>
      </trkpt>
      <trkpt lat="44.75857" lon="5.08838">
        <ele>390.4</ele>
        <time>1970-01-01T02:38:01.000Z</time>
      </trkpt>
      <trkpt lat="44.75851" lon="5.08836">
        <ele>390.6</ele>
        <time>1970-01-01T02:38:02.000Z</time>
      </trkpt>
      <trkpt lat="44.75845" lon="5.08835">
        <ele>391.2</ele>
        <time>1970-01-01T02:38:03.000Z</time>
      </trkpt>
      <trkpt lat="44.7584" lon="5.08833">
        <ele>391.8</ele>
        <time>1970-01-01T02:38:04.000Z</time>
      </trkpt>
      <trkpt lat="44.75834" lon="5.08833">
        <ele>392.2</ele>
        <time>1970-01-01T02:38:05.000Z</time>
      </trkpt>
      <trkpt lat="44.75829" lon="5.08833">
        <ele>392.6</ele>
        <time>1970-01-01T02:38:06.000Z</time>
      </trkpt>
      <trkpt lat="44.75823" lon="5.08833">
        <ele>392.8</ele>
        <time>1970-01-01T02:38:07.000Z</time>
      </trkpt>
      <trkpt lat="44.75818" lon="5.08832">
        <ele>393.2</ele>
        <time>1970-01-01T02:38:08.000Z</time>
      </trkpt>
      <trkpt lat="44.75814" lon="5.08832">
        <ele>393.6</ele>
        <time>1970-01-01T02:38:09.000Z</time>
      </trkpt>
      <trkpt lat="44.7581" lon="5.08831">
        <ele>394.4</ele>
        <time>1970-01-01T02:38:10.000Z</time>
      </trkpt>
      <trkpt lat="44.75806" lon="5.0883">
        <ele>395.2</ele>
        <time>1970-01-01T02:38:11.000Z</time>
      </trkpt>
      <trkpt lat="44.75803" lon="5.08829">
        <ele>395.8</ele>
        <time>1970-01-01T02:38:12.000Z</time>
      </trkpt>
      <trkpt lat="44.758" lon="5.08828">
        <ele>396.2</ele>
        <time>1970-01-01T02:38:13.000Z</time>
      </trkpt>
      <trkpt lat="44.75798" lon="5.08827">
        <ele>396.6</ele>
        <time>1970-01-01T02:38:14.000Z</time>
      </trkpt>
      <trkpt lat="44.75795" lon="5.08827">
        <ele>396.8</ele>
        <time>1970-01-01T02:38:15.000Z</time>
      </trkpt>
      <trkpt lat="44.75793" lon="5.08827">
        <ele>397.2</ele>
        <time>1970-01-01T02:38:16.000Z</time>
      </trkpt>
      <trkpt lat="44.7579" lon="5.08827">
        <ele>397.4</ele>
        <time>1970-01-01T02:38:17.000Z</time>
      </trkpt>
      <trkpt lat="44.75788" lon="5.08827">
        <ele>397.6</ele>
        <time>1970-01-01T02:38:18.000Z</time>
      </trkpt>
      <trkpt lat="44.75786" lon="5.08827">
        <ele>397.8</ele>
        <time>1970-01-01T02:38:19.000Z</time>
      </trkpt>
      <trkpt lat="44.75784" lon="5.08827">
        <ele>397.8</ele>
        <time>1970-01-01T02:38:20.000Z</time>
      </trkpt>
      <trkpt lat="44.75782" lon="5.08827">
        <ele>397.8</ele>
        <time>1970-01-01T02:38:21.000Z</time>
      </trkpt>
      <trkpt lat="44.75779" lon="5.08826">
        <ele>397.8</ele>
        <time>1970-01-01T02:38:22.000Z</time>
      </trkpt>
      <trkpt lat="44.75777" lon="5.08826">
        <ele>397.8</ele>
        <time>1970-01-01T02:38:23.000Z</time>
      </trkpt>
      <trkpt lat="44.75775" lon="5.08825">
        <ele>397.8</ele>
        <time>1970-01-01T02:38:24.000Z</time>
      </trkpt>
      <trkpt lat="44.75772" lon="5.08825">
        <ele>397.8</ele>
        <time>1970-01-01T02:38:25.000Z</time>
      </trkpt>
      <trkpt lat="44.75768" lon="5.08824">
        <ele>397.8</ele>
        <time>1970-01-01T02:38:26.000Z</time>
      </trkpt>
      <trkpt lat="44.75764" lon="5.08824">
        <ele>397.6</ele>
        <time>1970-01-01T02:38:27.000Z</time>
      </trkpt>
      <trkpt lat="44.75761" lon="5.08824">
        <ele>397.2</ele>
        <time>1970-01-01T02:38:28.000Z</time>
      </trkpt>
      <trkpt lat="44.75757" lon="5.08823">
        <ele>397</ele>
        <time>1970-01-01T02:38:29.000Z</time>
      </trkpt>
      <trkpt lat="44.75753" lon="5.08823">
        <ele>396.8</ele>
        <time>1970-01-01T02:38:30.000Z</time>
      </trkpt>
      <trkpt lat="44.75749" lon="5.08822">
        <ele>396.6</ele>
        <time>1970-01-01T02:38:31.000Z</time>
      </trkpt>
      <trkpt lat="44.75743" lon="5.08822">
        <ele>396.4</ele>
        <time>1970-01-01T02:38:32.000Z</time>
      </trkpt>
      <trkpt lat="44.7574" lon="5.08821">
        <ele>396.4</ele>
        <time>1970-01-01T02:38:33.000Z</time>
      </trkpt>
      <trkpt lat="44.75737" lon="5.08821">
        <ele>396.4</ele>
        <time>1970-01-01T02:38:34.000Z</time>
      </trkpt>
      <trkpt lat="44.75734" lon="5.08821">
        <ele>396.4</ele>
        <time>1970-01-01T02:38:35.000Z</time>
      </trkpt>
      <trkpt lat="44.7573" lon="5.08823">
        <ele>396.4</ele>
        <time>1970-01-01T02:38:36.000Z</time>
      </trkpt>
      <trkpt lat="44.75726" lon="5.08826">
        <ele>396.6</ele>
        <time>1970-01-01T02:38:37.000Z</time>
      </trkpt>
      <trkpt lat="44.75723" lon="5.08827">
        <ele>396.6</ele>
        <time>1970-01-01T02:38:38.000Z</time>
      </trkpt>
      <trkpt lat="44.7572" lon="5.0883">
        <ele>397</ele>
        <time>1970-01-01T02:38:39.000Z</time>
      </trkpt>
      <trkpt lat="44.7571" lon="5.08839">
        <ele>397.6</ele>
        <time>1970-01-01T02:38:43.000Z</time>
      </trkpt>
      <trkpt lat="44.75708" lon="5.08841">
        <ele>397.6</ele>
        <time>1970-01-01T02:38:44.000Z</time>
      </trkpt>
      <trkpt lat="44.75702" lon="5.08845">
        <ele>397.8</ele>
        <time>1970-01-01T02:38:46.000Z</time>
      </trkpt>
      <trkpt lat="44.75692" lon="5.08848">
        <ele>398</ele>
        <time>1970-01-01T02:38:49.000Z</time>
      </trkpt>
      <trkpt lat="44.75689" lon="5.08847">
        <ele>398</ele>
        <time>1970-01-01T02:38:50.000Z</time>
      </trkpt>
      <trkpt lat="44.75683" lon="5.08846">
        <ele>398</ele>
        <time>1970-01-01T02:38:53.000Z</time>
      </trkpt>
      <trkpt lat="44.7568" lon="5.08847">
        <ele>397.6</ele>
        <time>1970-01-01T02:40:31.000Z</time>
      </trkpt>
      <trkpt lat="44.75677" lon="5.08847">
        <ele>397.6</ele>
        <time>1970-01-01T02:40:32.000Z</time>
      </trkpt>
      <trkpt lat="44.75668" lon="5.08841">
        <ele>397.6</ele>
        <time>1970-01-01T02:40:34.000Z</time>
      </trkpt>
      <trkpt lat="44.75664" lon="5.08835">
        <ele>397.6</ele>
        <time>1970-01-01T02:40:35.000Z</time>
      </trkpt>
      <trkpt lat="44.75661" lon="5.08829">
        <ele>397.6</ele>
        <time>1970-01-01T02:40:36.000Z</time>
      </trkpt>
      <trkpt lat="44.75658" lon="5.08823">
        <ele>397.6</ele>
        <time>1970-01-01T02:40:37.000Z</time>
      </trkpt>
      <trkpt lat="44.75656" lon="5.08818">
        <ele>397.6</ele>
        <time>1970-01-01T02:40:38.000Z</time>
      </trkpt>
      <trkpt lat="44.75654" lon="5.08813">
        <ele>397.6</ele>
        <time>1970-01-01T02:40:39.000Z</time>
      </trkpt>
      <trkpt lat="44.75652" lon="5.08807">
        <ele>397.8</ele>
        <time>1970-01-01T02:40:40.000Z</time>
      </trkpt>
      <trkpt lat="44.75651" lon="5.08802">
        <ele>398</ele>
        <time>1970-01-01T02:40:41.000Z</time>
      </trkpt>
      <trkpt lat="44.75649" lon="5.08798">
        <ele>398.2</ele>
        <time>1970-01-01T02:40:42.000Z</time>
      </trkpt>
      <trkpt lat="44.75648" lon="5.08793">
        <ele>398.8</ele>
        <time>1970-01-01T02:40:43.000Z</time>
      </trkpt>
      <trkpt lat="44.75648" lon="5.08789">
        <ele>399.6</ele>
        <time>1970-01-01T02:40:44.000Z</time>
      </trkpt>
      <trkpt lat="44.75648" lon="5.08785">
        <ele>400</ele>
        <time>1970-01-01T02:40:45.000Z</time>
      </trkpt>
      <trkpt lat="44.75649" lon="5.08782">
        <ele>400.6</ele>
        <time>1970-01-01T02:40:46.000Z</time>
      </trkpt>
      <trkpt lat="44.75649" lon="5.08779">
        <ele>401</ele>
        <time>1970-01-01T02:40:47.000Z</time>
      </trkpt>
      <trkpt lat="44.7565" lon="5.08776">
        <ele>401.6</ele>
        <time>1970-01-01T02:40:48.000Z</time>
      </trkpt>
      <trkpt lat="44.7565" lon="5.08774">
        <ele>402.4</ele>
        <time>1970-01-01T02:40:49.000Z</time>
      </trkpt>
      <trkpt lat="44.75649" lon="5.08771">
        <ele>402.8</ele>
        <time>1970-01-01T02:40:50.000Z</time>
      </trkpt>
      <trkpt lat="44.75647" lon="5.0877">
        <ele>403.2</ele>
        <time>1970-01-01T02:40:51.000Z</time>
      </trkpt>
      <trkpt lat="44.75645" lon="5.08767">
        <ele>403.4</ele>
        <time>1970-01-01T02:40:52.000Z</time>
      </trkpt>
      <trkpt lat="44.75643" lon="5.08766">
        <ele>404.2</ele>
        <time>1970-01-01T02:40:53.000Z</time>
      </trkpt>
      <trkpt lat="44.75641" lon="5.08765">
        <ele>404.8</ele>
        <time>1970-01-01T02:40:54.000Z</time>
      </trkpt>
      <trkpt lat="44.75639" lon="5.08764">
        <ele>405.2</ele>
        <time>1970-01-01T02:40:55.000Z</time>
      </trkpt>
      <trkpt lat="44.75637" lon="5.08762">
        <ele>405.8</ele>
        <time>1970-01-01T02:40:56.000Z</time>
      </trkpt>
      <trkpt lat="44.75635" lon="5.08761">
        <ele>406</ele>
        <time>1970-01-01T02:40:57.000Z</time>
      </trkpt>
      <trkpt lat="44.75632" lon="5.08761">
        <ele>406.2</ele>
        <time>1970-01-01T02:40:58.000Z</time>
      </trkpt>
      <trkpt lat="44.7563" lon="5.0876">
        <ele>406.6</ele>
        <time>1970-01-01T02:40:59.000Z</time>
      </trkpt>
      <trkpt lat="44.75627" lon="5.0876">
        <ele>406.8</ele>
        <time>1970-01-01T02:41:00.000Z</time>
      </trkpt>
      <trkpt lat="44.75624" lon="5.0876">
        <ele>407</ele>
        <time>1970-01-01T02:41:01.000Z</time>
      </trkpt>
      <trkpt lat="44.75621" lon="5.08759">
        <ele>407.2</ele>
        <time>1970-01-01T02:41:02.000Z</time>
      </trkpt>
      <trkpt lat="44.75618" lon="5.08759">
        <ele>407.4</ele>
        <time>1970-01-01T02:41:03.000Z</time>
      </trkpt>
      <trkpt lat="44.75615" lon="5.08758">
        <ele>407.4</ele>
        <time>1970-01-01T02:41:04.000Z</time>
      </trkpt>
      <trkpt lat="44.75613" lon="5.08757">
        <ele>407.4</ele>
        <time>1970-01-01T02:41:05.000Z</time>
      </trkpt>
      <trkpt lat="44.7561" lon="5.08756">
        <ele>407.4</ele>
        <time>1970-01-01T02:41:06.000Z</time>
      </trkpt>
      <trkpt lat="44.75607" lon="5.08756">
        <ele>407.6</ele>
        <time>1970-01-01T02:41:07.000Z</time>
      </trkpt>
      <trkpt lat="44.75603" lon="5.08757">
        <ele>407.8</ele>
        <time>1970-01-01T02:41:08.000Z</time>
      </trkpt>
      <trkpt lat="44.756" lon="5.08757">
        <ele>408</ele>
        <time>1970-01-01T02:41:09.000Z</time>
      </trkpt>
      <trkpt lat="44.75597" lon="5.08757">
        <ele>408.2</ele>
        <time>1970-01-01T02:41:10.000Z</time>
      </trkpt>
      <trkpt lat="44.75594" lon="5.08756">
        <ele>408.6</ele>
        <time>1970-01-01T02:41:11.000Z</time>
      </trkpt>
      <trkpt lat="44.75591" lon="5.08756">
        <ele>408.8</ele>
        <time>1970-01-01T02:41:12.000Z</time>
      </trkpt>
      <trkpt lat="44.75587" lon="5.08756">
        <ele>409.2</ele>
        <time>1970-01-01T02:41:13.000Z</time>
      </trkpt>
      <trkpt lat="44.75585" lon="5.08755">
        <ele>409.6</ele>
        <time>1970-01-01T02:41:14.000Z</time>
      </trkpt>
      <trkpt lat="44.75582" lon="5.08755">
        <ele>410</ele>
        <time>1970-01-01T02:41:15.000Z</time>
      </trkpt>
      <trkpt lat="44.75581" lon="5.08754">
        <ele>410.2</ele>
        <time>1970-01-01T02:41:16.000Z</time>
      </trkpt>
      <trkpt lat="44.75579" lon="5.08754">
        <ele>410.6</ele>
        <time>1970-01-01T02:41:17.000Z</time>
      </trkpt>
      <trkpt lat="44.75576" lon="5.08753">
        <ele>410.8</ele>
        <time>1970-01-01T02:41:18.000Z</time>
      </trkpt>
      <trkpt lat="44.75573" lon="5.08752">
        <ele>411</ele>
        <time>1970-01-01T02:41:19.000Z</time>
      </trkpt>
      <trkpt lat="44.7557" lon="5.08751">
        <ele>411.2</ele>
        <time>1970-01-01T02:41:20.000Z</time>
      </trkpt>
      <trkpt lat="44.75568" lon="5.0875">
        <ele>411.6</ele>
        <time>1970-01-01T02:41:21.000Z</time>
      </trkpt>
      <trkpt lat="44.75566" lon="5.08749">
        <ele>412</ele>
        <time>1970-01-01T02:41:22.000Z</time>
      </trkpt>
      <trkpt lat="44.75564" lon="5.08748">
        <ele>412.4</ele>
        <time>1970-01-01T02:41:23.000Z</time>
      </trkpt>
      <trkpt lat="44.75561" lon="5.08748">
        <ele>412.8</ele>
        <time>1970-01-01T02:41:24.000Z</time>
      </trkpt>
      <trkpt lat="44.75559" lon="5.08748">
        <ele>413.2</ele>
        <time>1970-01-01T02:41:25.000Z</time>
      </trkpt>
      <trkpt lat="44.75556" lon="5.08748">
        <ele>413.2</ele>
        <time>1970-01-01T02:41:26.000Z</time>
      </trkpt>
      <trkpt lat="44.75554" lon="5.08747">
        <ele>413.6</ele>
        <time>1970-01-01T02:41:27.000Z</time>
      </trkpt>
      <trkpt lat="44.75551" lon="5.08746">
        <ele>414.2</ele>
        <time>1970-01-01T02:41:28.000Z</time>
      </trkpt>
      <trkpt lat="44.75549" lon="5.08744">
        <ele>414.4</ele>
        <time>1970-01-01T02:41:29.000Z</time>
      </trkpt>
      <trkpt lat="44.75546" lon="5.08744">
        <ele>415.2</ele>
        <time>1970-01-01T02:41:30.000Z</time>
      </trkpt>
      <trkpt lat="44.75544" lon="5.08743">
        <ele>415.6</ele>
        <time>1970-01-01T02:41:31.000Z</time>
      </trkpt>
      <trkpt lat="44.75541" lon="5.08742">
        <ele>416.2</ele>
        <time>1970-01-01T02:41:32.000Z</time>
      </trkpt>
      <trkpt lat="44.75538" lon="5.08741">
        <ele>416.8</ele>
        <time>1970-01-01T02:41:33.000Z</time>
      </trkpt>
      <trkpt lat="44.75535" lon="5.08741">
        <ele>417.2</ele>
        <time>1970-01-01T02:41:34.000Z</time>
      </trkpt>
      <trkpt lat="44.75532" lon="5.0874">
        <ele>417.4</ele>
        <time>1970-01-01T02:41:35.000Z</time>
      </trkpt>
      <trkpt lat="44.7553" lon="5.0874">
        <ele>417.6</ele>
        <time>1970-01-01T02:41:36.000Z</time>
      </trkpt>
      <trkpt lat="44.75528" lon="5.0874">
        <ele>417.8</ele>
        <time>1970-01-01T02:41:37.000Z</time>
      </trkpt>
      <trkpt lat="44.75525" lon="5.08739">
        <ele>418.2</ele>
        <time>1970-01-01T02:41:38.000Z</time>
      </trkpt>
      <trkpt lat="44.75522" lon="5.08737">
        <ele>418.6</ele>
        <time>1970-01-01T02:41:39.000Z</time>
      </trkpt>
      <trkpt lat="44.7552" lon="5.08735">
        <ele>418.8</ele>
        <time>1970-01-01T02:41:40.000Z</time>
      </trkpt>
      <trkpt lat="44.75517" lon="5.08734">
        <ele>419</ele>
        <time>1970-01-01T02:41:41.000Z</time>
      </trkpt>
      <trkpt lat="44.75515" lon="5.08732">
        <ele>419.2</ele>
        <time>1970-01-01T02:41:42.000Z</time>
      </trkpt>
      <trkpt lat="44.75513" lon="5.0873">
        <ele>419.4</ele>
        <time>1970-01-01T02:41:43.000Z</time>
      </trkpt>
      <trkpt lat="44.75511" lon="5.08726">
        <ele>419.6</ele>
        <time>1970-01-01T02:41:44.000Z</time>
      </trkpt>
      <trkpt lat="44.7551" lon="5.08723">
        <ele>419.8</ele>
        <time>1970-01-01T02:41:45.000Z</time>
      </trkpt>
      <trkpt lat="44.75508" lon="5.0872">
        <ele>420</ele>
        <time>1970-01-01T02:41:46.000Z</time>
      </trkpt>
      <trkpt lat="44.75506" lon="5.08719">
        <ele>420.2</ele>
        <time>1970-01-01T02:41:47.000Z</time>
      </trkpt>
      <trkpt lat="44.75504" lon="5.08718">
        <ele>420.6</ele>
        <time>1970-01-01T02:41:48.000Z</time>
      </trkpt>
      <trkpt lat="44.75502" lon="5.08717">
        <ele>421.2</ele>
        <time>1970-01-01T02:41:49.000Z</time>
      </trkpt>
      <trkpt lat="44.75498" lon="5.08716">
        <ele>421.6</ele>
        <time>1970-01-01T02:41:50.000Z</time>
      </trkpt>
      <trkpt lat="44.75496" lon="5.08715">
        <ele>421.8</ele>
        <time>1970-01-01T02:41:51.000Z</time>
      </trkpt>
      <trkpt lat="44.75494" lon="5.08715">
        <ele>422.2</ele>
        <time>1970-01-01T02:41:52.000Z</time>
      </trkpt>
      <trkpt lat="44.75492" lon="5.08714">
        <ele>422.6</ele>
        <time>1970-01-01T02:41:53.000Z</time>
      </trkpt>
      <trkpt lat="44.75489" lon="5.08713">
        <ele>423</ele>
        <time>1970-01-01T02:41:54.000Z</time>
      </trkpt>
      <trkpt lat="44.75486" lon="5.08713">
        <ele>423.4</ele>
        <time>1970-01-01T02:41:55.000Z</time>
      </trkpt>
      <trkpt lat="44.75484" lon="5.08712">
        <ele>423.8</ele>
        <time>1970-01-01T02:41:56.000Z</time>
      </trkpt>
      <trkpt lat="44.75481" lon="5.08711">
        <ele>424.4</ele>
        <time>1970-01-01T02:41:57.000Z</time>
      </trkpt>
      <trkpt lat="44.7548" lon="5.08711">
        <ele>424.8</ele>
        <time>1970-01-01T02:41:58.000Z</time>
      </trkpt>
      <trkpt lat="44.75476" lon="5.08711">
        <ele>425.2</ele>
        <time>1970-01-01T02:41:59.000Z</time>
      </trkpt>
      <trkpt lat="44.75474" lon="5.08711">
        <ele>425.4</ele>
        <time>1970-01-01T02:42:00.000Z</time>
      </trkpt>
      <trkpt lat="44.75472" lon="5.08711">
        <ele>425.4</ele>
        <time>1970-01-01T02:42:01.000Z</time>
      </trkpt>
      <trkpt lat="44.75469" lon="5.08711">
        <ele>425.6</ele>
        <time>1970-01-01T02:42:02.000Z</time>
      </trkpt>
      <trkpt lat="44.75466" lon="5.08711">
        <ele>425.8</ele>
        <time>1970-01-01T02:42:03.000Z</time>
      </trkpt>
      <trkpt lat="44.75463" lon="5.08711">
        <ele>426</ele>
        <time>1970-01-01T02:42:04.000Z</time>
      </trkpt>
      <trkpt lat="44.75461" lon="5.08712">
        <ele>426</ele>
        <time>1970-01-01T02:42:05.000Z</time>
      </trkpt>
      <trkpt lat="44.75458" lon="5.08712">
        <ele>426</ele>
        <time>1970-01-01T02:42:06.000Z</time>
      </trkpt>
      <trkpt lat="44.75456" lon="5.08713">
        <ele>426.2</ele>
        <time>1970-01-01T02:42:07.000Z</time>
      </trkpt>
      <trkpt lat="44.75454" lon="5.08714">
        <ele>426.4</ele>
        <time>1970-01-01T02:42:08.000Z</time>
      </trkpt>
      <trkpt lat="44.7545" lon="5.08715">
        <ele>426.6</ele>
        <time>1970-01-01T02:42:09.000Z</time>
      </trkpt>
      <trkpt lat="44.75447" lon="5.08716">
        <ele>426.8</ele>
        <time>1970-01-01T02:42:10.000Z</time>
      </trkpt>
      <trkpt lat="44.75444" lon="5.08718">
        <ele>427</ele>
        <time>1970-01-01T02:42:11.000Z</time>
      </trkpt>
      <trkpt lat="44.75442" lon="5.08718">
        <ele>427</ele>
        <time>1970-01-01T02:42:12.000Z</time>
      </trkpt>
      <trkpt lat="44.75439" lon="5.08718">
        <ele>427.2</ele>
        <time>1970-01-01T02:42:13.000Z</time>
      </trkpt>
      <trkpt lat="44.75436" lon="5.08719">
        <ele>427.4</ele>
        <time>1970-01-01T02:42:14.000Z</time>
      </trkpt>
      <trkpt lat="44.75433" lon="5.0872">
        <ele>427.6</ele>
        <time>1970-01-01T02:42:15.000Z</time>
      </trkpt>
      <trkpt lat="44.7543" lon="5.0872">
        <ele>428</ele>
        <time>1970-01-01T02:42:16.000Z</time>
      </trkpt>
      <trkpt lat="44.75428" lon="5.0872">
        <ele>428.2</ele>
        <time>1970-01-01T02:42:17.000Z</time>
      </trkpt>
      <trkpt lat="44.75425" lon="5.0872">
        <ele>428.4</ele>
        <time>1970-01-01T02:42:18.000Z</time>
      </trkpt>
      <trkpt lat="44.75421" lon="5.08719">
        <ele>429</ele>
        <time>1970-01-01T02:42:19.000Z</time>
      </trkpt>
      <trkpt lat="44.75418" lon="5.0872">
        <ele>429.2</ele>
        <time>1970-01-01T02:42:20.000Z</time>
      </trkpt>
      <trkpt lat="44.75415" lon="5.0872">
        <ele>429.6</ele>
        <time>1970-01-01T02:42:21.000Z</time>
      </trkpt>
      <trkpt lat="44.75412" lon="5.0872">
        <ele>429.8</ele>
        <time>1970-01-01T02:42:22.000Z</time>
      </trkpt>
      <trkpt lat="44.75409" lon="5.0872">
        <ele>430.2</ele>
        <time>1970-01-01T02:42:23.000Z</time>
      </trkpt>
      <trkpt lat="44.75406" lon="5.0872">
        <ele>430.6</ele>
        <time>1970-01-01T02:42:24.000Z</time>
      </trkpt>
      <trkpt lat="44.75404" lon="5.0872">
        <ele>431</ele>
        <time>1970-01-01T02:42:25.000Z</time>
      </trkpt>
      <trkpt lat="44.754" lon="5.08722">
        <ele>431.2</ele>
        <time>1970-01-01T02:42:26.000Z</time>
      </trkpt>
      <trkpt lat="44.75396" lon="5.08725">
        <ele>431.4</ele>
        <time>1970-01-01T02:42:27.000Z</time>
      </trkpt>
      <trkpt lat="44.75392" lon="5.08725">
        <ele>431.6</ele>
        <time>1970-01-01T02:42:28.000Z</time>
      </trkpt>
      <trkpt lat="44.75387" lon="5.08727">
        <ele>431.8</ele>
        <time>1970-01-01T02:42:29.000Z</time>
      </trkpt>
      <trkpt lat="44.75384" lon="5.08728">
        <ele>431.8</ele>
        <time>1970-01-01T02:42:30.000Z</time>
      </trkpt>
      <trkpt lat="44.75381" lon="5.08728">
        <ele>432.2</ele>
        <time>1970-01-01T02:42:31.000Z</time>
      </trkpt>
      <trkpt lat="44.75375" lon="5.08728">
        <ele>432.6</ele>
        <time>1970-01-01T02:42:32.000Z</time>
      </trkpt>
      <trkpt lat="44.75372" lon="5.08728">
        <ele>432.8</ele>
        <time>1970-01-01T02:42:33.000Z</time>
      </trkpt>
      <trkpt lat="44.75369" lon="5.08728">
        <ele>432.8</ele>
        <time>1970-01-01T02:42:34.000Z</time>
      </trkpt>
      <trkpt lat="44.75365" lon="5.08728">
        <ele>433</ele>
        <time>1970-01-01T02:42:35.000Z</time>
      </trkpt>
      <trkpt lat="44.75362" lon="5.08728">
        <ele>433</ele>
        <time>1970-01-01T02:42:36.000Z</time>
      </trkpt>
      <trkpt lat="44.75359" lon="5.08728">
        <ele>433.2</ele>
        <time>1970-01-01T02:42:37.000Z</time>
      </trkpt>
      <trkpt lat="44.75357" lon="5.08728">
        <ele>433.4</ele>
        <time>1970-01-01T02:42:38.000Z</time>
      </trkpt>
      <trkpt lat="44.75353" lon="5.08728">
        <ele>433.6</ele>
        <time>1970-01-01T02:42:39.000Z</time>
      </trkpt>
      <trkpt lat="44.7535" lon="5.08728">
        <ele>433.6</ele>
        <time>1970-01-01T02:42:40.000Z</time>
      </trkpt>
      <trkpt lat="44.75346" lon="5.08728">
        <ele>433.6</ele>
        <time>1970-01-01T02:42:41.000Z</time>
      </trkpt>
      <trkpt lat="44.75342" lon="5.08728">
        <ele>433.8</ele>
        <time>1970-01-01T02:42:42.000Z</time>
      </trkpt>
      <trkpt lat="44.75339" lon="5.08727">
        <ele>434</ele>
        <time>1970-01-01T02:42:43.000Z</time>
      </trkpt>
      <trkpt lat="44.75336" lon="5.08726">
        <ele>434.2</ele>
        <time>1970-01-01T02:42:44.000Z</time>
      </trkpt>
      <trkpt lat="44.75332" lon="5.08726">
        <ele>434.6</ele>
        <time>1970-01-01T02:42:45.000Z</time>
      </trkpt>
      <trkpt lat="44.75328" lon="5.08725">
        <ele>434.8</ele>
        <time>1970-01-01T02:42:46.000Z</time>
      </trkpt>
      <trkpt lat="44.75325" lon="5.08724">
        <ele>435</ele>
        <time>1970-01-01T02:42:47.000Z</time>
      </trkpt>
      <trkpt lat="44.75323" lon="5.08723">
        <ele>435.2</ele>
        <time>1970-01-01T02:42:48.000Z</time>
      </trkpt>
      <trkpt lat="44.75321" lon="5.08723">
        <ele>435.8</ele>
        <time>1970-01-01T02:42:49.000Z</time>
      </trkpt>
      <trkpt lat="44.75318" lon="5.08722">
        <ele>436</ele>
        <time>1970-01-01T02:42:50.000Z</time>
      </trkpt>
      <trkpt lat="44.75315" lon="5.08721">
        <ele>436.4</ele>
        <time>1970-01-01T02:42:51.000Z</time>
      </trkpt>
      <trkpt lat="44.75312" lon="5.0872">
        <ele>436.6</ele>
        <time>1970-01-01T02:42:52.000Z</time>
      </trkpt>
      <trkpt lat="44.75309" lon="5.08719">
        <ele>437.2</ele>
        <time>1970-01-01T02:42:53.000Z</time>
      </trkpt>
      <trkpt lat="44.75306" lon="5.08718">
        <ele>437.6</ele>
        <time>1970-01-01T02:42:54.000Z</time>
      </trkpt>
      <trkpt lat="44.75303" lon="5.08717">
        <ele>438.2</ele>
        <time>1970-01-01T02:42:55.000Z</time>
      </trkpt>
      <trkpt lat="44.753" lon="5.08715">
        <ele>438.6</ele>
        <time>1970-01-01T02:42:56.000Z</time>
      </trkpt>
      <trkpt lat="44.75297" lon="5.08714">
        <ele>439.2</ele>
        <time>1970-01-01T02:42:57.000Z</time>
      </trkpt>
      <trkpt lat="44.75295" lon="5.08714">
        <ele>439.6</ele>
        <time>1970-01-01T02:42:58.000Z</time>
      </trkpt>
      <trkpt lat="44.75292" lon="5.08714">
        <ele>439.8</ele>
        <time>1970-01-01T02:42:59.000Z</time>
      </trkpt>
      <trkpt lat="44.75289" lon="5.08713">
        <ele>440.2</ele>
        <time>1970-01-01T02:43:00.000Z</time>
      </trkpt>
      <trkpt lat="44.75285" lon="5.08713">
        <ele>440.8</ele>
        <time>1970-01-01T02:43:01.000Z</time>
      </trkpt>
      <trkpt lat="44.75283" lon="5.08713">
        <ele>441</ele>
        <time>1970-01-01T02:43:02.000Z</time>
      </trkpt>
      <trkpt lat="44.7528" lon="5.08712">
        <ele>441.2</ele>
        <time>1970-01-01T02:43:03.000Z</time>
      </trkpt>
      <trkpt lat="44.75277" lon="5.08711">
        <ele>441.4</ele>
        <time>1970-01-01T02:43:04.000Z</time>
      </trkpt>
      <trkpt lat="44.75274" lon="5.0871">
        <ele>441.8</ele>
        <time>1970-01-01T02:43:05.000Z</time>
      </trkpt>
      <trkpt lat="44.7527" lon="5.08709">
        <ele>442.2</ele>
        <time>1970-01-01T02:43:06.000Z</time>
      </trkpt>
      <trkpt lat="44.75267" lon="5.08708">
        <ele>442.8</ele>
        <time>1970-01-01T02:43:07.000Z</time>
      </trkpt>
      <trkpt lat="44.75264" lon="5.08708">
        <ele>443.2</ele>
        <time>1970-01-01T02:43:08.000Z</time>
      </trkpt>
      <trkpt lat="44.75261" lon="5.08707">
        <ele>443.6</ele>
        <time>1970-01-01T02:43:09.000Z</time>
      </trkpt>
      <trkpt lat="44.75258" lon="5.08706">
        <ele>443.8</ele>
        <time>1970-01-01T02:43:10.000Z</time>
      </trkpt>
      <trkpt lat="44.75256" lon="5.08706">
        <ele>444.2</ele>
        <time>1970-01-01T02:43:11.000Z</time>
      </trkpt>
      <trkpt lat="44.75253" lon="5.08705">
        <ele>444.6</ele>
        <time>1970-01-01T02:43:12.000Z</time>
      </trkpt>
      <trkpt lat="44.7525" lon="5.08704">
        <ele>445</ele>
        <time>1970-01-01T02:43:13.000Z</time>
      </trkpt>
      <trkpt lat="44.75247" lon="5.08704">
        <ele>445.2</ele>
        <time>1970-01-01T02:43:14.000Z</time>
      </trkpt>
      <trkpt lat="44.75244" lon="5.08703">
        <ele>445.4</ele>
        <time>1970-01-01T02:43:15.000Z</time>
      </trkpt>
      <trkpt lat="44.75241" lon="5.08703">
        <ele>446</ele>
        <time>1970-01-01T02:43:16.000Z</time>
      </trkpt>
      <trkpt lat="44.75238" lon="5.08702">
        <ele>446.4</ele>
        <time>1970-01-01T02:43:17.000Z</time>
      </trkpt>
      <trkpt lat="44.75235" lon="5.08701">
        <ele>446.6</ele>
        <time>1970-01-01T02:43:18.000Z</time>
      </trkpt>
      <trkpt lat="44.75232" lon="5.087">
        <ele>446.6</ele>
        <time>1970-01-01T02:43:19.000Z</time>
      </trkpt>
      <trkpt lat="44.75228" lon="5.08699">
        <ele>446.8</ele>
        <time>1970-01-01T02:43:20.000Z</time>
      </trkpt>
      <trkpt lat="44.75225" lon="5.08698">
        <ele>447.2</ele>
        <time>1970-01-01T02:43:21.000Z</time>
      </trkpt>
      <trkpt lat="44.75222" lon="5.08698">
        <ele>447.6</ele>
        <time>1970-01-01T02:43:22.000Z</time>
      </trkpt>
      <trkpt lat="44.7522" lon="5.08698">
        <ele>447.6</ele>
        <time>1970-01-01T02:43:23.000Z</time>
      </trkpt>
      <trkpt lat="44.75216" lon="5.08697">
        <ele>448</ele>
        <time>1970-01-01T02:43:24.000Z</time>
      </trkpt>
      <trkpt lat="44.75212" lon="5.08696">
        <ele>448.2</ele>
        <time>1970-01-01T02:43:25.000Z</time>
      </trkpt>
      <trkpt lat="44.75209" lon="5.08696">
        <ele>448.6</ele>
        <time>1970-01-01T02:43:26.000Z</time>
      </trkpt>
      <trkpt lat="44.75206" lon="5.08696">
        <ele>448.8</ele>
        <time>1970-01-01T02:43:27.000Z</time>
      </trkpt>
      <trkpt lat="44.75203" lon="5.08696">
        <ele>449</ele>
        <time>1970-01-01T02:43:28.000Z</time>
      </trkpt>
      <trkpt lat="44.752" lon="5.08697">
        <ele>449.2</ele>
        <time>1970-01-01T02:43:29.000Z</time>
      </trkpt>
      <trkpt lat="44.75197" lon="5.08697">
        <ele>449.6</ele>
        <time>1970-01-01T02:43:30.000Z</time>
      </trkpt>
      <trkpt lat="44.75192" lon="5.08698">
        <ele>449.8</ele>
        <time>1970-01-01T02:43:31.000Z</time>
      </trkpt>
      <trkpt lat="44.75189" lon="5.08698">
        <ele>450</ele>
        <time>1970-01-01T02:43:32.000Z</time>
      </trkpt>
      <trkpt lat="44.75186" lon="5.08698">
        <ele>450.2</ele>
        <time>1970-01-01T02:43:33.000Z</time>
      </trkpt>
      <trkpt lat="44.75184" lon="5.08697">
        <ele>450.4</ele>
        <time>1970-01-01T02:43:34.000Z</time>
      </trkpt>
      <trkpt lat="44.7518" lon="5.08697">
        <ele>450.6</ele>
        <time>1970-01-01T02:43:35.000Z</time>
      </trkpt>
      <trkpt lat="44.75176" lon="5.08697">
        <ele>451</ele>
        <time>1970-01-01T02:43:36.000Z</time>
      </trkpt>
      <trkpt lat="44.75173" lon="5.08697">
        <ele>451.2</ele>
        <time>1970-01-01T02:43:37.000Z</time>
      </trkpt>
      <trkpt lat="44.7517" lon="5.08697">
        <ele>451.4</ele>
        <time>1970-01-01T02:43:38.000Z</time>
      </trkpt>
      <trkpt lat="44.75168" lon="5.08697">
        <ele>451.6</ele>
        <time>1970-01-01T02:43:39.000Z</time>
      </trkpt>
      <trkpt lat="44.75164" lon="5.08697">
        <ele>452</ele>
        <time>1970-01-01T02:43:40.000Z</time>
      </trkpt>
      <trkpt lat="44.75161" lon="5.08697">
        <ele>452.2</ele>
        <time>1970-01-01T02:43:41.000Z</time>
      </trkpt>
      <trkpt lat="44.75157" lon="5.08697">
        <ele>452.4</ele>
        <time>1970-01-01T02:43:42.000Z</time>
      </trkpt>
      <trkpt lat="44.75155" lon="5.08697">
        <ele>452.6</ele>
        <time>1970-01-01T02:43:43.000Z</time>
      </trkpt>
      <trkpt lat="44.75152" lon="5.08696">
        <ele>452.8</ele>
        <time>1970-01-01T02:43:44.000Z</time>
      </trkpt>
      <trkpt lat="44.75149" lon="5.08695">
        <ele>453.2</ele>
        <time>1970-01-01T02:43:45.000Z</time>
      </trkpt>
      <trkpt lat="44.75145" lon="5.08694">
        <ele>453.4</ele>
        <time>1970-01-01T02:43:46.000Z</time>
      </trkpt>
      <trkpt lat="44.75142" lon="5.08692">
        <ele>453.8</ele>
        <time>1970-01-01T02:43:47.000Z</time>
      </trkpt>
      <trkpt lat="44.75138" lon="5.08691">
        <ele>454.2</ele>
        <time>1970-01-01T02:43:48.000Z</time>
      </trkpt>
      <trkpt lat="44.75135" lon="5.08689">
        <ele>454.4</ele>
        <time>1970-01-01T02:43:49.000Z</time>
      </trkpt>
      <trkpt lat="44.75132" lon="5.08687">
        <ele>454.8</ele>
        <time>1970-01-01T02:43:50.000Z</time>
      </trkpt>
      <trkpt lat="44.75129" lon="5.08684">
        <ele>455</ele>
        <time>1970-01-01T02:43:51.000Z</time>
      </trkpt>
      <trkpt lat="44.75126" lon="5.08681">
        <ele>455.4</ele>
        <time>1970-01-01T02:43:52.000Z</time>
      </trkpt>
      <trkpt lat="44.75125" lon="5.08678">
        <ele>455.8</ele>
        <time>1970-01-01T02:43:53.000Z</time>
      </trkpt>
      <trkpt lat="44.75123" lon="5.08676">
        <ele>456.4</ele>
        <time>1970-01-01T02:43:54.000Z</time>
      </trkpt>
      <trkpt lat="44.75122" lon="5.08673">
        <ele>456.8</ele>
        <time>1970-01-01T02:43:55.000Z</time>
      </trkpt>
      <trkpt lat="44.7512" lon="5.08671">
        <ele>457.4</ele>
        <time>1970-01-01T02:43:56.000Z</time>
      </trkpt>
      <trkpt lat="44.75117" lon="5.08667">
        <ele>458</ele>
        <time>1970-01-01T02:43:57.000Z</time>
      </trkpt>
      <trkpt lat="44.75116" lon="5.08664">
        <ele>458.2</ele>
        <time>1970-01-01T02:43:58.000Z</time>
      </trkpt>
      <trkpt lat="44.75115" lon="5.08662">
        <ele>459</ele>
        <time>1970-01-01T02:43:59.000Z</time>
      </trkpt>
      <trkpt lat="44.75115" lon="5.08658">
        <ele>459.6</ele>
        <time>1970-01-01T02:44:00.000Z</time>
      </trkpt>
      <trkpt lat="44.75115" lon="5.08655">
        <ele>460</ele>
        <time>1970-01-01T02:44:01.000Z</time>
      </trkpt>
      <trkpt lat="44.75116" lon="5.08653">
        <ele>460.2</ele>
        <time>1970-01-01T02:44:02.000Z</time>
      </trkpt>
      <trkpt lat="44.75116" lon="5.0865">
        <ele>460.4</ele>
        <time>1970-01-01T02:44:03.000Z</time>
      </trkpt>
      <trkpt lat="44.75116" lon="5.08648">
        <ele>460.4</ele>
        <time>1970-01-01T02:44:04.000Z</time>
      </trkpt>
      <trkpt lat="44.75116" lon="5.08646">
        <ele>460.4</ele>
        <time>1970-01-01T02:44:05.000Z</time>
      </trkpt>
      <trkpt lat="44.75116" lon="5.08643">
        <ele>460.4</ele>
        <time>1970-01-01T02:44:06.000Z</time>
      </trkpt>
      <trkpt lat="44.75116" lon="5.08641">
        <ele>460.4</ele>
        <time>1970-01-01T02:44:07.000Z</time>
      </trkpt>
      <trkpt lat="44.75117" lon="5.08638">
        <ele>460.4</ele>
        <time>1970-01-01T02:44:08.000Z</time>
      </trkpt>
      <trkpt lat="44.75117" lon="5.08636">
        <ele>460.2</ele>
        <time>1970-01-01T02:44:09.000Z</time>
      </trkpt>
      <trkpt lat="44.75117" lon="5.08635">
        <ele>460.2</ele>
        <time>1970-01-01T02:44:10.000Z</time>
      </trkpt>
      <trkpt lat="44.75118" lon="5.08633">
        <ele>460.2</ele>
        <time>1970-01-01T02:44:11.000Z</time>
      </trkpt>
      <trkpt lat="44.75118" lon="5.08633">
        <ele>460.2</ele>
        <time>1970-01-01T02:44:12.000Z</time>
      </trkpt>
      <trkpt lat="44.75118" lon="5.08632">
        <ele>460.2</ele>
        <time>1970-01-01T02:44:13.000Z</time>
      </trkpt>
      <trkpt lat="44.75117" lon="5.08631">
        <ele>460.2</ele>
        <time>1970-01-01T02:44:14.000Z</time>
      </trkpt>
      <trkpt lat="44.75117" lon="5.08629">
        <ele>460.2</ele>
        <time>1970-01-01T02:44:15.000Z</time>
      </trkpt>
      <trkpt lat="44.75117" lon="5.08626">
        <ele>460.2</ele>
        <time>1970-01-01T02:44:16.000Z</time>
      </trkpt>
      <trkpt lat="44.75117" lon="5.08624">
        <ele>460.2</ele>
        <time>1970-01-01T02:44:17.000Z</time>
      </trkpt>
      <trkpt lat="44.75117" lon="5.08622">
        <ele>460.2</ele>
        <time>1970-01-01T02:44:18.000Z</time>
      </trkpt>
      <trkpt lat="44.75118" lon="5.08619">
        <ele>460.4</ele>
        <time>1970-01-01T02:44:19.000Z</time>
      </trkpt>
      <trkpt lat="44.75118" lon="5.08616">
        <ele>460.4</ele>
        <time>1970-01-01T02:44:20.000Z</time>
      </trkpt>
      <trkpt lat="44.75118" lon="5.08613">
        <ele>460.6</ele>
        <time>1970-01-01T02:44:21.000Z</time>
      </trkpt>
      <trkpt lat="44.75119" lon="5.08611">
        <ele>460.8</ele>
        <time>1970-01-01T02:44:22.000Z</time>
      </trkpt>
      <trkpt lat="44.7512" lon="5.08608">
        <ele>461.2</ele>
        <time>1970-01-01T02:44:23.000Z</time>
      </trkpt>
      <trkpt lat="44.7512" lon="5.08606">
        <ele>461.4</ele>
        <time>1970-01-01T02:44:24.000Z</time>
      </trkpt>
      <trkpt lat="44.75121" lon="5.08604">
        <ele>461.6</ele>
        <time>1970-01-01T02:44:25.000Z</time>
      </trkpt>
      <trkpt lat="44.75121" lon="5.08601">
        <ele>462</ele>
        <time>1970-01-01T02:44:26.000Z</time>
      </trkpt>
      <trkpt lat="44.75122" lon="5.08598">
        <ele>462.2</ele>
        <time>1970-01-01T02:44:27.000Z</time>
      </trkpt>
      <trkpt lat="44.75121" lon="5.08595">
        <ele>462.2</ele>
        <time>1970-01-01T02:44:28.000Z</time>
      </trkpt>
      <trkpt lat="44.75121" lon="5.08593">
        <ele>462.4</ele>
        <time>1970-01-01T02:44:29.000Z</time>
      </trkpt>
      <trkpt lat="44.75121" lon="5.0859">
        <ele>462.4</ele>
        <time>1970-01-01T02:44:30.000Z</time>
      </trkpt>
      <trkpt lat="44.7512" lon="5.08587">
        <ele>462.4</ele>
        <time>1970-01-01T02:44:31.000Z</time>
      </trkpt>
      <trkpt lat="44.7512" lon="5.08583">
        <ele>462.6</ele>
        <time>1970-01-01T02:44:32.000Z</time>
      </trkpt>
      <trkpt lat="44.7512" lon="5.08579">
        <ele>462.6</ele>
        <time>1970-01-01T02:44:33.000Z</time>
      </trkpt>
      <trkpt lat="44.75121" lon="5.08576">
        <ele>462.4</ele>
        <time>1970-01-01T02:44:34.000Z</time>
      </trkpt>
      <trkpt lat="44.75121" lon="5.08572">
        <ele>462.4</ele>
        <time>1970-01-01T02:44:35.000Z</time>
      </trkpt>
      <trkpt lat="44.75122" lon="5.08569">
        <ele>462.4</ele>
        <time>1970-01-01T02:44:36.000Z</time>
      </trkpt>
      <trkpt lat="44.75122" lon="5.08564">
        <ele>462.4</ele>
        <time>1970-01-01T02:44:37.000Z</time>
      </trkpt>
      <trkpt lat="44.75123" lon="5.08561">
        <ele>462.2</ele>
        <time>1970-01-01T02:44:38.000Z</time>
      </trkpt>
      <trkpt lat="44.75123" lon="5.08556">
        <ele>462.2</ele>
        <time>1970-01-01T02:44:39.000Z</time>
      </trkpt>
      <trkpt lat="44.75123" lon="5.08555">
        <ele>462.2</ele>
        <time>1970-01-01T02:44:41.000Z</time>
      </trkpt>
      <trkpt lat="44.7512" lon="5.0855">
        <ele>462</ele>
        <time>1970-01-01T02:44:46.000Z</time>
      </trkpt>
      <trkpt lat="44.75117" lon="5.0854">
        <ele>461</ele>
        <time>1970-01-01T02:44:48.000Z</time>
      </trkpt>
      <trkpt lat="44.7511" lon="5.08528">
        <ele>459.4</ele>
        <time>1970-01-01T02:44:50.000Z</time>
      </trkpt>
      <trkpt lat="44.75107" lon="5.08522">
        <ele>457.8</ele>
        <time>1970-01-01T02:44:51.000Z</time>
      </trkpt>
      <trkpt lat="44.75102" lon="5.08516">
        <ele>456.8</ele>
        <time>1970-01-01T02:44:52.000Z</time>
      </trkpt>
      <trkpt lat="44.75096" lon="5.08509">
        <ele>455</ele>
        <time>1970-01-01T02:44:53.000Z</time>
      </trkpt>
      <trkpt lat="44.75092" lon="5.08503">
        <ele>454</ele>
        <time>1970-01-01T02:44:54.000Z</time>
      </trkpt>
      <trkpt lat="44.75088" lon="5.08497">
        <ele>452.4</ele>
        <time>1970-01-01T02:44:55.000Z</time>
      </trkpt>
      <trkpt lat="44.75084" lon="5.08492">
        <ele>450.8</ele>
        <time>1970-01-01T02:44:56.000Z</time>
      </trkpt>
      <trkpt lat="44.7508" lon="5.08489">
        <ele>449.2</ele>
        <time>1970-01-01T02:44:57.000Z</time>
      </trkpt>
      <trkpt lat="44.75076" lon="5.08486">
        <ele>447.8</ele>
        <time>1970-01-01T02:44:58.000Z</time>
      </trkpt>
      <trkpt lat="44.75072" lon="5.08482">
        <ele>446.8</ele>
        <time>1970-01-01T02:44:59.000Z</time>
      </trkpt>
      <trkpt lat="44.75067" lon="5.0848">
        <ele>445.4</ele>
        <time>1970-01-01T02:45:00.000Z</time>
      </trkpt>
      <trkpt lat="44.75063" lon="5.08477">
        <ele>444.2</ele>
        <time>1970-01-01T02:45:01.000Z</time>
      </trkpt>
      <trkpt lat="44.75058" lon="5.08472">
        <ele>443</ele>
        <time>1970-01-01T02:45:02.000Z</time>
      </trkpt>
      <trkpt lat="44.75056" lon="5.08465">
        <ele>442</ele>
        <time>1970-01-01T02:45:03.000Z</time>
      </trkpt>
      <trkpt lat="44.75055" lon="5.08457">
        <ele>441</ele>
        <time>1970-01-01T02:45:04.000Z</time>
      </trkpt>
      <trkpt lat="44.75054" lon="5.08448">
        <ele>440.6</ele>
        <time>1970-01-01T02:45:05.000Z</time>
      </trkpt>
      <trkpt lat="44.75053" lon="5.08442">
        <ele>440.2</ele>
        <time>1970-01-01T02:45:06.000Z</time>
      </trkpt>
      <trkpt lat="44.7505" lon="5.08433">
        <ele>439.8</ele>
        <time>1970-01-01T02:45:07.000Z</time>
      </trkpt>
      <trkpt lat="44.75048" lon="5.08427">
        <ele>438.8</ele>
        <time>1970-01-01T02:45:08.000Z</time>
      </trkpt>
      <trkpt lat="44.75047" lon="5.08419">
        <ele>438.2</ele>
        <time>1970-01-01T02:45:09.000Z</time>
      </trkpt>
      <trkpt lat="44.75045" lon="5.08413">
        <ele>437.6</ele>
        <time>1970-01-01T02:45:10.000Z</time>
      </trkpt>
      <trkpt lat="44.75038" lon="5.08399">
        <ele>436.6</ele>
        <time>1970-01-01T02:45:12.000Z</time>
      </trkpt>
      <trkpt lat="44.75033" lon="5.08392">
        <ele>436.4</ele>
        <time>1970-01-01T02:45:13.000Z</time>
      </trkpt>
      <trkpt lat="44.75028" lon="5.08386">
        <ele>436.2</ele>
        <time>1970-01-01T02:45:14.000Z</time>
      </trkpt>
      <trkpt lat="44.7502" lon="5.08375">
        <ele>435.8</ele>
        <time>1970-01-01T02:45:16.000Z</time>
      </trkpt>
      <trkpt lat="44.75015" lon="5.08369">
        <ele>435.4</ele>
        <time>1970-01-01T02:45:17.000Z</time>
      </trkpt>
      <trkpt lat="44.75006" lon="5.08357">
        <ele>435.2</ele>
        <time>1970-01-01T02:45:19.000Z</time>
      </trkpt>
      <trkpt lat="44.75002" lon="5.08353">
        <ele>435.2</ele>
        <time>1970-01-01T02:45:20.000Z</time>
      </trkpt>
      <trkpt lat="44.74992" lon="5.08344">
        <ele>436</ele>
        <time>1970-01-01T02:45:22.000Z</time>
      </trkpt>
      <trkpt lat="44.74987" lon="5.08342">
        <ele>436.6</ele>
        <time>1970-01-01T02:45:23.000Z</time>
      </trkpt>
      <trkpt lat="44.74981" lon="5.08343">
        <ele>437</ele>
        <time>1970-01-01T02:45:24.000Z</time>
      </trkpt>
      <trkpt lat="44.74976" lon="5.08344">
        <ele>437.4</ele>
        <time>1970-01-01T02:45:25.000Z</time>
      </trkpt>
      <trkpt lat="44.74971" lon="5.08344">
        <ele>438</ele>
        <time>1970-01-01T02:45:26.000Z</time>
      </trkpt>
      <trkpt lat="44.74967" lon="5.08344">
        <ele>438.8</ele>
        <time>1970-01-01T02:45:27.000Z</time>
      </trkpt>
      <trkpt lat="44.74964" lon="5.08343">
        <ele>439.4</ele>
        <time>1970-01-01T02:45:28.000Z</time>
      </trkpt>
      <trkpt lat="44.74961" lon="5.08342">
        <ele>439.8</ele>
        <time>1970-01-01T02:45:29.000Z</time>
      </trkpt>
      <trkpt lat="44.7496" lon="5.08341">
        <ele>440.2</ele>
        <time>1970-01-01T02:45:30.000Z</time>
      </trkpt>
      <trkpt lat="44.74958" lon="5.08339">
        <ele>440.6</ele>
        <time>1970-01-01T02:45:31.000Z</time>
      </trkpt>
      <trkpt lat="44.74955" lon="5.08337">
        <ele>441.2</ele>
        <time>1970-01-01T02:45:32.000Z</time>
      </trkpt>
      <trkpt lat="44.7495" lon="5.08334">
        <ele>441.8</ele>
        <time>1970-01-01T02:45:34.000Z</time>
      </trkpt>
      <trkpt lat="44.74941" lon="5.08329">
        <ele>442.6</ele>
        <time>1970-01-01T02:45:37.000Z</time>
      </trkpt>
      <trkpt lat="44.74938" lon="5.08328">
        <ele>443</ele>
        <time>1970-01-01T02:45:38.000Z</time>
      </trkpt>
      <trkpt lat="44.74935" lon="5.08326">
        <ele>443.4</ele>
        <time>1970-01-01T02:45:39.000Z</time>
      </trkpt>
      <trkpt lat="44.74932" lon="5.08324">
        <ele>443.8</ele>
        <time>1970-01-01T02:45:40.000Z</time>
      </trkpt>
      <trkpt lat="44.7493" lon="5.08323">
        <ele>444</ele>
        <time>1970-01-01T02:45:41.000Z</time>
      </trkpt>
      <trkpt lat="44.74927" lon="5.08322">
        <ele>444.2</ele>
        <time>1970-01-01T02:45:42.000Z</time>
      </trkpt>
      <trkpt lat="44.74925" lon="5.08321">
        <ele>444.8</ele>
        <time>1970-01-01T02:45:43.000Z</time>
      </trkpt>
      <trkpt lat="44.74923" lon="5.08321">
        <ele>445</ele>
        <time>1970-01-01T02:45:44.000Z</time>
      </trkpt>
      <trkpt lat="44.74919" lon="5.0832">
        <ele>445.2</ele>
        <time>1970-01-01T02:45:45.000Z</time>
      </trkpt>
      <trkpt lat="44.74915" lon="5.08319">
        <ele>445.2</ele>
        <time>1970-01-01T02:45:46.000Z</time>
      </trkpt>
      <trkpt lat="44.74911" lon="5.08318">
        <ele>445.4</ele>
        <time>1970-01-01T02:45:47.000Z</time>
      </trkpt>
      <trkpt lat="44.74907" lon="5.08317">
        <ele>445.4</ele>
        <time>1970-01-01T02:45:48.000Z</time>
      </trkpt>
      <trkpt lat="44.74903" lon="5.08316">
        <ele>445.4</ele>
        <time>1970-01-01T02:45:49.000Z</time>
      </trkpt>
      <trkpt lat="44.74898" lon="5.08315">
        <ele>445.2</ele>
        <time>1970-01-01T02:45:50.000Z</time>
      </trkpt>
      <trkpt lat="44.74894" lon="5.08314">
        <ele>445</ele>
        <time>1970-01-01T02:45:51.000Z</time>
      </trkpt>
      <trkpt lat="44.74891" lon="5.08314">
        <ele>445</ele>
        <time>1970-01-01T02:45:52.000Z</time>
      </trkpt>
      <trkpt lat="44.74888" lon="5.08313">
        <ele>444.8</ele>
        <time>1970-01-01T02:45:53.000Z</time>
      </trkpt>
      <trkpt lat="44.74884" lon="5.08313">
        <ele>444.8</ele>
        <time>1970-01-01T02:45:54.000Z</time>
      </trkpt>
      <trkpt lat="44.7488" lon="5.08312">
        <ele>444.8</ele>
        <time>1970-01-01T02:45:55.000Z</time>
      </trkpt>
      <trkpt lat="44.74876" lon="5.08312">
        <ele>444.8</ele>
        <time>1970-01-01T02:45:56.000Z</time>
      </trkpt>
      <trkpt lat="44.74872" lon="5.08312">
        <ele>444.8</ele>
        <time>1970-01-01T02:45:57.000Z</time>
      </trkpt>
      <trkpt lat="44.74868" lon="5.08312">
        <ele>444.8</ele>
        <time>1970-01-01T02:45:58.000Z</time>
      </trkpt>
      <trkpt lat="44.74864" lon="5.08311">
        <ele>444.8</ele>
        <time>1970-01-01T02:45:59.000Z</time>
      </trkpt>
      <trkpt lat="44.7486" lon="5.08311">
        <ele>445</ele>
        <time>1970-01-01T02:46:00.000Z</time>
      </trkpt>
      <trkpt lat="44.74856" lon="5.0831">
        <ele>445.2</ele>
        <time>1970-01-01T02:46:01.000Z</time>
      </trkpt>
      <trkpt lat="44.74852" lon="5.0831">
        <ele>445.4</ele>
        <time>1970-01-01T02:46:02.000Z</time>
      </trkpt>
      <trkpt lat="44.74848" lon="5.0831">
        <ele>445.6</ele>
        <time>1970-01-01T02:46:03.000Z</time>
      </trkpt>
      <trkpt lat="44.74843" lon="5.08309">
        <ele>445.8</ele>
        <time>1970-01-01T02:46:04.000Z</time>
      </trkpt>
      <trkpt lat="44.7484" lon="5.08308">
        <ele>446</ele>
        <time>1970-01-01T02:46:05.000Z</time>
      </trkpt>
      <trkpt lat="44.74836" lon="5.08306">
        <ele>446</ele>
        <time>1970-01-01T02:46:06.000Z</time>
      </trkpt>
      <trkpt lat="44.74832" lon="5.08304">
        <ele>446</ele>
        <time>1970-01-01T02:46:07.000Z</time>
      </trkpt>
      <trkpt lat="44.74826" lon="5.08301">
        <ele>446</ele>
        <time>1970-01-01T02:46:08.000Z</time>
      </trkpt>
      <trkpt lat="44.74819" lon="5.08298">
        <ele>445.8</ele>
        <time>1970-01-01T02:46:09.000Z</time>
      </trkpt>
      <trkpt lat="44.74807" lon="5.08292">
        <ele>444.8</ele>
        <time>1970-01-01T02:46:11.000Z</time>
      </trkpt>
      <trkpt lat="44.74794" lon="5.08285">
        <ele>444</ele>
        <time>1970-01-01T02:46:13.000Z</time>
      </trkpt>
      <trkpt lat="44.7478" lon="5.08279">
        <ele>443.2</ele>
        <time>1970-01-01T02:46:15.000Z</time>
      </trkpt>
      <trkpt lat="44.74773" lon="5.08276">
        <ele>443</ele>
        <time>1970-01-01T02:46:16.000Z</time>
      </trkpt>
      <trkpt lat="44.74767" lon="5.08273">
        <ele>442.8</ele>
        <time>1970-01-01T02:46:17.000Z</time>
      </trkpt>
      <trkpt lat="44.7476" lon="5.08272">
        <ele>442.8</ele>
        <time>1970-01-01T02:46:18.000Z</time>
      </trkpt>
      <trkpt lat="44.74755" lon="5.08271">
        <ele>442.4</ele>
        <time>1970-01-01T02:46:19.000Z</time>
      </trkpt>
      <trkpt lat="44.74748" lon="5.08271">
        <ele>441.8</ele>
        <time>1970-01-01T02:46:20.000Z</time>
      </trkpt>
      <trkpt lat="44.74743" lon="5.08271">
        <ele>441.6</ele>
        <time>1970-01-01T02:46:21.000Z</time>
      </trkpt>
      <trkpt lat="44.74738" lon="5.08272">
        <ele>441.4</ele>
        <time>1970-01-01T02:46:22.000Z</time>
      </trkpt>
      <trkpt lat="44.74714" lon="5.08277">
        <ele>441</ele>
        <time>1970-01-01T02:46:26.000Z</time>
      </trkpt>
      <trkpt lat="44.74701" lon="5.0828">
        <ele>441</ele>
        <time>1970-01-01T02:46:28.000Z</time>
      </trkpt>
      <trkpt lat="44.74695" lon="5.08281">
        <ele>441</ele>
        <time>1970-01-01T02:46:29.000Z</time>
      </trkpt>
      <trkpt lat="44.74683" lon="5.08282">
        <ele>440.8</ele>
        <time>1970-01-01T02:46:31.000Z</time>
      </trkpt>
      <trkpt lat="44.74677" lon="5.08283">
        <ele>441</ele>
        <time>1970-01-01T02:46:32.000Z</time>
      </trkpt>
      <trkpt lat="44.74671" lon="5.08285">
        <ele>441</ele>
        <time>1970-01-01T02:46:33.000Z</time>
      </trkpt>
      <trkpt lat="44.74666" lon="5.08287">
        <ele>441.4</ele>
        <time>1970-01-01T02:46:34.000Z</time>
      </trkpt>
      <trkpt lat="44.7466" lon="5.08289">
        <ele>441.8</ele>
        <time>1970-01-01T02:46:35.000Z</time>
      </trkpt>
      <trkpt lat="44.74655" lon="5.08291">
        <ele>442</ele>
        <time>1970-01-01T02:46:36.000Z</time>
      </trkpt>
      <trkpt lat="44.7465" lon="5.08291">
        <ele>442.4</ele>
        <time>1970-01-01T02:46:37.000Z</time>
      </trkpt>
      <trkpt lat="44.74644" lon="5.08291">
        <ele>443</ele>
        <time>1970-01-01T02:46:38.000Z</time>
      </trkpt>
      <trkpt lat="44.74633" lon="5.08291">
        <ele>443.8</ele>
        <time>1970-01-01T02:46:40.000Z</time>
      </trkpt>
      <trkpt lat="44.74628" lon="5.08292">
        <ele>444</ele>
        <time>1970-01-01T02:46:41.000Z</time>
      </trkpt>
      <trkpt lat="44.74623" lon="5.08293">
        <ele>444</ele>
        <time>1970-01-01T02:46:42.000Z</time>
      </trkpt>
      <trkpt lat="44.74618" lon="5.08294">
        <ele>444.2</ele>
        <time>1970-01-01T02:46:43.000Z</time>
      </trkpt>
      <trkpt lat="44.74608" lon="5.08297">
        <ele>444.6</ele>
        <time>1970-01-01T02:46:45.000Z</time>
      </trkpt>
      <trkpt lat="44.74603" lon="5.083">
        <ele>445</ele>
        <time>1970-01-01T02:46:46.000Z</time>
      </trkpt>
      <trkpt lat="44.74598" lon="5.08303">
        <ele>444.8</ele>
        <time>1970-01-01T02:46:47.000Z</time>
      </trkpt>
      <trkpt lat="44.74594" lon="5.08305">
        <ele>444.8</ele>
        <time>1970-01-01T02:46:48.000Z</time>
      </trkpt>
      <trkpt lat="44.7459" lon="5.08308">
        <ele>445.2</ele>
        <time>1970-01-01T02:46:49.000Z</time>
      </trkpt>
      <trkpt lat="44.74586" lon="5.08311">
        <ele>445.4</ele>
        <time>1970-01-01T02:46:50.000Z</time>
      </trkpt>
      <trkpt lat="44.74581" lon="5.08313">
        <ele>445.4</ele>
        <time>1970-01-01T02:46:51.000Z</time>
      </trkpt>
      <trkpt lat="44.74576" lon="5.08316">
        <ele>445.6</ele>
        <time>1970-01-01T02:46:52.000Z</time>
      </trkpt>
      <trkpt lat="44.74571" lon="5.08319">
        <ele>445.8</ele>
        <time>1970-01-01T02:46:53.000Z</time>
      </trkpt>
      <trkpt lat="44.74567" lon="5.08321">
        <ele>445.8</ele>
        <time>1970-01-01T02:46:54.000Z</time>
      </trkpt>
      <trkpt lat="44.74561" lon="5.08323">
        <ele>446</ele>
        <time>1970-01-01T02:46:55.000Z</time>
      </trkpt>
      <trkpt lat="44.74557" lon="5.08326">
        <ele>446</ele>
        <time>1970-01-01T02:46:56.000Z</time>
      </trkpt>
      <trkpt lat="44.74553" lon="5.0833">
        <ele>446.4</ele>
        <time>1970-01-01T02:46:57.000Z</time>
      </trkpt>
      <trkpt lat="44.74548" lon="5.08333">
        <ele>446.6</ele>
        <time>1970-01-01T02:46:58.000Z</time>
      </trkpt>
      <trkpt lat="44.74543" lon="5.08335">
        <ele>446.8</ele>
        <time>1970-01-01T02:46:59.000Z</time>
      </trkpt>
      <trkpt lat="44.74538" lon="5.08339">
        <ele>447</ele>
        <time>1970-01-01T02:47:00.000Z</time>
      </trkpt>
      <trkpt lat="44.74534" lon="5.08343">
        <ele>447.2</ele>
        <time>1970-01-01T02:47:01.000Z</time>
      </trkpt>
      <trkpt lat="44.7453" lon="5.08348">
        <ele>447.2</ele>
        <time>1970-01-01T02:47:02.000Z</time>
      </trkpt>
      <trkpt lat="44.74527" lon="5.08352">
        <ele>447.6</ele>
        <time>1970-01-01T02:47:03.000Z</time>
      </trkpt>
      <trkpt lat="44.74523" lon="5.08357">
        <ele>447.8</ele>
        <time>1970-01-01T02:47:04.000Z</time>
      </trkpt>
      <trkpt lat="44.7452" lon="5.0836">
        <ele>448</ele>
        <time>1970-01-01T02:47:05.000Z</time>
      </trkpt>
      <trkpt lat="44.74516" lon="5.08364">
        <ele>448</ele>
        <time>1970-01-01T02:47:06.000Z</time>
      </trkpt>
      <trkpt lat="44.74512" lon="5.08367">
        <ele>448.6</ele>
        <time>1970-01-01T02:47:07.000Z</time>
      </trkpt>
      <trkpt lat="44.74508" lon="5.08368">
        <ele>449</ele>
        <time>1970-01-01T02:47:08.000Z</time>
      </trkpt>
      <trkpt lat="44.74504" lon="5.08371">
        <ele>450.2</ele>
        <time>1970-01-01T02:47:09.000Z</time>
      </trkpt>
      <trkpt lat="44.74502" lon="5.08372">
        <ele>450.8</ele>
        <time>1970-01-01T02:47:10.000Z</time>
      </trkpt>
      <trkpt lat="44.745" lon="5.08374">
        <ele>451.2</ele>
        <time>1970-01-01T02:47:11.000Z</time>
      </trkpt>
      <trkpt lat="44.74496" lon="5.08375">
        <ele>451.4</ele>
        <time>1970-01-01T02:47:12.000Z</time>
      </trkpt>
      <trkpt lat="44.74494" lon="5.08376">
        <ele>452.2</ele>
        <time>1970-01-01T02:47:13.000Z</time>
      </trkpt>
      <trkpt lat="44.74492" lon="5.08377">
        <ele>453</ele>
        <time>1970-01-01T02:47:14.000Z</time>
      </trkpt>
      <trkpt lat="44.74489" lon="5.08378">
        <ele>453.8</ele>
        <time>1970-01-01T02:47:15.000Z</time>
      </trkpt>
      <trkpt lat="44.74487" lon="5.08379">
        <ele>454.8</ele>
        <time>1970-01-01T02:47:16.000Z</time>
      </trkpt>
      <trkpt lat="44.74484" lon="5.0838">
        <ele>455.4</ele>
        <time>1970-01-01T02:47:17.000Z</time>
      </trkpt>
      <trkpt lat="44.74482" lon="5.0838">
        <ele>456</ele>
        <time>1970-01-01T02:47:18.000Z</time>
      </trkpt>
      <trkpt lat="44.7448" lon="5.08381">
        <ele>457</ele>
        <time>1970-01-01T02:47:19.000Z</time>
      </trkpt>
      <trkpt lat="44.74477" lon="5.08382">
        <ele>457.8</ele>
        <time>1970-01-01T02:47:20.000Z</time>
      </trkpt>
      <trkpt lat="44.74474" lon="5.08384">
        <ele>458.2</ele>
        <time>1970-01-01T02:47:21.000Z</time>
      </trkpt>
      <trkpt lat="44.74471" lon="5.08385">
        <ele>458.6</ele>
        <time>1970-01-01T02:47:22.000Z</time>
      </trkpt>
      <trkpt lat="44.74468" lon="5.08387">
        <ele>458.8</ele>
        <time>1970-01-01T02:47:23.000Z</time>
      </trkpt>
      <trkpt lat="44.74466" lon="5.08389">
        <ele>459.4</ele>
        <time>1970-01-01T02:47:24.000Z</time>
      </trkpt>
      <trkpt lat="44.74464" lon="5.08392">
        <ele>460.2</ele>
        <time>1970-01-01T02:47:25.000Z</time>
      </trkpt>
      <trkpt lat="44.74462" lon="5.08393">
        <ele>460.6</ele>
        <time>1970-01-01T02:47:26.000Z</time>
      </trkpt>
      <trkpt lat="44.74458" lon="5.08394">
        <ele>461.2</ele>
        <time>1970-01-01T02:47:27.000Z</time>
      </trkpt>
      <trkpt lat="44.74456" lon="5.08396">
        <ele>461.6</ele>
        <time>1970-01-01T02:47:28.000Z</time>
      </trkpt>
      <trkpt lat="44.74453" lon="5.08397">
        <ele>462.4</ele>
        <time>1970-01-01T02:47:29.000Z</time>
      </trkpt>
      <trkpt lat="44.7445" lon="5.08398">
        <ele>463.2</ele>
        <time>1970-01-01T02:47:30.000Z</time>
      </trkpt>
      <trkpt lat="44.74447" lon="5.084">
        <ele>463.8</ele>
        <time>1970-01-01T02:47:31.000Z</time>
      </trkpt>
      <trkpt lat="44.74444" lon="5.08402">
        <ele>464.6</ele>
        <time>1970-01-01T02:47:32.000Z</time>
      </trkpt>
      <trkpt lat="44.74441" lon="5.08405">
        <ele>465.2</ele>
        <time>1970-01-01T02:47:33.000Z</time>
      </trkpt>
      <trkpt lat="44.74439" lon="5.08408">
        <ele>465.8</ele>
        <time>1970-01-01T02:47:34.000Z</time>
      </trkpt>
      <trkpt lat="44.74436" lon="5.0841">
        <ele>466.6</ele>
        <time>1970-01-01T02:47:35.000Z</time>
      </trkpt>
      <trkpt lat="44.74434" lon="5.08412">
        <ele>467</ele>
        <time>1970-01-01T02:47:36.000Z</time>
      </trkpt>
      <trkpt lat="44.74431" lon="5.08415">
        <ele>467.2</ele>
        <time>1970-01-01T02:47:37.000Z</time>
      </trkpt>
      <trkpt lat="44.74429" lon="5.08417">
        <ele>468</ele>
        <time>1970-01-01T02:47:38.000Z</time>
      </trkpt>
      <trkpt lat="44.74426" lon="5.08421">
        <ele>468.4</ele>
        <time>1970-01-01T02:47:39.000Z</time>
      </trkpt>
      <trkpt lat="44.74423" lon="5.08424">
        <ele>468.8</ele>
        <time>1970-01-01T02:47:40.000Z</time>
      </trkpt>
      <trkpt lat="44.74421" lon="5.08427">
        <ele>469</ele>
        <time>1970-01-01T02:47:41.000Z</time>
      </trkpt>
      <trkpt lat="44.74417" lon="5.0843">
        <ele>469.4</ele>
        <time>1970-01-01T02:47:42.000Z</time>
      </trkpt>
      <trkpt lat="44.74414" lon="5.08434">
        <ele>469.6</ele>
        <time>1970-01-01T02:47:43.000Z</time>
      </trkpt>
      <trkpt lat="44.74411" lon="5.08437">
        <ele>470</ele>
        <time>1970-01-01T02:47:44.000Z</time>
      </trkpt>
      <trkpt lat="44.74409" lon="5.08441">
        <ele>470.2</ele>
        <time>1970-01-01T02:47:45.000Z</time>
      </trkpt>
      <trkpt lat="44.74407" lon="5.08444">
        <ele>470.4</ele>
        <time>1970-01-01T02:47:46.000Z</time>
      </trkpt>
      <trkpt lat="44.74405" lon="5.08448">
        <ele>470.4</ele>
        <time>1970-01-01T02:47:47.000Z</time>
      </trkpt>
      <trkpt lat="44.74403" lon="5.08451">
        <ele>470.8</ele>
        <time>1970-01-01T02:47:48.000Z</time>
      </trkpt>
      <trkpt lat="44.74402" lon="5.08454">
        <ele>471.2</ele>
        <time>1970-01-01T02:47:49.000Z</time>
      </trkpt>
      <trkpt lat="44.74401" lon="5.08456">
        <ele>471.4</ele>
        <time>1970-01-01T02:47:50.000Z</time>
      </trkpt>
      <trkpt lat="44.744" lon="5.08459">
        <ele>472</ele>
        <time>1970-01-01T02:47:51.000Z</time>
      </trkpt>
      <trkpt lat="44.74398" lon="5.08461">
        <ele>472.4</ele>
        <time>1970-01-01T02:47:52.000Z</time>
      </trkpt>
      <trkpt lat="44.74397" lon="5.08463">
        <ele>472.8</ele>
        <time>1970-01-01T02:47:53.000Z</time>
      </trkpt>
      <trkpt lat="44.74396" lon="5.08464">
        <ele>473</ele>
        <time>1970-01-01T02:47:54.000Z</time>
      </trkpt>
      <trkpt lat="44.74395" lon="5.08464">
        <ele>473.4</ele>
        <time>1970-01-01T02:47:56.000Z</time>
      </trkpt>
      <trkpt lat="44.74395" lon="5.08464">
        <ele>473.6</ele>
        <time>1970-01-01T02:47:57.000Z</time>
      </trkpt>
      <trkpt lat="44.74394" lon="5.08463">
        <ele>473.6</ele>
        <time>1970-01-01T02:47:59.000Z</time>
      </trkpt>
      <trkpt lat="44.74391" lon="5.08466">
        <ele>471.2</ele>
        <time>1970-01-01T02:51:36.000Z</time>
      </trkpt>
      <trkpt lat="44.74388" lon="5.08468">
        <ele>471.2</ele>
        <time>1970-01-01T02:51:37.000Z</time>
      </trkpt>
      <trkpt lat="44.74384" lon="5.08471">
        <ele>466.8</ele>
        <time>1970-01-01T02:51:38.000Z</time>
      </trkpt>
      <trkpt lat="44.7438" lon="5.08474">
        <ele>466.8</ele>
        <time>1970-01-01T02:51:39.000Z</time>
      </trkpt>
      <trkpt lat="44.74376" lon="5.08476">
        <ele>466.8</ele>
        <time>1970-01-01T02:51:40.000Z</time>
      </trkpt>
      <trkpt lat="44.74371" lon="5.08481">
        <ele>466.4</ele>
        <time>1970-01-01T02:51:41.000Z</time>
      </trkpt>
      <trkpt lat="44.74367" lon="5.08487">
        <ele>465.2</ele>
        <time>1970-01-01T02:51:42.000Z</time>
      </trkpt>
      <trkpt lat="44.74364" lon="5.08492">
        <ele>463.8</ele>
        <time>1970-01-01T02:51:43.000Z</time>
      </trkpt>
      <trkpt lat="44.74354" lon="5.08496">
        <ele>462.4</ele>
        <time>1970-01-01T02:51:45.000Z</time>
      </trkpt>
      <trkpt lat="44.74348" lon="5.08498">
        <ele>461.6</ele>
        <time>1970-01-01T02:51:46.000Z</time>
      </trkpt>
      <trkpt lat="44.74342" lon="5.085">
        <ele>461</ele>
        <time>1970-01-01T02:51:47.000Z</time>
      </trkpt>
      <trkpt lat="44.74336" lon="5.08503">
        <ele>460.4</ele>
        <time>1970-01-01T02:51:48.000Z</time>
      </trkpt>
      <trkpt lat="44.7433" lon="5.08507">
        <ele>459</ele>
        <time>1970-01-01T02:51:49.000Z</time>
      </trkpt>
      <trkpt lat="44.74324" lon="5.08512">
        <ele>457.8</ele>
        <time>1970-01-01T02:51:50.000Z</time>
      </trkpt>
      <trkpt lat="44.74317" lon="5.08514">
        <ele>456.8</ele>
        <time>1970-01-01T02:51:51.000Z</time>
      </trkpt>
      <trkpt lat="44.74311" lon="5.08516">
        <ele>456.2</ele>
        <time>1970-01-01T02:51:52.000Z</time>
      </trkpt>
      <trkpt lat="44.74305" lon="5.08518">
        <ele>455.6</ele>
        <time>1970-01-01T02:51:53.000Z</time>
      </trkpt>
      <trkpt lat="44.743" lon="5.08521">
        <ele>455.4</ele>
        <time>1970-01-01T02:51:54.000Z</time>
      </trkpt>
      <trkpt lat="44.74295" lon="5.08524">
        <ele>455.4</ele>
        <time>1970-01-01T02:51:55.000Z</time>
      </trkpt>
      <trkpt lat="44.74285" lon="5.08532">
        <ele>455.4</ele>
        <time>1970-01-01T02:51:57.000Z</time>
      </trkpt>
      <trkpt lat="44.74279" lon="5.08537">
        <ele>455.2</ele>
        <time>1970-01-01T02:51:58.000Z</time>
      </trkpt>
      <trkpt lat="44.74274" lon="5.0854">
        <ele>455.4</ele>
        <time>1970-01-01T02:51:59.000Z</time>
      </trkpt>
      <trkpt lat="44.74269" lon="5.08542">
        <ele>455.6</ele>
        <time>1970-01-01T02:52:00.000Z</time>
      </trkpt>
      <trkpt lat="44.74266" lon="5.08544">
        <ele>455.8</ele>
        <time>1970-01-01T02:52:01.000Z</time>
      </trkpt>
      <trkpt lat="44.74262" lon="5.08547">
        <ele>455.8</ele>
        <time>1970-01-01T02:52:02.000Z</time>
      </trkpt>
      <trkpt lat="44.74258" lon="5.08548">
        <ele>456.8</ele>
        <time>1970-01-01T02:52:03.000Z</time>
      </trkpt>
      <trkpt lat="44.74251" lon="5.08551">
        <ele>458</ele>
        <time>1970-01-01T02:52:05.000Z</time>
      </trkpt>
      <trkpt lat="44.74244" lon="5.08555">
        <ele>459</ele>
        <time>1970-01-01T02:52:07.000Z</time>
      </trkpt>
      <trkpt lat="44.7424" lon="5.08557">
        <ele>459.4</ele>
        <time>1970-01-01T02:52:08.000Z</time>
      </trkpt>
      <trkpt lat="44.74237" lon="5.08558">
        <ele>459.8</ele>
        <time>1970-01-01T02:52:09.000Z</time>
      </trkpt>
      <trkpt lat="44.74234" lon="5.0856">
        <ele>460.2</ele>
        <time>1970-01-01T02:52:10.000Z</time>
      </trkpt>
      <trkpt lat="44.7423" lon="5.08564">
        <ele>460.4</ele>
        <time>1970-01-01T02:52:11.000Z</time>
      </trkpt>
      <trkpt lat="44.74227" lon="5.08569">
        <ele>460.6</ele>
        <time>1970-01-01T02:52:12.000Z</time>
      </trkpt>
      <trkpt lat="44.74223" lon="5.08574">
        <ele>460.6</ele>
        <time>1970-01-01T02:52:13.000Z</time>
      </trkpt>
      <trkpt lat="44.74219" lon="5.0858">
        <ele>460.4</ele>
        <time>1970-01-01T02:52:14.000Z</time>
      </trkpt>
      <trkpt lat="44.74214" lon="5.08584">
        <ele>460</ele>
        <time>1970-01-01T02:52:15.000Z</time>
      </trkpt>
      <trkpt lat="44.74208" lon="5.08586">
        <ele>459</ele>
        <time>1970-01-01T02:52:16.000Z</time>
      </trkpt>
      <trkpt lat="44.74201" lon="5.0859">
        <ele>458.2</ele>
        <time>1970-01-01T02:52:17.000Z</time>
      </trkpt>
      <trkpt lat="44.74195" lon="5.08596">
        <ele>457.6</ele>
        <time>1970-01-01T02:52:18.000Z</time>
      </trkpt>
      <trkpt lat="44.74189" lon="5.08601">
        <ele>457.2</ele>
        <time>1970-01-01T02:52:19.000Z</time>
      </trkpt>
      <trkpt lat="44.74183" lon="5.08605">
        <ele>456.4</ele>
        <time>1970-01-01T02:52:20.000Z</time>
      </trkpt>
      <trkpt lat="44.74177" lon="5.08606">
        <ele>455.4</ele>
        <time>1970-01-01T02:52:21.000Z</time>
      </trkpt>
      <trkpt lat="44.74172" lon="5.08608">
        <ele>455</ele>
        <time>1970-01-01T02:52:22.000Z</time>
      </trkpt>
      <trkpt lat="44.74167" lon="5.08611">
        <ele>453.8</ele>
        <time>1970-01-01T02:52:23.000Z</time>
      </trkpt>
      <trkpt lat="44.74156" lon="5.08616">
        <ele>452.2</ele>
        <time>1970-01-01T02:52:25.000Z</time>
      </trkpt>
      <trkpt lat="44.74144" lon="5.08619">
        <ele>451</ele>
        <time>1970-01-01T02:52:27.000Z</time>
      </trkpt>
      <trkpt lat="44.74137" lon="5.0862">
        <ele>450.6</ele>
        <time>1970-01-01T02:52:28.000Z</time>
      </trkpt>
      <trkpt lat="44.74124" lon="5.08621">
        <ele>450.4</ele>
        <time>1970-01-01T02:52:30.000Z</time>
      </trkpt>
      <trkpt lat="44.74119" lon="5.08621">
        <ele>450.4</ele>
        <time>1970-01-01T02:52:31.000Z</time>
      </trkpt>
      <trkpt lat="44.74113" lon="5.08622">
        <ele>450.2</ele>
        <time>1970-01-01T02:52:32.000Z</time>
      </trkpt>
      <trkpt lat="44.74106" lon="5.08623">
        <ele>450.2</ele>
        <time>1970-01-01T02:52:33.000Z</time>
      </trkpt>
      <trkpt lat="44.741" lon="5.08622">
        <ele>450.2</ele>
        <time>1970-01-01T02:52:34.000Z</time>
      </trkpt>
      <trkpt lat="44.74095" lon="5.08622">
        <ele>450.2</ele>
        <time>1970-01-01T02:52:35.000Z</time>
      </trkpt>
      <trkpt lat="44.74089" lon="5.08622">
        <ele>450.2</ele>
        <time>1970-01-01T02:52:36.000Z</time>
      </trkpt>
      <trkpt lat="44.74076" lon="5.0862">
        <ele>450.6</ele>
        <time>1970-01-01T02:52:38.000Z</time>
      </trkpt>
      <trkpt lat="44.74071" lon="5.08619">
        <ele>450.8</ele>
        <time>1970-01-01T02:52:39.000Z</time>
      </trkpt>
      <trkpt lat="44.74065" lon="5.08618">
        <ele>450.8</ele>
        <time>1970-01-01T02:52:40.000Z</time>
      </trkpt>
      <trkpt lat="44.74059" lon="5.08618">
        <ele>451</ele>
        <time>1970-01-01T02:52:41.000Z</time>
      </trkpt>
      <trkpt lat="44.74054" lon="5.08616">
        <ele>451</ele>
        <time>1970-01-01T02:52:42.000Z</time>
      </trkpt>
      <trkpt lat="44.74049" lon="5.08615">
        <ele>451.2</ele>
        <time>1970-01-01T02:52:43.000Z</time>
      </trkpt>
      <trkpt lat="44.74044" lon="5.08614">
        <ele>451.4</ele>
        <time>1970-01-01T02:52:44.000Z</time>
      </trkpt>
      <trkpt lat="44.7404" lon="5.08613">
        <ele>452.2</ele>
        <time>1970-01-01T02:52:45.000Z</time>
      </trkpt>
      <trkpt lat="44.74036" lon="5.08612">
        <ele>452.6</ele>
        <time>1970-01-01T02:52:46.000Z</time>
      </trkpt>
      <trkpt lat="44.74033" lon="5.08613">
        <ele>453</ele>
        <time>1970-01-01T02:52:47.000Z</time>
      </trkpt>
      <trkpt lat="44.7403" lon="5.08615">
        <ele>453</ele>
        <time>1970-01-01T02:52:48.000Z</time>
      </trkpt>
      <trkpt lat="44.74027" lon="5.08619">
        <ele>453</ele>
        <time>1970-01-01T02:52:49.000Z</time>
      </trkpt>
      <trkpt lat="44.74023" lon="5.08622">
        <ele>452.4</ele>
        <time>1970-01-01T02:52:50.000Z</time>
      </trkpt>
      <trkpt lat="44.74014" lon="5.08629">
        <ele>449.4</ele>
        <time>1970-01-01T02:52:52.000Z</time>
      </trkpt>
      <trkpt lat="44.7401" lon="5.08634">
        <ele>448.2</ele>
        <time>1970-01-01T02:52:53.000Z</time>
      </trkpt>
      <trkpt lat="44.74005" lon="5.0864">
        <ele>447.2</ele>
        <time>1970-01-01T02:52:54.000Z</time>
      </trkpt>
      <trkpt lat="44.74" lon="5.08644">
        <ele>446.4</ele>
        <time>1970-01-01T02:52:55.000Z</time>
      </trkpt>
      <trkpt lat="44.73995" lon="5.08648">
        <ele>445.4</ele>
        <time>1970-01-01T02:52:56.000Z</time>
      </trkpt>
      <trkpt lat="44.73989" lon="5.08652">
        <ele>444.8</ele>
        <time>1970-01-01T02:52:57.000Z</time>
      </trkpt>
      <trkpt lat="44.73976" lon="5.08657">
        <ele>443.6</ele>
        <time>1970-01-01T02:52:59.000Z</time>
      </trkpt>
      <trkpt lat="44.7397" lon="5.08659">
        <ele>443.2</ele>
        <time>1970-01-01T02:53:00.000Z</time>
      </trkpt>
      <trkpt lat="44.73964" lon="5.08662">
        <ele>442.4</ele>
        <time>1970-01-01T02:53:01.000Z</time>
      </trkpt>
      <trkpt lat="44.73951" lon="5.08668">
        <ele>441.4</ele>
        <time>1970-01-01T02:53:03.000Z</time>
      </trkpt>
      <trkpt lat="44.73946" lon="5.0867">
        <ele>440.8</ele>
        <time>1970-01-01T02:53:04.000Z</time>
      </trkpt>
      <trkpt lat="44.73939" lon="5.08673">
        <ele>440.4</ele>
        <time>1970-01-01T02:53:05.000Z</time>
      </trkpt>
      <trkpt lat="44.73933" lon="5.08674">
        <ele>439.6</ele>
        <time>1970-01-01T02:53:06.000Z</time>
      </trkpt>
      <trkpt lat="44.7392" lon="5.08675">
        <ele>438.6</ele>
        <time>1970-01-01T02:53:08.000Z</time>
      </trkpt>
      <trkpt lat="44.73914" lon="5.08677">
        <ele>438</ele>
        <time>1970-01-01T02:53:09.000Z</time>
      </trkpt>
      <trkpt lat="44.73907" lon="5.08679">
        <ele>437.6</ele>
        <time>1970-01-01T02:53:10.000Z</time>
      </trkpt>
      <trkpt lat="44.73901" lon="5.08682">
        <ele>437.2</ele>
        <time>1970-01-01T02:53:11.000Z</time>
      </trkpt>
      <trkpt lat="44.73895" lon="5.08684">
        <ele>437.2</ele>
        <time>1970-01-01T02:53:12.000Z</time>
      </trkpt>
      <trkpt lat="44.73882" lon="5.08689">
        <ele>437</ele>
        <time>1970-01-01T02:53:14.000Z</time>
      </trkpt>
      <trkpt lat="44.73876" lon="5.0869">
        <ele>437</ele>
        <time>1970-01-01T02:53:15.000Z</time>
      </trkpt>
      <trkpt lat="44.73871" lon="5.08694">
        <ele>436.8</ele>
        <time>1970-01-01T02:53:16.000Z</time>
      </trkpt>
      <trkpt lat="44.73866" lon="5.08697">
        <ele>436.4</ele>
        <time>1970-01-01T02:53:17.000Z</time>
      </trkpt>
      <trkpt lat="44.73843" lon="5.08701">
        <ele>435.6</ele>
        <time>1970-01-01T02:53:21.000Z</time>
      </trkpt>
      <trkpt lat="44.73836" lon="5.087">
        <ele>434.2</ele>
        <time>1970-01-01T02:53:22.000Z</time>
      </trkpt>
      <trkpt lat="44.73831" lon="5.087">
        <ele>433.4</ele>
        <time>1970-01-01T02:53:23.000Z</time>
      </trkpt>
      <trkpt lat="44.73825" lon="5.08699">
        <ele>433</ele>
        <time>1970-01-01T02:53:24.000Z</time>
      </trkpt>
      <trkpt lat="44.73819" lon="5.08699">
        <ele>432.6</ele>
        <time>1970-01-01T02:53:25.000Z</time>
      </trkpt>
      <trkpt lat="44.73813" lon="5.08698">
        <ele>432.2</ele>
        <time>1970-01-01T02:53:26.000Z</time>
      </trkpt>
      <trkpt lat="44.73809" lon="5.08698">
        <ele>431.8</ele>
        <time>1970-01-01T02:53:27.000Z</time>
      </trkpt>
      <trkpt lat="44.73803" lon="5.08698">
        <ele>431.6</ele>
        <time>1970-01-01T02:53:28.000Z</time>
      </trkpt>
      <trkpt lat="44.73798" lon="5.08697">
        <ele>431.2</ele>
        <time>1970-01-01T02:53:29.000Z</time>
      </trkpt>
      <trkpt lat="44.73785" lon="5.08697">
        <ele>428.6</ele>
        <time>1970-01-01T02:53:31.000Z</time>
      </trkpt>
      <trkpt lat="44.73778" lon="5.08699">
        <ele>426.4</ele>
        <time>1970-01-01T02:53:32.000Z</time>
      </trkpt>
      <trkpt lat="44.73771" lon="5.08699">
        <ele>425.2</ele>
        <time>1970-01-01T02:53:33.000Z</time>
      </trkpt>
      <trkpt lat="44.73765" lon="5.08698">
        <ele>424.6</ele>
        <time>1970-01-01T02:53:34.000Z</time>
      </trkpt>
      <trkpt lat="44.73755" lon="5.08699">
        <ele>424.2</ele>
        <time>1970-01-01T02:53:36.000Z</time>
      </trkpt>
      <trkpt lat="44.73742" lon="5.087">
        <ele>424</ele>
        <time>1970-01-01T02:53:38.000Z</time>
      </trkpt>
      <trkpt lat="44.73735" lon="5.087">
        <ele>424</ele>
        <time>1970-01-01T02:53:39.000Z</time>
      </trkpt>
      <trkpt lat="44.7373" lon="5.08701">
        <ele>424.2</ele>
        <time>1970-01-01T02:53:40.000Z</time>
      </trkpt>
      <trkpt lat="44.73725" lon="5.08703">
        <ele>424.4</ele>
        <time>1970-01-01T02:53:41.000Z</time>
      </trkpt>
      <trkpt lat="44.73711" lon="5.08704">
        <ele>424.2</ele>
        <time>1970-01-01T02:53:44.000Z</time>
      </trkpt>
      <trkpt lat="44.73706" lon="5.08703">
        <ele>424.2</ele>
        <time>1970-01-01T02:53:45.000Z</time>
      </trkpt>
      <trkpt lat="44.73701" lon="5.08702">
        <ele>424.2</ele>
        <time>1970-01-01T02:53:46.000Z</time>
      </trkpt>
      <trkpt lat="44.73679" lon="5.08703">
        <ele>424.8</ele>
        <time>1970-01-01T02:53:50.000Z</time>
      </trkpt>
      <trkpt lat="44.73673" lon="5.08703">
        <ele>425</ele>
        <time>1970-01-01T02:53:51.000Z</time>
      </trkpt>
      <trkpt lat="44.73667" lon="5.08703">
        <ele>425</ele>
        <time>1970-01-01T02:53:52.000Z</time>
      </trkpt>
      <trkpt lat="44.73662" lon="5.08703">
        <ele>425</ele>
        <time>1970-01-01T02:53:53.000Z</time>
      </trkpt>
      <trkpt lat="44.73657" lon="5.08704">
        <ele>425</ele>
        <time>1970-01-01T02:53:54.000Z</time>
      </trkpt>
      <trkpt lat="44.73652" lon="5.08704">
        <ele>425.2</ele>
        <time>1970-01-01T02:53:55.000Z</time>
      </trkpt>
      <trkpt lat="44.73649" lon="5.08704">
        <ele>425.4</ele>
        <time>1970-01-01T02:53:56.000Z</time>
      </trkpt>
      <trkpt lat="44.73645" lon="5.08705">
        <ele>425.8</ele>
        <time>1970-01-01T02:53:57.000Z</time>
      </trkpt>
      <trkpt lat="44.73642" lon="5.08705">
        <ele>426.4</ele>
        <time>1970-01-01T02:53:58.000Z</time>
      </trkpt>
      <trkpt lat="44.73639" lon="5.08705">
        <ele>426.6</ele>
        <time>1970-01-01T02:53:59.000Z</time>
      </trkpt>
      <trkpt lat="44.73636" lon="5.08705">
        <ele>427</ele>
        <time>1970-01-01T02:54:00.000Z</time>
      </trkpt>
      <trkpt lat="44.73634" lon="5.08705">
        <ele>427.4</ele>
        <time>1970-01-01T02:54:01.000Z</time>
      </trkpt>
      <trkpt lat="44.73632" lon="5.08705">
        <ele>427.8</ele>
        <time>1970-01-01T02:54:02.000Z</time>
      </trkpt>
      <trkpt lat="44.7363" lon="5.08706">
        <ele>428</ele>
        <time>1970-01-01T02:54:03.000Z</time>
      </trkpt>
      <trkpt lat="44.73628" lon="5.08706">
        <ele>428.8</ele>
        <time>1970-01-01T02:54:04.000Z</time>
      </trkpt>
      <trkpt lat="44.73627" lon="5.08707">
        <ele>429.2</ele>
        <time>1970-01-01T02:54:05.000Z</time>
      </trkpt>
      <trkpt lat="44.73626" lon="5.08707">
        <ele>429.8</ele>
        <time>1970-01-01T02:54:06.000Z</time>
      </trkpt>
      <trkpt lat="44.73624" lon="5.08708">
        <ele>430.2</ele>
        <time>1970-01-01T02:54:07.000Z</time>
      </trkpt>
      <trkpt lat="44.73622" lon="5.08708">
        <ele>430.4</ele>
        <time>1970-01-01T02:54:08.000Z</time>
      </trkpt>
      <trkpt lat="44.73621" lon="5.08709">
        <ele>430.8</ele>
        <time>1970-01-01T02:54:09.000Z</time>
      </trkpt>
      <trkpt lat="44.73619" lon="5.08709">
        <ele>431.6</ele>
        <time>1970-01-01T02:54:10.000Z</time>
      </trkpt>
      <trkpt lat="44.73616" lon="5.08709">
        <ele>432.2</ele>
        <time>1970-01-01T02:54:11.000Z</time>
      </trkpt>
      <trkpt lat="44.73614" lon="5.08709">
        <ele>432.6</ele>
        <time>1970-01-01T02:54:12.000Z</time>
      </trkpt>
      <trkpt lat="44.73612" lon="5.08709">
        <ele>433.2</ele>
        <time>1970-01-01T02:54:13.000Z</time>
      </trkpt>
      <trkpt lat="44.7361" lon="5.0871">
        <ele>433.8</ele>
        <time>1970-01-01T02:54:14.000Z</time>
      </trkpt>
      <trkpt lat="44.73608" lon="5.08711">
        <ele>434.4</ele>
        <time>1970-01-01T02:54:15.000Z</time>
      </trkpt>
      <trkpt lat="44.73607" lon="5.08711">
        <ele>435</ele>
        <time>1970-01-01T02:54:16.000Z</time>
      </trkpt>
      <trkpt lat="44.73604" lon="5.0871">
        <ele>435.4</ele>
        <time>1970-01-01T02:54:17.000Z</time>
      </trkpt>
      <trkpt lat="44.73603" lon="5.08709">
        <ele>436</ele>
        <time>1970-01-01T02:54:18.000Z</time>
      </trkpt>
      <trkpt lat="44.73601" lon="5.08709">
        <ele>436.4</ele>
        <time>1970-01-01T02:54:19.000Z</time>
      </trkpt>
      <trkpt lat="44.736" lon="5.08709">
        <ele>436.8</ele>
        <time>1970-01-01T02:54:20.000Z</time>
      </trkpt>
      <trkpt lat="44.73597" lon="5.08709">
        <ele>436.8</ele>
        <time>1970-01-01T02:54:21.000Z</time>
      </trkpt>
      <trkpt lat="44.73596" lon="5.0871">
        <ele>437.4</ele>
        <time>1970-01-01T02:54:22.000Z</time>
      </trkpt>
      <trkpt lat="44.73594" lon="5.08711">
        <ele>437.8</ele>
        <time>1970-01-01T02:54:23.000Z</time>
      </trkpt>
      <trkpt lat="44.73591" lon="5.08711">
        <ele>439</ele>
        <time>1970-01-01T02:54:24.000Z</time>
      </trkpt>
      <trkpt lat="44.73588" lon="5.08711">
        <ele>439.6</ele>
        <time>1970-01-01T02:54:25.000Z</time>
      </trkpt>
      <trkpt lat="44.73585" lon="5.08711">
        <ele>439.8</ele>
        <time>1970-01-01T02:54:26.000Z</time>
      </trkpt>
      <trkpt lat="44.73582" lon="5.0871">
        <ele>440</ele>
        <time>1970-01-01T02:54:27.000Z</time>
      </trkpt>
      <trkpt lat="44.73579" lon="5.08711">
        <ele>440</ele>
        <time>1970-01-01T02:54:28.000Z</time>
      </trkpt>
      <trkpt lat="44.73576" lon="5.08711">
        <ele>440.2</ele>
        <time>1970-01-01T02:54:29.000Z</time>
      </trkpt>
      <trkpt lat="44.73573" lon="5.08711">
        <ele>440.2</ele>
        <time>1970-01-01T02:54:30.000Z</time>
      </trkpt>
      <trkpt lat="44.7357" lon="5.08711">
        <ele>440.2</ele>
        <time>1970-01-01T02:54:31.000Z</time>
      </trkpt>
      <trkpt lat="44.73566" lon="5.08711">
        <ele>440.4</ele>
        <time>1970-01-01T02:54:32.000Z</time>
      </trkpt>
      <trkpt lat="44.73562" lon="5.0871">
        <ele>440.6</ele>
        <time>1970-01-01T02:54:33.000Z</time>
      </trkpt>
      <trkpt lat="44.73559" lon="5.08711">
        <ele>440.6</ele>
        <time>1970-01-01T02:54:34.000Z</time>
      </trkpt>
      <trkpt lat="44.73557" lon="5.08711">
        <ele>440.8</ele>
        <time>1970-01-01T02:54:35.000Z</time>
      </trkpt>
      <trkpt lat="44.73555" lon="5.08711">
        <ele>440.8</ele>
        <time>1970-01-01T02:54:36.000Z</time>
      </trkpt>
      <trkpt lat="44.73552" lon="5.08711">
        <ele>441.2</ele>
        <time>1970-01-01T02:54:37.000Z</time>
      </trkpt>
      <trkpt lat="44.73549" lon="5.08711">
        <ele>441.4</ele>
        <time>1970-01-01T02:54:38.000Z</time>
      </trkpt>
      <trkpt lat="44.73547" lon="5.08711">
        <ele>441.4</ele>
        <time>1970-01-01T02:54:39.000Z</time>
      </trkpt>
      <trkpt lat="44.73544" lon="5.0871">
        <ele>441.4</ele>
        <time>1970-01-01T02:54:40.000Z</time>
      </trkpt>
      <trkpt lat="44.73542" lon="5.0871">
        <ele>441.6</ele>
        <time>1970-01-01T02:54:41.000Z</time>
      </trkpt>
      <trkpt lat="44.7354" lon="5.0871">
        <ele>442</ele>
        <time>1970-01-01T02:54:42.000Z</time>
      </trkpt>
      <trkpt lat="44.73537" lon="5.08711">
        <ele>442.2</ele>
        <time>1970-01-01T02:54:43.000Z</time>
      </trkpt>
      <trkpt lat="44.73535" lon="5.08711">
        <ele>442.4</ele>
        <time>1970-01-01T02:54:44.000Z</time>
      </trkpt>
      <trkpt lat="44.73532" lon="5.08711">
        <ele>442.4</ele>
        <time>1970-01-01T02:54:45.000Z</time>
      </trkpt>
      <trkpt lat="44.7353" lon="5.0871">
        <ele>442.4</ele>
        <time>1970-01-01T02:54:46.000Z</time>
      </trkpt>
      <trkpt lat="44.73527" lon="5.08709">
        <ele>442.6</ele>
        <time>1970-01-01T02:54:47.000Z</time>
      </trkpt>
      <trkpt lat="44.73524" lon="5.08708">
        <ele>442.6</ele>
        <time>1970-01-01T02:54:48.000Z</time>
      </trkpt>
      <trkpt lat="44.73521" lon="5.08708">
        <ele>442.8</ele>
        <time>1970-01-01T02:54:49.000Z</time>
      </trkpt>
      <trkpt lat="44.73518" lon="5.08708">
        <ele>443</ele>
        <time>1970-01-01T02:54:50.000Z</time>
      </trkpt>
      <trkpt lat="44.73515" lon="5.08708">
        <ele>443</ele>
        <time>1970-01-01T02:54:51.000Z</time>
      </trkpt>
      <trkpt lat="44.73512" lon="5.08707">
        <ele>443.2</ele>
        <time>1970-01-01T02:54:52.000Z</time>
      </trkpt>
      <trkpt lat="44.7351" lon="5.08707">
        <ele>443.2</ele>
        <time>1970-01-01T02:54:53.000Z</time>
      </trkpt>
      <trkpt lat="44.73507" lon="5.08706">
        <ele>443.4</ele>
        <time>1970-01-01T02:54:54.000Z</time>
      </trkpt>
      <trkpt lat="44.73504" lon="5.08706">
        <ele>443.4</ele>
        <time>1970-01-01T02:54:55.000Z</time>
      </trkpt>
      <trkpt lat="44.735" lon="5.08706">
        <ele>443.4</ele>
        <time>1970-01-01T02:54:56.000Z</time>
      </trkpt>
      <trkpt lat="44.73498" lon="5.08706">
        <ele>443.6</ele>
        <time>1970-01-01T02:54:57.000Z</time>
      </trkpt>
      <trkpt lat="44.73495" lon="5.08706">
        <ele>443.4</ele>
        <time>1970-01-01T02:54:58.000Z</time>
      </trkpt>
      <trkpt lat="44.73492" lon="5.08706">
        <ele>443.4</ele>
        <time>1970-01-01T02:54:59.000Z</time>
      </trkpt>
      <trkpt lat="44.73489" lon="5.08706">
        <ele>443.4</ele>
        <time>1970-01-01T02:55:00.000Z</time>
      </trkpt>
      <trkpt lat="44.73486" lon="5.08705">
        <ele>443.4</ele>
        <time>1970-01-01T02:55:01.000Z</time>
      </trkpt>
      <trkpt lat="44.73483" lon="5.08704">
        <ele>443.4</ele>
        <time>1970-01-01T02:55:02.000Z</time>
      </trkpt>
      <trkpt lat="44.7348" lon="5.08702">
        <ele>443.4</ele>
        <time>1970-01-01T02:55:03.000Z</time>
      </trkpt>
      <trkpt lat="44.73476" lon="5.08701">
        <ele>443.4</ele>
        <time>1970-01-01T02:55:04.000Z</time>
      </trkpt>
      <trkpt lat="44.73472" lon="5.087">
        <ele>443.2</ele>
        <time>1970-01-01T02:55:05.000Z</time>
      </trkpt>
      <trkpt lat="44.73469" lon="5.087">
        <ele>443.2</ele>
        <time>1970-01-01T02:55:06.000Z</time>
      </trkpt>
      <trkpt lat="44.73466" lon="5.08699">
        <ele>443.4</ele>
        <time>1970-01-01T02:55:07.000Z</time>
      </trkpt>
      <trkpt lat="44.73463" lon="5.08699">
        <ele>443.2</ele>
        <time>1970-01-01T02:55:08.000Z</time>
      </trkpt>
      <trkpt lat="44.73456" lon="5.08696">
        <ele>443.2</ele>
        <time>1970-01-01T02:55:11.000Z</time>
      </trkpt>
      <trkpt lat="44.73453" lon="5.08697">
        <ele>443.2</ele>
        <time>1970-01-01T02:55:12.000Z</time>
      </trkpt>
      <trkpt lat="44.73444" lon="5.08695">
        <ele>443.2</ele>
        <time>1970-01-01T02:55:14.000Z</time>
      </trkpt>
      <trkpt lat="44.73438" lon="5.08692">
        <ele>443</ele>
        <time>1970-01-01T02:55:16.000Z</time>
      </trkpt>
      <trkpt lat="44.73435" lon="5.08692">
        <ele>442.8</ele>
        <time>1970-01-01T02:55:17.000Z</time>
      </trkpt>
      <trkpt lat="44.73428" lon="5.0869">
        <ele>442.4</ele>
        <time>1970-01-01T02:55:19.000Z</time>
      </trkpt>
      <trkpt lat="44.73419" lon="5.0869">
        <ele>441.6</ele>
        <time>1970-01-01T02:55:21.000Z</time>
      </trkpt>
      <trkpt lat="44.73414" lon="5.0869">
        <ele>441.2</ele>
        <time>1970-01-01T02:55:22.000Z</time>
      </trkpt>
      <trkpt lat="44.73409" lon="5.08689">
        <ele>440.6</ele>
        <time>1970-01-01T02:55:23.000Z</time>
      </trkpt>
      <trkpt lat="44.73404" lon="5.08689">
        <ele>440.2</ele>
        <time>1970-01-01T02:55:24.000Z</time>
      </trkpt>
      <trkpt lat="44.73393" lon="5.08686">
        <ele>439.4</ele>
        <time>1970-01-01T02:55:26.000Z</time>
      </trkpt>
      <trkpt lat="44.73388" lon="5.08686">
        <ele>439.6</ele>
        <time>1970-01-01T02:55:27.000Z</time>
      </trkpt>
      <trkpt lat="44.73378" lon="5.08684">
        <ele>439</ele>
        <time>1970-01-01T02:55:29.000Z</time>
      </trkpt>
      <trkpt lat="44.73373" lon="5.08682">
        <ele>438.8</ele>
        <time>1970-01-01T02:55:30.000Z</time>
      </trkpt>
      <trkpt lat="44.73368" lon="5.08681">
        <ele>438.6</ele>
        <time>1970-01-01T02:55:31.000Z</time>
      </trkpt>
      <trkpt lat="44.73353" lon="5.08679">
        <ele>438</ele>
        <time>1970-01-01T02:55:34.000Z</time>
      </trkpt>
      <trkpt lat="44.73347" lon="5.08678">
        <ele>437.8</ele>
        <time>1970-01-01T02:55:35.000Z</time>
      </trkpt>
      <trkpt lat="44.73341" lon="5.08676">
        <ele>437.2</ele>
        <time>1970-01-01T02:55:36.000Z</time>
      </trkpt>
      <trkpt lat="44.73335" lon="5.08674">
        <ele>436.2</ele>
        <time>1970-01-01T02:55:37.000Z</time>
      </trkpt>
      <trkpt lat="44.73322" lon="5.08669">
        <ele>434.4</ele>
        <time>1970-01-01T02:55:39.000Z</time>
      </trkpt>
      <trkpt lat="44.73315" lon="5.08666">
        <ele>433.4</ele>
        <time>1970-01-01T02:55:40.000Z</time>
      </trkpt>
      <trkpt lat="44.73308" lon="5.08664">
        <ele>432.4</ele>
        <time>1970-01-01T02:55:41.000Z</time>
      </trkpt>
      <trkpt lat="44.73301" lon="5.08662">
        <ele>431.2</ele>
        <time>1970-01-01T02:55:42.000Z</time>
      </trkpt>
      <trkpt lat="44.73294" lon="5.0866">
        <ele>430</ele>
        <time>1970-01-01T02:55:43.000Z</time>
      </trkpt>
      <trkpt lat="44.73287" lon="5.08658">
        <ele>429.4</ele>
        <time>1970-01-01T02:55:44.000Z</time>
      </trkpt>
      <trkpt lat="44.73281" lon="5.08656">
        <ele>429</ele>
        <time>1970-01-01T02:55:45.000Z</time>
      </trkpt>
      <trkpt lat="44.73274" lon="5.08655">
        <ele>428.4</ele>
        <time>1970-01-01T02:55:46.000Z</time>
      </trkpt>
      <trkpt lat="44.73245" lon="5.08647">
        <ele>427</ele>
        <time>1970-01-01T02:55:50.000Z</time>
      </trkpt>
      <trkpt lat="44.73238" lon="5.08646">
        <ele>426.6</ele>
        <time>1970-01-01T02:55:51.000Z</time>
      </trkpt>
      <trkpt lat="44.73223" lon="5.08643">
        <ele>425.4</ele>
        <time>1970-01-01T02:55:53.000Z</time>
      </trkpt>
      <trkpt lat="44.73216" lon="5.08643">
        <ele>424.8</ele>
        <time>1970-01-01T02:55:54.000Z</time>
      </trkpt>
      <trkpt lat="44.73207" lon="5.08643">
        <ele>424.4</ele>
        <time>1970-01-01T02:55:55.000Z</time>
      </trkpt>
      <trkpt lat="44.732" lon="5.08642">
        <ele>424</ele>
        <time>1970-01-01T02:55:56.000Z</time>
      </trkpt>
      <trkpt lat="44.73193" lon="5.08642">
        <ele>423.6</ele>
        <time>1970-01-01T02:55:57.000Z</time>
      </trkpt>
      <trkpt lat="44.73187" lon="5.08641">
        <ele>423.4</ele>
        <time>1970-01-01T02:55:58.000Z</time>
      </trkpt>
      <trkpt lat="44.73176" lon="5.08635">
        <ele>423.2</ele>
        <time>1970-01-01T02:56:00.000Z</time>
      </trkpt>
      <trkpt lat="44.73171" lon="5.08632">
        <ele>423.2</ele>
        <time>1970-01-01T02:56:01.000Z</time>
      </trkpt>
      <trkpt lat="44.73166" lon="5.08632">
        <ele>423.4</ele>
        <time>1970-01-01T02:56:02.000Z</time>
      </trkpt>
      <trkpt lat="44.73164" lon="5.08634">
        <ele>423.2</ele>
        <time>1970-01-01T02:56:03.000Z</time>
      </trkpt>
      <trkpt lat="44.73159" lon="5.08644">
        <ele>423.2</ele>
        <time>1970-01-01T02:56:05.000Z</time>
      </trkpt>
      <trkpt lat="44.73155" lon="5.08649">
        <ele>422.6</ele>
        <time>1970-01-01T02:56:06.000Z</time>
      </trkpt>
      <trkpt lat="44.73152" lon="5.08652">
        <ele>422</ele>
        <time>1970-01-01T02:56:07.000Z</time>
      </trkpt>
      <trkpt lat="44.7315" lon="5.08655">
        <ele>421.6</ele>
        <time>1970-01-01T02:56:08.000Z</time>
      </trkpt>
      <trkpt lat="44.73149" lon="5.08656">
        <ele>421.2</ele>
        <time>1970-01-01T02:56:09.000Z</time>
      </trkpt>
      <trkpt lat="44.73148" lon="5.08656">
        <ele>421</ele>
        <time>1970-01-01T02:56:10.000Z</time>
      </trkpt>
      <trkpt lat="44.73146" lon="5.08656">
        <ele>420</ele>
        <time>1970-01-01T02:57:55.000Z</time>
      </trkpt>
      <trkpt lat="44.73143" lon="5.08656">
        <ele>420</ele>
        <time>1970-01-01T02:57:56.000Z</time>
      </trkpt>
      <trkpt lat="44.73139" lon="5.08654">
        <ele>420</ele>
        <time>1970-01-01T02:57:57.000Z</time>
      </trkpt>
      <trkpt lat="44.73135" lon="5.08653">
        <ele>415.8</ele>
        <time>1970-01-01T02:57:58.000Z</time>
      </trkpt>
      <trkpt lat="44.73127" lon="5.08653">
        <ele>415.8</ele>
        <time>1970-01-01T02:58:00.000Z</time>
      </trkpt>
      <trkpt lat="44.73117" lon="5.08651">
        <ele>414.6</ele>
        <time>1970-01-01T02:58:02.000Z</time>
      </trkpt>
      <trkpt lat="44.73104" lon="5.0865">
        <ele>413.2</ele>
        <time>1970-01-01T02:58:04.000Z</time>
      </trkpt>
      <trkpt lat="44.73099" lon="5.08648">
        <ele>411.4</ele>
        <time>1970-01-01T02:58:05.000Z</time>
      </trkpt>
      <trkpt lat="44.73093" lon="5.08644">
        <ele>410.2</ele>
        <time>1970-01-01T02:58:06.000Z</time>
      </trkpt>
      <trkpt lat="44.7309" lon="5.08641">
        <ele>409.6</ele>
        <time>1970-01-01T02:58:07.000Z</time>
      </trkpt>
      <trkpt lat="44.73084" lon="5.0864">
        <ele>409</ele>
        <time>1970-01-01T02:58:08.000Z</time>
      </trkpt>
      <trkpt lat="44.73071" lon="5.08636">
        <ele>407</ele>
        <time>1970-01-01T02:58:10.000Z</time>
      </trkpt>
      <trkpt lat="44.73064" lon="5.08633">
        <ele>406.2</ele>
        <time>1970-01-01T02:58:11.000Z</time>
      </trkpt>
      <trkpt lat="44.73057" lon="5.08629">
        <ele>405.8</ele>
        <time>1970-01-01T02:58:12.000Z</time>
      </trkpt>
      <trkpt lat="44.73051" lon="5.08627">
        <ele>405.2</ele>
        <time>1970-01-01T02:58:13.000Z</time>
      </trkpt>
      <trkpt lat="44.73046" lon="5.08625">
        <ele>404.2</ele>
        <time>1970-01-01T02:58:14.000Z</time>
      </trkpt>
      <trkpt lat="44.73024" lon="5.08617">
        <ele>403</ele>
        <time>1970-01-01T02:58:17.000Z</time>
      </trkpt>
      <trkpt lat="44.73018" lon="5.08614">
        <ele>402.8</ele>
        <time>1970-01-01T02:58:18.000Z</time>
      </trkpt>
      <trkpt lat="44.73011" lon="5.0861">
        <ele>402.4</ele>
        <time>1970-01-01T02:58:19.000Z</time>
      </trkpt>
      <trkpt lat="44.73005" lon="5.08607">
        <ele>401.8</ele>
        <time>1970-01-01T02:58:20.000Z</time>
      </trkpt>
      <trkpt lat="44.72999" lon="5.08603">
        <ele>401</ele>
        <time>1970-01-01T02:58:21.000Z</time>
      </trkpt>
      <trkpt lat="44.72993" lon="5.08599">
        <ele>400.4</ele>
        <time>1970-01-01T02:58:22.000Z</time>
      </trkpt>
      <trkpt lat="44.72986" lon="5.08596">
        <ele>400</ele>
        <time>1970-01-01T02:58:23.000Z</time>
      </trkpt>
      <trkpt lat="44.7298" lon="5.08594">
        <ele>399.8</ele>
        <time>1970-01-01T02:58:24.000Z</time>
      </trkpt>
      <trkpt lat="44.72976" lon="5.08593">
        <ele>399.8</ele>
        <time>1970-01-01T02:58:25.000Z</time>
      </trkpt>
      <trkpt lat="44.7297" lon="5.08591">
        <ele>399.6</ele>
        <time>1970-01-01T02:58:26.000Z</time>
      </trkpt>
      <trkpt lat="44.72966" lon="5.08588">
        <ele>399.8</ele>
        <time>1970-01-01T02:58:27.000Z</time>
      </trkpt>
      <trkpt lat="44.72964" lon="5.08585">
        <ele>399.8</ele>
        <time>1970-01-01T02:58:28.000Z</time>
      </trkpt>
      <trkpt lat="44.72963" lon="5.08583">
        <ele>400</ele>
        <time>1970-01-01T02:58:29.000Z</time>
      </trkpt>
      <trkpt lat="44.72963" lon="5.08582">
        <ele>400.6</ele>
        <time>1970-01-01T02:58:30.000Z</time>
      </trkpt>
      <trkpt lat="44.72963" lon="5.08581">
        <ele>400.8</ele>
        <time>1970-01-01T02:58:31.000Z</time>
      </trkpt>
      <trkpt lat="44.72962" lon="5.0858">
        <ele>401.2</ele>
        <time>1970-01-01T02:58:32.000Z</time>
      </trkpt>
      <trkpt lat="44.72961" lon="5.0858">
        <ele>401.4</ele>
        <time>1970-01-01T02:58:33.000Z</time>
      </trkpt>
      <trkpt lat="44.72958" lon="5.08578">
        <ele>402</ele>
        <time>1970-01-01T02:58:36.000Z</time>
      </trkpt>
      <trkpt lat="44.72957" lon="5.08577">
        <ele>402.2</ele>
        <time>1970-01-01T02:58:37.000Z</time>
      </trkpt>
      <trkpt lat="44.72954" lon="5.08575">
        <ele>402.2</ele>
        <time>1970-01-01T02:58:39.000Z</time>
      </trkpt>
      <trkpt lat="44.72947" lon="5.08572">
        <ele>402</ele>
        <time>1970-01-01T02:58:41.000Z</time>
      </trkpt>
      <trkpt lat="44.72944" lon="5.08569">
        <ele>401.8</ele>
        <time>1970-01-01T02:58:42.000Z</time>
      </trkpt>
      <trkpt lat="44.72941" lon="5.08566">
        <ele>401.6</ele>
        <time>1970-01-01T02:58:43.000Z</time>
      </trkpt>
      <trkpt lat="44.72939" lon="5.08563">
        <ele>401</ele>
        <time>1970-01-01T02:58:44.000Z</time>
      </trkpt>
      <trkpt lat="44.72933" lon="5.08556">
        <ele>400.4</ele>
        <time>1970-01-01T02:58:46.000Z</time>
      </trkpt>
      <trkpt lat="44.7293" lon="5.08554">
        <ele>399.8</ele>
        <time>1970-01-01T02:58:47.000Z</time>
      </trkpt>
      <trkpt lat="44.72927" lon="5.08551">
        <ele>399.2</ele>
        <time>1970-01-01T02:58:48.000Z</time>
      </trkpt>
      <trkpt lat="44.72924" lon="5.08547">
        <ele>398.6</ele>
        <time>1970-01-01T02:58:49.000Z</time>
      </trkpt>
      <trkpt lat="44.72921" lon="5.08543">
        <ele>397.6</ele>
        <time>1970-01-01T02:58:50.000Z</time>
      </trkpt>
      <trkpt lat="44.72917" lon="5.08539">
        <ele>397.2</ele>
        <time>1970-01-01T02:58:51.000Z</time>
      </trkpt>
      <trkpt lat="44.72907" lon="5.0853">
        <ele>394.8</ele>
        <time>1970-01-01T02:58:53.000Z</time>
      </trkpt>
      <trkpt lat="44.72904" lon="5.08525">
        <ele>393.8</ele>
        <time>1970-01-01T02:58:54.000Z</time>
      </trkpt>
      <trkpt lat="44.72902" lon="5.08523">
        <ele>393.2</ele>
        <time>1970-01-01T02:58:55.000Z</time>
      </trkpt>
      <trkpt lat="44.72899" lon="5.08519">
        <ele>392.2</ele>
        <time>1970-01-01T02:58:56.000Z</time>
      </trkpt>
      <trkpt lat="44.72895" lon="5.08513">
        <ele>391.2</ele>
        <time>1970-01-01T02:58:57.000Z</time>
      </trkpt>
      <trkpt lat="44.7289" lon="5.08503">
        <ele>390</ele>
        <time>1970-01-01T02:58:59.000Z</time>
      </trkpt>
      <trkpt lat="44.72886" lon="5.08496">
        <ele>388.6</ele>
        <time>1970-01-01T02:59:00.000Z</time>
      </trkpt>
      <trkpt lat="44.72883" lon="5.08489">
        <ele>387.2</ele>
        <time>1970-01-01T02:59:01.000Z</time>
      </trkpt>
      <trkpt lat="44.7288" lon="5.08483">
        <ele>386.4</ele>
        <time>1970-01-01T02:59:02.000Z</time>
      </trkpt>
      <trkpt lat="44.72877" lon="5.08478">
        <ele>385.6</ele>
        <time>1970-01-01T02:59:03.000Z</time>
      </trkpt>
      <trkpt lat="44.72874" lon="5.08475">
        <ele>385.2</ele>
        <time>1970-01-01T02:59:04.000Z</time>
      </trkpt>
      <trkpt lat="44.72872" lon="5.08474">
        <ele>385</ele>
        <time>1970-01-01T02:59:05.000Z</time>
      </trkpt>
      <trkpt lat="44.72869" lon="5.08475">
        <ele>384.8</ele>
        <time>1970-01-01T02:59:06.000Z</time>
      </trkpt>
      <trkpt lat="44.72866" lon="5.08476">
        <ele>384.6</ele>
        <time>1970-01-01T02:59:07.000Z</time>
      </trkpt>
      <trkpt lat="44.72863" lon="5.08478">
        <ele>384.4</ele>
        <time>1970-01-01T02:59:08.000Z</time>
      </trkpt>
      <trkpt lat="44.72861" lon="5.0848">
        <ele>384.2</ele>
        <time>1970-01-01T02:59:09.000Z</time>
      </trkpt>
      <trkpt lat="44.72858" lon="5.0848">
        <ele>384</ele>
        <time>1970-01-01T02:59:10.000Z</time>
      </trkpt>
      <trkpt lat="44.72858" lon="5.08477">
        <ele>384</ele>
        <time>1970-01-01T02:59:11.000Z</time>
      </trkpt>
      <trkpt lat="44.72859" lon="5.08473">
        <ele>384</ele>
        <time>1970-01-01T02:59:12.000Z</time>
      </trkpt>
      <trkpt lat="44.72859" lon="5.08464">
        <ele>383.6</ele>
        <time>1970-01-01T02:59:14.000Z</time>
      </trkpt>
      <trkpt lat="44.7286" lon="5.08451">
        <ele>383.4</ele>
        <time>1970-01-01T02:59:16.000Z</time>
      </trkpt>
      <trkpt lat="44.72861" lon="5.08443">
        <ele>382.6</ele>
        <time>1970-01-01T02:59:18.000Z</time>
      </trkpt>
      <trkpt lat="44.7286" lon="5.08439">
        <ele>381.4</ele>
        <time>1970-01-01T02:59:19.000Z</time>
      </trkpt>
      <trkpt lat="44.72857" lon="5.08435">
        <ele>380.6</ele>
        <time>1970-01-01T02:59:20.000Z</time>
      </trkpt>
      <trkpt lat="44.72852" lon="5.0843">
        <ele>380</ele>
        <time>1970-01-01T02:59:21.000Z</time>
      </trkpt>
      <trkpt lat="44.72848" lon="5.08423">
        <ele>379.2</ele>
        <time>1970-01-01T02:59:22.000Z</time>
      </trkpt>
      <trkpt lat="44.72845" lon="5.08415">
        <ele>378.8</ele>
        <time>1970-01-01T02:59:23.000Z</time>
      </trkpt>
      <trkpt lat="44.72841" lon="5.08408">
        <ele>378.4</ele>
        <time>1970-01-01T02:59:24.000Z</time>
      </trkpt>
      <trkpt lat="44.72833" lon="5.08394">
        <ele>377.6</ele>
        <time>1970-01-01T02:59:26.000Z</time>
      </trkpt>
      <trkpt lat="44.72828" lon="5.08387">
        <ele>377.2</ele>
        <time>1970-01-01T02:59:27.000Z</time>
      </trkpt>
      <trkpt lat="44.72822" lon="5.0838">
        <ele>376.6</ele>
        <time>1970-01-01T02:59:28.000Z</time>
      </trkpt>
      <trkpt lat="44.72815" lon="5.08376">
        <ele>376</ele>
        <time>1970-01-01T02:59:29.000Z</time>
      </trkpt>
      <trkpt lat="44.72809" lon="5.08371">
        <ele>375.4</ele>
        <time>1970-01-01T02:59:30.000Z</time>
      </trkpt>
      <trkpt lat="44.72806" lon="5.08363">
        <ele>374.8</ele>
        <time>1970-01-01T02:59:31.000Z</time>
      </trkpt>
      <trkpt lat="44.72803" lon="5.08357">
        <ele>374.4</ele>
        <time>1970-01-01T02:59:32.000Z</time>
      </trkpt>
      <trkpt lat="44.72799" lon="5.0835">
        <ele>373.8</ele>
        <time>1970-01-01T02:59:33.000Z</time>
      </trkpt>
      <trkpt lat="44.72794" lon="5.08344">
        <ele>373.6</ele>
        <time>1970-01-01T02:59:34.000Z</time>
      </trkpt>
      <trkpt lat="44.72788" lon="5.0834">
        <ele>373.2</ele>
        <time>1970-01-01T02:59:35.000Z</time>
      </trkpt>
      <trkpt lat="44.72782" lon="5.08337">
        <ele>373</ele>
        <time>1970-01-01T02:59:36.000Z</time>
      </trkpt>
      <trkpt lat="44.72775" lon="5.08335">
        <ele>372.8</ele>
        <time>1970-01-01T02:59:37.000Z</time>
      </trkpt>
      <trkpt lat="44.72769" lon="5.08333">
        <ele>372.2</ele>
        <time>1970-01-01T02:59:38.000Z</time>
      </trkpt>
      <trkpt lat="44.72762" lon="5.08331">
        <ele>371.6</ele>
        <time>1970-01-01T02:59:39.000Z</time>
      </trkpt>
      <trkpt lat="44.72758" lon="5.08328">
        <ele>371.2</ele>
        <time>1970-01-01T02:59:40.000Z</time>
      </trkpt>
      <trkpt lat="44.72755" lon="5.08327">
        <ele>370.8</ele>
        <time>1970-01-01T02:59:41.000Z</time>
      </trkpt>
      <trkpt lat="44.72754" lon="5.08327">
        <ele>370.4</ele>
        <time>1970-01-01T02:59:43.000Z</time>
      </trkpt>
      <trkpt lat="44.7275" lon="5.08327">
        <ele>370.2</ele>
        <time>1970-01-01T02:59:44.000Z</time>
      </trkpt>
      <trkpt lat="44.72747" lon="5.08327">
        <ele>369.6</ele>
        <time>1970-01-01T03:00:12.000Z</time>
      </trkpt>
      <trkpt lat="44.72743" lon="5.08327">
        <ele>369.4</ele>
        <time>1970-01-01T03:00:13.000Z</time>
      </trkpt>
      <trkpt lat="44.72739" lon="5.08326">
        <ele>369.2</ele>
        <time>1970-01-01T03:00:14.000Z</time>
      </trkpt>
      <trkpt lat="44.7273" lon="5.08326">
        <ele>367.8</ele>
        <time>1970-01-01T03:00:16.000Z</time>
      </trkpt>
      <trkpt lat="44.72725" lon="5.08328">
        <ele>367.4</ele>
        <time>1970-01-01T03:00:17.000Z</time>
      </trkpt>
      <trkpt lat="44.72721" lon="5.0833">
        <ele>367</ele>
        <time>1970-01-01T03:00:18.000Z</time>
      </trkpt>
      <trkpt lat="44.72717" lon="5.08333">
        <ele>366.4</ele>
        <time>1970-01-01T03:00:19.000Z</time>
      </trkpt>
      <trkpt lat="44.72712" lon="5.08338">
        <ele>366</ele>
        <time>1970-01-01T03:00:20.000Z</time>
      </trkpt>
      <trkpt lat="44.72706" lon="5.08344">
        <ele>365.4</ele>
        <time>1970-01-01T03:00:21.000Z</time>
      </trkpt>
      <trkpt lat="44.72702" lon="5.0835">
        <ele>365</ele>
        <time>1970-01-01T03:00:22.000Z</time>
      </trkpt>
      <trkpt lat="44.72697" lon="5.08358">
        <ele>364.6</ele>
        <time>1970-01-01T03:00:23.000Z</time>
      </trkpt>
      <trkpt lat="44.72694" lon="5.08365">
        <ele>363.8</ele>
        <time>1970-01-01T03:00:24.000Z</time>
      </trkpt>
      <trkpt lat="44.72691" lon="5.08374">
        <ele>363.2</ele>
        <time>1970-01-01T03:00:25.000Z</time>
      </trkpt>
      <trkpt lat="44.72689" lon="5.08381">
        <ele>362.8</ele>
        <time>1970-01-01T03:00:26.000Z</time>
      </trkpt>
      <trkpt lat="44.72687" lon="5.08388">
        <ele>362</ele>
        <time>1970-01-01T03:00:27.000Z</time>
      </trkpt>
      <trkpt lat="44.72685" lon="5.08393">
        <ele>361.2</ele>
        <time>1970-01-01T03:00:28.000Z</time>
      </trkpt>
      <trkpt lat="44.72682" lon="5.08396">
        <ele>360.2</ele>
        <time>1970-01-01T03:00:29.000Z</time>
      </trkpt>
      <trkpt lat="44.72678" lon="5.084">
        <ele>359.6</ele>
        <time>1970-01-01T03:00:30.000Z</time>
      </trkpt>
      <trkpt lat="44.72671" lon="5.08407">
        <ele>358.8</ele>
        <time>1970-01-01T03:00:32.000Z</time>
      </trkpt>
      <trkpt lat="44.72669" lon="5.08411">
        <ele>358.4</ele>
        <time>1970-01-01T03:00:33.000Z</time>
      </trkpt>
      <trkpt lat="44.72666" lon="5.08415">
        <ele>358.2</ele>
        <time>1970-01-01T03:00:34.000Z</time>
      </trkpt>
      <trkpt lat="44.72664" lon="5.0842">
        <ele>358</ele>
        <time>1970-01-01T03:00:35.000Z</time>
      </trkpt>
      <trkpt lat="44.72661" lon="5.08425">
        <ele>357.6</ele>
        <time>1970-01-01T03:00:36.000Z</time>
      </trkpt>
      <trkpt lat="44.72656" lon="5.08429">
        <ele>357.8</ele>
        <time>1970-01-01T03:00:37.000Z</time>
      </trkpt>
      <trkpt lat="44.72651" lon="5.08431">
        <ele>357.6</ele>
        <time>1970-01-01T03:00:38.000Z</time>
      </trkpt>
      <trkpt lat="44.72647" lon="5.08433">
        <ele>357.4</ele>
        <time>1970-01-01T03:00:39.000Z</time>
      </trkpt>
      <trkpt lat="44.72643" lon="5.08435">
        <ele>357.4</ele>
        <time>1970-01-01T03:00:40.000Z</time>
      </trkpt>
      <trkpt lat="44.72639" lon="5.08438">
        <ele>357.2</ele>
        <time>1970-01-01T03:00:41.000Z</time>
      </trkpt>
      <trkpt lat="44.72636" lon="5.08443">
        <ele>356.6</ele>
        <time>1970-01-01T03:00:42.000Z</time>
      </trkpt>
      <trkpt lat="44.72633" lon="5.08447">
        <ele>356.2</ele>
        <time>1970-01-01T03:00:43.000Z</time>
      </trkpt>
      <trkpt lat="44.7263" lon="5.0845">
        <ele>355.6</ele>
        <time>1970-01-01T03:00:44.000Z</time>
      </trkpt>
      <trkpt lat="44.72628" lon="5.08451">
        <ele>355.2</ele>
        <time>1970-01-01T03:00:45.000Z</time>
      </trkpt>
      <trkpt lat="44.72625" lon="5.08453">
        <ele>355</ele>
        <time>1970-01-01T03:00:46.000Z</time>
      </trkpt>
      <trkpt lat="44.72623" lon="5.08456">
        <ele>355</ele>
        <time>1970-01-01T03:00:47.000Z</time>
      </trkpt>
      <trkpt lat="44.72622" lon="5.0846">
        <ele>354.8</ele>
        <time>1970-01-01T03:00:48.000Z</time>
      </trkpt>
      <trkpt lat="44.72623" lon="5.08464">
        <ele>355</ele>
        <time>1970-01-01T03:00:49.000Z</time>
      </trkpt>
      <trkpt lat="44.72623" lon="5.08468">
        <ele>355</ele>
        <time>1970-01-01T03:00:50.000Z</time>
      </trkpt>
      <trkpt lat="44.72622" lon="5.0847">
        <ele>355</ele>
        <time>1970-01-01T03:00:51.000Z</time>
      </trkpt>
      <trkpt lat="44.72619" lon="5.08471">
        <ele>355</ele>
        <time>1970-01-01T03:00:52.000Z</time>
      </trkpt>
      <trkpt lat="44.72612" lon="5.08472">
        <ele>354.8</ele>
        <time>1970-01-01T03:00:55.000Z</time>
      </trkpt>
      <trkpt lat="44.72607" lon="5.08475">
        <ele>354.6</ele>
        <time>1970-01-01T03:00:57.000Z</time>
      </trkpt>
      <trkpt lat="44.72604" lon="5.08483">
        <ele>354.4</ele>
        <time>1970-01-01T03:00:59.000Z</time>
      </trkpt>
      <trkpt lat="44.72602" lon="5.08487">
        <ele>354.4</ele>
        <time>1970-01-01T03:01:00.000Z</time>
      </trkpt>
      <trkpt lat="44.72599" lon="5.08489">
        <ele>354.4</ele>
        <time>1970-01-01T03:01:01.000Z</time>
      </trkpt>
      <trkpt lat="44.72595" lon="5.0849">
        <ele>354.4</ele>
        <time>1970-01-01T03:01:02.000Z</time>
      </trkpt>
      <trkpt lat="44.72593" lon="5.08492">
        <ele>354.4</ele>
        <time>1970-01-01T03:01:03.000Z</time>
      </trkpt>
      <trkpt lat="44.72591" lon="5.08495">
        <ele>354.4</ele>
        <time>1970-01-01T03:01:04.000Z</time>
      </trkpt>
      <trkpt lat="44.7259" lon="5.08497">
        <ele>355.2</ele>
        <time>1970-01-01T03:01:05.000Z</time>
      </trkpt>
      <trkpt lat="44.7259" lon="5.08499">
        <ele>355.6</ele>
        <time>1970-01-01T03:01:06.000Z</time>
      </trkpt>
      <trkpt lat="44.7259" lon="5.08503">
        <ele>356</ele>
        <time>1970-01-01T03:01:07.000Z</time>
      </trkpt>
      <trkpt lat="44.7259" lon="5.08507">
        <ele>356.2</ele>
        <time>1970-01-01T03:01:08.000Z</time>
      </trkpt>
      <trkpt lat="44.72588" lon="5.08511">
        <ele>356.6</ele>
        <time>1970-01-01T03:01:09.000Z</time>
      </trkpt>
      <trkpt lat="44.72586" lon="5.08513">
        <ele>357.2</ele>
        <time>1970-01-01T03:01:10.000Z</time>
      </trkpt>
      <trkpt lat="44.72585" lon="5.08513">
        <ele>357.4</ele>
        <time>1970-01-01T03:01:11.000Z</time>
      </trkpt>
      <trkpt lat="44.72584" lon="5.08514">
        <ele>357.8</ele>
        <time>1970-01-01T03:01:12.000Z</time>
      </trkpt>
      <trkpt lat="44.72583" lon="5.08515">
        <ele>358</ele>
        <time>1970-01-01T03:01:13.000Z</time>
      </trkpt>
      <trkpt lat="44.72576" lon="5.08513">
        <ele>358.4</ele>
        <time>1970-01-01T03:01:16.000Z</time>
      </trkpt>
      <trkpt lat="44.72575" lon="5.08512">
        <ele>358.4</ele>
        <time>1970-01-01T03:01:17.000Z</time>
      </trkpt>
      <trkpt lat="44.72573" lon="5.08513">
        <ele>358.4</ele>
        <time>1970-01-01T03:01:18.000Z</time>
      </trkpt>
      <trkpt lat="44.72571" lon="5.08516">
        <ele>358.4</ele>
        <time>1970-01-01T03:01:19.000Z</time>
      </trkpt>
      <trkpt lat="44.7257" lon="5.08518">
        <ele>358.4</ele>
        <time>1970-01-01T03:01:20.000Z</time>
      </trkpt>
      <trkpt lat="44.72567" lon="5.08519">
        <ele>358.4</ele>
        <time>1970-01-01T03:01:21.000Z</time>
      </trkpt>
      <trkpt lat="44.72564" lon="5.08518">
        <ele>358.4</ele>
        <time>1970-01-01T03:01:22.000Z</time>
      </trkpt>
      <trkpt lat="44.72562" lon="5.08518">
        <ele>358.4</ele>
        <time>1970-01-01T03:01:23.000Z</time>
      </trkpt>
      <trkpt lat="44.72558" lon="5.08518">
        <ele>358.4</ele>
        <time>1970-01-01T03:01:24.000Z</time>
      </trkpt>
      <trkpt lat="44.72554" lon="5.08519">
        <ele>358.2</ele>
        <time>1970-01-01T03:01:25.000Z</time>
      </trkpt>
      <trkpt lat="44.72552" lon="5.08522">
        <ele>358</ele>
        <time>1970-01-01T03:01:26.000Z</time>
      </trkpt>
      <trkpt lat="44.7255" lon="5.08526">
        <ele>357.6</ele>
        <time>1970-01-01T03:01:27.000Z</time>
      </trkpt>
      <trkpt lat="44.72547" lon="5.08528">
        <ele>357.2</ele>
        <time>1970-01-01T03:01:28.000Z</time>
      </trkpt>
      <trkpt lat="44.72542" lon="5.0853">
        <ele>356.8</ele>
        <time>1970-01-01T03:01:29.000Z</time>
      </trkpt>
      <trkpt lat="44.72537" lon="5.08531">
        <ele>356.4</ele>
        <time>1970-01-01T03:01:30.000Z</time>
      </trkpt>
      <trkpt lat="44.72533" lon="5.08531">
        <ele>356</ele>
        <time>1970-01-01T03:01:31.000Z</time>
      </trkpt>
      <trkpt lat="44.72531" lon="5.0853">
        <ele>355.8</ele>
        <time>1970-01-01T03:01:32.000Z</time>
      </trkpt>
      <trkpt lat="44.7253" lon="5.08531">
        <ele>355.8</ele>
        <time>1970-01-01T03:01:33.000Z</time>
      </trkpt>
      <trkpt lat="44.72524" lon="5.0854">
        <ele>355.8</ele>
        <time>1970-01-01T03:01:35.000Z</time>
      </trkpt>
      <trkpt lat="44.72521" lon="5.08543">
        <ele>356</ele>
        <time>1970-01-01T03:01:36.000Z</time>
      </trkpt>
      <trkpt lat="44.72516" lon="5.08546">
        <ele>356.2</ele>
        <time>1970-01-01T03:01:37.000Z</time>
      </trkpt>
      <trkpt lat="44.72513" lon="5.08548">
        <ele>356.4</ele>
        <time>1970-01-01T03:01:38.000Z</time>
      </trkpt>
      <trkpt lat="44.7251" lon="5.08549">
        <ele>356.6</ele>
        <time>1970-01-01T03:01:39.000Z</time>
      </trkpt>
      <trkpt lat="44.72508" lon="5.0855">
        <ele>357</ele>
        <time>1970-01-01T03:01:40.000Z</time>
      </trkpt>
      <trkpt lat="44.72506" lon="5.08552">
        <ele>357.2</ele>
        <time>1970-01-01T03:01:41.000Z</time>
      </trkpt>
      <trkpt lat="44.72503" lon="5.08556">
        <ele>357.2</ele>
        <time>1970-01-01T03:01:42.000Z</time>
      </trkpt>
      <trkpt lat="44.72498" lon="5.08559">
        <ele>357.2</ele>
        <time>1970-01-01T03:01:43.000Z</time>
      </trkpt>
      <trkpt lat="44.72489" lon="5.0856">
        <ele>356.2</ele>
        <time>1970-01-01T03:01:45.000Z</time>
      </trkpt>
      <trkpt lat="44.72484" lon="5.08562">
        <ele>356</ele>
        <time>1970-01-01T03:01:46.000Z</time>
      </trkpt>
      <trkpt lat="44.7248" lon="5.08564">
        <ele>356</ele>
        <time>1970-01-01T03:01:47.000Z</time>
      </trkpt>
      <trkpt lat="44.72476" lon="5.08566">
        <ele>355.8</ele>
        <time>1970-01-01T03:01:48.000Z</time>
      </trkpt>
      <trkpt lat="44.72474" lon="5.08569">
        <ele>355.8</ele>
        <time>1970-01-01T03:01:49.000Z</time>
      </trkpt>
      <trkpt lat="44.72473" lon="5.0857">
        <ele>355.8</ele>
        <time>1970-01-01T03:01:51.000Z</time>
      </trkpt>
      <trkpt lat="44.72468" lon="5.08576">
        <ele>355.6</ele>
        <time>1970-01-01T03:02:03.000Z</time>
      </trkpt>
      <trkpt lat="44.72458" lon="5.0859">
        <ele>354.6</ele>
        <time>1970-01-01T03:02:07.000Z</time>
      </trkpt>
      <trkpt lat="44.72453" lon="5.08602">
        <ele>353.4</ele>
        <time>1970-01-01T03:02:09.000Z</time>
      </trkpt>
      <trkpt lat="44.72452" lon="5.08609">
        <ele>353.2</ele>
        <time>1970-01-01T03:02:10.000Z</time>
      </trkpt>
      <trkpt lat="44.72452" lon="5.08612">
        <ele>352.6</ele>
        <time>1970-01-01T03:02:11.000Z</time>
      </trkpt>
      <trkpt lat="44.72452" lon="5.08612">
        <ele>352.4</ele>
        <time>1970-01-01T03:02:12.000Z</time>
      </trkpt>
      <trkpt lat="44.72451" lon="5.08614">
        <ele>352.2</ele>
        <time>1970-01-01T03:02:13.000Z</time>
      </trkpt>
      <trkpt lat="44.7245" lon="5.08617">
        <ele>352</ele>
        <time>1970-01-01T03:02:14.000Z</time>
      </trkpt>
      <trkpt lat="44.72448" lon="5.08629">
        <ele>351.4</ele>
        <time>1970-01-01T03:02:17.000Z</time>
      </trkpt>
      <trkpt lat="44.72447" lon="5.08633">
        <ele>351.2</ele>
        <time>1970-01-01T03:02:18.000Z</time>
      </trkpt>
      <trkpt lat="44.72446" lon="5.08639">
        <ele>350.8</ele>
        <time>1970-01-01T03:02:19.000Z</time>
      </trkpt>
      <trkpt lat="44.72443" lon="5.08653">
        <ele>350.2</ele>
        <time>1970-01-01T03:02:21.000Z</time>
      </trkpt>
      <trkpt lat="44.72442" lon="5.0866">
        <ele>349.8</ele>
        <time>1970-01-01T03:02:22.000Z</time>
      </trkpt>
      <trkpt lat="44.7244" lon="5.08667">
        <ele>349.2</ele>
        <time>1970-01-01T03:02:23.000Z</time>
      </trkpt>
      <trkpt lat="44.72439" lon="5.08674">
        <ele>348.4</ele>
        <time>1970-01-01T03:02:24.000Z</time>
      </trkpt>
      <trkpt lat="44.72435" lon="5.08682">
        <ele>348</ele>
        <time>1970-01-01T03:02:25.000Z</time>
      </trkpt>
      <trkpt lat="44.72427" lon="5.08696">
        <ele>347.2</ele>
        <time>1970-01-01T03:02:27.000Z</time>
      </trkpt>
      <trkpt lat="44.72422" lon="5.08702">
        <ele>347.2</ele>
        <time>1970-01-01T03:02:28.000Z</time>
      </trkpt>
      <trkpt lat="44.72417" lon="5.08707">
        <ele>347.2</ele>
        <time>1970-01-01T03:02:29.000Z</time>
      </trkpt>
      <trkpt lat="44.72411" lon="5.08711">
        <ele>347.4</ele>
        <time>1970-01-01T03:02:30.000Z</time>
      </trkpt>
      <trkpt lat="44.72405" lon="5.08714">
        <ele>347.6</ele>
        <time>1970-01-01T03:02:31.000Z</time>
      </trkpt>
      <trkpt lat="44.724" lon="5.08716">
        <ele>348</ele>
        <time>1970-01-01T03:02:32.000Z</time>
      </trkpt>
      <trkpt lat="44.72396" lon="5.08719">
        <ele>348.6</ele>
        <time>1970-01-01T03:02:33.000Z</time>
      </trkpt>
      <trkpt lat="44.72389" lon="5.08722">
        <ele>349.2</ele>
        <time>1970-01-01T03:02:35.000Z</time>
      </trkpt>
      <trkpt lat="44.72384" lon="5.08722">
        <ele>349.2</ele>
        <time>1970-01-01T03:02:36.000Z</time>
      </trkpt>
      <trkpt lat="44.72378" lon="5.08723">
        <ele>349</ele>
        <time>1970-01-01T03:02:37.000Z</time>
      </trkpt>
      <trkpt lat="44.72371" lon="5.08724">
        <ele>348.4</ele>
        <time>1970-01-01T03:02:38.000Z</time>
      </trkpt>
      <trkpt lat="44.72364" lon="5.08724">
        <ele>346.8</ele>
        <time>1970-01-01T03:02:39.000Z</time>
      </trkpt>
      <trkpt lat="44.72348" lon="5.08724">
        <ele>345.4</ele>
        <time>1970-01-01T03:02:41.000Z</time>
      </trkpt>
      <trkpt lat="44.7234" lon="5.08724">
        <ele>344.8</ele>
        <time>1970-01-01T03:02:42.000Z</time>
      </trkpt>
      <trkpt lat="44.72332" lon="5.08723">
        <ele>344</ele>
        <time>1970-01-01T03:02:43.000Z</time>
      </trkpt>
      <trkpt lat="44.72324" lon="5.08721">
        <ele>343.6</ele>
        <time>1970-01-01T03:02:44.000Z</time>
      </trkpt>
      <trkpt lat="44.72309" lon="5.08719">
        <ele>342.8</ele>
        <time>1970-01-01T03:02:46.000Z</time>
      </trkpt>
      <trkpt lat="44.72301" lon="5.08718">
        <ele>342.4</ele>
        <time>1970-01-01T03:02:47.000Z</time>
      </trkpt>
      <trkpt lat="44.72293" lon="5.08717">
        <ele>341.6</ele>
        <time>1970-01-01T03:02:48.000Z</time>
      </trkpt>
      <trkpt lat="44.72285" lon="5.08716">
        <ele>340.4</ele>
        <time>1970-01-01T03:02:49.000Z</time>
      </trkpt>
      <trkpt lat="44.72277" lon="5.08716">
        <ele>339.4</ele>
        <time>1970-01-01T03:02:50.000Z</time>
      </trkpt>
      <trkpt lat="44.72268" lon="5.08717">
        <ele>338.4</ele>
        <time>1970-01-01T03:02:51.000Z</time>
      </trkpt>
      <trkpt lat="44.72261" lon="5.08717">
        <ele>337.6</ele>
        <time>1970-01-01T03:02:52.000Z</time>
      </trkpt>
      <trkpt lat="44.72253" lon="5.08717">
        <ele>337.2</ele>
        <time>1970-01-01T03:02:53.000Z</time>
      </trkpt>
      <trkpt lat="44.72246" lon="5.08715">
        <ele>337</ele>
        <time>1970-01-01T03:02:54.000Z</time>
      </trkpt>
      <trkpt lat="44.72238" lon="5.08714">
        <ele>336.8</ele>
        <time>1970-01-01T03:02:55.000Z</time>
      </trkpt>
      <trkpt lat="44.72229" lon="5.08713">
        <ele>336.8</ele>
        <time>1970-01-01T03:02:56.000Z</time>
      </trkpt>
      <trkpt lat="44.72222" lon="5.08713">
        <ele>336.8</ele>
        <time>1970-01-01T03:02:57.000Z</time>
      </trkpt>
      <trkpt lat="44.72214" lon="5.08712">
        <ele>336.6</ele>
        <time>1970-01-01T03:02:58.000Z</time>
      </trkpt>
      <trkpt lat="44.72208" lon="5.08711">
        <ele>336.6</ele>
        <time>1970-01-01T03:02:59.000Z</time>
      </trkpt>
      <trkpt lat="44.72201" lon="5.0871">
        <ele>336.4</ele>
        <time>1970-01-01T03:03:00.000Z</time>
      </trkpt>
      <trkpt lat="44.72196" lon="5.08709">
        <ele>336.2</ele>
        <time>1970-01-01T03:03:01.000Z</time>
      </trkpt>
      <trkpt lat="44.7219" lon="5.08709">
        <ele>335.8</ele>
        <time>1970-01-01T03:03:02.000Z</time>
      </trkpt>
      <trkpt lat="44.72177" lon="5.08707">
        <ele>335.8</ele>
        <time>1970-01-01T03:03:04.000Z</time>
      </trkpt>
      <trkpt lat="44.72171" lon="5.08706">
        <ele>335.6</ele>
        <time>1970-01-01T03:03:05.000Z</time>
      </trkpt>
      <trkpt lat="44.72165" lon="5.08704">
        <ele>335.6</ele>
        <time>1970-01-01T03:03:06.000Z</time>
      </trkpt>
      <trkpt lat="44.72158" lon="5.08703">
        <ele>335.6</ele>
        <time>1970-01-01T03:03:07.000Z</time>
      </trkpt>
      <trkpt lat="44.72152" lon="5.08702">
        <ele>335.4</ele>
        <time>1970-01-01T03:03:08.000Z</time>
      </trkpt>
      <trkpt lat="44.72147" lon="5.087">
        <ele>335.4</ele>
        <time>1970-01-01T03:03:09.000Z</time>
      </trkpt>
      <trkpt lat="44.72135" lon="5.087">
        <ele>335.2</ele>
        <time>1970-01-01T03:03:11.000Z</time>
      </trkpt>
      <trkpt lat="44.72122" lon="5.087">
        <ele>335.2</ele>
        <time>1970-01-01T03:03:13.000Z</time>
      </trkpt>
      <trkpt lat="44.72116" lon="5.087">
        <ele>335.2</ele>
        <time>1970-01-01T03:03:14.000Z</time>
      </trkpt>
      <trkpt lat="44.7211" lon="5.087">
        <ele>335.2</ele>
        <time>1970-01-01T03:03:15.000Z</time>
      </trkpt>
      <trkpt lat="44.72104" lon="5.08701">
        <ele>335.2</ele>
        <time>1970-01-01T03:03:16.000Z</time>
      </trkpt>
      <trkpt lat="44.72099" lon="5.08701">
        <ele>335.2</ele>
        <time>1970-01-01T03:03:17.000Z</time>
      </trkpt>
      <trkpt lat="44.72093" lon="5.08701">
        <ele>335.2</ele>
        <time>1970-01-01T03:03:18.000Z</time>
      </trkpt>
      <trkpt lat="44.72087" lon="5.08703">
        <ele>335.2</ele>
        <time>1970-01-01T03:03:19.000Z</time>
      </trkpt>
      <trkpt lat="44.72067" lon="5.08706">
        <ele>335.2</ele>
        <time>1970-01-01T03:03:22.000Z</time>
      </trkpt>
      <trkpt lat="44.72061" lon="5.08705">
        <ele>335.2</ele>
        <time>1970-01-01T03:03:23.000Z</time>
      </trkpt>
      <trkpt lat="44.72048" lon="5.08703">
        <ele>335.2</ele>
        <time>1970-01-01T03:03:25.000Z</time>
      </trkpt>
      <trkpt lat="44.72041" lon="5.08702">
        <ele>334.6</ele>
        <time>1970-01-01T03:03:26.000Z</time>
      </trkpt>
      <trkpt lat="44.72035" lon="5.08701">
        <ele>334.4</ele>
        <time>1970-01-01T03:03:27.000Z</time>
      </trkpt>
      <trkpt lat="44.72028" lon="5.08698">
        <ele>334.2</ele>
        <time>1970-01-01T03:03:28.000Z</time>
      </trkpt>
      <trkpt lat="44.72023" lon="5.08695">
        <ele>333</ele>
        <time>1970-01-01T03:03:29.000Z</time>
      </trkpt>
      <trkpt lat="44.72012" lon="5.0869">
        <ele>331</ele>
        <time>1970-01-01T03:03:31.000Z</time>
      </trkpt>
      <trkpt lat="44.72006" lon="5.08687">
        <ele>329.8</ele>
        <time>1970-01-01T03:03:32.000Z</time>
      </trkpt>
      <trkpt lat="44.72" lon="5.08685">
        <ele>328.6</ele>
        <time>1970-01-01T03:03:33.000Z</time>
      </trkpt>
      <trkpt lat="44.71993" lon="5.08683">
        <ele>327.8</ele>
        <time>1970-01-01T03:03:34.000Z</time>
      </trkpt>
      <trkpt lat="44.71986" lon="5.08681">
        <ele>326.8</ele>
        <time>1970-01-01T03:03:35.000Z</time>
      </trkpt>
      <trkpt lat="44.7198" lon="5.08679">
        <ele>325.6</ele>
        <time>1970-01-01T03:03:36.000Z</time>
      </trkpt>
      <trkpt lat="44.71974" lon="5.08676">
        <ele>324.8</ele>
        <time>1970-01-01T03:03:37.000Z</time>
      </trkpt>
      <trkpt lat="44.71968" lon="5.08673">
        <ele>324.4</ele>
        <time>1970-01-01T03:03:38.000Z</time>
      </trkpt>
      <trkpt lat="44.71961" lon="5.0867">
        <ele>323.8</ele>
        <time>1970-01-01T03:03:39.000Z</time>
      </trkpt>
      <trkpt lat="44.71954" lon="5.08668">
        <ele>323.2</ele>
        <time>1970-01-01T03:03:40.000Z</time>
      </trkpt>
      <trkpt lat="44.71941" lon="5.08663">
        <ele>321.4</ele>
        <time>1970-01-01T03:03:42.000Z</time>
      </trkpt>
      <trkpt lat="44.71933" lon="5.08661">
        <ele>320.4</ele>
        <time>1970-01-01T03:03:43.000Z</time>
      </trkpt>
      <trkpt lat="44.71927" lon="5.08659">
        <ele>319.2</ele>
        <time>1970-01-01T03:03:44.000Z</time>
      </trkpt>
      <trkpt lat="44.71911" lon="5.08654">
        <ele>318.2</ele>
        <time>1970-01-01T03:03:46.000Z</time>
      </trkpt>
      <trkpt lat="44.71903" lon="5.08652">
        <ele>317.2</ele>
        <time>1970-01-01T03:03:47.000Z</time>
      </trkpt>
      <trkpt lat="44.71894" lon="5.08649">
        <ele>316.4</ele>
        <time>1970-01-01T03:03:48.000Z</time>
      </trkpt>
      <trkpt lat="44.71883" lon="5.08642">
        <ele>315</ele>
        <time>1970-01-01T03:03:50.000Z</time>
      </trkpt>
      <trkpt lat="44.71876" lon="5.0864">
        <ele>314.6</ele>
        <time>1970-01-01T03:03:51.000Z</time>
      </trkpt>
      <trkpt lat="44.71869" lon="5.08639">
        <ele>314.2</ele>
        <time>1970-01-01T03:03:52.000Z</time>
      </trkpt>
      <trkpt lat="44.71863" lon="5.08637">
        <ele>312.8</ele>
        <time>1970-01-01T03:03:53.000Z</time>
      </trkpt>
      <trkpt lat="44.71856" lon="5.08637">
        <ele>311.6</ele>
        <time>1970-01-01T03:03:54.000Z</time>
      </trkpt>
      <trkpt lat="44.71849" lon="5.08635">
        <ele>310.8</ele>
        <time>1970-01-01T03:03:55.000Z</time>
      </trkpt>
      <trkpt lat="44.71843" lon="5.08633">
        <ele>310.2</ele>
        <time>1970-01-01T03:03:56.000Z</time>
      </trkpt>
      <trkpt lat="44.71837" lon="5.0863">
        <ele>309.2</ele>
        <time>1970-01-01T03:03:57.000Z</time>
      </trkpt>
      <trkpt lat="44.71824" lon="5.08624">
        <ele>307.4</ele>
        <time>1970-01-01T03:03:59.000Z</time>
      </trkpt>
      <trkpt lat="44.71816" lon="5.08622">
        <ele>306.8</ele>
        <time>1970-01-01T03:04:00.000Z</time>
      </trkpt>
      <trkpt lat="44.71809" lon="5.0862">
        <ele>306</ele>
        <time>1970-01-01T03:04:01.000Z</time>
      </trkpt>
      <trkpt lat="44.71802" lon="5.08618">
        <ele>305</ele>
        <time>1970-01-01T03:04:02.000Z</time>
      </trkpt>
      <trkpt lat="44.71794" lon="5.08616">
        <ele>304.4</ele>
        <time>1970-01-01T03:04:03.000Z</time>
      </trkpt>
      <trkpt lat="44.71788" lon="5.08613">
        <ele>303.2</ele>
        <time>1970-01-01T03:04:04.000Z</time>
      </trkpt>
      <trkpt lat="44.71781" lon="5.0861">
        <ele>302.6</ele>
        <time>1970-01-01T03:04:05.000Z</time>
      </trkpt>
      <trkpt lat="44.71774" lon="5.08607">
        <ele>302.2</ele>
        <time>1970-01-01T03:04:06.000Z</time>
      </trkpt>
      <trkpt lat="44.71767" lon="5.08605">
        <ele>301.4</ele>
        <time>1970-01-01T03:04:07.000Z</time>
      </trkpt>
      <trkpt lat="44.7176" lon="5.08602">
        <ele>300.2</ele>
        <time>1970-01-01T03:04:08.000Z</time>
      </trkpt>
      <trkpt lat="44.71752" lon="5.08599">
        <ele>299.6</ele>
        <time>1970-01-01T03:04:09.000Z</time>
      </trkpt>
      <trkpt lat="44.71744" lon="5.08596">
        <ele>299.2</ele>
        <time>1970-01-01T03:04:10.000Z</time>
      </trkpt>
      <trkpt lat="44.71736" lon="5.08594">
        <ele>298.6</ele>
        <time>1970-01-01T03:04:11.000Z</time>
      </trkpt>
      <trkpt lat="44.71728" lon="5.08591">
        <ele>297.6</ele>
        <time>1970-01-01T03:04:12.000Z</time>
      </trkpt>
      <trkpt lat="44.71722" lon="5.08588">
        <ele>297.2</ele>
        <time>1970-01-01T03:04:13.000Z</time>
      </trkpt>
      <trkpt lat="44.71715" lon="5.08584">
        <ele>296.4</ele>
        <time>1970-01-01T03:04:14.000Z</time>
      </trkpt>
      <trkpt lat="44.71708" lon="5.08582">
        <ele>295.8</ele>
        <time>1970-01-01T03:04:15.000Z</time>
      </trkpt>
      <trkpt lat="44.71703" lon="5.08579">
        <ele>295</ele>
        <time>1970-01-01T03:04:16.000Z</time>
      </trkpt>
      <trkpt lat="44.71697" lon="5.08575">
        <ele>294.6</ele>
        <time>1970-01-01T03:04:17.000Z</time>
      </trkpt>
      <trkpt lat="44.71692" lon="5.08573">
        <ele>294</ele>
        <time>1970-01-01T03:04:18.000Z</time>
      </trkpt>
      <trkpt lat="44.71686" lon="5.08571">
        <ele>293.8</ele>
        <time>1970-01-01T03:04:19.000Z</time>
      </trkpt>
      <trkpt lat="44.71674" lon="5.08568">
        <ele>292.8</ele>
        <time>1970-01-01T03:04:21.000Z</time>
      </trkpt>
      <trkpt lat="44.71668" lon="5.08566">
        <ele>292.4</ele>
        <time>1970-01-01T03:04:22.000Z</time>
      </trkpt>
      <trkpt lat="44.71663" lon="5.08564">
        <ele>291.6</ele>
        <time>1970-01-01T03:04:23.000Z</time>
      </trkpt>
      <trkpt lat="44.71659" lon="5.08563">
        <ele>291.2</ele>
        <time>1970-01-01T03:04:24.000Z</time>
      </trkpt>
      <trkpt lat="44.71655" lon="5.08564">
        <ele>290.8</ele>
        <time>1970-01-01T03:04:25.000Z</time>
      </trkpt>
      <trkpt lat="44.71653" lon="5.08564">
        <ele>290.4</ele>
        <time>1970-01-01T03:04:28.000Z</time>
      </trkpt>
      <trkpt lat="44.71644" lon="5.08575">
        <ele>289.8</ele>
        <time>1970-01-01T03:04:46.000Z</time>
      </trkpt>
      <trkpt lat="44.71643" lon="5.08576">
        <ele>289.2</ele>
        <time>1970-01-01T03:04:47.000Z</time>
      </trkpt>
      <trkpt lat="44.7164" lon="5.08577">
        <ele>288.4</ele>
        <time>1970-01-01T03:04:48.000Z</time>
      </trkpt>
      <trkpt lat="44.71635" lon="5.08578">
        <ele>287.8</ele>
        <time>1970-01-01T03:04:49.000Z</time>
      </trkpt>
      <trkpt lat="44.71631" lon="5.0858">
        <ele>287.6</ele>
        <time>1970-01-01T03:04:50.000Z</time>
      </trkpt>
      <trkpt lat="44.71628" lon="5.08582">
        <ele>286.6</ele>
        <time>1970-01-01T03:04:51.000Z</time>
      </trkpt>
      <trkpt lat="44.71626" lon="5.08584">
        <ele>285.4</ele>
        <time>1970-01-01T03:04:52.000Z</time>
      </trkpt>
      <trkpt lat="44.71619" lon="5.08589">
        <ele>283.8</ele>
        <time>1970-01-01T03:04:54.000Z</time>
      </trkpt>
      <trkpt lat="44.71615" lon="5.08589">
        <ele>282.8</ele>
        <time>1970-01-01T03:04:55.000Z</time>
      </trkpt>
      <trkpt lat="44.71609" lon="5.08588">
        <ele>281.6</ele>
        <time>1970-01-01T03:04:56.000Z</time>
      </trkpt>
      <trkpt lat="44.71603" lon="5.08586">
        <ele>280.8</ele>
        <time>1970-01-01T03:04:57.000Z</time>
      </trkpt>
      <trkpt lat="44.71598" lon="5.08584">
        <ele>279.6</ele>
        <time>1970-01-01T03:04:58.000Z</time>
      </trkpt>
      <trkpt lat="44.71591" lon="5.08582">
        <ele>278.8</ele>
        <time>1970-01-01T03:04:59.000Z</time>
      </trkpt>
      <trkpt lat="44.71585" lon="5.08581">
        <ele>277.6</ele>
        <time>1970-01-01T03:05:00.000Z</time>
      </trkpt>
      <trkpt lat="44.7158" lon="5.0858">
        <ele>276.6</ele>
        <time>1970-01-01T03:05:01.000Z</time>
      </trkpt>
      <trkpt lat="44.71577" lon="5.08581">
        <ele>275.8</ele>
        <time>1970-01-01T03:05:02.000Z</time>
      </trkpt>
      <trkpt lat="44.71573" lon="5.08582">
        <ele>275.2</ele>
        <time>1970-01-01T03:05:03.000Z</time>
      </trkpt>
      <trkpt lat="44.7157" lon="5.08583">
        <ele>274.6</ele>
        <time>1970-01-01T03:05:04.000Z</time>
      </trkpt>
      <trkpt lat="44.71565" lon="5.08583">
        <ele>273.8</ele>
        <time>1970-01-01T03:05:05.000Z</time>
      </trkpt>
      <trkpt lat="44.7156" lon="5.08583">
        <ele>273.4</ele>
        <time>1970-01-01T03:05:06.000Z</time>
      </trkpt>
      <trkpt lat="44.71555" lon="5.08583">
        <ele>272.2</ele>
        <time>1970-01-01T03:05:07.000Z</time>
      </trkpt>
      <trkpt lat="44.71549" lon="5.08585">
        <ele>271.2</ele>
        <time>1970-01-01T03:05:08.000Z</time>
      </trkpt>
      <trkpt lat="44.71543" lon="5.08587">
        <ele>269.4</ele>
        <time>1970-01-01T03:05:09.000Z</time>
      </trkpt>
      <trkpt lat="44.71537" lon="5.08587">
        <ele>268.2</ele>
        <time>1970-01-01T03:05:10.000Z</time>
      </trkpt>
      <trkpt lat="44.71532" lon="5.08588">
        <ele>267.6</ele>
        <time>1970-01-01T03:05:11.000Z</time>
      </trkpt>
      <trkpt lat="44.71528" lon="5.0859">
        <ele>266.8</ele>
        <time>1970-01-01T03:05:12.000Z</time>
      </trkpt>
      <trkpt lat="44.71524" lon="5.08592">
        <ele>266.4</ele>
        <time>1970-01-01T03:05:13.000Z</time>
      </trkpt>
      <trkpt lat="44.71522" lon="5.08596">
        <ele>265.4</ele>
        <time>1970-01-01T03:05:14.000Z</time>
      </trkpt>
      <trkpt lat="44.71522" lon="5.08601">
        <ele>264.4</ele>
        <time>1970-01-01T03:05:15.000Z</time>
      </trkpt>
      <trkpt lat="44.71524" lon="5.08611">
        <ele>262.4</ele>
        <time>1970-01-01T03:05:17.000Z</time>
      </trkpt>
      <trkpt lat="44.71526" lon="5.08617">
        <ele>261.2</ele>
        <time>1970-01-01T03:05:18.000Z</time>
      </trkpt>
      <trkpt lat="44.71529" lon="5.0862">
        <ele>259.6</ele>
        <time>1970-01-01T03:05:19.000Z</time>
      </trkpt>
      <trkpt lat="44.71533" lon="5.08625">
        <ele>258.2</ele>
        <time>1970-01-01T03:05:20.000Z</time>
      </trkpt>
      <trkpt lat="44.71536" lon="5.08629">
        <ele>256.8</ele>
        <time>1970-01-01T03:05:21.000Z</time>
      </trkpt>
      <trkpt lat="44.71538" lon="5.08633">
        <ele>255.2</ele>
        <time>1970-01-01T03:05:22.000Z</time>
      </trkpt>
      <trkpt lat="44.71541" lon="5.08636">
        <ele>254.2</ele>
        <time>1970-01-01T03:05:23.000Z</time>
      </trkpt>
      <trkpt lat="44.71543" lon="5.08639">
        <ele>253.6</ele>
        <time>1970-01-01T03:05:24.000Z</time>
      </trkpt>
      <trkpt lat="44.71546" lon="5.08643">
        <ele>252.8</ele>
        <time>1970-01-01T03:05:25.000Z</time>
      </trkpt>
      <trkpt lat="44.71549" lon="5.08646">
        <ele>251.4</ele>
        <time>1970-01-01T03:05:26.000Z</time>
      </trkpt>
      <trkpt lat="44.71554" lon="5.08651">
        <ele>250.8</ele>
        <time>1970-01-01T03:05:27.000Z</time>
      </trkpt>
      <trkpt lat="44.71558" lon="5.08656">
        <ele>249.2</ele>
        <time>1970-01-01T03:05:28.000Z</time>
      </trkpt>
      <trkpt lat="44.71559" lon="5.08662">
        <ele>247.8</ele>
        <time>1970-01-01T03:05:29.000Z</time>
      </trkpt>
      <trkpt lat="44.71561" lon="5.08665">
        <ele>246.2</ele>
        <time>1970-01-01T03:05:30.000Z</time>
      </trkpt>
      <trkpt lat="44.71564" lon="5.08669">
        <ele>244.8</ele>
        <time>1970-01-01T03:05:31.000Z</time>
      </trkpt>
      <trkpt lat="44.71568" lon="5.08674">
        <ele>243.8</ele>
        <time>1970-01-01T03:05:32.000Z</time>
      </trkpt>
      <trkpt lat="44.71572" lon="5.08678">
        <ele>243</ele>
        <time>1970-01-01T03:05:33.000Z</time>
      </trkpt>
      <trkpt lat="44.71575" lon="5.08682">
        <ele>241.4</ele>
        <time>1970-01-01T03:05:34.000Z</time>
      </trkpt>
      <trkpt lat="44.71579" lon="5.08688">
        <ele>240.2</ele>
        <time>1970-01-01T03:05:35.000Z</time>
      </trkpt>
      <trkpt lat="44.71583" lon="5.08694">
        <ele>239.6</ele>
        <time>1970-01-01T03:05:36.000Z</time>
      </trkpt>
      <trkpt lat="44.71584" lon="5.08704">
        <ele>238.6</ele>
        <time>1970-01-01T03:05:37.000Z</time>
      </trkpt>
      <trkpt lat="44.71585" lon="5.08711">
        <ele>237.8</ele>
        <time>1970-01-01T03:05:38.000Z</time>
      </trkpt>
      <trkpt lat="44.71584" lon="5.08716">
        <ele>235.8</ele>
        <time>1970-01-01T03:05:39.000Z</time>
      </trkpt>
      <trkpt lat="44.71585" lon="5.08718">
        <ele>234.6</ele>
        <time>1970-01-01T03:05:40.000Z</time>
      </trkpt>
      <trkpt lat="44.71599" lon="5.08721">
        <ele>233.4</ele>
        <time>1970-01-01T03:05:43.000Z</time>
      </trkpt>
      <trkpt lat="44.71601" lon="5.08732">
        <ele>233</ele>
        <time>1970-01-01T03:05:45.000Z</time>
      </trkpt>
      <trkpt lat="44.71601" lon="5.08741">
        <ele>232.4</ele>
        <time>1970-01-01T03:05:46.000Z</time>
      </trkpt>
      <trkpt lat="44.71603" lon="5.0875">
        <ele>231.8</ele>
        <time>1970-01-01T03:05:47.000Z</time>
      </trkpt>
      <trkpt lat="44.71607" lon="5.08757">
        <ele>231.6</ele>
        <time>1970-01-01T03:05:48.000Z</time>
      </trkpt>
      <trkpt lat="44.7161" lon="5.08762">
        <ele>231.4</ele>
        <time>1970-01-01T03:05:49.000Z</time>
      </trkpt>
      <trkpt lat="44.71612" lon="5.08768">
        <ele>231.4</ele>
        <time>1970-01-01T03:05:50.000Z</time>
      </trkpt>
      <trkpt lat="44.71611" lon="5.08772">
        <ele>230.6</ele>
        <time>1970-01-01T03:05:51.000Z</time>
      </trkpt>
      <trkpt lat="44.71603" lon="5.0878">
        <ele>229.4</ele>
        <time>1970-01-01T03:05:53.000Z</time>
      </trkpt>
      <trkpt lat="44.71598" lon="5.08786">
        <ele>228.8</ele>
        <time>1970-01-01T03:05:54.000Z</time>
      </trkpt>
      <trkpt lat="44.71596" lon="5.08792">
        <ele>228.6</ele>
        <time>1970-01-01T03:05:55.000Z</time>
      </trkpt>
      <trkpt lat="44.71593" lon="5.08798">
        <ele>228.4</ele>
        <time>1970-01-01T03:05:56.000Z</time>
      </trkpt>
      <trkpt lat="44.71589" lon="5.08803">
        <ele>227.8</ele>
        <time>1970-01-01T03:05:57.000Z</time>
      </trkpt>
      <trkpt lat="44.71589" lon="5.08804">
        <ele>227</ele>
        <time>1970-01-01T03:05:58.000Z</time>
      </trkpt>
      <trkpt lat="44.71589" lon="5.08804">
        <ele>226.8</ele>
        <time>1970-01-01T03:05:59.000Z</time>
      </trkpt>
      <trkpt lat="44.71589" lon="5.08803">
        <ele>226.6</ele>
        <time>1970-01-01T03:06:00.000Z</time>
      </trkpt>
      <trkpt lat="44.71589" lon="5.08803">
        <ele>226.2</ele>
        <time>1970-01-01T03:06:19.000Z</time>
      </trkpt>
      <trkpt lat="44.71592" lon="5.08803">
        <ele>226.2</ele>
        <time>1970-01-01T03:06:27.000Z</time>
      </trkpt>
      <trkpt lat="44.71593" lon="5.088">
        <ele>225.8</ele>
        <time>1970-01-01T03:06:54.000Z</time>
      </trkpt>
      <trkpt lat="44.71594" lon="5.088">
        <ele>225.8</ele>
        <time>1970-01-01T03:06:57.000Z</time>
      </trkpt>
      <trkpt lat="44.71594" lon="5.08801">
        <ele>225.8</ele>
        <time>1970-01-01T03:07:27.000Z</time>
      </trkpt>
      <trkpt lat="44.71593" lon="5.08803">
        <ele>225.8</ele>
        <time>1970-01-01T03:07:29.000Z</time>
      </trkpt>
      <trkpt lat="44.71592" lon="5.08805">
        <ele>225.8</ele>
        <time>1970-01-01T03:07:30.000Z</time>
      </trkpt>
      <trkpt lat="44.7159" lon="5.0881">
        <ele>225.6</ele>
        <time>1970-01-01T03:07:32.000Z</time>
      </trkpt>
      <trkpt lat="44.71586" lon="5.08819">
        <ele>225.4</ele>
        <time>1970-01-01T03:07:34.000Z</time>
      </trkpt>
      <trkpt lat="44.71582" lon="5.08828">
        <ele>225.2</ele>
        <time>1970-01-01T03:07:36.000Z</time>
      </trkpt>
      <trkpt lat="44.71577" lon="5.08843">
        <ele>224.8</ele>
        <time>1970-01-01T03:07:39.000Z</time>
      </trkpt>
      <trkpt lat="44.71575" lon="5.08849">
        <ele>224.6</ele>
        <time>1970-01-01T03:07:40.000Z</time>
      </trkpt>
      <trkpt lat="44.71567" lon="5.08864">
        <ele>224.6</ele>
        <time>1970-01-01T03:07:43.000Z</time>
      </trkpt>
      <trkpt lat="44.71561" lon="5.08875">
        <ele>224.2</ele>
        <time>1970-01-01T03:07:45.000Z</time>
      </trkpt>
      <trkpt lat="44.71556" lon="5.0889">
        <ele>223.8</ele>
        <time>1970-01-01T03:07:47.000Z</time>
      </trkpt>
      <trkpt lat="44.71554" lon="5.08897">
        <ele>223.6</ele>
        <time>1970-01-01T03:07:48.000Z</time>
      </trkpt>
      <trkpt lat="44.71551" lon="5.08904">
        <ele>223.4</ele>
        <time>1970-01-01T03:07:49.000Z</time>
      </trkpt>
      <trkpt lat="44.71549" lon="5.0891">
        <ele>223.2</ele>
        <time>1970-01-01T03:07:50.000Z</time>
      </trkpt>
      <trkpt lat="44.71546" lon="5.08916">
        <ele>223</ele>
        <time>1970-01-01T03:07:51.000Z</time>
      </trkpt>
      <trkpt lat="44.71544" lon="5.08921">
        <ele>222.8</ele>
        <time>1970-01-01T03:07:52.000Z</time>
      </trkpt>
      <trkpt lat="44.71542" lon="5.08926">
        <ele>222.6</ele>
        <time>1970-01-01T03:07:53.000Z</time>
      </trkpt>
      <trkpt lat="44.7154" lon="5.08931">
        <ele>222.6</ele>
        <time>1970-01-01T03:07:54.000Z</time>
      </trkpt>
      <trkpt lat="44.71538" lon="5.08935">
        <ele>222.4</ele>
        <time>1970-01-01T03:07:55.000Z</time>
      </trkpt>
      <trkpt lat="44.71536" lon="5.08938">
        <ele>222.4</ele>
        <time>1970-01-01T03:07:56.000Z</time>
      </trkpt>
      <trkpt lat="44.71533" lon="5.08939">
        <ele>222.4</ele>
        <time>1970-01-01T03:07:57.000Z</time>
      </trkpt>
      <trkpt lat="44.71526" lon="5.08932">
        <ele>222</ele>
        <time>1970-01-01T03:08:00.000Z</time>
      </trkpt>
      <trkpt lat="44.7151" lon="5.08914">
        <ele>221.8</ele>
        <time>1970-01-01T03:08:05.000Z</time>
      </trkpt>
      <trkpt lat="44.71506" lon="5.0891">
        <ele>221.6</ele>
        <time>1970-01-01T03:08:06.000Z</time>
      </trkpt>
      <trkpt lat="44.71502" lon="5.08906">
        <ele>221.6</ele>
        <time>1970-01-01T03:08:07.000Z</time>
      </trkpt>
      <trkpt lat="44.71477" lon="5.08877">
        <ele>220.8</ele>
        <time>1970-01-01T03:08:14.000Z</time>
      </trkpt>
      <trkpt lat="44.71465" lon="5.08864">
        <ele>220.4</ele>
        <time>1970-01-01T03:08:17.000Z</time>
      </trkpt>
      <trkpt lat="44.71442" lon="5.08833">
        <ele>220.6</ele>
        <time>1970-01-01T03:08:23.000Z</time>
      </trkpt>
      <trkpt lat="44.71439" lon="5.08828">
        <ele>220.6</ele>
        <time>1970-01-01T03:08:24.000Z</time>
      </trkpt>
      <trkpt lat="44.71429" lon="5.08811">
        <ele>220.4</ele>
        <time>1970-01-01T03:08:27.000Z</time>
      </trkpt>
      <trkpt lat="44.71412" lon="5.08784">
        <ele>220.2</ele>
        <time>1970-01-01T03:08:32.000Z</time>
      </trkpt>
      <trkpt lat="44.71395" lon="5.08754">
        <ele>219.4</ele>
        <time>1970-01-01T03:08:37.000Z</time>
      </trkpt>
      <trkpt lat="44.71392" lon="5.08748">
        <ele>219.4</ele>
        <time>1970-01-01T03:08:38.000Z</time>
      </trkpt>
      <trkpt lat="44.71388" lon="5.08743">
        <ele>219.4</ele>
        <time>1970-01-01T03:08:39.000Z</time>
      </trkpt>
      <trkpt lat="44.71372" lon="5.08718">
        <ele>219.2</ele>
        <time>1970-01-01T03:08:44.000Z</time>
      </trkpt>
      <trkpt lat="44.71365" lon="5.08708">
        <ele>218.8</ele>
        <time>1970-01-01T03:08:46.000Z</time>
      </trkpt>
      <trkpt lat="44.71355" lon="5.08692">
        <ele>218.8</ele>
        <time>1970-01-01T03:08:49.000Z</time>
      </trkpt>
      <trkpt lat="44.71351" lon="5.08688">
        <ele>219</ele>
        <time>1970-01-01T03:08:50.000Z</time>
      </trkpt>
      <trkpt lat="44.71347" lon="5.08683">
        <ele>219.2</ele>
        <time>1970-01-01T03:08:51.000Z</time>
      </trkpt>
      <trkpt lat="44.71344" lon="5.08679">
        <ele>219.4</ele>
        <time>1970-01-01T03:08:52.000Z</time>
      </trkpt>
      <trkpt lat="44.71341" lon="5.08674">
        <ele>219.4</ele>
        <time>1970-01-01T03:08:53.000Z</time>
      </trkpt>
      <trkpt lat="44.71337" lon="5.08669">
        <ele>219.4</ele>
        <time>1970-01-01T03:08:54.000Z</time>
      </trkpt>
      <trkpt lat="44.71335" lon="5.08665">
        <ele>219.2</ele>
        <time>1970-01-01T03:08:55.000Z</time>
      </trkpt>
      <trkpt lat="44.71332" lon="5.08661">
        <ele>219.2</ele>
        <time>1970-01-01T03:08:56.000Z</time>
      </trkpt>
      <trkpt lat="44.7133" lon="5.08657">
        <ele>219.2</ele>
        <time>1970-01-01T03:08:57.000Z</time>
      </trkpt>
      <trkpt lat="44.71327" lon="5.08652">
        <ele>219</ele>
        <time>1970-01-01T03:08:58.000Z</time>
      </trkpt>
      <trkpt lat="44.7131" lon="5.08625">
        <ele>218.8</ele>
        <time>1970-01-01T03:09:04.000Z</time>
      </trkpt>
      <trkpt lat="44.71307" lon="5.0862">
        <ele>218.8</ele>
        <time>1970-01-01T03:09:05.000Z</time>
      </trkpt>
      <trkpt lat="44.71304" lon="5.08615">
        <ele>218.8</ele>
        <time>1970-01-01T03:09:06.000Z</time>
      </trkpt>
      <trkpt lat="44.71301" lon="5.08611">
        <ele>218.8</ele>
        <time>1970-01-01T03:09:07.000Z</time>
      </trkpt>
      <trkpt lat="44.71298" lon="5.08606">
        <ele>218.8</ele>
        <time>1970-01-01T03:09:08.000Z</time>
      </trkpt>
      <trkpt lat="44.71284" lon="5.08582">
        <ele>218.4</ele>
        <time>1970-01-01T03:09:13.000Z</time>
      </trkpt>
      <trkpt lat="44.71278" lon="5.08573">
        <ele>218.2</ele>
        <time>1970-01-01T03:09:15.000Z</time>
      </trkpt>
      <trkpt lat="44.71275" lon="5.08568">
        <ele>218.2</ele>
        <time>1970-01-01T03:09:16.000Z</time>
      </trkpt>
      <trkpt lat="44.71272" lon="5.08563">
        <ele>218.2</ele>
        <time>1970-01-01T03:09:17.000Z</time>
      </trkpt>
      <trkpt lat="44.71269" lon="5.08559">
        <ele>218.2</ele>
        <time>1970-01-01T03:09:18.000Z</time>
      </trkpt>
      <trkpt lat="44.71266" lon="5.08554">
        <ele>218.2</ele>
        <time>1970-01-01T03:09:19.000Z</time>
      </trkpt>
      <trkpt lat="44.71263" lon="5.08549">
        <ele>218</ele>
        <time>1970-01-01T03:09:20.000Z</time>
      </trkpt>
      <trkpt lat="44.7126" lon="5.08544">
        <ele>218</ele>
        <time>1970-01-01T03:09:21.000Z</time>
      </trkpt>
      <trkpt lat="44.71257" lon="5.08541">
        <ele>218</ele>
        <time>1970-01-01T03:09:22.000Z</time>
      </trkpt>
      <trkpt lat="44.71255" lon="5.08536">
        <ele>217.8</ele>
        <time>1970-01-01T03:09:23.000Z</time>
      </trkpt>
      <trkpt lat="44.71252" lon="5.08532">
        <ele>217.8</ele>
        <time>1970-01-01T03:09:24.000Z</time>
      </trkpt>
      <trkpt lat="44.71249" lon="5.08528">
        <ele>217.8</ele>
        <time>1970-01-01T03:09:25.000Z</time>
      </trkpt>
      <trkpt lat="44.71246" lon="5.08524">
        <ele>217.8</ele>
        <time>1970-01-01T03:09:26.000Z</time>
      </trkpt>
      <trkpt lat="44.71244" lon="5.0852">
        <ele>217.6</ele>
        <time>1970-01-01T03:09:27.000Z</time>
      </trkpt>
      <trkpt lat="44.71242" lon="5.08517">
        <ele>217.6</ele>
        <time>1970-01-01T03:09:28.000Z</time>
      </trkpt>
      <trkpt lat="44.71242" lon="5.08514">
        <ele>217.6</ele>
        <time>1970-01-01T03:09:29.000Z</time>
      </trkpt>
      <trkpt lat="44.71242" lon="5.08512">
        <ele>217.6</ele>
        <time>1970-01-01T03:09:30.000Z</time>
      </trkpt>
      <trkpt lat="44.71241" lon="5.0851">
        <ele>217.6</ele>
        <time>1970-01-01T03:09:31.000Z</time>
      </trkpt>
      <trkpt lat="44.71241" lon="5.08508">
        <ele>217.6</ele>
        <time>1970-01-01T03:09:32.000Z</time>
      </trkpt>
      <trkpt lat="44.7124" lon="5.08505">
        <ele>217.6</ele>
        <time>1970-01-01T03:09:34.000Z</time>
      </trkpt>
      <trkpt lat="44.71236" lon="5.08504">
        <ele>217.6</ele>
        <time>1970-01-01T03:09:36.000Z</time>
      </trkpt>
      <trkpt lat="44.71224" lon="5.08502">
        <ele>216.4</ele>
        <time>1970-01-01T03:09:40.000Z</time>
      </trkpt>
      <trkpt lat="44.71219" lon="5.08501">
        <ele>215.6</ele>
        <time>1970-01-01T03:09:41.000Z</time>
      </trkpt>
      <trkpt lat="44.71215" lon="5.08498">
        <ele>215.2</ele>
        <time>1970-01-01T03:09:42.000Z</time>
      </trkpt>
      <trkpt lat="44.71207" lon="5.08492">
        <ele>214.6</ele>
        <time>1970-01-01T03:09:44.000Z</time>
      </trkpt>
      <trkpt lat="44.71205" lon="5.08486">
        <ele>214.6</ele>
        <time>1970-01-01T03:09:45.000Z</time>
      </trkpt>
      <trkpt lat="44.71205" lon="5.08479">
        <ele>214.4</ele>
        <time>1970-01-01T03:09:46.000Z</time>
      </trkpt>
      <trkpt lat="44.71205" lon="5.08473">
        <ele>214.4</ele>
        <time>1970-01-01T03:09:47.000Z</time>
      </trkpt>
      <trkpt lat="44.71205" lon="5.08468">
        <ele>214.4</ele>
        <time>1970-01-01T03:09:48.000Z</time>
      </trkpt>
      <trkpt lat="44.71205" lon="5.08463">
        <ele>214.4</ele>
        <time>1970-01-01T03:09:49.000Z</time>
      </trkpt>
      <trkpt lat="44.71204" lon="5.0846">
        <ele>214.4</ele>
        <time>1970-01-01T03:09:50.000Z</time>
      </trkpt>
      <trkpt lat="44.71202" lon="5.08459">
        <ele>214.4</ele>
        <time>1970-01-01T03:09:52.000Z</time>
      </trkpt>
      <trkpt lat="44.71202" lon="5.08458">
        <ele>214.4</ele>
        <time>1970-01-01T03:09:53.000Z</time>
      </trkpt>
      <trkpt lat="44.71203" lon="5.08459">
        <ele>214.4</ele>
        <time>1970-01-01T03:09:57.000Z</time>
      </trkpt>
      <trkpt lat="44.71201" lon="5.08468">
        <ele>215</ele>
        <time>1970-01-01T04:17:15.000Z</time>
      </trkpt>
      <trkpt lat="44.71201" lon="5.08472">
        <ele>215</ele>
        <time>1970-01-01T04:17:16.000Z</time>
      </trkpt>
      <trkpt lat="44.71199" lon="5.08479">
        <ele>215</ele>
        <time>1970-01-01T04:17:18.000Z</time>
      </trkpt>
      <trkpt lat="44.71199" lon="5.08483">
        <ele>215</ele>
        <time>1970-01-01T04:17:19.000Z</time>
      </trkpt>
      <trkpt lat="44.71205" lon="5.08494">
        <ele>215</ele>
        <time>1970-01-01T04:17:22.000Z</time>
      </trkpt>
      <trkpt lat="44.71207" lon="5.08495">
        <ele>214.8</ele>
        <time>1970-01-01T04:17:23.000Z</time>
      </trkpt>
      <trkpt lat="44.71209" lon="5.08496">
        <ele>215.2</ele>
        <time>1970-01-01T04:17:24.000Z</time>
      </trkpt>
      <trkpt lat="44.71211" lon="5.08498">
        <ele>215.6</ele>
        <time>1970-01-01T04:17:25.000Z</time>
      </trkpt>
      <trkpt lat="44.71212" lon="5.085">
        <ele>215.6</ele>
        <time>1970-01-01T04:17:26.000Z</time>
      </trkpt>
      <trkpt lat="44.71212" lon="5.08502">
        <ele>215.8</ele>
        <time>1970-01-01T04:17:27.000Z</time>
      </trkpt>
      <trkpt lat="44.71212" lon="5.08504">
        <ele>215.8</ele>
        <time>1970-01-01T04:17:28.000Z</time>
      </trkpt>
      <trkpt lat="44.71211" lon="5.08524">
        <ele>216</ele>
        <time>1970-01-01T04:17:34.000Z</time>
      </trkpt>
      <trkpt lat="44.71211" lon="5.08527">
        <ele>216</ele>
        <time>1970-01-01T04:17:35.000Z</time>
      </trkpt>
      <trkpt lat="44.71212" lon="5.08529">
        <ele>216.2</ele>
        <time>1970-01-01T04:17:36.000Z</time>
      </trkpt>
      <trkpt lat="44.71213" lon="5.0853">
        <ele>216.2</ele>
        <time>1970-01-01T04:17:37.000Z</time>
      </trkpt>
      <trkpt lat="44.71214" lon="5.0853">
        <ele>216.4</ele>
        <time>1970-01-01T04:17:38.000Z</time>
      </trkpt>
      <trkpt lat="44.71224" lon="5.08531">
        <ele>217.2</ele>
        <time>1970-01-01T04:17:42.000Z</time>
      </trkpt>
      <trkpt lat="44.71225" lon="5.08533">
        <ele>217.6</ele>
        <time>1970-01-01T04:17:43.000Z</time>
      </trkpt>
      <trkpt lat="44.71226" lon="5.08537">
        <ele>218.2</ele>
        <time>1970-01-01T04:17:45.000Z</time>
      </trkpt>
      <trkpt lat="44.71226" lon="5.0854">
        <ele>218.2</ele>
        <time>1970-01-01T04:17:46.000Z</time>
      </trkpt>
      <trkpt lat="44.71225" lon="5.08543">
        <ele>218.4</ele>
        <time>1970-01-01T04:17:47.000Z</time>
      </trkpt>
      <trkpt lat="44.71224" lon="5.08546">
        <ele>218.4</ele>
        <time>1970-01-01T04:17:48.000Z</time>
      </trkpt>
      <trkpt lat="44.71224" lon="5.0855">
        <ele>218.4</ele>
        <time>1970-01-01T04:17:49.000Z</time>
      </trkpt>
      <trkpt lat="44.71223" lon="5.08553">
        <ele>218.4</ele>
        <time>1970-01-01T04:17:50.000Z</time>
      </trkpt>
      <trkpt lat="44.71222" lon="5.08557">
        <ele>218.4</ele>
        <time>1970-01-01T04:17:51.000Z</time>
      </trkpt>
      <trkpt lat="44.71221" lon="5.08561">
        <ele>218.4</ele>
        <time>1970-01-01T04:17:52.000Z</time>
      </trkpt>
      <trkpt lat="44.7122" lon="5.08564">
        <ele>218.6</ele>
        <time>1970-01-01T04:17:53.000Z</time>
      </trkpt>
      <trkpt lat="44.71219" lon="5.08567">
        <ele>218.6</ele>
        <time>1970-01-01T04:17:54.000Z</time>
      </trkpt>
      <trkpt lat="44.71218" lon="5.08572">
        <ele>218.6</ele>
        <time>1970-01-01T04:17:55.000Z</time>
      </trkpt>
      <trkpt lat="44.71217" lon="5.08576">
        <ele>218.6</ele>
        <time>1970-01-01T04:17:56.000Z</time>
      </trkpt>
      <trkpt lat="44.71216" lon="5.08581">
        <ele>218.4</ele>
        <time>1970-01-01T04:17:57.000Z</time>
      </trkpt>
      <trkpt lat="44.71215" lon="5.08586">
        <ele>218.4</ele>
        <time>1970-01-01T04:17:58.000Z</time>
      </trkpt>
      <trkpt lat="44.71215" lon="5.08589">
        <ele>218.4</ele>
        <time>1970-01-01T04:17:59.000Z</time>
      </trkpt>
      <trkpt lat="44.71214" lon="5.08593">
        <ele>218.2</ele>
        <time>1970-01-01T04:18:00.000Z</time>
      </trkpt>
      <trkpt lat="44.71212" lon="5.08603">
        <ele>218.2</ele>
        <time>1970-01-01T04:18:02.000Z</time>
      </trkpt>
      <trkpt lat="44.71209" lon="5.08618">
        <ele>218.2</ele>
        <time>1970-01-01T04:18:05.000Z</time>
      </trkpt>
      <trkpt lat="44.71206" lon="5.08629">
        <ele>218.2</ele>
        <time>1970-01-01T04:18:07.000Z</time>
      </trkpt>
      <trkpt lat="44.71205" lon="5.08634">
        <ele>218.2</ele>
        <time>1970-01-01T04:18:08.000Z</time>
      </trkpt>
      <trkpt lat="44.71205" lon="5.08638">
        <ele>218.2</ele>
        <time>1970-01-01T04:18:09.000Z</time>
      </trkpt>
      <trkpt lat="44.71201" lon="5.08655">
        <ele>218.2</ele>
        <time>1970-01-01T04:18:12.000Z</time>
      </trkpt>
      <trkpt lat="44.71196" lon="5.08676">
        <ele>218</ele>
        <time>1970-01-01T04:18:16.000Z</time>
      </trkpt>
      <trkpt lat="44.71194" lon="5.08682">
        <ele>218</ele>
        <time>1970-01-01T04:18:17.000Z</time>
      </trkpt>
      <trkpt lat="44.71188" lon="5.08708">
        <ele>217.8</ele>
        <time>1970-01-01T04:18:22.000Z</time>
      </trkpt>
      <trkpt lat="44.71186" lon="5.08719">
        <ele>217.8</ele>
        <time>1970-01-01T04:18:24.000Z</time>
      </trkpt>
      <trkpt lat="44.71184" lon="5.08725">
        <ele>218</ele>
        <time>1970-01-01T04:18:25.000Z</time>
      </trkpt>
      <trkpt lat="44.71181" lon="5.0874">
        <ele>218</ele>
        <time>1970-01-01T04:18:28.000Z</time>
      </trkpt>
      <trkpt lat="44.71177" lon="5.08758">
        <ele>218.2</ele>
        <time>1970-01-01T04:18:31.000Z</time>
      </trkpt>
      <trkpt lat="44.71176" lon="5.08763">
        <ele>218.2</ele>
        <time>1970-01-01T04:18:32.000Z</time>
      </trkpt>
      <trkpt lat="44.71175" lon="5.08769">
        <ele>218.2</ele>
        <time>1970-01-01T04:18:33.000Z</time>
      </trkpt>
      <trkpt lat="44.71168" lon="5.08793">
        <ele>218</ele>
        <time>1970-01-01T04:18:37.000Z</time>
      </trkpt>
      <trkpt lat="44.71162" lon="5.08818">
        <ele>217.6</ele>
        <time>1970-01-01T04:18:40.000Z</time>
      </trkpt>
      <trkpt lat="44.7116" lon="5.08825">
        <ele>217.6</ele>
        <time>1970-01-01T04:18:41.000Z</time>
      </trkpt>
      <trkpt lat="44.71158" lon="5.08833">
        <ele>217.6</ele>
        <time>1970-01-01T04:18:42.000Z</time>
      </trkpt>
      <trkpt lat="44.71157" lon="5.08838">
        <ele>217.8</ele>
        <time>1970-01-01T04:18:43.000Z</time>
      </trkpt>
      <trkpt lat="44.71155" lon="5.08844">
        <ele>217.8</ele>
        <time>1970-01-01T04:18:44.000Z</time>
      </trkpt>
      <trkpt lat="44.71152" lon="5.0885">
        <ele>217.8</ele>
        <time>1970-01-01T04:18:45.000Z</time>
      </trkpt>
      <trkpt lat="44.7115" lon="5.08856">
        <ele>217.8</ele>
        <time>1970-01-01T04:18:46.000Z</time>
      </trkpt>
      <trkpt lat="44.71148" lon="5.08862">
        <ele>217.8</ele>
        <time>1970-01-01T04:18:47.000Z</time>
      </trkpt>
      <trkpt lat="44.71146" lon="5.08868">
        <ele>218</ele>
        <time>1970-01-01T04:18:48.000Z</time>
      </trkpt>
      <trkpt lat="44.71142" lon="5.08874">
        <ele>218</ele>
        <time>1970-01-01T04:18:49.000Z</time>
      </trkpt>
      <trkpt lat="44.7114" lon="5.08878">
        <ele>218</ele>
        <time>1970-01-01T04:18:50.000Z</time>
      </trkpt>
      <trkpt lat="44.71135" lon="5.08888">
        <ele>218</ele>
        <time>1970-01-01T04:18:52.000Z</time>
      </trkpt>
      <trkpt lat="44.71126" lon="5.08902">
        <ele>217.8</ele>
        <time>1970-01-01T04:18:55.000Z</time>
      </trkpt>
      <trkpt lat="44.71119" lon="5.08913">
        <ele>217.6</ele>
        <time>1970-01-01T04:18:57.000Z</time>
      </trkpt>
      <trkpt lat="44.71116" lon="5.08918">
        <ele>217.4</ele>
        <time>1970-01-01T04:18:58.000Z</time>
      </trkpt>
      <trkpt lat="44.71113" lon="5.08924">
        <ele>217.4</ele>
        <time>1970-01-01T04:18:59.000Z</time>
      </trkpt>
      <trkpt lat="44.7111" lon="5.08929">
        <ele>217.4</ele>
        <time>1970-01-01T04:19:00.000Z</time>
      </trkpt>
      <trkpt lat="44.71108" lon="5.08934">
        <ele>217.2</ele>
        <time>1970-01-01T04:19:01.000Z</time>
      </trkpt>
      <trkpt lat="44.71099" lon="5.0895">
        <ele>217</ele>
        <time>1970-01-01T04:19:04.000Z</time>
      </trkpt>
      <trkpt lat="44.71093" lon="5.08961">
        <ele>216.8</ele>
        <time>1970-01-01T04:19:06.000Z</time>
      </trkpt>
      <trkpt lat="44.7109" lon="5.08966">
        <ele>216.6</ele>
        <time>1970-01-01T04:19:07.000Z</time>
      </trkpt>
      <trkpt lat="44.71085" lon="5.08977">
        <ele>216.6</ele>
        <time>1970-01-01T04:19:09.000Z</time>
      </trkpt>
      <trkpt lat="44.71083" lon="5.08982">
        <ele>216.4</ele>
        <time>1970-01-01T04:19:10.000Z</time>
      </trkpt>
      <trkpt lat="44.71064" lon="5.09016">
        <ele>216.4</ele>
        <time>1970-01-01T04:19:16.000Z</time>
      </trkpt>
      <trkpt lat="44.71061" lon="5.09022">
        <ele>216.4</ele>
        <time>1970-01-01T04:19:17.000Z</time>
      </trkpt>
      <trkpt lat="44.71058" lon="5.09027">
        <ele>216.4</ele>
        <time>1970-01-01T04:19:18.000Z</time>
      </trkpt>
      <trkpt lat="44.71048" lon="5.09044">
        <ele>216.4</ele>
        <time>1970-01-01T04:19:21.000Z</time>
      </trkpt>
      <trkpt lat="44.71045" lon="5.09049">
        <ele>216.4</ele>
        <time>1970-01-01T04:19:22.000Z</time>
      </trkpt>
      <trkpt lat="44.71042" lon="5.09054">
        <ele>216.4</ele>
        <time>1970-01-01T04:19:23.000Z</time>
      </trkpt>
      <trkpt lat="44.71036" lon="5.09063">
        <ele>216.4</ele>
        <time>1970-01-01T04:19:25.000Z</time>
      </trkpt>
      <trkpt lat="44.71028" lon="5.09069">
        <ele>216.4</ele>
        <time>1970-01-01T04:19:27.000Z</time>
      </trkpt>
      <trkpt lat="44.71024" lon="5.09072">
        <ele>216.4</ele>
        <time>1970-01-01T04:19:28.000Z</time>
      </trkpt>
      <trkpt lat="44.71019" lon="5.09074">
        <ele>216.4</ele>
        <time>1970-01-01T04:19:29.000Z</time>
      </trkpt>
      <trkpt lat="44.71014" lon="5.09076">
        <ele>216.4</ele>
        <time>1970-01-01T04:19:30.000Z</time>
      </trkpt>
      <trkpt lat="44.7101" lon="5.09078">
        <ele>216.4</ele>
        <time>1970-01-01T04:19:31.000Z</time>
      </trkpt>
      <trkpt lat="44.71005" lon="5.09081">
        <ele>216.6</ele>
        <time>1970-01-01T04:19:32.000Z</time>
      </trkpt>
      <trkpt lat="44.71001" lon="5.09082">
        <ele>216.6</ele>
        <time>1970-01-01T04:19:33.000Z</time>
      </trkpt>
      <trkpt lat="44.70997" lon="5.09085">
        <ele>216.6</ele>
        <time>1970-01-01T04:19:34.000Z</time>
      </trkpt>
      <trkpt lat="44.70993" lon="5.09087">
        <ele>216.8</ele>
        <time>1970-01-01T04:19:35.000Z</time>
      </trkpt>
      <trkpt lat="44.7099" lon="5.09089">
        <ele>216.8</ele>
        <time>1970-01-01T04:19:36.000Z</time>
      </trkpt>
      <trkpt lat="44.70986" lon="5.09091">
        <ele>216.8</ele>
        <time>1970-01-01T04:19:37.000Z</time>
      </trkpt>
      <trkpt lat="44.70982" lon="5.09093">
        <ele>216.6</ele>
        <time>1970-01-01T04:19:38.000Z</time>
      </trkpt>
      <trkpt lat="44.70973" lon="5.09093">
        <ele>216.6</ele>
        <time>1970-01-01T04:19:40.000Z</time>
      </trkpt>
      <trkpt lat="44.70969" lon="5.09093">
        <ele>216.6</ele>
        <time>1970-01-01T04:19:41.000Z</time>
      </trkpt>
      <trkpt lat="44.70964" lon="5.09092">
        <ele>216.6</ele>
        <time>1970-01-01T04:19:42.000Z</time>
      </trkpt>
      <trkpt lat="44.70955" lon="5.09091">
        <ele>216.6</ele>
        <time>1970-01-01T04:19:44.000Z</time>
      </trkpt>
      <trkpt lat="44.70947" lon="5.09095">
        <ele>216.6</ele>
        <time>1970-01-01T04:19:46.000Z</time>
      </trkpt>
      <trkpt lat="44.70941" lon="5.09106">
        <ele>216.6</ele>
        <time>1970-01-01T04:19:48.000Z</time>
      </trkpt>
      <trkpt lat="44.70938" lon="5.09111">
        <ele>216.6</ele>
        <time>1970-01-01T04:19:49.000Z</time>
      </trkpt>
      <trkpt lat="44.70934" lon="5.09117">
        <ele>216.6</ele>
        <time>1970-01-01T04:19:50.000Z</time>
      </trkpt>
      <trkpt lat="44.70931" lon="5.09123">
        <ele>216.6</ele>
        <time>1970-01-01T04:19:51.000Z</time>
      </trkpt>
      <trkpt lat="44.70929" lon="5.09128">
        <ele>216.8</ele>
        <time>1970-01-01T04:19:52.000Z</time>
      </trkpt>
      <trkpt lat="44.70927" lon="5.09133">
        <ele>217</ele>
        <time>1970-01-01T04:19:53.000Z</time>
      </trkpt>
      <trkpt lat="44.70925" lon="5.09138">
        <ele>217</ele>
        <time>1970-01-01T04:19:54.000Z</time>
      </trkpt>
      <trkpt lat="44.70923" lon="5.09144">
        <ele>217</ele>
        <time>1970-01-01T04:19:55.000Z</time>
      </trkpt>
      <trkpt lat="44.70918" lon="5.09154">
        <ele>217.2</ele>
        <time>1970-01-01T04:19:57.000Z</time>
      </trkpt>
      <trkpt lat="44.70915" lon="5.09159">
        <ele>217.2</ele>
        <time>1970-01-01T04:19:58.000Z</time>
      </trkpt>
      <trkpt lat="44.70913" lon="5.09164">
        <ele>217.2</ele>
        <time>1970-01-01T04:19:59.000Z</time>
      </trkpt>
      <trkpt lat="44.7091" lon="5.09168">
        <ele>217.2</ele>
        <time>1970-01-01T04:20:00.000Z</time>
      </trkpt>
      <trkpt lat="44.70907" lon="5.09173">
        <ele>217.2</ele>
        <time>1970-01-01T04:20:01.000Z</time>
      </trkpt>
      <trkpt lat="44.70905" lon="5.09177">
        <ele>217.2</ele>
        <time>1970-01-01T04:20:02.000Z</time>
      </trkpt>
      <trkpt lat="44.70903" lon="5.09181">
        <ele>217.2</ele>
        <time>1970-01-01T04:20:03.000Z</time>
      </trkpt>
      <trkpt lat="44.70892" lon="5.09208">
        <ele>217</ele>
        <time>1970-01-01T04:20:08.000Z</time>
      </trkpt>
      <trkpt lat="44.70889" lon="5.09212">
        <ele>217</ele>
        <time>1970-01-01T04:20:09.000Z</time>
      </trkpt>
      <trkpt lat="44.70888" lon="5.09217">
        <ele>217</ele>
        <time>1970-01-01T04:20:10.000Z</time>
      </trkpt>
      <trkpt lat="44.70877" lon="5.09249">
        <ele>217.2</ele>
        <time>1970-01-01T04:20:15.000Z</time>
      </trkpt>
      <trkpt lat="44.70871" lon="5.09266">
        <ele>216.6</ele>
        <time>1970-01-01T04:20:17.000Z</time>
      </trkpt>
      <trkpt lat="44.70867" lon="5.09275">
        <ele>216.4</ele>
        <time>1970-01-01T04:20:18.000Z</time>
      </trkpt>
      <trkpt lat="44.70864" lon="5.09284">
        <ele>216</ele>
        <time>1970-01-01T04:20:19.000Z</time>
      </trkpt>
      <trkpt lat="44.70861" lon="5.09292">
        <ele>216</ele>
        <time>1970-01-01T04:20:20.000Z</time>
      </trkpt>
      <trkpt lat="44.70858" lon="5.093">
        <ele>215.8</ele>
        <time>1970-01-01T04:20:21.000Z</time>
      </trkpt>
      <trkpt lat="44.70854" lon="5.09309">
        <ele>215.8</ele>
        <time>1970-01-01T04:20:22.000Z</time>
      </trkpt>
      <trkpt lat="44.70852" lon="5.09317">
        <ele>215.8</ele>
        <time>1970-01-01T04:20:23.000Z</time>
      </trkpt>
      <trkpt lat="44.70849" lon="5.09323">
        <ele>216</ele>
        <time>1970-01-01T04:20:24.000Z</time>
      </trkpt>
      <trkpt lat="44.70845" lon="5.0934">
        <ele>216.2</ele>
        <time>1970-01-01T04:20:26.000Z</time>
      </trkpt>
      <trkpt lat="44.70845" lon="5.09347">
        <ele>216.2</ele>
        <time>1970-01-01T04:20:27.000Z</time>
      </trkpt>
      <trkpt lat="44.70847" lon="5.09354">
        <ele>216.2</ele>
        <time>1970-01-01T04:20:28.000Z</time>
      </trkpt>
      <trkpt lat="44.7085" lon="5.09357">
        <ele>216.4</ele>
        <time>1970-01-01T04:20:29.000Z</time>
      </trkpt>
      <trkpt lat="44.70854" lon="5.09357">
        <ele>216.6</ele>
        <time>1970-01-01T04:20:30.000Z</time>
      </trkpt>
      <trkpt lat="44.70858" lon="5.09357">
        <ele>216.6</ele>
        <time>1970-01-01T04:20:31.000Z</time>
      </trkpt>
      <trkpt lat="44.70863" lon="5.09357">
        <ele>217</ele>
        <time>1970-01-01T04:20:32.000Z</time>
      </trkpt>
      <trkpt lat="44.70868" lon="5.09358">
        <ele>217.2</ele>
        <time>1970-01-01T04:20:33.000Z</time>
      </trkpt>
      <trkpt lat="44.70871" lon="5.09358">
        <ele>217.4</ele>
        <time>1970-01-01T04:20:34.000Z</time>
      </trkpt>
      <trkpt lat="44.70875" lon="5.09359">
        <ele>217.6</ele>
        <time>1970-01-01T04:20:35.000Z</time>
      </trkpt>
      <trkpt lat="44.70879" lon="5.09361">
        <ele>217.6</ele>
        <time>1970-01-01T04:20:36.000Z</time>
      </trkpt>
      <trkpt lat="44.70888" lon="5.09364">
        <ele>217.6</ele>
        <time>1970-01-01T04:20:38.000Z</time>
      </trkpt>
      <trkpt lat="44.70891" lon="5.09365">
        <ele>217.8</ele>
        <time>1970-01-01T04:20:39.000Z</time>
      </trkpt>
      <trkpt lat="44.70894" lon="5.09366">
        <ele>218.2</ele>
        <time>1970-01-01T04:20:40.000Z</time>
      </trkpt>
      <trkpt lat="44.70898" lon="5.09367">
        <ele>218.4</ele>
        <time>1970-01-01T04:20:41.000Z</time>
      </trkpt>
      <trkpt lat="44.70905" lon="5.09369">
        <ele>218.6</ele>
        <time>1970-01-01T04:20:43.000Z</time>
      </trkpt>
      <trkpt lat="44.70909" lon="5.0937">
        <ele>218.8</ele>
        <time>1970-01-01T04:20:44.000Z</time>
      </trkpt>
      <trkpt lat="44.70917" lon="5.09371">
        <ele>219.2</ele>
        <time>1970-01-01T04:20:46.000Z</time>
      </trkpt>
      <trkpt lat="44.70921" lon="5.09372">
        <ele>219.4</ele>
        <time>1970-01-01T04:20:47.000Z</time>
      </trkpt>
      <trkpt lat="44.70925" lon="5.09373">
        <ele>219.6</ele>
        <time>1970-01-01T04:20:48.000Z</time>
      </trkpt>
      <trkpt lat="44.70929" lon="5.09374">
        <ele>220</ele>
        <time>1970-01-01T04:20:49.000Z</time>
      </trkpt>
      <trkpt lat="44.70932" lon="5.09376">
        <ele>220.2</ele>
        <time>1970-01-01T04:20:50.000Z</time>
      </trkpt>
      <trkpt lat="44.70935" lon="5.09377">
        <ele>220.6</ele>
        <time>1970-01-01T04:20:51.000Z</time>
      </trkpt>
      <trkpt lat="44.70939" lon="5.09378">
        <ele>220.6</ele>
        <time>1970-01-01T04:20:52.000Z</time>
      </trkpt>
      <trkpt lat="44.70943" lon="5.09379">
        <ele>220.8</ele>
        <time>1970-01-01T04:20:53.000Z</time>
      </trkpt>
      <trkpt lat="44.70946" lon="5.0938">
        <ele>221</ele>
        <time>1970-01-01T04:20:54.000Z</time>
      </trkpt>
      <trkpt lat="44.70949" lon="5.09382">
        <ele>221.4</ele>
        <time>1970-01-01T04:20:55.000Z</time>
      </trkpt>
      <trkpt lat="44.70953" lon="5.09384">
        <ele>221.6</ele>
        <time>1970-01-01T04:20:56.000Z</time>
      </trkpt>
      <trkpt lat="44.70956" lon="5.09384">
        <ele>222</ele>
        <time>1970-01-01T04:20:57.000Z</time>
      </trkpt>
      <trkpt lat="44.70961" lon="5.09385">
        <ele>222.2</ele>
        <time>1970-01-01T04:20:58.000Z</time>
      </trkpt>
      <trkpt lat="44.70965" lon="5.09386">
        <ele>222.4</ele>
        <time>1970-01-01T04:20:59.000Z</time>
      </trkpt>
      <trkpt lat="44.7097" lon="5.09387">
        <ele>222.6</ele>
        <time>1970-01-01T04:21:00.000Z</time>
      </trkpt>
      <trkpt lat="44.70974" lon="5.09388">
        <ele>222.8</ele>
        <time>1970-01-01T04:21:01.000Z</time>
      </trkpt>
      <trkpt lat="44.70977" lon="5.09389">
        <ele>222.8</ele>
        <time>1970-01-01T04:21:02.000Z</time>
      </trkpt>
      <trkpt lat="44.70981" lon="5.09391">
        <ele>223</ele>
        <time>1970-01-01T04:21:03.000Z</time>
      </trkpt>
      <trkpt lat="44.70985" lon="5.09393">
        <ele>223.2</ele>
        <time>1970-01-01T04:21:04.000Z</time>
      </trkpt>
      <trkpt lat="44.70988" lon="5.09395">
        <ele>223.6</ele>
        <time>1970-01-01T04:21:05.000Z</time>
      </trkpt>
      <trkpt lat="44.70991" lon="5.09397">
        <ele>223.8</ele>
        <time>1970-01-01T04:21:06.000Z</time>
      </trkpt>
      <trkpt lat="44.70994" lon="5.09398">
        <ele>224</ele>
        <time>1970-01-01T04:21:07.000Z</time>
      </trkpt>
      <trkpt lat="44.70998" lon="5.09401">
        <ele>224.4</ele>
        <time>1970-01-01T04:21:08.000Z</time>
      </trkpt>
      <trkpt lat="44.71002" lon="5.09403">
        <ele>224.4</ele>
        <time>1970-01-01T04:21:09.000Z</time>
      </trkpt>
      <trkpt lat="44.71005" lon="5.09408">
        <ele>224.8</ele>
        <time>1970-01-01T04:21:10.000Z</time>
      </trkpt>
      <trkpt lat="44.71007" lon="5.09411">
        <ele>225</ele>
        <time>1970-01-01T04:21:11.000Z</time>
      </trkpt>
      <trkpt lat="44.71011" lon="5.09415">
        <ele>225.4</ele>
        <time>1970-01-01T04:21:12.000Z</time>
      </trkpt>
      <trkpt lat="44.71013" lon="5.09418">
        <ele>225.6</ele>
        <time>1970-01-01T04:21:13.000Z</time>
      </trkpt>
      <trkpt lat="44.71015" lon="5.09421">
        <ele>226</ele>
        <time>1970-01-01T04:21:14.000Z</time>
      </trkpt>
      <trkpt lat="44.71017" lon="5.09424">
        <ele>226.2</ele>
        <time>1970-01-01T04:21:15.000Z</time>
      </trkpt>
      <trkpt lat="44.71019" lon="5.09427">
        <ele>226.4</ele>
        <time>1970-01-01T04:21:16.000Z</time>
      </trkpt>
      <trkpt lat="44.71021" lon="5.0943">
        <ele>226.6</ele>
        <time>1970-01-01T04:21:17.000Z</time>
      </trkpt>
      <trkpt lat="44.71023" lon="5.09434">
        <ele>226.8</ele>
        <time>1970-01-01T04:21:18.000Z</time>
      </trkpt>
      <trkpt lat="44.71025" lon="5.09438">
        <ele>227</ele>
        <time>1970-01-01T04:21:19.000Z</time>
      </trkpt>
      <trkpt lat="44.71026" lon="5.09442">
        <ele>227</ele>
        <time>1970-01-01T04:21:20.000Z</time>
      </trkpt>
      <trkpt lat="44.71027" lon="5.09446">
        <ele>227.2</ele>
        <time>1970-01-01T04:21:21.000Z</time>
      </trkpt>
      <trkpt lat="44.71028" lon="5.0945">
        <ele>227.6</ele>
        <time>1970-01-01T04:21:22.000Z</time>
      </trkpt>
      <trkpt lat="44.71029" lon="5.09454">
        <ele>227.6</ele>
        <time>1970-01-01T04:21:23.000Z</time>
      </trkpt>
      <trkpt lat="44.7103" lon="5.09458">
        <ele>227.8</ele>
        <time>1970-01-01T04:21:24.000Z</time>
      </trkpt>
      <trkpt lat="44.71031" lon="5.09461">
        <ele>228</ele>
        <time>1970-01-01T04:21:25.000Z</time>
      </trkpt>
      <trkpt lat="44.71031" lon="5.09465">
        <ele>228</ele>
        <time>1970-01-01T04:21:26.000Z</time>
      </trkpt>
      <trkpt lat="44.71031" lon="5.09469">
        <ele>228.2</ele>
        <time>1970-01-01T04:21:27.000Z</time>
      </trkpt>
      <trkpt lat="44.71032" lon="5.09474">
        <ele>228.4</ele>
        <time>1970-01-01T04:21:28.000Z</time>
      </trkpt>
      <trkpt lat="44.71034" lon="5.09478">
        <ele>228.4</ele>
        <time>1970-01-01T04:21:29.000Z</time>
      </trkpt>
      <trkpt lat="44.71035" lon="5.09483">
        <ele>228.6</ele>
        <time>1970-01-01T04:21:30.000Z</time>
      </trkpt>
      <trkpt lat="44.71036" lon="5.09486">
        <ele>228.8</ele>
        <time>1970-01-01T04:21:31.000Z</time>
      </trkpt>
      <trkpt lat="44.71039" lon="5.09491">
        <ele>229</ele>
        <time>1970-01-01T04:21:32.000Z</time>
      </trkpt>
      <trkpt lat="44.71042" lon="5.09495">
        <ele>229.2</ele>
        <time>1970-01-01T04:21:33.000Z</time>
      </trkpt>
      <trkpt lat="44.71045" lon="5.09499">
        <ele>229.4</ele>
        <time>1970-01-01T04:21:34.000Z</time>
      </trkpt>
      <trkpt lat="44.71047" lon="5.09502">
        <ele>229.4</ele>
        <time>1970-01-01T04:21:35.000Z</time>
      </trkpt>
      <trkpt lat="44.71049" lon="5.09506">
        <ele>229.6</ele>
        <time>1970-01-01T04:21:36.000Z</time>
      </trkpt>
      <trkpt lat="44.71052" lon="5.0951">
        <ele>229.8</ele>
        <time>1970-01-01T04:21:37.000Z</time>
      </trkpt>
      <trkpt lat="44.71053" lon="5.09514">
        <ele>230.2</ele>
        <time>1970-01-01T04:21:38.000Z</time>
      </trkpt>
      <trkpt lat="44.71054" lon="5.09517">
        <ele>230.4</ele>
        <time>1970-01-01T04:21:39.000Z</time>
      </trkpt>
      <trkpt lat="44.71057" lon="5.09522">
        <ele>230.6</ele>
        <time>1970-01-01T04:21:40.000Z</time>
      </trkpt>
      <trkpt lat="44.71057" lon="5.09527">
        <ele>230.6</ele>
        <time>1970-01-01T04:21:41.000Z</time>
      </trkpt>
      <trkpt lat="44.71058" lon="5.09532">
        <ele>231</ele>
        <time>1970-01-01T04:21:42.000Z</time>
      </trkpt>
      <trkpt lat="44.71059" lon="5.09536">
        <ele>231.2</ele>
        <time>1970-01-01T04:21:43.000Z</time>
      </trkpt>
      <trkpt lat="44.71059" lon="5.0954">
        <ele>231.4</ele>
        <time>1970-01-01T04:21:44.000Z</time>
      </trkpt>
      <trkpt lat="44.71059" lon="5.09545">
        <ele>231.6</ele>
        <time>1970-01-01T04:21:45.000Z</time>
      </trkpt>
      <trkpt lat="44.71059" lon="5.0955">
        <ele>231.8</ele>
        <time>1970-01-01T04:21:46.000Z</time>
      </trkpt>
      <trkpt lat="44.71059" lon="5.09555">
        <ele>231.8</ele>
        <time>1970-01-01T04:21:47.000Z</time>
      </trkpt>
      <trkpt lat="44.71058" lon="5.09559">
        <ele>232</ele>
        <time>1970-01-01T04:21:48.000Z</time>
      </trkpt>
      <trkpt lat="44.71058" lon="5.09564">
        <ele>232.2</ele>
        <time>1970-01-01T04:21:49.000Z</time>
      </trkpt>
      <trkpt lat="44.71058" lon="5.09569">
        <ele>232.2</ele>
        <time>1970-01-01T04:21:50.000Z</time>
      </trkpt>
      <trkpt lat="44.71057" lon="5.09575">
        <ele>232.2</ele>
        <time>1970-01-01T04:21:51.000Z</time>
      </trkpt>
      <trkpt lat="44.71057" lon="5.0958">
        <ele>232.4</ele>
        <time>1970-01-01T04:21:52.000Z</time>
      </trkpt>
      <trkpt lat="44.71056" lon="5.09585">
        <ele>232.4</ele>
        <time>1970-01-01T04:21:53.000Z</time>
      </trkpt>
      <trkpt lat="44.71056" lon="5.09591">
        <ele>232.4</ele>
        <time>1970-01-01T04:21:54.000Z</time>
      </trkpt>
      <trkpt lat="44.71055" lon="5.09596">
        <ele>232.6</ele>
        <time>1970-01-01T04:21:55.000Z</time>
      </trkpt>
      <trkpt lat="44.71054" lon="5.09601">
        <ele>232.6</ele>
        <time>1970-01-01T04:21:56.000Z</time>
      </trkpt>
      <trkpt lat="44.71054" lon="5.09606">
        <ele>232.6</ele>
        <time>1970-01-01T04:21:57.000Z</time>
      </trkpt>
      <trkpt lat="44.71053" lon="5.09612">
        <ele>232.6</ele>
        <time>1970-01-01T04:21:58.000Z</time>
      </trkpt>
      <trkpt lat="44.71052" lon="5.09617">
        <ele>232.6</ele>
        <time>1970-01-01T04:21:59.000Z</time>
      </trkpt>
      <trkpt lat="44.71051" lon="5.09621">
        <ele>232.8</ele>
        <time>1970-01-01T04:22:00.000Z</time>
      </trkpt>
      <trkpt lat="44.71051" lon="5.09626">
        <ele>232.8</ele>
        <time>1970-01-01T04:22:01.000Z</time>
      </trkpt>
      <trkpt lat="44.7105" lon="5.09631">
        <ele>232.8</ele>
        <time>1970-01-01T04:22:02.000Z</time>
      </trkpt>
      <trkpt lat="44.71049" lon="5.09636">
        <ele>232.8</ele>
        <time>1970-01-01T04:22:03.000Z</time>
      </trkpt>
      <trkpt lat="44.71048" lon="5.09642">
        <ele>233</ele>
        <time>1970-01-01T04:22:04.000Z</time>
      </trkpt>
      <trkpt lat="44.71047" lon="5.09647">
        <ele>233.2</ele>
        <time>1970-01-01T04:22:05.000Z</time>
      </trkpt>
      <trkpt lat="44.71046" lon="5.09652">
        <ele>233.2</ele>
        <time>1970-01-01T04:22:06.000Z</time>
      </trkpt>
      <trkpt lat="44.71045" lon="5.09656">
        <ele>233.4</ele>
        <time>1970-01-01T04:22:07.000Z</time>
      </trkpt>
      <trkpt lat="44.71044" lon="5.09662">
        <ele>233.4</ele>
        <time>1970-01-01T04:22:08.000Z</time>
      </trkpt>
      <trkpt lat="44.71043" lon="5.09666">
        <ele>233.4</ele>
        <time>1970-01-01T04:22:09.000Z</time>
      </trkpt>
      <trkpt lat="44.71042" lon="5.09672">
        <ele>233.6</ele>
        <time>1970-01-01T04:22:10.000Z</time>
      </trkpt>
      <trkpt lat="44.7104" lon="5.09683">
        <ele>233.8</ele>
        <time>1970-01-01T04:22:12.000Z</time>
      </trkpt>
      <trkpt lat="44.71039" lon="5.09693">
        <ele>234.2</ele>
        <time>1970-01-01T04:22:14.000Z</time>
      </trkpt>
      <trkpt lat="44.71037" lon="5.09698">
        <ele>234.4</ele>
        <time>1970-01-01T04:22:15.000Z</time>
      </trkpt>
      <trkpt lat="44.71037" lon="5.09702">
        <ele>234.6</ele>
        <time>1970-01-01T04:22:16.000Z</time>
      </trkpt>
      <trkpt lat="44.71035" lon="5.09708">
        <ele>234.6</ele>
        <time>1970-01-01T04:22:17.000Z</time>
      </trkpt>
      <trkpt lat="44.71034" lon="5.09712">
        <ele>234.8</ele>
        <time>1970-01-01T04:22:18.000Z</time>
      </trkpt>
      <trkpt lat="44.71033" lon="5.09717">
        <ele>235</ele>
        <time>1970-01-01T04:22:19.000Z</time>
      </trkpt>
      <trkpt lat="44.71031" lon="5.09722">
        <ele>235.4</ele>
        <time>1970-01-01T04:22:20.000Z</time>
      </trkpt>
      <trkpt lat="44.7103" lon="5.09727">
        <ele>235.6</ele>
        <time>1970-01-01T04:22:21.000Z</time>
      </trkpt>
      <trkpt lat="44.71029" lon="5.09732">
        <ele>235.6</ele>
        <time>1970-01-01T04:22:22.000Z</time>
      </trkpt>
      <trkpt lat="44.71028" lon="5.09736">
        <ele>236</ele>
        <time>1970-01-01T04:22:23.000Z</time>
      </trkpt>
      <trkpt lat="44.71026" lon="5.09741">
        <ele>236.2</ele>
        <time>1970-01-01T04:22:24.000Z</time>
      </trkpt>
      <trkpt lat="44.71025" lon="5.09746">
        <ele>236.4</ele>
        <time>1970-01-01T04:22:25.000Z</time>
      </trkpt>
      <trkpt lat="44.71024" lon="5.0975">
        <ele>236.6</ele>
        <time>1970-01-01T04:22:26.000Z</time>
      </trkpt>
      <trkpt lat="44.71023" lon="5.09755">
        <ele>236.8</ele>
        <time>1970-01-01T04:22:27.000Z</time>
      </trkpt>
      <trkpt lat="44.71022" lon="5.09759">
        <ele>236.8</ele>
        <time>1970-01-01T04:22:28.000Z</time>
      </trkpt>
      <trkpt lat="44.71022" lon="5.09764">
        <ele>237</ele>
        <time>1970-01-01T04:22:29.000Z</time>
      </trkpt>
      <trkpt lat="44.71021" lon="5.09768">
        <ele>237</ele>
        <time>1970-01-01T04:22:30.000Z</time>
      </trkpt>
      <trkpt lat="44.71021" lon="5.09772">
        <ele>237</ele>
        <time>1970-01-01T04:22:31.000Z</time>
      </trkpt>
      <trkpt lat="44.7102" lon="5.09777">
        <ele>237</ele>
        <time>1970-01-01T04:22:32.000Z</time>
      </trkpt>
      <trkpt lat="44.7102" lon="5.09782">
        <ele>237.2</ele>
        <time>1970-01-01T04:22:33.000Z</time>
      </trkpt>
      <trkpt lat="44.71019" lon="5.09787">
        <ele>237.2</ele>
        <time>1970-01-01T04:22:34.000Z</time>
      </trkpt>
      <trkpt lat="44.71019" lon="5.09791">
        <ele>237.2</ele>
        <time>1970-01-01T04:22:35.000Z</time>
      </trkpt>
      <trkpt lat="44.71019" lon="5.09798">
        <ele>237.2</ele>
        <time>1970-01-01T04:22:36.000Z</time>
      </trkpt>
      <trkpt lat="44.71018" lon="5.09803">
        <ele>237.2</ele>
        <time>1970-01-01T04:22:37.000Z</time>
      </trkpt>
      <trkpt lat="44.71016" lon="5.09808">
        <ele>237</ele>
        <time>1970-01-01T04:22:38.000Z</time>
      </trkpt>
      <trkpt lat="44.71014" lon="5.09813">
        <ele>237</ele>
        <time>1970-01-01T04:22:39.000Z</time>
      </trkpt>
      <trkpt lat="44.71013" lon="5.09818">
        <ele>237</ele>
        <time>1970-01-01T04:22:40.000Z</time>
      </trkpt>
      <trkpt lat="44.71012" lon="5.09823">
        <ele>237</ele>
        <time>1970-01-01T04:22:41.000Z</time>
      </trkpt>
      <trkpt lat="44.71011" lon="5.09828">
        <ele>237</ele>
        <time>1970-01-01T04:22:42.000Z</time>
      </trkpt>
      <trkpt lat="44.7101" lon="5.09833">
        <ele>237.2</ele>
        <time>1970-01-01T04:22:43.000Z</time>
      </trkpt>
      <trkpt lat="44.7101" lon="5.09837">
        <ele>237.2</ele>
        <time>1970-01-01T04:22:44.000Z</time>
      </trkpt>
      <trkpt lat="44.71009" lon="5.09848">
        <ele>237.4</ele>
        <time>1970-01-01T04:22:46.000Z</time>
      </trkpt>
      <trkpt lat="44.71009" lon="5.09853">
        <ele>237.6</ele>
        <time>1970-01-01T04:22:47.000Z</time>
      </trkpt>
      <trkpt lat="44.71008" lon="5.09857">
        <ele>237.6</ele>
        <time>1970-01-01T04:22:48.000Z</time>
      </trkpt>
      <trkpt lat="44.71009" lon="5.09867">
        <ele>238</ele>
        <time>1970-01-01T04:22:50.000Z</time>
      </trkpt>
      <trkpt lat="44.7101" lon="5.09877">
        <ele>238.8</ele>
        <time>1970-01-01T04:22:52.000Z</time>
      </trkpt>
      <trkpt lat="44.71011" lon="5.09882">
        <ele>239.2</ele>
        <time>1970-01-01T04:22:53.000Z</time>
      </trkpt>
      <trkpt lat="44.71012" lon="5.09889">
        <ele>239.4</ele>
        <time>1970-01-01T04:22:54.000Z</time>
      </trkpt>
      <trkpt lat="44.71012" lon="5.09894">
        <ele>240</ele>
        <time>1970-01-01T04:22:55.000Z</time>
      </trkpt>
      <trkpt lat="44.71012" lon="5.09899">
        <ele>240.2</ele>
        <time>1970-01-01T04:22:56.000Z</time>
      </trkpt>
      <trkpt lat="44.71012" lon="5.09903">
        <ele>240.6</ele>
        <time>1970-01-01T04:22:57.000Z</time>
      </trkpt>
      <trkpt lat="44.71012" lon="5.09908">
        <ele>241</ele>
        <time>1970-01-01T04:22:58.000Z</time>
      </trkpt>
      <trkpt lat="44.71013" lon="5.09913">
        <ele>241.2</ele>
        <time>1970-01-01T04:22:59.000Z</time>
      </trkpt>
      <trkpt lat="44.71013" lon="5.09917">
        <ele>241.6</ele>
        <time>1970-01-01T04:23:00.000Z</time>
      </trkpt>
      <trkpt lat="44.71013" lon="5.09921">
        <ele>242</ele>
        <time>1970-01-01T04:23:01.000Z</time>
      </trkpt>
      <trkpt lat="44.71014" lon="5.09926">
        <ele>242.4</ele>
        <time>1970-01-01T04:23:02.000Z</time>
      </trkpt>
      <trkpt lat="44.71014" lon="5.0993">
        <ele>242.6</ele>
        <time>1970-01-01T04:23:03.000Z</time>
      </trkpt>
      <trkpt lat="44.71014" lon="5.09935">
        <ele>243</ele>
        <time>1970-01-01T04:23:04.000Z</time>
      </trkpt>
      <trkpt lat="44.71014" lon="5.09939">
        <ele>243.2</ele>
        <time>1970-01-01T04:23:05.000Z</time>
      </trkpt>
      <trkpt lat="44.71013" lon="5.09944">
        <ele>243.4</ele>
        <time>1970-01-01T04:23:06.000Z</time>
      </trkpt>
      <trkpt lat="44.71013" lon="5.09949">
        <ele>243.6</ele>
        <time>1970-01-01T04:23:07.000Z</time>
      </trkpt>
      <trkpt lat="44.71013" lon="5.09953">
        <ele>243.8</ele>
        <time>1970-01-01T04:23:08.000Z</time>
      </trkpt>
      <trkpt lat="44.71013" lon="5.09958">
        <ele>244.2</ele>
        <time>1970-01-01T04:23:09.000Z</time>
      </trkpt>
      <trkpt lat="44.71012" lon="5.09964">
        <ele>244.6</ele>
        <time>1970-01-01T04:23:10.000Z</time>
      </trkpt>
      <trkpt lat="44.71012" lon="5.09969">
        <ele>244.8</ele>
        <time>1970-01-01T04:23:11.000Z</time>
      </trkpt>
      <trkpt lat="44.71011" lon="5.09973">
        <ele>245</ele>
        <time>1970-01-01T04:23:12.000Z</time>
      </trkpt>
      <trkpt lat="44.7101" lon="5.09978">
        <ele>245.4</ele>
        <time>1970-01-01T04:23:13.000Z</time>
      </trkpt>
      <trkpt lat="44.71009" lon="5.09983">
        <ele>245.6</ele>
        <time>1970-01-01T04:23:14.000Z</time>
      </trkpt>
      <trkpt lat="44.71009" lon="5.09987">
        <ele>245.8</ele>
        <time>1970-01-01T04:23:15.000Z</time>
      </trkpt>
      <trkpt lat="44.71008" lon="5.09992">
        <ele>246</ele>
        <time>1970-01-01T04:23:16.000Z</time>
      </trkpt>
      <trkpt lat="44.71007" lon="5.09997">
        <ele>246.2</ele>
        <time>1970-01-01T04:23:17.000Z</time>
      </trkpt>
      <trkpt lat="44.71007" lon="5.10002">
        <ele>246.4</ele>
        <time>1970-01-01T04:23:18.000Z</time>
      </trkpt>
      <trkpt lat="44.71006" lon="5.10007">
        <ele>246.8</ele>
        <time>1970-01-01T04:23:19.000Z</time>
      </trkpt>
      <trkpt lat="44.71005" lon="5.10012">
        <ele>247</ele>
        <time>1970-01-01T04:23:20.000Z</time>
      </trkpt>
      <trkpt lat="44.71004" lon="5.10016">
        <ele>247.4</ele>
        <time>1970-01-01T04:23:21.000Z</time>
      </trkpt>
      <trkpt lat="44.71003" lon="5.10022">
        <ele>247.8</ele>
        <time>1970-01-01T04:23:22.000Z</time>
      </trkpt>
      <trkpt lat="44.71003" lon="5.10026">
        <ele>248</ele>
        <time>1970-01-01T04:23:23.000Z</time>
      </trkpt>
      <trkpt lat="44.71002" lon="5.10029">
        <ele>248.4</ele>
        <time>1970-01-01T04:23:24.000Z</time>
      </trkpt>
      <trkpt lat="44.71001" lon="5.10035">
        <ele>248.6</ele>
        <time>1970-01-01T04:23:25.000Z</time>
      </trkpt>
      <trkpt lat="44.71" lon="5.10039">
        <ele>248.8</ele>
        <time>1970-01-01T04:23:26.000Z</time>
      </trkpt>
      <trkpt lat="44.71" lon="5.10043">
        <ele>249.2</ele>
        <time>1970-01-01T04:23:27.000Z</time>
      </trkpt>
      <trkpt lat="44.70999" lon="5.10047">
        <ele>249.4</ele>
        <time>1970-01-01T04:23:28.000Z</time>
      </trkpt>
      <trkpt lat="44.70998" lon="5.10052">
        <ele>249.8</ele>
        <time>1970-01-01T04:23:29.000Z</time>
      </trkpt>
      <trkpt lat="44.70997" lon="5.10056">
        <ele>250.2</ele>
        <time>1970-01-01T04:23:30.000Z</time>
      </trkpt>
      <trkpt lat="44.70997" lon="5.10061">
        <ele>250.6</ele>
        <time>1970-01-01T04:23:31.000Z</time>
      </trkpt>
      <trkpt lat="44.70995" lon="5.10065">
        <ele>251.2</ele>
        <time>1970-01-01T04:23:32.000Z</time>
      </trkpt>
      <trkpt lat="44.70994" lon="5.10071">
        <ele>251.6</ele>
        <time>1970-01-01T04:23:33.000Z</time>
      </trkpt>
      <trkpt lat="44.70992" lon="5.10076">
        <ele>252</ele>
        <time>1970-01-01T04:23:34.000Z</time>
      </trkpt>
      <trkpt lat="44.70991" lon="5.10082">
        <ele>252.6</ele>
        <time>1970-01-01T04:23:35.000Z</time>
      </trkpt>
      <trkpt lat="44.70989" lon="5.10088">
        <ele>253</ele>
        <time>1970-01-01T04:23:36.000Z</time>
      </trkpt>
      <trkpt lat="44.70987" lon="5.10093">
        <ele>253.8</ele>
        <time>1970-01-01T04:23:37.000Z</time>
      </trkpt>
      <trkpt lat="44.70985" lon="5.10099">
        <ele>254.4</ele>
        <time>1970-01-01T04:23:38.000Z</time>
      </trkpt>
      <trkpt lat="44.70984" lon="5.10104">
        <ele>255</ele>
        <time>1970-01-01T04:23:39.000Z</time>
      </trkpt>
      <trkpt lat="44.70983" lon="5.10109">
        <ele>256</ele>
        <time>1970-01-01T04:23:40.000Z</time>
      </trkpt>
      <trkpt lat="44.70983" lon="5.10113">
        <ele>256.6</ele>
        <time>1970-01-01T04:23:41.000Z</time>
      </trkpt>
      <trkpt lat="44.70983" lon="5.10116">
        <ele>257.2</ele>
        <time>1970-01-01T04:23:42.000Z</time>
      </trkpt>
      <trkpt lat="44.70983" lon="5.10119">
        <ele>257.6</ele>
        <time>1970-01-01T04:23:43.000Z</time>
      </trkpt>
      <trkpt lat="44.70982" lon="5.10122">
        <ele>258</ele>
        <time>1970-01-01T04:23:44.000Z</time>
      </trkpt>
      <trkpt lat="44.70982" lon="5.10125">
        <ele>258.4</ele>
        <time>1970-01-01T04:23:45.000Z</time>
      </trkpt>
      <trkpt lat="44.70982" lon="5.10128">
        <ele>258.6</ele>
        <time>1970-01-01T04:23:46.000Z</time>
      </trkpt>
      <trkpt lat="44.70982" lon="5.10132">
        <ele>258.8</ele>
        <time>1970-01-01T04:23:47.000Z</time>
      </trkpt>
      <trkpt lat="44.70983" lon="5.10135">
        <ele>259.2</ele>
        <time>1970-01-01T04:23:48.000Z</time>
      </trkpt>
      <trkpt lat="44.70983" lon="5.10139">
        <ele>259.4</ele>
        <time>1970-01-01T04:23:49.000Z</time>
      </trkpt>
      <trkpt lat="44.70983" lon="5.10142">
        <ele>259.6</ele>
        <time>1970-01-01T04:23:50.000Z</time>
      </trkpt>
      <trkpt lat="44.70984" lon="5.10146">
        <ele>259.8</ele>
        <time>1970-01-01T04:23:51.000Z</time>
      </trkpt>
      <trkpt lat="44.70984" lon="5.1015">
        <ele>260.2</ele>
        <time>1970-01-01T04:23:52.000Z</time>
      </trkpt>
      <trkpt lat="44.70986" lon="5.10154">
        <ele>260.4</ele>
        <time>1970-01-01T04:23:53.000Z</time>
      </trkpt>
      <trkpt lat="44.70988" lon="5.10158">
        <ele>260.8</ele>
        <time>1970-01-01T04:23:54.000Z</time>
      </trkpt>
      <trkpt lat="44.70989" lon="5.1016">
        <ele>261</ele>
        <time>1970-01-01T04:23:55.000Z</time>
      </trkpt>
      <trkpt lat="44.7099" lon="5.10163">
        <ele>261.2</ele>
        <time>1970-01-01T04:23:56.000Z</time>
      </trkpt>
      <trkpt lat="44.70991" lon="5.10165">
        <ele>261.4</ele>
        <time>1970-01-01T04:23:57.000Z</time>
      </trkpt>
      <trkpt lat="44.70992" lon="5.10167">
        <ele>261.4</ele>
        <time>1970-01-01T04:23:58.000Z</time>
      </trkpt>
      <trkpt lat="44.70993" lon="5.10168">
        <ele>261.6</ele>
        <time>1970-01-01T04:23:59.000Z</time>
      </trkpt>
      <trkpt lat="44.70994" lon="5.1017">
        <ele>261.6</ele>
        <time>1970-01-01T04:24:00.000Z</time>
      </trkpt>
      <trkpt lat="44.70996" lon="5.10172">
        <ele>261.6</ele>
        <time>1970-01-01T04:24:01.000Z</time>
      </trkpt>
      <trkpt lat="44.70996" lon="5.10174">
        <ele>261.6</ele>
        <time>1970-01-01T04:24:02.000Z</time>
      </trkpt>
      <trkpt lat="44.70998" lon="5.10177">
        <ele>261.6</ele>
        <time>1970-01-01T04:24:03.000Z</time>
      </trkpt>
      <trkpt lat="44.70999" lon="5.10179">
        <ele>261.8</ele>
        <time>1970-01-01T04:24:04.000Z</time>
      </trkpt>
      <trkpt lat="44.71" lon="5.10182">
        <ele>261.8</ele>
        <time>1970-01-01T04:24:05.000Z</time>
      </trkpt>
      <trkpt lat="44.71001" lon="5.10184">
        <ele>262</ele>
        <time>1970-01-01T04:24:06.000Z</time>
      </trkpt>
      <trkpt lat="44.71003" lon="5.10187">
        <ele>262</ele>
        <time>1970-01-01T04:24:07.000Z</time>
      </trkpt>
      <trkpt lat="44.71003" lon="5.10189">
        <ele>262</ele>
        <time>1970-01-01T04:24:08.000Z</time>
      </trkpt>
      <trkpt lat="44.71004" lon="5.10192">
        <ele>262</ele>
        <time>1970-01-01T04:24:09.000Z</time>
      </trkpt>
      <trkpt lat="44.71005" lon="5.10195">
        <ele>262.2</ele>
        <time>1970-01-01T04:24:10.000Z</time>
      </trkpt>
      <trkpt lat="44.71006" lon="5.10197">
        <ele>262.2</ele>
        <time>1970-01-01T04:24:11.000Z</time>
      </trkpt>
      <trkpt lat="44.71006" lon="5.10201">
        <ele>262.4</ele>
        <time>1970-01-01T04:24:12.000Z</time>
      </trkpt>
      <trkpt lat="44.71007" lon="5.10204">
        <ele>262.6</ele>
        <time>1970-01-01T04:24:13.000Z</time>
      </trkpt>
      <trkpt lat="44.71008" lon="5.10208">
        <ele>262.6</ele>
        <time>1970-01-01T04:24:14.000Z</time>
      </trkpt>
      <trkpt lat="44.71009" lon="5.10212">
        <ele>262.8</ele>
        <time>1970-01-01T04:24:15.000Z</time>
      </trkpt>
      <trkpt lat="44.71009" lon="5.10216">
        <ele>262.8</ele>
        <time>1970-01-01T04:24:16.000Z</time>
      </trkpt>
      <trkpt lat="44.71009" lon="5.10219">
        <ele>263</ele>
        <time>1970-01-01T04:24:17.000Z</time>
      </trkpt>
      <trkpt lat="44.7101" lon="5.10223">
        <ele>263.2</ele>
        <time>1970-01-01T04:24:18.000Z</time>
      </trkpt>
      <trkpt lat="44.7101" lon="5.10226">
        <ele>263.4</ele>
        <time>1970-01-01T04:24:19.000Z</time>
      </trkpt>
      <trkpt lat="44.7101" lon="5.1023">
        <ele>263.8</ele>
        <time>1970-01-01T04:24:20.000Z</time>
      </trkpt>
      <trkpt lat="44.71009" lon="5.10234">
        <ele>264</ele>
        <time>1970-01-01T04:24:21.000Z</time>
      </trkpt>
      <trkpt lat="44.7101" lon="5.10237">
        <ele>264.4</ele>
        <time>1970-01-01T04:24:22.000Z</time>
      </trkpt>
      <trkpt lat="44.7101" lon="5.10241">
        <ele>264.6</ele>
        <time>1970-01-01T04:24:23.000Z</time>
      </trkpt>
      <trkpt lat="44.71011" lon="5.10245">
        <ele>264.8</ele>
        <time>1970-01-01T04:24:24.000Z</time>
      </trkpt>
      <trkpt lat="44.71011" lon="5.10249">
        <ele>265</ele>
        <time>1970-01-01T04:24:25.000Z</time>
      </trkpt>
      <trkpt lat="44.71011" lon="5.10253">
        <ele>265.2</ele>
        <time>1970-01-01T04:24:26.000Z</time>
      </trkpt>
      <trkpt lat="44.71011" lon="5.10257">
        <ele>265.4</ele>
        <time>1970-01-01T04:24:27.000Z</time>
      </trkpt>
      <trkpt lat="44.71011" lon="5.10261">
        <ele>265.6</ele>
        <time>1970-01-01T04:24:28.000Z</time>
      </trkpt>
      <trkpt lat="44.71011" lon="5.10265">
        <ele>265.8</ele>
        <time>1970-01-01T04:24:29.000Z</time>
      </trkpt>
      <trkpt lat="44.71012" lon="5.10269">
        <ele>266</ele>
        <time>1970-01-01T04:24:30.000Z</time>
      </trkpt>
      <trkpt lat="44.71012" lon="5.10273">
        <ele>266.2</ele>
        <time>1970-01-01T04:24:31.000Z</time>
      </trkpt>
      <trkpt lat="44.71012" lon="5.10277">
        <ele>266.4</ele>
        <time>1970-01-01T04:24:32.000Z</time>
      </trkpt>
      <trkpt lat="44.71012" lon="5.10281">
        <ele>266.6</ele>
        <time>1970-01-01T04:24:33.000Z</time>
      </trkpt>
      <trkpt lat="44.71012" lon="5.10285">
        <ele>266.8</ele>
        <time>1970-01-01T04:24:34.000Z</time>
      </trkpt>
      <trkpt lat="44.71012" lon="5.10289">
        <ele>267</ele>
        <time>1970-01-01T04:24:35.000Z</time>
      </trkpt>
      <trkpt lat="44.71012" lon="5.10294">
        <ele>267.2</ele>
        <time>1970-01-01T04:24:36.000Z</time>
      </trkpt>
      <trkpt lat="44.71012" lon="5.10298">
        <ele>267.4</ele>
        <time>1970-01-01T04:24:37.000Z</time>
      </trkpt>
      <trkpt lat="44.71013" lon="5.10302">
        <ele>267.4</ele>
        <time>1970-01-01T04:24:38.000Z</time>
      </trkpt>
      <trkpt lat="44.71014" lon="5.10306">
        <ele>267.6</ele>
        <time>1970-01-01T04:24:39.000Z</time>
      </trkpt>
      <trkpt lat="44.71014" lon="5.1031">
        <ele>267.8</ele>
        <time>1970-01-01T04:24:40.000Z</time>
      </trkpt>
      <trkpt lat="44.71015" lon="5.10315">
        <ele>267.8</ele>
        <time>1970-01-01T04:24:41.000Z</time>
      </trkpt>
      <trkpt lat="44.71016" lon="5.10319">
        <ele>268</ele>
        <time>1970-01-01T04:24:42.000Z</time>
      </trkpt>
      <trkpt lat="44.71018" lon="5.10323">
        <ele>268.2</ele>
        <time>1970-01-01T04:24:43.000Z</time>
      </trkpt>
      <trkpt lat="44.71019" lon="5.10327">
        <ele>268.2</ele>
        <time>1970-01-01T04:24:44.000Z</time>
      </trkpt>
      <trkpt lat="44.7102" lon="5.1033">
        <ele>268.4</ele>
        <time>1970-01-01T04:24:45.000Z</time>
      </trkpt>
      <trkpt lat="44.71022" lon="5.10334">
        <ele>268.4</ele>
        <time>1970-01-01T04:24:46.000Z</time>
      </trkpt>
      <trkpt lat="44.71023" lon="5.10338">
        <ele>268.6</ele>
        <time>1970-01-01T04:24:47.000Z</time>
      </trkpt>
      <trkpt lat="44.71025" lon="5.10341">
        <ele>268.6</ele>
        <time>1970-01-01T04:24:48.000Z</time>
      </trkpt>
      <trkpt lat="44.71027" lon="5.10344">
        <ele>268.6</ele>
        <time>1970-01-01T04:24:49.000Z</time>
      </trkpt>
      <trkpt lat="44.71028" lon="5.10348">
        <ele>268.8</ele>
        <time>1970-01-01T04:24:50.000Z</time>
      </trkpt>
      <trkpt lat="44.71029" lon="5.10352">
        <ele>268.8</ele>
        <time>1970-01-01T04:24:51.000Z</time>
      </trkpt>
      <trkpt lat="44.71031" lon="5.10355">
        <ele>268.8</ele>
        <time>1970-01-01T04:24:52.000Z</time>
      </trkpt>
      <trkpt lat="44.71033" lon="5.10359">
        <ele>268.8</ele>
        <time>1970-01-01T04:24:53.000Z</time>
      </trkpt>
      <trkpt lat="44.71035" lon="5.10362">
        <ele>268.8</ele>
        <time>1970-01-01T04:24:54.000Z</time>
      </trkpt>
      <trkpt lat="44.71037" lon="5.10365">
        <ele>268.8</ele>
        <time>1970-01-01T04:24:55.000Z</time>
      </trkpt>
      <trkpt lat="44.71039" lon="5.10369">
        <ele>268.8</ele>
        <time>1970-01-01T04:24:56.000Z</time>
      </trkpt>
      <trkpt lat="44.71041" lon="5.10372">
        <ele>268.8</ele>
        <time>1970-01-01T04:24:57.000Z</time>
      </trkpt>
      <trkpt lat="44.71043" lon="5.10374">
        <ele>268.8</ele>
        <time>1970-01-01T04:24:58.000Z</time>
      </trkpt>
      <trkpt lat="44.71045" lon="5.10377">
        <ele>268.8</ele>
        <time>1970-01-01T04:24:59.000Z</time>
      </trkpt>
      <trkpt lat="44.71047" lon="5.10379">
        <ele>268.8</ele>
        <time>1970-01-01T04:25:00.000Z</time>
      </trkpt>
      <trkpt lat="44.7105" lon="5.10382">
        <ele>268.8</ele>
        <time>1970-01-01T04:25:01.000Z</time>
      </trkpt>
      <trkpt lat="44.71052" lon="5.10384">
        <ele>268.8</ele>
        <time>1970-01-01T04:25:02.000Z</time>
      </trkpt>
      <trkpt lat="44.71061" lon="5.10391">
        <ele>268.6</ele>
        <time>1970-01-01T04:25:05.000Z</time>
      </trkpt>
      <trkpt lat="44.71068" lon="5.10396">
        <ele>268.2</ele>
        <time>1970-01-01T04:25:07.000Z</time>
      </trkpt>
      <trkpt lat="44.71076" lon="5.104">
        <ele>268</ele>
        <time>1970-01-01T04:25:09.000Z</time>
      </trkpt>
      <trkpt lat="44.7108" lon="5.10402">
        <ele>268</ele>
        <time>1970-01-01T04:25:10.000Z</time>
      </trkpt>
      <trkpt lat="44.71084" lon="5.10404">
        <ele>268</ele>
        <time>1970-01-01T04:25:11.000Z</time>
      </trkpt>
      <trkpt lat="44.71087" lon="5.10406">
        <ele>268</ele>
        <time>1970-01-01T04:25:12.000Z</time>
      </trkpt>
      <trkpt lat="44.7109" lon="5.10408">
        <ele>268</ele>
        <time>1970-01-01T04:25:13.000Z</time>
      </trkpt>
      <trkpt lat="44.71096" lon="5.10413">
        <ele>267.8</ele>
        <time>1970-01-01T04:25:15.000Z</time>
      </trkpt>
      <trkpt lat="44.71099" lon="5.10415">
        <ele>267.8</ele>
        <time>1970-01-01T04:25:16.000Z</time>
      </trkpt>
      <trkpt lat="44.71105" lon="5.1042">
        <ele>267.8</ele>
        <time>1970-01-01T04:25:18.000Z</time>
      </trkpt>
      <trkpt lat="44.71111" lon="5.10427">
        <ele>268</ele>
        <time>1970-01-01T04:25:20.000Z</time>
      </trkpt>
      <trkpt lat="44.71112" lon="5.10432">
        <ele>268</ele>
        <time>1970-01-01T04:25:21.000Z</time>
      </trkpt>
      <trkpt lat="44.71114" lon="5.10437">
        <ele>268.2</ele>
        <time>1970-01-01T04:25:22.000Z</time>
      </trkpt>
      <trkpt lat="44.71114" lon="5.10442">
        <ele>268.2</ele>
        <time>1970-01-01T04:25:23.000Z</time>
      </trkpt>
      <trkpt lat="44.71114" lon="5.10447">
        <ele>268.2</ele>
        <time>1970-01-01T04:25:24.000Z</time>
      </trkpt>
      <trkpt lat="44.71114" lon="5.10452">
        <ele>268.4</ele>
        <time>1970-01-01T04:25:25.000Z</time>
      </trkpt>
      <trkpt lat="44.71113" lon="5.10458">
        <ele>268.4</ele>
        <time>1970-01-01T04:25:26.000Z</time>
      </trkpt>
      <trkpt lat="44.71111" lon="5.10463">
        <ele>268.6</ele>
        <time>1970-01-01T04:25:27.000Z</time>
      </trkpt>
      <trkpt lat="44.7111" lon="5.10469">
        <ele>268.6</ele>
        <time>1970-01-01T04:25:28.000Z</time>
      </trkpt>
      <trkpt lat="44.71108" lon="5.10479">
        <ele>269.4</ele>
        <time>1970-01-01T04:25:30.000Z</time>
      </trkpt>
      <trkpt lat="44.71108" lon="5.10483">
        <ele>270.2</ele>
        <time>1970-01-01T04:25:31.000Z</time>
      </trkpt>
      <trkpt lat="44.71107" lon="5.10487">
        <ele>270.6</ele>
        <time>1970-01-01T04:25:32.000Z</time>
      </trkpt>
      <trkpt lat="44.71106" lon="5.10491">
        <ele>271</ele>
        <time>1970-01-01T04:25:33.000Z</time>
      </trkpt>
      <trkpt lat="44.71106" lon="5.10494">
        <ele>271.2</ele>
        <time>1970-01-01T04:25:34.000Z</time>
      </trkpt>
      <trkpt lat="44.71106" lon="5.10498">
        <ele>271.6</ele>
        <time>1970-01-01T04:25:35.000Z</time>
      </trkpt>
      <trkpt lat="44.71106" lon="5.10501">
        <ele>272</ele>
        <time>1970-01-01T04:25:36.000Z</time>
      </trkpt>
      <trkpt lat="44.71105" lon="5.10505">
        <ele>272.2</ele>
        <time>1970-01-01T04:25:37.000Z</time>
      </trkpt>
      <trkpt lat="44.71105" lon="5.10508">
        <ele>272.6</ele>
        <time>1970-01-01T04:25:38.000Z</time>
      </trkpt>
      <trkpt lat="44.71105" lon="5.10512">
        <ele>272.8</ele>
        <time>1970-01-01T04:25:39.000Z</time>
      </trkpt>
      <trkpt lat="44.71105" lon="5.10517">
        <ele>273</ele>
        <time>1970-01-01T04:25:40.000Z</time>
      </trkpt>
      <trkpt lat="44.71105" lon="5.10521">
        <ele>273.4</ele>
        <time>1970-01-01T04:25:41.000Z</time>
      </trkpt>
      <trkpt lat="44.71105" lon="5.10524">
        <ele>273.6</ele>
        <time>1970-01-01T04:25:42.000Z</time>
      </trkpt>
      <trkpt lat="44.71105" lon="5.10528">
        <ele>273.8</ele>
        <time>1970-01-01T04:25:43.000Z</time>
      </trkpt>
      <trkpt lat="44.71104" lon="5.10531">
        <ele>274</ele>
        <time>1970-01-01T04:25:44.000Z</time>
      </trkpt>
      <trkpt lat="44.71104" lon="5.10534">
        <ele>274.2</ele>
        <time>1970-01-01T04:25:45.000Z</time>
      </trkpt>
      <trkpt lat="44.71104" lon="5.10538">
        <ele>274.2</ele>
        <time>1970-01-01T04:25:46.000Z</time>
      </trkpt>
      <trkpt lat="44.71103" lon="5.10541">
        <ele>274.4</ele>
        <time>1970-01-01T04:25:47.000Z</time>
      </trkpt>
      <trkpt lat="44.71103" lon="5.10544">
        <ele>274.4</ele>
        <time>1970-01-01T04:25:48.000Z</time>
      </trkpt>
      <trkpt lat="44.71103" lon="5.10548">
        <ele>274.4</ele>
        <time>1970-01-01T04:25:49.000Z</time>
      </trkpt>
      <trkpt lat="44.71103" lon="5.10551">
        <ele>274.4</ele>
        <time>1970-01-01T04:25:50.000Z</time>
      </trkpt>
      <trkpt lat="44.71104" lon="5.10555">
        <ele>274.4</ele>
        <time>1970-01-01T04:25:51.000Z</time>
      </trkpt>
      <trkpt lat="44.71104" lon="5.10558">
        <ele>274.4</ele>
        <time>1970-01-01T04:25:52.000Z</time>
      </trkpt>
      <trkpt lat="44.71105" lon="5.10562">
        <ele>274.4</ele>
        <time>1970-01-01T04:25:53.000Z</time>
      </trkpt>
      <trkpt lat="44.71105" lon="5.10565">
        <ele>274.4</ele>
        <time>1970-01-01T04:25:54.000Z</time>
      </trkpt>
      <trkpt lat="44.71106" lon="5.10568">
        <ele>274.4</ele>
        <time>1970-01-01T04:25:55.000Z</time>
      </trkpt>
      <trkpt lat="44.71106" lon="5.10571">
        <ele>274.4</ele>
        <time>1970-01-01T04:25:56.000Z</time>
      </trkpt>
      <trkpt lat="44.71107" lon="5.10575">
        <ele>274.4</ele>
        <time>1970-01-01T04:25:57.000Z</time>
      </trkpt>
      <trkpt lat="44.71108" lon="5.10578">
        <ele>274.4</ele>
        <time>1970-01-01T04:25:58.000Z</time>
      </trkpt>
      <trkpt lat="44.7111" lon="5.10582">
        <ele>274.2</ele>
        <time>1970-01-01T04:25:59.000Z</time>
      </trkpt>
      <trkpt lat="44.71111" lon="5.10586">
        <ele>274</ele>
        <time>1970-01-01T04:26:00.000Z</time>
      </trkpt>
      <trkpt lat="44.71112" lon="5.1059">
        <ele>274</ele>
        <time>1970-01-01T04:26:01.000Z</time>
      </trkpt>
      <trkpt lat="44.71113" lon="5.10595">
        <ele>274</ele>
        <time>1970-01-01T04:26:02.000Z</time>
      </trkpt>
      <trkpt lat="44.71114" lon="5.10604">
        <ele>273.8</ele>
        <time>1970-01-01T04:26:03.000Z</time>
      </trkpt>
      <trkpt lat="44.71113" lon="5.10612">
        <ele>273.8</ele>
        <time>1970-01-01T04:26:04.000Z</time>
      </trkpt>
      <trkpt lat="44.71112" lon="5.1062">
        <ele>273.8</ele>
        <time>1970-01-01T04:26:05.000Z</time>
      </trkpt>
      <trkpt lat="44.71109" lon="5.10628">
        <ele>273.8</ele>
        <time>1970-01-01T04:26:06.000Z</time>
      </trkpt>
      <trkpt lat="44.71107" lon="5.10636">
        <ele>273.6</ele>
        <time>1970-01-01T04:26:07.000Z</time>
      </trkpt>
      <trkpt lat="44.71099" lon="5.1066">
        <ele>274.2</ele>
        <time>1970-01-01T04:26:10.000Z</time>
      </trkpt>
      <trkpt lat="44.71097" lon="5.10666">
        <ele>274.2</ele>
        <time>1970-01-01T04:26:11.000Z</time>
      </trkpt>
      <trkpt lat="44.71095" lon="5.10674">
        <ele>274.4</ele>
        <time>1970-01-01T04:26:12.000Z</time>
      </trkpt>
      <trkpt lat="44.71093" lon="5.10683">
        <ele>274.6</ele>
        <time>1970-01-01T04:26:13.000Z</time>
      </trkpt>
      <trkpt lat="44.71092" lon="5.10691">
        <ele>275</ele>
        <time>1970-01-01T04:26:14.000Z</time>
      </trkpt>
      <trkpt lat="44.7109" lon="5.10698">
        <ele>275.4</ele>
        <time>1970-01-01T04:26:15.000Z</time>
      </trkpt>
      <trkpt lat="44.7109" lon="5.10704">
        <ele>275.6</ele>
        <time>1970-01-01T04:26:16.000Z</time>
      </trkpt>
      <trkpt lat="44.71088" lon="5.10711">
        <ele>276</ele>
        <time>1970-01-01T04:26:17.000Z</time>
      </trkpt>
      <trkpt lat="44.71087" lon="5.10718">
        <ele>276.2</ele>
        <time>1970-01-01T04:26:18.000Z</time>
      </trkpt>
      <trkpt lat="44.71085" lon="5.10725">
        <ele>276.4</ele>
        <time>1970-01-01T04:26:19.000Z</time>
      </trkpt>
      <trkpt lat="44.71083" lon="5.10731">
        <ele>276.6</ele>
        <time>1970-01-01T04:26:20.000Z</time>
      </trkpt>
      <trkpt lat="44.71081" lon="5.10738">
        <ele>277</ele>
        <time>1970-01-01T04:26:21.000Z</time>
      </trkpt>
      <trkpt lat="44.71079" lon="5.10745">
        <ele>277.2</ele>
        <time>1970-01-01T04:26:22.000Z</time>
      </trkpt>
      <trkpt lat="44.71078" lon="5.10751">
        <ele>277.8</ele>
        <time>1970-01-01T04:26:23.000Z</time>
      </trkpt>
      <trkpt lat="44.71077" lon="5.10758">
        <ele>278.2</ele>
        <time>1970-01-01T04:26:24.000Z</time>
      </trkpt>
      <trkpt lat="44.71077" lon="5.10765">
        <ele>278.6</ele>
        <time>1970-01-01T04:26:25.000Z</time>
      </trkpt>
      <trkpt lat="44.71078" lon="5.10771">
        <ele>279</ele>
        <time>1970-01-01T04:26:26.000Z</time>
      </trkpt>
      <trkpt lat="44.7108" lon="5.10778">
        <ele>279.2</ele>
        <time>1970-01-01T04:26:27.000Z</time>
      </trkpt>
      <trkpt lat="44.71082" lon="5.10784">
        <ele>279.6</ele>
        <time>1970-01-01T04:26:28.000Z</time>
      </trkpt>
      <trkpt lat="44.71085" lon="5.10791">
        <ele>280</ele>
        <time>1970-01-01T04:26:29.000Z</time>
      </trkpt>
      <trkpt lat="44.71086" lon="5.10796">
        <ele>280.6</ele>
        <time>1970-01-01T04:26:30.000Z</time>
      </trkpt>
      <trkpt lat="44.71089" lon="5.10803">
        <ele>281.4</ele>
        <time>1970-01-01T04:26:31.000Z</time>
      </trkpt>
      <trkpt lat="44.71091" lon="5.10811">
        <ele>282</ele>
        <time>1970-01-01T04:26:32.000Z</time>
      </trkpt>
      <trkpt lat="44.71093" lon="5.10816">
        <ele>282.4</ele>
        <time>1970-01-01T04:26:33.000Z</time>
      </trkpt>
      <trkpt lat="44.71095" lon="5.10823">
        <ele>283</ele>
        <time>1970-01-01T04:26:34.000Z</time>
      </trkpt>
      <trkpt lat="44.71097" lon="5.10829">
        <ele>283.4</ele>
        <time>1970-01-01T04:26:35.000Z</time>
      </trkpt>
      <trkpt lat="44.71098" lon="5.10834">
        <ele>284</ele>
        <time>1970-01-01T04:26:36.000Z</time>
      </trkpt>
      <trkpt lat="44.71099" lon="5.10841">
        <ele>284.6</ele>
        <time>1970-01-01T04:26:37.000Z</time>
      </trkpt>
      <trkpt lat="44.711" lon="5.10845">
        <ele>285.4</ele>
        <time>1970-01-01T04:26:38.000Z</time>
      </trkpt>
      <trkpt lat="44.71101" lon="5.10851">
        <ele>286</ele>
        <time>1970-01-01T04:26:39.000Z</time>
      </trkpt>
      <trkpt lat="44.71102" lon="5.10858">
        <ele>286.6</ele>
        <time>1970-01-01T04:26:40.000Z</time>
      </trkpt>
      <trkpt lat="44.71103" lon="5.10864">
        <ele>287.4</ele>
        <time>1970-01-01T04:26:41.000Z</time>
      </trkpt>
      <trkpt lat="44.71104" lon="5.10869">
        <ele>288</ele>
        <time>1970-01-01T04:26:42.000Z</time>
      </trkpt>
      <trkpt lat="44.71105" lon="5.10875">
        <ele>288.4</ele>
        <time>1970-01-01T04:26:43.000Z</time>
      </trkpt>
      <trkpt lat="44.71106" lon="5.10881">
        <ele>289</ele>
        <time>1970-01-01T04:26:44.000Z</time>
      </trkpt>
      <trkpt lat="44.71106" lon="5.10887">
        <ele>289.4</ele>
        <time>1970-01-01T04:26:45.000Z</time>
      </trkpt>
      <trkpt lat="44.71107" lon="5.10893">
        <ele>289.8</ele>
        <time>1970-01-01T04:26:46.000Z</time>
      </trkpt>
      <trkpt lat="44.71108" lon="5.109">
        <ele>290.4</ele>
        <time>1970-01-01T04:26:47.000Z</time>
      </trkpt>
      <trkpt lat="44.71109" lon="5.10906">
        <ele>291</ele>
        <time>1970-01-01T04:26:48.000Z</time>
      </trkpt>
      <trkpt lat="44.7111" lon="5.10911">
        <ele>291.4</ele>
        <time>1970-01-01T04:26:49.000Z</time>
      </trkpt>
      <trkpt lat="44.7111" lon="5.10917">
        <ele>291.6</ele>
        <time>1970-01-01T04:26:50.000Z</time>
      </trkpt>
      <trkpt lat="44.71111" lon="5.10923">
        <ele>292.2</ele>
        <time>1970-01-01T04:26:51.000Z</time>
      </trkpt>
      <trkpt lat="44.71112" lon="5.10928">
        <ele>292.8</ele>
        <time>1970-01-01T04:26:52.000Z</time>
      </trkpt>
      <trkpt lat="44.71113" lon="5.10932">
        <ele>293.2</ele>
        <time>1970-01-01T04:26:53.000Z</time>
      </trkpt>
      <trkpt lat="44.71114" lon="5.10936">
        <ele>293.6</ele>
        <time>1970-01-01T04:26:54.000Z</time>
      </trkpt>
      <trkpt lat="44.71116" lon="5.10939">
        <ele>294</ele>
        <time>1970-01-01T04:26:55.000Z</time>
      </trkpt>
      <trkpt lat="44.71116" lon="5.10941">
        <ele>294.4</ele>
        <time>1970-01-01T04:26:56.000Z</time>
      </trkpt>
      <trkpt lat="44.71117" lon="5.10943">
        <ele>294.6</ele>
        <time>1970-01-01T04:26:57.000Z</time>
      </trkpt>
      <trkpt lat="44.71118" lon="5.10944">
        <ele>294.6</ele>
        <time>1970-01-01T04:26:58.000Z</time>
      </trkpt>
      <trkpt lat="44.71118" lon="5.10945">
        <ele>294.8</ele>
        <time>1970-01-01T04:26:59.000Z</time>
      </trkpt>
      <trkpt lat="44.71119" lon="5.10947">
        <ele>295</ele>
        <time>1970-01-01T04:27:00.000Z</time>
      </trkpt>
      <trkpt lat="44.7112" lon="5.10949">
        <ele>295</ele>
        <time>1970-01-01T04:27:01.000Z</time>
      </trkpt>
      <trkpt lat="44.71121" lon="5.10951">
        <ele>295.4</ele>
        <time>1970-01-01T04:27:02.000Z</time>
      </trkpt>
      <trkpt lat="44.71122" lon="5.10953">
        <ele>295.6</ele>
        <time>1970-01-01T04:27:03.000Z</time>
      </trkpt>
      <trkpt lat="44.71124" lon="5.10956">
        <ele>295.8</ele>
        <time>1970-01-01T04:27:04.000Z</time>
      </trkpt>
      <trkpt lat="44.71125" lon="5.10957">
        <ele>296.2</ele>
        <time>1970-01-01T04:27:05.000Z</time>
      </trkpt>
      <trkpt lat="44.71127" lon="5.10957">
        <ele>296.6</ele>
        <time>1970-01-01T04:27:06.000Z</time>
      </trkpt>
      <trkpt lat="44.71128" lon="5.10956">
        <ele>297</ele>
        <time>1970-01-01T04:27:07.000Z</time>
      </trkpt>
      <trkpt lat="44.71129" lon="5.10954">
        <ele>297.2</ele>
        <time>1970-01-01T04:27:08.000Z</time>
      </trkpt>
      <trkpt lat="44.7113" lon="5.10951">
        <ele>297.6</ele>
        <time>1970-01-01T04:27:09.000Z</time>
      </trkpt>
      <trkpt lat="44.71131" lon="5.10948">
        <ele>297.8</ele>
        <time>1970-01-01T04:27:10.000Z</time>
      </trkpt>
      <trkpt lat="44.71131" lon="5.10945">
        <ele>298</ele>
        <time>1970-01-01T04:27:11.000Z</time>
      </trkpt>
      <trkpt lat="44.71132" lon="5.10942">
        <ele>298</ele>
        <time>1970-01-01T04:27:12.000Z</time>
      </trkpt>
      <trkpt lat="44.71131" lon="5.1094">
        <ele>298</ele>
        <time>1970-01-01T04:27:13.000Z</time>
      </trkpt>
      <trkpt lat="44.71131" lon="5.10939">
        <ele>298.4</ele>
        <time>1970-01-01T04:27:14.000Z</time>
      </trkpt>
      <trkpt lat="44.7113" lon="5.10938">
        <ele>298.6</ele>
        <time>1970-01-01T04:27:15.000Z</time>
      </trkpt>
      <trkpt lat="44.71131" lon="5.10938">
        <ele>298.6</ele>
        <time>1970-01-01T04:27:16.000Z</time>
      </trkpt>
      <trkpt lat="44.7113" lon="5.10939">
        <ele>298.8</ele>
        <time>1970-01-01T04:27:17.000Z</time>
      </trkpt>
      <trkpt lat="44.7113" lon="5.10941">
        <ele>298.6</ele>
        <time>1970-01-01T04:27:18.000Z</time>
      </trkpt>
      <trkpt lat="44.71129" lon="5.10943">
        <ele>298.4</ele>
        <time>1970-01-01T04:27:19.000Z</time>
      </trkpt>
      <trkpt lat="44.71129" lon="5.10945">
        <ele>298.4</ele>
        <time>1970-01-01T04:27:20.000Z</time>
      </trkpt>
      <trkpt lat="44.71129" lon="5.10948">
        <ele>298.2</ele>
        <time>1970-01-01T04:27:21.000Z</time>
      </trkpt>
      <trkpt lat="44.71129" lon="5.10952">
        <ele>298</ele>
        <time>1970-01-01T04:27:22.000Z</time>
      </trkpt>
      <trkpt lat="44.71127" lon="5.10957">
        <ele>298</ele>
        <time>1970-01-01T04:27:23.000Z</time>
      </trkpt>
      <trkpt lat="44.71126" lon="5.10962">
        <ele>297.8</ele>
        <time>1970-01-01T04:27:24.000Z</time>
      </trkpt>
      <trkpt lat="44.71124" lon="5.10966">
        <ele>297.6</ele>
        <time>1970-01-01T04:27:25.000Z</time>
      </trkpt>
      <trkpt lat="44.71122" lon="5.10969">
        <ele>297.6</ele>
        <time>1970-01-01T04:27:26.000Z</time>
      </trkpt>
      <trkpt lat="44.7112" lon="5.10973">
        <ele>297.2</ele>
        <time>1970-01-01T04:27:27.000Z</time>
      </trkpt>
      <trkpt lat="44.71118" lon="5.10979">
        <ele>296.6</ele>
        <time>1970-01-01T04:27:28.000Z</time>
      </trkpt>
      <trkpt lat="44.71117" lon="5.10984">
        <ele>296</ele>
        <time>1970-01-01T04:27:29.000Z</time>
      </trkpt>
      <trkpt lat="44.71117" lon="5.1099">
        <ele>295.6</ele>
        <time>1970-01-01T04:27:30.000Z</time>
      </trkpt>
      <trkpt lat="44.71117" lon="5.10994">
        <ele>295.4</ele>
        <time>1970-01-01T04:27:31.000Z</time>
      </trkpt>
      <trkpt lat="44.71118" lon="5.11">
        <ele>295.2</ele>
        <time>1970-01-01T04:27:32.000Z</time>
      </trkpt>
      <trkpt lat="44.71118" lon="5.11004">
        <ele>295</ele>
        <time>1970-01-01T04:27:33.000Z</time>
      </trkpt>
      <trkpt lat="44.71117" lon="5.11018">
        <ele>294.6</ele>
        <time>1970-01-01T04:27:36.000Z</time>
      </trkpt>
      <trkpt lat="44.71116" lon="5.11033">
        <ele>293.8</ele>
        <time>1970-01-01T04:27:39.000Z</time>
      </trkpt>
      <trkpt lat="44.71115" lon="5.11039">
        <ele>293.8</ele>
        <time>1970-01-01T04:27:40.000Z</time>
      </trkpt>
      <trkpt lat="44.71115" lon="5.11046">
        <ele>293.4</ele>
        <time>1970-01-01T04:27:41.000Z</time>
      </trkpt>
      <trkpt lat="44.71114" lon="5.11053">
        <ele>293.2</ele>
        <time>1970-01-01T04:27:42.000Z</time>
      </trkpt>
      <trkpt lat="44.71113" lon="5.11059">
        <ele>292.8</ele>
        <time>1970-01-01T04:27:43.000Z</time>
      </trkpt>
      <trkpt lat="44.71113" lon="5.11072">
        <ele>292.2</ele>
        <time>1970-01-01T04:27:45.000Z</time>
      </trkpt>
      <trkpt lat="44.71114" lon="5.11078">
        <ele>291.4</ele>
        <time>1970-01-01T04:27:46.000Z</time>
      </trkpt>
      <trkpt lat="44.71118" lon="5.11086">
        <ele>290.6</ele>
        <time>1970-01-01T04:27:47.000Z</time>
      </trkpt>
      <trkpt lat="44.71123" lon="5.11092">
        <ele>289.4</ele>
        <time>1970-01-01T04:27:48.000Z</time>
      </trkpt>
      <trkpt lat="44.71129" lon="5.11096">
        <ele>288.6</ele>
        <time>1970-01-01T04:27:49.000Z</time>
      </trkpt>
      <trkpt lat="44.71136" lon="5.11098">
        <ele>287.8</ele>
        <time>1970-01-01T04:27:50.000Z</time>
      </trkpt>
      <trkpt lat="44.71142" lon="5.111">
        <ele>287.4</ele>
        <time>1970-01-01T04:27:51.000Z</time>
      </trkpt>
      <trkpt lat="44.71149" lon="5.11101">
        <ele>287.2</ele>
        <time>1970-01-01T04:27:52.000Z</time>
      </trkpt>
      <trkpt lat="44.71156" lon="5.111">
        <ele>287.2</ele>
        <time>1970-01-01T04:27:53.000Z</time>
      </trkpt>
      <trkpt lat="44.71162" lon="5.111">
        <ele>287.2</ele>
        <time>1970-01-01T04:27:54.000Z</time>
      </trkpt>
      <trkpt lat="44.71174" lon="5.11099">
        <ele>286.8</ele>
        <time>1970-01-01T04:27:56.000Z</time>
      </trkpt>
      <trkpt lat="44.71182" lon="5.111">
        <ele>287</ele>
        <time>1970-01-01T04:27:57.000Z</time>
      </trkpt>
      <trkpt lat="44.71188" lon="5.11101">
        <ele>287</ele>
        <time>1970-01-01T04:27:58.000Z</time>
      </trkpt>
      <trkpt lat="44.71193" lon="5.11104">
        <ele>287</ele>
        <time>1970-01-01T04:27:59.000Z</time>
      </trkpt>
      <trkpt lat="44.71196" lon="5.11106">
        <ele>287</ele>
        <time>1970-01-01T04:28:00.000Z</time>
      </trkpt>
      <trkpt lat="44.712" lon="5.11108">
        <ele>287.4</ele>
        <time>1970-01-01T04:28:01.000Z</time>
      </trkpt>
      <trkpt lat="44.71206" lon="5.11111">
        <ele>287.4</ele>
        <time>1970-01-01T04:28:02.000Z</time>
      </trkpt>
      <trkpt lat="44.7121" lon="5.11113">
        <ele>287.6</ele>
        <time>1970-01-01T04:28:03.000Z</time>
      </trkpt>
      <trkpt lat="44.71213" lon="5.11115">
        <ele>287.8</ele>
        <time>1970-01-01T04:28:04.000Z</time>
      </trkpt>
      <trkpt lat="44.71217" lon="5.11116">
        <ele>288</ele>
        <time>1970-01-01T04:28:05.000Z</time>
      </trkpt>
      <trkpt lat="44.71221" lon="5.11117">
        <ele>288.2</ele>
        <time>1970-01-01T04:28:06.000Z</time>
      </trkpt>
      <trkpt lat="44.71224" lon="5.11119">
        <ele>288.4</ele>
        <time>1970-01-01T04:28:07.000Z</time>
      </trkpt>
      <trkpt lat="44.71228" lon="5.1112">
        <ele>288.8</ele>
        <time>1970-01-01T04:28:08.000Z</time>
      </trkpt>
      <trkpt lat="44.71231" lon="5.11121">
        <ele>289.2</ele>
        <time>1970-01-01T04:28:09.000Z</time>
      </trkpt>
      <trkpt lat="44.71234" lon="5.11122">
        <ele>289.4</ele>
        <time>1970-01-01T04:28:10.000Z</time>
      </trkpt>
      <trkpt lat="44.71236" lon="5.11124">
        <ele>289.8</ele>
        <time>1970-01-01T04:28:11.000Z</time>
      </trkpt>
      <trkpt lat="44.71238" lon="5.11124">
        <ele>290.2</ele>
        <time>1970-01-01T04:28:12.000Z</time>
      </trkpt>
      <trkpt lat="44.7124" lon="5.11124">
        <ele>290.4</ele>
        <time>1970-01-01T04:28:13.000Z</time>
      </trkpt>
      <trkpt lat="44.71241" lon="5.11124">
        <ele>290.4</ele>
        <time>1970-01-01T04:28:14.000Z</time>
      </trkpt>
      <trkpt lat="44.71243" lon="5.11124">
        <ele>290.6</ele>
        <time>1970-01-01T04:28:15.000Z</time>
      </trkpt>
      <trkpt lat="44.71244" lon="5.11125">
        <ele>290.6</ele>
        <time>1970-01-01T04:28:16.000Z</time>
      </trkpt>
      <trkpt lat="44.71246" lon="5.11127">
        <ele>290.6</ele>
        <time>1970-01-01T04:28:17.000Z</time>
      </trkpt>
      <trkpt lat="44.71248" lon="5.11131">
        <ele>290.6</ele>
        <time>1970-01-01T04:28:18.000Z</time>
      </trkpt>
      <trkpt lat="44.7125" lon="5.11142">
        <ele>289.2</ele>
        <time>1970-01-01T04:28:20.000Z</time>
      </trkpt>
      <trkpt lat="44.71248" lon="5.11151">
        <ele>288.2</ele>
        <time>1970-01-01T04:28:21.000Z</time>
      </trkpt>
      <trkpt lat="44.71244" lon="5.11158">
        <ele>287.4</ele>
        <time>1970-01-01T04:28:22.000Z</time>
      </trkpt>
      <trkpt lat="44.71239" lon="5.11162">
        <ele>286.8</ele>
        <time>1970-01-01T04:28:23.000Z</time>
      </trkpt>
      <trkpt lat="44.71233" lon="5.11165">
        <ele>285.8</ele>
        <time>1970-01-01T04:28:24.000Z</time>
      </trkpt>
      <trkpt lat="44.71224" lon="5.11168">
        <ele>284.8</ele>
        <time>1970-01-01T04:28:25.000Z</time>
      </trkpt>
      <trkpt lat="44.71217" lon="5.11171">
        <ele>283.8</ele>
        <time>1970-01-01T04:28:26.000Z</time>
      </trkpt>
      <trkpt lat="44.71211" lon="5.11175">
        <ele>283.4</ele>
        <time>1970-01-01T04:28:27.000Z</time>
      </trkpt>
      <trkpt lat="44.71205" lon="5.11179">
        <ele>283.2</ele>
        <time>1970-01-01T04:28:28.000Z</time>
      </trkpt>
      <trkpt lat="44.71199" lon="5.11184">
        <ele>282</ele>
        <time>1970-01-01T04:28:29.000Z</time>
      </trkpt>
      <trkpt lat="44.71194" lon="5.11189">
        <ele>281.2</ele>
        <time>1970-01-01T04:28:30.000Z</time>
      </trkpt>
      <trkpt lat="44.7119" lon="5.11192">
        <ele>280.8</ele>
        <time>1970-01-01T04:28:31.000Z</time>
      </trkpt>
      <trkpt lat="44.71188" lon="5.11195">
        <ele>280.2</ele>
        <time>1970-01-01T04:28:32.000Z</time>
      </trkpt>
      <trkpt lat="44.71186" lon="5.11197">
        <ele>279.8</ele>
        <time>1970-01-01T04:28:33.000Z</time>
      </trkpt>
      <trkpt lat="44.71185" lon="5.11198">
        <ele>279.4</ele>
        <time>1970-01-01T04:28:34.000Z</time>
      </trkpt>
      <trkpt lat="44.71183" lon="5.11199">
        <ele>279</ele>
        <time>1970-01-01T04:28:35.000Z</time>
      </trkpt>
      <trkpt lat="44.71182" lon="5.11201">
        <ele>278.6</ele>
        <time>1970-01-01T04:28:36.000Z</time>
      </trkpt>
      <trkpt lat="44.71181" lon="5.11203">
        <ele>278.4</ele>
        <time>1970-01-01T04:28:37.000Z</time>
      </trkpt>
      <trkpt lat="44.7118" lon="5.11205">
        <ele>278</ele>
        <time>1970-01-01T04:28:38.000Z</time>
      </trkpt>
      <trkpt lat="44.7118" lon="5.11207">
        <ele>277.4</ele>
        <time>1970-01-01T04:28:39.000Z</time>
      </trkpt>
      <trkpt lat="44.71179" lon="5.1121">
        <ele>277</ele>
        <time>1970-01-01T04:28:40.000Z</time>
      </trkpt>
      <trkpt lat="44.71179" lon="5.11212">
        <ele>276.6</ele>
        <time>1970-01-01T04:28:41.000Z</time>
      </trkpt>
      <trkpt lat="44.71179" lon="5.11214">
        <ele>276.4</ele>
        <time>1970-01-01T04:28:42.000Z</time>
      </trkpt>
      <trkpt lat="44.71179" lon="5.11216">
        <ele>276.2</ele>
        <time>1970-01-01T04:28:43.000Z</time>
      </trkpt>
      <trkpt lat="44.7118" lon="5.11217">
        <ele>276.2</ele>
        <time>1970-01-01T04:28:44.000Z</time>
      </trkpt>
      <trkpt lat="44.7118" lon="5.11217">
        <ele>276</ele>
        <time>1970-01-01T04:28:45.000Z</time>
      </trkpt>
      <trkpt lat="44.7118" lon="5.11218">
        <ele>276</ele>
        <time>1970-01-01T04:28:46.000Z</time>
      </trkpt>
      <trkpt lat="44.71179" lon="5.11219">
        <ele>275.8</ele>
        <time>1970-01-01T04:28:48.000Z</time>
      </trkpt>
      <trkpt lat="44.71178" lon="5.1122">
        <ele>275.6</ele>
        <time>1970-01-01T04:28:50.000Z</time>
      </trkpt>
      <trkpt lat="44.71178" lon="5.11223">
        <ele>275.6</ele>
        <time>1970-01-01T04:28:52.000Z</time>
      </trkpt>
      <trkpt lat="44.71177" lon="5.11227">
        <ele>275.6</ele>
        <time>1970-01-01T04:28:54.000Z</time>
      </trkpt>
      <trkpt lat="44.71177" lon="5.11231">
        <ele>275.6</ele>
        <time>1970-01-01T04:28:55.000Z</time>
      </trkpt>
      <trkpt lat="44.71176" lon="5.11254">
        <ele>275</ele>
        <time>1970-01-01T04:28:59.000Z</time>
      </trkpt>
      <trkpt lat="44.71175" lon="5.11259">
        <ele>274.8</ele>
        <time>1970-01-01T04:29:00.000Z</time>
      </trkpt>
      <trkpt lat="44.71173" lon="5.11265">
        <ele>274.8</ele>
        <time>1970-01-01T04:29:01.000Z</time>
      </trkpt>
      <trkpt lat="44.71171" lon="5.11268">
        <ele>274.6</ele>
        <time>1970-01-01T04:29:02.000Z</time>
      </trkpt>
      <trkpt lat="44.71169" lon="5.11273">
        <ele>274.6</ele>
        <time>1970-01-01T04:29:03.000Z</time>
      </trkpt>
      <trkpt lat="44.71166" lon="5.11277">
        <ele>274.6</ele>
        <time>1970-01-01T04:29:04.000Z</time>
      </trkpt>
      <trkpt lat="44.7116" lon="5.11285">
        <ele>274.6</ele>
        <time>1970-01-01T04:29:06.000Z</time>
      </trkpt>
      <trkpt lat="44.7115" lon="5.113">
        <ele>274.6</ele>
        <time>1970-01-01T04:29:09.000Z</time>
      </trkpt>
      <trkpt lat="44.71144" lon="5.11309">
        <ele>274.8</ele>
        <time>1970-01-01T04:29:11.000Z</time>
      </trkpt>
      <trkpt lat="44.71137" lon="5.11317">
        <ele>275.4</ele>
        <time>1970-01-01T04:29:13.000Z</time>
      </trkpt>
      <trkpt lat="44.71133" lon="5.11323">
        <ele>275.8</ele>
        <time>1970-01-01T04:29:14.000Z</time>
      </trkpt>
      <trkpt lat="44.71131" lon="5.11327">
        <ele>276</ele>
        <time>1970-01-01T04:29:15.000Z</time>
      </trkpt>
      <trkpt lat="44.71127" lon="5.11332">
        <ele>276</ele>
        <time>1970-01-01T04:29:16.000Z</time>
      </trkpt>
      <trkpt lat="44.71118" lon="5.11345">
        <ele>276.6</ele>
        <time>1970-01-01T04:29:19.000Z</time>
      </trkpt>
      <trkpt lat="44.71115" lon="5.11351">
        <ele>276.8</ele>
        <time>1970-01-01T04:29:20.000Z</time>
      </trkpt>
      <trkpt lat="44.71112" lon="5.11356">
        <ele>277</ele>
        <time>1970-01-01T04:29:21.000Z</time>
      </trkpt>
      <trkpt lat="44.71109" lon="5.11361">
        <ele>277.2</ele>
        <time>1970-01-01T04:29:22.000Z</time>
      </trkpt>
      <trkpt lat="44.71096" lon="5.11381">
        <ele>278</ele>
        <time>1970-01-01T04:29:26.000Z</time>
      </trkpt>
      <trkpt lat="44.71093" lon="5.11386">
        <ele>278.4</ele>
        <time>1970-01-01T04:29:27.000Z</time>
      </trkpt>
      <trkpt lat="44.7109" lon="5.11391">
        <ele>278.6</ele>
        <time>1970-01-01T04:29:28.000Z</time>
      </trkpt>
      <trkpt lat="44.71086" lon="5.11397">
        <ele>278.6</ele>
        <time>1970-01-01T04:29:29.000Z</time>
      </trkpt>
      <trkpt lat="44.71083" lon="5.11402">
        <ele>279</ele>
        <time>1970-01-01T04:29:30.000Z</time>
      </trkpt>
      <trkpt lat="44.71081" lon="5.11408">
        <ele>279.4</ele>
        <time>1970-01-01T04:29:31.000Z</time>
      </trkpt>
      <trkpt lat="44.71079" lon="5.11413">
        <ele>279.6</ele>
        <time>1970-01-01T04:29:32.000Z</time>
      </trkpt>
      <trkpt lat="44.71077" lon="5.11419">
        <ele>280</ele>
        <time>1970-01-01T04:29:33.000Z</time>
      </trkpt>
      <trkpt lat="44.71075" lon="5.11426">
        <ele>280.4</ele>
        <time>1970-01-01T04:29:34.000Z</time>
      </trkpt>
      <trkpt lat="44.71074" lon="5.11432">
        <ele>280.6</ele>
        <time>1970-01-01T04:29:35.000Z</time>
      </trkpt>
      <trkpt lat="44.71073" lon="5.11439">
        <ele>280.8</ele>
        <time>1970-01-01T04:29:36.000Z</time>
      </trkpt>
      <trkpt lat="44.71073" lon="5.11444">
        <ele>281.2</ele>
        <time>1970-01-01T04:29:37.000Z</time>
      </trkpt>
      <trkpt lat="44.71073" lon="5.1145">
        <ele>281.6</ele>
        <time>1970-01-01T04:29:38.000Z</time>
      </trkpt>
      <trkpt lat="44.71073" lon="5.11457">
        <ele>281.8</ele>
        <time>1970-01-01T04:29:39.000Z</time>
      </trkpt>
      <trkpt lat="44.71073" lon="5.11462">
        <ele>282</ele>
        <time>1970-01-01T04:29:40.000Z</time>
      </trkpt>
      <trkpt lat="44.71072" lon="5.11467">
        <ele>282.4</ele>
        <time>1970-01-01T04:29:41.000Z</time>
      </trkpt>
      <trkpt lat="44.71072" lon="5.11471">
        <ele>282.8</ele>
        <time>1970-01-01T04:29:42.000Z</time>
      </trkpt>
      <trkpt lat="44.7107" lon="5.11475">
        <ele>283.4</ele>
        <time>1970-01-01T04:29:43.000Z</time>
      </trkpt>
      <trkpt lat="44.71068" lon="5.11479">
        <ele>283.8</ele>
        <time>1970-01-01T04:29:44.000Z</time>
      </trkpt>
      <trkpt lat="44.71066" lon="5.11482">
        <ele>284.2</ele>
        <time>1970-01-01T04:29:45.000Z</time>
      </trkpt>
      <trkpt lat="44.71065" lon="5.11485">
        <ele>284.4</ele>
        <time>1970-01-01T04:29:46.000Z</time>
      </trkpt>
      <trkpt lat="44.71063" lon="5.11488">
        <ele>284.6</ele>
        <time>1970-01-01T04:29:47.000Z</time>
      </trkpt>
      <trkpt lat="44.7106" lon="5.11492">
        <ele>285.2</ele>
        <time>1970-01-01T04:29:48.000Z</time>
      </trkpt>
      <trkpt lat="44.71058" lon="5.11496">
        <ele>285.6</ele>
        <time>1970-01-01T04:29:49.000Z</time>
      </trkpt>
      <trkpt lat="44.71057" lon="5.11499">
        <ele>286.4</ele>
        <time>1970-01-01T04:29:50.000Z</time>
      </trkpt>
      <trkpt lat="44.71056" lon="5.11503">
        <ele>287</ele>
        <time>1970-01-01T04:29:51.000Z</time>
      </trkpt>
      <trkpt lat="44.71055" lon="5.11505">
        <ele>287.4</ele>
        <time>1970-01-01T04:29:52.000Z</time>
      </trkpt>
      <trkpt lat="44.71053" lon="5.11509">
        <ele>288</ele>
        <time>1970-01-01T04:29:53.000Z</time>
      </trkpt>
      <trkpt lat="44.71052" lon="5.11511">
        <ele>288.4</ele>
        <time>1970-01-01T04:29:54.000Z</time>
      </trkpt>
      <trkpt lat="44.7105" lon="5.11514">
        <ele>288.6</ele>
        <time>1970-01-01T04:29:55.000Z</time>
      </trkpt>
      <trkpt lat="44.71049" lon="5.11517">
        <ele>288.8</ele>
        <time>1970-01-01T04:29:56.000Z</time>
      </trkpt>
      <trkpt lat="44.71047" lon="5.1152">
        <ele>288.8</ele>
        <time>1970-01-01T04:29:57.000Z</time>
      </trkpt>
      <trkpt lat="44.71046" lon="5.11523">
        <ele>289.2</ele>
        <time>1970-01-01T04:29:58.000Z</time>
      </trkpt>
      <trkpt lat="44.71044" lon="5.11527">
        <ele>289.6</ele>
        <time>1970-01-01T04:29:59.000Z</time>
      </trkpt>
      <trkpt lat="44.71042" lon="5.11531">
        <ele>290</ele>
        <time>1970-01-01T04:30:00.000Z</time>
      </trkpt>
      <trkpt lat="44.7104" lon="5.11534">
        <ele>290.2</ele>
        <time>1970-01-01T04:30:01.000Z</time>
      </trkpt>
      <trkpt lat="44.71039" lon="5.11537">
        <ele>290.4</ele>
        <time>1970-01-01T04:30:02.000Z</time>
      </trkpt>
      <trkpt lat="44.71037" lon="5.11541">
        <ele>290.8</ele>
        <time>1970-01-01T04:30:03.000Z</time>
      </trkpt>
      <trkpt lat="44.71035" lon="5.11546">
        <ele>291.2</ele>
        <time>1970-01-01T04:30:04.000Z</time>
      </trkpt>
      <trkpt lat="44.71034" lon="5.1155">
        <ele>291.4</ele>
        <time>1970-01-01T04:30:05.000Z</time>
      </trkpt>
      <trkpt lat="44.71033" lon="5.11554">
        <ele>291.6</ele>
        <time>1970-01-01T04:30:06.000Z</time>
      </trkpt>
      <trkpt lat="44.71032" lon="5.11558">
        <ele>291.8</ele>
        <time>1970-01-01T04:30:07.000Z</time>
      </trkpt>
      <trkpt lat="44.71032" lon="5.11564">
        <ele>292.2</ele>
        <time>1970-01-01T04:30:08.000Z</time>
      </trkpt>
      <trkpt lat="44.71031" lon="5.11568">
        <ele>292.6</ele>
        <time>1970-01-01T04:30:09.000Z</time>
      </trkpt>
      <trkpt lat="44.71032" lon="5.11573">
        <ele>293.2</ele>
        <time>1970-01-01T04:30:10.000Z</time>
      </trkpt>
      <trkpt lat="44.71032" lon="5.11576">
        <ele>293.6</ele>
        <time>1970-01-01T04:30:11.000Z</time>
      </trkpt>
      <trkpt lat="44.71032" lon="5.1158">
        <ele>294</ele>
        <time>1970-01-01T04:30:12.000Z</time>
      </trkpt>
      <trkpt lat="44.71032" lon="5.11584">
        <ele>294.2</ele>
        <time>1970-01-01T04:30:13.000Z</time>
      </trkpt>
      <trkpt lat="44.71033" lon="5.11587">
        <ele>294.4</ele>
        <time>1970-01-01T04:30:14.000Z</time>
      </trkpt>
      <trkpt lat="44.71034" lon="5.1159">
        <ele>294.8</ele>
        <time>1970-01-01T04:30:15.000Z</time>
      </trkpt>
      <trkpt lat="44.71034" lon="5.11593">
        <ele>294.8</ele>
        <time>1970-01-01T04:30:16.000Z</time>
      </trkpt>
      <trkpt lat="44.71035" lon="5.11596">
        <ele>295</ele>
        <time>1970-01-01T04:30:17.000Z</time>
      </trkpt>
      <trkpt lat="44.71036" lon="5.11599">
        <ele>295</ele>
        <time>1970-01-01T04:30:18.000Z</time>
      </trkpt>
      <trkpt lat="44.71037" lon="5.11602">
        <ele>295</ele>
        <time>1970-01-01T04:30:19.000Z</time>
      </trkpt>
      <trkpt lat="44.71038" lon="5.11605">
        <ele>295</ele>
        <time>1970-01-01T04:30:20.000Z</time>
      </trkpt>
      <trkpt lat="44.71039" lon="5.11609">
        <ele>295</ele>
        <time>1970-01-01T04:30:21.000Z</time>
      </trkpt>
      <trkpt lat="44.71039" lon="5.11613">
        <ele>294.8</ele>
        <time>1970-01-01T04:30:22.000Z</time>
      </trkpt>
      <trkpt lat="44.7104" lon="5.11618">
        <ele>294.8</ele>
        <time>1970-01-01T04:30:23.000Z</time>
      </trkpt>
      <trkpt lat="44.71042" lon="5.11622">
        <ele>294.6</ele>
        <time>1970-01-01T04:30:24.000Z</time>
      </trkpt>
      <trkpt lat="44.71044" lon="5.11627">
        <ele>294.4</ele>
        <time>1970-01-01T04:30:25.000Z</time>
      </trkpt>
      <trkpt lat="44.71045" lon="5.11632">
        <ele>294.2</ele>
        <time>1970-01-01T04:30:26.000Z</time>
      </trkpt>
      <trkpt lat="44.71048" lon="5.11639">
        <ele>294.2</ele>
        <time>1970-01-01T04:30:27.000Z</time>
      </trkpt>
      <trkpt lat="44.71049" lon="5.11645">
        <ele>294</ele>
        <time>1970-01-01T04:30:28.000Z</time>
      </trkpt>
      <trkpt lat="44.71051" lon="5.1165">
        <ele>293.6</ele>
        <time>1970-01-01T04:30:29.000Z</time>
      </trkpt>
      <trkpt lat="44.71053" lon="5.11656">
        <ele>293.6</ele>
        <time>1970-01-01T04:30:30.000Z</time>
      </trkpt>
      <trkpt lat="44.71056" lon="5.1166">
        <ele>293.4</ele>
        <time>1970-01-01T04:30:31.000Z</time>
      </trkpt>
      <trkpt lat="44.71059" lon="5.11665">
        <ele>293</ele>
        <time>1970-01-01T04:30:32.000Z</time>
      </trkpt>
      <trkpt lat="44.71061" lon="5.1167">
        <ele>292.6</ele>
        <time>1970-01-01T04:30:33.000Z</time>
      </trkpt>
      <trkpt lat="44.71064" lon="5.11674">
        <ele>292.6</ele>
        <time>1970-01-01T04:30:34.000Z</time>
      </trkpt>
      <trkpt lat="44.71066" lon="5.11678">
        <ele>292.4</ele>
        <time>1970-01-01T04:30:35.000Z</time>
      </trkpt>
      <trkpt lat="44.71067" lon="5.11681">
        <ele>292.6</ele>
        <time>1970-01-01T04:30:36.000Z</time>
      </trkpt>
      <trkpt lat="44.71069" lon="5.11685">
        <ele>292.8</ele>
        <time>1970-01-01T04:30:37.000Z</time>
      </trkpt>
      <trkpt lat="44.7107" lon="5.11689">
        <ele>293</ele>
        <time>1970-01-01T04:30:38.000Z</time>
      </trkpt>
      <trkpt lat="44.7107" lon="5.11693">
        <ele>293.2</ele>
        <time>1970-01-01T04:30:39.000Z</time>
      </trkpt>
      <trkpt lat="44.71071" lon="5.11696">
        <ele>293.4</ele>
        <time>1970-01-01T04:30:40.000Z</time>
      </trkpt>
      <trkpt lat="44.71072" lon="5.117">
        <ele>293.8</ele>
        <time>1970-01-01T04:30:41.000Z</time>
      </trkpt>
      <trkpt lat="44.71073" lon="5.11704">
        <ele>294.2</ele>
        <time>1970-01-01T04:30:42.000Z</time>
      </trkpt>
      <trkpt lat="44.71074" lon="5.11707">
        <ele>294.4</ele>
        <time>1970-01-01T04:30:43.000Z</time>
      </trkpt>
      <trkpt lat="44.71074" lon="5.1171">
        <ele>294.6</ele>
        <time>1970-01-01T04:30:44.000Z</time>
      </trkpt>
      <trkpt lat="44.71075" lon="5.11713">
        <ele>294.6</ele>
        <time>1970-01-01T04:30:45.000Z</time>
      </trkpt>
      <trkpt lat="44.71076" lon="5.11716">
        <ele>294.6</ele>
        <time>1970-01-01T04:30:46.000Z</time>
      </trkpt>
      <trkpt lat="44.71077" lon="5.1172">
        <ele>294.6</ele>
        <time>1970-01-01T04:30:47.000Z</time>
      </trkpt>
      <trkpt lat="44.71077" lon="5.11723">
        <ele>294.6</ele>
        <time>1970-01-01T04:30:48.000Z</time>
      </trkpt>
      <trkpt lat="44.71078" lon="5.11738">
        <ele>294.4</ele>
        <time>1970-01-01T04:30:52.000Z</time>
      </trkpt>
      <trkpt lat="44.71078" lon="5.11742">
        <ele>294.4</ele>
        <time>1970-01-01T04:30:53.000Z</time>
      </trkpt>
      <trkpt lat="44.71079" lon="5.11767">
        <ele>293.6</ele>
        <time>1970-01-01T04:30:57.000Z</time>
      </trkpt>
      <trkpt lat="44.71081" lon="5.11773">
        <ele>293.2</ele>
        <time>1970-01-01T04:30:58.000Z</time>
      </trkpt>
      <trkpt lat="44.71083" lon="5.11779">
        <ele>292.8</ele>
        <time>1970-01-01T04:30:59.000Z</time>
      </trkpt>
      <trkpt lat="44.71085" lon="5.11784">
        <ele>292.6</ele>
        <time>1970-01-01T04:31:00.000Z</time>
      </trkpt>
      <trkpt lat="44.71087" lon="5.11789">
        <ele>292.6</ele>
        <time>1970-01-01T04:31:01.000Z</time>
      </trkpt>
      <trkpt lat="44.7109" lon="5.11795">
        <ele>292.4</ele>
        <time>1970-01-01T04:31:02.000Z</time>
      </trkpt>
      <trkpt lat="44.71092" lon="5.118">
        <ele>292.2</ele>
        <time>1970-01-01T04:31:03.000Z</time>
      </trkpt>
      <trkpt lat="44.71101" lon="5.11825">
        <ele>291</ele>
        <time>1970-01-01T04:31:07.000Z</time>
      </trkpt>
      <trkpt lat="44.71108" lon="5.11838">
        <ele>289.8</ele>
        <time>1970-01-01T04:31:09.000Z</time>
      </trkpt>
      <trkpt lat="44.71114" lon="5.1185">
        <ele>289</ele>
        <time>1970-01-01T04:31:11.000Z</time>
      </trkpt>
      <trkpt lat="44.71117" lon="5.11859">
        <ele>288.8</ele>
        <time>1970-01-01T04:31:12.000Z</time>
      </trkpt>
      <trkpt lat="44.71123" lon="5.11874">
        <ele>288</ele>
        <time>1970-01-01T04:31:14.000Z</time>
      </trkpt>
      <trkpt lat="44.71126" lon="5.1188">
        <ele>287.4</ele>
        <time>1970-01-01T04:31:15.000Z</time>
      </trkpt>
      <trkpt lat="44.71133" lon="5.11895">
        <ele>286.4</ele>
        <time>1970-01-01T04:31:17.000Z</time>
      </trkpt>
      <trkpt lat="44.71137" lon="5.11905">
        <ele>285.8</ele>
        <time>1970-01-01T04:31:18.000Z</time>
      </trkpt>
      <trkpt lat="44.71139" lon="5.11913">
        <ele>285.2</ele>
        <time>1970-01-01T04:31:19.000Z</time>
      </trkpt>
      <trkpt lat="44.71141" lon="5.11921">
        <ele>284.2</ele>
        <time>1970-01-01T04:31:20.000Z</time>
      </trkpt>
      <trkpt lat="44.71142" lon="5.1193">
        <ele>283.6</ele>
        <time>1970-01-01T04:31:21.000Z</time>
      </trkpt>
      <trkpt lat="44.71147" lon="5.11965">
        <ele>282.8</ele>
        <time>1970-01-01T04:31:25.000Z</time>
      </trkpt>
      <trkpt lat="44.71149" lon="5.11973">
        <ele>282.6</ele>
        <time>1970-01-01T04:31:26.000Z</time>
      </trkpt>
      <trkpt lat="44.71151" lon="5.11982">
        <ele>282.6</ele>
        <time>1970-01-01T04:31:27.000Z</time>
      </trkpt>
      <trkpt lat="44.71153" lon="5.1199">
        <ele>282.4</ele>
        <time>1970-01-01T04:31:28.000Z</time>
      </trkpt>
      <trkpt lat="44.71156" lon="5.11998">
        <ele>282.2</ele>
        <time>1970-01-01T04:31:29.000Z</time>
      </trkpt>
      <trkpt lat="44.7116" lon="5.12004">
        <ele>282.2</ele>
        <time>1970-01-01T04:31:30.000Z</time>
      </trkpt>
      <trkpt lat="44.71164" lon="5.12012">
        <ele>282</ele>
        <time>1970-01-01T04:31:31.000Z</time>
      </trkpt>
      <trkpt lat="44.71174" lon="5.12038">
        <ele>281</ele>
        <time>1970-01-01T04:31:34.000Z</time>
      </trkpt>
      <trkpt lat="44.71177" lon="5.12049">
        <ele>280</ele>
        <time>1970-01-01T04:31:35.000Z</time>
      </trkpt>
      <trkpt lat="44.71179" lon="5.1206">
        <ele>279.6</ele>
        <time>1970-01-01T04:31:36.000Z</time>
      </trkpt>
      <trkpt lat="44.7118" lon="5.12071">
        <ele>278.2</ele>
        <time>1970-01-01T04:31:37.000Z</time>
      </trkpt>
      <trkpt lat="44.71179" lon="5.12085">
        <ele>277.4</ele>
        <time>1970-01-01T04:31:38.000Z</time>
      </trkpt>
      <trkpt lat="44.7118" lon="5.12095">
        <ele>277</ele>
        <time>1970-01-01T04:31:39.000Z</time>
      </trkpt>
      <trkpt lat="44.71184" lon="5.1212">
        <ele>276.2</ele>
        <time>1970-01-01T04:31:41.000Z</time>
      </trkpt>
      <trkpt lat="44.71185" lon="5.12133">
        <ele>274.4</ele>
        <time>1970-01-01T04:31:42.000Z</time>
      </trkpt>
      <trkpt lat="44.71188" lon="5.1215">
        <ele>273.2</ele>
        <time>1970-01-01T04:31:43.000Z</time>
      </trkpt>
      <trkpt lat="44.71189" lon="5.12161">
        <ele>272.4</ele>
        <time>1970-01-01T04:31:44.000Z</time>
      </trkpt>
      <trkpt lat="44.71192" lon="5.12175">
        <ele>271</ele>
        <time>1970-01-01T04:31:45.000Z</time>
      </trkpt>
      <trkpt lat="44.71193" lon="5.12189">
        <ele>269.4</ele>
        <time>1970-01-01T04:31:46.000Z</time>
      </trkpt>
      <trkpt lat="44.71193" lon="5.12201">
        <ele>268.6</ele>
        <time>1970-01-01T04:31:47.000Z</time>
      </trkpt>
      <trkpt lat="44.71191" lon="5.12214">
        <ele>268.4</ele>
        <time>1970-01-01T04:31:48.000Z</time>
      </trkpt>
      <trkpt lat="44.71189" lon="5.12221">
        <ele>268</ele>
        <time>1970-01-01T04:31:49.000Z</time>
      </trkpt>
      <trkpt lat="44.71187" lon="5.1223">
        <ele>268</ele>
        <time>1970-01-01T04:31:50.000Z</time>
      </trkpt>
      <trkpt lat="44.71186" lon="5.1224">
        <ele>268.2</ele>
        <time>1970-01-01T04:31:51.000Z</time>
      </trkpt>
      <trkpt lat="44.71187" lon="5.12251">
        <ele>268.2</ele>
        <time>1970-01-01T04:31:52.000Z</time>
      </trkpt>
      <trkpt lat="44.71189" lon="5.12257">
        <ele>268.4</ele>
        <time>1970-01-01T04:31:53.000Z</time>
      </trkpt>
      <trkpt lat="44.71191" lon="5.12263">
        <ele>268.8</ele>
        <time>1970-01-01T04:31:54.000Z</time>
      </trkpt>
      <trkpt lat="44.71192" lon="5.12268">
        <ele>269.2</ele>
        <time>1970-01-01T04:31:55.000Z</time>
      </trkpt>
      <trkpt lat="44.7119" lon="5.12271">
        <ele>269.6</ele>
        <time>1970-01-01T04:31:56.000Z</time>
      </trkpt>
      <trkpt lat="44.71185" lon="5.12266">
        <ele>269.8</ele>
        <time>1970-01-01T04:31:58.000Z</time>
      </trkpt>
      <trkpt lat="44.71186" lon="5.12249">
        <ele>269.6</ele>
        <time>1970-01-01T04:32:01.000Z</time>
      </trkpt>
      <trkpt lat="44.71183" lon="5.12246">
        <ele>268.4</ele>
        <time>1970-01-01T04:32:02.000Z</time>
      </trkpt>
      <trkpt lat="44.7118" lon="5.12245">
        <ele>267.6</ele>
        <time>1970-01-01T04:32:03.000Z</time>
      </trkpt>
      <trkpt lat="44.71174" lon="5.12247">
        <ele>267</ele>
        <time>1970-01-01T04:32:04.000Z</time>
      </trkpt>
      <trkpt lat="44.71162" lon="5.12254">
        <ele>266.4</ele>
        <time>1970-01-01T04:32:06.000Z</time>
      </trkpt>
      <trkpt lat="44.71155" lon="5.12259">
        <ele>266</ele>
        <time>1970-01-01T04:32:07.000Z</time>
      </trkpt>
      <trkpt lat="44.71141" lon="5.1227">
        <ele>264.8</ele>
        <time>1970-01-01T04:32:09.000Z</time>
      </trkpt>
      <trkpt lat="44.71125" lon="5.12281">
        <ele>263.6</ele>
        <time>1970-01-01T04:32:11.000Z</time>
      </trkpt>
      <trkpt lat="44.71108" lon="5.12295">
        <ele>261.6</ele>
        <time>1970-01-01T04:32:13.000Z</time>
      </trkpt>
      <trkpt lat="44.7109" lon="5.12307">
        <ele>259.8</ele>
        <time>1970-01-01T04:32:15.000Z</time>
      </trkpt>
      <trkpt lat="44.7108" lon="5.12309">
        <ele>258.8</ele>
        <time>1970-01-01T04:32:16.000Z</time>
      </trkpt>
      <trkpt lat="44.7107" lon="5.12306">
        <ele>257.2</ele>
        <time>1970-01-01T04:32:17.000Z</time>
      </trkpt>
      <trkpt lat="44.71061" lon="5.123">
        <ele>256.2</ele>
        <time>1970-01-01T04:32:18.000Z</time>
      </trkpt>
      <trkpt lat="44.71054" lon="5.12293">
        <ele>255.8</ele>
        <time>1970-01-01T04:32:19.000Z</time>
      </trkpt>
      <trkpt lat="44.71047" lon="5.12284">
        <ele>255.6</ele>
        <time>1970-01-01T04:32:20.000Z</time>
      </trkpt>
      <trkpt lat="44.71039" lon="5.12274">
        <ele>255.6</ele>
        <time>1970-01-01T04:32:21.000Z</time>
      </trkpt>
      <trkpt lat="44.71034" lon="5.12267">
        <ele>255.6</ele>
        <time>1970-01-01T04:32:22.000Z</time>
      </trkpt>
      <trkpt lat="44.71029" lon="5.12261">
        <ele>256</ele>
        <time>1970-01-01T04:32:23.000Z</time>
      </trkpt>
      <trkpt lat="44.71024" lon="5.12255">
        <ele>256.8</ele>
        <time>1970-01-01T04:32:24.000Z</time>
      </trkpt>
      <trkpt lat="44.71019" lon="5.12249">
        <ele>257.6</ele>
        <time>1970-01-01T04:32:25.000Z</time>
      </trkpt>
      <trkpt lat="44.71014" lon="5.12245">
        <ele>258.4</ele>
        <time>1970-01-01T04:32:26.000Z</time>
      </trkpt>
      <trkpt lat="44.7101" lon="5.12243">
        <ele>259.2</ele>
        <time>1970-01-01T04:32:27.000Z</time>
      </trkpt>
      <trkpt lat="44.71005" lon="5.12242">
        <ele>260</ele>
        <time>1970-01-01T04:32:28.000Z</time>
      </trkpt>
      <trkpt lat="44.71001" lon="5.12242">
        <ele>260.4</ele>
        <time>1970-01-01T04:32:29.000Z</time>
      </trkpt>
      <trkpt lat="44.70996" lon="5.12245">
        <ele>260.8</ele>
        <time>1970-01-01T04:32:30.000Z</time>
      </trkpt>
      <trkpt lat="44.70991" lon="5.12249">
        <ele>261</ele>
        <time>1970-01-01T04:32:31.000Z</time>
      </trkpt>
      <trkpt lat="44.70988" lon="5.12254">
        <ele>261.2</ele>
        <time>1970-01-01T04:32:32.000Z</time>
      </trkpt>
      <trkpt lat="44.70984" lon="5.12261">
        <ele>261.2</ele>
        <time>1970-01-01T04:32:33.000Z</time>
      </trkpt>
      <trkpt lat="44.7098" lon="5.12268">
        <ele>261.2</ele>
        <time>1970-01-01T04:32:34.000Z</time>
      </trkpt>
      <trkpt lat="44.70977" lon="5.12274">
        <ele>261</ele>
        <time>1970-01-01T04:32:35.000Z</time>
      </trkpt>
      <trkpt lat="44.70967" lon="5.12285">
        <ele>261</ele>
        <time>1970-01-01T04:32:37.000Z</time>
      </trkpt>
      <trkpt lat="44.70955" lon="5.12291">
        <ele>260.6</ele>
        <time>1970-01-01T04:32:39.000Z</time>
      </trkpt>
      <trkpt lat="44.7095" lon="5.12292">
        <ele>260.6</ele>
        <time>1970-01-01T04:32:40.000Z</time>
      </trkpt>
      <trkpt lat="44.70942" lon="5.12289">
        <ele>260.2</ele>
        <time>1970-01-01T04:32:41.000Z</time>
      </trkpt>
      <trkpt lat="44.70937" lon="5.12284">
        <ele>260.2</ele>
        <time>1970-01-01T04:32:42.000Z</time>
      </trkpt>
      <trkpt lat="44.70933" lon="5.12277">
        <ele>260</ele>
        <time>1970-01-01T04:32:43.000Z</time>
      </trkpt>
      <trkpt lat="44.70931" lon="5.12271">
        <ele>260</ele>
        <time>1970-01-01T04:32:44.000Z</time>
      </trkpt>
      <trkpt lat="44.70924" lon="5.12258">
        <ele>260.4</ele>
        <time>1970-01-01T04:32:46.000Z</time>
      </trkpt>
      <trkpt lat="44.70921" lon="5.12254">
        <ele>260.8</ele>
        <time>1970-01-01T04:32:47.000Z</time>
      </trkpt>
      <trkpt lat="44.70916" lon="5.12251">
        <ele>261.2</ele>
        <time>1970-01-01T04:32:48.000Z</time>
      </trkpt>
      <trkpt lat="44.70913" lon="5.12251">
        <ele>261.6</ele>
        <time>1970-01-01T04:32:49.000Z</time>
      </trkpt>
      <trkpt lat="44.7091" lon="5.12252">
        <ele>262</ele>
        <time>1970-01-01T04:32:50.000Z</time>
      </trkpt>
      <trkpt lat="44.70906" lon="5.12255">
        <ele>262.4</ele>
        <time>1970-01-01T04:32:51.000Z</time>
      </trkpt>
      <trkpt lat="44.70903" lon="5.12258">
        <ele>262.8</ele>
        <time>1970-01-01T04:32:52.000Z</time>
      </trkpt>
      <trkpt lat="44.70899" lon="5.1226">
        <ele>263.2</ele>
        <time>1970-01-01T04:32:53.000Z</time>
      </trkpt>
      <trkpt lat="44.70896" lon="5.12262">
        <ele>263.4</ele>
        <time>1970-01-01T04:32:54.000Z</time>
      </trkpt>
      <trkpt lat="44.70889" lon="5.12266">
        <ele>263.8</ele>
        <time>1970-01-01T04:32:56.000Z</time>
      </trkpt>
      <trkpt lat="44.70885" lon="5.12268">
        <ele>264</ele>
        <time>1970-01-01T04:32:57.000Z</time>
      </trkpt>
      <trkpt lat="44.70881" lon="5.12271">
        <ele>264.4</ele>
        <time>1970-01-01T04:32:58.000Z</time>
      </trkpt>
      <trkpt lat="44.70878" lon="5.12273">
        <ele>264.4</ele>
        <time>1970-01-01T04:32:59.000Z</time>
      </trkpt>
      <trkpt lat="44.70874" lon="5.12274">
        <ele>264.6</ele>
        <time>1970-01-01T04:33:00.000Z</time>
      </trkpt>
      <trkpt lat="44.70871" lon="5.12276">
        <ele>264.6</ele>
        <time>1970-01-01T04:33:01.000Z</time>
      </trkpt>
      <trkpt lat="44.70867" lon="5.12279">
        <ele>264.6</ele>
        <time>1970-01-01T04:33:02.000Z</time>
      </trkpt>
      <trkpt lat="44.70865" lon="5.12285">
        <ele>264.6</ele>
        <time>1970-01-01T04:33:03.000Z</time>
      </trkpt>
      <trkpt lat="44.70863" lon="5.12289">
        <ele>264.8</ele>
        <time>1970-01-01T04:33:04.000Z</time>
      </trkpt>
      <trkpt lat="44.70861" lon="5.12292">
        <ele>265</ele>
        <time>1970-01-01T04:33:05.000Z</time>
      </trkpt>
      <trkpt lat="44.70858" lon="5.12295">
        <ele>265.2</ele>
        <time>1970-01-01T04:33:06.000Z</time>
      </trkpt>
      <trkpt lat="44.70855" lon="5.12298">
        <ele>265.4</ele>
        <time>1970-01-01T04:33:07.000Z</time>
      </trkpt>
      <trkpt lat="44.70853" lon="5.123">
        <ele>265.4</ele>
        <time>1970-01-01T04:33:08.000Z</time>
      </trkpt>
      <trkpt lat="44.7085" lon="5.12303">
        <ele>265.6</ele>
        <time>1970-01-01T04:33:09.000Z</time>
      </trkpt>
      <trkpt lat="44.70848" lon="5.12307">
        <ele>265.6</ele>
        <time>1970-01-01T04:33:10.000Z</time>
      </trkpt>
      <trkpt lat="44.70845" lon="5.1231">
        <ele>265.6</ele>
        <time>1970-01-01T04:33:11.000Z</time>
      </trkpt>
      <trkpt lat="44.70843" lon="5.12314">
        <ele>265.6</ele>
        <time>1970-01-01T04:33:12.000Z</time>
      </trkpt>
      <trkpt lat="44.70841" lon="5.12318">
        <ele>265.8</ele>
        <time>1970-01-01T04:33:13.000Z</time>
      </trkpt>
      <trkpt lat="44.70839" lon="5.12322">
        <ele>266</ele>
        <time>1970-01-01T04:33:14.000Z</time>
      </trkpt>
      <trkpt lat="44.70837" lon="5.12327">
        <ele>266.2</ele>
        <time>1970-01-01T04:33:15.000Z</time>
      </trkpt>
      <trkpt lat="44.70836" lon="5.12332">
        <ele>266.2</ele>
        <time>1970-01-01T04:33:16.000Z</time>
      </trkpt>
      <trkpt lat="44.70835" lon="5.12337">
        <ele>266.4</ele>
        <time>1970-01-01T04:33:17.000Z</time>
      </trkpt>
      <trkpt lat="44.70834" lon="5.12342">
        <ele>266.4</ele>
        <time>1970-01-01T04:33:18.000Z</time>
      </trkpt>
      <trkpt lat="44.70833" lon="5.12346">
        <ele>266.6</ele>
        <time>1970-01-01T04:33:19.000Z</time>
      </trkpt>
      <trkpt lat="44.70832" lon="5.12351">
        <ele>267</ele>
        <time>1970-01-01T04:33:20.000Z</time>
      </trkpt>
      <trkpt lat="44.70831" lon="5.12356">
        <ele>267.2</ele>
        <time>1970-01-01T04:33:21.000Z</time>
      </trkpt>
      <trkpt lat="44.7083" lon="5.12361">
        <ele>267.4</ele>
        <time>1970-01-01T04:33:22.000Z</time>
      </trkpt>
      <trkpt lat="44.70829" lon="5.12366">
        <ele>267.6</ele>
        <time>1970-01-01T04:33:23.000Z</time>
      </trkpt>
      <trkpt lat="44.70828" lon="5.1237">
        <ele>267.8</ele>
        <time>1970-01-01T04:33:24.000Z</time>
      </trkpt>
      <trkpt lat="44.70828" lon="5.12376">
        <ele>268.2</ele>
        <time>1970-01-01T04:33:25.000Z</time>
      </trkpt>
      <trkpt lat="44.70827" lon="5.12381">
        <ele>268.4</ele>
        <time>1970-01-01T04:33:26.000Z</time>
      </trkpt>
      <trkpt lat="44.70827" lon="5.12386">
        <ele>268.8</ele>
        <time>1970-01-01T04:33:27.000Z</time>
      </trkpt>
      <trkpt lat="44.70826" lon="5.12391">
        <ele>269</ele>
        <time>1970-01-01T04:33:28.000Z</time>
      </trkpt>
      <trkpt lat="44.70825" lon="5.12396">
        <ele>269.4</ele>
        <time>1970-01-01T04:33:29.000Z</time>
      </trkpt>
      <trkpt lat="44.70825" lon="5.12401">
        <ele>269.4</ele>
        <time>1970-01-01T04:33:30.000Z</time>
      </trkpt>
      <trkpt lat="44.70824" lon="5.12406">
        <ele>269.8</ele>
        <time>1970-01-01T04:33:31.000Z</time>
      </trkpt>
      <trkpt lat="44.70824" lon="5.12412">
        <ele>270</ele>
        <time>1970-01-01T04:33:32.000Z</time>
      </trkpt>
      <trkpt lat="44.70824" lon="5.12417">
        <ele>270.2</ele>
        <time>1970-01-01T04:33:33.000Z</time>
      </trkpt>
      <trkpt lat="44.70825" lon="5.12423">
        <ele>270.6</ele>
        <time>1970-01-01T04:33:34.000Z</time>
      </trkpt>
      <trkpt lat="44.70825" lon="5.12427">
        <ele>271</ele>
        <time>1970-01-01T04:33:35.000Z</time>
      </trkpt>
      <trkpt lat="44.70825" lon="5.12433">
        <ele>271.2</ele>
        <time>1970-01-01T04:33:36.000Z</time>
      </trkpt>
      <trkpt lat="44.70825" lon="5.12436">
        <ele>271.6</ele>
        <time>1970-01-01T04:33:37.000Z</time>
      </trkpt>
      <trkpt lat="44.70825" lon="5.12441">
        <ele>272</ele>
        <time>1970-01-01T04:33:38.000Z</time>
      </trkpt>
      <trkpt lat="44.70825" lon="5.12446">
        <ele>272</ele>
        <time>1970-01-01T04:33:39.000Z</time>
      </trkpt>
      <trkpt lat="44.70825" lon="5.12451">
        <ele>272.4</ele>
        <time>1970-01-01T04:33:40.000Z</time>
      </trkpt>
      <trkpt lat="44.70825" lon="5.12456">
        <ele>272.6</ele>
        <time>1970-01-01T04:33:41.000Z</time>
      </trkpt>
      <trkpt lat="44.70826" lon="5.12462">
        <ele>272.6</ele>
        <time>1970-01-01T04:33:42.000Z</time>
      </trkpt>
      <trkpt lat="44.70826" lon="5.12467">
        <ele>272.8</ele>
        <time>1970-01-01T04:33:43.000Z</time>
      </trkpt>
      <trkpt lat="44.70826" lon="5.12473">
        <ele>273</ele>
        <time>1970-01-01T04:33:44.000Z</time>
      </trkpt>
      <trkpt lat="44.70827" lon="5.12478">
        <ele>273.2</ele>
        <time>1970-01-01T04:33:45.000Z</time>
      </trkpt>
      <trkpt lat="44.70827" lon="5.12483">
        <ele>273.6</ele>
        <time>1970-01-01T04:33:46.000Z</time>
      </trkpt>
      <trkpt lat="44.70827" lon="5.1249">
        <ele>273.8</ele>
        <time>1970-01-01T04:33:47.000Z</time>
      </trkpt>
      <trkpt lat="44.70827" lon="5.12496">
        <ele>274</ele>
        <time>1970-01-01T04:33:48.000Z</time>
      </trkpt>
      <trkpt lat="44.70827" lon="5.125">
        <ele>274.2</ele>
        <time>1970-01-01T04:33:49.000Z</time>
      </trkpt>
      <trkpt lat="44.70828" lon="5.12506">
        <ele>274.4</ele>
        <time>1970-01-01T04:33:50.000Z</time>
      </trkpt>
      <trkpt lat="44.70828" lon="5.12513">
        <ele>274.6</ele>
        <time>1970-01-01T04:33:51.000Z</time>
      </trkpt>
      <trkpt lat="44.70829" lon="5.12518">
        <ele>274.6</ele>
        <time>1970-01-01T04:33:52.000Z</time>
      </trkpt>
      <trkpt lat="44.70829" lon="5.12524">
        <ele>275</ele>
        <time>1970-01-01T04:33:53.000Z</time>
      </trkpt>
      <trkpt lat="44.70829" lon="5.1253">
        <ele>275.2</ele>
        <time>1970-01-01T04:33:54.000Z</time>
      </trkpt>
      <trkpt lat="44.70829" lon="5.12535">
        <ele>275.4</ele>
        <time>1970-01-01T04:33:55.000Z</time>
      </trkpt>
      <trkpt lat="44.70828" lon="5.12541">
        <ele>275.6</ele>
        <time>1970-01-01T04:33:56.000Z</time>
      </trkpt>
      <trkpt lat="44.70828" lon="5.12547">
        <ele>275.6</ele>
        <time>1970-01-01T04:33:57.000Z</time>
      </trkpt>
      <trkpt lat="44.70828" lon="5.12552">
        <ele>275.8</ele>
        <time>1970-01-01T04:33:58.000Z</time>
      </trkpt>
      <trkpt lat="44.70828" lon="5.12558">
        <ele>276</ele>
        <time>1970-01-01T04:33:59.000Z</time>
      </trkpt>
      <trkpt lat="44.70827" lon="5.12565">
        <ele>276.2</ele>
        <time>1970-01-01T04:34:00.000Z</time>
      </trkpt>
      <trkpt lat="44.70827" lon="5.12569">
        <ele>276.4</ele>
        <time>1970-01-01T04:34:01.000Z</time>
      </trkpt>
      <trkpt lat="44.70827" lon="5.12576">
        <ele>276.6</ele>
        <time>1970-01-01T04:34:02.000Z</time>
      </trkpt>
      <trkpt lat="44.70826" lon="5.1258">
        <ele>276.8</ele>
        <time>1970-01-01T04:34:03.000Z</time>
      </trkpt>
      <trkpt lat="44.70825" lon="5.12586">
        <ele>277</ele>
        <time>1970-01-01T04:34:04.000Z</time>
      </trkpt>
      <trkpt lat="44.70825" lon="5.12592">
        <ele>277.2</ele>
        <time>1970-01-01T04:34:05.000Z</time>
      </trkpt>
      <trkpt lat="44.70824" lon="5.12597">
        <ele>277.4</ele>
        <time>1970-01-01T04:34:06.000Z</time>
      </trkpt>
      <trkpt lat="44.70823" lon="5.12603">
        <ele>277.8</ele>
        <time>1970-01-01T04:34:07.000Z</time>
      </trkpt>
      <trkpt lat="44.70823" lon="5.12609">
        <ele>278</ele>
        <time>1970-01-01T04:34:08.000Z</time>
      </trkpt>
      <trkpt lat="44.70822" lon="5.12614">
        <ele>278.2</ele>
        <time>1970-01-01T04:34:09.000Z</time>
      </trkpt>
      <trkpt lat="44.70821" lon="5.1262">
        <ele>278.2</ele>
        <time>1970-01-01T04:34:10.000Z</time>
      </trkpt>
      <trkpt lat="44.70821" lon="5.12625">
        <ele>278.4</ele>
        <time>1970-01-01T04:34:11.000Z</time>
      </trkpt>
      <trkpt lat="44.7082" lon="5.12631">
        <ele>278.4</ele>
        <time>1970-01-01T04:34:12.000Z</time>
      </trkpt>
      <trkpt lat="44.7082" lon="5.12638">
        <ele>278.6</ele>
        <time>1970-01-01T04:34:13.000Z</time>
      </trkpt>
      <trkpt lat="44.70819" lon="5.12643">
        <ele>278.6</ele>
        <time>1970-01-01T04:34:14.000Z</time>
      </trkpt>
      <trkpt lat="44.70818" lon="5.12649">
        <ele>278.6</ele>
        <time>1970-01-01T04:34:15.000Z</time>
      </trkpt>
      <trkpt lat="44.70817" lon="5.12655">
        <ele>278.8</ele>
        <time>1970-01-01T04:34:16.000Z</time>
      </trkpt>
      <trkpt lat="44.70817" lon="5.12661">
        <ele>278.8</ele>
        <time>1970-01-01T04:34:17.000Z</time>
      </trkpt>
      <trkpt lat="44.70817" lon="5.12665">
        <ele>279</ele>
        <time>1970-01-01T04:34:18.000Z</time>
      </trkpt>
      <trkpt lat="44.70816" lon="5.12671">
        <ele>279</ele>
        <time>1970-01-01T04:34:19.000Z</time>
      </trkpt>
      <trkpt lat="44.70816" lon="5.12676">
        <ele>279.2</ele>
        <time>1970-01-01T04:34:20.000Z</time>
      </trkpt>
      <trkpt lat="44.70816" lon="5.12681">
        <ele>279.2</ele>
        <time>1970-01-01T04:34:21.000Z</time>
      </trkpt>
      <trkpt lat="44.70816" lon="5.12685">
        <ele>279.2</ele>
        <time>1970-01-01T04:34:22.000Z</time>
      </trkpt>
      <trkpt lat="44.70816" lon="5.12688">
        <ele>279.6</ele>
        <time>1970-01-01T04:34:23.000Z</time>
      </trkpt>
      <trkpt lat="44.70814" lon="5.12691">
        <ele>279.8</ele>
        <time>1970-01-01T04:34:24.000Z</time>
      </trkpt>
      <trkpt lat="44.70813" lon="5.12691">
        <ele>279.8</ele>
        <time>1970-01-01T04:34:25.000Z</time>
      </trkpt>
      <trkpt lat="44.70811" lon="5.12688">
        <ele>280</ele>
        <time>1970-01-01T04:34:26.000Z</time>
      </trkpt>
      <trkpt lat="44.7081" lon="5.12685">
        <ele>280.2</ele>
        <time>1970-01-01T04:34:27.000Z</time>
      </trkpt>
      <trkpt lat="44.7081" lon="5.12682">
        <ele>280.2</ele>
        <time>1970-01-01T04:34:28.000Z</time>
      </trkpt>
      <trkpt lat="44.70809" lon="5.12677">
        <ele>280.2</ele>
        <time>1970-01-01T04:34:29.000Z</time>
      </trkpt>
      <trkpt lat="44.70807" lon="5.12672">
        <ele>280.4</ele>
        <time>1970-01-01T04:34:30.000Z</time>
      </trkpt>
      <trkpt lat="44.70806" lon="5.12668">
        <ele>280.4</ele>
        <time>1970-01-01T04:34:31.000Z</time>
      </trkpt>
      <trkpt lat="44.70805" lon="5.12666">
        <ele>280.4</ele>
        <time>1970-01-01T04:34:32.000Z</time>
      </trkpt>
      <trkpt lat="44.70803" lon="5.12666">
        <ele>281</ele>
        <time>1970-01-01T04:34:33.000Z</time>
      </trkpt>
      <trkpt lat="44.70801" lon="5.12665">
        <ele>281.6</ele>
        <time>1970-01-01T04:34:34.000Z</time>
      </trkpt>
      <trkpt lat="44.70799" lon="5.12666">
        <ele>282.2</ele>
        <time>1970-01-01T04:34:35.000Z</time>
      </trkpt>
      <trkpt lat="44.70797" lon="5.12667">
        <ele>282.8</ele>
        <time>1970-01-01T04:34:36.000Z</time>
      </trkpt>
      <trkpt lat="44.70795" lon="5.12668">
        <ele>283.2</ele>
        <time>1970-01-01T04:34:37.000Z</time>
      </trkpt>
      <trkpt lat="44.70793" lon="5.12669">
        <ele>283.6</ele>
        <time>1970-01-01T04:34:38.000Z</time>
      </trkpt>
      <trkpt lat="44.70791" lon="5.12671">
        <ele>284</ele>
        <time>1970-01-01T04:34:39.000Z</time>
      </trkpt>
      <trkpt lat="44.70788" lon="5.12672">
        <ele>284.2</ele>
        <time>1970-01-01T04:34:40.000Z</time>
      </trkpt>
      <trkpt lat="44.70786" lon="5.12672">
        <ele>284.2</ele>
        <time>1970-01-01T04:34:41.000Z</time>
      </trkpt>
      <trkpt lat="44.70785" lon="5.12672">
        <ele>284.4</ele>
        <time>1970-01-01T04:34:42.000Z</time>
      </trkpt>
      <trkpt lat="44.70782" lon="5.12673">
        <ele>284.6</ele>
        <time>1970-01-01T04:34:43.000Z</time>
      </trkpt>
      <trkpt lat="44.70779" lon="5.12673">
        <ele>284.8</ele>
        <time>1970-01-01T04:34:44.000Z</time>
      </trkpt>
      <trkpt lat="44.70777" lon="5.12674">
        <ele>285</ele>
        <time>1970-01-01T04:34:45.000Z</time>
      </trkpt>
      <trkpt lat="44.70774" lon="5.12674">
        <ele>285.2</ele>
        <time>1970-01-01T04:34:46.000Z</time>
      </trkpt>
      <trkpt lat="44.70771" lon="5.12674">
        <ele>285.6</ele>
        <time>1970-01-01T04:34:47.000Z</time>
      </trkpt>
      <trkpt lat="44.70768" lon="5.12675">
        <ele>286</ele>
        <time>1970-01-01T04:34:48.000Z</time>
      </trkpt>
      <trkpt lat="44.70765" lon="5.12676">
        <ele>286.2</ele>
        <time>1970-01-01T04:34:49.000Z</time>
      </trkpt>
      <trkpt lat="44.70762" lon="5.12677">
        <ele>287</ele>
        <time>1970-01-01T04:34:50.000Z</time>
      </trkpt>
      <trkpt lat="44.70758" lon="5.12678">
        <ele>287.8</ele>
        <time>1970-01-01T04:34:51.000Z</time>
      </trkpt>
      <trkpt lat="44.70754" lon="5.12679">
        <ele>288</ele>
        <time>1970-01-01T04:34:52.000Z</time>
      </trkpt>
      <trkpt lat="44.70751" lon="5.1268">
        <ele>288.4</ele>
        <time>1970-01-01T04:34:53.000Z</time>
      </trkpt>
      <trkpt lat="44.70748" lon="5.12682">
        <ele>288.8</ele>
        <time>1970-01-01T04:34:54.000Z</time>
      </trkpt>
      <trkpt lat="44.70745" lon="5.12684">
        <ele>289.4</ele>
        <time>1970-01-01T04:34:55.000Z</time>
      </trkpt>
      <trkpt lat="44.70743" lon="5.12684">
        <ele>289.8</ele>
        <time>1970-01-01T04:34:56.000Z</time>
      </trkpt>
      <trkpt lat="44.7074" lon="5.12685">
        <ele>290</ele>
        <time>1970-01-01T04:34:57.000Z</time>
      </trkpt>
      <trkpt lat="44.70737" lon="5.12687">
        <ele>290.4</ele>
        <time>1970-01-01T04:34:58.000Z</time>
      </trkpt>
      <trkpt lat="44.70735" lon="5.12689">
        <ele>290.6</ele>
        <time>1970-01-01T04:34:59.000Z</time>
      </trkpt>
      <trkpt lat="44.70733" lon="5.1269">
        <ele>291.2</ele>
        <time>1970-01-01T04:35:00.000Z</time>
      </trkpt>
      <trkpt lat="44.70731" lon="5.1269">
        <ele>291.8</ele>
        <time>1970-01-01T04:35:01.000Z</time>
      </trkpt>
      <trkpt lat="44.7073" lon="5.12691">
        <ele>292.2</ele>
        <time>1970-01-01T04:35:02.000Z</time>
      </trkpt>
      <trkpt lat="44.70729" lon="5.12692">
        <ele>292.4</ele>
        <time>1970-01-01T04:35:03.000Z</time>
      </trkpt>
      <trkpt lat="44.70728" lon="5.12692">
        <ele>292.4</ele>
        <time>1970-01-01T04:35:04.000Z</time>
      </trkpt>
      <trkpt lat="44.70726" lon="5.12693">
        <ele>292.6</ele>
        <time>1970-01-01T04:35:05.000Z</time>
      </trkpt>
      <trkpt lat="44.70724" lon="5.12695">
        <ele>292.8</ele>
        <time>1970-01-01T04:35:06.000Z</time>
      </trkpt>
      <trkpt lat="44.70721" lon="5.12695">
        <ele>292.8</ele>
        <time>1970-01-01T04:35:07.000Z</time>
      </trkpt>
      <trkpt lat="44.7072" lon="5.12696">
        <ele>293.2</ele>
        <time>1970-01-01T04:35:08.000Z</time>
      </trkpt>
      <trkpt lat="44.70717" lon="5.12697">
        <ele>294</ele>
        <time>1970-01-01T04:35:09.000Z</time>
      </trkpt>
      <trkpt lat="44.70716" lon="5.12698">
        <ele>294.4</ele>
        <time>1970-01-01T04:35:10.000Z</time>
      </trkpt>
      <trkpt lat="44.70715" lon="5.12699">
        <ele>294.8</ele>
        <time>1970-01-01T04:35:11.000Z</time>
      </trkpt>
      <trkpt lat="44.70709" lon="5.12702">
        <ele>297</ele>
        <time>1970-01-01T04:35:41.000Z</time>
      </trkpt>
      <trkpt lat="44.70707" lon="5.12703">
        <ele>297</ele>
        <time>1970-01-01T04:35:42.000Z</time>
      </trkpt>
      <trkpt lat="44.70705" lon="5.12705">
        <ele>297.2</ele>
        <time>1970-01-01T04:35:43.000Z</time>
      </trkpt>
      <trkpt lat="44.70703" lon="5.12707">
        <ele>297.4</ele>
        <time>1970-01-01T04:35:44.000Z</time>
      </trkpt>
      <trkpt lat="44.707" lon="5.12708">
        <ele>297.4</ele>
        <time>1970-01-01T04:35:45.000Z</time>
      </trkpt>
      <trkpt lat="44.70698" lon="5.12707">
        <ele>298</ele>
        <time>1970-01-01T04:35:46.000Z</time>
      </trkpt>
      <trkpt lat="44.70697" lon="5.12705">
        <ele>298.2</ele>
        <time>1970-01-01T04:35:47.000Z</time>
      </trkpt>
      <trkpt lat="44.70697" lon="5.12703">
        <ele>298.6</ele>
        <time>1970-01-01T04:35:48.000Z</time>
      </trkpt>
      <trkpt lat="44.70698" lon="5.12701">
        <ele>298.8</ele>
        <time>1970-01-01T04:35:49.000Z</time>
      </trkpt>
      <trkpt lat="44.70699" lon="5.12698">
        <ele>298.8</ele>
        <time>1970-01-01T04:35:50.000Z</time>
      </trkpt>
      <trkpt lat="44.70699" lon="5.12695">
        <ele>299.2</ele>
        <time>1970-01-01T04:35:51.000Z</time>
      </trkpt>
      <trkpt lat="44.707" lon="5.12691">
        <ele>299.4</ele>
        <time>1970-01-01T04:35:52.000Z</time>
      </trkpt>
      <trkpt lat="44.70701" lon="5.12688">
        <ele>299.4</ele>
        <time>1970-01-01T04:35:53.000Z</time>
      </trkpt>
      <trkpt lat="44.70701" lon="5.12685">
        <ele>299.6</ele>
        <time>1970-01-01T04:35:54.000Z</time>
      </trkpt>
      <trkpt lat="44.70702" lon="5.12682">
        <ele>299.8</ele>
        <time>1970-01-01T04:35:55.000Z</time>
      </trkpt>
      <trkpt lat="44.70703" lon="5.1268">
        <ele>300</ele>
        <time>1970-01-01T04:35:56.000Z</time>
      </trkpt>
      <trkpt lat="44.70704" lon="5.12677">
        <ele>300.2</ele>
        <time>1970-01-01T04:35:57.000Z</time>
      </trkpt>
      <trkpt lat="44.70706" lon="5.12675">
        <ele>300.2</ele>
        <time>1970-01-01T04:35:58.000Z</time>
      </trkpt>
      <trkpt lat="44.70707" lon="5.12673">
        <ele>300.2</ele>
        <time>1970-01-01T04:35:59.000Z</time>
      </trkpt>
      <trkpt lat="44.70708" lon="5.1267">
        <ele>300.2</ele>
        <time>1970-01-01T04:36:00.000Z</time>
      </trkpt>
      <trkpt lat="44.70709" lon="5.12668">
        <ele>300.4</ele>
        <time>1970-01-01T04:36:01.000Z</time>
      </trkpt>
      <trkpt lat="44.7071" lon="5.12665">
        <ele>300.6</ele>
        <time>1970-01-01T04:36:02.000Z</time>
      </trkpt>
      <trkpt lat="44.70711" lon="5.12662">
        <ele>300.8</ele>
        <time>1970-01-01T04:36:03.000Z</time>
      </trkpt>
      <trkpt lat="44.70713" lon="5.12659">
        <ele>301</ele>
        <time>1970-01-01T04:36:04.000Z</time>
      </trkpt>
      <trkpt lat="44.70714" lon="5.12657">
        <ele>301.2</ele>
        <time>1970-01-01T04:36:05.000Z</time>
      </trkpt>
      <trkpt lat="44.70715" lon="5.12654">
        <ele>301.4</ele>
        <time>1970-01-01T04:36:06.000Z</time>
      </trkpt>
      <trkpt lat="44.70716" lon="5.12651">
        <ele>301.6</ele>
        <time>1970-01-01T04:36:07.000Z</time>
      </trkpt>
      <trkpt lat="44.70717" lon="5.12648">
        <ele>301.8</ele>
        <time>1970-01-01T04:36:08.000Z</time>
      </trkpt>
      <trkpt lat="44.70719" lon="5.12645">
        <ele>302</ele>
        <time>1970-01-01T04:36:09.000Z</time>
      </trkpt>
      <trkpt lat="44.7072" lon="5.12642">
        <ele>302.2</ele>
        <time>1970-01-01T04:36:10.000Z</time>
      </trkpt>
      <trkpt lat="44.70721" lon="5.12638">
        <ele>302.4</ele>
        <time>1970-01-01T04:36:11.000Z</time>
      </trkpt>
      <trkpt lat="44.70721" lon="5.12634">
        <ele>302.6</ele>
        <time>1970-01-01T04:36:12.000Z</time>
      </trkpt>
      <trkpt lat="44.70721" lon="5.12631">
        <ele>303.2</ele>
        <time>1970-01-01T04:36:13.000Z</time>
      </trkpt>
      <trkpt lat="44.70721" lon="5.12628">
        <ele>303.6</ele>
        <time>1970-01-01T04:36:14.000Z</time>
      </trkpt>
      <trkpt lat="44.70719" lon="5.12624">
        <ele>304</ele>
        <time>1970-01-01T04:36:15.000Z</time>
      </trkpt>
      <trkpt lat="44.70717" lon="5.12622">
        <ele>304.8</ele>
        <time>1970-01-01T04:36:16.000Z</time>
      </trkpt>
      <trkpt lat="44.70715" lon="5.12619">
        <ele>305.4</ele>
        <time>1970-01-01T04:36:17.000Z</time>
      </trkpt>
      <trkpt lat="44.70713" lon="5.12617">
        <ele>305.8</ele>
        <time>1970-01-01T04:36:18.000Z</time>
      </trkpt>
      <trkpt lat="44.7071" lon="5.12617">
        <ele>306</ele>
        <time>1970-01-01T04:36:19.000Z</time>
      </trkpt>
      <trkpt lat="44.70708" lon="5.12616">
        <ele>306.2</ele>
        <time>1970-01-01T04:36:20.000Z</time>
      </trkpt>
      <trkpt lat="44.70705" lon="5.12617">
        <ele>306.6</ele>
        <time>1970-01-01T04:36:21.000Z</time>
      </trkpt>
      <trkpt lat="44.70703" lon="5.12619">
        <ele>306.8</ele>
        <time>1970-01-01T04:36:22.000Z</time>
      </trkpt>
      <trkpt lat="44.70701" lon="5.1262">
        <ele>307</ele>
        <time>1970-01-01T04:36:23.000Z</time>
      </trkpt>
      <trkpt lat="44.70699" lon="5.12621">
        <ele>307.4</ele>
        <time>1970-01-01T04:36:24.000Z</time>
      </trkpt>
      <trkpt lat="44.70697" lon="5.12622">
        <ele>307.8</ele>
        <time>1970-01-01T04:36:25.000Z</time>
      </trkpt>
      <trkpt lat="44.70694" lon="5.12623">
        <ele>308</ele>
        <time>1970-01-01T04:36:26.000Z</time>
      </trkpt>
      <trkpt lat="44.70692" lon="5.12623">
        <ele>308.2</ele>
        <time>1970-01-01T04:36:27.000Z</time>
      </trkpt>
      <trkpt lat="44.70689" lon="5.12624">
        <ele>308.4</ele>
        <time>1970-01-01T04:36:28.000Z</time>
      </trkpt>
      <trkpt lat="44.70686" lon="5.12624">
        <ele>309</ele>
        <time>1970-01-01T04:36:29.000Z</time>
      </trkpt>
      <trkpt lat="44.70684" lon="5.12624">
        <ele>309.4</ele>
        <time>1970-01-01T04:36:30.000Z</time>
      </trkpt>
      <trkpt lat="44.70682" lon="5.12624">
        <ele>309.8</ele>
        <time>1970-01-01T04:36:31.000Z</time>
      </trkpt>
      <trkpt lat="44.70679" lon="5.12625">
        <ele>310.2</ele>
        <time>1970-01-01T04:36:32.000Z</time>
      </trkpt>
      <trkpt lat="44.70677" lon="5.12626">
        <ele>310.4</ele>
        <time>1970-01-01T04:36:33.000Z</time>
      </trkpt>
      <trkpt lat="44.70674" lon="5.12626">
        <ele>310.8</ele>
        <time>1970-01-01T04:36:34.000Z</time>
      </trkpt>
      <trkpt lat="44.70672" lon="5.12626">
        <ele>311.2</ele>
        <time>1970-01-01T04:36:35.000Z</time>
      </trkpt>
      <trkpt lat="44.70669" lon="5.12626">
        <ele>311.8</ele>
        <time>1970-01-01T04:36:36.000Z</time>
      </trkpt>
      <trkpt lat="44.70667" lon="5.12626">
        <ele>312.4</ele>
        <time>1970-01-01T04:36:37.000Z</time>
      </trkpt>
      <trkpt lat="44.70665" lon="5.12627">
        <ele>312.8</ele>
        <time>1970-01-01T04:36:38.000Z</time>
      </trkpt>
      <trkpt lat="44.70664" lon="5.1263">
        <ele>313.4</ele>
        <time>1970-01-01T04:36:39.000Z</time>
      </trkpt>
      <trkpt lat="44.70662" lon="5.12633">
        <ele>313.6</ele>
        <time>1970-01-01T04:36:40.000Z</time>
      </trkpt>
      <trkpt lat="44.70661" lon="5.12636">
        <ele>314.2</ele>
        <time>1970-01-01T04:36:41.000Z</time>
      </trkpt>
      <trkpt lat="44.70659" lon="5.12638">
        <ele>314.6</ele>
        <time>1970-01-01T04:36:42.000Z</time>
      </trkpt>
      <trkpt lat="44.70657" lon="5.1264">
        <ele>315</ele>
        <time>1970-01-01T04:36:43.000Z</time>
      </trkpt>
      <trkpt lat="44.70655" lon="5.12641">
        <ele>315.2</ele>
        <time>1970-01-01T04:36:44.000Z</time>
      </trkpt>
      <trkpt lat="44.70653" lon="5.12643">
        <ele>315.4</ele>
        <time>1970-01-01T04:36:45.000Z</time>
      </trkpt>
      <trkpt lat="44.70651" lon="5.12644">
        <ele>315.6</ele>
        <time>1970-01-01T04:36:46.000Z</time>
      </trkpt>
      <trkpt lat="44.70649" lon="5.12646">
        <ele>315.6</ele>
        <time>1970-01-01T04:36:47.000Z</time>
      </trkpt>
      <trkpt lat="44.70647" lon="5.12648">
        <ele>316</ele>
        <time>1970-01-01T04:36:48.000Z</time>
      </trkpt>
      <trkpt lat="44.70645" lon="5.1265">
        <ele>316.2</ele>
        <time>1970-01-01T04:36:49.000Z</time>
      </trkpt>
      <trkpt lat="44.70643" lon="5.12651">
        <ele>316.6</ele>
        <time>1970-01-01T04:36:50.000Z</time>
      </trkpt>
      <trkpt lat="44.70641" lon="5.12652">
        <ele>316.8</ele>
        <time>1970-01-01T04:36:51.000Z</time>
      </trkpt>
      <trkpt lat="44.70639" lon="5.12652">
        <ele>317</ele>
        <time>1970-01-01T04:36:52.000Z</time>
      </trkpt>
      <trkpt lat="44.70637" lon="5.12652">
        <ele>317.2</ele>
        <time>1970-01-01T04:36:53.000Z</time>
      </trkpt>
      <trkpt lat="44.70635" lon="5.12652">
        <ele>317.4</ele>
        <time>1970-01-01T04:36:54.000Z</time>
      </trkpt>
      <trkpt lat="44.70633" lon="5.12652">
        <ele>317.6</ele>
        <time>1970-01-01T04:36:55.000Z</time>
      </trkpt>
      <trkpt lat="44.70631" lon="5.12652">
        <ele>317.8</ele>
        <time>1970-01-01T04:36:56.000Z</time>
      </trkpt>
      <trkpt lat="44.70629" lon="5.12652">
        <ele>317.8</ele>
        <time>1970-01-01T04:36:57.000Z</time>
      </trkpt>
      <trkpt lat="44.70626" lon="5.12653">
        <ele>318</ele>
        <time>1970-01-01T04:36:58.000Z</time>
      </trkpt>
      <trkpt lat="44.70624" lon="5.12653">
        <ele>318.2</ele>
        <time>1970-01-01T04:36:59.000Z</time>
      </trkpt>
      <trkpt lat="44.70621" lon="5.12654">
        <ele>318.4</ele>
        <time>1970-01-01T04:37:00.000Z</time>
      </trkpt>
      <trkpt lat="44.70619" lon="5.12655">
        <ele>318.6</ele>
        <time>1970-01-01T04:37:01.000Z</time>
      </trkpt>
      <trkpt lat="44.70616" lon="5.12655">
        <ele>319</ele>
        <time>1970-01-01T04:37:02.000Z</time>
      </trkpt>
      <trkpt lat="44.70614" lon="5.12655">
        <ele>319</ele>
        <time>1970-01-01T04:37:03.000Z</time>
      </trkpt>
      <trkpt lat="44.70613" lon="5.12656">
        <ele>319.4</ele>
        <time>1970-01-01T04:37:04.000Z</time>
      </trkpt>
      <trkpt lat="44.7061" lon="5.12657">
        <ele>319.6</ele>
        <time>1970-01-01T04:37:05.000Z</time>
      </trkpt>
      <trkpt lat="44.70609" lon="5.12658">
        <ele>319.8</ele>
        <time>1970-01-01T04:37:06.000Z</time>
      </trkpt>
      <trkpt lat="44.70607" lon="5.12658">
        <ele>320.2</ele>
        <time>1970-01-01T04:37:07.000Z</time>
      </trkpt>
      <trkpt lat="44.70605" lon="5.12658">
        <ele>320.4</ele>
        <time>1970-01-01T04:37:08.000Z</time>
      </trkpt>
      <trkpt lat="44.70603" lon="5.12659">
        <ele>320.8</ele>
        <time>1970-01-01T04:37:09.000Z</time>
      </trkpt>
      <trkpt lat="44.70601" lon="5.1266">
        <ele>321</ele>
        <time>1970-01-01T04:37:10.000Z</time>
      </trkpt>
      <trkpt lat="44.70599" lon="5.12661">
        <ele>321.2</ele>
        <time>1970-01-01T04:37:11.000Z</time>
      </trkpt>
      <trkpt lat="44.70596" lon="5.12662">
        <ele>321.6</ele>
        <time>1970-01-01T04:37:12.000Z</time>
      </trkpt>
      <trkpt lat="44.70593" lon="5.12662">
        <ele>321.8</ele>
        <time>1970-01-01T04:37:13.000Z</time>
      </trkpt>
      <trkpt lat="44.70591" lon="5.12663">
        <ele>322.2</ele>
        <time>1970-01-01T04:37:14.000Z</time>
      </trkpt>
      <trkpt lat="44.70589" lon="5.12663">
        <ele>322.4</ele>
        <time>1970-01-01T04:37:15.000Z</time>
      </trkpt>
      <trkpt lat="44.70587" lon="5.12663">
        <ele>322.8</ele>
        <time>1970-01-01T04:37:16.000Z</time>
      </trkpt>
      <trkpt lat="44.70586" lon="5.12663">
        <ele>323</ele>
        <time>1970-01-01T04:37:17.000Z</time>
      </trkpt>
      <trkpt lat="44.70584" lon="5.12664">
        <ele>323.2</ele>
        <time>1970-01-01T04:37:18.000Z</time>
      </trkpt>
      <trkpt lat="44.70582" lon="5.12664">
        <ele>323.6</ele>
        <time>1970-01-01T04:37:19.000Z</time>
      </trkpt>
      <trkpt lat="44.7058" lon="5.12665">
        <ele>324</ele>
        <time>1970-01-01T04:37:20.000Z</time>
      </trkpt>
      <trkpt lat="44.70578" lon="5.12666">
        <ele>324.4</ele>
        <time>1970-01-01T04:37:21.000Z</time>
      </trkpt>
      <trkpt lat="44.70576" lon="5.12668">
        <ele>324.8</ele>
        <time>1970-01-01T04:37:22.000Z</time>
      </trkpt>
      <trkpt lat="44.70574" lon="5.1267">
        <ele>325</ele>
        <time>1970-01-01T04:37:23.000Z</time>
      </trkpt>
      <trkpt lat="44.70574" lon="5.12672">
        <ele>325.6</ele>
        <time>1970-01-01T04:37:24.000Z</time>
      </trkpt>
      <trkpt lat="44.70573" lon="5.12675">
        <ele>325.8</ele>
        <time>1970-01-01T04:37:25.000Z</time>
      </trkpt>
      <trkpt lat="44.70572" lon="5.12677">
        <ele>326</ele>
        <time>1970-01-01T04:37:26.000Z</time>
      </trkpt>
      <trkpt lat="44.70571" lon="5.12679">
        <ele>326</ele>
        <time>1970-01-01T04:37:27.000Z</time>
      </trkpt>
      <trkpt lat="44.70569" lon="5.12681">
        <ele>326.2</ele>
        <time>1970-01-01T04:37:28.000Z</time>
      </trkpt>
      <trkpt lat="44.70567" lon="5.12681">
        <ele>326.2</ele>
        <time>1970-01-01T04:37:29.000Z</time>
      </trkpt>
      <trkpt lat="44.70565" lon="5.12681">
        <ele>327</ele>
        <time>1970-01-01T04:37:30.000Z</time>
      </trkpt>
      <trkpt lat="44.70563" lon="5.12679">
        <ele>327.2</ele>
        <time>1970-01-01T04:37:31.000Z</time>
      </trkpt>
      <trkpt lat="44.70562" lon="5.12677">
        <ele>327.8</ele>
        <time>1970-01-01T04:37:32.000Z</time>
      </trkpt>
      <trkpt lat="44.7056" lon="5.12676">
        <ele>328.2</ele>
        <time>1970-01-01T04:37:33.000Z</time>
      </trkpt>
      <trkpt lat="44.70559" lon="5.12676">
        <ele>328.6</ele>
        <time>1970-01-01T04:37:34.000Z</time>
      </trkpt>
      <trkpt lat="44.70558" lon="5.12676">
        <ele>328.8</ele>
        <time>1970-01-01T04:37:35.000Z</time>
      </trkpt>
      <trkpt lat="44.70557" lon="5.12676">
        <ele>329</ele>
        <time>1970-01-01T04:37:36.000Z</time>
      </trkpt>
      <trkpt lat="44.70557" lon="5.12676">
        <ele>329</ele>
        <time>1970-01-01T04:37:38.000Z</time>
      </trkpt>
      <trkpt lat="44.70556" lon="5.12676">
        <ele>329</ele>
        <time>1970-01-01T04:37:39.000Z</time>
      </trkpt>
      <trkpt lat="44.70555" lon="5.12678">
        <ele>329</ele>
        <time>1970-01-01T04:37:40.000Z</time>
      </trkpt>
      <trkpt lat="44.70554" lon="5.1268">
        <ele>329</ele>
        <time>1970-01-01T04:37:41.000Z</time>
      </trkpt>
      <trkpt lat="44.70554" lon="5.12682">
        <ele>329</ele>
        <time>1970-01-01T04:37:42.000Z</time>
      </trkpt>
      <trkpt lat="44.70553" lon="5.12686">
        <ele>329.2</ele>
        <time>1970-01-01T04:37:43.000Z</time>
      </trkpt>
      <trkpt lat="44.70552" lon="5.12688">
        <ele>329.6</ele>
        <time>1970-01-01T04:37:44.000Z</time>
      </trkpt>
      <trkpt lat="44.70552" lon="5.12689">
        <ele>330.2</ele>
        <time>1970-01-01T04:37:45.000Z</time>
      </trkpt>
      <trkpt lat="44.70552" lon="5.1269">
        <ele>330.8</ele>
        <time>1970-01-01T04:37:46.000Z</time>
      </trkpt>
      <trkpt lat="44.70543" lon="5.12702">
        <ele>333.2</ele>
        <time>1970-01-01T04:39:58.000Z</time>
      </trkpt>
      <trkpt lat="44.70541" lon="5.12708">
        <ele>333.2</ele>
        <time>1970-01-01T04:39:59.000Z</time>
      </trkpt>
      <trkpt lat="44.70539" lon="5.12712">
        <ele>333.4</ele>
        <time>1970-01-01T04:40:00.000Z</time>
      </trkpt>
      <trkpt lat="44.70536" lon="5.12719">
        <ele>335.2</ele>
        <time>1970-01-01T04:40:02.000Z</time>
      </trkpt>
      <trkpt lat="44.70535" lon="5.12723">
        <ele>335.8</ele>
        <time>1970-01-01T04:40:03.000Z</time>
      </trkpt>
      <trkpt lat="44.70534" lon="5.12726">
        <ele>336.6</ele>
        <time>1970-01-01T04:40:04.000Z</time>
      </trkpt>
      <trkpt lat="44.70532" lon="5.1273">
        <ele>337.2</ele>
        <time>1970-01-01T04:40:05.000Z</time>
      </trkpt>
      <trkpt lat="44.70531" lon="5.12731">
        <ele>337.6</ele>
        <time>1970-01-01T04:40:06.000Z</time>
      </trkpt>
      <trkpt lat="44.7053" lon="5.12731">
        <ele>338.2</ele>
        <time>1970-01-01T04:40:07.000Z</time>
      </trkpt>
      <trkpt lat="44.70529" lon="5.12729">
        <ele>338.6</ele>
        <time>1970-01-01T04:40:08.000Z</time>
      </trkpt>
      <trkpt lat="44.70528" lon="5.12726">
        <ele>339</ele>
        <time>1970-01-01T04:40:09.000Z</time>
      </trkpt>
      <trkpt lat="44.70528" lon="5.12724">
        <ele>339</ele>
        <time>1970-01-01T04:40:10.000Z</time>
      </trkpt>
      <trkpt lat="44.70528" lon="5.12721">
        <ele>339.2</ele>
        <time>1970-01-01T04:40:11.000Z</time>
      </trkpt>
      <trkpt lat="44.70527" lon="5.12717">
        <ele>339.4</ele>
        <time>1970-01-01T04:40:12.000Z</time>
      </trkpt>
      <trkpt lat="44.70527" lon="5.12714">
        <ele>339.6</ele>
        <time>1970-01-01T04:40:13.000Z</time>
      </trkpt>
      <trkpt lat="44.70527" lon="5.12711">
        <ele>340</ele>
        <time>1970-01-01T04:40:14.000Z</time>
      </trkpt>
      <trkpt lat="44.70527" lon="5.12708">
        <ele>340</ele>
        <time>1970-01-01T04:40:15.000Z</time>
      </trkpt>
      <trkpt lat="44.70527" lon="5.12705">
        <ele>340.2</ele>
        <time>1970-01-01T04:40:16.000Z</time>
      </trkpt>
      <trkpt lat="44.70526" lon="5.12702">
        <ele>340.6</ele>
        <time>1970-01-01T04:40:17.000Z</time>
      </trkpt>
      <trkpt lat="44.70526" lon="5.12699">
        <ele>340.8</ele>
        <time>1970-01-01T04:40:18.000Z</time>
      </trkpt>
      <trkpt lat="44.70527" lon="5.12696">
        <ele>340.8</ele>
        <time>1970-01-01T04:40:19.000Z</time>
      </trkpt>
      <trkpt lat="44.70527" lon="5.12693">
        <ele>340.8</ele>
        <time>1970-01-01T04:40:20.000Z</time>
      </trkpt>
      <trkpt lat="44.70526" lon="5.12689">
        <ele>341</ele>
        <time>1970-01-01T04:40:21.000Z</time>
      </trkpt>
      <trkpt lat="44.70526" lon="5.12687">
        <ele>341.2</ele>
        <time>1970-01-01T04:40:22.000Z</time>
      </trkpt>
      <trkpt lat="44.70526" lon="5.12684">
        <ele>341.4</ele>
        <time>1970-01-01T04:40:23.000Z</time>
      </trkpt>
      <trkpt lat="44.70527" lon="5.12681">
        <ele>341.6</ele>
        <time>1970-01-01T04:40:24.000Z</time>
      </trkpt>
      <trkpt lat="44.70527" lon="5.12677">
        <ele>341.8</ele>
        <time>1970-01-01T04:40:25.000Z</time>
      </trkpt>
      <trkpt lat="44.70527" lon="5.12674">
        <ele>342.2</ele>
        <time>1970-01-01T04:40:26.000Z</time>
      </trkpt>
      <trkpt lat="44.70528" lon="5.1267">
        <ele>342.4</ele>
        <time>1970-01-01T04:40:27.000Z</time>
      </trkpt>
      <trkpt lat="44.70528" lon="5.12668">
        <ele>342.6</ele>
        <time>1970-01-01T04:40:28.000Z</time>
      </trkpt>
      <trkpt lat="44.70529" lon="5.12665">
        <ele>343.4</ele>
        <time>1970-01-01T04:40:29.000Z</time>
      </trkpt>
      <trkpt lat="44.70529" lon="5.12662">
        <ele>343.8</ele>
        <time>1970-01-01T04:40:30.000Z</time>
      </trkpt>
      <trkpt lat="44.70529" lon="5.12658">
        <ele>344.4</ele>
        <time>1970-01-01T04:40:31.000Z</time>
      </trkpt>
      <trkpt lat="44.70529" lon="5.12656">
        <ele>344.8</ele>
        <time>1970-01-01T04:40:32.000Z</time>
      </trkpt>
      <trkpt lat="44.70529" lon="5.12653">
        <ele>345</ele>
        <time>1970-01-01T04:40:33.000Z</time>
      </trkpt>
      <trkpt lat="44.70529" lon="5.12652">
        <ele>345</ele>
        <time>1970-01-01T04:40:34.000Z</time>
      </trkpt>
      <trkpt lat="44.7053" lon="5.1265">
        <ele>345.6</ele>
        <time>1970-01-01T04:40:35.000Z</time>
      </trkpt>
      <trkpt lat="44.7053" lon="5.12648">
        <ele>346</ele>
        <time>1970-01-01T04:40:36.000Z</time>
      </trkpt>
      <trkpt lat="44.7053" lon="5.12644">
        <ele>346.4</ele>
        <time>1970-01-01T04:40:37.000Z</time>
      </trkpt>
      <trkpt lat="44.7053" lon="5.1264">
        <ele>346.6</ele>
        <time>1970-01-01T04:40:38.000Z</time>
      </trkpt>
      <trkpt lat="44.7053" lon="5.12638">
        <ele>346.8</ele>
        <time>1970-01-01T04:40:39.000Z</time>
      </trkpt>
      <trkpt lat="44.70531" lon="5.12635">
        <ele>346.8</ele>
        <time>1970-01-01T04:40:40.000Z</time>
      </trkpt>
      <trkpt lat="44.70531" lon="5.12631">
        <ele>347.2</ele>
        <time>1970-01-01T04:40:41.000Z</time>
      </trkpt>
      <trkpt lat="44.70531" lon="5.12628">
        <ele>347.4</ele>
        <time>1970-01-01T04:40:42.000Z</time>
      </trkpt>
      <trkpt lat="44.70531" lon="5.12625">
        <ele>347.4</ele>
        <time>1970-01-01T04:40:43.000Z</time>
      </trkpt>
      <trkpt lat="44.7053" lon="5.12623">
        <ele>347.8</ele>
        <time>1970-01-01T04:40:44.000Z</time>
      </trkpt>
      <trkpt lat="44.7053" lon="5.1262">
        <ele>348</ele>
        <time>1970-01-01T04:40:45.000Z</time>
      </trkpt>
      <trkpt lat="44.70529" lon="5.12616">
        <ele>348</ele>
        <time>1970-01-01T04:40:46.000Z</time>
      </trkpt>
      <trkpt lat="44.70528" lon="5.12612">
        <ele>348.2</ele>
        <time>1970-01-01T04:40:47.000Z</time>
      </trkpt>
      <trkpt lat="44.70528" lon="5.12608">
        <ele>348.4</ele>
        <time>1970-01-01T04:40:48.000Z</time>
      </trkpt>
      <trkpt lat="44.70527" lon="5.12605">
        <ele>348.6</ele>
        <time>1970-01-01T04:40:49.000Z</time>
      </trkpt>
      <trkpt lat="44.70527" lon="5.12602">
        <ele>348.6</ele>
        <time>1970-01-01T04:40:50.000Z</time>
      </trkpt>
      <trkpt lat="44.70527" lon="5.12597">
        <ele>348.8</ele>
        <time>1970-01-01T04:40:51.000Z</time>
      </trkpt>
      <trkpt lat="44.70527" lon="5.12594">
        <ele>349</ele>
        <time>1970-01-01T04:40:52.000Z</time>
      </trkpt>
      <trkpt lat="44.70527" lon="5.12591">
        <ele>349</ele>
        <time>1970-01-01T04:40:53.000Z</time>
      </trkpt>
      <trkpt lat="44.70527" lon="5.12589">
        <ele>349.2</ele>
        <time>1970-01-01T04:40:54.000Z</time>
      </trkpt>
      <trkpt lat="44.70527" lon="5.12585">
        <ele>349.2</ele>
        <time>1970-01-01T04:40:55.000Z</time>
      </trkpt>
      <trkpt lat="44.70528" lon="5.12581">
        <ele>349.4</ele>
        <time>1970-01-01T04:40:56.000Z</time>
      </trkpt>
      <trkpt lat="44.70529" lon="5.12578">
        <ele>349.4</ele>
        <time>1970-01-01T04:40:57.000Z</time>
      </trkpt>
      <trkpt lat="44.7053" lon="5.12575">
        <ele>349.4</ele>
        <time>1970-01-01T04:40:58.000Z</time>
      </trkpt>
      <trkpt lat="44.70531" lon="5.12572">
        <ele>349.8</ele>
        <time>1970-01-01T04:40:59.000Z</time>
      </trkpt>
      <trkpt lat="44.70531" lon="5.12568">
        <ele>350</ele>
        <time>1970-01-01T04:41:00.000Z</time>
      </trkpt>
      <trkpt lat="44.70532" lon="5.12564">
        <ele>350.2</ele>
        <time>1970-01-01T04:41:01.000Z</time>
      </trkpt>
      <trkpt lat="44.70533" lon="5.12561">
        <ele>350.4</ele>
        <time>1970-01-01T04:41:02.000Z</time>
      </trkpt>
      <trkpt lat="44.70533" lon="5.12558">
        <ele>350.6</ele>
        <time>1970-01-01T04:41:03.000Z</time>
      </trkpt>
      <trkpt lat="44.70535" lon="5.12556">
        <ele>350.6</ele>
        <time>1970-01-01T04:41:04.000Z</time>
      </trkpt>
      <trkpt lat="44.70536" lon="5.12552">
        <ele>350.8</ele>
        <time>1970-01-01T04:41:05.000Z</time>
      </trkpt>
      <trkpt lat="44.70537" lon="5.12549">
        <ele>351</ele>
        <time>1970-01-01T04:41:06.000Z</time>
      </trkpt>
      <trkpt lat="44.70538" lon="5.12547">
        <ele>351.2</ele>
        <time>1970-01-01T04:41:07.000Z</time>
      </trkpt>
      <trkpt lat="44.70539" lon="5.12545">
        <ele>351.4</ele>
        <time>1970-01-01T04:41:08.000Z</time>
      </trkpt>
      <trkpt lat="44.7054" lon="5.12542">
        <ele>351.8</ele>
        <time>1970-01-01T04:41:09.000Z</time>
      </trkpt>
      <trkpt lat="44.70541" lon="5.12539">
        <ele>352.2</ele>
        <time>1970-01-01T04:41:10.000Z</time>
      </trkpt>
      <trkpt lat="44.70542" lon="5.12537">
        <ele>352.4</ele>
        <time>1970-01-01T04:41:11.000Z</time>
      </trkpt>
      <trkpt lat="44.70543" lon="5.12535">
        <ele>352.6</ele>
        <time>1970-01-01T04:41:12.000Z</time>
      </trkpt>
      <trkpt lat="44.70543" lon="5.12532">
        <ele>353</ele>
        <time>1970-01-01T04:41:13.000Z</time>
      </trkpt>
      <trkpt lat="44.70544" lon="5.1253">
        <ele>353.2</ele>
        <time>1970-01-01T04:41:14.000Z</time>
      </trkpt>
      <trkpt lat="44.70545" lon="5.12526">
        <ele>353.4</ele>
        <time>1970-01-01T04:41:15.000Z</time>
      </trkpt>
      <trkpt lat="44.70546" lon="5.12523">
        <ele>354</ele>
        <time>1970-01-01T04:41:16.000Z</time>
      </trkpt>
      <trkpt lat="44.70547" lon="5.1252">
        <ele>354.4</ele>
        <time>1970-01-01T04:41:17.000Z</time>
      </trkpt>
      <trkpt lat="44.70547" lon="5.12517">
        <ele>354.8</ele>
        <time>1970-01-01T04:41:18.000Z</time>
      </trkpt>
      <trkpt lat="44.70548" lon="5.12513">
        <ele>355.4</ele>
        <time>1970-01-01T04:41:19.000Z</time>
      </trkpt>
      <trkpt lat="44.70548" lon="5.1251">
        <ele>355.8</ele>
        <time>1970-01-01T04:41:20.000Z</time>
      </trkpt>
      <trkpt lat="44.70548" lon="5.12507">
        <ele>356.4</ele>
        <time>1970-01-01T04:41:21.000Z</time>
      </trkpt>
      <trkpt lat="44.70546" lon="5.12506">
        <ele>357.2</ele>
        <time>1970-01-01T04:41:22.000Z</time>
      </trkpt>
      <trkpt lat="44.70544" lon="5.12506">
        <ele>357.6</ele>
        <time>1970-01-01T04:41:23.000Z</time>
      </trkpt>
      <trkpt lat="44.70542" lon="5.12506">
        <ele>358</ele>
        <time>1970-01-01T04:41:24.000Z</time>
      </trkpt>
      <trkpt lat="44.7054" lon="5.12508">
        <ele>358.2</ele>
        <time>1970-01-01T04:41:25.000Z</time>
      </trkpt>
      <trkpt lat="44.70537" lon="5.12509">
        <ele>358.6</ele>
        <time>1970-01-01T04:41:26.000Z</time>
      </trkpt>
      <trkpt lat="44.70536" lon="5.1251">
        <ele>358.8</ele>
        <time>1970-01-01T04:41:27.000Z</time>
      </trkpt>
      <trkpt lat="44.70534" lon="5.12511">
        <ele>358.8</ele>
        <time>1970-01-01T04:41:28.000Z</time>
      </trkpt>
      <trkpt lat="44.70532" lon="5.12512">
        <ele>359</ele>
        <time>1970-01-01T04:41:29.000Z</time>
      </trkpt>
      <trkpt lat="44.70531" lon="5.12514">
        <ele>359.2</ele>
        <time>1970-01-01T04:41:30.000Z</time>
      </trkpt>
      <trkpt lat="44.70529" lon="5.12515">
        <ele>359.2</ele>
        <time>1970-01-01T04:41:31.000Z</time>
      </trkpt>
      <trkpt lat="44.70527" lon="5.12516">
        <ele>359.4</ele>
        <time>1970-01-01T04:41:32.000Z</time>
      </trkpt>
      <trkpt lat="44.70525" lon="5.12516">
        <ele>359.8</ele>
        <time>1970-01-01T04:41:33.000Z</time>
      </trkpt>
      <trkpt lat="44.70522" lon="5.12516">
        <ele>360</ele>
        <time>1970-01-01T04:41:34.000Z</time>
      </trkpt>
      <trkpt lat="44.7052" lon="5.12516">
        <ele>360.2</ele>
        <time>1970-01-01T04:41:35.000Z</time>
      </trkpt>
      <trkpt lat="44.70519" lon="5.12516">
        <ele>360.6</ele>
        <time>1970-01-01T04:41:36.000Z</time>
      </trkpt>
      <trkpt lat="44.70517" lon="5.12515">
        <ele>361</ele>
        <time>1970-01-01T04:41:37.000Z</time>
      </trkpt>
      <trkpt lat="44.70516" lon="5.12515">
        <ele>361.2</ele>
        <time>1970-01-01T04:41:38.000Z</time>
      </trkpt>
      <trkpt lat="44.70514" lon="5.12515">
        <ele>361.4</ele>
        <time>1970-01-01T04:41:39.000Z</time>
      </trkpt>
      <trkpt lat="44.70512" lon="5.12516">
        <ele>361.6</ele>
        <time>1970-01-01T04:41:40.000Z</time>
      </trkpt>
      <trkpt lat="44.7051" lon="5.12518">
        <ele>362</ele>
        <time>1970-01-01T04:41:41.000Z</time>
      </trkpt>
      <trkpt lat="44.70509" lon="5.1252">
        <ele>362.2</ele>
        <time>1970-01-01T04:41:42.000Z</time>
      </trkpt>
      <trkpt lat="44.70507" lon="5.12522">
        <ele>362.4</ele>
        <time>1970-01-01T04:41:43.000Z</time>
      </trkpt>
      <trkpt lat="44.70506" lon="5.12525">
        <ele>362.8</ele>
        <time>1970-01-01T04:41:44.000Z</time>
      </trkpt>
      <trkpt lat="44.70505" lon="5.12527">
        <ele>363.2</ele>
        <time>1970-01-01T04:41:45.000Z</time>
      </trkpt>
      <trkpt lat="44.70504" lon="5.12529">
        <ele>363.6</ele>
        <time>1970-01-01T04:41:46.000Z</time>
      </trkpt>
      <trkpt lat="44.70502" lon="5.12531">
        <ele>363.8</ele>
        <time>1970-01-01T04:41:47.000Z</time>
      </trkpt>
      <trkpt lat="44.70501" lon="5.12534">
        <ele>364</ele>
        <time>1970-01-01T04:41:48.000Z</time>
      </trkpt>
      <trkpt lat="44.705" lon="5.12537">
        <ele>364.2</ele>
        <time>1970-01-01T04:41:49.000Z</time>
      </trkpt>
      <trkpt lat="44.70499" lon="5.1254">
        <ele>364.2</ele>
        <time>1970-01-01T04:41:50.000Z</time>
      </trkpt>
      <trkpt lat="44.70499" lon="5.12542">
        <ele>364.4</ele>
        <time>1970-01-01T04:41:51.000Z</time>
      </trkpt>
      <trkpt lat="44.70498" lon="5.12545">
        <ele>364.6</ele>
        <time>1970-01-01T04:41:52.000Z</time>
      </trkpt>
      <trkpt lat="44.70497" lon="5.12548">
        <ele>365</ele>
        <time>1970-01-01T04:41:53.000Z</time>
      </trkpt>
      <trkpt lat="44.70496" lon="5.12551">
        <ele>365.4</ele>
        <time>1970-01-01T04:41:54.000Z</time>
      </trkpt>
      <trkpt lat="44.70496" lon="5.12554">
        <ele>365.6</ele>
        <time>1970-01-01T04:41:55.000Z</time>
      </trkpt>
      <trkpt lat="44.70495" lon="5.12557">
        <ele>366</ele>
        <time>1970-01-01T04:41:56.000Z</time>
      </trkpt>
      <trkpt lat="44.70495" lon="5.12559">
        <ele>366.4</ele>
        <time>1970-01-01T04:41:57.000Z</time>
      </trkpt>
      <trkpt lat="44.70494" lon="5.12561">
        <ele>366.6</ele>
        <time>1970-01-01T04:41:58.000Z</time>
      </trkpt>
      <trkpt lat="44.70493" lon="5.12564">
        <ele>366.8</ele>
        <time>1970-01-01T04:41:59.000Z</time>
      </trkpt>
      <trkpt lat="44.70492" lon="5.12567">
        <ele>367.4</ele>
        <time>1970-01-01T04:42:00.000Z</time>
      </trkpt>
      <trkpt lat="44.70491" lon="5.1257">
        <ele>367.8</ele>
        <time>1970-01-01T04:42:01.000Z</time>
      </trkpt>
      <trkpt lat="44.70491" lon="5.12573">
        <ele>368.2</ele>
        <time>1970-01-01T04:42:02.000Z</time>
      </trkpt>
      <trkpt lat="44.7049" lon="5.12576">
        <ele>368.4</ele>
        <time>1970-01-01T04:42:03.000Z</time>
      </trkpt>
      <trkpt lat="44.7049" lon="5.12579">
        <ele>368.4</ele>
        <time>1970-01-01T04:42:04.000Z</time>
      </trkpt>
      <trkpt lat="44.7049" lon="5.12582">
        <ele>368.8</ele>
        <time>1970-01-01T04:42:05.000Z</time>
      </trkpt>
      <trkpt lat="44.70489" lon="5.12585">
        <ele>369.2</ele>
        <time>1970-01-01T04:42:06.000Z</time>
      </trkpt>
      <trkpt lat="44.70489" lon="5.12589">
        <ele>369.4</ele>
        <time>1970-01-01T04:42:07.000Z</time>
      </trkpt>
      <trkpt lat="44.70488" lon="5.12592">
        <ele>369.8</ele>
        <time>1970-01-01T04:42:08.000Z</time>
      </trkpt>
      <trkpt lat="44.70488" lon="5.12594">
        <ele>370</ele>
        <time>1970-01-01T04:42:09.000Z</time>
      </trkpt>
      <trkpt lat="44.70487" lon="5.12597">
        <ele>370.2</ele>
        <time>1970-01-01T04:42:10.000Z</time>
      </trkpt>
      <trkpt lat="44.70487" lon="5.12601">
        <ele>370.6</ele>
        <time>1970-01-01T04:42:11.000Z</time>
      </trkpt>
      <trkpt lat="44.70486" lon="5.12604">
        <ele>370.8</ele>
        <time>1970-01-01T04:42:12.000Z</time>
      </trkpt>
      <trkpt lat="44.70485" lon="5.12608">
        <ele>371.2</ele>
        <time>1970-01-01T04:42:13.000Z</time>
      </trkpt>
      <trkpt lat="44.70483" lon="5.12612">
        <ele>371.6</ele>
        <time>1970-01-01T04:42:14.000Z</time>
      </trkpt>
      <trkpt lat="44.70482" lon="5.12615">
        <ele>371.8</ele>
        <time>1970-01-01T04:42:15.000Z</time>
      </trkpt>
      <trkpt lat="44.70481" lon="5.12618">
        <ele>372.2</ele>
        <time>1970-01-01T04:42:16.000Z</time>
      </trkpt>
      <trkpt lat="44.7048" lon="5.1262">
        <ele>372.8</ele>
        <time>1970-01-01T04:42:17.000Z</time>
      </trkpt>
      <trkpt lat="44.70478" lon="5.12623">
        <ele>373.2</ele>
        <time>1970-01-01T04:42:18.000Z</time>
      </trkpt>
      <trkpt lat="44.70478" lon="5.12626">
        <ele>373.4</ele>
        <time>1970-01-01T04:42:19.000Z</time>
      </trkpt>
      <trkpt lat="44.70476" lon="5.12629">
        <ele>373.8</ele>
        <time>1970-01-01T04:42:20.000Z</time>
      </trkpt>
      <trkpt lat="44.70475" lon="5.12632">
        <ele>374</ele>
        <time>1970-01-01T04:42:21.000Z</time>
      </trkpt>
      <trkpt lat="44.70474" lon="5.12635">
        <ele>374.2</ele>
        <time>1970-01-01T04:42:22.000Z</time>
      </trkpt>
      <trkpt lat="44.70473" lon="5.12637">
        <ele>374.4</ele>
        <time>1970-01-01T04:42:23.000Z</time>
      </trkpt>
      <trkpt lat="44.70471" lon="5.12639">
        <ele>374.6</ele>
        <time>1970-01-01T04:42:24.000Z</time>
      </trkpt>
      <trkpt lat="44.7047" lon="5.12641">
        <ele>374.8</ele>
        <time>1970-01-01T04:42:25.000Z</time>
      </trkpt>
      <trkpt lat="44.70469" lon="5.12644">
        <ele>375</ele>
        <time>1970-01-01T04:42:26.000Z</time>
      </trkpt>
      <trkpt lat="44.70468" lon="5.12646">
        <ele>375</ele>
        <time>1970-01-01T04:42:27.000Z</time>
      </trkpt>
      <trkpt lat="44.70467" lon="5.12649">
        <ele>375.2</ele>
        <time>1970-01-01T04:42:28.000Z</time>
      </trkpt>
      <trkpt lat="44.70466" lon="5.12652">
        <ele>375.4</ele>
        <time>1970-01-01T04:42:29.000Z</time>
      </trkpt>
      <trkpt lat="44.70465" lon="5.12655">
        <ele>375.4</ele>
        <time>1970-01-01T04:42:30.000Z</time>
      </trkpt>
      <trkpt lat="44.70463" lon="5.12658">
        <ele>375.6</ele>
        <time>1970-01-01T04:42:31.000Z</time>
      </trkpt>
      <trkpt lat="44.70462" lon="5.1266">
        <ele>375.6</ele>
        <time>1970-01-01T04:42:32.000Z</time>
      </trkpt>
      <trkpt lat="44.70461" lon="5.12663">
        <ele>375.8</ele>
        <time>1970-01-01T04:42:33.000Z</time>
      </trkpt>
      <trkpt lat="44.7046" lon="5.12666">
        <ele>376</ele>
        <time>1970-01-01T04:42:34.000Z</time>
      </trkpt>
      <trkpt lat="44.70459" lon="5.12669">
        <ele>376.2</ele>
        <time>1970-01-01T04:42:35.000Z</time>
      </trkpt>
      <trkpt lat="44.70458" lon="5.12672">
        <ele>376.4</ele>
        <time>1970-01-01T04:42:36.000Z</time>
      </trkpt>
      <trkpt lat="44.70457" lon="5.12676">
        <ele>376.6</ele>
        <time>1970-01-01T04:42:37.000Z</time>
      </trkpt>
      <trkpt lat="44.70456" lon="5.12679">
        <ele>377</ele>
        <time>1970-01-01T04:42:38.000Z</time>
      </trkpt>
      <trkpt lat="44.70455" lon="5.12682">
        <ele>377.6</ele>
        <time>1970-01-01T04:42:39.000Z</time>
      </trkpt>
      <trkpt lat="44.70455" lon="5.12686">
        <ele>377.8</ele>
        <time>1970-01-01T04:42:40.000Z</time>
      </trkpt>
      <trkpt lat="44.70454" lon="5.12689">
        <ele>378.4</ele>
        <time>1970-01-01T04:42:41.000Z</time>
      </trkpt>
      <trkpt lat="44.70454" lon="5.12692">
        <ele>379</ele>
        <time>1970-01-01T04:42:42.000Z</time>
      </trkpt>
      <trkpt lat="44.70453" lon="5.12696">
        <ele>379.2</ele>
        <time>1970-01-01T04:42:43.000Z</time>
      </trkpt>
      <trkpt lat="44.70453" lon="5.12699">
        <ele>379.6</ele>
        <time>1970-01-01T04:42:44.000Z</time>
      </trkpt>
      <trkpt lat="44.70452" lon="5.12703">
        <ele>379.8</ele>
        <time>1970-01-01T04:42:45.000Z</time>
      </trkpt>
      <trkpt lat="44.70452" lon="5.12706">
        <ele>380</ele>
        <time>1970-01-01T04:42:46.000Z</time>
      </trkpt>
      <trkpt lat="44.70451" lon="5.12708">
        <ele>380.4</ele>
        <time>1970-01-01T04:42:47.000Z</time>
      </trkpt>
      <trkpt lat="44.7045" lon="5.12711">
        <ele>380.8</ele>
        <time>1970-01-01T04:42:48.000Z</time>
      </trkpt>
      <trkpt lat="44.70449" lon="5.12714">
        <ele>381.2</ele>
        <time>1970-01-01T04:42:49.000Z</time>
      </trkpt>
      <trkpt lat="44.70449" lon="5.12717">
        <ele>381.8</ele>
        <time>1970-01-01T04:42:50.000Z</time>
      </trkpt>
      <trkpt lat="44.70448" lon="5.12721">
        <ele>382</ele>
        <time>1970-01-01T04:42:51.000Z</time>
      </trkpt>
      <trkpt lat="44.70447" lon="5.12724">
        <ele>382.4</ele>
        <time>1970-01-01T04:42:52.000Z</time>
      </trkpt>
      <trkpt lat="44.70447" lon="5.12728">
        <ele>382.6</ele>
        <time>1970-01-01T04:42:53.000Z</time>
      </trkpt>
      <trkpt lat="44.70446" lon="5.12731">
        <ele>383</ele>
        <time>1970-01-01T04:42:54.000Z</time>
      </trkpt>
      <trkpt lat="44.70446" lon="5.12735">
        <ele>383.2</ele>
        <time>1970-01-01T04:42:55.000Z</time>
      </trkpt>
      <trkpt lat="44.70446" lon="5.12738">
        <ele>383.4</ele>
        <time>1970-01-01T04:42:56.000Z</time>
      </trkpt>
      <trkpt lat="44.70445" lon="5.12742">
        <ele>383.4</ele>
        <time>1970-01-01T04:42:57.000Z</time>
      </trkpt>
      <trkpt lat="44.70445" lon="5.12746">
        <ele>383.6</ele>
        <time>1970-01-01T04:42:58.000Z</time>
      </trkpt>
      <trkpt lat="44.70444" lon="5.1275">
        <ele>383.6</ele>
        <time>1970-01-01T04:42:59.000Z</time>
      </trkpt>
      <trkpt lat="44.70442" lon="5.12753">
        <ele>383.8</ele>
        <time>1970-01-01T04:43:00.000Z</time>
      </trkpt>
      <trkpt lat="44.70441" lon="5.12757">
        <ele>384</ele>
        <time>1970-01-01T04:43:01.000Z</time>
      </trkpt>
      <trkpt lat="44.70441" lon="5.12761">
        <ele>384.4</ele>
        <time>1970-01-01T04:43:02.000Z</time>
      </trkpt>
      <trkpt lat="44.7044" lon="5.12765">
        <ele>384.4</ele>
        <time>1970-01-01T04:43:03.000Z</time>
      </trkpt>
      <trkpt lat="44.7044" lon="5.12769">
        <ele>384.6</ele>
        <time>1970-01-01T04:43:04.000Z</time>
      </trkpt>
      <trkpt lat="44.70439" lon="5.12772">
        <ele>384.6</ele>
        <time>1970-01-01T04:43:05.000Z</time>
      </trkpt>
      <trkpt lat="44.70439" lon="5.12776">
        <ele>384.8</ele>
        <time>1970-01-01T04:43:06.000Z</time>
      </trkpt>
      <trkpt lat="44.70438" lon="5.12779">
        <ele>385</ele>
        <time>1970-01-01T04:43:07.000Z</time>
      </trkpt>
      <trkpt lat="44.70438" lon="5.12782">
        <ele>385.6</ele>
        <time>1970-01-01T04:43:08.000Z</time>
      </trkpt>
      <trkpt lat="44.70437" lon="5.12786">
        <ele>385.8</ele>
        <time>1970-01-01T04:43:09.000Z</time>
      </trkpt>
      <trkpt lat="44.70436" lon="5.1279">
        <ele>386</ele>
        <time>1970-01-01T04:43:10.000Z</time>
      </trkpt>
      <trkpt lat="44.70435" lon="5.12794">
        <ele>386.6</ele>
        <time>1970-01-01T04:43:11.000Z</time>
      </trkpt>
      <trkpt lat="44.70434" lon="5.12798">
        <ele>387</ele>
        <time>1970-01-01T04:43:12.000Z</time>
      </trkpt>
      <trkpt lat="44.70433" lon="5.12802">
        <ele>387.4</ele>
        <time>1970-01-01T04:43:13.000Z</time>
      </trkpt>
      <trkpt lat="44.70433" lon="5.12806">
        <ele>387.8</ele>
        <time>1970-01-01T04:43:14.000Z</time>
      </trkpt>
      <trkpt lat="44.70433" lon="5.1281">
        <ele>388</ele>
        <time>1970-01-01T04:43:15.000Z</time>
      </trkpt>
      <trkpt lat="44.70432" lon="5.12814">
        <ele>388.4</ele>
        <time>1970-01-01T04:43:16.000Z</time>
      </trkpt>
      <trkpt lat="44.70431" lon="5.12818">
        <ele>388.6</ele>
        <time>1970-01-01T04:43:17.000Z</time>
      </trkpt>
      <trkpt lat="44.70429" lon="5.12822">
        <ele>388.8</ele>
        <time>1970-01-01T04:43:18.000Z</time>
      </trkpt>
      <trkpt lat="44.70428" lon="5.12826">
        <ele>389.2</ele>
        <time>1970-01-01T04:43:19.000Z</time>
      </trkpt>
      <trkpt lat="44.70427" lon="5.1283">
        <ele>389.6</ele>
        <time>1970-01-01T04:43:20.000Z</time>
      </trkpt>
      <trkpt lat="44.70426" lon="5.12834">
        <ele>389.8</ele>
        <time>1970-01-01T04:43:21.000Z</time>
      </trkpt>
      <trkpt lat="44.70426" lon="5.12838">
        <ele>390</ele>
        <time>1970-01-01T04:43:22.000Z</time>
      </trkpt>
      <trkpt lat="44.70426" lon="5.12842">
        <ele>390.2</ele>
        <time>1970-01-01T04:43:23.000Z</time>
      </trkpt>
      <trkpt lat="44.70425" lon="5.12846">
        <ele>390.4</ele>
        <time>1970-01-01T04:43:24.000Z</time>
      </trkpt>
      <trkpt lat="44.70425" lon="5.1285">
        <ele>390.6</ele>
        <time>1970-01-01T04:43:25.000Z</time>
      </trkpt>
      <trkpt lat="44.70425" lon="5.12855">
        <ele>390.8</ele>
        <time>1970-01-01T04:43:26.000Z</time>
      </trkpt>
      <trkpt lat="44.70425" lon="5.12859">
        <ele>391.2</ele>
        <time>1970-01-01T04:43:27.000Z</time>
      </trkpt>
      <trkpt lat="44.70425" lon="5.12863">
        <ele>391.4</ele>
        <time>1970-01-01T04:43:28.000Z</time>
      </trkpt>
      <trkpt lat="44.70426" lon="5.12867">
        <ele>391.6</ele>
        <time>1970-01-01T04:43:29.000Z</time>
      </trkpt>
      <trkpt lat="44.70426" lon="5.12872">
        <ele>392</ele>
        <time>1970-01-01T04:43:30.000Z</time>
      </trkpt>
      <trkpt lat="44.70426" lon="5.12876">
        <ele>392.4</ele>
        <time>1970-01-01T04:43:31.000Z</time>
      </trkpt>
      <trkpt lat="44.70427" lon="5.1288">
        <ele>392.8</ele>
        <time>1970-01-01T04:43:32.000Z</time>
      </trkpt>
      <trkpt lat="44.70427" lon="5.12883">
        <ele>393.2</ele>
        <time>1970-01-01T04:43:33.000Z</time>
      </trkpt>
      <trkpt lat="44.70428" lon="5.12886">
        <ele>393.4</ele>
        <time>1970-01-01T04:43:34.000Z</time>
      </trkpt>
      <trkpt lat="44.70429" lon="5.1289">
        <ele>393.8</ele>
        <time>1970-01-01T04:43:35.000Z</time>
      </trkpt>
      <trkpt lat="44.70431" lon="5.12894">
        <ele>394.4</ele>
        <time>1970-01-01T04:43:36.000Z</time>
      </trkpt>
      <trkpt lat="44.70432" lon="5.12898">
        <ele>394.8</ele>
        <time>1970-01-01T04:43:37.000Z</time>
      </trkpt>
      <trkpt lat="44.70433" lon="5.12902">
        <ele>395</ele>
        <time>1970-01-01T04:43:38.000Z</time>
      </trkpt>
      <trkpt lat="44.70433" lon="5.12905">
        <ele>395.4</ele>
        <time>1970-01-01T04:43:39.000Z</time>
      </trkpt>
      <trkpt lat="44.70434" lon="5.12909">
        <ele>395.8</ele>
        <time>1970-01-01T04:43:40.000Z</time>
      </trkpt>
      <trkpt lat="44.70435" lon="5.12913">
        <ele>396.4</ele>
        <time>1970-01-01T04:43:41.000Z</time>
      </trkpt>
      <trkpt lat="44.70435" lon="5.12917">
        <ele>396.6</ele>
        <time>1970-01-01T04:43:42.000Z</time>
      </trkpt>
      <trkpt lat="44.70436" lon="5.12921">
        <ele>396.8</ele>
        <time>1970-01-01T04:43:43.000Z</time>
      </trkpt>
      <trkpt lat="44.70437" lon="5.12925">
        <ele>397.8</ele>
        <time>1970-01-01T04:43:44.000Z</time>
      </trkpt>
      <trkpt lat="44.70438" lon="5.12929">
        <ele>398.4</ele>
        <time>1970-01-01T04:43:45.000Z</time>
      </trkpt>
      <trkpt lat="44.70438" lon="5.12934">
        <ele>398.6</ele>
        <time>1970-01-01T04:43:46.000Z</time>
      </trkpt>
      <trkpt lat="44.70439" lon="5.12937">
        <ele>398.8</ele>
        <time>1970-01-01T04:43:47.000Z</time>
      </trkpt>
      <trkpt lat="44.7044" lon="5.12941">
        <ele>399.4</ele>
        <time>1970-01-01T04:43:48.000Z</time>
      </trkpt>
      <trkpt lat="44.70441" lon="5.12944">
        <ele>400</ele>
        <time>1970-01-01T04:43:49.000Z</time>
      </trkpt>
      <trkpt lat="44.70443" lon="5.12946">
        <ele>400.6</ele>
        <time>1970-01-01T04:43:50.000Z</time>
      </trkpt>
      <trkpt lat="44.70444" lon="5.12948">
        <ele>401</ele>
        <time>1970-01-01T04:43:51.000Z</time>
      </trkpt>
      <trkpt lat="44.70445" lon="5.12951">
        <ele>401.6</ele>
        <time>1970-01-01T04:43:52.000Z</time>
      </trkpt>
      <trkpt lat="44.70446" lon="5.12954">
        <ele>402.2</ele>
        <time>1970-01-01T04:43:53.000Z</time>
      </trkpt>
      <trkpt lat="44.70447" lon="5.12957">
        <ele>402.8</ele>
        <time>1970-01-01T04:43:54.000Z</time>
      </trkpt>
      <trkpt lat="44.70447" lon="5.12959">
        <ele>403.4</ele>
        <time>1970-01-01T04:43:55.000Z</time>
      </trkpt>
      <trkpt lat="44.70447" lon="5.12962">
        <ele>403.8</ele>
        <time>1970-01-01T04:43:56.000Z</time>
      </trkpt>
      <trkpt lat="44.70447" lon="5.12964">
        <ele>404.6</ele>
        <time>1970-01-01T04:43:57.000Z</time>
      </trkpt>
      <trkpt lat="44.70447" lon="5.12966">
        <ele>405.2</ele>
        <time>1970-01-01T04:43:58.000Z</time>
      </trkpt>
      <trkpt lat="44.70448" lon="5.12968">
        <ele>405.8</ele>
        <time>1970-01-01T04:43:59.000Z</time>
      </trkpt>
      <trkpt lat="44.70449" lon="5.12971">
        <ele>406.4</ele>
        <time>1970-01-01T04:44:00.000Z</time>
      </trkpt>
      <trkpt lat="44.70449" lon="5.12973">
        <ele>406.8</ele>
        <time>1970-01-01T04:44:01.000Z</time>
      </trkpt>
      <trkpt lat="44.70449" lon="5.12976">
        <ele>407.6</ele>
        <time>1970-01-01T04:44:02.000Z</time>
      </trkpt>
      <trkpt lat="44.7045" lon="5.12979">
        <ele>408.2</ele>
        <time>1970-01-01T04:44:03.000Z</time>
      </trkpt>
      <trkpt lat="44.7045" lon="5.12982">
        <ele>408.8</ele>
        <time>1970-01-01T04:44:04.000Z</time>
      </trkpt>
      <trkpt lat="44.70451" lon="5.12985">
        <ele>409.2</ele>
        <time>1970-01-01T04:44:05.000Z</time>
      </trkpt>
      <trkpt lat="44.70451" lon="5.12987">
        <ele>409.6</ele>
        <time>1970-01-01T04:44:06.000Z</time>
      </trkpt>
      <trkpt lat="44.70451" lon="5.1299">
        <ele>409.8</ele>
        <time>1970-01-01T04:44:07.000Z</time>
      </trkpt>
      <trkpt lat="44.70451" lon="5.12993">
        <ele>410.2</ele>
        <time>1970-01-01T04:44:08.000Z</time>
      </trkpt>
      <trkpt lat="44.7045" lon="5.12995">
        <ele>410.6</ele>
        <time>1970-01-01T04:44:09.000Z</time>
      </trkpt>
      <trkpt lat="44.7045" lon="5.12998">
        <ele>411</ele>
        <time>1970-01-01T04:44:10.000Z</time>
      </trkpt>
      <trkpt lat="44.7045" lon="5.13">
        <ele>411.4</ele>
        <time>1970-01-01T04:44:11.000Z</time>
      </trkpt>
      <trkpt lat="44.7045" lon="5.13002">
        <ele>412</ele>
        <time>1970-01-01T04:44:12.000Z</time>
      </trkpt>
      <trkpt lat="44.70449" lon="5.13004">
        <ele>412.4</ele>
        <time>1970-01-01T04:44:13.000Z</time>
      </trkpt>
      <trkpt lat="44.70448" lon="5.13006">
        <ele>412.6</ele>
        <time>1970-01-01T04:44:14.000Z</time>
      </trkpt>
      <trkpt lat="44.70448" lon="5.13007">
        <ele>412.8</ele>
        <time>1970-01-01T04:44:15.000Z</time>
      </trkpt>
      <trkpt lat="44.70447" lon="5.13008">
        <ele>413</ele>
        <time>1970-01-01T04:44:16.000Z</time>
      </trkpt>
      <trkpt lat="44.70447" lon="5.13009">
        <ele>413.2</ele>
        <time>1970-01-01T04:44:17.000Z</time>
      </trkpt>
      <trkpt lat="44.70446" lon="5.13011">
        <ele>413.2</ele>
        <time>1970-01-01T04:44:18.000Z</time>
      </trkpt>
      <trkpt lat="44.70446" lon="5.13012">
        <ele>413.4</ele>
        <time>1970-01-01T04:44:19.000Z</time>
      </trkpt>
      <trkpt lat="44.70445" lon="5.13014">
        <ele>413.6</ele>
        <time>1970-01-01T04:44:20.000Z</time>
      </trkpt>
      <trkpt lat="44.70444" lon="5.13016">
        <ele>413.8</ele>
        <time>1970-01-01T04:44:21.000Z</time>
      </trkpt>
      <trkpt lat="44.70443" lon="5.13018">
        <ele>413.8</ele>
        <time>1970-01-01T04:44:22.000Z</time>
      </trkpt>
      <trkpt lat="44.70442" lon="5.13019">
        <ele>414</ele>
        <time>1970-01-01T04:44:23.000Z</time>
      </trkpt>
      <trkpt lat="44.70441" lon="5.13021">
        <ele>414</ele>
        <time>1970-01-01T04:44:24.000Z</time>
      </trkpt>
      <trkpt lat="44.70441" lon="5.13023">
        <ele>414.4</ele>
        <time>1970-01-01T04:44:25.000Z</time>
      </trkpt>
      <trkpt lat="44.70441" lon="5.13025">
        <ele>414.6</ele>
        <time>1970-01-01T04:44:26.000Z</time>
      </trkpt>
      <trkpt lat="44.7044" lon="5.13027">
        <ele>415</ele>
        <time>1970-01-01T04:44:27.000Z</time>
      </trkpt>
      <trkpt lat="44.70439" lon="5.13029">
        <ele>415.2</ele>
        <time>1970-01-01T04:44:28.000Z</time>
      </trkpt>
      <trkpt lat="44.70438" lon="5.13031">
        <ele>415.2</ele>
        <time>1970-01-01T04:44:29.000Z</time>
      </trkpt>
      <trkpt lat="44.70438" lon="5.13033">
        <ele>415.4</ele>
        <time>1970-01-01T04:44:30.000Z</time>
      </trkpt>
      <trkpt lat="44.70437" lon="5.13035">
        <ele>415.4</ele>
        <time>1970-01-01T04:44:31.000Z</time>
      </trkpt>
      <trkpt lat="44.70436" lon="5.13036">
        <ele>415.6</ele>
        <time>1970-01-01T04:44:32.000Z</time>
      </trkpt>
      <trkpt lat="44.70435" lon="5.13038">
        <ele>415.8</ele>
        <time>1970-01-01T04:44:33.000Z</time>
      </trkpt>
      <trkpt lat="44.70434" lon="5.13041">
        <ele>415.8</ele>
        <time>1970-01-01T04:44:34.000Z</time>
      </trkpt>
      <trkpt lat="44.70433" lon="5.13043">
        <ele>416</ele>
        <time>1970-01-01T04:44:35.000Z</time>
      </trkpt>
      <trkpt lat="44.70432" lon="5.13046">
        <ele>416</ele>
        <time>1970-01-01T04:44:36.000Z</time>
      </trkpt>
      <trkpt lat="44.70431" lon="5.13048">
        <ele>416</ele>
        <time>1970-01-01T04:44:37.000Z</time>
      </trkpt>
      <trkpt lat="44.7043" lon="5.13051">
        <ele>416.2</ele>
        <time>1970-01-01T04:44:38.000Z</time>
      </trkpt>
      <trkpt lat="44.70428" lon="5.13054">
        <ele>416.2</ele>
        <time>1970-01-01T04:44:39.000Z</time>
      </trkpt>
      <trkpt lat="44.70426" lon="5.13057">
        <ele>416.2</ele>
        <time>1970-01-01T04:44:40.000Z</time>
      </trkpt>
      <trkpt lat="44.70424" lon="5.13061">
        <ele>416</ele>
        <time>1970-01-01T04:44:41.000Z</time>
      </trkpt>
      <trkpt lat="44.70423" lon="5.13064">
        <ele>416</ele>
        <time>1970-01-01T04:44:42.000Z</time>
      </trkpt>
      <trkpt lat="44.70421" lon="5.13067">
        <ele>416</ele>
        <time>1970-01-01T04:44:43.000Z</time>
      </trkpt>
      <trkpt lat="44.7042" lon="5.1307">
        <ele>416</ele>
        <time>1970-01-01T04:44:44.000Z</time>
      </trkpt>
      <trkpt lat="44.70419" lon="5.13073">
        <ele>416</ele>
        <time>1970-01-01T04:44:47.000Z</time>
      </trkpt>
      <trkpt lat="44.70418" lon="5.13081">
        <ele>414.4</ele>
        <time>1970-01-01T04:48:48.000Z</time>
      </trkpt>
      <trkpt lat="44.70417" lon="5.13085">
        <ele>414.4</ele>
        <time>1970-01-01T04:48:49.000Z</time>
      </trkpt>
      <trkpt lat="44.70415" lon="5.13089">
        <ele>414.4</ele>
        <time>1970-01-01T04:48:50.000Z</time>
      </trkpt>
      <trkpt lat="44.70413" lon="5.13092">
        <ele>414.4</ele>
        <time>1970-01-01T04:48:51.000Z</time>
      </trkpt>
      <trkpt lat="44.70403" lon="5.13116">
        <ele>413.4</ele>
        <time>1970-01-01T04:48:57.000Z</time>
      </trkpt>
      <trkpt lat="44.70401" lon="5.13121">
        <ele>413.4</ele>
        <time>1970-01-01T04:48:58.000Z</time>
      </trkpt>
      <trkpt lat="44.70396" lon="5.13136">
        <ele>412.4</ele>
        <time>1970-01-01T04:49:01.000Z</time>
      </trkpt>
      <trkpt lat="44.70394" lon="5.13141">
        <ele>412.2</ele>
        <time>1970-01-01T04:49:02.000Z</time>
      </trkpt>
      <trkpt lat="44.70393" lon="5.13147">
        <ele>412</ele>
        <time>1970-01-01T04:49:03.000Z</time>
      </trkpt>
      <trkpt lat="44.70391" lon="5.13153">
        <ele>411.8</ele>
        <time>1970-01-01T04:49:04.000Z</time>
      </trkpt>
      <trkpt lat="44.7039" lon="5.13165">
        <ele>411.4</ele>
        <time>1970-01-01T04:49:06.000Z</time>
      </trkpt>
      <trkpt lat="44.70389" lon="5.13171">
        <ele>411.2</ele>
        <time>1970-01-01T04:49:07.000Z</time>
      </trkpt>
      <trkpt lat="44.70388" lon="5.13177">
        <ele>411.2</ele>
        <time>1970-01-01T04:49:08.000Z</time>
      </trkpt>
      <trkpt lat="44.70388" lon="5.13182">
        <ele>411.2</ele>
        <time>1970-01-01T04:49:09.000Z</time>
      </trkpt>
      <trkpt lat="44.70387" lon="5.13187">
        <ele>411.2</ele>
        <time>1970-01-01T04:49:10.000Z</time>
      </trkpt>
      <trkpt lat="44.70386" lon="5.13192">
        <ele>411.2</ele>
        <time>1970-01-01T04:49:11.000Z</time>
      </trkpt>
      <trkpt lat="44.70386" lon="5.13196">
        <ele>411.4</ele>
        <time>1970-01-01T04:49:12.000Z</time>
      </trkpt>
      <trkpt lat="44.70385" lon="5.13201">
        <ele>411.4</ele>
        <time>1970-01-01T04:49:13.000Z</time>
      </trkpt>
      <trkpt lat="44.70385" lon="5.13205">
        <ele>411.6</ele>
        <time>1970-01-01T04:49:14.000Z</time>
      </trkpt>
      <trkpt lat="44.70384" lon="5.13223">
        <ele>412</ele>
        <time>1970-01-01T04:49:18.000Z</time>
      </trkpt>
      <trkpt lat="44.70384" lon="5.13228">
        <ele>412</ele>
        <time>1970-01-01T04:49:19.000Z</time>
      </trkpt>
      <trkpt lat="44.70385" lon="5.13237">
        <ele>412.2</ele>
        <time>1970-01-01T04:49:21.000Z</time>
      </trkpt>
      <trkpt lat="44.70385" lon="5.13252">
        <ele>412.2</ele>
        <time>1970-01-01T04:49:24.000Z</time>
      </trkpt>
      <trkpt lat="44.70386" lon="5.13257">
        <ele>412.2</ele>
        <time>1970-01-01T04:49:25.000Z</time>
      </trkpt>
      <trkpt lat="44.70386" lon="5.13261">
        <ele>412.2</ele>
        <time>1970-01-01T04:49:26.000Z</time>
      </trkpt>
      <trkpt lat="44.70386" lon="5.13276">
        <ele>412.8</ele>
        <time>1970-01-01T04:49:29.000Z</time>
      </trkpt>
      <trkpt lat="44.70386" lon="5.13285">
        <ele>413.4</ele>
        <time>1970-01-01T04:49:31.000Z</time>
      </trkpt>
      <trkpt lat="44.70386" lon="5.1329">
        <ele>413.6</ele>
        <time>1970-01-01T04:49:32.000Z</time>
      </trkpt>
      <trkpt lat="44.70386" lon="5.13294">
        <ele>413.8</ele>
        <time>1970-01-01T04:49:33.000Z</time>
      </trkpt>
      <trkpt lat="44.70387" lon="5.13303">
        <ele>414.8</ele>
        <time>1970-01-01T04:49:35.000Z</time>
      </trkpt>
      <trkpt lat="44.70388" lon="5.13308">
        <ele>415</ele>
        <time>1970-01-01T04:49:36.000Z</time>
      </trkpt>
      <trkpt lat="44.7039" lon="5.13318">
        <ele>415.2</ele>
        <time>1970-01-01T04:49:38.000Z</time>
      </trkpt>
      <trkpt lat="44.7039" lon="5.13322">
        <ele>415.4</ele>
        <time>1970-01-01T04:49:39.000Z</time>
      </trkpt>
      <trkpt lat="44.70391" lon="5.13327">
        <ele>415.6</ele>
        <time>1970-01-01T04:49:40.000Z</time>
      </trkpt>
      <trkpt lat="44.70391" lon="5.13331">
        <ele>415.8</ele>
        <time>1970-01-01T04:49:41.000Z</time>
      </trkpt>
      <trkpt lat="44.70392" lon="5.13336">
        <ele>416</ele>
        <time>1970-01-01T04:49:42.000Z</time>
      </trkpt>
      <trkpt lat="44.70393" lon="5.13341">
        <ele>416</ele>
        <time>1970-01-01T04:49:43.000Z</time>
      </trkpt>
      <trkpt lat="44.70393" lon="5.13345">
        <ele>416.4</ele>
        <time>1970-01-01T04:49:44.000Z</time>
      </trkpt>
      <trkpt lat="44.70395" lon="5.1335">
        <ele>416.6</ele>
        <time>1970-01-01T04:49:45.000Z</time>
      </trkpt>
      <trkpt lat="44.70396" lon="5.13355">
        <ele>416.8</ele>
        <time>1970-01-01T04:49:46.000Z</time>
      </trkpt>
      <trkpt lat="44.70397" lon="5.13359">
        <ele>417</ele>
        <time>1970-01-01T04:49:47.000Z</time>
      </trkpt>
      <trkpt lat="44.70399" lon="5.13363">
        <ele>417.2</ele>
        <time>1970-01-01T04:49:48.000Z</time>
      </trkpt>
      <trkpt lat="44.704" lon="5.13367">
        <ele>417.6</ele>
        <time>1970-01-01T04:49:49.000Z</time>
      </trkpt>
      <trkpt lat="44.70401" lon="5.13372">
        <ele>418</ele>
        <time>1970-01-01T04:49:50.000Z</time>
      </trkpt>
      <trkpt lat="44.70402" lon="5.13377">
        <ele>418.6</ele>
        <time>1970-01-01T04:49:51.000Z</time>
      </trkpt>
      <trkpt lat="44.70403" lon="5.13382">
        <ele>419</ele>
        <time>1970-01-01T04:49:52.000Z</time>
      </trkpt>
      <trkpt lat="44.70405" lon="5.13386">
        <ele>419.4</ele>
        <time>1970-01-01T04:49:53.000Z</time>
      </trkpt>
      <trkpt lat="44.70408" lon="5.1339">
        <ele>419.8</ele>
        <time>1970-01-01T04:49:54.000Z</time>
      </trkpt>
      <trkpt lat="44.7041" lon="5.13394">
        <ele>419.8</ele>
        <time>1970-01-01T04:49:55.000Z</time>
      </trkpt>
      <trkpt lat="44.70411" lon="5.13397">
        <ele>420</ele>
        <time>1970-01-01T04:49:56.000Z</time>
      </trkpt>
      <trkpt lat="44.70413" lon="5.13401">
        <ele>420.4</ele>
        <time>1970-01-01T04:49:57.000Z</time>
      </trkpt>
      <trkpt lat="44.70415" lon="5.13404">
        <ele>420.6</ele>
        <time>1970-01-01T04:49:58.000Z</time>
      </trkpt>
      <trkpt lat="44.70417" lon="5.13408">
        <ele>420.8</ele>
        <time>1970-01-01T04:49:59.000Z</time>
      </trkpt>
      <trkpt lat="44.70418" lon="5.13411">
        <ele>421.2</ele>
        <time>1970-01-01T04:50:00.000Z</time>
      </trkpt>
      <trkpt lat="44.7042" lon="5.13414">
        <ele>421.4</ele>
        <time>1970-01-01T04:50:01.000Z</time>
      </trkpt>
      <trkpt lat="44.70422" lon="5.13417">
        <ele>421.4</ele>
        <time>1970-01-01T04:50:02.000Z</time>
      </trkpt>
      <trkpt lat="44.70423" lon="5.1342">
        <ele>421.6</ele>
        <time>1970-01-01T04:50:03.000Z</time>
      </trkpt>
      <trkpt lat="44.70424" lon="5.13424">
        <ele>421.8</ele>
        <time>1970-01-01T04:50:04.000Z</time>
      </trkpt>
      <trkpt lat="44.70424" lon="5.13426">
        <ele>422</ele>
        <time>1970-01-01T04:50:05.000Z</time>
      </trkpt>
      <trkpt lat="44.70425" lon="5.13429">
        <ele>422.4</ele>
        <time>1970-01-01T04:50:06.000Z</time>
      </trkpt>
      <trkpt lat="44.70425" lon="5.13432">
        <ele>422.6</ele>
        <time>1970-01-01T04:50:07.000Z</time>
      </trkpt>
      <trkpt lat="44.70427" lon="5.13435">
        <ele>422.8</ele>
        <time>1970-01-01T04:50:08.000Z</time>
      </trkpt>
      <trkpt lat="44.70427" lon="5.13439">
        <ele>423.2</ele>
        <time>1970-01-01T04:50:09.000Z</time>
      </trkpt>
      <trkpt lat="44.70427" lon="5.13443">
        <ele>423.2</ele>
        <time>1970-01-01T04:50:10.000Z</time>
      </trkpt>
      <trkpt lat="44.70427" lon="5.13446">
        <ele>423.4</ele>
        <time>1970-01-01T04:50:11.000Z</time>
      </trkpt>
      <trkpt lat="44.70428" lon="5.1345">
        <ele>423.6</ele>
        <time>1970-01-01T04:50:12.000Z</time>
      </trkpt>
      <trkpt lat="44.70429" lon="5.13452">
        <ele>423.8</ele>
        <time>1970-01-01T04:50:13.000Z</time>
      </trkpt>
      <trkpt lat="44.70429" lon="5.13456">
        <ele>424</ele>
        <time>1970-01-01T04:50:14.000Z</time>
      </trkpt>
      <trkpt lat="44.7043" lon="5.13459">
        <ele>424.4</ele>
        <time>1970-01-01T04:50:15.000Z</time>
      </trkpt>
      <trkpt lat="44.70431" lon="5.13463">
        <ele>425</ele>
        <time>1970-01-01T04:50:16.000Z</time>
      </trkpt>
      <trkpt lat="44.70432" lon="5.13467">
        <ele>425.2</ele>
        <time>1970-01-01T04:50:17.000Z</time>
      </trkpt>
      <trkpt lat="44.70432" lon="5.1347">
        <ele>425.4</ele>
        <time>1970-01-01T04:50:18.000Z</time>
      </trkpt>
      <trkpt lat="44.70433" lon="5.13473">
        <ele>425.8</ele>
        <time>1970-01-01T04:50:19.000Z</time>
      </trkpt>
      <trkpt lat="44.70433" lon="5.13477">
        <ele>426.2</ele>
        <time>1970-01-01T04:50:20.000Z</time>
      </trkpt>
      <trkpt lat="44.70434" lon="5.1348">
        <ele>426.6</ele>
        <time>1970-01-01T04:50:21.000Z</time>
      </trkpt>
      <trkpt lat="44.70435" lon="5.13483">
        <ele>426.8</ele>
        <time>1970-01-01T04:50:22.000Z</time>
      </trkpt>
      <trkpt lat="44.70435" lon="5.13487">
        <ele>427.2</ele>
        <time>1970-01-01T04:50:23.000Z</time>
      </trkpt>
      <trkpt lat="44.70436" lon="5.13491">
        <ele>427.2</ele>
        <time>1970-01-01T04:50:24.000Z</time>
      </trkpt>
      <trkpt lat="44.70437" lon="5.13495">
        <ele>427.6</ele>
        <time>1970-01-01T04:50:25.000Z</time>
      </trkpt>
      <trkpt lat="44.70437" lon="5.13498">
        <ele>428</ele>
        <time>1970-01-01T04:50:26.000Z</time>
      </trkpt>
      <trkpt lat="44.70437" lon="5.13503">
        <ele>428.4</ele>
        <time>1970-01-01T04:50:27.000Z</time>
      </trkpt>
      <trkpt lat="44.70438" lon="5.13506">
        <ele>428.6</ele>
        <time>1970-01-01T04:50:28.000Z</time>
      </trkpt>
      <trkpt lat="44.70439" lon="5.13509">
        <ele>428.6</ele>
        <time>1970-01-01T04:50:29.000Z</time>
      </trkpt>
      <trkpt lat="44.70439" lon="5.13513">
        <ele>428.8</ele>
        <time>1970-01-01T04:50:30.000Z</time>
      </trkpt>
      <trkpt lat="44.7044" lon="5.13517">
        <ele>429.4</ele>
        <time>1970-01-01T04:50:31.000Z</time>
      </trkpt>
      <trkpt lat="44.7044" lon="5.1352">
        <ele>429.8</ele>
        <time>1970-01-01T04:50:32.000Z</time>
      </trkpt>
      <trkpt lat="44.7044" lon="5.13524">
        <ele>430.2</ele>
        <time>1970-01-01T04:50:33.000Z</time>
      </trkpt>
      <trkpt lat="44.70441" lon="5.13527">
        <ele>430.8</ele>
        <time>1970-01-01T04:50:34.000Z</time>
      </trkpt>
      <trkpt lat="44.70441" lon="5.1353">
        <ele>431.2</ele>
        <time>1970-01-01T04:50:35.000Z</time>
      </trkpt>
      <trkpt lat="44.70442" lon="5.13534">
        <ele>431.6</ele>
        <time>1970-01-01T04:50:36.000Z</time>
      </trkpt>
      <trkpt lat="44.70443" lon="5.13538">
        <ele>432.2</ele>
        <time>1970-01-01T04:50:37.000Z</time>
      </trkpt>
      <trkpt lat="44.70443" lon="5.13542">
        <ele>432.4</ele>
        <time>1970-01-01T04:50:38.000Z</time>
      </trkpt>
      <trkpt lat="44.70443" lon="5.13546">
        <ele>432.8</ele>
        <time>1970-01-01T04:50:39.000Z</time>
      </trkpt>
      <trkpt lat="44.70444" lon="5.13549">
        <ele>433.2</ele>
        <time>1970-01-01T04:50:40.000Z</time>
      </trkpt>
      <trkpt lat="44.70445" lon="5.13551">
        <ele>433.6</ele>
        <time>1970-01-01T04:50:41.000Z</time>
      </trkpt>
      <trkpt lat="44.70446" lon="5.13555">
        <ele>434</ele>
        <time>1970-01-01T04:50:42.000Z</time>
      </trkpt>
      <trkpt lat="44.70447" lon="5.13558">
        <ele>434.4</ele>
        <time>1970-01-01T04:50:43.000Z</time>
      </trkpt>
      <trkpt lat="44.70449" lon="5.13562">
        <ele>434.6</ele>
        <time>1970-01-01T04:50:44.000Z</time>
      </trkpt>
      <trkpt lat="44.7045" lon="5.13566">
        <ele>435</ele>
        <time>1970-01-01T04:50:45.000Z</time>
      </trkpt>
      <trkpt lat="44.70451" lon="5.13569">
        <ele>435.4</ele>
        <time>1970-01-01T04:50:46.000Z</time>
      </trkpt>
      <trkpt lat="44.70452" lon="5.13572">
        <ele>436</ele>
        <time>1970-01-01T04:50:47.000Z</time>
      </trkpt>
      <trkpt lat="44.70452" lon="5.13575">
        <ele>436.4</ele>
        <time>1970-01-01T04:50:48.000Z</time>
      </trkpt>
      <trkpt lat="44.70453" lon="5.13578">
        <ele>436.6</ele>
        <time>1970-01-01T04:50:49.000Z</time>
      </trkpt>
      <trkpt lat="44.70454" lon="5.13581">
        <ele>437.2</ele>
        <time>1970-01-01T04:50:50.000Z</time>
      </trkpt>
      <trkpt lat="44.70454" lon="5.13585">
        <ele>437.6</ele>
        <time>1970-01-01T04:50:51.000Z</time>
      </trkpt>
      <trkpt lat="44.70455" lon="5.13588">
        <ele>437.8</ele>
        <time>1970-01-01T04:50:52.000Z</time>
      </trkpt>
      <trkpt lat="44.70455" lon="5.13591">
        <ele>438</ele>
        <time>1970-01-01T04:50:53.000Z</time>
      </trkpt>
      <trkpt lat="44.70456" lon="5.13594">
        <ele>438.4</ele>
        <time>1970-01-01T04:50:54.000Z</time>
      </trkpt>
      <trkpt lat="44.70457" lon="5.13596">
        <ele>438.6</ele>
        <time>1970-01-01T04:50:55.000Z</time>
      </trkpt>
      <trkpt lat="44.70458" lon="5.13599">
        <ele>438.8</ele>
        <time>1970-01-01T04:50:56.000Z</time>
      </trkpt>
      <trkpt lat="44.7046" lon="5.13602">
        <ele>439</ele>
        <time>1970-01-01T04:50:57.000Z</time>
      </trkpt>
      <trkpt lat="44.70461" lon="5.13604">
        <ele>439.4</ele>
        <time>1970-01-01T04:50:58.000Z</time>
      </trkpt>
      <trkpt lat="44.70463" lon="5.13607">
        <ele>439.6</ele>
        <time>1970-01-01T04:50:59.000Z</time>
      </trkpt>
      <trkpt lat="44.70465" lon="5.13609">
        <ele>439.6</ele>
        <time>1970-01-01T04:51:00.000Z</time>
      </trkpt>
      <trkpt lat="44.70467" lon="5.13612">
        <ele>440.4</ele>
        <time>1970-01-01T04:51:01.000Z</time>
      </trkpt>
      <trkpt lat="44.70468" lon="5.13614">
        <ele>441</ele>
        <time>1970-01-01T04:51:02.000Z</time>
      </trkpt>
      <trkpt lat="44.7047" lon="5.13616">
        <ele>441.6</ele>
        <time>1970-01-01T04:51:03.000Z</time>
      </trkpt>
      <trkpt lat="44.70472" lon="5.13619">
        <ele>441.8</ele>
        <time>1970-01-01T04:51:04.000Z</time>
      </trkpt>
      <trkpt lat="44.70473" lon="5.13621">
        <ele>442.2</ele>
        <time>1970-01-01T04:51:05.000Z</time>
      </trkpt>
      <trkpt lat="44.70475" lon="5.13624">
        <ele>442.4</ele>
        <time>1970-01-01T04:51:06.000Z</time>
      </trkpt>
      <trkpt lat="44.70477" lon="5.13626">
        <ele>442.6</ele>
        <time>1970-01-01T04:51:07.000Z</time>
      </trkpt>
      <trkpt lat="44.70478" lon="5.13629">
        <ele>442.8</ele>
        <time>1970-01-01T04:51:08.000Z</time>
      </trkpt>
      <trkpt lat="44.7048" lon="5.13631">
        <ele>443</ele>
        <time>1970-01-01T04:51:09.000Z</time>
      </trkpt>
      <trkpt lat="44.70481" lon="5.13634">
        <ele>443.2</ele>
        <time>1970-01-01T04:51:10.000Z</time>
      </trkpt>
      <trkpt lat="44.70482" lon="5.13636">
        <ele>443.4</ele>
        <time>1970-01-01T04:51:11.000Z</time>
      </trkpt>
      <trkpt lat="44.70484" lon="5.13638">
        <ele>443.8</ele>
        <time>1970-01-01T04:51:12.000Z</time>
      </trkpt>
      <trkpt lat="44.70485" lon="5.13641">
        <ele>444</ele>
        <time>1970-01-01T04:51:13.000Z</time>
      </trkpt>
      <trkpt lat="44.70486" lon="5.13644">
        <ele>444.2</ele>
        <time>1970-01-01T04:51:14.000Z</time>
      </trkpt>
      <trkpt lat="44.70487" lon="5.13647">
        <ele>444.6</ele>
        <time>1970-01-01T04:51:15.000Z</time>
      </trkpt>
      <trkpt lat="44.70488" lon="5.1365">
        <ele>444.8</ele>
        <time>1970-01-01T04:51:16.000Z</time>
      </trkpt>
      <trkpt lat="44.70489" lon="5.13652">
        <ele>445</ele>
        <time>1970-01-01T04:51:17.000Z</time>
      </trkpt>
      <trkpt lat="44.7049" lon="5.13655">
        <ele>445.4</ele>
        <time>1970-01-01T04:51:18.000Z</time>
      </trkpt>
      <trkpt lat="44.70491" lon="5.13659">
        <ele>446</ele>
        <time>1970-01-01T04:51:19.000Z</time>
      </trkpt>
      <trkpt lat="44.70492" lon="5.13662">
        <ele>446.2</ele>
        <time>1970-01-01T04:51:20.000Z</time>
      </trkpt>
      <trkpt lat="44.70492" lon="5.13666">
        <ele>446.8</ele>
        <time>1970-01-01T04:51:21.000Z</time>
      </trkpt>
      <trkpt lat="44.70492" lon="5.13669">
        <ele>447</ele>
        <time>1970-01-01T04:51:22.000Z</time>
      </trkpt>
      <trkpt lat="44.70493" lon="5.13672">
        <ele>447.4</ele>
        <time>1970-01-01T04:51:23.000Z</time>
      </trkpt>
      <trkpt lat="44.70493" lon="5.13675">
        <ele>448</ele>
        <time>1970-01-01T04:51:24.000Z</time>
      </trkpt>
      <trkpt lat="44.70494" lon="5.13678">
        <ele>448.4</ele>
        <time>1970-01-01T04:51:25.000Z</time>
      </trkpt>
      <trkpt lat="44.70494" lon="5.13682">
        <ele>448.6</ele>
        <time>1970-01-01T04:51:26.000Z</time>
      </trkpt>
      <trkpt lat="44.70494" lon="5.13685">
        <ele>448.8</ele>
        <time>1970-01-01T04:51:27.000Z</time>
      </trkpt>
      <trkpt lat="44.70495" lon="5.13688">
        <ele>449.2</ele>
        <time>1970-01-01T04:51:28.000Z</time>
      </trkpt>
      <trkpt lat="44.70495" lon="5.13692">
        <ele>450</ele>
        <time>1970-01-01T04:51:29.000Z</time>
      </trkpt>
      <trkpt lat="44.70495" lon="5.13695">
        <ele>450.4</ele>
        <time>1970-01-01T04:51:30.000Z</time>
      </trkpt>
      <trkpt lat="44.70496" lon="5.13698">
        <ele>450.8</ele>
        <time>1970-01-01T04:51:31.000Z</time>
      </trkpt>
      <trkpt lat="44.70497" lon="5.13701">
        <ele>451.4</ele>
        <time>1970-01-01T04:51:32.000Z</time>
      </trkpt>
      <trkpt lat="44.70497" lon="5.13704">
        <ele>451.6</ele>
        <time>1970-01-01T04:51:33.000Z</time>
      </trkpt>
      <trkpt lat="44.70497" lon="5.13707">
        <ele>452</ele>
        <time>1970-01-01T04:51:34.000Z</time>
      </trkpt>
      <trkpt lat="44.70497" lon="5.1371">
        <ele>452.6</ele>
        <time>1970-01-01T04:51:35.000Z</time>
      </trkpt>
      <trkpt lat="44.70497" lon="5.13713">
        <ele>453.2</ele>
        <time>1970-01-01T04:51:36.000Z</time>
      </trkpt>
      <trkpt lat="44.70497" lon="5.13716">
        <ele>453.4</ele>
        <time>1970-01-01T04:51:37.000Z</time>
      </trkpt>
      <trkpt lat="44.70497" lon="5.13719">
        <ele>454</ele>
        <time>1970-01-01T04:51:38.000Z</time>
      </trkpt>
      <trkpt lat="44.70497" lon="5.13723">
        <ele>454.2</ele>
        <time>1970-01-01T04:51:39.000Z</time>
      </trkpt>
      <trkpt lat="44.70497" lon="5.13726">
        <ele>454.8</ele>
        <time>1970-01-01T04:51:40.000Z</time>
      </trkpt>
      <trkpt lat="44.70498" lon="5.13729">
        <ele>455.2</ele>
        <time>1970-01-01T04:51:41.000Z</time>
      </trkpt>
      <trkpt lat="44.70498" lon="5.13732">
        <ele>455.4</ele>
        <time>1970-01-01T04:51:42.000Z</time>
      </trkpt>
      <trkpt lat="44.70499" lon="5.13734">
        <ele>455.6</ele>
        <time>1970-01-01T04:51:43.000Z</time>
      </trkpt>
      <trkpt lat="44.70501" lon="5.13736">
        <ele>455.8</ele>
        <time>1970-01-01T04:51:44.000Z</time>
      </trkpt>
      <trkpt lat="44.70502" lon="5.13739">
        <ele>455.8</ele>
        <time>1970-01-01T04:51:45.000Z</time>
      </trkpt>
      <trkpt lat="44.70503" lon="5.13741">
        <ele>456</ele>
        <time>1970-01-01T04:51:46.000Z</time>
      </trkpt>
      <trkpt lat="44.70503" lon="5.13744">
        <ele>456.2</ele>
        <time>1970-01-01T04:51:47.000Z</time>
      </trkpt>
      <trkpt lat="44.70504" lon="5.13746">
        <ele>456.2</ele>
        <time>1970-01-01T04:51:48.000Z</time>
      </trkpt>
      <trkpt lat="44.70505" lon="5.13749">
        <ele>456.4</ele>
        <time>1970-01-01T04:51:49.000Z</time>
      </trkpt>
      <trkpt lat="44.70506" lon="5.13752">
        <ele>456.4</ele>
        <time>1970-01-01T04:51:50.000Z</time>
      </trkpt>
      <trkpt lat="44.70507" lon="5.13754">
        <ele>456.6</ele>
        <time>1970-01-01T04:51:51.000Z</time>
      </trkpt>
      <trkpt lat="44.70508" lon="5.13757">
        <ele>456.8</ele>
        <time>1970-01-01T04:51:52.000Z</time>
      </trkpt>
      <trkpt lat="44.7051" lon="5.13761">
        <ele>457.2</ele>
        <time>1970-01-01T04:51:53.000Z</time>
      </trkpt>
      <trkpt lat="44.70511" lon="5.13764">
        <ele>457.6</ele>
        <time>1970-01-01T04:51:54.000Z</time>
      </trkpt>
      <trkpt lat="44.70513" lon="5.13767">
        <ele>457.8</ele>
        <time>1970-01-01T04:51:55.000Z</time>
      </trkpt>
      <trkpt lat="44.70515" lon="5.1377">
        <ele>457.8</ele>
        <time>1970-01-01T04:51:56.000Z</time>
      </trkpt>
      <trkpt lat="44.70516" lon="5.13772">
        <ele>458.4</ele>
        <time>1970-01-01T04:51:57.000Z</time>
      </trkpt>
      <trkpt lat="44.70518" lon="5.13774">
        <ele>458.8</ele>
        <time>1970-01-01T04:51:58.000Z</time>
      </trkpt>
      <trkpt lat="44.70519" lon="5.13776">
        <ele>459</ele>
        <time>1970-01-01T04:51:59.000Z</time>
      </trkpt>
      <trkpt lat="44.70521" lon="5.13778">
        <ele>459.2</ele>
        <time>1970-01-01T04:52:00.000Z</time>
      </trkpt>
      <trkpt lat="44.70523" lon="5.1378">
        <ele>459.4</ele>
        <time>1970-01-01T04:52:01.000Z</time>
      </trkpt>
      <trkpt lat="44.70525" lon="5.13782">
        <ele>459.8</ele>
        <time>1970-01-01T04:52:02.000Z</time>
      </trkpt>
      <trkpt lat="44.70528" lon="5.13784">
        <ele>460</ele>
        <time>1970-01-01T04:52:03.000Z</time>
      </trkpt>
      <trkpt lat="44.7053" lon="5.13787">
        <ele>460</ele>
        <time>1970-01-01T04:52:04.000Z</time>
      </trkpt>
      <trkpt lat="44.70531" lon="5.13789">
        <ele>460.2</ele>
        <time>1970-01-01T04:52:05.000Z</time>
      </trkpt>
      <trkpt lat="44.70532" lon="5.1379">
        <ele>460.4</ele>
        <time>1970-01-01T04:52:06.000Z</time>
      </trkpt>
      <trkpt lat="44.70534" lon="5.13792">
        <ele>460.4</ele>
        <time>1970-01-01T04:52:07.000Z</time>
      </trkpt>
      <trkpt lat="44.70536" lon="5.13794">
        <ele>460.4</ele>
        <time>1970-01-01T04:52:08.000Z</time>
      </trkpt>
      <trkpt lat="44.70538" lon="5.13796">
        <ele>460.6</ele>
        <time>1970-01-01T04:52:09.000Z</time>
      </trkpt>
      <trkpt lat="44.7054" lon="5.13797">
        <ele>460.8</ele>
        <time>1970-01-01T04:52:10.000Z</time>
      </trkpt>
      <trkpt lat="44.70542" lon="5.13798">
        <ele>460.8</ele>
        <time>1970-01-01T04:52:11.000Z</time>
      </trkpt>
      <trkpt lat="44.70543" lon="5.138">
        <ele>461</ele>
        <time>1970-01-01T04:52:12.000Z</time>
      </trkpt>
      <trkpt lat="44.70545" lon="5.13801">
        <ele>461.2</ele>
        <time>1970-01-01T04:52:13.000Z</time>
      </trkpt>
      <trkpt lat="44.70546" lon="5.13802">
        <ele>461.4</ele>
        <time>1970-01-01T04:52:16.000Z</time>
      </trkpt>
      <trkpt lat="44.70542" lon="5.13801">
        <ele>460.8</ele>
        <time>1970-01-01T04:57:44.000Z</time>
      </trkpt>
      <trkpt lat="44.70539" lon="5.13799">
        <ele>460.8</ele>
        <time>1970-01-01T04:57:45.000Z</time>
      </trkpt>
      <trkpt lat="44.70536" lon="5.13795">
        <ele>460.8</ele>
        <time>1970-01-01T04:57:46.000Z</time>
      </trkpt>
      <trkpt lat="44.70525" lon="5.13783">
        <ele>460.8</ele>
        <time>1970-01-01T04:57:49.000Z</time>
      </trkpt>
      <trkpt lat="44.70515" lon="5.13772">
        <ele>460.6</ele>
        <time>1970-01-01T04:57:51.000Z</time>
      </trkpt>
      <trkpt lat="44.7051" lon="5.13765">
        <ele>460.2</ele>
        <time>1970-01-01T04:57:52.000Z</time>
      </trkpt>
      <trkpt lat="44.70503" lon="5.13749">
        <ele>459</ele>
        <time>1970-01-01T04:57:54.000Z</time>
      </trkpt>
      <trkpt lat="44.70499" lon="5.13741">
        <ele>458.4</ele>
        <time>1970-01-01T04:57:55.000Z</time>
      </trkpt>
      <trkpt lat="44.70496" lon="5.13733">
        <ele>457.8</ele>
        <time>1970-01-01T04:57:56.000Z</time>
      </trkpt>
      <trkpt lat="44.70495" lon="5.13725">
        <ele>457</ele>
        <time>1970-01-01T04:57:57.000Z</time>
      </trkpt>
      <trkpt lat="44.70495" lon="5.13717">
        <ele>456.6</ele>
        <time>1970-01-01T04:57:58.000Z</time>
      </trkpt>
      <trkpt lat="44.70495" lon="5.13708">
        <ele>455.4</ele>
        <time>1970-01-01T04:57:59.000Z</time>
      </trkpt>
      <trkpt lat="44.70495" lon="5.13698">
        <ele>454.6</ele>
        <time>1970-01-01T04:58:00.000Z</time>
      </trkpt>
      <trkpt lat="44.70494" lon="5.13687">
        <ele>453.6</ele>
        <time>1970-01-01T04:58:01.000Z</time>
      </trkpt>
      <trkpt lat="44.70493" lon="5.13676">
        <ele>451.8</ele>
        <time>1970-01-01T04:58:02.000Z</time>
      </trkpt>
      <trkpt lat="44.70492" lon="5.13664">
        <ele>449.6</ele>
        <time>1970-01-01T04:58:03.000Z</time>
      </trkpt>
      <trkpt lat="44.7049" lon="5.13653">
        <ele>448.2</ele>
        <time>1970-01-01T04:58:04.000Z</time>
      </trkpt>
      <trkpt lat="44.70481" lon="5.13635">
        <ele>446.6</ele>
        <time>1970-01-01T04:58:06.000Z</time>
      </trkpt>
      <trkpt lat="44.70476" lon="5.13627">
        <ele>445.6</ele>
        <time>1970-01-01T04:58:07.000Z</time>
      </trkpt>
      <trkpt lat="44.70466" lon="5.1361">
        <ele>443.6</ele>
        <time>1970-01-01T04:58:09.000Z</time>
      </trkpt>
      <trkpt lat="44.70461" lon="5.13601">
        <ele>442.4</ele>
        <time>1970-01-01T04:58:10.000Z</time>
      </trkpt>
      <trkpt lat="44.70458" lon="5.13592">
        <ele>441.6</ele>
        <time>1970-01-01T04:58:11.000Z</time>
      </trkpt>
      <trkpt lat="44.70456" lon="5.13583">
        <ele>440.8</ele>
        <time>1970-01-01T04:58:12.000Z</time>
      </trkpt>
      <trkpt lat="44.70453" lon="5.13573">
        <ele>440</ele>
        <time>1970-01-01T04:58:13.000Z</time>
      </trkpt>
      <trkpt lat="44.70451" lon="5.13563">
        <ele>439.2</ele>
        <time>1970-01-01T04:58:14.000Z</time>
      </trkpt>
      <trkpt lat="44.70448" lon="5.13555">
        <ele>438.6</ele>
        <time>1970-01-01T04:58:15.000Z</time>
      </trkpt>
      <trkpt lat="44.70445" lon="5.13546">
        <ele>438</ele>
        <time>1970-01-01T04:58:16.000Z</time>
      </trkpt>
      <trkpt lat="44.70443" lon="5.13535">
        <ele>437.4</ele>
        <time>1970-01-01T04:58:17.000Z</time>
      </trkpt>
      <trkpt lat="44.70442" lon="5.13525">
        <ele>437</ele>
        <time>1970-01-01T04:58:18.000Z</time>
      </trkpt>
      <trkpt lat="44.7044" lon="5.13514">
        <ele>436.6</ele>
        <time>1970-01-01T04:58:19.000Z</time>
      </trkpt>
      <trkpt lat="44.70436" lon="5.13491">
        <ele>434</ele>
        <time>1970-01-01T04:58:21.000Z</time>
      </trkpt>
      <trkpt lat="44.70432" lon="5.13469">
        <ele>432.6</ele>
        <time>1970-01-01T04:58:23.000Z</time>
      </trkpt>
      <trkpt lat="44.7043" lon="5.13458">
        <ele>431.4</ele>
        <time>1970-01-01T04:58:24.000Z</time>
      </trkpt>
      <trkpt lat="44.70425" lon="5.13436">
        <ele>430.2</ele>
        <time>1970-01-01T04:58:26.000Z</time>
      </trkpt>
      <trkpt lat="44.70423" lon="5.13425">
        <ele>429.8</ele>
        <time>1970-01-01T04:58:27.000Z</time>
      </trkpt>
      <trkpt lat="44.70421" lon="5.13415">
        <ele>428</ele>
        <time>1970-01-01T04:58:28.000Z</time>
      </trkpt>
      <trkpt lat="44.70417" lon="5.13407">
        <ele>426.2</ele>
        <time>1970-01-01T04:58:29.000Z</time>
      </trkpt>
      <trkpt lat="44.70413" lon="5.134">
        <ele>424.8</ele>
        <time>1970-01-01T04:58:30.000Z</time>
      </trkpt>
      <trkpt lat="44.70409" lon="5.13392">
        <ele>423.8</ele>
        <time>1970-01-01T04:58:31.000Z</time>
      </trkpt>
      <trkpt lat="44.70406" lon="5.13386">
        <ele>423.2</ele>
        <time>1970-01-01T04:58:32.000Z</time>
      </trkpt>
      <trkpt lat="44.70403" lon="5.13381">
        <ele>422.8</ele>
        <time>1970-01-01T04:58:33.000Z</time>
      </trkpt>
      <trkpt lat="44.70401" lon="5.13375">
        <ele>422.6</ele>
        <time>1970-01-01T04:58:34.000Z</time>
      </trkpt>
      <trkpt lat="44.70398" lon="5.13361">
        <ele>421.6</ele>
        <time>1970-01-01T04:58:36.000Z</time>
      </trkpt>
      <trkpt lat="44.70395" lon="5.13354">
        <ele>421</ele>
        <time>1970-01-01T04:58:37.000Z</time>
      </trkpt>
      <trkpt lat="44.70393" lon="5.13345">
        <ele>420.4</ele>
        <time>1970-01-01T04:58:38.000Z</time>
      </trkpt>
      <trkpt lat="44.7039" lon="5.13325">
        <ele>419</ele>
        <time>1970-01-01T04:58:40.000Z</time>
      </trkpt>
      <trkpt lat="44.70388" lon="5.13305">
        <ele>418.2</ele>
        <time>1970-01-01T04:58:42.000Z</time>
      </trkpt>
      <trkpt lat="44.70388" lon="5.13296">
        <ele>417.4</ele>
        <time>1970-01-01T04:58:43.000Z</time>
      </trkpt>
      <trkpt lat="44.70387" lon="5.13278">
        <ele>416</ele>
        <time>1970-01-01T04:58:45.000Z</time>
      </trkpt>
      <trkpt lat="44.70387" lon="5.13258">
        <ele>414.8</ele>
        <time>1970-01-01T04:58:47.000Z</time>
      </trkpt>
      <trkpt lat="44.70385" lon="5.13229">
        <ele>414.4</ele>
        <time>1970-01-01T04:58:50.000Z</time>
      </trkpt>
      <trkpt lat="44.70385" lon="5.13206">
        <ele>414.6</ele>
        <time>1970-01-01T04:58:52.000Z</time>
      </trkpt>
      <trkpt lat="44.70385" lon="5.13195">
        <ele>414.6</ele>
        <time>1970-01-01T04:58:53.000Z</time>
      </trkpt>
      <trkpt lat="44.70387" lon="5.13174">
        <ele>414.6</ele>
        <time>1970-01-01T04:58:55.000Z</time>
      </trkpt>
      <trkpt lat="44.7039" lon="5.13153">
        <ele>414.6</ele>
        <time>1970-01-01T04:58:57.000Z</time>
      </trkpt>
      <trkpt lat="44.70392" lon="5.13144">
        <ele>414.6</ele>
        <time>1970-01-01T04:58:58.000Z</time>
      </trkpt>
      <trkpt lat="44.70394" lon="5.13135">
        <ele>414.8</ele>
        <time>1970-01-01T04:58:59.000Z</time>
      </trkpt>
      <trkpt lat="44.70397" lon="5.13126">
        <ele>414.8</ele>
        <time>1970-01-01T04:59:00.000Z</time>
      </trkpt>
      <trkpt lat="44.704" lon="5.13118">
        <ele>415.2</ele>
        <time>1970-01-01T04:59:01.000Z</time>
      </trkpt>
      <trkpt lat="44.70403" lon="5.1311">
        <ele>415.4</ele>
        <time>1970-01-01T04:59:02.000Z</time>
      </trkpt>
      <trkpt lat="44.70406" lon="5.13102">
        <ele>416</ele>
        <time>1970-01-01T04:59:03.000Z</time>
      </trkpt>
      <trkpt lat="44.70415" lon="5.13079">
        <ele>414.4</ele>
        <time>1970-01-01T04:59:06.000Z</time>
      </trkpt>
      <trkpt lat="44.70418" lon="5.13072">
        <ele>414.4</ele>
        <time>1970-01-01T04:59:07.000Z</time>
      </trkpt>
      <trkpt lat="44.70422" lon="5.13066">
        <ele>414.4</ele>
        <time>1970-01-01T04:59:08.000Z</time>
      </trkpt>
      <trkpt lat="44.70425" lon="5.1306">
        <ele>414.4</ele>
        <time>1970-01-01T04:59:09.000Z</time>
      </trkpt>
      <trkpt lat="44.70427" lon="5.13056">
        <ele>414.4</ele>
        <time>1970-01-01T04:59:10.000Z</time>
      </trkpt>
      <trkpt lat="44.70428" lon="5.13055">
        <ele>414.4</ele>
        <time>1970-01-01T04:59:11.000Z</time>
      </trkpt>
      <trkpt lat="44.70427" lon="5.13056">
        <ele>414.4</ele>
        <time>1970-01-01T04:59:12.000Z</time>
      </trkpt>
      <trkpt lat="44.70427" lon="5.13057">
        <ele>414.4</ele>
        <time>1970-01-01T04:59:13.000Z</time>
      </trkpt>
      <trkpt lat="44.70427" lon="5.13057">
        <ele>414.4</ele>
        <time>1970-01-01T04:59:15.000Z</time>
      </trkpt>
      <trkpt lat="44.70427" lon="5.13058">
        <ele>414.4</ele>
        <time>1970-01-01T04:59:18.000Z</time>
      </trkpt>
      <trkpt lat="44.70427" lon="5.13058">
        <ele>414.4</ele>
        <time>1970-01-01T04:59:21.000Z</time>
      </trkpt>
      <trkpt lat="44.70427" lon="5.13058">
        <ele>414.4</ele>
        <time>1970-01-01T04:59:25.000Z</time>
      </trkpt>
      <trkpt lat="44.70428" lon="5.13058">
        <ele>414.4</ele>
        <time>1970-01-01T04:59:26.000Z</time>
      </trkpt>
      <trkpt lat="44.70431" lon="5.13059">
        <ele>414.6</ele>
        <time>1970-01-01T04:59:28.000Z</time>
      </trkpt>
      <trkpt lat="44.70432" lon="5.13061">
        <ele>414.8</ele>
        <time>1970-01-01T04:59:29.000Z</time>
      </trkpt>
      <trkpt lat="44.70433" lon="5.13062">
        <ele>415.2</ele>
        <time>1970-01-01T04:59:30.000Z</time>
      </trkpt>
      <trkpt lat="44.70434" lon="5.13064">
        <ele>415.4</ele>
        <time>1970-01-01T04:59:31.000Z</time>
      </trkpt>
      <trkpt lat="44.70435" lon="5.13065">
        <ele>415.6</ele>
        <time>1970-01-01T04:59:32.000Z</time>
      </trkpt>
      <trkpt lat="44.70437" lon="5.13066">
        <ele>415.6</ele>
        <time>1970-01-01T04:59:33.000Z</time>
      </trkpt>
      <trkpt lat="44.70438" lon="5.13067">
        <ele>415.6</ele>
        <time>1970-01-01T04:59:34.000Z</time>
      </trkpt>
      <trkpt lat="44.70439" lon="5.13067">
        <ele>415.8</ele>
        <time>1970-01-01T04:59:35.000Z</time>
      </trkpt>
      <trkpt lat="44.7044" lon="5.13068">
        <ele>416</ele>
        <time>1970-01-01T04:59:36.000Z</time>
      </trkpt>
      <trkpt lat="44.70441" lon="5.13068">
        <ele>416</ele>
        <time>1970-01-01T04:59:37.000Z</time>
      </trkpt>
      <trkpt lat="44.70441" lon="5.13067">
        <ele>416</ele>
        <time>1970-01-01T04:59:38.000Z</time>
      </trkpt>
      <trkpt lat="44.70442" lon="5.13067">
        <ele>416</ele>
        <time>1970-01-01T04:59:39.000Z</time>
      </trkpt>
      <trkpt lat="44.70444" lon="5.13066">
        <ele>416</ele>
        <time>1970-01-01T04:59:40.000Z</time>
      </trkpt>
      <trkpt lat="44.70459" lon="5.13059">
        <ele>415.6</ele>
        <time>1970-01-01T04:59:45.000Z</time>
      </trkpt>
      <trkpt lat="44.70466" lon="5.13054">
        <ele>414.6</ele>
        <time>1970-01-01T04:59:47.000Z</time>
      </trkpt>
      <trkpt lat="44.70468" lon="5.1305">
        <ele>414.4</ele>
        <time>1970-01-01T04:59:48.000Z</time>
      </trkpt>
      <trkpt lat="44.70471" lon="5.13045">
        <ele>414</ele>
        <time>1970-01-01T04:59:49.000Z</time>
      </trkpt>
      <trkpt lat="44.70473" lon="5.13038">
        <ele>413.6</ele>
        <time>1970-01-01T04:59:50.000Z</time>
      </trkpt>
      <trkpt lat="44.70474" lon="5.13031">
        <ele>413.2</ele>
        <time>1970-01-01T04:59:51.000Z</time>
      </trkpt>
      <trkpt lat="44.70474" lon="5.13024">
        <ele>413</ele>
        <time>1970-01-01T04:59:52.000Z</time>
      </trkpt>
      <trkpt lat="44.70474" lon="5.13019">
        <ele>412.6</ele>
        <time>1970-01-01T04:59:53.000Z</time>
      </trkpt>
      <trkpt lat="44.70474" lon="5.13016">
        <ele>412.6</ele>
        <time>1970-01-01T04:59:54.000Z</time>
      </trkpt>
      <trkpt lat="44.70475" lon="5.13013">
        <ele>412.6</ele>
        <time>1970-01-01T04:59:55.000Z</time>
      </trkpt>
      <trkpt lat="44.70478" lon="5.1301">
        <ele>412.6</ele>
        <time>1970-01-01T04:59:56.000Z</time>
      </trkpt>
      <trkpt lat="44.70482" lon="5.13006">
        <ele>412.4</ele>
        <time>1970-01-01T04:59:57.000Z</time>
      </trkpt>
      <trkpt lat="44.70486" lon="5.13002">
        <ele>411.6</ele>
        <time>1970-01-01T04:59:58.000Z</time>
      </trkpt>
      <trkpt lat="44.7049" lon="5.12999">
        <ele>409.8</ele>
        <time>1970-01-01T04:59:59.000Z</time>
      </trkpt>
      <trkpt lat="44.70495" lon="5.12996">
        <ele>409</ele>
        <time>1970-01-01T05:00:00.000Z</time>
      </trkpt>
      <trkpt lat="44.70498" lon="5.12994">
        <ele>406.8</ele>
        <time>1970-01-01T05:00:01.000Z</time>
      </trkpt>
      <trkpt lat="44.705" lon="5.12991">
        <ele>405.6</ele>
        <time>1970-01-01T05:00:02.000Z</time>
      </trkpt>
      <trkpt lat="44.70501" lon="5.12988">
        <ele>404.6</ele>
        <time>1970-01-01T05:00:03.000Z</time>
      </trkpt>
      <trkpt lat="44.705" lon="5.12983">
        <ele>403.4</ele>
        <time>1970-01-01T05:00:04.000Z</time>
      </trkpt>
      <trkpt lat="44.70498" lon="5.12978">
        <ele>402</ele>
        <time>1970-01-01T05:00:05.000Z</time>
      </trkpt>
      <trkpt lat="44.70495" lon="5.12972">
        <ele>401.2</ele>
        <time>1970-01-01T05:00:06.000Z</time>
      </trkpt>
      <trkpt lat="44.70493" lon="5.12965">
        <ele>399.8</ele>
        <time>1970-01-01T05:00:07.000Z</time>
      </trkpt>
      <trkpt lat="44.7049" lon="5.12958">
        <ele>398.6</ele>
        <time>1970-01-01T05:00:08.000Z</time>
      </trkpt>
      <trkpt lat="44.70487" lon="5.12951">
        <ele>397.8</ele>
        <time>1970-01-01T05:00:09.000Z</time>
      </trkpt>
      <trkpt lat="44.70485" lon="5.12945">
        <ele>396.4</ele>
        <time>1970-01-01T05:00:10.000Z</time>
      </trkpt>
      <trkpt lat="44.70484" lon="5.1294">
        <ele>395</ele>
        <time>1970-01-01T05:00:11.000Z</time>
      </trkpt>
      <trkpt lat="44.70482" lon="5.12934">
        <ele>393.6</ele>
        <time>1970-01-01T05:00:12.000Z</time>
      </trkpt>
      <trkpt lat="44.7048" lon="5.12928">
        <ele>392</ele>
        <time>1970-01-01T05:00:13.000Z</time>
      </trkpt>
      <trkpt lat="44.70478" lon="5.12922">
        <ele>390.2</ele>
        <time>1970-01-01T05:00:14.000Z</time>
      </trkpt>
      <trkpt lat="44.70476" lon="5.12915">
        <ele>388.8</ele>
        <time>1970-01-01T05:00:15.000Z</time>
      </trkpt>
      <trkpt lat="44.70475" lon="5.1291">
        <ele>387.6</ele>
        <time>1970-01-01T05:00:16.000Z</time>
      </trkpt>
      <trkpt lat="44.70474" lon="5.12904">
        <ele>386.4</ele>
        <time>1970-01-01T05:00:17.000Z</time>
      </trkpt>
      <trkpt lat="44.70475" lon="5.129">
        <ele>384.4</ele>
        <time>1970-01-01T05:00:18.000Z</time>
      </trkpt>
      <trkpt lat="44.70475" lon="5.12895">
        <ele>383.4</ele>
        <time>1970-01-01T05:00:19.000Z</time>
      </trkpt>
      <trkpt lat="44.70474" lon="5.12889">
        <ele>381.8</ele>
        <time>1970-01-01T05:00:20.000Z</time>
      </trkpt>
      <trkpt lat="44.70474" lon="5.12885">
        <ele>381</ele>
        <time>1970-01-01T05:00:21.000Z</time>
      </trkpt>
      <trkpt lat="44.70474" lon="5.12882">
        <ele>380.2</ele>
        <time>1970-01-01T05:00:22.000Z</time>
      </trkpt>
      <trkpt lat="44.70476" lon="5.12878">
        <ele>379.4</ele>
        <time>1970-01-01T05:00:23.000Z</time>
      </trkpt>
      <trkpt lat="44.70478" lon="5.12874">
        <ele>377.8</ele>
        <time>1970-01-01T05:00:24.000Z</time>
      </trkpt>
      <trkpt lat="44.70479" lon="5.12869">
        <ele>376</ele>
        <time>1970-01-01T05:00:25.000Z</time>
      </trkpt>
      <trkpt lat="44.70481" lon="5.12865">
        <ele>374.4</ele>
        <time>1970-01-01T05:00:26.000Z</time>
      </trkpt>
      <trkpt lat="44.70483" lon="5.12861">
        <ele>372.6</ele>
        <time>1970-01-01T05:00:27.000Z</time>
      </trkpt>
      <trkpt lat="44.70485" lon="5.12857">
        <ele>371.4</ele>
        <time>1970-01-01T05:00:28.000Z</time>
      </trkpt>
      <trkpt lat="44.70488" lon="5.12853">
        <ele>369.4</ele>
        <time>1970-01-01T05:00:29.000Z</time>
      </trkpt>
      <trkpt lat="44.70491" lon="5.1285">
        <ele>367</ele>
        <time>1970-01-01T05:00:30.000Z</time>
      </trkpt>
      <trkpt lat="44.70494" lon="5.12846">
        <ele>364.6</ele>
        <time>1970-01-01T05:00:31.000Z</time>
      </trkpt>
      <trkpt lat="44.70497" lon="5.12841">
        <ele>362.4</ele>
        <time>1970-01-01T05:00:32.000Z</time>
      </trkpt>
      <trkpt lat="44.70499" lon="5.12835">
        <ele>359.6</ele>
        <time>1970-01-01T05:00:33.000Z</time>
      </trkpt>
      <trkpt lat="44.70501" lon="5.12828">
        <ele>357.6</ele>
        <time>1970-01-01T05:00:34.000Z</time>
      </trkpt>
      <trkpt lat="44.70503" lon="5.12821">
        <ele>356.2</ele>
        <time>1970-01-01T05:00:35.000Z</time>
      </trkpt>
      <trkpt lat="44.70506" lon="5.12814">
        <ele>354</ele>
        <time>1970-01-01T05:00:36.000Z</time>
      </trkpt>
      <trkpt lat="44.70508" lon="5.12807">
        <ele>352.6</ele>
        <time>1970-01-01T05:00:37.000Z</time>
      </trkpt>
      <trkpt lat="44.70509" lon="5.128">
        <ele>351</ele>
        <time>1970-01-01T05:00:38.000Z</time>
      </trkpt>
      <trkpt lat="44.70511" lon="5.12794">
        <ele>349.4</ele>
        <time>1970-01-01T05:00:39.000Z</time>
      </trkpt>
      <trkpt lat="44.70513" lon="5.12787">
        <ele>348.4</ele>
        <time>1970-01-01T05:00:40.000Z</time>
      </trkpt>
      <trkpt lat="44.70518" lon="5.12771">
        <ele>346.8</ele>
        <time>1970-01-01T05:00:42.000Z</time>
      </trkpt>
      <trkpt lat="44.7052" lon="5.12761">
        <ele>345.8</ele>
        <time>1970-01-01T05:00:43.000Z</time>
      </trkpt>
      <trkpt lat="44.70523" lon="5.12753">
        <ele>344.8</ele>
        <time>1970-01-01T05:00:44.000Z</time>
      </trkpt>
      <trkpt lat="44.70525" lon="5.12745">
        <ele>343.4</ele>
        <time>1970-01-01T05:00:45.000Z</time>
      </trkpt>
      <trkpt lat="44.70529" lon="5.12738">
        <ele>342</ele>
        <time>1970-01-01T05:00:46.000Z</time>
      </trkpt>
      <trkpt lat="44.70533" lon="5.12732">
        <ele>341.2</ele>
        <time>1970-01-01T05:00:47.000Z</time>
      </trkpt>
      <trkpt lat="44.70536" lon="5.12725">
        <ele>340.2</ele>
        <time>1970-01-01T05:00:48.000Z</time>
      </trkpt>
      <trkpt lat="44.70539" lon="5.12717">
        <ele>339.2</ele>
        <time>1970-01-01T05:00:49.000Z</time>
      </trkpt>
      <trkpt lat="44.70542" lon="5.12709">
        <ele>337.8</ele>
        <time>1970-01-01T05:00:50.000Z</time>
      </trkpt>
      <trkpt lat="44.70546" lon="5.12701">
        <ele>336.6</ele>
        <time>1970-01-01T05:00:51.000Z</time>
      </trkpt>
      <trkpt lat="44.7055" lon="5.12695">
        <ele>335.2</ele>
        <time>1970-01-01T05:00:52.000Z</time>
      </trkpt>
      <trkpt lat="44.70554" lon="5.12689">
        <ele>334</ele>
        <time>1970-01-01T05:00:53.000Z</time>
      </trkpt>
      <trkpt lat="44.70557" lon="5.12683">
        <ele>333</ele>
        <time>1970-01-01T05:00:54.000Z</time>
      </trkpt>
      <trkpt lat="44.70562" lon="5.12677">
        <ele>331.8</ele>
        <time>1970-01-01T05:00:55.000Z</time>
      </trkpt>
      <trkpt lat="44.70566" lon="5.12672">
        <ele>330.8</ele>
        <time>1970-01-01T05:00:56.000Z</time>
      </trkpt>
      <trkpt lat="44.70571" lon="5.1267">
        <ele>329.8</ele>
        <time>1970-01-01T05:00:57.000Z</time>
      </trkpt>
      <trkpt lat="44.70574" lon="5.12666">
        <ele>329.2</ele>
        <time>1970-01-01T05:00:58.000Z</time>
      </trkpt>
      <trkpt lat="44.70579" lon="5.12665">
        <ele>328.4</ele>
        <time>1970-01-01T05:00:59.000Z</time>
      </trkpt>
      <trkpt lat="44.70585" lon="5.12664">
        <ele>328</ele>
        <time>1970-01-01T05:01:00.000Z</time>
      </trkpt>
      <trkpt lat="44.70592" lon="5.12663">
        <ele>327</ele>
        <time>1970-01-01T05:01:01.000Z</time>
      </trkpt>
      <trkpt lat="44.706" lon="5.12663">
        <ele>325.8</ele>
        <time>1970-01-01T05:01:02.000Z</time>
      </trkpt>
      <trkpt lat="44.70607" lon="5.12661">
        <ele>325</ele>
        <time>1970-01-01T05:01:03.000Z</time>
      </trkpt>
      <trkpt lat="44.70615" lon="5.12658">
        <ele>323.4</ele>
        <time>1970-01-01T05:01:04.000Z</time>
      </trkpt>
      <trkpt lat="44.70622" lon="5.12655">
        <ele>322.8</ele>
        <time>1970-01-01T05:01:05.000Z</time>
      </trkpt>
      <trkpt lat="44.7063" lon="5.12654">
        <ele>322.2</ele>
        <time>1970-01-01T05:01:06.000Z</time>
      </trkpt>
      <trkpt lat="44.70638" lon="5.12652">
        <ele>320.8</ele>
        <time>1970-01-01T05:01:07.000Z</time>
      </trkpt>
      <trkpt lat="44.70646" lon="5.12651">
        <ele>320</ele>
        <time>1970-01-01T05:01:08.000Z</time>
      </trkpt>
      <trkpt lat="44.70652" lon="5.1265">
        <ele>319.6</ele>
        <time>1970-01-01T05:01:09.000Z</time>
      </trkpt>
      <trkpt lat="44.70658" lon="5.12647">
        <ele>318.6</ele>
        <time>1970-01-01T05:01:10.000Z</time>
      </trkpt>
      <trkpt lat="44.70663" lon="5.12643">
        <ele>317.8</ele>
        <time>1970-01-01T05:01:11.000Z</time>
      </trkpt>
      <trkpt lat="44.70668" lon="5.12639">
        <ele>317</ele>
        <time>1970-01-01T05:01:12.000Z</time>
      </trkpt>
      <trkpt lat="44.70673" lon="5.12635">
        <ele>317.2</ele>
        <time>1970-01-01T05:01:13.000Z</time>
      </trkpt>
      <trkpt lat="44.70677" lon="5.12632">
        <ele>316.4</ele>
        <time>1970-01-01T05:01:14.000Z</time>
      </trkpt>
      <trkpt lat="44.70681" lon="5.12629">
        <ele>315</ele>
        <time>1970-01-01T05:01:15.000Z</time>
      </trkpt>
      <trkpt lat="44.70686" lon="5.12628">
        <ele>313.8</ele>
        <time>1970-01-01T05:01:16.000Z</time>
      </trkpt>
      <trkpt lat="44.70692" lon="5.12627">
        <ele>312.4</ele>
        <time>1970-01-01T05:01:17.000Z</time>
      </trkpt>
      <trkpt lat="44.70697" lon="5.12626">
        <ele>311.2</ele>
        <time>1970-01-01T05:01:18.000Z</time>
      </trkpt>
      <trkpt lat="44.70705" lon="5.12622">
        <ele>310.4</ele>
        <time>1970-01-01T05:01:19.000Z</time>
      </trkpt>
      <trkpt lat="44.70712" lon="5.1262">
        <ele>309.4</ele>
        <time>1970-01-01T05:01:20.000Z</time>
      </trkpt>
      <trkpt lat="44.70719" lon="5.1262">
        <ele>308.2</ele>
        <time>1970-01-01T05:01:21.000Z</time>
      </trkpt>
      <trkpt lat="44.70724" lon="5.12622">
        <ele>307.6</ele>
        <time>1970-01-01T05:01:22.000Z</time>
      </trkpt>
      <trkpt lat="44.70727" lon="5.12627">
        <ele>306.8</ele>
        <time>1970-01-01T05:01:23.000Z</time>
      </trkpt>
      <trkpt lat="44.70728" lon="5.12634">
        <ele>306</ele>
        <time>1970-01-01T05:01:24.000Z</time>
      </trkpt>
      <trkpt lat="44.70726" lon="5.12642">
        <ele>305.2</ele>
        <time>1970-01-01T05:01:25.000Z</time>
      </trkpt>
      <trkpt lat="44.70722" lon="5.1265">
        <ele>304.6</ele>
        <time>1970-01-01T05:01:26.000Z</time>
      </trkpt>
      <trkpt lat="44.70718" lon="5.12658">
        <ele>303.8</ele>
        <time>1970-01-01T05:01:27.000Z</time>
      </trkpt>
      <trkpt lat="44.70714" lon="5.12666">
        <ele>303</ele>
        <time>1970-01-01T05:01:28.000Z</time>
      </trkpt>
      <trkpt lat="44.7071" lon="5.12675">
        <ele>302.6</ele>
        <time>1970-01-01T05:01:29.000Z</time>
      </trkpt>
      <trkpt lat="44.70707" lon="5.12684">
        <ele>301.8</ele>
        <time>1970-01-01T05:01:30.000Z</time>
      </trkpt>
      <trkpt lat="44.70705" lon="5.12692">
        <ele>301</ele>
        <time>1970-01-01T05:01:31.000Z</time>
      </trkpt>
      <trkpt lat="44.70704" lon="5.12698">
        <ele>300.4</ele>
        <time>1970-01-01T05:01:32.000Z</time>
      </trkpt>
      <trkpt lat="44.70704" lon="5.12703">
        <ele>299.8</ele>
        <time>1970-01-01T05:01:33.000Z</time>
      </trkpt>
      <trkpt lat="44.70705" lon="5.12705">
        <ele>299.6</ele>
        <time>1970-01-01T05:01:34.000Z</time>
      </trkpt>
      <trkpt lat="44.70709" lon="5.12703">
        <ele>299.4</ele>
        <time>1970-01-01T05:01:35.000Z</time>
      </trkpt>
      <trkpt lat="44.70712" lon="5.127">
        <ele>298.4</ele>
        <time>1970-01-01T05:01:36.000Z</time>
      </trkpt>
      <trkpt lat="44.70717" lon="5.12698">
        <ele>297.8</ele>
        <time>1970-01-01T05:01:37.000Z</time>
      </trkpt>
      <trkpt lat="44.70722" lon="5.12695">
        <ele>297</ele>
        <time>1970-01-01T05:01:38.000Z</time>
      </trkpt>
      <trkpt lat="44.70733" lon="5.12689">
        <ele>295.6</ele>
        <time>1970-01-01T05:01:40.000Z</time>
      </trkpt>
      <trkpt lat="44.70739" lon="5.12687">
        <ele>295</ele>
        <time>1970-01-01T05:01:41.000Z</time>
      </trkpt>
      <trkpt lat="44.70745" lon="5.12685">
        <ele>294.2</ele>
        <time>1970-01-01T05:01:42.000Z</time>
      </trkpt>
      <trkpt lat="44.70751" lon="5.12683">
        <ele>293.4</ele>
        <time>1970-01-01T05:01:43.000Z</time>
      </trkpt>
      <trkpt lat="44.70757" lon="5.1268">
        <ele>293</ele>
        <time>1970-01-01T05:01:44.000Z</time>
      </trkpt>
      <trkpt lat="44.70764" lon="5.12677">
        <ele>291.4</ele>
        <time>1970-01-01T05:01:45.000Z</time>
      </trkpt>
      <trkpt lat="44.70772" lon="5.12675">
        <ele>290.4</ele>
        <time>1970-01-01T05:01:46.000Z</time>
      </trkpt>
      <trkpt lat="44.7078" lon="5.12672">
        <ele>288.8</ele>
        <time>1970-01-01T05:01:47.000Z</time>
      </trkpt>
      <trkpt lat="44.70787" lon="5.1267">
        <ele>287.6</ele>
        <time>1970-01-01T05:01:48.000Z</time>
      </trkpt>
      <trkpt lat="44.70794" lon="5.12667">
        <ele>286.4</ele>
        <time>1970-01-01T05:01:49.000Z</time>
      </trkpt>
      <trkpt lat="44.708" lon="5.12664">
        <ele>285.4</ele>
        <time>1970-01-01T05:01:50.000Z</time>
      </trkpt>
      <trkpt lat="44.70803" lon="5.12663">
        <ele>284.8</ele>
        <time>1970-01-01T05:01:51.000Z</time>
      </trkpt>
      <trkpt lat="44.70807" lon="5.12664">
        <ele>284</ele>
        <time>1970-01-01T05:01:52.000Z</time>
      </trkpt>
      <trkpt lat="44.70811" lon="5.12668">
        <ele>283.6</ele>
        <time>1970-01-01T05:01:53.000Z</time>
      </trkpt>
      <trkpt lat="44.70814" lon="5.12674">
        <ele>282.8</ele>
        <time>1970-01-01T05:01:54.000Z</time>
      </trkpt>
      <trkpt lat="44.70817" lon="5.1268">
        <ele>282.2</ele>
        <time>1970-01-01T05:01:55.000Z</time>
      </trkpt>
      <trkpt lat="44.70817" lon="5.12685">
        <ele>281.6</ele>
        <time>1970-01-01T05:01:57.000Z</time>
      </trkpt>
      <trkpt lat="44.70816" lon="5.12691">
        <ele>280.2</ele>
        <time>1970-01-01T05:08:22.000Z</time>
      </trkpt>
      <trkpt lat="44.70815" lon="5.1269">
        <ele>280.2</ele>
        <time>1970-01-01T05:08:23.000Z</time>
      </trkpt>
      <trkpt lat="44.70815" lon="5.1269">
        <ele>280.2</ele>
        <time>1970-01-01T05:08:24.000Z</time>
      </trkpt>
      <trkpt lat="44.70816" lon="5.12688">
        <ele>280.2</ele>
        <time>1970-01-01T05:09:54.000Z</time>
      </trkpt>
      <trkpt lat="44.70816" lon="5.12685">
        <ele>280.2</ele>
        <time>1970-01-01T05:09:55.000Z</time>
      </trkpt>
      <trkpt lat="44.70818" lon="5.12656">
        <ele>279.8</ele>
        <time>1970-01-01T05:10:01.000Z</time>
      </trkpt>
      <trkpt lat="44.7082" lon="5.1263">
        <ele>279.2</ele>
        <time>1970-01-01T05:10:06.000Z</time>
      </trkpt>
      <trkpt lat="44.70821" lon="5.12625">
        <ele>279</ele>
        <time>1970-01-01T05:10:07.000Z</time>
      </trkpt>
      <trkpt lat="44.70821" lon="5.12619">
        <ele>278.8</ele>
        <time>1970-01-01T05:10:08.000Z</time>
      </trkpt>
      <trkpt lat="44.70821" lon="5.12616">
        <ele>278.8</ele>
        <time>1970-01-01T05:10:09.000Z</time>
      </trkpt>
      <trkpt lat="44.70821" lon="5.12613">
        <ele>278.6</ele>
        <time>1970-01-01T05:10:10.000Z</time>
      </trkpt>
      <trkpt lat="44.70822" lon="5.12611">
        <ele>278.6</ele>
        <time>1970-01-01T05:10:11.000Z</time>
      </trkpt>
      <trkpt lat="44.70823" lon="5.12593">
        <ele>278.4</ele>
        <time>1970-01-01T05:10:17.000Z</time>
      </trkpt>
      <trkpt lat="44.70824" lon="5.12585">
        <ele>278.2</ele>
        <time>1970-01-01T05:10:19.000Z</time>
      </trkpt>
      <trkpt lat="44.70825" lon="5.12577">
        <ele>278.2</ele>
        <time>1970-01-01T05:10:21.000Z</time>
      </trkpt>
      <trkpt lat="44.70827" lon="5.12555">
        <ele>277</ele>
        <time>1970-01-01T05:10:26.000Z</time>
      </trkpt>
      <trkpt lat="44.70828" lon="5.12545">
        <ele>276.8</ele>
        <time>1970-01-01T05:10:28.000Z</time>
      </trkpt>
      <trkpt lat="44.70828" lon="5.1253">
        <ele>276.4</ele>
        <time>1970-01-01T05:10:31.000Z</time>
      </trkpt>
      <trkpt lat="44.70828" lon="5.12519">
        <ele>276</ele>
        <time>1970-01-01T05:10:33.000Z</time>
      </trkpt>
      <trkpt lat="44.70827" lon="5.12514">
        <ele>275.8</ele>
        <time>1970-01-01T05:10:34.000Z</time>
      </trkpt>
      <trkpt lat="44.70827" lon="5.12509">
        <ele>275.8</ele>
        <time>1970-01-01T05:10:35.000Z</time>
      </trkpt>
      <trkpt lat="44.70827" lon="5.12499">
        <ele>275.4</ele>
        <time>1970-01-01T05:10:37.000Z</time>
      </trkpt>
      <trkpt lat="44.70826" lon="5.12473">
        <ele>275</ele>
        <time>1970-01-01T05:10:42.000Z</time>
      </trkpt>
      <trkpt lat="44.70826" lon="5.12468">
        <ele>274.8</ele>
        <time>1970-01-01T05:10:43.000Z</time>
      </trkpt>
      <trkpt lat="44.70826" lon="5.1245">
        <ele>274.2</ele>
        <time>1970-01-01T05:10:46.000Z</time>
      </trkpt>
      <trkpt lat="44.70826" lon="5.12443">
        <ele>274</ele>
        <time>1970-01-01T05:10:47.000Z</time>
      </trkpt>
      <trkpt lat="44.70825" lon="5.12436">
        <ele>273.8</ele>
        <time>1970-01-01T05:10:48.000Z</time>
      </trkpt>
      <trkpt lat="44.70825" lon="5.12415">
        <ele>272.8</ele>
        <time>1970-01-01T05:10:51.000Z</time>
      </trkpt>
      <trkpt lat="44.70825" lon="5.12407">
        <ele>272.4</ele>
        <time>1970-01-01T05:10:52.000Z</time>
      </trkpt>
      <trkpt lat="44.70826" lon="5.12391">
        <ele>271.2</ele>
        <time>1970-01-01T05:10:54.000Z</time>
      </trkpt>
      <trkpt lat="44.70829" lon="5.12373">
        <ele>270.2</ele>
        <time>1970-01-01T05:10:56.000Z</time>
      </trkpt>
      <trkpt lat="44.70833" lon="5.12354">
        <ele>269</ele>
        <time>1970-01-01T05:10:58.000Z</time>
      </trkpt>
      <trkpt lat="44.70835" lon="5.12344">
        <ele>268.6</ele>
        <time>1970-01-01T05:10:59.000Z</time>
      </trkpt>
      <trkpt lat="44.70838" lon="5.12335">
        <ele>268.4</ele>
        <time>1970-01-01T05:11:00.000Z</time>
      </trkpt>
      <trkpt lat="44.70841" lon="5.12327">
        <ele>268.4</ele>
        <time>1970-01-01T05:11:01.000Z</time>
      </trkpt>
      <trkpt lat="44.70844" lon="5.12319">
        <ele>268.4</ele>
        <time>1970-01-01T05:11:02.000Z</time>
      </trkpt>
      <trkpt lat="44.70847" lon="5.12313">
        <ele>268</ele>
        <time>1970-01-01T05:11:03.000Z</time>
      </trkpt>
      <trkpt lat="44.7085" lon="5.12307">
        <ele>267.6</ele>
        <time>1970-01-01T05:11:04.000Z</time>
      </trkpt>
      <trkpt lat="44.70853" lon="5.12302">
        <ele>267.4</ele>
        <time>1970-01-01T05:11:05.000Z</time>
      </trkpt>
      <trkpt lat="44.70857" lon="5.12297">
        <ele>267</ele>
        <time>1970-01-01T05:11:06.000Z</time>
      </trkpt>
      <trkpt lat="44.70861" lon="5.12293">
        <ele>266.4</ele>
        <time>1970-01-01T05:11:07.000Z</time>
      </trkpt>
      <trkpt lat="44.70875" lon="5.1228">
        <ele>265.4</ele>
        <time>1970-01-01T05:11:10.000Z</time>
      </trkpt>
      <trkpt lat="44.7088" lon="5.12276">
        <ele>265.2</ele>
        <time>1970-01-01T05:11:11.000Z</time>
      </trkpt>
      <trkpt lat="44.7089" lon="5.12268">
        <ele>264.8</ele>
        <time>1970-01-01T05:11:13.000Z</time>
      </trkpt>
      <trkpt lat="44.70894" lon="5.12265">
        <ele>264.6</ele>
        <time>1970-01-01T05:11:14.000Z</time>
      </trkpt>
      <trkpt lat="44.70899" lon="5.12262">
        <ele>264.6</ele>
        <time>1970-01-01T05:11:15.000Z</time>
      </trkpt>
      <trkpt lat="44.70903" lon="5.1226">
        <ele>264.4</ele>
        <time>1970-01-01T05:11:16.000Z</time>
      </trkpt>
      <trkpt lat="44.70907" lon="5.12257">
        <ele>264</ele>
        <time>1970-01-01T05:11:17.000Z</time>
      </trkpt>
      <trkpt lat="44.7091" lon="5.12256">
        <ele>263.8</ele>
        <time>1970-01-01T05:11:18.000Z</time>
      </trkpt>
      <trkpt lat="44.70912" lon="5.12254">
        <ele>263.6</ele>
        <time>1970-01-01T05:11:19.000Z</time>
      </trkpt>
      <trkpt lat="44.70914" lon="5.12253">
        <ele>263.6</ele>
        <time>1970-01-01T05:11:20.000Z</time>
      </trkpt>
      <trkpt lat="44.70917" lon="5.12251">
        <ele>263.6</ele>
        <time>1970-01-01T05:11:21.000Z</time>
      </trkpt>
      <trkpt lat="44.70919" lon="5.1225">
        <ele>263.4</ele>
        <time>1970-01-01T05:11:22.000Z</time>
      </trkpt>
      <trkpt lat="44.70921" lon="5.12249">
        <ele>263.2</ele>
        <time>1970-01-01T05:11:23.000Z</time>
      </trkpt>
      <trkpt lat="44.70923" lon="5.12248">
        <ele>263</ele>
        <time>1970-01-01T05:11:24.000Z</time>
      </trkpt>
      <trkpt lat="44.70926" lon="5.12248">
        <ele>262.8</ele>
        <time>1970-01-01T05:11:25.000Z</time>
      </trkpt>
      <trkpt lat="44.70928" lon="5.12249">
        <ele>262.6</ele>
        <time>1970-01-01T05:11:26.000Z</time>
      </trkpt>
      <trkpt lat="44.70931" lon="5.12252">
        <ele>262.4</ele>
        <time>1970-01-01T05:11:27.000Z</time>
      </trkpt>
      <trkpt lat="44.70934" lon="5.12262">
        <ele>261.8</ele>
        <time>1970-01-01T05:11:29.000Z</time>
      </trkpt>
      <trkpt lat="44.70935" lon="5.12267">
        <ele>261.6</ele>
        <time>1970-01-01T05:11:30.000Z</time>
      </trkpt>
      <trkpt lat="44.70937" lon="5.12273">
        <ele>261.4</ele>
        <time>1970-01-01T05:11:31.000Z</time>
      </trkpt>
      <trkpt lat="44.70939" lon="5.12278">
        <ele>261</ele>
        <time>1970-01-01T05:11:32.000Z</time>
      </trkpt>
      <trkpt lat="44.70944" lon="5.12288">
        <ele>260.6</ele>
        <time>1970-01-01T05:11:34.000Z</time>
      </trkpt>
      <trkpt lat="44.70947" lon="5.12291">
        <ele>260.2</ele>
        <time>1970-01-01T05:11:35.000Z</time>
      </trkpt>
      <trkpt lat="44.70952" lon="5.12293">
        <ele>260.2</ele>
        <time>1970-01-01T05:11:36.000Z</time>
      </trkpt>
      <trkpt lat="44.70956" lon="5.12292">
        <ele>260</ele>
        <time>1970-01-01T05:11:37.000Z</time>
      </trkpt>
      <trkpt lat="44.7096" lon="5.12291">
        <ele>260</ele>
        <time>1970-01-01T05:11:38.000Z</time>
      </trkpt>
      <trkpt lat="44.70963" lon="5.12289">
        <ele>260.2</ele>
        <time>1970-01-01T05:11:39.000Z</time>
      </trkpt>
      <trkpt lat="44.70967" lon="5.12286">
        <ele>260.2</ele>
        <time>1970-01-01T05:11:40.000Z</time>
      </trkpt>
      <trkpt lat="44.7097" lon="5.12283">
        <ele>260.4</ele>
        <time>1970-01-01T05:11:41.000Z</time>
      </trkpt>
      <trkpt lat="44.70976" lon="5.12277">
        <ele>261.2</ele>
        <time>1970-01-01T05:11:43.000Z</time>
      </trkpt>
      <trkpt lat="44.70979" lon="5.12274">
        <ele>261.4</ele>
        <time>1970-01-01T05:11:44.000Z</time>
      </trkpt>
      <trkpt lat="44.70981" lon="5.12271">
        <ele>261.8</ele>
        <time>1970-01-01T05:11:45.000Z</time>
      </trkpt>
      <trkpt lat="44.70984" lon="5.12267">
        <ele>262</ele>
        <time>1970-01-01T05:11:46.000Z</time>
      </trkpt>
      <trkpt lat="44.70987" lon="5.12264">
        <ele>262.2</ele>
        <time>1970-01-01T05:11:47.000Z</time>
      </trkpt>
      <trkpt lat="44.70991" lon="5.12258">
        <ele>262.6</ele>
        <time>1970-01-01T05:11:49.000Z</time>
      </trkpt>
      <trkpt lat="44.70997" lon="5.12251">
        <ele>262.8</ele>
        <time>1970-01-01T05:11:51.000Z</time>
      </trkpt>
      <trkpt lat="44.71006" lon="5.12244">
        <ele>263</ele>
        <time>1970-01-01T05:11:54.000Z</time>
      </trkpt>
      <trkpt lat="44.7101" lon="5.12243">
        <ele>263</ele>
        <time>1970-01-01T05:11:55.000Z</time>
      </trkpt>
      <trkpt lat="44.71015" lon="5.12244">
        <ele>262.8</ele>
        <time>1970-01-01T05:11:56.000Z</time>
      </trkpt>
      <trkpt lat="44.71019" lon="5.12246">
        <ele>262.6</ele>
        <time>1970-01-01T05:11:57.000Z</time>
      </trkpt>
      <trkpt lat="44.71024" lon="5.12249">
        <ele>262.4</ele>
        <time>1970-01-01T05:11:58.000Z</time>
      </trkpt>
      <trkpt lat="44.71027" lon="5.12253">
        <ele>262.4</ele>
        <time>1970-01-01T05:11:59.000Z</time>
      </trkpt>
      <trkpt lat="44.71032" lon="5.12259">
        <ele>262.2</ele>
        <time>1970-01-01T05:12:00.000Z</time>
      </trkpt>
      <trkpt lat="44.71042" lon="5.12271">
        <ele>261</ele>
        <time>1970-01-01T05:12:02.000Z</time>
      </trkpt>
      <trkpt lat="44.71047" lon="5.12277">
        <ele>260.4</ele>
        <time>1970-01-01T05:12:03.000Z</time>
      </trkpt>
      <trkpt lat="44.71052" lon="5.12284">
        <ele>259.8</ele>
        <time>1970-01-01T05:12:04.000Z</time>
      </trkpt>
      <trkpt lat="44.71057" lon="5.1229">
        <ele>259.4</ele>
        <time>1970-01-01T05:12:05.000Z</time>
      </trkpt>
      <trkpt lat="44.71062" lon="5.12296">
        <ele>259.2</ele>
        <time>1970-01-01T05:12:06.000Z</time>
      </trkpt>
      <trkpt lat="44.71066" lon="5.12302">
        <ele>259.2</ele>
        <time>1970-01-01T05:12:07.000Z</time>
      </trkpt>
      <trkpt lat="44.71071" lon="5.12306">
        <ele>259.2</ele>
        <time>1970-01-01T05:12:08.000Z</time>
      </trkpt>
      <trkpt lat="44.71076" lon="5.12309">
        <ele>259.4</ele>
        <time>1970-01-01T05:12:09.000Z</time>
      </trkpt>
      <trkpt lat="44.71081" lon="5.12309">
        <ele>259.4</ele>
        <time>1970-01-01T05:12:10.000Z</time>
      </trkpt>
      <trkpt lat="44.71086" lon="5.12308">
        <ele>259.6</ele>
        <time>1970-01-01T05:12:11.000Z</time>
      </trkpt>
      <trkpt lat="44.7109" lon="5.12307">
        <ele>260</ele>
        <time>1970-01-01T05:12:12.000Z</time>
      </trkpt>
      <trkpt lat="44.71095" lon="5.12304">
        <ele>260.2</ele>
        <time>1970-01-01T05:12:13.000Z</time>
      </trkpt>
      <trkpt lat="44.71099" lon="5.12302">
        <ele>260.6</ele>
        <time>1970-01-01T05:12:14.000Z</time>
      </trkpt>
      <trkpt lat="44.71103" lon="5.12299">
        <ele>261</ele>
        <time>1970-01-01T05:12:15.000Z</time>
      </trkpt>
      <trkpt lat="44.71107" lon="5.12296">
        <ele>261.6</ele>
        <time>1970-01-01T05:12:16.000Z</time>
      </trkpt>
      <trkpt lat="44.7111" lon="5.12293">
        <ele>262.2</ele>
        <time>1970-01-01T05:12:17.000Z</time>
      </trkpt>
      <trkpt lat="44.71114" lon="5.1229">
        <ele>262.6</ele>
        <time>1970-01-01T05:12:18.000Z</time>
      </trkpt>
      <trkpt lat="44.71117" lon="5.12287">
        <ele>263.2</ele>
        <time>1970-01-01T05:12:19.000Z</time>
      </trkpt>
      <trkpt lat="44.71121" lon="5.12284">
        <ele>263.8</ele>
        <time>1970-01-01T05:12:20.000Z</time>
      </trkpt>
      <trkpt lat="44.71124" lon="5.12281">
        <ele>264.2</ele>
        <time>1970-01-01T05:12:21.000Z</time>
      </trkpt>
      <trkpt lat="44.71127" lon="5.12279">
        <ele>264.4</ele>
        <time>1970-01-01T05:12:22.000Z</time>
      </trkpt>
      <trkpt lat="44.71134" lon="5.12273">
        <ele>265</ele>
        <time>1970-01-01T05:12:24.000Z</time>
      </trkpt>
      <trkpt lat="44.71137" lon="5.1227">
        <ele>265.4</ele>
        <time>1970-01-01T05:12:25.000Z</time>
      </trkpt>
      <trkpt lat="44.71141" lon="5.12267">
        <ele>265.8</ele>
        <time>1970-01-01T05:12:26.000Z</time>
      </trkpt>
      <trkpt lat="44.71144" lon="5.12264">
        <ele>266.2</ele>
        <time>1970-01-01T05:12:27.000Z</time>
      </trkpt>
      <trkpt lat="44.71147" lon="5.12262">
        <ele>266.4</ele>
        <time>1970-01-01T05:12:28.000Z</time>
      </trkpt>
      <trkpt lat="44.7115" lon="5.1226">
        <ele>266.6</ele>
        <time>1970-01-01T05:12:29.000Z</time>
      </trkpt>
      <trkpt lat="44.71153" lon="5.12257">
        <ele>267</ele>
        <time>1970-01-01T05:12:30.000Z</time>
      </trkpt>
      <trkpt lat="44.71156" lon="5.12255">
        <ele>267.4</ele>
        <time>1970-01-01T05:12:31.000Z</time>
      </trkpt>
      <trkpt lat="44.7116" lon="5.12252">
        <ele>267.8</ele>
        <time>1970-01-01T05:12:32.000Z</time>
      </trkpt>
      <trkpt lat="44.71163" lon="5.1225">
        <ele>268.2</ele>
        <time>1970-01-01T05:12:33.000Z</time>
      </trkpt>
      <trkpt lat="44.71166" lon="5.12248">
        <ele>268.4</ele>
        <time>1970-01-01T05:12:34.000Z</time>
      </trkpt>
      <trkpt lat="44.71169" lon="5.12246">
        <ele>268.6</ele>
        <time>1970-01-01T05:12:35.000Z</time>
      </trkpt>
      <trkpt lat="44.71173" lon="5.12243">
        <ele>269</ele>
        <time>1970-01-01T05:12:36.000Z</time>
      </trkpt>
      <trkpt lat="44.71176" lon="5.12241">
        <ele>269.2</ele>
        <time>1970-01-01T05:12:37.000Z</time>
      </trkpt>
      <trkpt lat="44.71179" lon="5.1224">
        <ele>269.6</ele>
        <time>1970-01-01T05:12:38.000Z</time>
      </trkpt>
      <trkpt lat="44.71181" lon="5.12238">
        <ele>269.8</ele>
        <time>1970-01-01T05:12:39.000Z</time>
      </trkpt>
      <trkpt lat="44.71183" lon="5.12234">
        <ele>270.2</ele>
        <time>1970-01-01T05:12:40.000Z</time>
      </trkpt>
      <trkpt lat="44.71184" lon="5.12232">
        <ele>270.4</ele>
        <time>1970-01-01T05:12:41.000Z</time>
      </trkpt>
      <trkpt lat="44.71185" lon="5.12228">
        <ele>270.6</ele>
        <time>1970-01-01T05:12:42.000Z</time>
      </trkpt>
      <trkpt lat="44.71186" lon="5.12225">
        <ele>270.8</ele>
        <time>1970-01-01T05:12:43.000Z</time>
      </trkpt>
      <trkpt lat="44.71187" lon="5.12221">
        <ele>271</ele>
        <time>1970-01-01T05:12:44.000Z</time>
      </trkpt>
      <trkpt lat="44.71188" lon="5.12216">
        <ele>271.2</ele>
        <time>1970-01-01T05:12:45.000Z</time>
      </trkpt>
      <trkpt lat="44.71189" lon="5.12212">
        <ele>271.4</ele>
        <time>1970-01-01T05:12:46.000Z</time>
      </trkpt>
      <trkpt lat="44.7119" lon="5.12209">
        <ele>271.8</ele>
        <time>1970-01-01T05:12:47.000Z</time>
      </trkpt>
      <trkpt lat="44.71191" lon="5.12205">
        <ele>272</ele>
        <time>1970-01-01T05:12:48.000Z</time>
      </trkpt>
      <trkpt lat="44.71192" lon="5.12201">
        <ele>272.4</ele>
        <time>1970-01-01T05:12:49.000Z</time>
      </trkpt>
      <trkpt lat="44.71193" lon="5.12197">
        <ele>272.6</ele>
        <time>1970-01-01T05:12:50.000Z</time>
      </trkpt>
      <trkpt lat="44.71193" lon="5.12193">
        <ele>272.8</ele>
        <time>1970-01-01T05:12:51.000Z</time>
      </trkpt>
      <trkpt lat="44.71193" lon="5.12188">
        <ele>273.2</ele>
        <time>1970-01-01T05:12:52.000Z</time>
      </trkpt>
      <trkpt lat="44.71193" lon="5.12183">
        <ele>273.4</ele>
        <time>1970-01-01T05:12:53.000Z</time>
      </trkpt>
      <trkpt lat="44.71192" lon="5.12178">
        <ele>273.8</ele>
        <time>1970-01-01T05:12:54.000Z</time>
      </trkpt>
      <trkpt lat="44.71191" lon="5.12174">
        <ele>274.2</ele>
        <time>1970-01-01T05:12:55.000Z</time>
      </trkpt>
      <trkpt lat="44.7119" lon="5.12169">
        <ele>274.4</ele>
        <time>1970-01-01T05:12:56.000Z</time>
      </trkpt>
      <trkpt lat="44.71189" lon="5.12165">
        <ele>274.8</ele>
        <time>1970-01-01T05:12:57.000Z</time>
      </trkpt>
      <trkpt lat="44.71189" lon="5.12161">
        <ele>275</ele>
        <time>1970-01-01T05:12:58.000Z</time>
      </trkpt>
      <trkpt lat="44.71188" lon="5.12157">
        <ele>275.2</ele>
        <time>1970-01-01T05:12:59.000Z</time>
      </trkpt>
      <trkpt lat="44.71187" lon="5.12152">
        <ele>275.4</ele>
        <time>1970-01-01T05:13:00.000Z</time>
      </trkpt>
      <trkpt lat="44.71186" lon="5.12148">
        <ele>275.6</ele>
        <time>1970-01-01T05:13:01.000Z</time>
      </trkpt>
      <trkpt lat="44.71185" lon="5.12143">
        <ele>275.8</ele>
        <time>1970-01-01T05:13:02.000Z</time>
      </trkpt>
      <trkpt lat="44.71184" lon="5.12139">
        <ele>276</ele>
        <time>1970-01-01T05:13:03.000Z</time>
      </trkpt>
      <trkpt lat="44.71184" lon="5.12134">
        <ele>276.2</ele>
        <time>1970-01-01T05:13:04.000Z</time>
      </trkpt>
      <trkpt lat="44.71183" lon="5.1213">
        <ele>276.4</ele>
        <time>1970-01-01T05:13:05.000Z</time>
      </trkpt>
      <trkpt lat="44.71182" lon="5.12125">
        <ele>276.6</ele>
        <time>1970-01-01T05:13:06.000Z</time>
      </trkpt>
      <trkpt lat="44.71182" lon="5.1212">
        <ele>276.8</ele>
        <time>1970-01-01T05:13:07.000Z</time>
      </trkpt>
      <trkpt lat="44.71181" lon="5.12116">
        <ele>277.4</ele>
        <time>1970-01-01T05:13:08.000Z</time>
      </trkpt>
      <trkpt lat="44.7118" lon="5.12112">
        <ele>277.6</ele>
        <time>1970-01-01T05:13:09.000Z</time>
      </trkpt>
      <trkpt lat="44.7118" lon="5.12108">
        <ele>277.8</ele>
        <time>1970-01-01T05:13:10.000Z</time>
      </trkpt>
      <trkpt lat="44.71179" lon="5.12103">
        <ele>278</ele>
        <time>1970-01-01T05:13:11.000Z</time>
      </trkpt>
      <trkpt lat="44.71178" lon="5.12099">
        <ele>278.2</ele>
        <time>1970-01-01T05:13:12.000Z</time>
      </trkpt>
      <trkpt lat="44.71178" lon="5.12095">
        <ele>278.6</ele>
        <time>1970-01-01T05:13:13.000Z</time>
      </trkpt>
      <trkpt lat="44.71177" lon="5.1209">
        <ele>279</ele>
        <time>1970-01-01T05:13:14.000Z</time>
      </trkpt>
      <trkpt lat="44.71177" lon="5.12086">
        <ele>279.2</ele>
        <time>1970-01-01T05:13:15.000Z</time>
      </trkpt>
      <trkpt lat="44.71177" lon="5.12082">
        <ele>279.6</ele>
        <time>1970-01-01T05:13:16.000Z</time>
      </trkpt>
      <trkpt lat="44.71178" lon="5.12078">
        <ele>279.8</ele>
        <time>1970-01-01T05:13:17.000Z</time>
      </trkpt>
      <trkpt lat="44.71178" lon="5.12073">
        <ele>280.2</ele>
        <time>1970-01-01T05:13:18.000Z</time>
      </trkpt>
      <trkpt lat="44.71179" lon="5.12069">
        <ele>280.6</ele>
        <time>1970-01-01T05:13:19.000Z</time>
      </trkpt>
      <trkpt lat="44.71179" lon="5.12064">
        <ele>280.6</ele>
        <time>1970-01-01T05:13:20.000Z</time>
      </trkpt>
      <trkpt lat="44.71179" lon="5.12059">
        <ele>280.8</ele>
        <time>1970-01-01T05:13:21.000Z</time>
      </trkpt>
      <trkpt lat="44.71179" lon="5.12054">
        <ele>281</ele>
        <time>1970-01-01T05:13:22.000Z</time>
      </trkpt>
      <trkpt lat="44.71178" lon="5.1205">
        <ele>281</ele>
        <time>1970-01-01T05:13:23.000Z</time>
      </trkpt>
      <trkpt lat="44.71177" lon="5.12045">
        <ele>281.2</ele>
        <time>1970-01-01T05:13:24.000Z</time>
      </trkpt>
      <trkpt lat="44.71175" lon="5.12041">
        <ele>281.4</ele>
        <time>1970-01-01T05:13:25.000Z</time>
      </trkpt>
      <trkpt lat="44.71174" lon="5.12037">
        <ele>281.6</ele>
        <time>1970-01-01T05:13:26.000Z</time>
      </trkpt>
      <trkpt lat="44.71173" lon="5.12033">
        <ele>282</ele>
        <time>1970-01-01T05:13:27.000Z</time>
      </trkpt>
      <trkpt lat="44.71171" lon="5.12029">
        <ele>282.2</ele>
        <time>1970-01-01T05:13:28.000Z</time>
      </trkpt>
      <trkpt lat="44.71169" lon="5.12024">
        <ele>282.6</ele>
        <time>1970-01-01T05:13:29.000Z</time>
      </trkpt>
      <trkpt lat="44.71168" lon="5.12021">
        <ele>282.8</ele>
        <time>1970-01-01T05:13:30.000Z</time>
      </trkpt>
      <trkpt lat="44.71167" lon="5.12017">
        <ele>282.8</ele>
        <time>1970-01-01T05:13:31.000Z</time>
      </trkpt>
      <trkpt lat="44.71166" lon="5.12013">
        <ele>283.2</ele>
        <time>1970-01-01T05:13:32.000Z</time>
      </trkpt>
      <trkpt lat="44.71164" lon="5.12009">
        <ele>283.4</ele>
        <time>1970-01-01T05:13:33.000Z</time>
      </trkpt>
      <trkpt lat="44.71162" lon="5.12005">
        <ele>283.8</ele>
        <time>1970-01-01T05:13:34.000Z</time>
      </trkpt>
      <trkpt lat="44.71159" lon="5.12002">
        <ele>284</ele>
        <time>1970-01-01T05:13:35.000Z</time>
      </trkpt>
      <trkpt lat="44.71157" lon="5.11999">
        <ele>284.2</ele>
        <time>1970-01-01T05:13:36.000Z</time>
      </trkpt>
      <trkpt lat="44.71154" lon="5.11995">
        <ele>284.4</ele>
        <time>1970-01-01T05:13:37.000Z</time>
      </trkpt>
      <trkpt lat="44.71153" lon="5.11992">
        <ele>284.6</ele>
        <time>1970-01-01T05:13:38.000Z</time>
      </trkpt>
      <trkpt lat="44.71151" lon="5.11988">
        <ele>284.6</ele>
        <time>1970-01-01T05:13:39.000Z</time>
      </trkpt>
      <trkpt lat="44.71151" lon="5.11984">
        <ele>284.6</ele>
        <time>1970-01-01T05:13:40.000Z</time>
      </trkpt>
      <trkpt lat="44.7115" lon="5.1198">
        <ele>284.8</ele>
        <time>1970-01-01T05:13:41.000Z</time>
      </trkpt>
      <trkpt lat="44.71149" lon="5.11976">
        <ele>284.8</ele>
        <time>1970-01-01T05:13:42.000Z</time>
      </trkpt>
      <trkpt lat="44.71148" lon="5.11972">
        <ele>284.8</ele>
        <time>1970-01-01T05:13:43.000Z</time>
      </trkpt>
      <trkpt lat="44.71147" lon="5.11968">
        <ele>285</ele>
        <time>1970-01-01T05:13:44.000Z</time>
      </trkpt>
      <trkpt lat="44.71146" lon="5.11963">
        <ele>285</ele>
        <time>1970-01-01T05:13:45.000Z</time>
      </trkpt>
      <trkpt lat="44.71145" lon="5.11959">
        <ele>285.2</ele>
        <time>1970-01-01T05:13:46.000Z</time>
      </trkpt>
      <trkpt lat="44.71143" lon="5.11955">
        <ele>285.2</ele>
        <time>1970-01-01T05:13:47.000Z</time>
      </trkpt>
      <trkpt lat="44.71143" lon="5.11951">
        <ele>285.4</ele>
        <time>1970-01-01T05:13:48.000Z</time>
      </trkpt>
      <trkpt lat="44.71142" lon="5.11947">
        <ele>285.6</ele>
        <time>1970-01-01T05:13:49.000Z</time>
      </trkpt>
      <trkpt lat="44.71141" lon="5.11943">
        <ele>285.6</ele>
        <time>1970-01-01T05:13:50.000Z</time>
      </trkpt>
      <trkpt lat="44.71141" lon="5.11939">
        <ele>285.8</ele>
        <time>1970-01-01T05:13:51.000Z</time>
      </trkpt>
      <trkpt lat="44.7114" lon="5.11934">
        <ele>286</ele>
        <time>1970-01-01T05:13:52.000Z</time>
      </trkpt>
      <trkpt lat="44.7114" lon="5.11929">
        <ele>286</ele>
        <time>1970-01-01T05:13:53.000Z</time>
      </trkpt>
      <trkpt lat="44.7114" lon="5.11924">
        <ele>286.2</ele>
        <time>1970-01-01T05:13:54.000Z</time>
      </trkpt>
      <trkpt lat="44.71139" lon="5.1192">
        <ele>286.6</ele>
        <time>1970-01-01T05:13:55.000Z</time>
      </trkpt>
      <trkpt lat="44.71139" lon="5.11916">
        <ele>286.8</ele>
        <time>1970-01-01T05:13:56.000Z</time>
      </trkpt>
      <trkpt lat="44.71138" lon="5.11912">
        <ele>287</ele>
        <time>1970-01-01T05:13:57.000Z</time>
      </trkpt>
      <trkpt lat="44.71137" lon="5.11909">
        <ele>287.2</ele>
        <time>1970-01-01T05:13:58.000Z</time>
      </trkpt>
      <trkpt lat="44.71136" lon="5.11907">
        <ele>287.2</ele>
        <time>1970-01-01T05:13:59.000Z</time>
      </trkpt>
      <trkpt lat="44.71135" lon="5.11905">
        <ele>287.4</ele>
        <time>1970-01-01T05:14:00.000Z</time>
      </trkpt>
      <trkpt lat="44.71134" lon="5.11903">
        <ele>287.6</ele>
        <time>1970-01-01T05:14:01.000Z</time>
      </trkpt>
      <trkpt lat="44.71134" lon="5.11902">
        <ele>288</ele>
        <time>1970-01-01T05:14:04.000Z</time>
      </trkpt>
      <trkpt lat="44.71133" lon="5.11899">
        <ele>287.8</ele>
        <time>1970-01-01T05:14:42.000Z</time>
      </trkpt>
      <trkpt lat="44.71132" lon="5.11897">
        <ele>287.8</ele>
        <time>1970-01-01T05:14:43.000Z</time>
      </trkpt>
      <trkpt lat="44.71127" lon="5.11882">
        <ele>289</ele>
        <time>1970-01-01T05:14:47.000Z</time>
      </trkpt>
      <trkpt lat="44.71125" lon="5.11878">
        <ele>289.2</ele>
        <time>1970-01-01T05:14:48.000Z</time>
      </trkpt>
      <trkpt lat="44.71118" lon="5.11862">
        <ele>289.8</ele>
        <time>1970-01-01T05:14:52.000Z</time>
      </trkpt>
      <trkpt lat="44.71114" lon="5.11853">
        <ele>290.4</ele>
        <time>1970-01-01T05:14:54.000Z</time>
      </trkpt>
      <trkpt lat="44.71109" lon="5.11843">
        <ele>290.8</ele>
        <time>1970-01-01T05:14:56.000Z</time>
      </trkpt>
      <trkpt lat="44.71107" lon="5.11839">
        <ele>291</ele>
        <time>1970-01-01T05:14:57.000Z</time>
      </trkpt>
      <trkpt lat="44.71105" lon="5.11834">
        <ele>291.4</ele>
        <time>1970-01-01T05:14:58.000Z</time>
      </trkpt>
      <trkpt lat="44.71102" lon="5.11829">
        <ele>291.6</ele>
        <time>1970-01-01T05:14:59.000Z</time>
      </trkpt>
      <trkpt lat="44.711" lon="5.11824">
        <ele>291.8</ele>
        <time>1970-01-01T05:15:00.000Z</time>
      </trkpt>
      <trkpt lat="44.71098" lon="5.11818">
        <ele>292</ele>
        <time>1970-01-01T05:15:01.000Z</time>
      </trkpt>
      <trkpt lat="44.71096" lon="5.11813">
        <ele>292.2</ele>
        <time>1970-01-01T05:15:02.000Z</time>
      </trkpt>
      <trkpt lat="44.71094" lon="5.11807">
        <ele>292.6</ele>
        <time>1970-01-01T05:15:03.000Z</time>
      </trkpt>
      <trkpt lat="44.71092" lon="5.11801">
        <ele>292.8</ele>
        <time>1970-01-01T05:15:04.000Z</time>
      </trkpt>
      <trkpt lat="44.71091" lon="5.11796">
        <ele>293.6</ele>
        <time>1970-01-01T05:15:05.000Z</time>
      </trkpt>
      <trkpt lat="44.71089" lon="5.11791">
        <ele>294</ele>
        <time>1970-01-01T05:15:06.000Z</time>
      </trkpt>
      <trkpt lat="44.71086" lon="5.11786">
        <ele>294.4</ele>
        <time>1970-01-01T05:15:07.000Z</time>
      </trkpt>
      <trkpt lat="44.71084" lon="5.11781">
        <ele>294.8</ele>
        <time>1970-01-01T05:15:08.000Z</time>
      </trkpt>
      <trkpt lat="44.71082" lon="5.11775">
        <ele>295</ele>
        <time>1970-01-01T05:15:09.000Z</time>
      </trkpt>
      <trkpt lat="44.7108" lon="5.11769">
        <ele>295.2</ele>
        <time>1970-01-01T05:15:10.000Z</time>
      </trkpt>
      <trkpt lat="44.71079" lon="5.11763">
        <ele>295.2</ele>
        <time>1970-01-01T05:15:11.000Z</time>
      </trkpt>
      <trkpt lat="44.71078" lon="5.11758">
        <ele>295.8</ele>
        <time>1970-01-01T05:15:12.000Z</time>
      </trkpt>
      <trkpt lat="44.71078" lon="5.11753">
        <ele>296</ele>
        <time>1970-01-01T05:15:13.000Z</time>
      </trkpt>
      <trkpt lat="44.71078" lon="5.11748">
        <ele>296.4</ele>
        <time>1970-01-01T05:15:14.000Z</time>
      </trkpt>
      <trkpt lat="44.71078" lon="5.11744">
        <ele>296.6</ele>
        <time>1970-01-01T05:15:15.000Z</time>
      </trkpt>
      <trkpt lat="44.71078" lon="5.1174">
        <ele>296.8</ele>
        <time>1970-01-01T05:15:16.000Z</time>
      </trkpt>
      <trkpt lat="44.71078" lon="5.11736">
        <ele>297.2</ele>
        <time>1970-01-01T05:15:17.000Z</time>
      </trkpt>
      <trkpt lat="44.71078" lon="5.11733">
        <ele>297.4</ele>
        <time>1970-01-01T05:15:18.000Z</time>
      </trkpt>
      <trkpt lat="44.71078" lon="5.11729">
        <ele>297.4</ele>
        <time>1970-01-01T05:15:19.000Z</time>
      </trkpt>
      <trkpt lat="44.71079" lon="5.11726">
        <ele>297.6</ele>
        <time>1970-01-01T05:15:20.000Z</time>
      </trkpt>
      <trkpt lat="44.71078" lon="5.11722">
        <ele>297.4</ele>
        <time>1970-01-01T05:15:21.000Z</time>
      </trkpt>
      <trkpt lat="44.71078" lon="5.11717">
        <ele>297.4</ele>
        <time>1970-01-01T05:15:22.000Z</time>
      </trkpt>
      <trkpt lat="44.71077" lon="5.11713">
        <ele>297.4</ele>
        <time>1970-01-01T05:15:23.000Z</time>
      </trkpt>
      <trkpt lat="44.71076" lon="5.1171">
        <ele>297.2</ele>
        <time>1970-01-01T05:15:24.000Z</time>
      </trkpt>
      <trkpt lat="44.71075" lon="5.11707">
        <ele>297.2</ele>
        <time>1970-01-01T05:15:25.000Z</time>
      </trkpt>
      <trkpt lat="44.71075" lon="5.11703">
        <ele>297.2</ele>
        <time>1970-01-01T05:15:26.000Z</time>
      </trkpt>
      <trkpt lat="44.71074" lon="5.11699">
        <ele>297.2</ele>
        <time>1970-01-01T05:15:27.000Z</time>
      </trkpt>
      <trkpt lat="44.71072" lon="5.11694">
        <ele>297</ele>
        <time>1970-01-01T05:15:28.000Z</time>
      </trkpt>
      <trkpt lat="44.7107" lon="5.11689">
        <ele>296.4</ele>
        <time>1970-01-01T05:15:29.000Z</time>
      </trkpt>
      <trkpt lat="44.71068" lon="5.11685">
        <ele>296.2</ele>
        <time>1970-01-01T05:15:30.000Z</time>
      </trkpt>
      <trkpt lat="44.71064" lon="5.11679">
        <ele>295.8</ele>
        <time>1970-01-01T05:15:31.000Z</time>
      </trkpt>
      <trkpt lat="44.71061" lon="5.11673">
        <ele>295.6</ele>
        <time>1970-01-01T05:15:32.000Z</time>
      </trkpt>
      <trkpt lat="44.71058" lon="5.11668">
        <ele>295.4</ele>
        <time>1970-01-01T05:15:33.000Z</time>
      </trkpt>
      <trkpt lat="44.71055" lon="5.11663">
        <ele>295.2</ele>
        <time>1970-01-01T05:15:34.000Z</time>
      </trkpt>
      <trkpt lat="44.71053" lon="5.11659">
        <ele>295.2</ele>
        <time>1970-01-01T05:15:35.000Z</time>
      </trkpt>
      <trkpt lat="44.71051" lon="5.11654">
        <ele>295.2</ele>
        <time>1970-01-01T05:15:36.000Z</time>
      </trkpt>
      <trkpt lat="44.71049" lon="5.11649">
        <ele>295.2</ele>
        <time>1970-01-01T05:15:37.000Z</time>
      </trkpt>
      <trkpt lat="44.71047" lon="5.11645">
        <ele>295.2</ele>
        <time>1970-01-01T05:15:38.000Z</time>
      </trkpt>
      <trkpt lat="44.71043" lon="5.1163">
        <ele>295.6</ele>
        <time>1970-01-01T05:15:41.000Z</time>
      </trkpt>
      <trkpt lat="44.71041" lon="5.11626">
        <ele>295.6</ele>
        <time>1970-01-01T05:15:42.000Z</time>
      </trkpt>
      <trkpt lat="44.7104" lon="5.11621">
        <ele>296</ele>
        <time>1970-01-01T05:15:43.000Z</time>
      </trkpt>
      <trkpt lat="44.71039" lon="5.11615">
        <ele>296.2</ele>
        <time>1970-01-01T05:15:44.000Z</time>
      </trkpt>
      <trkpt lat="44.71038" lon="5.1161">
        <ele>296.6</ele>
        <time>1970-01-01T05:15:45.000Z</time>
      </trkpt>
      <trkpt lat="44.71037" lon="5.11607">
        <ele>296.8</ele>
        <time>1970-01-01T05:15:46.000Z</time>
      </trkpt>
      <trkpt lat="44.71036" lon="5.11601">
        <ele>297</ele>
        <time>1970-01-01T05:15:47.000Z</time>
      </trkpt>
      <trkpt lat="44.71035" lon="5.11597">
        <ele>297.4</ele>
        <time>1970-01-01T05:15:48.000Z</time>
      </trkpt>
      <trkpt lat="44.71032" lon="5.11577">
        <ele>298</ele>
        <time>1970-01-01T05:15:52.000Z</time>
      </trkpt>
      <trkpt lat="44.71032" lon="5.11571">
        <ele>297.8</ele>
        <time>1970-01-01T05:15:53.000Z</time>
      </trkpt>
      <trkpt lat="44.71034" lon="5.11556">
        <ele>296.8</ele>
        <time>1970-01-01T05:15:55.000Z</time>
      </trkpt>
      <trkpt lat="44.71036" lon="5.11548">
        <ele>295.8</ele>
        <time>1970-01-01T05:15:56.000Z</time>
      </trkpt>
      <trkpt lat="44.71039" lon="5.1154">
        <ele>295.2</ele>
        <time>1970-01-01T05:15:57.000Z</time>
      </trkpt>
      <trkpt lat="44.71043" lon="5.11531">
        <ele>294.8</ele>
        <time>1970-01-01T05:15:58.000Z</time>
      </trkpt>
      <trkpt lat="44.7105" lon="5.11515">
        <ele>293.6</ele>
        <time>1970-01-01T05:16:00.000Z</time>
      </trkpt>
      <trkpt lat="44.71054" lon="5.11505">
        <ele>292.6</ele>
        <time>1970-01-01T05:16:01.000Z</time>
      </trkpt>
      <trkpt lat="44.71065" lon="5.11484">
        <ele>291.4</ele>
        <time>1970-01-01T05:16:03.000Z</time>
      </trkpt>
      <trkpt lat="44.7107" lon="5.11473">
        <ele>289.2</ele>
        <time>1970-01-01T05:16:04.000Z</time>
      </trkpt>
      <trkpt lat="44.71073" lon="5.11461">
        <ele>287.6</ele>
        <time>1970-01-01T05:16:05.000Z</time>
      </trkpt>
      <trkpt lat="44.71074" lon="5.11448">
        <ele>286.6</ele>
        <time>1970-01-01T05:16:06.000Z</time>
      </trkpt>
      <trkpt lat="44.71075" lon="5.11433">
        <ele>285.2</ele>
        <time>1970-01-01T05:16:07.000Z</time>
      </trkpt>
      <trkpt lat="44.71076" lon="5.11419">
        <ele>282.8</ele>
        <time>1970-01-01T05:16:08.000Z</time>
      </trkpt>
      <trkpt lat="44.71079" lon="5.1141">
        <ele>281.4</ele>
        <time>1970-01-01T05:16:09.000Z</time>
      </trkpt>
      <trkpt lat="44.71084" lon="5.114">
        <ele>280.8</ele>
        <time>1970-01-01T05:16:10.000Z</time>
      </trkpt>
      <trkpt lat="44.71091" lon="5.11388">
        <ele>280.4</ele>
        <time>1970-01-01T05:16:11.000Z</time>
      </trkpt>
      <trkpt lat="44.71097" lon="5.11378">
        <ele>280.2</ele>
        <time>1970-01-01T05:16:12.000Z</time>
      </trkpt>
      <trkpt lat="44.71103" lon="5.1137">
        <ele>280.2</ele>
        <time>1970-01-01T05:16:13.000Z</time>
      </trkpt>
      <trkpt lat="44.71109" lon="5.11361">
        <ele>280</ele>
        <time>1970-01-01T05:16:14.000Z</time>
      </trkpt>
      <trkpt lat="44.71114" lon="5.11353">
        <ele>279.8</ele>
        <time>1970-01-01T05:16:15.000Z</time>
      </trkpt>
      <trkpt lat="44.7112" lon="5.11344">
        <ele>279.6</ele>
        <time>1970-01-01T05:16:16.000Z</time>
      </trkpt>
      <trkpt lat="44.71127" lon="5.11334">
        <ele>279.6</ele>
        <time>1970-01-01T05:16:17.000Z</time>
      </trkpt>
      <trkpt lat="44.71132" lon="5.11327">
        <ele>279.4</ele>
        <time>1970-01-01T05:16:18.000Z</time>
      </trkpt>
      <trkpt lat="44.71137" lon="5.11319">
        <ele>279.2</ele>
        <time>1970-01-01T05:16:19.000Z</time>
      </trkpt>
      <trkpt lat="44.71143" lon="5.11312">
        <ele>278.8</ele>
        <time>1970-01-01T05:16:20.000Z</time>
      </trkpt>
      <trkpt lat="44.71149" lon="5.11304">
        <ele>278.6</ele>
        <time>1970-01-01T05:16:21.000Z</time>
      </trkpt>
      <trkpt lat="44.71154" lon="5.11296">
        <ele>278.2</ele>
        <time>1970-01-01T05:16:22.000Z</time>
      </trkpt>
      <trkpt lat="44.71161" lon="5.11287">
        <ele>278.2</ele>
        <time>1970-01-01T05:16:23.000Z</time>
      </trkpt>
      <trkpt lat="44.71165" lon="5.1128">
        <ele>278</ele>
        <time>1970-01-01T05:16:24.000Z</time>
      </trkpt>
      <trkpt lat="44.71169" lon="5.11272">
        <ele>277.8</ele>
        <time>1970-01-01T05:16:25.000Z</time>
      </trkpt>
      <trkpt lat="44.71173" lon="5.11264">
        <ele>277.6</ele>
        <time>1970-01-01T05:16:26.000Z</time>
      </trkpt>
      <trkpt lat="44.71177" lon="5.11255">
        <ele>277.6</ele>
        <time>1970-01-01T05:16:27.000Z</time>
      </trkpt>
      <trkpt lat="44.71179" lon="5.11245">
        <ele>277.6</ele>
        <time>1970-01-01T05:16:28.000Z</time>
      </trkpt>
      <trkpt lat="44.71179" lon="5.11236">
        <ele>278</ele>
        <time>1970-01-01T05:16:29.000Z</time>
      </trkpt>
      <trkpt lat="44.71178" lon="5.11229">
        <ele>278.2</ele>
        <time>1970-01-01T05:16:30.000Z</time>
      </trkpt>
      <trkpt lat="44.71178" lon="5.11223">
        <ele>278.2</ele>
        <time>1970-01-01T05:16:31.000Z</time>
      </trkpt>
      <trkpt lat="44.71178" lon="5.11215">
        <ele>278.4</ele>
        <time>1970-01-01T05:16:32.000Z</time>
      </trkpt>
      <trkpt lat="44.71178" lon="5.11209">
        <ele>278.6</ele>
        <time>1970-01-01T05:16:33.000Z</time>
      </trkpt>
      <trkpt lat="44.71178" lon="5.11203">
        <ele>279</ele>
        <time>1970-01-01T05:16:34.000Z</time>
      </trkpt>
      <trkpt lat="44.71178" lon="5.11198">
        <ele>279.2</ele>
        <time>1970-01-01T05:16:35.000Z</time>
      </trkpt>
      <trkpt lat="44.71178" lon="5.11192">
        <ele>279.6</ele>
        <time>1970-01-01T05:16:36.000Z</time>
      </trkpt>
      <trkpt lat="44.71178" lon="5.11181">
        <ele>280.2</ele>
        <time>1970-01-01T05:16:38.000Z</time>
      </trkpt>
      <trkpt lat="44.71178" lon="5.1117">
        <ele>280.8</ele>
        <time>1970-01-01T05:16:40.000Z</time>
      </trkpt>
      <trkpt lat="44.71178" lon="5.11154">
        <ele>281.4</ele>
        <time>1970-01-01T05:16:43.000Z</time>
      </trkpt>
      <trkpt lat="44.71177" lon="5.11146">
        <ele>281.8</ele>
        <time>1970-01-01T05:16:44.000Z</time>
      </trkpt>
      <trkpt lat="44.71176" lon="5.11141">
        <ele>282.6</ele>
        <time>1970-01-01T05:16:45.000Z</time>
      </trkpt>
      <trkpt lat="44.71174" lon="5.11134">
        <ele>283</ele>
        <time>1970-01-01T05:16:46.000Z</time>
      </trkpt>
      <trkpt lat="44.71171" lon="5.11129">
        <ele>283.4</ele>
        <time>1970-01-01T05:16:47.000Z</time>
      </trkpt>
      <trkpt lat="44.71167" lon="5.11126">
        <ele>283.8</ele>
        <time>1970-01-01T05:16:48.000Z</time>
      </trkpt>
      <trkpt lat="44.71164" lon="5.11123">
        <ele>284.6</ele>
        <time>1970-01-01T05:16:49.000Z</time>
      </trkpt>
      <trkpt lat="44.7116" lon="5.11121">
        <ele>285.4</ele>
        <time>1970-01-01T05:16:50.000Z</time>
      </trkpt>
      <trkpt lat="44.71155" lon="5.11119">
        <ele>286</ele>
        <time>1970-01-01T05:16:51.000Z</time>
      </trkpt>
      <trkpt lat="44.71151" lon="5.11117">
        <ele>286.4</ele>
        <time>1970-01-01T05:16:52.000Z</time>
      </trkpt>
      <trkpt lat="44.71147" lon="5.11115">
        <ele>286.6</ele>
        <time>1970-01-01T05:16:53.000Z</time>
      </trkpt>
      <trkpt lat="44.71143" lon="5.11113">
        <ele>287.4</ele>
        <time>1970-01-01T05:16:54.000Z</time>
      </trkpt>
      <trkpt lat="44.7114" lon="5.11111">
        <ele>287.8</ele>
        <time>1970-01-01T05:16:55.000Z</time>
      </trkpt>
      <trkpt lat="44.71136" lon="5.11108">
        <ele>288</ele>
        <time>1970-01-01T05:16:56.000Z</time>
      </trkpt>
      <trkpt lat="44.71133" lon="5.11106">
        <ele>288.2</ele>
        <time>1970-01-01T05:16:57.000Z</time>
      </trkpt>
      <trkpt lat="44.71128" lon="5.11103">
        <ele>288.8</ele>
        <time>1970-01-01T05:16:58.000Z</time>
      </trkpt>
      <trkpt lat="44.71125" lon="5.11101">
        <ele>289.2</ele>
        <time>1970-01-01T05:16:59.000Z</time>
      </trkpt>
      <trkpt lat="44.71122" lon="5.11099">
        <ele>290</ele>
        <time>1970-01-01T05:17:00.000Z</time>
      </trkpt>
      <trkpt lat="44.71119" lon="5.11097">
        <ele>290.6</ele>
        <time>1970-01-01T05:17:01.000Z</time>
      </trkpt>
      <trkpt lat="44.71117" lon="5.11095">
        <ele>291</ele>
        <time>1970-01-01T05:17:02.000Z</time>
      </trkpt>
      <trkpt lat="44.71115" lon="5.11095">
        <ele>291.4</ele>
        <time>1970-01-01T05:17:03.000Z</time>
      </trkpt>
      <trkpt lat="44.71113" lon="5.11094">
        <ele>291.6</ele>
        <time>1970-01-01T05:17:04.000Z</time>
      </trkpt>
      <trkpt lat="44.71113" lon="5.11093">
        <ele>292</ele>
        <time>1970-01-01T05:17:05.000Z</time>
      </trkpt>
      <trkpt lat="44.71112" lon="5.11092">
        <ele>292</ele>
        <time>1970-01-01T05:17:06.000Z</time>
      </trkpt>
      <trkpt lat="44.71113" lon="5.1109">
        <ele>292.2</ele>
        <time>1970-01-01T05:17:07.000Z</time>
      </trkpt>
      <trkpt lat="44.71113" lon="5.11089">
        <ele>292.4</ele>
        <time>1970-01-01T05:17:08.000Z</time>
      </trkpt>
      <trkpt lat="44.71114" lon="5.11089">
        <ele>292.4</ele>
        <time>1970-01-01T05:17:09.000Z</time>
      </trkpt>
      <trkpt lat="44.71115" lon="5.11089">
        <ele>292.4</ele>
        <time>1970-01-01T05:17:10.000Z</time>
      </trkpt>
      <trkpt lat="44.71117" lon="5.1109">
        <ele>292.4</ele>
        <time>1970-01-01T05:17:11.000Z</time>
      </trkpt>
      <trkpt lat="44.71118" lon="5.11091">
        <ele>292.4</ele>
        <time>1970-01-01T05:17:12.000Z</time>
      </trkpt>
      <trkpt lat="44.7112" lon="5.11091">
        <ele>292.4</ele>
        <time>1970-01-01T05:17:13.000Z</time>
      </trkpt>
      <trkpt lat="44.71122" lon="5.11093">
        <ele>292.2</ele>
        <time>1970-01-01T05:17:14.000Z</time>
      </trkpt>
      <trkpt lat="44.71124" lon="5.11094">
        <ele>292.2</ele>
        <time>1970-01-01T05:17:15.000Z</time>
      </trkpt>
      <trkpt lat="44.71127" lon="5.11096">
        <ele>292</ele>
        <time>1970-01-01T05:17:16.000Z</time>
      </trkpt>
      <trkpt lat="44.71129" lon="5.11097">
        <ele>292</ele>
        <time>1970-01-01T05:17:17.000Z</time>
      </trkpt>
      <trkpt lat="44.71131" lon="5.11098">
        <ele>292</ele>
        <time>1970-01-01T05:17:18.000Z</time>
      </trkpt>
      <trkpt lat="44.71134" lon="5.11098">
        <ele>292</ele>
        <time>1970-01-01T05:17:19.000Z</time>
      </trkpt>
      <trkpt lat="44.71136" lon="5.11099">
        <ele>292</ele>
        <time>1970-01-01T05:17:20.000Z</time>
      </trkpt>
      <trkpt lat="44.71139" lon="5.11099">
        <ele>292</ele>
        <time>1970-01-01T05:17:21.000Z</time>
      </trkpt>
      <trkpt lat="44.71142" lon="5.11099">
        <ele>292</ele>
        <time>1970-01-01T05:17:22.000Z</time>
      </trkpt>
      <trkpt lat="44.71145" lon="5.11099">
        <ele>292</ele>
        <time>1970-01-01T05:17:23.000Z</time>
      </trkpt>
      <trkpt lat="44.71148" lon="5.111">
        <ele>292</ele>
        <time>1970-01-01T05:17:24.000Z</time>
      </trkpt>
      <trkpt lat="44.7115" lon="5.11101">
        <ele>292</ele>
        <time>1970-01-01T05:17:25.000Z</time>
      </trkpt>
      <trkpt lat="44.71153" lon="5.11102">
        <ele>292.2</ele>
        <time>1970-01-01T05:17:26.000Z</time>
      </trkpt>
      <trkpt lat="44.71155" lon="5.11102">
        <ele>292.2</ele>
        <time>1970-01-01T05:17:27.000Z</time>
      </trkpt>
      <trkpt lat="44.71158" lon="5.11101">
        <ele>292.2</ele>
        <time>1970-01-01T05:17:28.000Z</time>
      </trkpt>
      <trkpt lat="44.7116" lon="5.11101">
        <ele>292.2</ele>
        <time>1970-01-01T05:17:29.000Z</time>
      </trkpt>
      <trkpt lat="44.71176" lon="5.111">
        <ele>291.6</ele>
        <time>1970-01-01T05:17:35.000Z</time>
      </trkpt>
      <trkpt lat="44.71179" lon="5.111">
        <ele>291.6</ele>
        <time>1970-01-01T05:17:36.000Z</time>
      </trkpt>
      <trkpt lat="44.71183" lon="5.111">
        <ele>291.6</ele>
        <time>1970-01-01T05:17:37.000Z</time>
      </trkpt>
      <trkpt lat="44.71185" lon="5.11101">
        <ele>291.8</ele>
        <time>1970-01-01T05:17:38.000Z</time>
      </trkpt>
      <trkpt lat="44.71187" lon="5.11103">
        <ele>292</ele>
        <time>1970-01-01T05:17:39.000Z</time>
      </trkpt>
      <trkpt lat="44.7119" lon="5.11104">
        <ele>292</ele>
        <time>1970-01-01T05:17:40.000Z</time>
      </trkpt>
      <trkpt lat="44.71192" lon="5.11104">
        <ele>292</ele>
        <time>1970-01-01T05:17:41.000Z</time>
      </trkpt>
      <trkpt lat="44.71194" lon="5.11105">
        <ele>292.2</ele>
        <time>1970-01-01T05:17:42.000Z</time>
      </trkpt>
      <trkpt lat="44.71196" lon="5.11106">
        <ele>292.2</ele>
        <time>1970-01-01T05:17:43.000Z</time>
      </trkpt>
      <trkpt lat="44.71197" lon="5.11107">
        <ele>292.4</ele>
        <time>1970-01-01T05:17:44.000Z</time>
      </trkpt>
      <trkpt lat="44.71198" lon="5.11107">
        <ele>292.4</ele>
        <time>1970-01-01T05:17:45.000Z</time>
      </trkpt>
      <trkpt lat="44.71199" lon="5.11108">
        <ele>292.4</ele>
        <time>1970-01-01T05:17:46.000Z</time>
      </trkpt>
      <trkpt lat="44.712" lon="5.11108">
        <ele>292.6</ele>
        <time>1970-01-01T05:17:47.000Z</time>
      </trkpt>
      <trkpt lat="44.71197" lon="5.11109">
        <ele>292.4</ele>
        <time>1970-01-01T05:18:00.000Z</time>
      </trkpt>
      <trkpt lat="44.71195" lon="5.11107">
        <ele>292.2</ele>
        <time>1970-01-01T05:18:01.000Z</time>
      </trkpt>
      <trkpt lat="44.71187" lon="5.11102">
        <ele>292</ele>
        <time>1970-01-01T05:18:04.000Z</time>
      </trkpt>
      <trkpt lat="44.71184" lon="5.11101">
        <ele>291.6</ele>
        <time>1970-01-01T05:18:05.000Z</time>
      </trkpt>
      <trkpt lat="44.71179" lon="5.11101">
        <ele>291.6</ele>
        <time>1970-01-01T05:18:06.000Z</time>
      </trkpt>
      <trkpt lat="44.71175" lon="5.11101">
        <ele>291.4</ele>
        <time>1970-01-01T05:18:07.000Z</time>
      </trkpt>
      <trkpt lat="44.71154" lon="5.11101">
        <ele>291.4</ele>
        <time>1970-01-01T05:18:11.000Z</time>
      </trkpt>
      <trkpt lat="44.71149" lon="5.11101">
        <ele>291.4</ele>
        <time>1970-01-01T05:18:12.000Z</time>
      </trkpt>
      <trkpt lat="44.71144" lon="5.111">
        <ele>291.4</ele>
        <time>1970-01-01T05:18:13.000Z</time>
      </trkpt>
      <trkpt lat="44.71139" lon="5.11099">
        <ele>291.4</ele>
        <time>1970-01-01T05:18:14.000Z</time>
      </trkpt>
      <trkpt lat="44.71134" lon="5.11098">
        <ele>291.4</ele>
        <time>1970-01-01T05:18:15.000Z</time>
      </trkpt>
      <trkpt lat="44.71129" lon="5.11096">
        <ele>291.4</ele>
        <time>1970-01-01T05:18:16.000Z</time>
      </trkpt>
      <trkpt lat="44.71125" lon="5.11095">
        <ele>291.2</ele>
        <time>1970-01-01T05:18:17.000Z</time>
      </trkpt>
      <trkpt lat="44.71119" lon="5.11093">
        <ele>291.2</ele>
        <time>1970-01-01T05:18:18.000Z</time>
      </trkpt>
      <trkpt lat="44.71115" lon="5.11092">
        <ele>291.4</ele>
        <time>1970-01-01T05:18:19.000Z</time>
      </trkpt>
      <trkpt lat="44.71112" lon="5.11092">
        <ele>291.4</ele>
        <time>1970-01-01T05:18:20.000Z</time>
      </trkpt>
      <trkpt lat="44.71109" lon="5.11092">
        <ele>291.6</ele>
        <time>1970-01-01T05:18:21.000Z</time>
      </trkpt>
      <trkpt lat="44.71108" lon="5.1109">
        <ele>292</ele>
        <time>1970-01-01T05:18:22.000Z</time>
      </trkpt>
      <trkpt lat="44.71109" lon="5.11087">
        <ele>292</ele>
        <time>1970-01-01T05:18:23.000Z</time>
      </trkpt>
      <trkpt lat="44.7111" lon="5.11084">
        <ele>292.2</ele>
        <time>1970-01-01T05:18:24.000Z</time>
      </trkpt>
      <trkpt lat="44.71112" lon="5.11078">
        <ele>292.8</ele>
        <time>1970-01-01T05:18:26.000Z</time>
      </trkpt>
      <trkpt lat="44.71112" lon="5.11074">
        <ele>293.4</ele>
        <time>1970-01-01T05:18:27.000Z</time>
      </trkpt>
      <trkpt lat="44.71112" lon="5.1107">
        <ele>294.2</ele>
        <time>1970-01-01T05:18:28.000Z</time>
      </trkpt>
      <trkpt lat="44.71112" lon="5.11064">
        <ele>294.6</ele>
        <time>1970-01-01T05:18:29.000Z</time>
      </trkpt>
      <trkpt lat="44.71113" lon="5.11056">
        <ele>295.8</ele>
        <time>1970-01-01T05:18:31.000Z</time>
      </trkpt>
      <trkpt lat="44.71113" lon="5.11051">
        <ele>296.2</ele>
        <time>1970-01-01T05:18:32.000Z</time>
      </trkpt>
      <trkpt lat="44.71114" lon="5.11044">
        <ele>296.6</ele>
        <time>1970-01-01T05:18:33.000Z</time>
      </trkpt>
      <trkpt lat="44.71115" lon="5.11039">
        <ele>296.8</ele>
        <time>1970-01-01T05:18:34.000Z</time>
      </trkpt>
      <trkpt lat="44.71115" lon="5.11034">
        <ele>297.2</ele>
        <time>1970-01-01T05:18:35.000Z</time>
      </trkpt>
      <trkpt lat="44.71116" lon="5.11028">
        <ele>297.4</ele>
        <time>1970-01-01T05:18:36.000Z</time>
      </trkpt>
      <trkpt lat="44.71116" lon="5.11024">
        <ele>297.6</ele>
        <time>1970-01-01T05:18:37.000Z</time>
      </trkpt>
      <trkpt lat="44.71117" lon="5.11018">
        <ele>297.8</ele>
        <time>1970-01-01T05:18:38.000Z</time>
      </trkpt>
      <trkpt lat="44.71117" lon="5.11013">
        <ele>298</ele>
        <time>1970-01-01T05:18:39.000Z</time>
      </trkpt>
      <trkpt lat="44.71118" lon="5.11008">
        <ele>298.4</ele>
        <time>1970-01-01T05:18:40.000Z</time>
      </trkpt>
      <trkpt lat="44.71118" lon="5.11004">
        <ele>298.4</ele>
        <time>1970-01-01T05:18:41.000Z</time>
      </trkpt>
      <trkpt lat="44.71119" lon="5.10999">
        <ele>298.6</ele>
        <time>1970-01-01T05:18:42.000Z</time>
      </trkpt>
      <trkpt lat="44.71119" lon="5.10994">
        <ele>299</ele>
        <time>1970-01-01T05:18:43.000Z</time>
      </trkpt>
      <trkpt lat="44.7112" lon="5.10988">
        <ele>299.2</ele>
        <time>1970-01-01T05:18:44.000Z</time>
      </trkpt>
      <trkpt lat="44.71121" lon="5.10984">
        <ele>299.4</ele>
        <time>1970-01-01T05:18:45.000Z</time>
      </trkpt>
      <trkpt lat="44.71122" lon="5.1098">
        <ele>299.6</ele>
        <time>1970-01-01T05:18:46.000Z</time>
      </trkpt>
      <trkpt lat="44.71122" lon="5.10974">
        <ele>300</ele>
        <time>1970-01-01T05:18:47.000Z</time>
      </trkpt>
      <trkpt lat="44.71123" lon="5.10972">
        <ele>300.4</ele>
        <time>1970-01-01T05:18:48.000Z</time>
      </trkpt>
      <trkpt lat="44.71124" lon="5.10969">
        <ele>300.8</ele>
        <time>1970-01-01T05:18:49.000Z</time>
      </trkpt>
      <trkpt lat="44.71124" lon="5.10966">
        <ele>301.2</ele>
        <time>1970-01-01T05:18:50.000Z</time>
      </trkpt>
      <trkpt lat="44.71124" lon="5.10965">
        <ele>301.4</ele>
        <time>1970-01-01T05:18:53.000Z</time>
      </trkpt>
      <trkpt lat="44.71125" lon="5.10962">
        <ele>301</ele>
        <time>1970-01-01T05:20:35.000Z</time>
      </trkpt>
      <trkpt lat="44.71127" lon="5.10958">
        <ele>301</ele>
        <time>1970-01-01T05:20:36.000Z</time>
      </trkpt>
      <trkpt lat="44.71129" lon="5.10955">
        <ele>301</ele>
        <time>1970-01-01T05:20:37.000Z</time>
      </trkpt>
      <trkpt lat="44.71131" lon="5.1095">
        <ele>301.2</ele>
        <time>1970-01-01T05:20:38.000Z</time>
      </trkpt>
      <trkpt lat="44.71131" lon="5.10945">
        <ele>301.4</ele>
        <time>1970-01-01T05:20:39.000Z</time>
      </trkpt>
      <trkpt lat="44.71131" lon="5.1094">
        <ele>302</ele>
        <time>1970-01-01T05:20:40.000Z</time>
      </trkpt>
      <trkpt lat="44.71132" lon="5.10936">
        <ele>302.4</ele>
        <time>1970-01-01T05:20:41.000Z</time>
      </trkpt>
      <trkpt lat="44.71132" lon="5.10931">
        <ele>302.8</ele>
        <time>1970-01-01T05:20:42.000Z</time>
      </trkpt>
      <trkpt lat="44.71132" lon="5.10927">
        <ele>303</ele>
        <time>1970-01-01T05:20:43.000Z</time>
      </trkpt>
      <trkpt lat="44.71133" lon="5.10922">
        <ele>303</ele>
        <time>1970-01-01T05:20:44.000Z</time>
      </trkpt>
      <trkpt lat="44.71134" lon="5.10914">
        <ele>303.6</ele>
        <time>1970-01-01T05:20:46.000Z</time>
      </trkpt>
      <trkpt lat="44.71135" lon="5.1091">
        <ele>303.8</ele>
        <time>1970-01-01T05:20:47.000Z</time>
      </trkpt>
      <trkpt lat="44.71137" lon="5.10904">
        <ele>304.2</ele>
        <time>1970-01-01T05:20:49.000Z</time>
      </trkpt>
      <trkpt lat="44.71138" lon="5.10901">
        <ele>304.4</ele>
        <time>1970-01-01T05:20:50.000Z</time>
      </trkpt>
      <trkpt lat="44.71139" lon="5.10897">
        <ele>304.6</ele>
        <time>1970-01-01T05:20:51.000Z</time>
      </trkpt>
      <trkpt lat="44.71141" lon="5.10893">
        <ele>304.8</ele>
        <time>1970-01-01T05:20:52.000Z</time>
      </trkpt>
      <trkpt lat="44.71144" lon="5.10888">
        <ele>305</ele>
        <time>1970-01-01T05:20:53.000Z</time>
      </trkpt>
      <trkpt lat="44.71145" lon="5.10883">
        <ele>305.6</ele>
        <time>1970-01-01T05:20:54.000Z</time>
      </trkpt>
      <trkpt lat="44.71147" lon="5.10878">
        <ele>306.2</ele>
        <time>1970-01-01T05:20:55.000Z</time>
      </trkpt>
      <trkpt lat="44.71148" lon="5.10873">
        <ele>306.6</ele>
        <time>1970-01-01T05:20:56.000Z</time>
      </trkpt>
      <trkpt lat="44.71151" lon="5.10867">
        <ele>306.8</ele>
        <time>1970-01-01T05:20:57.000Z</time>
      </trkpt>
      <trkpt lat="44.71152" lon="5.10864">
        <ele>307.2</ele>
        <time>1970-01-01T05:20:58.000Z</time>
      </trkpt>
      <trkpt lat="44.71153" lon="5.1086">
        <ele>307.8</ele>
        <time>1970-01-01T05:20:59.000Z</time>
      </trkpt>
      <trkpt lat="44.71154" lon="5.10855">
        <ele>308.2</ele>
        <time>1970-01-01T05:21:00.000Z</time>
      </trkpt>
      <trkpt lat="44.71154" lon="5.10851">
        <ele>308.6</ele>
        <time>1970-01-01T05:21:01.000Z</time>
      </trkpt>
      <trkpt lat="44.71155" lon="5.10847">
        <ele>308.8</ele>
        <time>1970-01-01T05:21:02.000Z</time>
      </trkpt>
      <trkpt lat="44.71156" lon="5.10844">
        <ele>309</ele>
        <time>1970-01-01T05:21:03.000Z</time>
      </trkpt>
      <trkpt lat="44.71158" lon="5.10842">
        <ele>309.2</ele>
        <time>1970-01-01T05:21:04.000Z</time>
      </trkpt>
      <trkpt lat="44.7116" lon="5.1084">
        <ele>309.2</ele>
        <time>1970-01-01T05:21:05.000Z</time>
      </trkpt>
      <trkpt lat="44.71161" lon="5.10839">
        <ele>309.4</ele>
        <time>1970-01-01T05:21:06.000Z</time>
      </trkpt>
      <trkpt lat="44.71164" lon="5.1084">
        <ele>309.6</ele>
        <time>1970-01-01T05:21:07.000Z</time>
      </trkpt>
      <trkpt lat="44.71166" lon="5.10842">
        <ele>309.8</ele>
        <time>1970-01-01T05:21:08.000Z</time>
      </trkpt>
      <trkpt lat="44.71167" lon="5.10846">
        <ele>310.2</ele>
        <time>1970-01-01T05:21:09.000Z</time>
      </trkpt>
      <trkpt lat="44.71166" lon="5.10849">
        <ele>310.6</ele>
        <time>1970-01-01T05:21:10.000Z</time>
      </trkpt>
      <trkpt lat="44.71166" lon="5.10852">
        <ele>310.8</ele>
        <time>1970-01-01T05:21:11.000Z</time>
      </trkpt>
      <trkpt lat="44.71166" lon="5.10855">
        <ele>311</ele>
        <time>1970-01-01T05:21:12.000Z</time>
      </trkpt>
      <trkpt lat="44.71165" lon="5.10858">
        <ele>311.2</ele>
        <time>1970-01-01T05:21:13.000Z</time>
      </trkpt>
      <trkpt lat="44.71165" lon="5.10861">
        <ele>311.6</ele>
        <time>1970-01-01T05:21:14.000Z</time>
      </trkpt>
      <trkpt lat="44.71164" lon="5.10864">
        <ele>311.8</ele>
        <time>1970-01-01T05:21:15.000Z</time>
      </trkpt>
      <trkpt lat="44.71163" lon="5.10868">
        <ele>311.8</ele>
        <time>1970-01-01T05:21:16.000Z</time>
      </trkpt>
      <trkpt lat="44.71162" lon="5.10872">
        <ele>312</ele>
        <time>1970-01-01T05:21:17.000Z</time>
      </trkpt>
      <trkpt lat="44.71162" lon="5.10877">
        <ele>312.2</ele>
        <time>1970-01-01T05:21:18.000Z</time>
      </trkpt>
      <trkpt lat="44.71161" lon="5.10881">
        <ele>312.4</ele>
        <time>1970-01-01T05:21:19.000Z</time>
      </trkpt>
      <trkpt lat="44.71161" lon="5.10886">
        <ele>312.8</ele>
        <time>1970-01-01T05:21:20.000Z</time>
      </trkpt>
      <trkpt lat="44.7116" lon="5.10891">
        <ele>313.2</ele>
        <time>1970-01-01T05:21:21.000Z</time>
      </trkpt>
      <trkpt lat="44.7116" lon="5.10895">
        <ele>313.4</ele>
        <time>1970-01-01T05:21:22.000Z</time>
      </trkpt>
      <trkpt lat="44.7116" lon="5.10898">
        <ele>313.6</ele>
        <time>1970-01-01T05:21:23.000Z</time>
      </trkpt>
      <trkpt lat="44.7116" lon="5.10901">
        <ele>313.6</ele>
        <time>1970-01-01T05:21:24.000Z</time>
      </trkpt>
      <trkpt lat="44.7116" lon="5.10904">
        <ele>313.8</ele>
        <time>1970-01-01T05:21:25.000Z</time>
      </trkpt>
      <trkpt lat="44.7116" lon="5.10907">
        <ele>314</ele>
        <time>1970-01-01T05:21:26.000Z</time>
      </trkpt>
      <trkpt lat="44.71159" lon="5.1091">
        <ele>314.2</ele>
        <time>1970-01-01T05:21:27.000Z</time>
      </trkpt>
      <trkpt lat="44.71159" lon="5.10913">
        <ele>314.2</ele>
        <time>1970-01-01T05:21:28.000Z</time>
      </trkpt>
      <trkpt lat="44.7116" lon="5.10916">
        <ele>314.4</ele>
        <time>1970-01-01T05:21:29.000Z</time>
      </trkpt>
      <trkpt lat="44.7116" lon="5.10918">
        <ele>314.6</ele>
        <time>1970-01-01T05:21:30.000Z</time>
      </trkpt>
      <trkpt lat="44.7116" lon="5.10922">
        <ele>314.6</ele>
        <time>1970-01-01T05:21:31.000Z</time>
      </trkpt>
      <trkpt lat="44.71161" lon="5.10925">
        <ele>314.8</ele>
        <time>1970-01-01T05:21:32.000Z</time>
      </trkpt>
      <trkpt lat="44.7116" lon="5.10929">
        <ele>315</ele>
        <time>1970-01-01T05:21:33.000Z</time>
      </trkpt>
      <trkpt lat="44.7116" lon="5.10933">
        <ele>315.4</ele>
        <time>1970-01-01T05:21:34.000Z</time>
      </trkpt>
      <trkpt lat="44.71161" lon="5.10937">
        <ele>315.6</ele>
        <time>1970-01-01T05:21:35.000Z</time>
      </trkpt>
      <trkpt lat="44.71162" lon="5.1094">
        <ele>315.8</ele>
        <time>1970-01-01T05:21:36.000Z</time>
      </trkpt>
      <trkpt lat="44.71164" lon="5.1094">
        <ele>316</ele>
        <time>1970-01-01T05:21:37.000Z</time>
      </trkpt>
      <trkpt lat="44.71165" lon="5.10939">
        <ele>316.4</ele>
        <time>1970-01-01T05:21:38.000Z</time>
      </trkpt>
      <trkpt lat="44.71166" lon="5.10937">
        <ele>316.6</ele>
        <time>1970-01-01T05:21:39.000Z</time>
      </trkpt>
      <trkpt lat="44.71167" lon="5.10935">
        <ele>316.8</ele>
        <time>1970-01-01T05:21:40.000Z</time>
      </trkpt>
      <trkpt lat="44.71167" lon="5.10933">
        <ele>317</ele>
        <time>1970-01-01T05:21:41.000Z</time>
      </trkpt>
      <trkpt lat="44.71168" lon="5.1093">
        <ele>317.4</ele>
        <time>1970-01-01T05:21:42.000Z</time>
      </trkpt>
      <trkpt lat="44.71168" lon="5.10927">
        <ele>317.6</ele>
        <time>1970-01-01T05:21:43.000Z</time>
      </trkpt>
      <trkpt lat="44.71169" lon="5.10925">
        <ele>317.8</ele>
        <time>1970-01-01T05:21:44.000Z</time>
      </trkpt>
      <trkpt lat="44.71169" lon="5.10922">
        <ele>318</ele>
        <time>1970-01-01T05:21:45.000Z</time>
      </trkpt>
      <trkpt lat="44.71169" lon="5.10919">
        <ele>318</ele>
        <time>1970-01-01T05:21:46.000Z</time>
      </trkpt>
      <trkpt lat="44.71169" lon="5.10915">
        <ele>318.2</ele>
        <time>1970-01-01T05:21:47.000Z</time>
      </trkpt>
      <trkpt lat="44.71169" lon="5.10912">
        <ele>318.4</ele>
        <time>1970-01-01T05:21:48.000Z</time>
      </trkpt>
      <trkpt lat="44.7117" lon="5.1091">
        <ele>318.6</ele>
        <time>1970-01-01T05:21:49.000Z</time>
      </trkpt>
      <trkpt lat="44.7117" lon="5.10907">
        <ele>318.8</ele>
        <time>1970-01-01T05:21:50.000Z</time>
      </trkpt>
      <trkpt lat="44.7117" lon="5.10904">
        <ele>319</ele>
        <time>1970-01-01T05:21:51.000Z</time>
      </trkpt>
      <trkpt lat="44.71171" lon="5.10901">
        <ele>319.2</ele>
        <time>1970-01-01T05:21:52.000Z</time>
      </trkpt>
      <trkpt lat="44.71171" lon="5.10898">
        <ele>319.4</ele>
        <time>1970-01-01T05:21:53.000Z</time>
      </trkpt>
      <trkpt lat="44.71172" lon="5.10895">
        <ele>319.6</ele>
        <time>1970-01-01T05:21:54.000Z</time>
      </trkpt>
      <trkpt lat="44.71173" lon="5.10892">
        <ele>319.8</ele>
        <time>1970-01-01T05:21:55.000Z</time>
      </trkpt>
      <trkpt lat="44.71174" lon="5.10888">
        <ele>320</ele>
        <time>1970-01-01T05:21:56.000Z</time>
      </trkpt>
      <trkpt lat="44.71175" lon="5.10885">
        <ele>320.2</ele>
        <time>1970-01-01T05:21:57.000Z</time>
      </trkpt>
      <trkpt lat="44.71176" lon="5.10882">
        <ele>320.4</ele>
        <time>1970-01-01T05:21:58.000Z</time>
      </trkpt>
      <trkpt lat="44.71177" lon="5.10879">
        <ele>320.6</ele>
        <time>1970-01-01T05:21:59.000Z</time>
      </trkpt>
      <trkpt lat="44.71178" lon="5.10875">
        <ele>320.8</ele>
        <time>1970-01-01T05:22:00.000Z</time>
      </trkpt>
      <trkpt lat="44.71179" lon="5.10872">
        <ele>320.8</ele>
        <time>1970-01-01T05:22:01.000Z</time>
      </trkpt>
      <trkpt lat="44.71181" lon="5.10869">
        <ele>321</ele>
        <time>1970-01-01T05:22:02.000Z</time>
      </trkpt>
      <trkpt lat="44.71182" lon="5.10866">
        <ele>321.2</ele>
        <time>1970-01-01T05:22:03.000Z</time>
      </trkpt>
      <trkpt lat="44.71183" lon="5.10862">
        <ele>321.4</ele>
        <time>1970-01-01T05:22:04.000Z</time>
      </trkpt>
      <trkpt lat="44.71185" lon="5.10859">
        <ele>321.6</ele>
        <time>1970-01-01T05:22:05.000Z</time>
      </trkpt>
      <trkpt lat="44.71187" lon="5.10856">
        <ele>321.8</ele>
        <time>1970-01-01T05:22:06.000Z</time>
      </trkpt>
      <trkpt lat="44.71189" lon="5.10853">
        <ele>322.2</ele>
        <time>1970-01-01T05:22:07.000Z</time>
      </trkpt>
      <trkpt lat="44.7119" lon="5.1085">
        <ele>322.6</ele>
        <time>1970-01-01T05:22:08.000Z</time>
      </trkpt>
      <trkpt lat="44.71192" lon="5.10848">
        <ele>322.8</ele>
        <time>1970-01-01T05:22:09.000Z</time>
      </trkpt>
      <trkpt lat="44.71194" lon="5.10844">
        <ele>322.8</ele>
        <time>1970-01-01T05:22:10.000Z</time>
      </trkpt>
      <trkpt lat="44.71196" lon="5.10841">
        <ele>323</ele>
        <time>1970-01-01T05:22:11.000Z</time>
      </trkpt>
      <trkpt lat="44.71198" lon="5.10838">
        <ele>323.2</ele>
        <time>1970-01-01T05:22:12.000Z</time>
      </trkpt>
      <trkpt lat="44.712" lon="5.10835">
        <ele>323.2</ele>
        <time>1970-01-01T05:22:13.000Z</time>
      </trkpt>
      <trkpt lat="44.71202" lon="5.10832">
        <ele>323.4</ele>
        <time>1970-01-01T05:22:14.000Z</time>
      </trkpt>
      <trkpt lat="44.71205" lon="5.10828">
        <ele>323.6</ele>
        <time>1970-01-01T05:22:15.000Z</time>
      </trkpt>
      <trkpt lat="44.71207" lon="5.10825">
        <ele>324</ele>
        <time>1970-01-01T05:22:16.000Z</time>
      </trkpt>
      <trkpt lat="44.71209" lon="5.10822">
        <ele>324.2</ele>
        <time>1970-01-01T05:22:17.000Z</time>
      </trkpt>
      <trkpt lat="44.7121" lon="5.1082">
        <ele>324.6</ele>
        <time>1970-01-01T05:22:18.000Z</time>
      </trkpt>
      <trkpt lat="44.71212" lon="5.10816">
        <ele>324.8</ele>
        <time>1970-01-01T05:22:19.000Z</time>
      </trkpt>
      <trkpt lat="44.71215" lon="5.10814">
        <ele>324.8</ele>
        <time>1970-01-01T05:22:20.000Z</time>
      </trkpt>
      <trkpt lat="44.71217" lon="5.10811">
        <ele>325</ele>
        <time>1970-01-01T05:22:21.000Z</time>
      </trkpt>
      <trkpt lat="44.7122" lon="5.10809">
        <ele>325.2</ele>
        <time>1970-01-01T05:22:22.000Z</time>
      </trkpt>
      <trkpt lat="44.71222" lon="5.10806">
        <ele>325.4</ele>
        <time>1970-01-01T05:22:23.000Z</time>
      </trkpt>
      <trkpt lat="44.71225" lon="5.10804">
        <ele>325.6</ele>
        <time>1970-01-01T05:22:24.000Z</time>
      </trkpt>
      <trkpt lat="44.71227" lon="5.10802">
        <ele>325.8</ele>
        <time>1970-01-01T05:22:25.000Z</time>
      </trkpt>
      <trkpt lat="44.71231" lon="5.108">
        <ele>325.8</ele>
        <time>1970-01-01T05:22:26.000Z</time>
      </trkpt>
      <trkpt lat="44.71233" lon="5.10799">
        <ele>326</ele>
        <time>1970-01-01T05:22:27.000Z</time>
      </trkpt>
      <trkpt lat="44.71237" lon="5.10798">
        <ele>326.2</ele>
        <time>1970-01-01T05:22:28.000Z</time>
      </trkpt>
      <trkpt lat="44.71239" lon="5.10797">
        <ele>326.6</ele>
        <time>1970-01-01T05:22:29.000Z</time>
      </trkpt>
      <trkpt lat="44.71243" lon="5.10796">
        <ele>326.8</ele>
        <time>1970-01-01T05:22:30.000Z</time>
      </trkpt>
      <trkpt lat="44.71246" lon="5.10795">
        <ele>327</ele>
        <time>1970-01-01T05:22:31.000Z</time>
      </trkpt>
      <trkpt lat="44.71249" lon="5.10795">
        <ele>327.4</ele>
        <time>1970-01-01T05:22:32.000Z</time>
      </trkpt>
      <trkpt lat="44.71252" lon="5.10795">
        <ele>327.8</ele>
        <time>1970-01-01T05:22:33.000Z</time>
      </trkpt>
      <trkpt lat="44.71255" lon="5.10795">
        <ele>328</ele>
        <time>1970-01-01T05:22:34.000Z</time>
      </trkpt>
      <trkpt lat="44.71258" lon="5.10794">
        <ele>328.4</ele>
        <time>1970-01-01T05:22:35.000Z</time>
      </trkpt>
      <trkpt lat="44.71261" lon="5.10794">
        <ele>328.6</ele>
        <time>1970-01-01T05:22:36.000Z</time>
      </trkpt>
      <trkpt lat="44.71264" lon="5.10794">
        <ele>329.2</ele>
        <time>1970-01-01T05:22:37.000Z</time>
      </trkpt>
      <trkpt lat="44.71266" lon="5.10794">
        <ele>329.4</ele>
        <time>1970-01-01T05:22:38.000Z</time>
      </trkpt>
      <trkpt lat="44.71269" lon="5.10794">
        <ele>329.6</ele>
        <time>1970-01-01T05:22:39.000Z</time>
      </trkpt>
      <trkpt lat="44.71271" lon="5.10794">
        <ele>329.8</ele>
        <time>1970-01-01T05:22:40.000Z</time>
      </trkpt>
      <trkpt lat="44.71274" lon="5.10793">
        <ele>330.2</ele>
        <time>1970-01-01T05:22:41.000Z</time>
      </trkpt>
      <trkpt lat="44.71276" lon="5.10792">
        <ele>330.4</ele>
        <time>1970-01-01T05:22:42.000Z</time>
      </trkpt>
      <trkpt lat="44.71279" lon="5.10791">
        <ele>330.8</ele>
        <time>1970-01-01T05:22:43.000Z</time>
      </trkpt>
      <trkpt lat="44.71281" lon="5.1079">
        <ele>331</ele>
        <time>1970-01-01T05:22:44.000Z</time>
      </trkpt>
      <trkpt lat="44.71284" lon="5.10788">
        <ele>331.2</ele>
        <time>1970-01-01T05:22:45.000Z</time>
      </trkpt>
      <trkpt lat="44.71286" lon="5.10785">
        <ele>331.4</ele>
        <time>1970-01-01T05:22:46.000Z</time>
      </trkpt>
      <trkpt lat="44.71288" lon="5.10783">
        <ele>331.6</ele>
        <time>1970-01-01T05:22:47.000Z</time>
      </trkpt>
      <trkpt lat="44.71289" lon="5.1078">
        <ele>331.6</ele>
        <time>1970-01-01T05:22:48.000Z</time>
      </trkpt>
      <trkpt lat="44.71291" lon="5.10778">
        <ele>332</ele>
        <time>1970-01-01T05:22:49.000Z</time>
      </trkpt>
      <trkpt lat="44.71291" lon="5.10776">
        <ele>332.2</ele>
        <time>1970-01-01T05:22:50.000Z</time>
      </trkpt>
      <trkpt lat="44.71292" lon="5.10774">
        <ele>332.4</ele>
        <time>1970-01-01T05:22:51.000Z</time>
      </trkpt>
      <trkpt lat="44.71293" lon="5.10772">
        <ele>332.6</ele>
        <time>1970-01-01T05:22:52.000Z</time>
      </trkpt>
      <trkpt lat="44.71294" lon="5.10769">
        <ele>332.6</ele>
        <time>1970-01-01T05:22:53.000Z</time>
      </trkpt>
      <trkpt lat="44.71295" lon="5.10766">
        <ele>332.8</ele>
        <time>1970-01-01T05:22:54.000Z</time>
      </trkpt>
      <trkpt lat="44.71296" lon="5.10764">
        <ele>332.8</ele>
        <time>1970-01-01T05:22:55.000Z</time>
      </trkpt>
      <trkpt lat="44.71297" lon="5.10762">
        <ele>333</ele>
        <time>1970-01-01T05:22:56.000Z</time>
      </trkpt>
      <trkpt lat="44.71298" lon="5.10759">
        <ele>333</ele>
        <time>1970-01-01T05:22:57.000Z</time>
      </trkpt>
      <trkpt lat="44.71299" lon="5.10758">
        <ele>333.2</ele>
        <time>1970-01-01T05:22:58.000Z</time>
      </trkpt>
      <trkpt lat="44.71299" lon="5.10757">
        <ele>333.2</ele>
        <time>1970-01-01T05:23:00.000Z</time>
      </trkpt>
      <trkpt lat="44.713" lon="5.10754">
        <ele>333.2</ele>
        <time>1970-01-01T05:23:33.000Z</time>
      </trkpt>
      <trkpt lat="44.71302" lon="5.10751">
        <ele>333.4</ele>
        <time>1970-01-01T05:23:34.000Z</time>
      </trkpt>
      <trkpt lat="44.71303" lon="5.10748">
        <ele>333.4</ele>
        <time>1970-01-01T05:23:35.000Z</time>
      </trkpt>
      <trkpt lat="44.71305" lon="5.10745">
        <ele>333.6</ele>
        <time>1970-01-01T05:23:36.000Z</time>
      </trkpt>
      <trkpt lat="44.71306" lon="5.10742">
        <ele>333.6</ele>
        <time>1970-01-01T05:23:37.000Z</time>
      </trkpt>
      <trkpt lat="44.71307" lon="5.1074">
        <ele>333.6</ele>
        <time>1970-01-01T05:23:38.000Z</time>
      </trkpt>
      <trkpt lat="44.71309" lon="5.10735">
        <ele>333.8</ele>
        <time>1970-01-01T05:23:40.000Z</time>
      </trkpt>
      <trkpt lat="44.7131" lon="5.10733">
        <ele>333.8</ele>
        <time>1970-01-01T05:23:41.000Z</time>
      </trkpt>
      <trkpt lat="44.71312" lon="5.10734">
        <ele>333.8</ele>
        <time>1970-01-01T05:23:42.000Z</time>
      </trkpt>
      <trkpt lat="44.71313" lon="5.10735">
        <ele>333.8</ele>
        <time>1970-01-01T05:23:43.000Z</time>
      </trkpt>
      <trkpt lat="44.71313" lon="5.10737">
        <ele>333.8</ele>
        <time>1970-01-01T05:23:44.000Z</time>
      </trkpt>
      <trkpt lat="44.71311" lon="5.1074">
        <ele>334</ele>
        <time>1970-01-01T05:23:46.000Z</time>
      </trkpt>
      <trkpt lat="44.71309" lon="5.10742">
        <ele>334</ele>
        <time>1970-01-01T05:23:47.000Z</time>
      </trkpt>
      <trkpt lat="44.71309" lon="5.10743">
        <ele>334.2</ele>
        <time>1970-01-01T05:23:48.000Z</time>
      </trkpt>
      <trkpt lat="44.71309" lon="5.10743">
        <ele>334.2</ele>
        <time>1970-01-01T05:23:51.000Z</time>
      </trkpt>
      <trkpt lat="44.71308" lon="5.1074">
        <ele>334.2</ele>
        <time>1970-01-01T05:24:01.000Z</time>
      </trkpt>
      <trkpt lat="44.71309" lon="5.10734">
        <ele>334.2</ele>
        <time>1970-01-01T05:24:03.000Z</time>
      </trkpt>
      <trkpt lat="44.7131" lon="5.1073">
        <ele>334.2</ele>
        <time>1970-01-01T05:24:04.000Z</time>
      </trkpt>
      <trkpt lat="44.71313" lon="5.10712">
        <ele>333.2</ele>
        <time>1970-01-01T05:24:08.000Z</time>
      </trkpt>
      <trkpt lat="44.71314" lon="5.10708">
        <ele>333.2</ele>
        <time>1970-01-01T05:24:09.000Z</time>
      </trkpt>
      <trkpt lat="44.71315" lon="5.10703">
        <ele>333.2</ele>
        <time>1970-01-01T05:24:10.000Z</time>
      </trkpt>
      <trkpt lat="44.71316" lon="5.107">
        <ele>333.2</ele>
        <time>1970-01-01T05:24:11.000Z</time>
      </trkpt>
      <trkpt lat="44.71317" lon="5.10696">
        <ele>333.2</ele>
        <time>1970-01-01T05:24:12.000Z</time>
      </trkpt>
      <trkpt lat="44.71318" lon="5.10694">
        <ele>333.2</ele>
        <time>1970-01-01T05:24:13.000Z</time>
      </trkpt>
      <trkpt lat="44.71319" lon="5.10692">
        <ele>333.4</ele>
        <time>1970-01-01T05:24:14.000Z</time>
      </trkpt>
      <trkpt lat="44.71321" lon="5.1069">
        <ele>333.6</ele>
        <time>1970-01-01T05:24:15.000Z</time>
      </trkpt>
      <trkpt lat="44.71323" lon="5.10689">
        <ele>333.8</ele>
        <time>1970-01-01T05:24:16.000Z</time>
      </trkpt>
      <trkpt lat="44.71325" lon="5.10689">
        <ele>333.8</ele>
        <time>1970-01-01T05:24:17.000Z</time>
      </trkpt>
      <trkpt lat="44.71327" lon="5.10689">
        <ele>334.2</ele>
        <time>1970-01-01T05:24:18.000Z</time>
      </trkpt>
      <trkpt lat="44.71329" lon="5.10688">
        <ele>334.4</ele>
        <time>1970-01-01T05:24:19.000Z</time>
      </trkpt>
      <trkpt lat="44.71331" lon="5.10687">
        <ele>335</ele>
        <time>1970-01-01T05:24:21.000Z</time>
      </trkpt>
      <trkpt lat="44.71333" lon="5.10686">
        <ele>335.4</ele>
        <time>1970-01-01T05:24:22.000Z</time>
      </trkpt>
      <trkpt lat="44.71335" lon="5.10682">
        <ele>335.6</ele>
        <time>1970-01-01T05:24:24.000Z</time>
      </trkpt>
      <trkpt lat="44.71336" lon="5.1068">
        <ele>335.8</ele>
        <time>1970-01-01T05:24:25.000Z</time>
      </trkpt>
      <trkpt lat="44.71339" lon="5.10675">
        <ele>336.2</ele>
        <time>1970-01-01T05:24:27.000Z</time>
      </trkpt>
      <trkpt lat="44.7134" lon="5.10673">
        <ele>336.4</ele>
        <time>1970-01-01T05:24:28.000Z</time>
      </trkpt>
      <trkpt lat="44.71341" lon="5.1067">
        <ele>336.8</ele>
        <time>1970-01-01T05:24:29.000Z</time>
      </trkpt>
      <trkpt lat="44.71342" lon="5.10668">
        <ele>337</ele>
        <time>1970-01-01T05:24:30.000Z</time>
      </trkpt>
      <trkpt lat="44.71343" lon="5.10666">
        <ele>337.2</ele>
        <time>1970-01-01T05:24:31.000Z</time>
      </trkpt>
      <trkpt lat="44.71344" lon="5.10663">
        <ele>337.2</ele>
        <time>1970-01-01T05:24:32.000Z</time>
      </trkpt>
      <trkpt lat="44.71345" lon="5.1066">
        <ele>337.4</ele>
        <time>1970-01-01T05:24:33.000Z</time>
      </trkpt>
      <trkpt lat="44.71345" lon="5.10657">
        <ele>337.6</ele>
        <time>1970-01-01T05:24:34.000Z</time>
      </trkpt>
      <trkpt lat="44.71346" lon="5.10654">
        <ele>337.6</ele>
        <time>1970-01-01T05:24:35.000Z</time>
      </trkpt>
      <trkpt lat="44.71347" lon="5.10651">
        <ele>337.8</ele>
        <time>1970-01-01T05:24:36.000Z</time>
      </trkpt>
      <trkpt lat="44.71348" lon="5.10648">
        <ele>337.8</ele>
        <time>1970-01-01T05:24:37.000Z</time>
      </trkpt>
      <trkpt lat="44.71348" lon="5.10646">
        <ele>337.8</ele>
        <time>1970-01-01T05:24:38.000Z</time>
      </trkpt>
      <trkpt lat="44.71349" lon="5.10643">
        <ele>337.8</ele>
        <time>1970-01-01T05:24:39.000Z</time>
      </trkpt>
      <trkpt lat="44.7135" lon="5.10641">
        <ele>337.8</ele>
        <time>1970-01-01T05:24:40.000Z</time>
      </trkpt>
      <trkpt lat="44.71351" lon="5.10639">
        <ele>337.8</ele>
        <time>1970-01-01T05:24:41.000Z</time>
      </trkpt>
      <trkpt lat="44.71352" lon="5.10636">
        <ele>338</ele>
        <time>1970-01-01T05:24:42.000Z</time>
      </trkpt>
      <trkpt lat="44.71353" lon="5.10634">
        <ele>338</ele>
        <time>1970-01-01T05:24:43.000Z</time>
      </trkpt>
      <trkpt lat="44.71353" lon="5.10632">
        <ele>338.2</ele>
        <time>1970-01-01T05:24:44.000Z</time>
      </trkpt>
      <trkpt lat="44.71354" lon="5.1063">
        <ele>338.2</ele>
        <time>1970-01-01T05:24:45.000Z</time>
      </trkpt>
      <trkpt lat="44.71354" lon="5.10628">
        <ele>338.2</ele>
        <time>1970-01-01T05:24:46.000Z</time>
      </trkpt>
      <trkpt lat="44.71354" lon="5.10626">
        <ele>338.2</ele>
        <time>1970-01-01T05:24:47.000Z</time>
      </trkpt>
      <trkpt lat="44.71353" lon="5.10624">
        <ele>338.2</ele>
        <time>1970-01-01T05:24:48.000Z</time>
      </trkpt>
      <trkpt lat="44.71353" lon="5.10622">
        <ele>338.2</ele>
        <time>1970-01-01T05:24:49.000Z</time>
      </trkpt>
      <trkpt lat="44.71353" lon="5.10619">
        <ele>338.2</ele>
        <time>1970-01-01T05:24:50.000Z</time>
      </trkpt>
      <trkpt lat="44.71352" lon="5.10616">
        <ele>338</ele>
        <time>1970-01-01T05:24:51.000Z</time>
      </trkpt>
      <trkpt lat="44.71353" lon="5.10613">
        <ele>337.8</ele>
        <time>1970-01-01T05:24:52.000Z</time>
      </trkpt>
      <trkpt lat="44.71353" lon="5.1061">
        <ele>337.8</ele>
        <time>1970-01-01T05:24:53.000Z</time>
      </trkpt>
      <trkpt lat="44.71354" lon="5.10608">
        <ele>337.8</ele>
        <time>1970-01-01T05:24:54.000Z</time>
      </trkpt>
      <trkpt lat="44.71354" lon="5.10606">
        <ele>337.6</ele>
        <time>1970-01-01T05:24:55.000Z</time>
      </trkpt>
      <trkpt lat="44.71355" lon="5.10604">
        <ele>337.6</ele>
        <time>1970-01-01T05:24:56.000Z</time>
      </trkpt>
      <trkpt lat="44.71356" lon="5.10603">
        <ele>337.8</ele>
        <time>1970-01-01T05:24:57.000Z</time>
      </trkpt>
      <trkpt lat="44.71357" lon="5.10602">
        <ele>337.8</ele>
        <time>1970-01-01T05:24:58.000Z</time>
      </trkpt>
      <trkpt lat="44.71358" lon="5.106">
        <ele>337.8</ele>
        <time>1970-01-01T05:24:59.000Z</time>
      </trkpt>
      <trkpt lat="44.71359" lon="5.10597">
        <ele>337.8</ele>
        <time>1970-01-01T05:25:00.000Z</time>
      </trkpt>
      <trkpt lat="44.7136" lon="5.10595">
        <ele>337.8</ele>
        <time>1970-01-01T05:25:01.000Z</time>
      </trkpt>
      <trkpt lat="44.71359" lon="5.10592">
        <ele>337.8</ele>
        <time>1970-01-01T05:25:02.000Z</time>
      </trkpt>
      <trkpt lat="44.7136" lon="5.1059">
        <ele>337.6</ele>
        <time>1970-01-01T05:25:03.000Z</time>
      </trkpt>
      <trkpt lat="44.7136" lon="5.10587">
        <ele>337.6</ele>
        <time>1970-01-01T05:25:04.000Z</time>
      </trkpt>
      <trkpt lat="44.7136" lon="5.10584">
        <ele>337.4</ele>
        <time>1970-01-01T05:25:05.000Z</time>
      </trkpt>
      <trkpt lat="44.71361" lon="5.10574">
        <ele>336.8</ele>
        <time>1970-01-01T05:25:08.000Z</time>
      </trkpt>
      <trkpt lat="44.71363" lon="5.10571">
        <ele>336.4</ele>
        <time>1970-01-01T05:25:09.000Z</time>
      </trkpt>
      <trkpt lat="44.71364" lon="5.10569">
        <ele>336.2</ele>
        <time>1970-01-01T05:25:10.000Z</time>
      </trkpt>
      <trkpt lat="44.71365" lon="5.10567">
        <ele>335.8</ele>
        <time>1970-01-01T05:25:12.000Z</time>
      </trkpt>
      <trkpt lat="44.71375" lon="5.10566">
        <ele>334.8</ele>
        <time>1970-01-01T05:25:27.000Z</time>
      </trkpt>
      <trkpt lat="44.71381" lon="5.1057">
        <ele>334.4</ele>
        <time>1970-01-01T05:25:29.000Z</time>
      </trkpt>
      <trkpt lat="44.71384" lon="5.1057">
        <ele>334.2</ele>
        <time>1970-01-01T05:25:30.000Z</time>
      </trkpt>
      <trkpt lat="44.71385" lon="5.10568">
        <ele>334.2</ele>
        <time>1970-01-01T05:25:31.000Z</time>
      </trkpt>
      <trkpt lat="44.71385" lon="5.10565">
        <ele>333.4</ele>
        <time>1970-01-01T05:25:32.000Z</time>
      </trkpt>
      <trkpt lat="44.71375" lon="5.10556">
        <ele>332.2</ele>
        <time>1970-01-01T05:25:35.000Z</time>
      </trkpt>
      <trkpt lat="44.71373" lon="5.10553">
        <ele>332</ele>
        <time>1970-01-01T05:25:36.000Z</time>
      </trkpt>
      <trkpt lat="44.71372" lon="5.1055">
        <ele>331.4</ele>
        <time>1970-01-01T05:25:37.000Z</time>
      </trkpt>
      <trkpt lat="44.71373" lon="5.10546">
        <ele>331</ele>
        <time>1970-01-01T05:25:38.000Z</time>
      </trkpt>
      <trkpt lat="44.71374" lon="5.10543">
        <ele>330.8</ele>
        <time>1970-01-01T05:25:39.000Z</time>
      </trkpt>
      <trkpt lat="44.71373" lon="5.1054">
        <ele>329.4</ele>
        <time>1970-01-01T05:25:40.000Z</time>
      </trkpt>
      <trkpt lat="44.71371" lon="5.10536">
        <ele>328.2</ele>
        <time>1970-01-01T05:25:41.000Z</time>
      </trkpt>
      <trkpt lat="44.71363" lon="5.10529">
        <ele>327</ele>
        <time>1970-01-01T05:25:43.000Z</time>
      </trkpt>
      <trkpt lat="44.71361" lon="5.10523">
        <ele>326.6</ele>
        <time>1970-01-01T05:25:44.000Z</time>
      </trkpt>
      <trkpt lat="44.71358" lon="5.10515">
        <ele>326</ele>
        <time>1970-01-01T05:25:45.000Z</time>
      </trkpt>
      <trkpt lat="44.71354" lon="5.10503">
        <ele>325.6</ele>
        <time>1970-01-01T05:25:46.000Z</time>
      </trkpt>
      <trkpt lat="44.71351" lon="5.10494">
        <ele>323.6</ele>
        <time>1970-01-01T05:25:47.000Z</time>
      </trkpt>
      <trkpt lat="44.71345" lon="5.10479">
        <ele>320.8</ele>
        <time>1970-01-01T05:25:48.000Z</time>
      </trkpt>
      <trkpt lat="44.71341" lon="5.10469">
        <ele>319</ele>
        <time>1970-01-01T05:25:49.000Z</time>
      </trkpt>
      <trkpt lat="44.71337" lon="5.10456">
        <ele>317.2</ele>
        <time>1970-01-01T05:25:50.000Z</time>
      </trkpt>
      <trkpt lat="44.71335" lon="5.10441">
        <ele>315.6</ele>
        <time>1970-01-01T05:25:51.000Z</time>
      </trkpt>
      <trkpt lat="44.71334" lon="5.10424">
        <ele>314.6</ele>
        <time>1970-01-01T05:25:52.000Z</time>
      </trkpt>
      <trkpt lat="44.71333" lon="5.10408">
        <ele>313.4</ele>
        <time>1970-01-01T05:25:53.000Z</time>
      </trkpt>
      <trkpt lat="44.7133" lon="5.10381">
        <ele>312</ele>
        <time>1970-01-01T05:25:55.000Z</time>
      </trkpt>
      <trkpt lat="44.71328" lon="5.10363">
        <ele>311.8</ele>
        <time>1970-01-01T05:25:56.000Z</time>
      </trkpt>
      <trkpt lat="44.71326" lon="5.10332">
        <ele>311.4</ele>
        <time>1970-01-01T05:25:58.000Z</time>
      </trkpt>
      <trkpt lat="44.71326" lon="5.1032">
        <ele>311</ele>
        <time>1970-01-01T05:25:59.000Z</time>
      </trkpt>
      <trkpt lat="44.71326" lon="5.10306">
        <ele>310.8</ele>
        <time>1970-01-01T05:26:00.000Z</time>
      </trkpt>
      <trkpt lat="44.71326" lon="5.10291">
        <ele>310</ele>
        <time>1970-01-01T05:26:01.000Z</time>
      </trkpt>
      <trkpt lat="44.71327" lon="5.10275">
        <ele>309.6</ele>
        <time>1970-01-01T05:26:02.000Z</time>
      </trkpt>
      <trkpt lat="44.71329" lon="5.10263">
        <ele>309.2</ele>
        <time>1970-01-01T05:26:03.000Z</time>
      </trkpt>
      <trkpt lat="44.7133" lon="5.10255">
        <ele>309</ele>
        <time>1970-01-01T05:26:04.000Z</time>
      </trkpt>
      <trkpt lat="44.71332" lon="5.10247">
        <ele>308.8</ele>
        <time>1970-01-01T05:26:05.000Z</time>
      </trkpt>
      <trkpt lat="44.71333" lon="5.10239">
        <ele>308.4</ele>
        <time>1970-01-01T05:26:06.000Z</time>
      </trkpt>
      <trkpt lat="44.71334" lon="5.10234">
        <ele>307.8</ele>
        <time>1970-01-01T05:26:07.000Z</time>
      </trkpt>
      <trkpt lat="44.71335" lon="5.1023">
        <ele>307.4</ele>
        <time>1970-01-01T05:26:08.000Z</time>
      </trkpt>
      <trkpt lat="44.71337" lon="5.1023">
        <ele>307</ele>
        <time>1970-01-01T05:26:09.000Z</time>
      </trkpt>
      <trkpt lat="44.71338" lon="5.1023">
        <ele>306.4</ele>
        <time>1970-01-01T05:26:11.000Z</time>
      </trkpt>
      <trkpt lat="44.71333" lon="5.10229">
        <ele>306.6</ele>
        <time>1970-01-01T05:26:25.000Z</time>
      </trkpt>
      <trkpt lat="44.71331" lon="5.10227">
        <ele>306.8</ele>
        <time>1970-01-01T05:26:26.000Z</time>
      </trkpt>
      <trkpt lat="44.71317" lon="5.10218">
        <ele>306.6</ele>
        <time>1970-01-01T05:26:33.000Z</time>
      </trkpt>
      <trkpt lat="44.71314" lon="5.10215">
        <ele>306.6</ele>
        <time>1970-01-01T05:26:37.000Z</time>
      </trkpt>
      <trkpt lat="44.71312" lon="5.10211">
        <ele>306.6</ele>
        <time>1970-01-01T05:26:40.000Z</time>
      </trkpt>
      <trkpt lat="44.71309" lon="5.10201">
        <ele>306.2</ele>
        <time>1970-01-01T05:26:42.000Z</time>
      </trkpt>
      <trkpt lat="44.71307" lon="5.10195">
        <ele>305.8</ele>
        <time>1970-01-01T05:26:43.000Z</time>
      </trkpt>
      <trkpt lat="44.71301" lon="5.10177">
        <ele>304.2</ele>
        <time>1970-01-01T05:26:45.000Z</time>
      </trkpt>
      <trkpt lat="44.71299" lon="5.10166">
        <ele>303.4</ele>
        <time>1970-01-01T05:26:46.000Z</time>
      </trkpt>
      <trkpt lat="44.71297" lon="5.10153">
        <ele>302.4</ele>
        <time>1970-01-01T05:26:47.000Z</time>
      </trkpt>
      <trkpt lat="44.71296" lon="5.1014">
        <ele>300.8</ele>
        <time>1970-01-01T05:26:48.000Z</time>
      </trkpt>
      <trkpt lat="44.71298" lon="5.10126">
        <ele>298.8</ele>
        <time>1970-01-01T05:26:49.000Z</time>
      </trkpt>
      <trkpt lat="44.71301" lon="5.10111">
        <ele>296.6</ele>
        <time>1970-01-01T05:26:50.000Z</time>
      </trkpt>
      <trkpt lat="44.71305" lon="5.10095">
        <ele>295.4</ele>
        <time>1970-01-01T05:26:51.000Z</time>
      </trkpt>
      <trkpt lat="44.71309" lon="5.10078">
        <ele>293</ele>
        <time>1970-01-01T05:26:52.000Z</time>
      </trkpt>
      <trkpt lat="44.71313" lon="5.1006">
        <ele>289.6</ele>
        <time>1970-01-01T05:26:53.000Z</time>
      </trkpt>
      <trkpt lat="44.71315" lon="5.10041">
        <ele>288</ele>
        <time>1970-01-01T05:26:54.000Z</time>
      </trkpt>
      <trkpt lat="44.71317" lon="5.10026">
        <ele>285.8</ele>
        <time>1970-01-01T05:26:55.000Z</time>
      </trkpt>
      <trkpt lat="44.7132" lon="5.10003">
        <ele>284.2</ele>
        <time>1970-01-01T05:26:56.000Z</time>
      </trkpt>
      <trkpt lat="44.71323" lon="5.09983">
        <ele>282.4</ele>
        <time>1970-01-01T05:26:57.000Z</time>
      </trkpt>
      <trkpt lat="44.71326" lon="5.09963">
        <ele>279.8</ele>
        <time>1970-01-01T05:26:58.000Z</time>
      </trkpt>
      <trkpt lat="44.71329" lon="5.09944">
        <ele>276.8</ele>
        <time>1970-01-01T05:26:59.000Z</time>
      </trkpt>
      <trkpt lat="44.71332" lon="5.09924">
        <ele>274.4</ele>
        <time>1970-01-01T05:27:00.000Z</time>
      </trkpt>
      <trkpt lat="44.71334" lon="5.09905">
        <ele>273.2</ele>
        <time>1970-01-01T05:27:01.000Z</time>
      </trkpt>
      <trkpt lat="44.71334" lon="5.09887">
        <ele>272.6</ele>
        <time>1970-01-01T05:27:02.000Z</time>
      </trkpt>
      <trkpt lat="44.71333" lon="5.09869">
        <ele>272.2</ele>
        <time>1970-01-01T05:27:03.000Z</time>
      </trkpt>
      <trkpt lat="44.71331" lon="5.09851">
        <ele>272</ele>
        <time>1970-01-01T05:27:04.000Z</time>
      </trkpt>
      <trkpt lat="44.71328" lon="5.09835">
        <ele>271.8</ele>
        <time>1970-01-01T05:27:05.000Z</time>
      </trkpt>
      <trkpt lat="44.71325" lon="5.0982">
        <ele>272.6</ele>
        <time>1970-01-01T05:27:06.000Z</time>
      </trkpt>
      <trkpt lat="44.71322" lon="5.09806">
        <ele>273.2</ele>
        <time>1970-01-01T05:27:07.000Z</time>
      </trkpt>
      <trkpt lat="44.71319" lon="5.09797">
        <ele>273.6</ele>
        <time>1970-01-01T05:27:08.000Z</time>
      </trkpt>
      <trkpt lat="44.71316" lon="5.09791">
        <ele>273.6</ele>
        <time>1970-01-01T05:27:09.000Z</time>
      </trkpt>
      <trkpt lat="44.71315" lon="5.09787">
        <ele>273.8</ele>
        <time>1970-01-01T05:27:10.000Z</time>
      </trkpt>
      <trkpt lat="44.71316" lon="5.09786">
        <ele>273.8</ele>
        <time>1970-01-01T05:27:11.000Z</time>
      </trkpt>
      <trkpt lat="44.71318" lon="5.09786">
        <ele>273.8</ele>
        <time>1970-01-01T05:27:12.000Z</time>
      </trkpt>
      <trkpt lat="44.7132" lon="5.09788">
        <ele>273.8</ele>
        <time>1970-01-01T05:27:13.000Z</time>
      </trkpt>
      <trkpt lat="44.71321" lon="5.09791">
        <ele>273.8</ele>
        <time>1970-01-01T05:27:14.000Z</time>
      </trkpt>
      <trkpt lat="44.71322" lon="5.098">
        <ele>274</ele>
        <time>1970-01-01T05:27:16.000Z</time>
      </trkpt>
      <trkpt lat="44.71323" lon="5.09805">
        <ele>274</ele>
        <time>1970-01-01T05:27:17.000Z</time>
      </trkpt>
      <trkpt lat="44.71323" lon="5.0981">
        <ele>274.2</ele>
        <time>1970-01-01T05:27:18.000Z</time>
      </trkpt>
      <trkpt lat="44.71323" lon="5.09814">
        <ele>274.2</ele>
        <time>1970-01-01T05:27:19.000Z</time>
      </trkpt>
      <trkpt lat="44.71323" lon="5.09818">
        <ele>274.2</ele>
        <time>1970-01-01T05:27:20.000Z</time>
      </trkpt>
      <trkpt lat="44.71322" lon="5.09821">
        <ele>274.2</ele>
        <time>1970-01-01T05:27:21.000Z</time>
      </trkpt>
      <trkpt lat="44.71322" lon="5.09824">
        <ele>274.2</ele>
        <time>1970-01-01T05:27:22.000Z</time>
      </trkpt>
      <trkpt lat="44.71321" lon="5.09827">
        <ele>274.2</ele>
        <time>1970-01-01T05:27:23.000Z</time>
      </trkpt>
      <trkpt lat="44.71319" lon="5.0983">
        <ele>274</ele>
        <time>1970-01-01T05:27:26.000Z</time>
      </trkpt>
      <trkpt lat="44.71324" lon="5.09851">
        <ele>273.4</ele>
        <time>1970-01-01T05:28:38.000Z</time>
      </trkpt>
      <trkpt lat="44.71326" lon="5.09848">
        <ele>273.2</ele>
        <time>1970-01-01T05:29:09.000Z</time>
      </trkpt>
      <trkpt lat="44.71326" lon="5.09848">
        <ele>266</ele>
        <time>1970-01-01T05:29:10.000Z</time>
      </trkpt>
      <trkpt lat="44.71326" lon="5.09845">
        <ele>266</ele>
        <time>1970-01-01T05:29:12.000Z</time>
      </trkpt>
    </trkseg>
  </trk>
</gpx>